<?xml version="1.0" encoding="UTF-8" standalone="no" ?>
<gpx xmlns="http://www.topografix.com/GPX/1/1" xmlns:xsi="http://www.w3.org/2001/XMLSchema-instance" xsi:schemaLocation="http://www.topografix.com/GPX/1/1 http://www.topografix.com/GPX/1/1/gpx.xsd" version="1.1" creator="VisuGPX - https://www.visugpx.com">
  <metadata>
    <name>Traces 2022</name>
    <desc><![CDATA[8 traces potentielles pour la sortie 2022 !]]></desc>
  </metadata>
  <trk>
    <name><![CDATA[Trace 4]]></name>
    <desc><![CDATA[Larzac: buissières, pied, hameau troglodyte, arche...]]></desc>
    <extensions>
      <line xmlns="http://www.topografix.com/GPX/gpx_style/0/2">
        <color>ff00ff</color>
        <width>4</width>
          <extensions>
            <sens>1</sens>
          </extensions>
      </line>
    </extensions>
    <trkseg>
      <trkpt lat="44.07211" lon="3.06413">
        <ele>725.4</ele>
        <time>2019-05-31T08:50:47Z</time>
      </trkpt>
      <trkpt lat="44.07213" lon="3.06412">
        <ele>725.4</ele>
        <time>2019-05-31T08:51:08Z</time>
      </trkpt>
      <trkpt lat="44.07213" lon="3.06416">
        <ele>725.4</ele>
        <time>2019-05-31T08:52:41Z</time>
      </trkpt>
      <trkpt lat="44.07213" lon="3.06423">
        <ele>725.4</ele>
        <time>2019-05-31T08:52:43Z</time>
      </trkpt>
      <trkpt lat="44.07215" lon="3.06426">
        <ele>725.3</ele>
        <time>2019-05-31T08:52:45Z</time>
      </trkpt>
      <trkpt lat="44.07218" lon="3.0643">
        <ele>725.3</ele>
        <time>2019-05-31T08:52:48Z</time>
      </trkpt>
      <trkpt lat="44.0722" lon="3.06433">
        <ele>725.3</ele>
        <time>2019-05-31T08:52:50Z</time>
      </trkpt>
      <trkpt lat="44.07223" lon="3.06438">
        <ele>725</ele>
        <time>2019-05-31T08:52:52Z</time>
      </trkpt>
      <trkpt lat="44.07226" lon="3.06444">
        <ele>724.6</ele>
        <time>2019-05-31T08:52:54Z</time>
      </trkpt>
      <trkpt lat="44.07228" lon="3.06447">
        <ele>724.4</ele>
        <time>2019-05-31T08:52:55Z</time>
      </trkpt>
      <trkpt lat="44.0723" lon="3.0645">
        <ele>724.2</ele>
        <time>2019-05-31T08:52:56Z</time>
      </trkpt>
      <trkpt lat="44.07232" lon="3.06453">
        <ele>724</ele>
        <time>2019-05-31T08:52:57Z</time>
      </trkpt>
      <trkpt lat="44.07234" lon="3.06456">
        <ele>723.8</ele>
        <time>2019-05-31T08:52:58Z</time>
      </trkpt>
      <trkpt lat="44.07236" lon="3.06459">
        <ele>723.5</ele>
        <time>2019-05-31T08:52:59Z</time>
      </trkpt>
      <trkpt lat="44.07238" lon="3.06462">
        <ele>723.3</ele>
        <time>2019-05-31T08:53:00Z</time>
      </trkpt>
      <trkpt lat="44.0724" lon="3.06464">
        <ele>723</ele>
        <time>2019-05-31T08:53:01Z</time>
      </trkpt>
      <trkpt lat="44.07242" lon="3.06467">
        <ele>722.8</ele>
        <time>2019-05-31T08:53:02Z</time>
      </trkpt>
      <trkpt lat="44.07245" lon="3.06469">
        <ele>722.4</ele>
        <time>2019-05-31T08:53:03Z</time>
      </trkpt>
      <trkpt lat="44.07247" lon="3.06472">
        <ele>722.1</ele>
        <time>2019-05-31T08:53:04Z</time>
      </trkpt>
      <trkpt lat="44.0725" lon="3.06475">
        <ele>721.7</ele>
        <time>2019-05-31T08:53:05Z</time>
      </trkpt>
      <trkpt lat="44.07254" lon="3.06477">
        <ele>721.2</ele>
        <time>2019-05-31T08:53:06Z</time>
      </trkpt>
      <trkpt lat="44.07257" lon="3.0648">
        <ele>720.8</ele>
        <time>2019-05-31T08:53:07Z</time>
      </trkpt>
      <trkpt lat="44.0726" lon="3.06483">
        <ele>720.3</ele>
        <time>2019-05-31T08:53:08Z</time>
      </trkpt>
      <trkpt lat="44.07263" lon="3.06486">
        <ele>719.8</ele>
        <time>2019-05-31T08:53:09Z</time>
      </trkpt>
      <trkpt lat="44.07266" lon="3.06489">
        <ele>719.3</ele>
        <time>2019-05-31T08:53:10Z</time>
      </trkpt>
      <trkpt lat="44.07269" lon="3.06493">
        <ele>718.8</ele>
        <time>2019-05-31T08:53:11Z</time>
      </trkpt>
      <trkpt lat="44.07272" lon="3.06498">
        <ele>718.4</ele>
        <time>2019-05-31T08:53:12Z</time>
      </trkpt>
      <trkpt lat="44.07275" lon="3.06504">
        <ele>718</ele>
        <time>2019-05-31T08:53:13Z</time>
      </trkpt>
      <trkpt lat="44.07279" lon="3.0651">
        <ele>717.6</ele>
        <time>2019-05-31T08:53:14Z</time>
      </trkpt>
      <trkpt lat="44.07283" lon="3.06515">
        <ele>717.2</ele>
        <time>2019-05-31T08:53:15Z</time>
      </trkpt>
      <trkpt lat="44.07288" lon="3.0652">
        <ele>716.9</ele>
        <time>2019-05-31T08:53:16Z</time>
      </trkpt>
      <trkpt lat="44.07292" lon="3.06526">
        <ele>716.6</ele>
        <time>2019-05-31T08:53:17Z</time>
      </trkpt>
      <trkpt lat="44.07298" lon="3.06533">
        <ele>716</ele>
        <time>2019-05-31T08:53:18Z</time>
      </trkpt>
      <trkpt lat="44.07304" lon="3.0654">
        <ele>715.5</ele>
        <time>2019-05-31T08:53:19Z</time>
      </trkpt>
      <trkpt lat="44.07309" lon="3.0655">
        <ele>714.9</ele>
        <time>2019-05-31T08:53:20Z</time>
      </trkpt>
      <trkpt lat="44.07313" lon="3.06559">
        <ele>714.6</ele>
        <time>2019-05-31T08:53:21Z</time>
      </trkpt>
      <trkpt lat="44.07315" lon="3.0657">
        <ele>714.1</ele>
        <time>2019-05-31T08:53:22Z</time>
      </trkpt>
      <trkpt lat="44.07316" lon="3.06582">
        <ele>713.7</ele>
        <time>2019-05-31T08:53:23Z</time>
      </trkpt>
      <trkpt lat="44.07317" lon="3.06595">
        <ele>713.2</ele>
        <time>2019-05-31T08:53:24Z</time>
      </trkpt>
      <trkpt lat="44.07315" lon="3.06607">
        <ele>712.7</ele>
        <time>2019-05-31T08:53:25Z</time>
      </trkpt>
      <trkpt lat="44.07314" lon="3.06619">
        <ele>712.2</ele>
        <time>2019-05-31T08:53:26Z</time>
      </trkpt>
      <trkpt lat="44.07315" lon="3.06631">
        <ele>711.8</ele>
        <time>2019-05-31T08:53:27Z</time>
      </trkpt>
      <trkpt lat="44.07317" lon="3.06642">
        <ele>711.4</ele>
        <time>2019-05-31T08:53:28Z</time>
      </trkpt>
      <trkpt lat="44.07319" lon="3.06653">
        <ele>711.1</ele>
        <time>2019-05-31T08:53:29Z</time>
      </trkpt>
      <trkpt lat="44.07322" lon="3.06665">
        <ele>710.9</ele>
        <time>2019-05-31T08:53:30Z</time>
      </trkpt>
      <trkpt lat="44.07324" lon="3.06676">
        <ele>710.8</ele>
        <time>2019-05-31T08:53:31Z</time>
      </trkpt>
      <trkpt lat="44.07326" lon="3.06686">
        <ele>710.8</ele>
        <time>2019-05-31T08:53:32Z</time>
      </trkpt>
      <trkpt lat="44.07328" lon="3.06698">
        <ele>710.8</ele>
        <time>2019-05-31T08:53:33Z</time>
      </trkpt>
      <trkpt lat="44.07329" lon="3.0671">
        <ele>710.8</ele>
        <time>2019-05-31T08:53:34Z</time>
      </trkpt>
      <trkpt lat="44.07329" lon="3.0672">
        <ele>710.8</ele>
        <time>2019-05-31T08:53:35Z</time>
      </trkpt>
      <trkpt lat="44.07331" lon="3.06729">
        <ele>710.7</ele>
        <time>2019-05-31T08:53:36Z</time>
      </trkpt>
      <trkpt lat="44.07335" lon="3.06736">
        <ele>710.6</ele>
        <time>2019-05-31T08:53:37Z</time>
      </trkpt>
      <trkpt lat="44.07338" lon="3.06742">
        <ele>710.6</ele>
        <time>2019-05-31T08:53:38Z</time>
      </trkpt>
      <trkpt lat="44.07342" lon="3.06746">
        <ele>710.5</ele>
        <time>2019-05-31T08:53:39Z</time>
      </trkpt>
      <trkpt lat="44.07346" lon="3.0675">
        <ele>710.6</ele>
        <time>2019-05-31T08:53:40Z</time>
      </trkpt>
      <trkpt lat="44.0735" lon="3.06755">
        <ele>710.6</ele>
        <time>2019-05-31T08:53:41Z</time>
      </trkpt>
      <trkpt lat="44.07354" lon="3.0676">
        <ele>710.7</ele>
        <time>2019-05-31T08:53:42Z</time>
      </trkpt>
      <trkpt lat="44.07356" lon="3.06764">
        <ele>710.8</ele>
        <time>2019-05-31T08:53:43Z</time>
      </trkpt>
      <trkpt lat="44.07359" lon="3.06769">
        <ele>710.8</ele>
        <time>2019-05-31T08:53:44Z</time>
      </trkpt>
      <trkpt lat="44.07362" lon="3.06774">
        <ele>710.9</ele>
        <time>2019-05-31T08:53:45Z</time>
      </trkpt>
      <trkpt lat="44.07363" lon="3.06778">
        <ele>710.9</ele>
        <time>2019-05-31T08:53:46Z</time>
      </trkpt>
      <trkpt lat="44.07365" lon="3.06783">
        <ele>710.9</ele>
        <time>2019-05-31T08:53:47Z</time>
      </trkpt>
      <trkpt lat="44.07368" lon="3.06787">
        <ele>710.9</ele>
        <time>2019-05-31T08:53:48Z</time>
      </trkpt>
      <trkpt lat="44.0737" lon="3.06791">
        <ele>711</ele>
        <time>2019-05-31T08:53:49Z</time>
      </trkpt>
      <trkpt lat="44.07372" lon="3.06796">
        <ele>711</ele>
        <time>2019-05-31T08:53:50Z</time>
      </trkpt>
      <trkpt lat="44.07375" lon="3.06801">
        <ele>711</ele>
        <time>2019-05-31T08:53:51Z</time>
      </trkpt>
      <trkpt lat="44.07378" lon="3.06804">
        <ele>710.9</ele>
        <time>2019-05-31T08:53:52Z</time>
      </trkpt>
      <trkpt lat="44.0738" lon="3.06808">
        <ele>710.9</ele>
        <time>2019-05-31T08:53:53Z</time>
      </trkpt>
      <trkpt lat="44.07384" lon="3.06812">
        <ele>710.9</ele>
        <time>2019-05-31T08:53:54Z</time>
      </trkpt>
      <trkpt lat="44.07387" lon="3.06816">
        <ele>710.8</ele>
        <time>2019-05-31T08:53:55Z</time>
      </trkpt>
      <trkpt lat="44.0739" lon="3.06818">
        <ele>710.7</ele>
        <time>2019-05-31T08:53:56Z</time>
      </trkpt>
      <trkpt lat="44.07393" lon="3.06823">
        <ele>710.6</ele>
        <time>2019-05-31T08:53:58Z</time>
      </trkpt>
      <trkpt lat="44.07396" lon="3.06828">
        <ele>710.4</ele>
        <time>2019-05-31T08:54:00Z</time>
      </trkpt>
      <trkpt lat="44.07398" lon="3.06831">
        <ele>710.3</ele>
        <time>2019-05-31T08:54:01Z</time>
      </trkpt>
      <trkpt lat="44.074" lon="3.06834">
        <ele>710.1</ele>
        <time>2019-05-31T08:54:02Z</time>
      </trkpt>
      <trkpt lat="44.07404" lon="3.06838">
        <ele>709.9</ele>
        <time>2019-05-31T08:54:04Z</time>
      </trkpt>
      <trkpt lat="44.07406" lon="3.06841">
        <ele>709.8</ele>
        <time>2019-05-31T08:54:05Z</time>
      </trkpt>
      <trkpt lat="44.07409" lon="3.06844">
        <ele>709.7</ele>
        <time>2019-05-31T08:54:06Z</time>
      </trkpt>
      <trkpt lat="44.07412" lon="3.06847">
        <ele>709.5</ele>
        <time>2019-05-31T08:54:07Z</time>
      </trkpt>
      <trkpt lat="44.07417" lon="3.06852">
        <ele>709.3</ele>
        <time>2019-05-31T08:54:08Z</time>
      </trkpt>
      <trkpt lat="44.07421" lon="3.06858">
        <ele>709.1</ele>
        <time>2019-05-31T08:54:09Z</time>
      </trkpt>
      <trkpt lat="44.07425" lon="3.06862">
        <ele>708.9</ele>
        <time>2019-05-31T08:54:10Z</time>
      </trkpt>
      <trkpt lat="44.07428" lon="3.06867">
        <ele>708.8</ele>
        <time>2019-05-31T08:54:11Z</time>
      </trkpt>
      <trkpt lat="44.07432" lon="3.06872">
        <ele>708.6</ele>
        <time>2019-05-31T08:54:12Z</time>
      </trkpt>
      <trkpt lat="44.07436" lon="3.06878">
        <ele>708.4</ele>
        <time>2019-05-31T08:54:13Z</time>
      </trkpt>
      <trkpt lat="44.07439" lon="3.06884">
        <ele>708.2</ele>
        <time>2019-05-31T08:54:14Z</time>
      </trkpt>
      <trkpt lat="44.07442" lon="3.0689">
        <ele>708</ele>
        <time>2019-05-31T08:54:15Z</time>
      </trkpt>
      <trkpt lat="44.07444" lon="3.06896">
        <ele>707.8</ele>
        <time>2019-05-31T08:54:16Z</time>
      </trkpt>
      <trkpt lat="44.07446" lon="3.06906">
        <ele>707.6</ele>
        <time>2019-05-31T08:54:17Z</time>
      </trkpt>
      <trkpt lat="44.07448" lon="3.06914">
        <ele>707.5</ele>
        <time>2019-05-31T08:54:18Z</time>
      </trkpt>
      <trkpt lat="44.07452" lon="3.0692">
        <ele>707.4</ele>
        <time>2019-05-31T08:54:19Z</time>
      </trkpt>
      <trkpt lat="44.07456" lon="3.06923">
        <ele>707.4</ele>
        <time>2019-05-31T08:54:20Z</time>
      </trkpt>
      <trkpt lat="44.07459" lon="3.06926">
        <ele>707.5</ele>
        <time>2019-05-31T08:54:21Z</time>
      </trkpt>
      <trkpt lat="44.07468" lon="3.06929">
        <ele>707.7</ele>
        <time>2019-05-31T08:54:22Z</time>
      </trkpt>
      <trkpt lat="44.07472" lon="3.06925">
        <ele>707.8</ele>
        <time>2019-05-31T08:54:23Z</time>
      </trkpt>
      <trkpt lat="44.07478" lon="3.0692">
        <ele>708.1</ele>
        <time>2019-05-31T08:54:24Z</time>
      </trkpt>
      <trkpt lat="44.07482" lon="3.06917">
        <ele>708.3</ele>
        <time>2019-05-31T08:54:25Z</time>
      </trkpt>
      <trkpt lat="44.07485" lon="3.06915">
        <ele>707.6</ele>
        <time>2019-05-31T08:54:26Z</time>
      </trkpt>
      <trkpt lat="44.07487" lon="3.06914">
        <ele>707.2</ele>
        <time>2019-05-31T08:54:28Z</time>
      </trkpt>
      <trkpt lat="44.07492" lon="3.06912">
        <ele>706.6</ele>
        <time>2019-05-31T08:54:30Z</time>
      </trkpt>
      <trkpt lat="44.07497" lon="3.06909">
        <ele>705.8</ele>
        <time>2019-05-31T08:54:32Z</time>
      </trkpt>
      <trkpt lat="44.075" lon="3.06904">
        <ele>705.1</ele>
        <time>2019-05-31T08:54:34Z</time>
      </trkpt>
      <trkpt lat="44.07502" lon="3.06898">
        <ele>704.3</ele>
        <time>2019-05-31T08:54:36Z</time>
      </trkpt>
      <trkpt lat="44.07504" lon="3.06891">
        <ele>703.6</ele>
        <time>2019-05-31T08:54:38Z</time>
      </trkpt>
      <trkpt lat="44.07505" lon="3.06887">
        <ele>703.2</ele>
        <time>2019-05-31T08:54:39Z</time>
      </trkpt>
      <trkpt lat="44.07505" lon="3.06883">
        <ele>702.7</ele>
        <time>2019-05-31T08:54:40Z</time>
      </trkpt>
      <trkpt lat="44.07507" lon="3.06877">
        <ele>701.9</ele>
        <time>2019-05-31T08:54:42Z</time>
      </trkpt>
      <trkpt lat="44.07507" lon="3.06873">
        <ele>701.4</ele>
        <time>2019-05-31T08:54:43Z</time>
      </trkpt>
      <trkpt lat="44.07508" lon="3.06869">
        <ele>700.9</ele>
        <time>2019-05-31T08:54:44Z</time>
      </trkpt>
      <trkpt lat="44.07508" lon="3.06865">
        <ele>700.5</ele>
        <time>2019-05-31T08:54:45Z</time>
      </trkpt>
      <trkpt lat="44.07509" lon="3.06861">
        <ele>700</ele>
        <time>2019-05-31T08:54:46Z</time>
      </trkpt>
      <trkpt lat="44.0751" lon="3.06857">
        <ele>699.5</ele>
        <time>2019-05-31T08:54:47Z</time>
      </trkpt>
      <trkpt lat="44.0751" lon="3.06853">
        <ele>699</ele>
        <time>2019-05-31T08:54:48Z</time>
      </trkpt>
      <trkpt lat="44.07511" lon="3.06849">
        <ele>698.5</ele>
        <time>2019-05-31T08:54:49Z</time>
      </trkpt>
      <trkpt lat="44.07511" lon="3.06844">
        <ele>698</ele>
        <time>2019-05-31T08:54:50Z</time>
      </trkpt>
      <trkpt lat="44.07512" lon="3.0684">
        <ele>697.6</ele>
        <time>2019-05-31T08:54:51Z</time>
      </trkpt>
      <trkpt lat="44.07513" lon="3.06835">
        <ele>697.1</ele>
        <time>2019-05-31T08:54:52Z</time>
      </trkpt>
      <trkpt lat="44.07513" lon="3.0683">
        <ele>696.6</ele>
        <time>2019-05-31T08:54:53Z</time>
      </trkpt>
      <trkpt lat="44.07514" lon="3.06825">
        <ele>696.3</ele>
        <time>2019-05-31T08:54:54Z</time>
      </trkpt>
      <trkpt lat="44.07513" lon="3.06821">
        <ele>696</ele>
        <time>2019-05-31T08:54:55Z</time>
      </trkpt>
      <trkpt lat="44.07513" lon="3.06813">
        <ele>695.4</ele>
        <time>2019-05-31T08:54:57Z</time>
      </trkpt>
      <trkpt lat="44.07514" lon="3.06806">
        <ele>696</ele>
        <time>2019-05-31T08:54:59Z</time>
      </trkpt>
      <trkpt lat="44.07515" lon="3.06802">
        <ele>696.3</ele>
        <time>2019-05-31T08:55:00Z</time>
      </trkpt>
      <trkpt lat="44.07517" lon="3.06799">
        <ele>696.5</ele>
        <time>2019-05-31T08:55:01Z</time>
      </trkpt>
      <trkpt lat="44.07519" lon="3.06795">
        <ele>696.7</ele>
        <time>2019-05-31T08:55:02Z</time>
      </trkpt>
      <trkpt lat="44.07521" lon="3.06792">
        <ele>696.9</ele>
        <time>2019-05-31T08:55:03Z</time>
      </trkpt>
      <trkpt lat="44.07525" lon="3.06788">
        <ele>697.2</ele>
        <time>2019-05-31T08:55:05Z</time>
      </trkpt>
      <trkpt lat="44.07529" lon="3.06786">
        <ele>697.4</ele>
        <time>2019-05-31T08:55:07Z</time>
      </trkpt>
      <trkpt lat="44.07532" lon="3.06785">
        <ele>697.4</ele>
        <time>2019-05-31T08:55:09Z</time>
      </trkpt>
      <trkpt lat="44.07535" lon="3.06784">
        <ele>697.3</ele>
        <time>2019-05-31T08:55:12Z</time>
      </trkpt>
      <trkpt lat="44.07537" lon="3.06792">
        <ele>697.2</ele>
        <time>2019-05-31T08:56:18Z</time>
      </trkpt>
      <trkpt lat="44.07538" lon="3.06788">
        <ele>697</ele>
        <time>2019-05-31T08:59:44Z</time>
      </trkpt>
      <trkpt lat="44.07541" lon="3.06785">
        <ele>696.6</ele>
        <time>2019-05-31T08:59:59Z</time>
      </trkpt>
      <trkpt lat="44.07544" lon="3.06783">
        <ele>696.3</ele>
        <time>2019-05-31T09:00:02Z</time>
      </trkpt>
      <trkpt lat="44.07547" lon="3.06782">
        <ele>696.1</ele>
        <time>2019-05-31T09:00:05Z</time>
      </trkpt>
      <trkpt lat="44.0755" lon="3.06781">
        <ele>695.8</ele>
        <time>2019-05-31T09:00:08Z</time>
      </trkpt>
      <trkpt lat="44.07553" lon="3.0678">
        <ele>695.5</ele>
        <time>2019-05-31T09:00:11Z</time>
      </trkpt>
      <trkpt lat="44.07557" lon="3.06779">
        <ele>695.2</ele>
        <time>2019-05-31T09:00:14Z</time>
      </trkpt>
      <trkpt lat="44.07561" lon="3.06779">
        <ele>694.9</ele>
        <time>2019-05-31T09:00:16Z</time>
      </trkpt>
      <trkpt lat="44.07566" lon="3.06779">
        <ele>694.7</ele>
        <time>2019-05-31T09:00:18Z</time>
      </trkpt>
      <trkpt lat="44.0757" lon="3.06779">
        <ele>694.6</ele>
        <time>2019-05-31T09:00:19Z</time>
      </trkpt>
      <trkpt lat="44.07573" lon="3.06779">
        <ele>694.5</ele>
        <time>2019-05-31T09:00:20Z</time>
      </trkpt>
      <trkpt lat="44.07577" lon="3.06779">
        <ele>694.4</ele>
        <time>2019-05-31T09:00:21Z</time>
      </trkpt>
      <trkpt lat="44.07581" lon="3.06779">
        <ele>694.4</ele>
        <time>2019-05-31T09:00:22Z</time>
      </trkpt>
      <trkpt lat="44.07585" lon="3.06779">
        <ele>694.3</ele>
        <time>2019-05-31T09:00:23Z</time>
      </trkpt>
      <trkpt lat="44.07591" lon="3.06782">
        <ele>694.2</ele>
        <time>2019-05-31T09:00:24Z</time>
      </trkpt>
      <trkpt lat="44.07595" lon="3.06784">
        <ele>694.1</ele>
        <time>2019-05-31T09:00:25Z</time>
      </trkpt>
      <trkpt lat="44.07601" lon="3.06786">
        <ele>693.9</ele>
        <time>2019-05-31T09:00:26Z</time>
      </trkpt>
      <trkpt lat="44.07606" lon="3.06789">
        <ele>693.7</ele>
        <time>2019-05-31T09:00:27Z</time>
      </trkpt>
      <trkpt lat="44.07612" lon="3.06793">
        <ele>693.5</ele>
        <time>2019-05-31T09:00:28Z</time>
      </trkpt>
      <trkpt lat="44.07616" lon="3.06798">
        <ele>693.3</ele>
        <time>2019-05-31T09:00:29Z</time>
      </trkpt>
      <trkpt lat="44.0762" lon="3.06803">
        <ele>693.2</ele>
        <time>2019-05-31T09:00:30Z</time>
      </trkpt>
      <trkpt lat="44.07624" lon="3.06807">
        <ele>693</ele>
        <time>2019-05-31T09:00:31Z</time>
      </trkpt>
      <trkpt lat="44.07628" lon="3.06809">
        <ele>692.9</ele>
        <time>2019-05-31T09:00:32Z</time>
      </trkpt>
      <trkpt lat="44.07633" lon="3.06812">
        <ele>692.9</ele>
        <time>2019-05-31T09:00:33Z</time>
      </trkpt>
      <trkpt lat="44.07637" lon="3.06814">
        <ele>692.8</ele>
        <time>2019-05-31T09:00:34Z</time>
      </trkpt>
      <trkpt lat="44.07642" lon="3.06816">
        <ele>692.7</ele>
        <time>2019-05-31T09:00:35Z</time>
      </trkpt>
      <trkpt lat="44.07645" lon="3.06818">
        <ele>692.7</ele>
        <time>2019-05-31T09:00:36Z</time>
      </trkpt>
      <trkpt lat="44.07649" lon="3.06819">
        <ele>692.7</ele>
        <time>2019-05-31T09:00:37Z</time>
      </trkpt>
      <trkpt lat="44.07653" lon="3.0682">
        <ele>692.7</ele>
        <time>2019-05-31T09:00:38Z</time>
      </trkpt>
      <trkpt lat="44.07657" lon="3.06821">
        <ele>692.8</ele>
        <time>2019-05-31T09:00:39Z</time>
      </trkpt>
      <trkpt lat="44.0766" lon="3.06819">
        <ele>692.9</ele>
        <time>2019-05-31T09:00:40Z</time>
      </trkpt>
      <trkpt lat="44.07664" lon="3.06818">
        <ele>693</ele>
        <time>2019-05-31T09:00:41Z</time>
      </trkpt>
      <trkpt lat="44.07667" lon="3.06817">
        <ele>693.2</ele>
        <time>2019-05-31T09:00:42Z</time>
      </trkpt>
      <trkpt lat="44.07672" lon="3.06816">
        <ele>693.4</ele>
        <time>2019-05-31T09:00:44Z</time>
      </trkpt>
      <trkpt lat="44.07675" lon="3.06814">
        <ele>693.7</ele>
        <time>2019-05-31T09:00:45Z</time>
      </trkpt>
      <trkpt lat="44.07679" lon="3.06809">
        <ele>694.2</ele>
        <time>2019-05-31T09:00:47Z</time>
      </trkpt>
      <trkpt lat="44.07681" lon="3.06806">
        <ele>694.6</ele>
        <time>2019-05-31T09:00:48Z</time>
      </trkpt>
      <trkpt lat="44.07684" lon="3.06802">
        <ele>695</ele>
        <time>2019-05-31T09:00:50Z</time>
      </trkpt>
      <trkpt lat="44.07688" lon="3.06797">
        <ele>695.6</ele>
        <time>2019-05-31T09:00:52Z</time>
      </trkpt>
      <trkpt lat="44.07692" lon="3.06793">
        <ele>695.9</ele>
        <time>2019-05-31T09:00:54Z</time>
      </trkpt>
      <trkpt lat="44.07695" lon="3.06787">
        <ele>696.3</ele>
        <time>2019-05-31T09:00:56Z</time>
      </trkpt>
      <trkpt lat="44.07697" lon="3.06784">
        <ele>696.6</ele>
        <time>2019-05-31T09:00:57Z</time>
      </trkpt>
      <trkpt lat="44.077" lon="3.06779">
        <ele>697.1</ele>
        <time>2019-05-31T09:00:59Z</time>
      </trkpt>
      <trkpt lat="44.07702" lon="3.06776">
        <ele>697.3</ele>
        <time>2019-05-31T09:01:00Z</time>
      </trkpt>
      <trkpt lat="44.07705" lon="3.06774">
        <ele>697.6</ele>
        <time>2019-05-31T09:01:01Z</time>
      </trkpt>
      <trkpt lat="44.07709" lon="3.0677">
        <ele>698</ele>
        <time>2019-05-31T09:01:03Z</time>
      </trkpt>
      <trkpt lat="44.07712" lon="3.06765">
        <ele>698.4</ele>
        <time>2019-05-31T09:01:05Z</time>
      </trkpt>
      <trkpt lat="44.07715" lon="3.06762">
        <ele>698.7</ele>
        <time>2019-05-31T09:01:07Z</time>
      </trkpt>
      <trkpt lat="44.0772" lon="3.06759">
        <ele>699.3</ele>
        <time>2019-05-31T09:01:09Z</time>
      </trkpt>
      <trkpt lat="44.07725" lon="3.06758">
        <ele>699.9</ele>
        <time>2019-05-31T09:01:11Z</time>
      </trkpt>
      <trkpt lat="44.07729" lon="3.06758">
        <ele>700.4</ele>
        <time>2019-05-31T09:01:13Z</time>
      </trkpt>
      <trkpt lat="44.07734" lon="3.06757">
        <ele>700.9</ele>
        <time>2019-05-31T09:01:15Z</time>
      </trkpt>
      <trkpt lat="44.07737" lon="3.06756">
        <ele>701.2</ele>
        <time>2019-05-31T09:01:16Z</time>
      </trkpt>
      <trkpt lat="44.07739" lon="3.06754">
        <ele>701.5</ele>
        <time>2019-05-31T09:01:17Z</time>
      </trkpt>
      <trkpt lat="44.07744" lon="3.06752">
        <ele>702.1</ele>
        <time>2019-05-31T09:01:19Z</time>
      </trkpt>
      <trkpt lat="44.0775" lon="3.0675">
        <ele>702.7</ele>
        <time>2019-05-31T09:01:21Z</time>
      </trkpt>
      <trkpt lat="44.07755" lon="3.06748">
        <ele>703</ele>
        <time>2019-05-31T09:01:23Z</time>
      </trkpt>
      <trkpt lat="44.07759" lon="3.06745">
        <ele>703.3</ele>
        <time>2019-05-31T09:01:25Z</time>
      </trkpt>
      <trkpt lat="44.07763" lon="3.06743">
        <ele>703.5</ele>
        <time>2019-05-31T09:01:27Z</time>
      </trkpt>
      <trkpt lat="44.07766" lon="3.0674">
        <ele>703.7</ele>
        <time>2019-05-31T09:01:29Z</time>
      </trkpt>
      <trkpt lat="44.07769" lon="3.06739">
        <ele>704</ele>
        <time>2019-05-31T09:01:31Z</time>
      </trkpt>
      <trkpt lat="44.07774" lon="3.06738">
        <ele>704.3</ele>
        <time>2019-05-31T09:01:33Z</time>
      </trkpt>
      <trkpt lat="44.07778" lon="3.06739">
        <ele>704.6</ele>
        <time>2019-05-31T09:01:35Z</time>
      </trkpt>
      <trkpt lat="44.07782" lon="3.06742">
        <ele>704.8</ele>
        <time>2019-05-31T09:01:37Z</time>
      </trkpt>
      <trkpt lat="44.07786" lon="3.06745">
        <ele>705.1</ele>
        <time>2019-05-31T09:01:39Z</time>
      </trkpt>
      <trkpt lat="44.07788" lon="3.06751">
        <ele>705.3</ele>
        <time>2019-05-31T09:01:41Z</time>
      </trkpt>
      <trkpt lat="44.07791" lon="3.06755">
        <ele>705.5</ele>
        <time>2019-05-31T09:01:43Z</time>
      </trkpt>
      <trkpt lat="44.07794" lon="3.06757">
        <ele>705.6</ele>
        <time>2019-05-31T09:01:45Z</time>
      </trkpt>
      <trkpt lat="44.07797" lon="3.06759">
        <ele>705.8</ele>
        <time>2019-05-31T09:01:47Z</time>
      </trkpt>
      <trkpt lat="44.07801" lon="3.0676">
        <ele>706</ele>
        <time>2019-05-31T09:01:50Z</time>
      </trkpt>
      <trkpt lat="44.07804" lon="3.06762">
        <ele>706.2</ele>
        <time>2019-05-31T09:01:52Z</time>
      </trkpt>
      <trkpt lat="44.07807" lon="3.06764">
        <ele>706.4</ele>
        <time>2019-05-31T09:01:54Z</time>
      </trkpt>
      <trkpt lat="44.07811" lon="3.06765">
        <ele>706.9</ele>
        <time>2019-05-31T09:01:56Z</time>
      </trkpt>
      <trkpt lat="44.07815" lon="3.06765">
        <ele>707.4</ele>
        <time>2019-05-31T09:01:58Z</time>
      </trkpt>
      <trkpt lat="44.07818" lon="3.06765">
        <ele>707.9</ele>
        <time>2019-05-31T09:02:00Z</time>
      </trkpt>
      <trkpt lat="44.07821" lon="3.06763">
        <ele>708.4</ele>
        <time>2019-05-31T09:02:02Z</time>
      </trkpt>
      <trkpt lat="44.07825" lon="3.06764">
        <ele>709</ele>
        <time>2019-05-31T09:02:04Z</time>
      </trkpt>
      <trkpt lat="44.07828" lon="3.06765">
        <ele>709.6</ele>
        <time>2019-05-31T09:02:06Z</time>
      </trkpt>
      <trkpt lat="44.07832" lon="3.06766">
        <ele>710.1</ele>
        <time>2019-05-31T09:02:09Z</time>
      </trkpt>
      <trkpt lat="44.07836" lon="3.06766">
        <ele>710.7</ele>
        <time>2019-05-31T09:02:11Z</time>
      </trkpt>
      <trkpt lat="44.0784" lon="3.06767">
        <ele>711.2</ele>
        <time>2019-05-31T09:02:13Z</time>
      </trkpt>
      <trkpt lat="44.07843" lon="3.06769">
        <ele>711.6</ele>
        <time>2019-05-31T09:02:15Z</time>
      </trkpt>
      <trkpt lat="44.07847" lon="3.06772">
        <ele>712</ele>
        <time>2019-05-31T09:02:17Z</time>
      </trkpt>
      <trkpt lat="44.0785" lon="3.06777">
        <ele>712.3</ele>
        <time>2019-05-31T09:02:19Z</time>
      </trkpt>
      <trkpt lat="44.07853" lon="3.0678">
        <ele>712.4</ele>
        <time>2019-05-31T09:02:21Z</time>
      </trkpt>
      <trkpt lat="44.07857" lon="3.06782">
        <ele>712.6</ele>
        <time>2019-05-31T09:02:23Z</time>
      </trkpt>
      <trkpt lat="44.0786" lon="3.06784">
        <ele>712.7</ele>
        <time>2019-05-31T09:02:25Z</time>
      </trkpt>
      <trkpt lat="44.07863" lon="3.06786">
        <ele>712.8</ele>
        <time>2019-05-31T09:02:27Z</time>
      </trkpt>
      <trkpt lat="44.07866" lon="3.06789">
        <ele>712.9</ele>
        <time>2019-05-31T09:02:29Z</time>
      </trkpt>
      <trkpt lat="44.0787" lon="3.06792">
        <ele>713</ele>
        <time>2019-05-31T09:02:31Z</time>
      </trkpt>
      <trkpt lat="44.07873" lon="3.06796">
        <ele>713.2</ele>
        <time>2019-05-31T09:02:33Z</time>
      </trkpt>
      <trkpt lat="44.07876" lon="3.06799">
        <ele>713.3</ele>
        <time>2019-05-31T09:02:35Z</time>
      </trkpt>
      <trkpt lat="44.07879" lon="3.06804">
        <ele>713.5</ele>
        <time>2019-05-31T09:02:37Z</time>
      </trkpt>
      <trkpt lat="44.07882" lon="3.06811">
        <ele>713.6</ele>
        <time>2019-05-31T09:02:39Z</time>
      </trkpt>
      <trkpt lat="44.07883" lon="3.06817">
        <ele>713.8</ele>
        <time>2019-05-31T09:02:41Z</time>
      </trkpt>
      <trkpt lat="44.07886" lon="3.06823">
        <ele>714</ele>
        <time>2019-05-31T09:02:43Z</time>
      </trkpt>
      <trkpt lat="44.07888" lon="3.06829">
        <ele>714.2</ele>
        <time>2019-05-31T09:02:45Z</time>
      </trkpt>
      <trkpt lat="44.0789" lon="3.06833">
        <ele>714.4</ele>
        <time>2019-05-31T09:02:47Z</time>
      </trkpt>
      <trkpt lat="44.07892" lon="3.06839">
        <ele>714.5</ele>
        <time>2019-05-31T09:02:49Z</time>
      </trkpt>
      <trkpt lat="44.07893" lon="3.06844">
        <ele>714.6</ele>
        <time>2019-05-31T09:02:51Z</time>
      </trkpt>
      <trkpt lat="44.07891" lon="3.06851">
        <ele>714.7</ele>
        <time>2019-05-31T09:02:53Z</time>
      </trkpt>
      <trkpt lat="44.07888" lon="3.06857">
        <ele>714.9</ele>
        <time>2019-05-31T09:02:55Z</time>
      </trkpt>
      <trkpt lat="44.07887" lon="3.06861">
        <ele>714.9</ele>
        <time>2019-05-31T09:02:56Z</time>
      </trkpt>
      <trkpt lat="44.07885" lon="3.06865">
        <ele>714.9</ele>
        <time>2019-05-31T09:02:57Z</time>
      </trkpt>
      <trkpt lat="44.07884" lon="3.06868">
        <ele>715</ele>
        <time>2019-05-31T09:02:58Z</time>
      </trkpt>
      <trkpt lat="44.07884" lon="3.06872">
        <ele>715</ele>
        <time>2019-05-31T09:02:59Z</time>
      </trkpt>
      <trkpt lat="44.07884" lon="3.06877">
        <ele>715</ele>
        <time>2019-05-31T09:03:00Z</time>
      </trkpt>
      <trkpt lat="44.07883" lon="3.06882">
        <ele>715</ele>
        <time>2019-05-31T09:03:01Z</time>
      </trkpt>
      <trkpt lat="44.07883" lon="3.06887">
        <ele>715.1</ele>
        <time>2019-05-31T09:03:02Z</time>
      </trkpt>
      <trkpt lat="44.07883" lon="3.06891">
        <ele>715.1</ele>
        <time>2019-05-31T09:03:03Z</time>
      </trkpt>
      <trkpt lat="44.07883" lon="3.06896">
        <ele>715.3</ele>
        <time>2019-05-31T09:03:04Z</time>
      </trkpt>
      <trkpt lat="44.07883" lon="3.06902">
        <ele>715.4</ele>
        <time>2019-05-31T09:03:05Z</time>
      </trkpt>
      <trkpt lat="44.07883" lon="3.06907">
        <ele>715.5</ele>
        <time>2019-05-31T09:03:06Z</time>
      </trkpt>
      <trkpt lat="44.07884" lon="3.06911">
        <ele>715.6</ele>
        <time>2019-05-31T09:03:07Z</time>
      </trkpt>
      <trkpt lat="44.07884" lon="3.06916">
        <ele>715.8</ele>
        <time>2019-05-31T09:03:08Z</time>
      </trkpt>
      <trkpt lat="44.07884" lon="3.06921">
        <ele>716</ele>
        <time>2019-05-31T09:03:09Z</time>
      </trkpt>
      <trkpt lat="44.07884" lon="3.06926">
        <ele>716.2</ele>
        <time>2019-05-31T09:03:10Z</time>
      </trkpt>
      <trkpt lat="44.07884" lon="3.06931">
        <ele>716.3</ele>
        <time>2019-05-31T09:03:11Z</time>
      </trkpt>
      <trkpt lat="44.07884" lon="3.06936">
        <ele>716.5</ele>
        <time>2019-05-31T09:03:12Z</time>
      </trkpt>
      <trkpt lat="44.07884" lon="3.0694">
        <ele>716.7</ele>
        <time>2019-05-31T09:03:13Z</time>
      </trkpt>
      <trkpt lat="44.07884" lon="3.06945">
        <ele>716.9</ele>
        <time>2019-05-31T09:03:14Z</time>
      </trkpt>
      <trkpt lat="44.07883" lon="3.06949">
        <ele>717</ele>
        <time>2019-05-31T09:03:15Z</time>
      </trkpt>
      <trkpt lat="44.07883" lon="3.06953">
        <ele>717.1</ele>
        <time>2019-05-31T09:03:16Z</time>
      </trkpt>
      <trkpt lat="44.07883" lon="3.06958">
        <ele>717.3</ele>
        <time>2019-05-31T09:03:17Z</time>
      </trkpt>
      <trkpt lat="44.07883" lon="3.06964">
        <ele>717.6</ele>
        <time>2019-05-31T09:03:18Z</time>
      </trkpt>
      <trkpt lat="44.07886" lon="3.06972">
        <ele>717.9</ele>
        <time>2019-05-31T09:03:19Z</time>
      </trkpt>
      <trkpt lat="44.07887" lon="3.06981">
        <ele>718.3</ele>
        <time>2019-05-31T09:03:20Z</time>
      </trkpt>
      <trkpt lat="44.07887" lon="3.06988">
        <ele>718.7</ele>
        <time>2019-05-31T09:03:21Z</time>
      </trkpt>
      <trkpt lat="44.07887" lon="3.06997">
        <ele>719.2</ele>
        <time>2019-05-31T09:03:22Z</time>
      </trkpt>
      <trkpt lat="44.07888" lon="3.07005">
        <ele>719.9</ele>
        <time>2019-05-31T09:03:23Z</time>
      </trkpt>
      <trkpt lat="44.0789" lon="3.07015">
        <ele>720.5</ele>
        <time>2019-05-31T09:03:24Z</time>
      </trkpt>
      <trkpt lat="44.07891" lon="3.07021">
        <ele>720.9</ele>
        <time>2019-05-31T09:03:25Z</time>
      </trkpt>
      <trkpt lat="44.07893" lon="3.0703">
        <ele>721.4</ele>
        <time>2019-05-31T09:03:26Z</time>
      </trkpt>
      <trkpt lat="44.07894" lon="3.07038">
        <ele>721.8</ele>
        <time>2019-05-31T09:03:27Z</time>
      </trkpt>
      <trkpt lat="44.07896" lon="3.07047">
        <ele>722.2</ele>
        <time>2019-05-31T09:03:28Z</time>
      </trkpt>
      <trkpt lat="44.07898" lon="3.07055">
        <ele>722.5</ele>
        <time>2019-05-31T09:03:29Z</time>
      </trkpt>
      <trkpt lat="44.079" lon="3.07063">
        <ele>723</ele>
        <time>2019-05-31T09:03:30Z</time>
      </trkpt>
      <trkpt lat="44.07901" lon="3.07071">
        <ele>723.7</ele>
        <time>2019-05-31T09:03:31Z</time>
      </trkpt>
      <trkpt lat="44.07902" lon="3.07079">
        <ele>724.3</ele>
        <time>2019-05-31T09:03:32Z</time>
      </trkpt>
      <trkpt lat="44.07902" lon="3.07086">
        <ele>724.9</ele>
        <time>2019-05-31T09:03:33Z</time>
      </trkpt>
      <trkpt lat="44.07904" lon="3.07094">
        <ele>725.6</ele>
        <time>2019-05-31T09:03:34Z</time>
      </trkpt>
      <trkpt lat="44.07905" lon="3.07101">
        <ele>726.2</ele>
        <time>2019-05-31T09:03:35Z</time>
      </trkpt>
      <trkpt lat="44.07908" lon="3.07108">
        <ele>726.8</ele>
        <time>2019-05-31T09:03:36Z</time>
      </trkpt>
      <trkpt lat="44.0791" lon="3.07115">
        <ele>727.5</ele>
        <time>2019-05-31T09:03:37Z</time>
      </trkpt>
      <trkpt lat="44.07911" lon="3.07122">
        <ele>728.1</ele>
        <time>2019-05-31T09:03:38Z</time>
      </trkpt>
      <trkpt lat="44.07914" lon="3.07128">
        <ele>728.7</ele>
        <time>2019-05-31T09:03:39Z</time>
      </trkpt>
      <trkpt lat="44.07916" lon="3.07134">
        <ele>729.7</ele>
        <time>2019-05-31T09:03:40Z</time>
      </trkpt>
      <trkpt lat="44.07918" lon="3.07141">
        <ele>729.8</ele>
        <time>2019-05-31T09:03:41Z</time>
      </trkpt>
      <trkpt lat="44.07919" lon="3.07145">
        <ele>729.9</ele>
        <time>2019-05-31T09:03:42Z</time>
      </trkpt>
      <trkpt lat="44.0792" lon="3.07148">
        <ele>729.9</ele>
        <time>2019-05-31T09:03:43Z</time>
      </trkpt>
      <trkpt lat="44.07922" lon="3.07153">
        <ele>730</ele>
        <time>2019-05-31T09:03:44Z</time>
      </trkpt>
      <trkpt lat="44.07923" lon="3.07158">
        <ele>730.1</ele>
        <time>2019-05-31T09:03:45Z</time>
      </trkpt>
      <trkpt lat="44.07926" lon="3.07164">
        <ele>730.2</ele>
        <time>2019-05-31T09:03:47Z</time>
      </trkpt>
      <trkpt lat="44.07929" lon="3.07169">
        <ele>730.3</ele>
        <time>2019-05-31T09:03:48Z</time>
      </trkpt>
      <trkpt lat="44.07931" lon="3.07175">
        <ele>730.4</ele>
        <time>2019-05-31T09:03:49Z</time>
      </trkpt>
      <trkpt lat="44.07934" lon="3.07178">
        <ele>730.6</ele>
        <time>2019-05-31T09:03:50Z</time>
      </trkpt>
      <trkpt lat="44.07938" lon="3.07183">
        <ele>730.7</ele>
        <time>2019-05-31T09:03:51Z</time>
      </trkpt>
      <trkpt lat="44.07939" lon="3.07187">
        <ele>730.8</ele>
        <time>2019-05-31T09:03:52Z</time>
      </trkpt>
      <trkpt lat="44.07942" lon="3.07191">
        <ele>730.9</ele>
        <time>2019-05-31T09:03:53Z</time>
      </trkpt>
      <trkpt lat="44.07943" lon="3.07194">
        <ele>731</ele>
        <time>2019-05-31T09:03:54Z</time>
      </trkpt>
      <trkpt lat="44.07945" lon="3.07199">
        <ele>731.2</ele>
        <time>2019-05-31T09:03:55Z</time>
      </trkpt>
      <trkpt lat="44.07947" lon="3.07203">
        <ele>731.3</ele>
        <time>2019-05-31T09:03:56Z</time>
      </trkpt>
      <trkpt lat="44.07949" lon="3.07207">
        <ele>731.4</ele>
        <time>2019-05-31T09:03:57Z</time>
      </trkpt>
      <trkpt lat="44.07951" lon="3.0721">
        <ele>731.6</ele>
        <time>2019-05-31T09:03:58Z</time>
      </trkpt>
      <trkpt lat="44.07953" lon="3.07214">
        <ele>731.7</ele>
        <time>2019-05-31T09:03:59Z</time>
      </trkpt>
      <trkpt lat="44.07956" lon="3.07217">
        <ele>731.8</ele>
        <time>2019-05-31T09:04:00Z</time>
      </trkpt>
      <trkpt lat="44.07957" lon="3.0722">
        <ele>731.9</ele>
        <time>2019-05-31T09:04:01Z</time>
      </trkpt>
      <trkpt lat="44.0796" lon="3.07224">
        <ele>732.1</ele>
        <time>2019-05-31T09:04:02Z</time>
      </trkpt>
      <trkpt lat="44.07963" lon="3.07228">
        <ele>732.2</ele>
        <time>2019-05-31T09:04:03Z</time>
      </trkpt>
      <trkpt lat="44.07965" lon="3.0723">
        <ele>732.3</ele>
        <time>2019-05-31T09:04:04Z</time>
      </trkpt>
      <trkpt lat="44.07968" lon="3.07233">
        <ele>732.4</ele>
        <time>2019-05-31T09:04:05Z</time>
      </trkpt>
      <trkpt lat="44.0797" lon="3.07236">
        <ele>732.6</ele>
        <time>2019-05-31T09:04:06Z</time>
      </trkpt>
      <trkpt lat="44.07972" lon="3.07239">
        <ele>732.7</ele>
        <time>2019-05-31T09:04:07Z</time>
      </trkpt>
      <trkpt lat="44.07974" lon="3.07242">
        <ele>732.8</ele>
        <time>2019-05-31T09:04:08Z</time>
      </trkpt>
      <trkpt lat="44.07976" lon="3.07244">
        <ele>732.9</ele>
        <time>2019-05-31T09:04:09Z</time>
      </trkpt>
      <trkpt lat="44.07979" lon="3.07247">
        <ele>733</ele>
        <time>2019-05-31T09:04:10Z</time>
      </trkpt>
      <trkpt lat="44.07981" lon="3.07249">
        <ele>733.1</ele>
        <time>2019-05-31T09:04:11Z</time>
      </trkpt>
      <trkpt lat="44.07984" lon="3.07251">
        <ele>733.3</ele>
        <time>2019-05-31T09:04:12Z</time>
      </trkpt>
      <trkpt lat="44.07988" lon="3.07256">
        <ele>733.5</ele>
        <time>2019-05-31T09:04:14Z</time>
      </trkpt>
      <trkpt lat="44.07992" lon="3.0726">
        <ele>733.7</ele>
        <time>2019-05-31T09:04:16Z</time>
      </trkpt>
      <trkpt lat="44.07996" lon="3.07265">
        <ele>733.9</ele>
        <time>2019-05-31T09:04:18Z</time>
      </trkpt>
      <trkpt lat="44.07998" lon="3.07268">
        <ele>734</ele>
        <time>2019-05-31T09:04:19Z</time>
      </trkpt>
      <trkpt lat="44.07999" lon="3.07272">
        <ele>734.2</ele>
        <time>2019-05-31T09:04:20Z</time>
      </trkpt>
      <trkpt lat="44.08" lon="3.07277">
        <ele>734.3</ele>
        <time>2019-05-31T09:04:21Z</time>
      </trkpt>
      <trkpt lat="44.08" lon="3.07282">
        <ele>734.4</ele>
        <time>2019-05-31T09:04:22Z</time>
      </trkpt>
      <trkpt lat="44.08" lon="3.07286">
        <ele>734.5</ele>
        <time>2019-05-31T09:04:23Z</time>
      </trkpt>
      <trkpt lat="44.07999" lon="3.0729">
        <ele>734.5</ele>
        <time>2019-05-31T09:04:24Z</time>
      </trkpt>
      <trkpt lat="44.07999" lon="3.07296">
        <ele>734.6</ele>
        <time>2019-05-31T09:04:26Z</time>
      </trkpt>
      <trkpt lat="44.07999" lon="3.07302">
        <ele>734.7</ele>
        <time>2019-05-31T09:04:28Z</time>
      </trkpt>
      <trkpt lat="44.08" lon="3.07306">
        <ele>734.7</ele>
        <time>2019-05-31T09:04:29Z</time>
      </trkpt>
      <trkpt lat="44.08" lon="3.0731">
        <ele>734.7</ele>
        <time>2019-05-31T09:04:30Z</time>
      </trkpt>
      <trkpt lat="44.08001" lon="3.07314">
        <ele>734.7</ele>
        <time>2019-05-31T09:04:31Z</time>
      </trkpt>
      <trkpt lat="44.08001" lon="3.07318">
        <ele>734.7</ele>
        <time>2019-05-31T09:04:32Z</time>
      </trkpt>
      <trkpt lat="44.08003" lon="3.07324">
        <ele>734.6</ele>
        <time>2019-05-31T09:04:34Z</time>
      </trkpt>
      <trkpt lat="44.08004" lon="3.07327">
        <ele>734.6</ele>
        <time>2019-05-31T09:04:35Z</time>
      </trkpt>
      <trkpt lat="44.08006" lon="3.07331">
        <ele>734.6</ele>
        <time>2019-05-31T09:04:36Z</time>
      </trkpt>
      <trkpt lat="44.08008" lon="3.07333">
        <ele>734.6</ele>
        <time>2019-05-31T09:04:37Z</time>
      </trkpt>
      <trkpt lat="44.08011" lon="3.07338">
        <ele>734.7</ele>
        <time>2019-05-31T09:04:39Z</time>
      </trkpt>
      <trkpt lat="44.08014" lon="3.07341">
        <ele>734.8</ele>
        <time>2019-05-31T09:04:41Z</time>
      </trkpt>
      <trkpt lat="44.08018" lon="3.07344">
        <ele>734.8</ele>
        <time>2019-05-31T09:04:43Z</time>
      </trkpt>
      <trkpt lat="44.08021" lon="3.07346">
        <ele>734.9</ele>
        <time>2019-05-31T09:04:45Z</time>
      </trkpt>
      <trkpt lat="44.08024" lon="3.07348">
        <ele>734.9</ele>
        <time>2019-05-31T09:04:47Z</time>
      </trkpt>
      <trkpt lat="44.08028" lon="3.07351">
        <ele>734.9</ele>
        <time>2019-05-31T09:04:49Z</time>
      </trkpt>
      <trkpt lat="44.08031" lon="3.07353">
        <ele>734.9</ele>
        <time>2019-05-31T09:04:51Z</time>
      </trkpt>
      <trkpt lat="44.08034" lon="3.07356">
        <ele>735</ele>
        <time>2019-05-31T09:04:52Z</time>
      </trkpt>
      <trkpt lat="44.08036" lon="3.07358">
        <ele>735</ele>
        <time>2019-05-31T09:04:53Z</time>
      </trkpt>
      <trkpt lat="44.0804" lon="3.07362">
        <ele>735</ele>
        <time>2019-05-31T09:04:55Z</time>
      </trkpt>
      <trkpt lat="44.08042" lon="3.07365">
        <ele>735</ele>
        <time>2019-05-31T09:04:56Z</time>
      </trkpt>
      <trkpt lat="44.08045" lon="3.0737">
        <ele>734.9</ele>
        <time>2019-05-31T09:04:58Z</time>
      </trkpt>
      <trkpt lat="44.08049" lon="3.07375">
        <ele>734.9</ele>
        <time>2019-05-31T09:05:00Z</time>
      </trkpt>
      <trkpt lat="44.08051" lon="3.07378">
        <ele>734.9</ele>
        <time>2019-05-31T09:05:01Z</time>
      </trkpt>
      <trkpt lat="44.08053" lon="3.07383">
        <ele>734.8</ele>
        <time>2019-05-31T09:05:02Z</time>
      </trkpt>
      <trkpt lat="44.08054" lon="3.07388">
        <ele>734.8</ele>
        <time>2019-05-31T09:05:03Z</time>
      </trkpt>
      <trkpt lat="44.08056" lon="3.07393">
        <ele>734.7</ele>
        <time>2019-05-31T09:05:04Z</time>
      </trkpt>
      <trkpt lat="44.08057" lon="3.07398">
        <ele>734.6</ele>
        <time>2019-05-31T09:05:05Z</time>
      </trkpt>
      <trkpt lat="44.08058" lon="3.07402">
        <ele>734.6</ele>
        <time>2019-05-31T09:05:06Z</time>
      </trkpt>
      <trkpt lat="44.0806" lon="3.07406">
        <ele>734.6</ele>
        <time>2019-05-31T09:05:07Z</time>
      </trkpt>
      <trkpt lat="44.08063" lon="3.07411">
        <ele>734.5</ele>
        <time>2019-05-31T09:05:08Z</time>
      </trkpt>
      <trkpt lat="44.08065" lon="3.07415">
        <ele>734.5</ele>
        <time>2019-05-31T09:05:09Z</time>
      </trkpt>
      <trkpt lat="44.08067" lon="3.07419">
        <ele>734.5</ele>
        <time>2019-05-31T09:05:10Z</time>
      </trkpt>
      <trkpt lat="44.08069" lon="3.07424">
        <ele>734.6</ele>
        <time>2019-05-31T09:05:11Z</time>
      </trkpt>
      <trkpt lat="44.0807" lon="3.0743">
        <ele>734.7</ele>
        <time>2019-05-31T09:05:12Z</time>
      </trkpt>
      <trkpt lat="44.08068" lon="3.07437">
        <ele>734.8</ele>
        <time>2019-05-31T09:05:13Z</time>
      </trkpt>
      <trkpt lat="44.0807" lon="3.07443">
        <ele>735</ele>
        <time>2019-05-31T09:05:14Z</time>
      </trkpt>
      <trkpt lat="44.08073" lon="3.07449">
        <ele>735.2</ele>
        <time>2019-05-31T09:05:15Z</time>
      </trkpt>
      <trkpt lat="44.08075" lon="3.07457">
        <ele>735.8</ele>
        <time>2019-05-31T09:05:16Z</time>
      </trkpt>
      <trkpt lat="44.08077" lon="3.07464">
        <ele>736.4</ele>
        <time>2019-05-31T09:05:17Z</time>
      </trkpt>
      <trkpt lat="44.08079" lon="3.07471">
        <ele>737.1</ele>
        <time>2019-05-31T09:05:18Z</time>
      </trkpt>
      <trkpt lat="44.0808" lon="3.07475">
        <ele>737.5</ele>
        <time>2019-05-31T09:05:19Z</time>
      </trkpt>
      <trkpt lat="44.08083" lon="3.0748">
        <ele>737.9</ele>
        <time>2019-05-31T09:05:20Z</time>
      </trkpt>
      <trkpt lat="44.08085" lon="3.07486">
        <ele>738.5</ele>
        <time>2019-05-31T09:05:22Z</time>
      </trkpt>
      <trkpt lat="44.08086" lon="3.07491">
        <ele>738.8</ele>
        <time>2019-05-31T09:05:23Z</time>
      </trkpt>
      <trkpt lat="44.08087" lon="3.07498">
        <ele>739.3</ele>
        <time>2019-05-31T09:05:25Z</time>
      </trkpt>
      <trkpt lat="44.08088" lon="3.07502">
        <ele>739.6</ele>
        <time>2019-05-31T09:05:26Z</time>
      </trkpt>
      <trkpt lat="44.0809" lon="3.07507">
        <ele>739.9</ele>
        <time>2019-05-31T09:05:27Z</time>
      </trkpt>
      <trkpt lat="44.08089" lon="3.07514">
        <ele>740.4</ele>
        <time>2019-05-31T09:05:29Z</time>
      </trkpt>
      <trkpt lat="44.0809" lon="3.0752">
        <ele>740.8</ele>
        <time>2019-05-31T09:05:31Z</time>
      </trkpt>
      <trkpt lat="44.08091" lon="3.07524">
        <ele>741.1</ele>
        <time>2019-05-31T09:05:32Z</time>
      </trkpt>
      <trkpt lat="44.08092" lon="3.07527">
        <ele>741.4</ele>
        <time>2019-05-31T09:05:33Z</time>
      </trkpt>
      <trkpt lat="44.08095" lon="3.07533">
        <ele>741.7</ele>
        <time>2019-05-31T09:05:35Z</time>
      </trkpt>
      <trkpt lat="44.08097" lon="3.07536">
        <ele>741.9</ele>
        <time>2019-05-31T09:05:36Z</time>
      </trkpt>
      <trkpt lat="44.081" lon="3.07541">
        <ele>742.3</ele>
        <time>2019-05-31T09:05:38Z</time>
      </trkpt>
      <trkpt lat="44.08102" lon="3.07544">
        <ele>742.5</ele>
        <time>2019-05-31T09:05:39Z</time>
      </trkpt>
      <trkpt lat="44.08103" lon="3.07551">
        <ele>742.8</ele>
        <time>2019-05-31T09:05:41Z</time>
      </trkpt>
      <trkpt lat="44.08105" lon="3.07558">
        <ele>743.1</ele>
        <time>2019-05-31T09:05:43Z</time>
      </trkpt>
      <trkpt lat="44.08105" lon="3.07562">
        <ele>743.3</ele>
        <time>2019-05-31T09:05:44Z</time>
      </trkpt>
      <trkpt lat="44.08105" lon="3.07568">
        <ele>743.6</ele>
        <time>2019-05-31T09:05:46Z</time>
      </trkpt>
      <trkpt lat="44.08106" lon="3.07572">
        <ele>743.7</ele>
        <time>2019-05-31T09:05:47Z</time>
      </trkpt>
      <trkpt lat="44.08106" lon="3.07578">
        <ele>744</ele>
        <time>2019-05-31T09:05:49Z</time>
      </trkpt>
      <trkpt lat="44.08108" lon="3.07585">
        <ele>744.5</ele>
        <time>2019-05-31T09:05:51Z</time>
      </trkpt>
      <trkpt lat="44.0811" lon="3.07591">
        <ele>745.1</ele>
        <time>2019-05-31T09:05:53Z</time>
      </trkpt>
      <trkpt lat="44.08112" lon="3.07596">
        <ele>745.6</ele>
        <time>2019-05-31T09:05:55Z</time>
      </trkpt>
      <trkpt lat="44.08114" lon="3.07603">
        <ele>746.1</ele>
        <time>2019-05-31T09:05:57Z</time>
      </trkpt>
      <trkpt lat="44.08115" lon="3.07607">
        <ele>746.4</ele>
        <time>2019-05-31T09:05:58Z</time>
      </trkpt>
      <trkpt lat="44.08115" lon="3.07612">
        <ele>746.8</ele>
        <time>2019-05-31T09:06:00Z</time>
      </trkpt>
      <trkpt lat="44.08115" lon="3.07617">
        <ele>747.1</ele>
        <time>2019-05-31T09:06:02Z</time>
      </trkpt>
      <trkpt lat="44.08116" lon="3.07621">
        <ele>747.7</ele>
        <time>2019-05-31T09:06:04Z</time>
      </trkpt>
      <trkpt lat="44.08118" lon="3.07624">
        <ele>748.4</ele>
        <time>2019-05-31T09:06:06Z</time>
      </trkpt>
      <trkpt lat="44.0812" lon="3.07628">
        <ele>748.9</ele>
        <time>2019-05-31T09:06:08Z</time>
      </trkpt>
      <trkpt lat="44.0812" lon="3.07633">
        <ele>749.8</ele>
        <time>2019-05-31T09:06:10Z</time>
      </trkpt>
      <trkpt lat="44.08119" lon="3.07639">
        <ele>750.6</ele>
        <time>2019-05-31T09:06:12Z</time>
      </trkpt>
      <trkpt lat="44.0812" lon="3.07646">
        <ele>751.4</ele>
        <time>2019-05-31T09:06:14Z</time>
      </trkpt>
      <trkpt lat="44.08122" lon="3.07651">
        <ele>752</ele>
        <time>2019-05-31T09:06:16Z</time>
      </trkpt>
      <trkpt lat="44.08123" lon="3.07654">
        <ele>752.4</ele>
        <time>2019-05-31T09:06:18Z</time>
      </trkpt>
      <trkpt lat="44.08126" lon="3.07658">
        <ele>752.9</ele>
        <time>2019-05-31T09:06:20Z</time>
      </trkpt>
      <trkpt lat="44.08129" lon="3.07662">
        <ele>753.4</ele>
        <time>2019-05-31T09:06:22Z</time>
      </trkpt>
      <trkpt lat="44.08132" lon="3.07668">
        <ele>753.8</ele>
        <time>2019-05-31T09:06:24Z</time>
      </trkpt>
      <trkpt lat="44.08133" lon="3.07673">
        <ele>754.2</ele>
        <time>2019-05-31T09:06:26Z</time>
      </trkpt>
      <trkpt lat="44.08134" lon="3.07679">
        <ele>754.6</ele>
        <time>2019-05-31T09:06:28Z</time>
      </trkpt>
      <trkpt lat="44.08136" lon="3.07684">
        <ele>754.9</ele>
        <time>2019-05-31T09:06:30Z</time>
      </trkpt>
      <trkpt lat="44.08138" lon="3.07689">
        <ele>755.2</ele>
        <time>2019-05-31T09:06:32Z</time>
      </trkpt>
      <trkpt lat="44.08139" lon="3.07695">
        <ele>755.6</ele>
        <time>2019-05-31T09:06:34Z</time>
      </trkpt>
      <trkpt lat="44.0814" lon="3.077">
        <ele>755.9</ele>
        <time>2019-05-31T09:06:36Z</time>
      </trkpt>
      <trkpt lat="44.08141" lon="3.07706">
        <ele>756.3</ele>
        <time>2019-05-31T09:06:38Z</time>
      </trkpt>
      <trkpt lat="44.08142" lon="3.07711">
        <ele>756.5</ele>
        <time>2019-05-31T09:06:40Z</time>
      </trkpt>
      <trkpt lat="44.08144" lon="3.07716">
        <ele>756.8</ele>
        <time>2019-05-31T09:06:42Z</time>
      </trkpt>
      <trkpt lat="44.08145" lon="3.0772">
        <ele>757.1</ele>
        <time>2019-05-31T09:06:44Z</time>
      </trkpt>
      <trkpt lat="44.08146" lon="3.07725">
        <ele>757.3</ele>
        <time>2019-05-31T09:06:46Z</time>
      </trkpt>
      <trkpt lat="44.08149" lon="3.07729">
        <ele>757.6</ele>
        <time>2019-05-31T09:06:48Z</time>
      </trkpt>
      <trkpt lat="44.08152" lon="3.07732">
        <ele>757.8</ele>
        <time>2019-05-31T09:06:50Z</time>
      </trkpt>
      <trkpt lat="44.08155" lon="3.07736">
        <ele>758.1</ele>
        <time>2019-05-31T09:06:52Z</time>
      </trkpt>
      <trkpt lat="44.08157" lon="3.07742">
        <ele>758.3</ele>
        <time>2019-05-31T09:06:54Z</time>
      </trkpt>
      <trkpt lat="44.0816" lon="3.07748">
        <ele>758.6</ele>
        <time>2019-05-31T09:06:56Z</time>
      </trkpt>
      <trkpt lat="44.08161" lon="3.07753">
        <ele>758.9</ele>
        <time>2019-05-31T09:06:58Z</time>
      </trkpt>
      <trkpt lat="44.08162" lon="3.07759">
        <ele>759.2</ele>
        <time>2019-05-31T09:07:00Z</time>
      </trkpt>
      <trkpt lat="44.08163" lon="3.07764">
        <ele>759.5</ele>
        <time>2019-05-31T09:07:02Z</time>
      </trkpt>
      <trkpt lat="44.08164" lon="3.07768">
        <ele>759.7</ele>
        <time>2019-05-31T09:07:04Z</time>
      </trkpt>
      <trkpt lat="44.08164" lon="3.07773">
        <ele>759.9</ele>
        <time>2019-05-31T09:07:06Z</time>
      </trkpt>
      <trkpt lat="44.08165" lon="3.07778">
        <ele>760.1</ele>
        <time>2019-05-31T09:07:08Z</time>
      </trkpt>
      <trkpt lat="44.08166" lon="3.07784">
        <ele>760.5</ele>
        <time>2019-05-31T09:07:10Z</time>
      </trkpt>
      <trkpt lat="44.08167" lon="3.0779">
        <ele>760.8</ele>
        <time>2019-05-31T09:07:12Z</time>
      </trkpt>
      <trkpt lat="44.08169" lon="3.07795">
        <ele>761.1</ele>
        <time>2019-05-31T09:07:14Z</time>
      </trkpt>
      <trkpt lat="44.08172" lon="3.078">
        <ele>761.4</ele>
        <time>2019-05-31T09:07:16Z</time>
      </trkpt>
      <trkpt lat="44.08174" lon="3.07803">
        <ele>761.7</ele>
        <time>2019-05-31T09:07:18Z</time>
      </trkpt>
      <trkpt lat="44.08177" lon="3.07807">
        <ele>762.1</ele>
        <time>2019-05-31T09:07:20Z</time>
      </trkpt>
      <trkpt lat="44.08179" lon="3.07811">
        <ele>762.3</ele>
        <time>2019-05-31T09:07:22Z</time>
      </trkpt>
      <trkpt lat="44.08182" lon="3.07816">
        <ele>762.5</ele>
        <time>2019-05-31T09:07:24Z</time>
      </trkpt>
      <trkpt lat="44.08184" lon="3.07821">
        <ele>762.7</ele>
        <time>2019-05-31T09:07:26Z</time>
      </trkpt>
      <trkpt lat="44.08185" lon="3.07825">
        <ele>762.9</ele>
        <time>2019-05-31T09:07:28Z</time>
      </trkpt>
      <trkpt lat="44.08187" lon="3.07831">
        <ele>763.1</ele>
        <time>2019-05-31T09:07:30Z</time>
      </trkpt>
      <trkpt lat="44.08189" lon="3.07836">
        <ele>763.4</ele>
        <time>2019-05-31T09:07:32Z</time>
      </trkpt>
      <trkpt lat="44.08192" lon="3.07842">
        <ele>763.5</ele>
        <time>2019-05-31T09:07:34Z</time>
      </trkpt>
      <trkpt lat="44.08194" lon="3.07845">
        <ele>763.6</ele>
        <time>2019-05-31T09:07:35Z</time>
      </trkpt>
      <trkpt lat="44.08195" lon="3.07849">
        <ele>763.7</ele>
        <time>2019-05-31T09:07:36Z</time>
      </trkpt>
      <trkpt lat="44.08197" lon="3.07853">
        <ele>763.8</ele>
        <time>2019-05-31T09:07:37Z</time>
      </trkpt>
      <trkpt lat="44.08199" lon="3.07856">
        <ele>763.9</ele>
        <time>2019-05-31T09:07:38Z</time>
      </trkpt>
      <trkpt lat="44.08202" lon="3.07862">
        <ele>764.1</ele>
        <time>2019-05-31T09:07:40Z</time>
      </trkpt>
      <trkpt lat="44.08204" lon="3.07868">
        <ele>764.2</ele>
        <time>2019-05-31T09:07:42Z</time>
      </trkpt>
      <trkpt lat="44.08207" lon="3.07875">
        <ele>764.4</ele>
        <time>2019-05-31T09:07:44Z</time>
      </trkpt>
      <trkpt lat="44.08209" lon="3.07881">
        <ele>764.5</ele>
        <time>2019-05-31T09:07:46Z</time>
      </trkpt>
      <trkpt lat="44.0821" lon="3.07884">
        <ele>764.6</ele>
        <time>2019-05-31T09:07:47Z</time>
      </trkpt>
      <trkpt lat="44.08213" lon="3.07891">
        <ele>764.7</ele>
        <time>2019-05-31T09:07:49Z</time>
      </trkpt>
      <trkpt lat="44.08214" lon="3.07895">
        <ele>764.8</ele>
        <time>2019-05-31T09:07:50Z</time>
      </trkpt>
      <trkpt lat="44.08216" lon="3.07902">
        <ele>764.9</ele>
        <time>2019-05-31T09:07:52Z</time>
      </trkpt>
      <trkpt lat="44.08217" lon="3.07906">
        <ele>765</ele>
        <time>2019-05-31T09:07:53Z</time>
      </trkpt>
      <trkpt lat="44.08219" lon="3.07909">
        <ele>765.1</ele>
        <time>2019-05-31T09:07:54Z</time>
      </trkpt>
      <trkpt lat="44.0822" lon="3.07913">
        <ele>765.3</ele>
        <time>2019-05-31T09:07:55Z</time>
      </trkpt>
      <trkpt lat="44.08222" lon="3.07917">
        <ele>765.7</ele>
        <time>2019-05-31T09:07:56Z</time>
      </trkpt>
      <trkpt lat="44.08224" lon="3.07921">
        <ele>766.1</ele>
        <time>2019-05-31T09:07:57Z</time>
      </trkpt>
      <trkpt lat="44.08225" lon="3.07925">
        <ele>766.5</ele>
        <time>2019-05-31T09:07:58Z</time>
      </trkpt>
      <trkpt lat="44.08225" lon="3.07929">
        <ele>766.8</ele>
        <time>2019-05-31T09:07:59Z</time>
      </trkpt>
      <trkpt lat="44.08226" lon="3.07934">
        <ele>767.2</ele>
        <time>2019-05-31T09:08:00Z</time>
      </trkpt>
      <trkpt lat="44.08226" lon="3.07938">
        <ele>767.6</ele>
        <time>2019-05-31T09:08:01Z</time>
      </trkpt>
      <trkpt lat="44.08227" lon="3.07942">
        <ele>767.9</ele>
        <time>2019-05-31T09:08:02Z</time>
      </trkpt>
      <trkpt lat="44.08227" lon="3.07946">
        <ele>768.2</ele>
        <time>2019-05-31T09:08:03Z</time>
      </trkpt>
      <trkpt lat="44.08226" lon="3.0795">
        <ele>768.5</ele>
        <time>2019-05-31T09:08:04Z</time>
      </trkpt>
      <trkpt lat="44.08225" lon="3.07956">
        <ele>768.9</ele>
        <time>2019-05-31T09:08:06Z</time>
      </trkpt>
      <trkpt lat="44.08225" lon="3.07962">
        <ele>769.3</ele>
        <time>2019-05-31T09:08:08Z</time>
      </trkpt>
      <trkpt lat="44.08221" lon="3.07966">
        <ele>769.7</ele>
        <time>2019-05-31T09:08:11Z</time>
      </trkpt>
      <trkpt lat="44.08218" lon="3.07968">
        <ele>770.1</ele>
        <time>2019-05-31T09:08:13Z</time>
      </trkpt>
      <trkpt lat="44.08215" lon="3.07973">
        <ele>770.5</ele>
        <time>2019-05-31T09:08:15Z</time>
      </trkpt>
      <trkpt lat="44.08216" lon="3.07979">
        <ele>770.9</ele>
        <time>2019-05-31T09:08:17Z</time>
      </trkpt>
      <trkpt lat="44.08217" lon="3.07984">
        <ele>771.2</ele>
        <time>2019-05-31T09:08:18Z</time>
      </trkpt>
      <trkpt lat="44.08217" lon="3.07989">
        <ele>771.4</ele>
        <time>2019-05-31T09:08:19Z</time>
      </trkpt>
      <trkpt lat="44.08218" lon="3.07993">
        <ele>771.7</ele>
        <time>2019-05-31T09:08:20Z</time>
      </trkpt>
      <trkpt lat="44.08218" lon="3.07997">
        <ele>771.9</ele>
        <time>2019-05-31T09:08:21Z</time>
      </trkpt>
      <trkpt lat="44.08219" lon="3.08003">
        <ele>772.3</ele>
        <time>2019-05-31T09:08:22Z</time>
      </trkpt>
      <trkpt lat="44.08219" lon="3.08008">
        <ele>772.6</ele>
        <time>2019-05-31T09:08:23Z</time>
      </trkpt>
      <trkpt lat="44.08219" lon="3.08012">
        <ele>772.9</ele>
        <time>2019-05-31T09:08:24Z</time>
      </trkpt>
      <trkpt lat="44.08218" lon="3.08016">
        <ele>773.2</ele>
        <time>2019-05-31T09:08:25Z</time>
      </trkpt>
      <trkpt lat="44.08217" lon="3.0802">
        <ele>773.6</ele>
        <time>2019-05-31T09:08:26Z</time>
      </trkpt>
      <trkpt lat="44.08216" lon="3.08027">
        <ele>774.2</ele>
        <time>2019-05-31T09:08:28Z</time>
      </trkpt>
      <trkpt lat="44.08215" lon="3.08031">
        <ele>774.6</ele>
        <time>2019-05-31T09:08:29Z</time>
      </trkpt>
      <trkpt lat="44.08215" lon="3.08037">
        <ele>775.4</ele>
        <time>2019-05-31T09:08:31Z</time>
      </trkpt>
      <trkpt lat="44.08216" lon="3.08041">
        <ele>775.9</ele>
        <time>2019-05-31T09:08:32Z</time>
      </trkpt>
      <trkpt lat="44.08216" lon="3.08046">
        <ele>776.5</ele>
        <time>2019-05-31T09:08:33Z</time>
      </trkpt>
      <trkpt lat="44.08217" lon="3.08052">
        <ele>777.5</ele>
        <time>2019-05-31T09:08:35Z</time>
      </trkpt>
      <trkpt lat="44.08217" lon="3.08059">
        <ele>778.5</ele>
        <time>2019-05-31T09:08:37Z</time>
      </trkpt>
      <trkpt lat="44.08216" lon="3.08065">
        <ele>779.5</ele>
        <time>2019-05-31T09:08:39Z</time>
      </trkpt>
      <trkpt lat="44.08212" lon="3.08068">
        <ele>780.2</ele>
        <time>2019-05-31T09:08:41Z</time>
      </trkpt>
      <trkpt lat="44.08209" lon="3.08071">
        <ele>780.8</ele>
        <time>2019-05-31T09:08:43Z</time>
      </trkpt>
      <trkpt lat="44.08206" lon="3.08077">
        <ele>781.6</ele>
        <time>2019-05-31T09:08:45Z</time>
      </trkpt>
      <trkpt lat="44.08205" lon="3.08081">
        <ele>782</ele>
        <time>2019-05-31T09:08:47Z</time>
      </trkpt>
      <trkpt lat="44.08203" lon="3.08086">
        <ele>782.7</ele>
        <time>2019-05-31T09:08:50Z</time>
      </trkpt>
      <trkpt lat="44.082" lon="3.08088">
        <ele>783.2</ele>
        <time>2019-05-31T09:08:52Z</time>
      </trkpt>
      <trkpt lat="44.08198" lon="3.0809">
        <ele>783.7</ele>
        <time>2019-05-31T09:08:53Z</time>
      </trkpt>
      <trkpt lat="44.08194" lon="3.08093">
        <ele>784.4</ele>
        <time>2019-05-31T09:08:55Z</time>
      </trkpt>
      <trkpt lat="44.0819" lon="3.08096">
        <ele>785</ele>
        <time>2019-05-31T09:08:57Z</time>
      </trkpt>
      <trkpt lat="44.08187" lon="3.081">
        <ele>785.7</ele>
        <time>2019-05-31T09:08:59Z</time>
      </trkpt>
      <trkpt lat="44.08184" lon="3.08106">
        <ele>786.3</ele>
        <time>2019-05-31T09:09:01Z</time>
      </trkpt>
      <trkpt lat="44.08184" lon="3.08109">
        <ele>787.3</ele>
        <time>2019-05-31T09:09:02Z</time>
      </trkpt>
      <trkpt lat="44.08184" lon="3.08114">
        <ele>787.6</ele>
        <time>2019-05-31T09:09:03Z</time>
      </trkpt>
      <trkpt lat="44.08184" lon="3.08118">
        <ele>787.8</ele>
        <time>2019-05-31T09:09:04Z</time>
      </trkpt>
      <trkpt lat="44.08184" lon="3.08122">
        <ele>788.1</ele>
        <time>2019-05-31T09:09:05Z</time>
      </trkpt>
      <trkpt lat="44.08182" lon="3.08129">
        <ele>788.5</ele>
        <time>2019-05-31T09:09:07Z</time>
      </trkpt>
      <trkpt lat="44.0818" lon="3.08132">
        <ele>788.7</ele>
        <time>2019-05-31T09:09:08Z</time>
      </trkpt>
      <trkpt lat="44.08176" lon="3.08137">
        <ele>789.2</ele>
        <time>2019-05-31T09:09:10Z</time>
      </trkpt>
      <trkpt lat="44.08175" lon="3.08141">
        <ele>789.4</ele>
        <time>2019-05-31T09:09:11Z</time>
      </trkpt>
      <trkpt lat="44.08174" lon="3.08145">
        <ele>789.6</ele>
        <time>2019-05-31T09:09:12Z</time>
      </trkpt>
      <trkpt lat="44.08174" lon="3.0815">
        <ele>789.8</ele>
        <time>2019-05-31T09:09:13Z</time>
      </trkpt>
      <trkpt lat="44.08174" lon="3.08154">
        <ele>790</ele>
        <time>2019-05-31T09:09:14Z</time>
      </trkpt>
      <trkpt lat="44.08175" lon="3.08158">
        <ele>790.1</ele>
        <time>2019-05-31T09:09:15Z</time>
      </trkpt>
      <trkpt lat="44.08177" lon="3.08165">
        <ele>790.3</ele>
        <time>2019-05-31T09:09:17Z</time>
      </trkpt>
      <trkpt lat="44.08178" lon="3.08169">
        <ele>790.4</ele>
        <time>2019-05-31T09:09:18Z</time>
      </trkpt>
      <trkpt lat="44.08179" lon="3.08173">
        <ele>790.5</ele>
        <time>2019-05-31T09:09:19Z</time>
      </trkpt>
      <trkpt lat="44.08179" lon="3.08179">
        <ele>790.7</ele>
        <time>2019-05-31T09:09:21Z</time>
      </trkpt>
      <trkpt lat="44.08178" lon="3.08183">
        <ele>790.8</ele>
        <time>2019-05-31T09:09:22Z</time>
      </trkpt>
      <trkpt lat="44.08175" lon="3.08189">
        <ele>791</ele>
        <time>2019-05-31T09:09:24Z</time>
      </trkpt>
      <trkpt lat="44.08174" lon="3.08195">
        <ele>791.1</ele>
        <time>2019-05-31T09:09:26Z</time>
      </trkpt>
      <trkpt lat="44.08175" lon="3.082">
        <ele>791.2</ele>
        <time>2019-05-31T09:09:28Z</time>
      </trkpt>
      <trkpt lat="44.08175" lon="3.08206">
        <ele>791.4</ele>
        <time>2019-05-31T09:09:30Z</time>
      </trkpt>
      <trkpt lat="44.08176" lon="3.08212">
        <ele>791.4</ele>
        <time>2019-05-31T09:09:32Z</time>
      </trkpt>
      <trkpt lat="44.08176" lon="3.08217">
        <ele>791.5</ele>
        <time>2019-05-31T09:09:34Z</time>
      </trkpt>
      <trkpt lat="44.08176" lon="3.08221">
        <ele>791.5</ele>
        <time>2019-05-31T09:09:36Z</time>
      </trkpt>
      <trkpt lat="44.08177" lon="3.08225">
        <ele>791.6</ele>
        <time>2019-05-31T09:09:38Z</time>
      </trkpt>
      <trkpt lat="44.08176" lon="3.08222">
        <ele>791.6</ele>
        <time>2019-05-31T09:09:47Z</time>
      </trkpt>
      <trkpt lat="44.08174" lon="3.08226">
        <ele>791.7</ele>
        <time>2019-05-31T09:10:05Z</time>
      </trkpt>
      <trkpt lat="44.08171" lon="3.08232">
        <ele>791.8</ele>
        <time>2019-05-31T09:10:07Z</time>
      </trkpt>
      <trkpt lat="44.08168" lon="3.08237">
        <ele>791.8</ele>
        <time>2019-05-31T09:10:09Z</time>
      </trkpt>
      <trkpt lat="44.08165" lon="3.0824">
        <ele>791.8</ele>
        <time>2019-05-31T09:10:10Z</time>
      </trkpt>
      <trkpt lat="44.08163" lon="3.08242">
        <ele>791.9</ele>
        <time>2019-05-31T09:10:11Z</time>
      </trkpt>
      <trkpt lat="44.0816" lon="3.08244">
        <ele>791.9</ele>
        <time>2019-05-31T09:10:12Z</time>
      </trkpt>
      <trkpt lat="44.08156" lon="3.08244">
        <ele>791.9</ele>
        <time>2019-05-31T09:10:13Z</time>
      </trkpt>
      <trkpt lat="44.08153" lon="3.08246">
        <ele>791.9</ele>
        <time>2019-05-31T09:10:14Z</time>
      </trkpt>
      <trkpt lat="44.0815" lon="3.08249">
        <ele>791.8</ele>
        <time>2019-05-31T09:10:15Z</time>
      </trkpt>
      <trkpt lat="44.08148" lon="3.08254">
        <ele>791.8</ele>
        <time>2019-05-31T09:10:16Z</time>
      </trkpt>
      <trkpt lat="44.08148" lon="3.0827">
        <ele>791.7</ele>
        <time>2019-05-31T09:10:17Z</time>
      </trkpt>
      <trkpt lat="44.08147" lon="3.08283">
        <ele>791.6</ele>
        <time>2019-05-31T09:10:18Z</time>
      </trkpt>
      <trkpt lat="44.08146" lon="3.0829">
        <ele>791.5</ele>
        <time>2019-05-31T09:10:19Z</time>
      </trkpt>
      <trkpt lat="44.08144" lon="3.08298">
        <ele>791.4</ele>
        <time>2019-05-31T09:10:20Z</time>
      </trkpt>
      <trkpt lat="44.0814" lon="3.08305">
        <ele>791.3</ele>
        <time>2019-05-31T09:10:21Z</time>
      </trkpt>
      <trkpt lat="44.08137" lon="3.08315">
        <ele>791.1</ele>
        <time>2019-05-31T09:10:22Z</time>
      </trkpt>
      <trkpt lat="44.08132" lon="3.08321">
        <ele>791</ele>
        <time>2019-05-31T09:10:23Z</time>
      </trkpt>
      <trkpt lat="44.08128" lon="3.08329">
        <ele>790.9</ele>
        <time>2019-05-31T09:10:24Z</time>
      </trkpt>
      <trkpt lat="44.08123" lon="3.08336">
        <ele>790.4</ele>
        <time>2019-05-31T09:10:25Z</time>
      </trkpt>
      <trkpt lat="44.08118" lon="3.08351">
        <ele>789.8</ele>
        <time>2019-05-31T09:10:26Z</time>
      </trkpt>
      <trkpt lat="44.08115" lon="3.08358">
        <ele>789.5</ele>
        <time>2019-05-31T09:10:27Z</time>
      </trkpt>
      <trkpt lat="44.08111" lon="3.08363">
        <ele>789.1</ele>
        <time>2019-05-31T09:10:28Z</time>
      </trkpt>
      <trkpt lat="44.08107" lon="3.08369">
        <ele>788.8</ele>
        <time>2019-05-31T09:10:29Z</time>
      </trkpt>
      <trkpt lat="44.08104" lon="3.08375">
        <ele>788.4</ele>
        <time>2019-05-31T09:10:30Z</time>
      </trkpt>
      <trkpt lat="44.081" lon="3.08385">
        <ele>787.9</ele>
        <time>2019-05-31T09:10:31Z</time>
      </trkpt>
      <trkpt lat="44.08098" lon="3.08394">
        <ele>787.4</ele>
        <time>2019-05-31T09:10:32Z</time>
      </trkpt>
      <trkpt lat="44.08095" lon="3.08405">
        <ele>786.9</ele>
        <time>2019-05-31T09:10:33Z</time>
      </trkpt>
      <trkpt lat="44.08093" lon="3.08415">
        <ele>786.4</ele>
        <time>2019-05-31T09:10:34Z</time>
      </trkpt>
      <trkpt lat="44.08088" lon="3.08422">
        <ele>786</ele>
        <time>2019-05-31T09:10:35Z</time>
      </trkpt>
      <trkpt lat="44.08083" lon="3.08428">
        <ele>785.6</ele>
        <time>2019-05-31T09:10:36Z</time>
      </trkpt>
      <trkpt lat="44.08081" lon="3.08436">
        <ele>785.3</ele>
        <time>2019-05-31T09:10:37Z</time>
      </trkpt>
      <trkpt lat="44.08077" lon="3.08445">
        <ele>784.9</ele>
        <time>2019-05-31T09:10:38Z</time>
      </trkpt>
      <trkpt lat="44.08074" lon="3.08454">
        <ele>784.5</ele>
        <time>2019-05-31T09:10:39Z</time>
      </trkpt>
      <trkpt lat="44.08069" lon="3.08461">
        <ele>784.2</ele>
        <time>2019-05-31T09:10:40Z</time>
      </trkpt>
      <trkpt lat="44.08067" lon="3.08469">
        <ele>784</ele>
        <time>2019-05-31T09:10:41Z</time>
      </trkpt>
      <trkpt lat="44.08065" lon="3.08477">
        <ele>783.7</ele>
        <time>2019-05-31T09:10:42Z</time>
      </trkpt>
      <trkpt lat="44.08062" lon="3.08485">
        <ele>783.5</ele>
        <time>2019-05-31T09:10:43Z</time>
      </trkpt>
      <trkpt lat="44.08061" lon="3.08493">
        <ele>783.2</ele>
        <time>2019-05-31T09:10:44Z</time>
      </trkpt>
      <trkpt lat="44.08062" lon="3.08502">
        <ele>783</ele>
        <time>2019-05-31T09:10:45Z</time>
      </trkpt>
      <trkpt lat="44.08061" lon="3.08512">
        <ele>782.9</ele>
        <time>2019-05-31T09:10:46Z</time>
      </trkpt>
      <trkpt lat="44.0806" lon="3.08521">
        <ele>782.7</ele>
        <time>2019-05-31T09:10:47Z</time>
      </trkpt>
      <trkpt lat="44.08059" lon="3.08533">
        <ele>782.5</ele>
        <time>2019-05-31T09:10:48Z</time>
      </trkpt>
      <trkpt lat="44.08059" lon="3.08545">
        <ele>782.1</ele>
        <time>2019-05-31T09:10:49Z</time>
      </trkpt>
      <trkpt lat="44.08058" lon="3.08557">
        <ele>781.8</ele>
        <time>2019-05-31T09:10:50Z</time>
      </trkpt>
      <trkpt lat="44.08058" lon="3.08567">
        <ele>781.5</ele>
        <time>2019-05-31T09:10:51Z</time>
      </trkpt>
      <trkpt lat="44.08059" lon="3.08576">
        <ele>781.2</ele>
        <time>2019-05-31T09:10:52Z</time>
      </trkpt>
      <trkpt lat="44.08061" lon="3.08583">
        <ele>780.9</ele>
        <time>2019-05-31T09:10:53Z</time>
      </trkpt>
      <trkpt lat="44.08062" lon="3.08592">
        <ele>780.6</ele>
        <time>2019-05-31T09:10:54Z</time>
      </trkpt>
      <trkpt lat="44.08063" lon="3.08602">
        <ele>780.3</ele>
        <time>2019-05-31T09:10:55Z</time>
      </trkpt>
      <trkpt lat="44.08063" lon="3.08612">
        <ele>779.8</ele>
        <time>2019-05-31T09:10:56Z</time>
      </trkpt>
      <trkpt lat="44.08064" lon="3.08622">
        <ele>779.3</ele>
        <time>2019-05-31T09:10:57Z</time>
      </trkpt>
      <trkpt lat="44.08066" lon="3.08631">
        <ele>778.9</ele>
        <time>2019-05-31T09:10:58Z</time>
      </trkpt>
      <trkpt lat="44.08063" lon="3.0864">
        <ele>778.5</ele>
        <time>2019-05-31T09:10:59Z</time>
      </trkpt>
      <trkpt lat="44.08062" lon="3.0865">
        <ele>778</ele>
        <time>2019-05-31T09:11:00Z</time>
      </trkpt>
      <trkpt lat="44.08058" lon="3.08657">
        <ele>777.6</ele>
        <time>2019-05-31T09:11:01Z</time>
      </trkpt>
      <trkpt lat="44.08056" lon="3.08666">
        <ele>777.2</ele>
        <time>2019-05-31T09:11:02Z</time>
      </trkpt>
      <trkpt lat="44.08052" lon="3.08675">
        <ele>776.7</ele>
        <time>2019-05-31T09:11:03Z</time>
      </trkpt>
      <trkpt lat="44.0805" lon="3.08689">
        <ele>776</ele>
        <time>2019-05-31T09:11:04Z</time>
      </trkpt>
      <trkpt lat="44.08047" lon="3.08698">
        <ele>775.5</ele>
        <time>2019-05-31T09:11:05Z</time>
      </trkpt>
      <trkpt lat="44.08046" lon="3.08705">
        <ele>774.9</ele>
        <time>2019-05-31T09:11:06Z</time>
      </trkpt>
      <trkpt lat="44.08045" lon="3.08713">
        <ele>774.4</ele>
        <time>2019-05-31T09:11:07Z</time>
      </trkpt>
      <trkpt lat="44.08043" lon="3.0872">
        <ele>773.9</ele>
        <time>2019-05-31T09:11:08Z</time>
      </trkpt>
      <trkpt lat="44.0804" lon="3.08728">
        <ele>773.3</ele>
        <time>2019-05-31T09:11:09Z</time>
      </trkpt>
      <trkpt lat="44.08037" lon="3.08737">
        <ele>772.8</ele>
        <time>2019-05-31T09:11:10Z</time>
      </trkpt>
      <trkpt lat="44.08032" lon="3.08745">
        <ele>772.2</ele>
        <time>2019-05-31T09:11:11Z</time>
      </trkpt>
      <trkpt lat="44.08026" lon="3.08748">
        <ele>771.7</ele>
        <time>2019-05-31T09:11:12Z</time>
      </trkpt>
      <trkpt lat="44.08023" lon="3.08759">
        <ele>771</ele>
        <time>2019-05-31T09:11:13Z</time>
      </trkpt>
      <trkpt lat="44.0802" lon="3.08768">
        <ele>770.4</ele>
        <time>2019-05-31T09:11:14Z</time>
      </trkpt>
      <trkpt lat="44.08017" lon="3.08774">
        <ele>769.9</ele>
        <time>2019-05-31T09:11:15Z</time>
      </trkpt>
      <trkpt lat="44.08015" lon="3.08779">
        <ele>769.6</ele>
        <time>2019-05-31T09:11:16Z</time>
      </trkpt>
      <trkpt lat="44.08013" lon="3.08783">
        <ele>769.2</ele>
        <time>2019-05-31T09:11:17Z</time>
      </trkpt>
      <trkpt lat="44.08012" lon="3.08788">
        <ele>768.9</ele>
        <time>2019-05-31T09:11:18Z</time>
      </trkpt>
      <trkpt lat="44.08012" lon="3.08795">
        <ele>768.4</ele>
        <time>2019-05-31T09:11:19Z</time>
      </trkpt>
      <trkpt lat="44.08013" lon="3.08803">
        <ele>767.8</ele>
        <time>2019-05-31T09:11:20Z</time>
      </trkpt>
      <trkpt lat="44.08012" lon="3.08809">
        <ele>767.3</ele>
        <time>2019-05-31T09:11:21Z</time>
      </trkpt>
      <trkpt lat="44.08011" lon="3.08816">
        <ele>766.7</ele>
        <time>2019-05-31T09:11:22Z</time>
      </trkpt>
      <trkpt lat="44.08011" lon="3.08823">
        <ele>766.1</ele>
        <time>2019-05-31T09:11:23Z</time>
      </trkpt>
      <trkpt lat="44.0801" lon="3.08829">
        <ele>765.5</ele>
        <time>2019-05-31T09:11:24Z</time>
      </trkpt>
      <trkpt lat="44.0801" lon="3.08837">
        <ele>764.8</ele>
        <time>2019-05-31T09:11:25Z</time>
      </trkpt>
      <trkpt lat="44.08009" lon="3.08844">
        <ele>764.3</ele>
        <time>2019-05-31T09:11:26Z</time>
      </trkpt>
      <trkpt lat="44.0801" lon="3.0885">
        <ele>763.8</ele>
        <time>2019-05-31T09:11:27Z</time>
      </trkpt>
      <trkpt lat="44.0801" lon="3.08857">
        <ele>763.1</ele>
        <time>2019-05-31T09:11:28Z</time>
      </trkpt>
      <trkpt lat="44.08009" lon="3.08862">
        <ele>762.4</ele>
        <time>2019-05-31T09:11:29Z</time>
      </trkpt>
      <trkpt lat="44.08008" lon="3.08866">
        <ele>762</ele>
        <time>2019-05-31T09:11:30Z</time>
      </trkpt>
      <trkpt lat="44.08007" lon="3.0887">
        <ele>761.5</ele>
        <time>2019-05-31T09:11:34Z</time>
      </trkpt>
      <trkpt lat="44.08009" lon="3.08874">
        <ele>760.8</ele>
        <time>2019-05-31T09:11:36Z</time>
      </trkpt>
      <trkpt lat="44.08007" lon="3.08878">
        <ele>760.1</ele>
        <time>2019-05-31T09:12:01Z</time>
      </trkpt>
      <trkpt lat="44.08004" lon="3.08882">
        <ele>759</ele>
        <time>2019-05-31T09:12:03Z</time>
      </trkpt>
      <trkpt lat="44.07999" lon="3.08887">
        <ele>757.7</ele>
        <time>2019-05-31T09:12:05Z</time>
      </trkpt>
      <trkpt lat="44.07997" lon="3.0889">
        <ele>756.8</ele>
        <time>2019-05-31T09:12:06Z</time>
      </trkpt>
      <trkpt lat="44.07992" lon="3.08898">
        <ele>754.8</ele>
        <time>2019-05-31T09:12:07Z</time>
      </trkpt>
      <trkpt lat="44.07988" lon="3.08906">
        <ele>752.9</ele>
        <time>2019-05-31T09:12:08Z</time>
      </trkpt>
      <trkpt lat="44.07984" lon="3.08913">
        <ele>751.1</ele>
        <time>2019-05-31T09:12:09Z</time>
      </trkpt>
      <trkpt lat="44.0798" lon="3.08924">
        <ele>749.4</ele>
        <time>2019-05-31T09:12:10Z</time>
      </trkpt>
      <trkpt lat="44.07976" lon="3.08934">
        <ele>748.4</ele>
        <time>2019-05-31T09:12:11Z</time>
      </trkpt>
      <trkpt lat="44.07971" lon="3.08942">
        <ele>747.5</ele>
        <time>2019-05-31T09:12:12Z</time>
      </trkpt>
      <trkpt lat="44.07967" lon="3.08952">
        <ele>746.8</ele>
        <time>2019-05-31T09:12:13Z</time>
      </trkpt>
      <trkpt lat="44.07962" lon="3.08961">
        <ele>746.1</ele>
        <time>2019-05-31T09:12:14Z</time>
      </trkpt>
      <trkpt lat="44.07959" lon="3.08972">
        <ele>745.5</ele>
        <time>2019-05-31T09:12:15Z</time>
      </trkpt>
      <trkpt lat="44.07955" lon="3.08982">
        <ele>745</ele>
        <time>2019-05-31T09:12:16Z</time>
      </trkpt>
      <trkpt lat="44.07952" lon="3.08991">
        <ele>744.5</ele>
        <time>2019-05-31T09:12:17Z</time>
      </trkpt>
      <trkpt lat="44.07948" lon="3.09">
        <ele>743.9</ele>
        <time>2019-05-31T09:12:18Z</time>
      </trkpt>
      <trkpt lat="44.07945" lon="3.09011">
        <ele>743.4</ele>
        <time>2019-05-31T09:12:19Z</time>
      </trkpt>
      <trkpt lat="44.07942" lon="3.09026">
        <ele>742.5</ele>
        <time>2019-05-31T09:12:20Z</time>
      </trkpt>
      <trkpt lat="44.07938" lon="3.09037">
        <ele>741.9</ele>
        <time>2019-05-31T09:12:21Z</time>
      </trkpt>
      <trkpt lat="44.07934" lon="3.09046">
        <ele>741.2</ele>
        <time>2019-05-31T09:12:22Z</time>
      </trkpt>
      <trkpt lat="44.0793" lon="3.0906">
        <ele>740.6</ele>
        <time>2019-05-31T09:12:23Z</time>
      </trkpt>
      <trkpt lat="44.07927" lon="3.09071">
        <ele>740.2</ele>
        <time>2019-05-31T09:12:24Z</time>
      </trkpt>
      <trkpt lat="44.07923" lon="3.09083">
        <ele>739.8</ele>
        <time>2019-05-31T09:12:25Z</time>
      </trkpt>
      <trkpt lat="44.07918" lon="3.09093">
        <ele>739.2</ele>
        <time>2019-05-31T09:12:26Z</time>
      </trkpt>
      <trkpt lat="44.07913" lon="3.09102">
        <ele>738.6</ele>
        <time>2019-05-31T09:12:27Z</time>
      </trkpt>
      <trkpt lat="44.07907" lon="3.09112">
        <ele>738</ele>
        <time>2019-05-31T09:12:28Z</time>
      </trkpt>
      <trkpt lat="44.07902" lon="3.09122">
        <ele>737.3</ele>
        <time>2019-05-31T09:12:29Z</time>
      </trkpt>
      <trkpt lat="44.07897" lon="3.0913">
        <ele>736.5</ele>
        <time>2019-05-31T09:12:30Z</time>
      </trkpt>
      <trkpt lat="44.07891" lon="3.09136">
        <ele>735.6</ele>
        <time>2019-05-31T09:12:31Z</time>
      </trkpt>
      <trkpt lat="44.07886" lon="3.09144">
        <ele>734.6</ele>
        <time>2019-05-31T09:12:32Z</time>
      </trkpt>
      <trkpt lat="44.07882" lon="3.09148">
        <ele>734.2</ele>
        <time>2019-05-31T09:12:33Z</time>
      </trkpt>
      <trkpt lat="44.07877" lon="3.09145">
        <ele>733.7</ele>
        <time>2019-05-31T09:12:35Z</time>
      </trkpt>
      <trkpt lat="44.07873" lon="3.09143">
        <ele>733.3</ele>
        <time>2019-05-31T09:12:38Z</time>
      </trkpt>
      <trkpt lat="44.0787" lon="3.09139">
        <ele>733</ele>
        <time>2019-05-31T09:12:39Z</time>
      </trkpt>
      <trkpt lat="44.07864" lon="3.0914">
        <ele>732.4</ele>
        <time>2019-05-31T09:12:40Z</time>
      </trkpt>
      <trkpt lat="44.07859" lon="3.09143">
        <ele>732.1</ele>
        <time>2019-05-31T09:12:41Z</time>
      </trkpt>
      <trkpt lat="44.07856" lon="3.09145">
        <ele>731.9</ele>
        <time>2019-05-31T09:12:42Z</time>
      </trkpt>
      <trkpt lat="44.07853" lon="3.09149">
        <ele>731.7</ele>
        <time>2019-05-31T09:12:44Z</time>
      </trkpt>
      <trkpt lat="44.07849" lon="3.09145">
        <ele>731.4</ele>
        <time>2019-05-31T09:12:46Z</time>
      </trkpt>
      <trkpt lat="44.07846" lon="3.09146">
        <ele>731.1</ele>
        <time>2019-05-31T09:12:48Z</time>
      </trkpt>
      <trkpt lat="44.07844" lon="3.0915">
        <ele>731</ele>
        <time>2019-05-31T09:12:54Z</time>
      </trkpt>
      <trkpt lat="44.07844" lon="3.09153">
        <ele>730.8</ele>
        <time>2019-05-31T09:12:57Z</time>
      </trkpt>
      <trkpt lat="44.07844" lon="3.09161">
        <ele>730.5</ele>
        <time>2019-05-31T09:13:38Z</time>
      </trkpt>
      <trkpt lat="44.07846" lon="3.09165">
        <ele>730.4</ele>
        <time>2019-05-31T09:13:40Z</time>
      </trkpt>
      <trkpt lat="44.07847" lon="3.09169">
        <ele>730.3</ele>
        <time>2019-05-31T09:13:42Z</time>
      </trkpt>
      <trkpt lat="44.07848" lon="3.09176">
        <ele>730.1</ele>
        <time>2019-05-31T09:13:44Z</time>
      </trkpt>
      <trkpt lat="44.07847" lon="3.09181">
        <ele>730</ele>
        <time>2019-05-31T09:13:45Z</time>
      </trkpt>
      <trkpt lat="44.07846" lon="3.09187">
        <ele>729.9</ele>
        <time>2019-05-31T09:13:46Z</time>
      </trkpt>
      <trkpt lat="44.07846" lon="3.09191">
        <ele>729.8</ele>
        <time>2019-05-31T09:13:47Z</time>
      </trkpt>
      <trkpt lat="44.07846" lon="3.09195">
        <ele>729.7</ele>
        <time>2019-05-31T09:13:48Z</time>
      </trkpt>
      <trkpt lat="44.07849" lon="3.09199">
        <ele>729.6</ele>
        <time>2019-05-31T09:13:49Z</time>
      </trkpt>
      <trkpt lat="44.07859" lon="3.09202">
        <ele>729.3</ele>
        <time>2019-05-31T09:13:50Z</time>
      </trkpt>
      <trkpt lat="44.07862" lon="3.09206">
        <ele>729.2</ele>
        <time>2019-05-31T09:13:51Z</time>
      </trkpt>
      <trkpt lat="44.07865" lon="3.09212">
        <ele>729</ele>
        <time>2019-05-31T09:13:52Z</time>
      </trkpt>
      <trkpt lat="44.07869" lon="3.09219">
        <ele>728.8</ele>
        <time>2019-05-31T09:13:53Z</time>
      </trkpt>
      <trkpt lat="44.07875" lon="3.09227">
        <ele>728.5</ele>
        <time>2019-05-31T09:13:54Z</time>
      </trkpt>
      <trkpt lat="44.07881" lon="3.09235">
        <ele>728.2</ele>
        <time>2019-05-31T09:13:55Z</time>
      </trkpt>
      <trkpt lat="44.07886" lon="3.09241">
        <ele>727.9</ele>
        <time>2019-05-31T09:13:56Z</time>
      </trkpt>
      <trkpt lat="44.07892" lon="3.09248">
        <ele>726.6</ele>
        <time>2019-05-31T09:13:57Z</time>
      </trkpt>
      <trkpt lat="44.07897" lon="3.09251">
        <ele>726.4</ele>
        <time>2019-05-31T09:13:58Z</time>
      </trkpt>
      <trkpt lat="44.07902" lon="3.09255">
        <ele>725.7</ele>
        <time>2019-05-31T09:13:59Z</time>
      </trkpt>
      <trkpt lat="44.07909" lon="3.09254">
        <ele>725.1</ele>
        <time>2019-05-31T09:14:00Z</time>
      </trkpt>
      <trkpt lat="44.07912" lon="3.09256">
        <ele>724.8</ele>
        <time>2019-05-31T09:14:01Z</time>
      </trkpt>
      <trkpt lat="44.07917" lon="3.09258">
        <ele>724.3</ele>
        <time>2019-05-31T09:14:02Z</time>
      </trkpt>
      <trkpt lat="44.07922" lon="3.09259">
        <ele>723.8</ele>
        <time>2019-05-31T09:14:03Z</time>
      </trkpt>
      <trkpt lat="44.07926" lon="3.0926">
        <ele>723.5</ele>
        <time>2019-05-31T09:14:04Z</time>
      </trkpt>
      <trkpt lat="44.0793" lon="3.09261">
        <ele>723.1</ele>
        <time>2019-05-31T09:14:05Z</time>
      </trkpt>
      <trkpt lat="44.07935" lon="3.09262">
        <ele>722.6</ele>
        <time>2019-05-31T09:14:06Z</time>
      </trkpt>
      <trkpt lat="44.07939" lon="3.09263">
        <ele>722.2</ele>
        <time>2019-05-31T09:14:07Z</time>
      </trkpt>
      <trkpt lat="44.07943" lon="3.09265">
        <ele>721.8</ele>
        <time>2019-05-31T09:14:08Z</time>
      </trkpt>
      <trkpt lat="44.07947" lon="3.09266">
        <ele>721.4</ele>
        <time>2019-05-31T09:14:09Z</time>
      </trkpt>
      <trkpt lat="44.07951" lon="3.09268">
        <ele>721</ele>
        <time>2019-05-31T09:14:10Z</time>
      </trkpt>
      <trkpt lat="44.07954" lon="3.09269">
        <ele>720.7</ele>
        <time>2019-05-31T09:14:11Z</time>
      </trkpt>
      <trkpt lat="44.07958" lon="3.09271">
        <ele>720.3</ele>
        <time>2019-05-31T09:14:12Z</time>
      </trkpt>
      <trkpt lat="44.0796" lon="3.09273">
        <ele>720.1</ele>
        <time>2019-05-31T09:14:13Z</time>
      </trkpt>
      <trkpt lat="44.07964" lon="3.09275">
        <ele>719.8</ele>
        <time>2019-05-31T09:14:14Z</time>
      </trkpt>
      <trkpt lat="44.07967" lon="3.09275">
        <ele>719.5</ele>
        <time>2019-05-31T09:14:15Z</time>
      </trkpt>
      <trkpt lat="44.07972" lon="3.09278">
        <ele>719</ele>
        <time>2019-05-31T09:14:17Z</time>
      </trkpt>
      <trkpt lat="44.07975" lon="3.09282">
        <ele>719.3</ele>
        <time>2019-05-31T09:14:19Z</time>
      </trkpt>
      <trkpt lat="44.0798" lon="3.09285">
        <ele>719.6</ele>
        <time>2019-05-31T09:14:21Z</time>
      </trkpt>
      <trkpt lat="44.07982" lon="3.09286">
        <ele>719.8</ele>
        <time>2019-05-31T09:14:22Z</time>
      </trkpt>
      <trkpt lat="44.07985" lon="3.09287">
        <ele>719.9</ele>
        <time>2019-05-31T09:14:23Z</time>
      </trkpt>
      <trkpt lat="44.07988" lon="3.09288">
        <ele>720.1</ele>
        <time>2019-05-31T09:14:24Z</time>
      </trkpt>
      <trkpt lat="44.07991" lon="3.09288">
        <ele>720.2</ele>
        <time>2019-05-31T09:14:25Z</time>
      </trkpt>
      <trkpt lat="44.07994" lon="3.09289">
        <ele>720.4</ele>
        <time>2019-05-31T09:14:26Z</time>
      </trkpt>
      <trkpt lat="44.07997" lon="3.0929">
        <ele>720.5</ele>
        <time>2019-05-31T09:14:27Z</time>
      </trkpt>
      <trkpt lat="44.08" lon="3.0929">
        <ele>720.6</ele>
        <time>2019-05-31T09:14:28Z</time>
      </trkpt>
      <trkpt lat="44.08003" lon="3.0929">
        <ele>720.8</ele>
        <time>2019-05-31T09:14:29Z</time>
      </trkpt>
      <trkpt lat="44.08006" lon="3.0929">
        <ele>720.9</ele>
        <time>2019-05-31T09:14:30Z</time>
      </trkpt>
      <trkpt lat="44.08009" lon="3.0929">
        <ele>721</ele>
        <time>2019-05-31T09:14:31Z</time>
      </trkpt>
      <trkpt lat="44.08011" lon="3.09289">
        <ele>721.1</ele>
        <time>2019-05-31T09:14:32Z</time>
      </trkpt>
      <trkpt lat="44.08014" lon="3.0929">
        <ele>721.2</ele>
        <time>2019-05-31T09:14:33Z</time>
      </trkpt>
      <trkpt lat="44.0802" lon="3.0929">
        <ele>721.4</ele>
        <time>2019-05-31T09:14:35Z</time>
      </trkpt>
      <trkpt lat="44.08025" lon="3.0929">
        <ele>721.5</ele>
        <time>2019-05-31T09:14:37Z</time>
      </trkpt>
      <trkpt lat="44.0803" lon="3.09291">
        <ele>721.7</ele>
        <time>2019-05-31T09:14:39Z</time>
      </trkpt>
      <trkpt lat="44.08035" lon="3.09293">
        <ele>721.8</ele>
        <time>2019-05-31T09:14:41Z</time>
      </trkpt>
      <trkpt lat="44.08039" lon="3.09295">
        <ele>721.9</ele>
        <time>2019-05-31T09:14:43Z</time>
      </trkpt>
      <trkpt lat="44.08044" lon="3.09297">
        <ele>722</ele>
        <time>2019-05-31T09:14:45Z</time>
      </trkpt>
      <trkpt lat="44.08047" lon="3.09298">
        <ele>722.1</ele>
        <time>2019-05-31T09:14:46Z</time>
      </trkpt>
      <trkpt lat="44.0805" lon="3.09297">
        <ele>722.2</ele>
        <time>2019-05-31T09:14:47Z</time>
      </trkpt>
      <trkpt lat="44.08053" lon="3.09296">
        <ele>722.3</ele>
        <time>2019-05-31T09:14:48Z</time>
      </trkpt>
      <trkpt lat="44.08056" lon="3.09295">
        <ele>722.3</ele>
        <time>2019-05-31T09:14:49Z</time>
      </trkpt>
      <trkpt lat="44.08059" lon="3.09292">
        <ele>722.4</ele>
        <time>2019-05-31T09:14:50Z</time>
      </trkpt>
      <trkpt lat="44.08061" lon="3.0929">
        <ele>722.4</ele>
        <time>2019-05-31T09:14:51Z</time>
      </trkpt>
      <trkpt lat="44.08065" lon="3.09288">
        <ele>722.5</ele>
        <time>2019-05-31T09:14:52Z</time>
      </trkpt>
      <trkpt lat="44.08068" lon="3.09286">
        <ele>722.6</ele>
        <time>2019-05-31T09:14:53Z</time>
      </trkpt>
      <trkpt lat="44.08072" lon="3.09285">
        <ele>722.7</ele>
        <time>2019-05-31T09:14:54Z</time>
      </trkpt>
      <trkpt lat="44.08076" lon="3.09284">
        <ele>722.8</ele>
        <time>2019-05-31T09:14:55Z</time>
      </trkpt>
      <trkpt lat="44.0808" lon="3.09283">
        <ele>722.9</ele>
        <time>2019-05-31T09:14:56Z</time>
      </trkpt>
      <trkpt lat="44.08084" lon="3.09282">
        <ele>723.1</ele>
        <time>2019-05-31T09:14:57Z</time>
      </trkpt>
      <trkpt lat="44.08087" lon="3.09282">
        <ele>723.2</ele>
        <time>2019-05-31T09:14:58Z</time>
      </trkpt>
      <trkpt lat="44.0809" lon="3.09281">
        <ele>723.3</ele>
        <time>2019-05-31T09:14:59Z</time>
      </trkpt>
      <trkpt lat="44.08093" lon="3.09281">
        <ele>723.5</ele>
        <time>2019-05-31T09:15:00Z</time>
      </trkpt>
      <trkpt lat="44.08098" lon="3.09281">
        <ele>723.6</ele>
        <time>2019-05-31T09:15:01Z</time>
      </trkpt>
      <trkpt lat="44.08101" lon="3.09279">
        <ele>723.8</ele>
        <time>2019-05-31T09:15:02Z</time>
      </trkpt>
      <trkpt lat="44.08104" lon="3.09278">
        <ele>723.9</ele>
        <time>2019-05-31T09:15:03Z</time>
      </trkpt>
      <trkpt lat="44.08107" lon="3.09276">
        <ele>724</ele>
        <time>2019-05-31T09:15:04Z</time>
      </trkpt>
      <trkpt lat="44.0811" lon="3.09274">
        <ele>724.2</ele>
        <time>2019-05-31T09:15:05Z</time>
      </trkpt>
      <trkpt lat="44.08113" lon="3.09272">
        <ele>724.4</ele>
        <time>2019-05-31T09:15:06Z</time>
      </trkpt>
      <trkpt lat="44.08116" lon="3.09271">
        <ele>724.6</ele>
        <time>2019-05-31T09:15:07Z</time>
      </trkpt>
      <trkpt lat="44.08119" lon="3.09269">
        <ele>724.9</ele>
        <time>2019-05-31T09:15:08Z</time>
      </trkpt>
      <trkpt lat="44.08123" lon="3.09266">
        <ele>725.4</ele>
        <time>2019-05-31T09:15:10Z</time>
      </trkpt>
      <trkpt lat="44.08128" lon="3.09263">
        <ele>726</ele>
        <time>2019-05-31T09:15:12Z</time>
      </trkpt>
      <trkpt lat="44.08131" lon="3.09261">
        <ele>726.5</ele>
        <time>2019-05-31T09:15:14Z</time>
      </trkpt>
      <trkpt lat="44.08134" lon="3.09257">
        <ele>727</ele>
        <time>2019-05-31T09:15:17Z</time>
      </trkpt>
      <trkpt lat="44.08136" lon="3.09254">
        <ele>727.5</ele>
        <time>2019-05-31T09:15:42Z</time>
      </trkpt>
      <trkpt lat="44.08138" lon="3.09251">
        <ele>727.9</ele>
        <time>2019-05-31T09:16:02Z</time>
      </trkpt>
      <trkpt lat="44.0814" lon="3.0925">
        <ele>728.4</ele>
        <time>2019-05-31T09:16:06Z</time>
      </trkpt>
      <trkpt lat="44.08144" lon="3.09248">
        <ele>729</ele>
        <time>2019-05-31T09:16:10Z</time>
      </trkpt>
      <trkpt lat="44.08143" lon="3.09252">
        <ele>729.4</ele>
        <time>2019-05-31T09:18:31Z</time>
      </trkpt>
      <trkpt lat="44.08141" lon="3.09255">
        <ele>729.9</ele>
        <time>2019-05-31T09:18:34Z</time>
      </trkpt>
      <trkpt lat="44.0814" lon="3.09259">
        <ele>730.3</ele>
        <time>2019-05-31T09:18:38Z</time>
      </trkpt>
      <trkpt lat="44.08143" lon="3.09259">
        <ele>730.7</ele>
        <time>2019-05-31T09:19:13Z</time>
      </trkpt>
      <trkpt lat="44.08143" lon="3.09263">
        <ele>731.1</ele>
        <time>2019-05-31T09:19:22Z</time>
      </trkpt>
      <trkpt lat="44.08142" lon="3.09266">
        <ele>731.4</ele>
        <time>2019-05-31T09:19:24Z</time>
      </trkpt>
      <trkpt lat="44.0814" lon="3.09271">
        <ele>731.9</ele>
        <time>2019-05-31T09:19:26Z</time>
      </trkpt>
      <trkpt lat="44.08138" lon="3.09275">
        <ele>732.3</ele>
        <time>2019-05-31T09:19:28Z</time>
      </trkpt>
      <trkpt lat="44.08137" lon="3.09279">
        <ele>732.7</ele>
        <time>2019-05-31T09:19:30Z</time>
      </trkpt>
      <trkpt lat="44.08137" lon="3.09285">
        <ele>733.2</ele>
        <time>2019-05-31T09:19:32Z</time>
      </trkpt>
      <trkpt lat="44.08138" lon="3.0929">
        <ele>733.6</ele>
        <time>2019-05-31T09:19:34Z</time>
      </trkpt>
      <trkpt lat="44.08139" lon="3.09295">
        <ele>733.9</ele>
        <time>2019-05-31T09:19:36Z</time>
      </trkpt>
      <trkpt lat="44.08141" lon="3.093">
        <ele>734.3</ele>
        <time>2019-05-31T09:19:38Z</time>
      </trkpt>
      <trkpt lat="44.08142" lon="3.09306">
        <ele>734.6</ele>
        <time>2019-05-31T09:19:40Z</time>
      </trkpt>
      <trkpt lat="44.08141" lon="3.09311">
        <ele>734.9</ele>
        <time>2019-05-31T09:19:42Z</time>
      </trkpt>
      <trkpt lat="44.0814" lon="3.09316">
        <ele>735.1</ele>
        <time>2019-05-31T09:19:44Z</time>
      </trkpt>
      <trkpt lat="44.08139" lon="3.09321">
        <ele>735.4</ele>
        <time>2019-05-31T09:19:47Z</time>
      </trkpt>
      <trkpt lat="44.08138" lon="3.09325">
        <ele>735.6</ele>
        <time>2019-05-31T09:19:49Z</time>
      </trkpt>
      <trkpt lat="44.08138" lon="3.0933">
        <ele>735.9</ele>
        <time>2019-05-31T09:19:51Z</time>
      </trkpt>
      <trkpt lat="44.08138" lon="3.09335">
        <ele>736.2</ele>
        <time>2019-05-31T09:19:54Z</time>
      </trkpt>
      <trkpt lat="44.08138" lon="3.0934">
        <ele>736.5</ele>
        <time>2019-05-31T09:19:56Z</time>
      </trkpt>
      <trkpt lat="44.08137" lon="3.09345">
        <ele>736.7</ele>
        <time>2019-05-31T09:19:58Z</time>
      </trkpt>
      <trkpt lat="44.08136" lon="3.0935">
        <ele>737</ele>
        <time>2019-05-31T09:20:00Z</time>
      </trkpt>
      <trkpt lat="44.08136" lon="3.09355">
        <ele>737.3</ele>
        <time>2019-05-31T09:20:02Z</time>
      </trkpt>
      <trkpt lat="44.08137" lon="3.09359">
        <ele>737.5</ele>
        <time>2019-05-31T09:20:04Z</time>
      </trkpt>
      <trkpt lat="44.08136" lon="3.09365">
        <ele>737.8</ele>
        <time>2019-05-31T09:20:07Z</time>
      </trkpt>
      <trkpt lat="44.08136" lon="3.09369">
        <ele>738</ele>
        <time>2019-05-31T09:20:09Z</time>
      </trkpt>
      <trkpt lat="44.08137" lon="3.09374">
        <ele>738.2</ele>
        <time>2019-05-31T09:20:12Z</time>
      </trkpt>
      <trkpt lat="44.08138" lon="3.09378">
        <ele>738.4</ele>
        <time>2019-05-31T09:20:14Z</time>
      </trkpt>
      <trkpt lat="44.08138" lon="3.09383">
        <ele>738.6</ele>
        <time>2019-05-31T09:20:16Z</time>
      </trkpt>
      <trkpt lat="44.08137" lon="3.09387">
        <ele>738.7</ele>
        <time>2019-05-31T09:20:18Z</time>
      </trkpt>
      <trkpt lat="44.08137" lon="3.09392">
        <ele>738.9</ele>
        <time>2019-05-31T09:20:20Z</time>
      </trkpt>
      <trkpt lat="44.08136" lon="3.09396">
        <ele>739</ele>
        <time>2019-05-31T09:20:22Z</time>
      </trkpt>
      <trkpt lat="44.08136" lon="3.094">
        <ele>739.1</ele>
        <time>2019-05-31T09:20:25Z</time>
      </trkpt>
      <trkpt lat="44.08137" lon="3.09403">
        <ele>739.2</ele>
        <time>2019-05-31T09:20:27Z</time>
      </trkpt>
      <trkpt lat="44.08138" lon="3.09408">
        <ele>739.3</ele>
        <time>2019-05-31T09:20:29Z</time>
      </trkpt>
      <trkpt lat="44.0814" lon="3.09412">
        <ele>739.4</ele>
        <time>2019-05-31T09:20:31Z</time>
      </trkpt>
      <trkpt lat="44.08141" lon="3.09416">
        <ele>739.4</ele>
        <time>2019-05-31T09:20:33Z</time>
      </trkpt>
      <trkpt lat="44.08142" lon="3.09421">
        <ele>739.4</ele>
        <time>2019-05-31T09:20:35Z</time>
      </trkpt>
      <trkpt lat="44.08142" lon="3.09426">
        <ele>739.4</ele>
        <time>2019-05-31T09:20:37Z</time>
      </trkpt>
      <trkpt lat="44.08143" lon="3.09431">
        <ele>739.4</ele>
        <time>2019-05-31T09:20:39Z</time>
      </trkpt>
      <trkpt lat="44.08144" lon="3.09437">
        <ele>739.3</ele>
        <time>2019-05-31T09:20:41Z</time>
      </trkpt>
      <trkpt lat="44.08144" lon="3.09442">
        <ele>739.2</ele>
        <time>2019-05-31T09:20:43Z</time>
      </trkpt>
      <trkpt lat="44.08144" lon="3.09446">
        <ele>739.1</ele>
        <time>2019-05-31T09:20:45Z</time>
      </trkpt>
      <trkpt lat="44.08143" lon="3.09452">
        <ele>739</ele>
        <time>2019-05-31T09:20:47Z</time>
      </trkpt>
      <trkpt lat="44.08142" lon="3.09457">
        <ele>738.9</ele>
        <time>2019-05-31T09:20:49Z</time>
      </trkpt>
      <trkpt lat="44.0814" lon="3.09463">
        <ele>738.8</ele>
        <time>2019-05-31T09:20:51Z</time>
      </trkpt>
      <trkpt lat="44.08139" lon="3.09468">
        <ele>738.7</ele>
        <time>2019-05-31T09:20:53Z</time>
      </trkpt>
      <trkpt lat="44.08138" lon="3.09475">
        <ele>738.7</ele>
        <time>2019-05-31T09:20:55Z</time>
      </trkpt>
      <trkpt lat="44.08138" lon="3.09481">
        <ele>738.7</ele>
        <time>2019-05-31T09:20:57Z</time>
      </trkpt>
      <trkpt lat="44.08138" lon="3.09485">
        <ele>738.7</ele>
        <time>2019-05-31T09:20:58Z</time>
      </trkpt>
      <trkpt lat="44.08137" lon="3.09489">
        <ele>738.7</ele>
        <time>2019-05-31T09:20:59Z</time>
      </trkpt>
      <trkpt lat="44.08136" lon="3.09493">
        <ele>738.7</ele>
        <time>2019-05-31T09:21:00Z</time>
      </trkpt>
      <trkpt lat="44.08136" lon="3.09498">
        <ele>738.7</ele>
        <time>2019-05-31T09:21:01Z</time>
      </trkpt>
      <trkpt lat="44.08135" lon="3.09502">
        <ele>738.7</ele>
        <time>2019-05-31T09:21:02Z</time>
      </trkpt>
      <trkpt lat="44.08133" lon="3.09506">
        <ele>738.7</ele>
        <time>2019-05-31T09:21:03Z</time>
      </trkpt>
      <trkpt lat="44.08132" lon="3.09511">
        <ele>738.7</ele>
        <time>2019-05-31T09:21:04Z</time>
      </trkpt>
      <trkpt lat="44.08129" lon="3.09516">
        <ele>738.7</ele>
        <time>2019-05-31T09:21:05Z</time>
      </trkpt>
      <trkpt lat="44.08127" lon="3.09519">
        <ele>738.7</ele>
        <time>2019-05-31T09:21:06Z</time>
      </trkpt>
      <trkpt lat="44.08124" lon="3.09524">
        <ele>738.7</ele>
        <time>2019-05-31T09:21:07Z</time>
      </trkpt>
      <trkpt lat="44.08122" lon="3.0953">
        <ele>738.7</ele>
        <time>2019-05-31T09:21:08Z</time>
      </trkpt>
      <trkpt lat="44.08121" lon="3.09535">
        <ele>738.7</ele>
        <time>2019-05-31T09:21:09Z</time>
      </trkpt>
      <trkpt lat="44.08119" lon="3.0954">
        <ele>738.6</ele>
        <time>2019-05-31T09:21:10Z</time>
      </trkpt>
      <trkpt lat="44.08118" lon="3.09547">
        <ele>738.6</ele>
        <time>2019-05-31T09:21:11Z</time>
      </trkpt>
      <trkpt lat="44.08117" lon="3.09553">
        <ele>738.5</ele>
        <time>2019-05-31T09:21:12Z</time>
      </trkpt>
      <trkpt lat="44.08115" lon="3.0956">
        <ele>738.5</ele>
        <time>2019-05-31T09:21:14Z</time>
      </trkpt>
      <trkpt lat="44.08115" lon="3.09567">
        <ele>738.5</ele>
        <time>2019-05-31T09:21:15Z</time>
      </trkpt>
      <trkpt lat="44.08114" lon="3.09572">
        <ele>738.5</ele>
        <time>2019-05-31T09:21:16Z</time>
      </trkpt>
      <trkpt lat="44.08114" lon="3.09578">
        <ele>738.5</ele>
        <time>2019-05-31T09:21:17Z</time>
      </trkpt>
      <trkpt lat="44.08112" lon="3.09583">
        <ele>738.6</ele>
        <time>2019-05-31T09:21:18Z</time>
      </trkpt>
      <trkpt lat="44.0811" lon="3.09589">
        <ele>738.6</ele>
        <time>2019-05-31T09:21:19Z</time>
      </trkpt>
      <trkpt lat="44.08109" lon="3.09595">
        <ele>738.7</ele>
        <time>2019-05-31T09:21:20Z</time>
      </trkpt>
      <trkpt lat="44.08108" lon="3.096">
        <ele>738.8</ele>
        <time>2019-05-31T09:21:21Z</time>
      </trkpt>
      <trkpt lat="44.08107" lon="3.09605">
        <ele>738.8</ele>
        <time>2019-05-31T09:21:22Z</time>
      </trkpt>
      <trkpt lat="44.08107" lon="3.09609">
        <ele>738.8</ele>
        <time>2019-05-31T09:21:23Z</time>
      </trkpt>
      <trkpt lat="44.08106" lon="3.09615">
        <ele>738.8</ele>
        <time>2019-05-31T09:21:24Z</time>
      </trkpt>
      <trkpt lat="44.08106" lon="3.0962">
        <ele>738.8</ele>
        <time>2019-05-31T09:21:25Z</time>
      </trkpt>
      <trkpt lat="44.08107" lon="3.09624">
        <ele>738.9</ele>
        <time>2019-05-31T09:21:26Z</time>
      </trkpt>
      <trkpt lat="44.08106" lon="3.09629">
        <ele>738.9</ele>
        <time>2019-05-31T09:21:27Z</time>
      </trkpt>
      <trkpt lat="44.08106" lon="3.09634">
        <ele>738.9</ele>
        <time>2019-05-31T09:21:28Z</time>
      </trkpt>
      <trkpt lat="44.08105" lon="3.09639">
        <ele>738.9</ele>
        <time>2019-05-31T09:21:29Z</time>
      </trkpt>
      <trkpt lat="44.08104" lon="3.09644">
        <ele>738.9</ele>
        <time>2019-05-31T09:21:30Z</time>
      </trkpt>
      <trkpt lat="44.08103" lon="3.09648">
        <ele>738.9</ele>
        <time>2019-05-31T09:21:31Z</time>
      </trkpt>
      <trkpt lat="44.08102" lon="3.09654">
        <ele>738.9</ele>
        <time>2019-05-31T09:21:32Z</time>
      </trkpt>
      <trkpt lat="44.08102" lon="3.09659">
        <ele>738.9</ele>
        <time>2019-05-31T09:21:33Z</time>
      </trkpt>
      <trkpt lat="44.08102" lon="3.09664">
        <ele>738.9</ele>
        <time>2019-05-31T09:21:34Z</time>
      </trkpt>
      <trkpt lat="44.08103" lon="3.09669">
        <ele>738.9</ele>
        <time>2019-05-31T09:21:35Z</time>
      </trkpt>
      <trkpt lat="44.08103" lon="3.09673">
        <ele>738.9</ele>
        <time>2019-05-31T09:21:36Z</time>
      </trkpt>
      <trkpt lat="44.08104" lon="3.09678">
        <ele>738.9</ele>
        <time>2019-05-31T09:21:37Z</time>
      </trkpt>
      <trkpt lat="44.08104" lon="3.09683">
        <ele>739</ele>
        <time>2019-05-31T09:21:38Z</time>
      </trkpt>
      <trkpt lat="44.08104" lon="3.09687">
        <ele>739</ele>
        <time>2019-05-31T09:21:39Z</time>
      </trkpt>
      <trkpt lat="44.08104" lon="3.09693">
        <ele>739</ele>
        <time>2019-05-31T09:21:40Z</time>
      </trkpt>
      <trkpt lat="44.08103" lon="3.09699">
        <ele>739</ele>
        <time>2019-05-31T09:21:41Z</time>
      </trkpt>
      <trkpt lat="44.08103" lon="3.09706">
        <ele>739.1</ele>
        <time>2019-05-31T09:21:42Z</time>
      </trkpt>
      <trkpt lat="44.08103" lon="3.09712">
        <ele>739.1</ele>
        <time>2019-05-31T09:21:43Z</time>
      </trkpt>
      <trkpt lat="44.08103" lon="3.09718">
        <ele>739.2</ele>
        <time>2019-05-31T09:21:44Z</time>
      </trkpt>
      <trkpt lat="44.08104" lon="3.09724">
        <ele>739.3</ele>
        <time>2019-05-31T09:21:45Z</time>
      </trkpt>
      <trkpt lat="44.08105" lon="3.09729">
        <ele>739.4</ele>
        <time>2019-05-31T09:21:46Z</time>
      </trkpt>
      <trkpt lat="44.08106" lon="3.09735">
        <ele>739.5</ele>
        <time>2019-05-31T09:21:47Z</time>
      </trkpt>
      <trkpt lat="44.08106" lon="3.09742">
        <ele>739.6</ele>
        <time>2019-05-31T09:21:48Z</time>
      </trkpt>
      <trkpt lat="44.08105" lon="3.09747">
        <ele>739.7</ele>
        <time>2019-05-31T09:21:49Z</time>
      </trkpt>
      <trkpt lat="44.08104" lon="3.09752">
        <ele>739.8</ele>
        <time>2019-05-31T09:21:50Z</time>
      </trkpt>
      <trkpt lat="44.08105" lon="3.09759">
        <ele>739.9</ele>
        <time>2019-05-31T09:21:51Z</time>
      </trkpt>
      <trkpt lat="44.08105" lon="3.09764">
        <ele>740</ele>
        <time>2019-05-31T09:21:52Z</time>
      </trkpt>
      <trkpt lat="44.08106" lon="3.09768">
        <ele>740.1</ele>
        <time>2019-05-31T09:21:53Z</time>
      </trkpt>
      <trkpt lat="44.08109" lon="3.09775">
        <ele>740.2</ele>
        <time>2019-05-31T09:21:55Z</time>
      </trkpt>
      <trkpt lat="44.08111" lon="3.09782">
        <ele>740.4</ele>
        <time>2019-05-31T09:21:57Z</time>
      </trkpt>
      <trkpt lat="44.08111" lon="3.09789">
        <ele>740.5</ele>
        <time>2019-05-31T09:21:59Z</time>
      </trkpt>
      <trkpt lat="44.08113" lon="3.09795">
        <ele>740.6</ele>
        <time>2019-05-31T09:22:01Z</time>
      </trkpt>
      <trkpt lat="44.08115" lon="3.09802">
        <ele>740.7</ele>
        <time>2019-05-31T09:22:03Z</time>
      </trkpt>
      <trkpt lat="44.08116" lon="3.09808">
        <ele>740.8</ele>
        <time>2019-05-31T09:22:05Z</time>
      </trkpt>
      <trkpt lat="44.08117" lon="3.09812">
        <ele>740.9</ele>
        <time>2019-05-31T09:22:06Z</time>
      </trkpt>
      <trkpt lat="44.08117" lon="3.09817">
        <ele>741</ele>
        <time>2019-05-31T09:22:08Z</time>
      </trkpt>
      <trkpt lat="44.08117" lon="3.09822">
        <ele>741</ele>
        <time>2019-05-31T09:22:10Z</time>
      </trkpt>
      <trkpt lat="44.08118" lon="3.09828">
        <ele>741.1</ele>
        <time>2019-05-31T09:22:12Z</time>
      </trkpt>
      <trkpt lat="44.0812" lon="3.09834">
        <ele>741.1</ele>
        <time>2019-05-31T09:22:14Z</time>
      </trkpt>
      <trkpt lat="44.08122" lon="3.0984">
        <ele>741.1</ele>
        <time>2019-05-31T09:22:16Z</time>
      </trkpt>
      <trkpt lat="44.08124" lon="3.09845">
        <ele>741.1</ele>
        <time>2019-05-31T09:22:18Z</time>
      </trkpt>
      <trkpt lat="44.08125" lon="3.09852">
        <ele>741.1</ele>
        <time>2019-05-31T09:22:20Z</time>
      </trkpt>
      <trkpt lat="44.08127" lon="3.09859">
        <ele>742.2</ele>
        <time>2019-05-31T09:22:22Z</time>
      </trkpt>
      <trkpt lat="44.08129" lon="3.09865">
        <ele>742.8</ele>
        <time>2019-05-31T09:22:24Z</time>
      </trkpt>
      <trkpt lat="44.08131" lon="3.09871">
        <ele>743.5</ele>
        <time>2019-05-31T09:22:26Z</time>
      </trkpt>
      <trkpt lat="44.08133" lon="3.09874">
        <ele>743.8</ele>
        <time>2019-05-31T09:22:27Z</time>
      </trkpt>
      <trkpt lat="44.08135" lon="3.09879">
        <ele>744.3</ele>
        <time>2019-05-31T09:22:29Z</time>
      </trkpt>
      <trkpt lat="44.08136" lon="3.09885">
        <ele>744.7</ele>
        <time>2019-05-31T09:22:31Z</time>
      </trkpt>
      <trkpt lat="44.08137" lon="3.09891">
        <ele>745.1</ele>
        <time>2019-05-31T09:22:33Z</time>
      </trkpt>
      <trkpt lat="44.08137" lon="3.09896">
        <ele>745.5</ele>
        <time>2019-05-31T09:22:35Z</time>
      </trkpt>
      <trkpt lat="44.08138" lon="3.099">
        <ele>745.8</ele>
        <time>2019-05-31T09:22:37Z</time>
      </trkpt>
      <trkpt lat="44.08138" lon="3.09904">
        <ele>746</ele>
        <time>2019-05-31T09:22:39Z</time>
      </trkpt>
      <trkpt lat="44.08139" lon="3.09908">
        <ele>746.2</ele>
        <time>2019-05-31T09:22:41Z</time>
      </trkpt>
      <trkpt lat="44.0814" lon="3.09913">
        <ele>746.5</ele>
        <time>2019-05-31T09:22:44Z</time>
      </trkpt>
      <trkpt lat="44.08141" lon="3.09918">
        <ele>746.7</ele>
        <time>2019-05-31T09:22:46Z</time>
      </trkpt>
      <trkpt lat="44.08143" lon="3.09922">
        <ele>746.9</ele>
        <time>2019-05-31T09:22:48Z</time>
      </trkpt>
      <trkpt lat="44.08144" lon="3.09928">
        <ele>747</ele>
        <time>2019-05-31T09:22:50Z</time>
      </trkpt>
      <trkpt lat="44.08145" lon="3.09932">
        <ele>747.1</ele>
        <time>2019-05-31T09:22:52Z</time>
      </trkpt>
      <trkpt lat="44.08145" lon="3.09937">
        <ele>747.2</ele>
        <time>2019-05-31T09:22:54Z</time>
      </trkpt>
      <trkpt lat="44.08145" lon="3.09943">
        <ele>747.2</ele>
        <time>2019-05-31T09:22:56Z</time>
      </trkpt>
      <trkpt lat="44.08147" lon="3.09948">
        <ele>747.3</ele>
        <time>2019-05-31T09:22:58Z</time>
      </trkpt>
      <trkpt lat="44.08149" lon="3.09952">
        <ele>747.3</ele>
        <time>2019-05-31T09:23:00Z</time>
      </trkpt>
      <trkpt lat="44.08151" lon="3.09958">
        <ele>747.3</ele>
        <time>2019-05-31T09:23:02Z</time>
      </trkpt>
      <trkpt lat="44.08152" lon="3.09964">
        <ele>747.4</ele>
        <time>2019-05-31T09:23:04Z</time>
      </trkpt>
      <trkpt lat="44.08153" lon="3.0997">
        <ele>747.5</ele>
        <time>2019-05-31T09:23:06Z</time>
      </trkpt>
      <trkpt lat="44.08154" lon="3.09977">
        <ele>747.5</ele>
        <time>2019-05-31T09:23:08Z</time>
      </trkpt>
      <trkpt lat="44.08156" lon="3.09983">
        <ele>747.6</ele>
        <time>2019-05-31T09:23:10Z</time>
      </trkpt>
      <trkpt lat="44.08157" lon="3.0999">
        <ele>747.6</ele>
        <time>2019-05-31T09:23:12Z</time>
      </trkpt>
      <trkpt lat="44.08159" lon="3.09996">
        <ele>747.5</ele>
        <time>2019-05-31T09:23:14Z</time>
      </trkpt>
      <trkpt lat="44.08159" lon="3.1">
        <ele>747.4</ele>
        <time>2019-05-31T09:23:15Z</time>
      </trkpt>
      <trkpt lat="44.0816" lon="3.10005">
        <ele>747.3</ele>
        <time>2019-05-31T09:23:17Z</time>
      </trkpt>
      <trkpt lat="44.08161" lon="3.10011">
        <ele>747.2</ele>
        <time>2019-05-31T09:23:19Z</time>
      </trkpt>
      <trkpt lat="44.08161" lon="3.10015">
        <ele>747.1</ele>
        <time>2019-05-31T09:23:20Z</time>
      </trkpt>
      <trkpt lat="44.08162" lon="3.10019">
        <ele>747</ele>
        <time>2019-05-31T09:23:21Z</time>
      </trkpt>
      <trkpt lat="44.08163" lon="3.10027">
        <ele>746.8</ele>
        <time>2019-05-31T09:23:23Z</time>
      </trkpt>
      <trkpt lat="44.08164" lon="3.10031">
        <ele>746.7</ele>
        <time>2019-05-31T09:23:24Z</time>
      </trkpt>
      <trkpt lat="44.08164" lon="3.10036">
        <ele>746.7</ele>
        <time>2019-05-31T09:23:25Z</time>
      </trkpt>
      <trkpt lat="44.08165" lon="3.1004">
        <ele>746.6</ele>
        <time>2019-05-31T09:23:26Z</time>
      </trkpt>
      <trkpt lat="44.08166" lon="3.10046">
        <ele>746.5</ele>
        <time>2019-05-31T09:23:27Z</time>
      </trkpt>
      <trkpt lat="44.08167" lon="3.10051">
        <ele>746.4</ele>
        <time>2019-05-31T09:23:28Z</time>
      </trkpt>
      <trkpt lat="44.08168" lon="3.10057">
        <ele>746.3</ele>
        <time>2019-05-31T09:23:29Z</time>
      </trkpt>
      <trkpt lat="44.08168" lon="3.10062">
        <ele>746.3</ele>
        <time>2019-05-31T09:23:30Z</time>
      </trkpt>
      <trkpt lat="44.08169" lon="3.10067">
        <ele>746.3</ele>
        <time>2019-05-31T09:23:31Z</time>
      </trkpt>
      <trkpt lat="44.0817" lon="3.10072">
        <ele>746.4</ele>
        <time>2019-05-31T09:23:32Z</time>
      </trkpt>
      <trkpt lat="44.08171" lon="3.10077">
        <ele>746.4</ele>
        <time>2019-05-31T09:23:33Z</time>
      </trkpt>
      <trkpt lat="44.08172" lon="3.10081">
        <ele>746.4</ele>
        <time>2019-05-31T09:23:34Z</time>
      </trkpt>
      <trkpt lat="44.08174" lon="3.10086">
        <ele>746.4</ele>
        <time>2019-05-31T09:23:35Z</time>
      </trkpt>
      <trkpt lat="44.08177" lon="3.10091">
        <ele>746.4</ele>
        <time>2019-05-31T09:23:36Z</time>
      </trkpt>
      <trkpt lat="44.08179" lon="3.10095">
        <ele>746.3</ele>
        <time>2019-05-31T09:23:37Z</time>
      </trkpt>
      <trkpt lat="44.08181" lon="3.101">
        <ele>746.2</ele>
        <time>2019-05-31T09:23:38Z</time>
      </trkpt>
      <trkpt lat="44.08183" lon="3.10105">
        <ele>746.1</ele>
        <time>2019-05-31T09:23:39Z</time>
      </trkpt>
      <trkpt lat="44.08185" lon="3.10111">
        <ele>745.9</ele>
        <time>2019-05-31T09:23:40Z</time>
      </trkpt>
      <trkpt lat="44.08187" lon="3.10116">
        <ele>745.8</ele>
        <time>2019-05-31T09:23:41Z</time>
      </trkpt>
      <trkpt lat="44.08188" lon="3.10122">
        <ele>745.7</ele>
        <time>2019-05-31T09:23:42Z</time>
      </trkpt>
      <trkpt lat="44.0819" lon="3.10128">
        <ele>745.6</ele>
        <time>2019-05-31T09:23:43Z</time>
      </trkpt>
      <trkpt lat="44.08192" lon="3.10136">
        <ele>745.5</ele>
        <time>2019-05-31T09:23:44Z</time>
      </trkpt>
      <trkpt lat="44.0819" lon="3.10141">
        <ele>745.5</ele>
        <time>2019-05-31T09:23:45Z</time>
      </trkpt>
      <trkpt lat="44.08189" lon="3.10146">
        <ele>745.4</ele>
        <time>2019-05-31T09:23:46Z</time>
      </trkpt>
      <trkpt lat="44.08189" lon="3.10151">
        <ele>745.4</ele>
        <time>2019-05-31T09:23:47Z</time>
      </trkpt>
      <trkpt lat="44.08191" lon="3.10156">
        <ele>745.3</ele>
        <time>2019-05-31T09:23:48Z</time>
      </trkpt>
      <trkpt lat="44.08192" lon="3.10163">
        <ele>745.3</ele>
        <time>2019-05-31T09:23:49Z</time>
      </trkpt>
      <trkpt lat="44.08192" lon="3.10168">
        <ele>745.2</ele>
        <time>2019-05-31T09:23:50Z</time>
      </trkpt>
      <trkpt lat="44.08194" lon="3.10174">
        <ele>745.1</ele>
        <time>2019-05-31T09:23:51Z</time>
      </trkpt>
      <trkpt lat="44.08195" lon="3.10179">
        <ele>745.1</ele>
        <time>2019-05-31T09:23:52Z</time>
      </trkpt>
      <trkpt lat="44.08195" lon="3.10184">
        <ele>744.9</ele>
        <time>2019-05-31T09:23:53Z</time>
      </trkpt>
      <trkpt lat="44.08194" lon="3.1019">
        <ele>744.8</ele>
        <time>2019-05-31T09:23:54Z</time>
      </trkpt>
      <trkpt lat="44.08195" lon="3.10195">
        <ele>744.7</ele>
        <time>2019-05-31T09:23:55Z</time>
      </trkpt>
      <trkpt lat="44.08196" lon="3.10203">
        <ele>744.5</ele>
        <time>2019-05-31T09:23:56Z</time>
      </trkpt>
      <trkpt lat="44.08198" lon="3.1021">
        <ele>744.5</ele>
        <time>2019-05-31T09:23:57Z</time>
      </trkpt>
      <trkpt lat="44.08199" lon="3.10217">
        <ele>744.4</ele>
        <time>2019-05-31T09:23:58Z</time>
      </trkpt>
      <trkpt lat="44.082" lon="3.10222">
        <ele>744.4</ele>
        <time>2019-05-31T09:23:59Z</time>
      </trkpt>
      <trkpt lat="44.08201" lon="3.10229">
        <ele>744.5</ele>
        <time>2019-05-31T09:24:00Z</time>
      </trkpt>
      <trkpt lat="44.08201" lon="3.10237">
        <ele>744.6</ele>
        <time>2019-05-31T09:24:01Z</time>
      </trkpt>
      <trkpt lat="44.08201" lon="3.10243">
        <ele>744.7</ele>
        <time>2019-05-31T09:24:02Z</time>
      </trkpt>
      <trkpt lat="44.08201" lon="3.1025">
        <ele>744.7</ele>
        <time>2019-05-31T09:24:03Z</time>
      </trkpt>
      <trkpt lat="44.08204" lon="3.10258">
        <ele>744.7</ele>
        <time>2019-05-31T09:24:04Z</time>
      </trkpt>
      <trkpt lat="44.08204" lon="3.10266">
        <ele>744.7</ele>
        <time>2019-05-31T09:24:05Z</time>
      </trkpt>
      <trkpt lat="44.08205" lon="3.10274">
        <ele>744.6</ele>
        <time>2019-05-31T09:24:06Z</time>
      </trkpt>
      <trkpt lat="44.08206" lon="3.10281">
        <ele>744.4</ele>
        <time>2019-05-31T09:24:07Z</time>
      </trkpt>
      <trkpt lat="44.08208" lon="3.10289">
        <ele>744.1</ele>
        <time>2019-05-31T09:24:08Z</time>
      </trkpt>
      <trkpt lat="44.08209" lon="3.10295">
        <ele>743.9</ele>
        <time>2019-05-31T09:24:09Z</time>
      </trkpt>
      <trkpt lat="44.08209" lon="3.10304">
        <ele>743.5</ele>
        <time>2019-05-31T09:24:10Z</time>
      </trkpt>
      <trkpt lat="44.08207" lon="3.10309">
        <ele>743.3</ele>
        <time>2019-05-31T09:24:11Z</time>
      </trkpt>
      <trkpt lat="44.08208" lon="3.10318">
        <ele>743.1</ele>
        <time>2019-05-31T09:24:12Z</time>
      </trkpt>
      <trkpt lat="44.08208" lon="3.10325">
        <ele>742.9</ele>
        <time>2019-05-31T09:24:13Z</time>
      </trkpt>
      <trkpt lat="44.08209" lon="3.10333">
        <ele>742.8</ele>
        <time>2019-05-31T09:24:14Z</time>
      </trkpt>
      <trkpt lat="44.0821" lon="3.1034">
        <ele>742.7</ele>
        <time>2019-05-31T09:24:15Z</time>
      </trkpt>
      <trkpt lat="44.0821" lon="3.10347">
        <ele>742.7</ele>
        <time>2019-05-31T09:24:16Z</time>
      </trkpt>
      <trkpt lat="44.0821" lon="3.10355">
        <ele>742.7</ele>
        <time>2019-05-31T09:24:17Z</time>
      </trkpt>
      <trkpt lat="44.08211" lon="3.10362">
        <ele>742.7</ele>
        <time>2019-05-31T09:24:18Z</time>
      </trkpt>
      <trkpt lat="44.08211" lon="3.1037">
        <ele>742.7</ele>
        <time>2019-05-31T09:24:19Z</time>
      </trkpt>
      <trkpt lat="44.08212" lon="3.10377">
        <ele>742.6</ele>
        <time>2019-05-31T09:24:20Z</time>
      </trkpt>
      <trkpt lat="44.08213" lon="3.10385">
        <ele>742.6</ele>
        <time>2019-05-31T09:24:21Z</time>
      </trkpt>
      <trkpt lat="44.08214" lon="3.10392">
        <ele>742.6</ele>
        <time>2019-05-31T09:24:22Z</time>
      </trkpt>
      <trkpt lat="44.08214" lon="3.104">
        <ele>742.5</ele>
        <time>2019-05-31T09:24:23Z</time>
      </trkpt>
      <trkpt lat="44.08215" lon="3.10406">
        <ele>742.4</ele>
        <time>2019-05-31T09:24:24Z</time>
      </trkpt>
      <trkpt lat="44.08216" lon="3.10413">
        <ele>742.3</ele>
        <time>2019-05-31T09:24:25Z</time>
      </trkpt>
      <trkpt lat="44.08219" lon="3.1042">
        <ele>742.2</ele>
        <time>2019-05-31T09:24:27Z</time>
      </trkpt>
      <trkpt lat="44.0822" lon="3.10424">
        <ele>742.1</ele>
        <time>2019-05-31T09:24:28Z</time>
      </trkpt>
      <trkpt lat="44.08221" lon="3.10431">
        <ele>742.1</ele>
        <time>2019-05-31T09:24:30Z</time>
      </trkpt>
      <trkpt lat="44.08223" lon="3.10437">
        <ele>742.1</ele>
        <time>2019-05-31T09:24:32Z</time>
      </trkpt>
      <trkpt lat="44.08225" lon="3.10443">
        <ele>742.1</ele>
        <time>2019-05-31T09:24:34Z</time>
      </trkpt>
      <trkpt lat="44.08226" lon="3.10449">
        <ele>742.1</ele>
        <time>2019-05-31T09:24:36Z</time>
      </trkpt>
      <trkpt lat="44.08227" lon="3.10452">
        <ele>742</ele>
        <time>2019-05-31T09:24:37Z</time>
      </trkpt>
      <trkpt lat="44.08229" lon="3.10456">
        <ele>742</ele>
        <time>2019-05-31T09:24:38Z</time>
      </trkpt>
      <trkpt lat="44.0823" lon="3.1046">
        <ele>742</ele>
        <time>2019-05-31T09:24:39Z</time>
      </trkpt>
      <trkpt lat="44.08231" lon="3.10464">
        <ele>741.9</ele>
        <time>2019-05-31T09:24:40Z</time>
      </trkpt>
      <trkpt lat="44.08233" lon="3.10469">
        <ele>741.9</ele>
        <time>2019-05-31T09:24:41Z</time>
      </trkpt>
      <trkpt lat="44.08234" lon="3.10475">
        <ele>741.8</ele>
        <time>2019-05-31T09:24:42Z</time>
      </trkpt>
      <trkpt lat="44.08237" lon="3.10483">
        <ele>741.8</ele>
        <time>2019-05-31T09:24:43Z</time>
      </trkpt>
      <trkpt lat="44.08239" lon="3.10489">
        <ele>741.9</ele>
        <time>2019-05-31T09:24:44Z</time>
      </trkpt>
      <trkpt lat="44.0824" lon="3.10495">
        <ele>742.1</ele>
        <time>2019-05-31T09:24:45Z</time>
      </trkpt>
      <trkpt lat="44.08244" lon="3.10501">
        <ele>742.4</ele>
        <time>2019-05-31T09:24:46Z</time>
      </trkpt>
      <trkpt lat="44.08245" lon="3.10508">
        <ele>742.6</ele>
        <time>2019-05-31T09:24:47Z</time>
      </trkpt>
      <trkpt lat="44.08248" lon="3.10515">
        <ele>742.8</ele>
        <time>2019-05-31T09:24:48Z</time>
      </trkpt>
      <trkpt lat="44.08249" lon="3.10522">
        <ele>743</ele>
        <time>2019-05-31T09:24:49Z</time>
      </trkpt>
      <trkpt lat="44.08251" lon="3.1053">
        <ele>743.1</ele>
        <time>2019-05-31T09:24:50Z</time>
      </trkpt>
      <trkpt lat="44.08252" lon="3.10536">
        <ele>743.1</ele>
        <time>2019-05-31T09:24:51Z</time>
      </trkpt>
      <trkpt lat="44.08253" lon="3.10543">
        <ele>743.1</ele>
        <time>2019-05-31T09:24:52Z</time>
      </trkpt>
      <trkpt lat="44.08253" lon="3.10548">
        <ele>743.1</ele>
        <time>2019-05-31T09:24:53Z</time>
      </trkpt>
      <trkpt lat="44.08257" lon="3.10553">
        <ele>743.1</ele>
        <time>2019-05-31T09:24:54Z</time>
      </trkpt>
      <trkpt lat="44.08258" lon="3.10558">
        <ele>743.1</ele>
        <time>2019-05-31T09:24:55Z</time>
      </trkpt>
      <trkpt lat="44.08259" lon="3.10562">
        <ele>743.7</ele>
        <time>2019-05-31T09:24:56Z</time>
      </trkpt>
      <trkpt lat="44.0826" lon="3.10568">
        <ele>744.1</ele>
        <time>2019-05-31T09:24:57Z</time>
      </trkpt>
      <trkpt lat="44.0826" lon="3.10573">
        <ele>744.4</ele>
        <time>2019-05-31T09:24:58Z</time>
      </trkpt>
      <trkpt lat="44.08261" lon="3.10578">
        <ele>744.7</ele>
        <time>2019-05-31T09:24:59Z</time>
      </trkpt>
      <trkpt lat="44.08262" lon="3.10583">
        <ele>745</ele>
        <time>2019-05-31T09:25:00Z</time>
      </trkpt>
      <trkpt lat="44.08263" lon="3.10587">
        <ele>745.2</ele>
        <time>2019-05-31T09:25:01Z</time>
      </trkpt>
      <trkpt lat="44.08265" lon="3.10593">
        <ele>745.5</ele>
        <time>2019-05-31T09:25:03Z</time>
      </trkpt>
      <trkpt lat="44.08269" lon="3.10598">
        <ele>745.7</ele>
        <time>2019-05-31T09:25:05Z</time>
      </trkpt>
      <trkpt lat="44.08274" lon="3.10601">
        <ele>746</ele>
        <time>2019-05-31T09:25:07Z</time>
      </trkpt>
      <trkpt lat="44.08276" lon="3.10602">
        <ele>746.2</ele>
        <time>2019-05-31T09:25:08Z</time>
      </trkpt>
      <trkpt lat="44.08279" lon="3.10604">
        <ele>746.3</ele>
        <time>2019-05-31T09:25:09Z</time>
      </trkpt>
      <trkpt lat="44.08281" lon="3.10606">
        <ele>746.4</ele>
        <time>2019-05-31T09:25:10Z</time>
      </trkpt>
      <trkpt lat="44.08285" lon="3.10611">
        <ele>746.6</ele>
        <time>2019-05-31T09:25:12Z</time>
      </trkpt>
      <trkpt lat="44.08287" lon="3.10616">
        <ele>746.9</ele>
        <time>2019-05-31T09:25:14Z</time>
      </trkpt>
      <trkpt lat="44.08289" lon="3.1062">
        <ele>747</ele>
        <time>2019-05-31T09:25:15Z</time>
      </trkpt>
      <trkpt lat="44.0829" lon="3.10624">
        <ele>747.2</ele>
        <time>2019-05-31T09:25:16Z</time>
      </trkpt>
      <trkpt lat="44.08291" lon="3.10628">
        <ele>747.4</ele>
        <time>2019-05-31T09:25:17Z</time>
      </trkpt>
      <trkpt lat="44.08293" lon="3.10635">
        <ele>747.6</ele>
        <time>2019-05-31T09:25:19Z</time>
      </trkpt>
      <trkpt lat="44.08295" lon="3.10638">
        <ele>747.7</ele>
        <time>2019-05-31T09:25:21Z</time>
      </trkpt>
      <trkpt lat="44.08298" lon="3.10639">
        <ele>747.8</ele>
        <time>2019-05-31T09:25:24Z</time>
      </trkpt>
      <trkpt lat="44.08299" lon="3.10644">
        <ele>747.9</ele>
        <time>2019-05-31T09:25:48Z</time>
      </trkpt>
      <trkpt lat="44.08299" lon="3.10649">
        <ele>749.4</ele>
        <time>2019-05-31T09:25:50Z</time>
      </trkpt>
      <trkpt lat="44.08298" lon="3.10654">
        <ele>752.1</ele>
        <time>2019-05-31T09:25:52Z</time>
      </trkpt>
      <trkpt lat="44.08296" lon="3.10658">
        <ele>754.3</ele>
        <time>2019-05-31T09:25:53Z</time>
      </trkpt>
      <trkpt lat="44.08294" lon="3.10661">
        <ele>755.3</ele>
        <time>2019-05-31T09:25:54Z</time>
      </trkpt>
      <trkpt lat="44.0829" lon="3.10666">
        <ele>757.1</ele>
        <time>2019-05-31T09:25:56Z</time>
      </trkpt>
      <trkpt lat="44.08286" lon="3.1067">
        <ele>759.3</ele>
        <time>2019-05-31T09:25:58Z</time>
      </trkpt>
      <trkpt lat="44.08282" lon="3.10674">
        <ele>762.1</ele>
        <time>2019-05-31T09:26:00Z</time>
      </trkpt>
      <trkpt lat="44.08279" lon="3.10676">
        <ele>763</ele>
        <time>2019-05-31T09:26:01Z</time>
      </trkpt>
      <trkpt lat="44.08275" lon="3.1068">
        <ele>764.3</ele>
        <time>2019-05-31T09:26:03Z</time>
      </trkpt>
      <trkpt lat="44.08273" lon="3.10684">
        <ele>765.3</ele>
        <time>2019-05-31T09:26:04Z</time>
      </trkpt>
      <trkpt lat="44.08271" lon="3.10689">
        <ele>766.3</ele>
        <time>2019-05-31T09:26:05Z</time>
      </trkpt>
      <trkpt lat="44.08269" lon="3.10693">
        <ele>766.8</ele>
        <time>2019-05-31T09:26:06Z</time>
      </trkpt>
      <trkpt lat="44.08267" lon="3.10696">
        <ele>766.9</ele>
        <time>2019-05-31T09:26:07Z</time>
      </trkpt>
      <trkpt lat="44.08265" lon="3.10699">
        <ele>767.1</ele>
        <time>2019-05-31T09:26:08Z</time>
      </trkpt>
      <trkpt lat="44.08263" lon="3.10702">
        <ele>767</ele>
        <time>2019-05-31T09:26:09Z</time>
      </trkpt>
      <trkpt lat="44.08261" lon="3.10705">
        <ele>766.8</ele>
        <time>2019-05-31T09:26:10Z</time>
      </trkpt>
      <trkpt lat="44.08258" lon="3.10711">
        <ele>766.4</ele>
        <time>2019-05-31T09:26:11Z</time>
      </trkpt>
      <trkpt lat="44.08257" lon="3.10716">
        <ele>765.9</ele>
        <time>2019-05-31T09:26:12Z</time>
      </trkpt>
      <trkpt lat="44.08254" lon="3.10722">
        <ele>765.5</ele>
        <time>2019-05-31T09:26:13Z</time>
      </trkpt>
      <trkpt lat="44.08252" lon="3.10727">
        <ele>765.1</ele>
        <time>2019-05-31T09:26:14Z</time>
      </trkpt>
      <trkpt lat="44.08248" lon="3.10732">
        <ele>764.8</ele>
        <time>2019-05-31T09:26:15Z</time>
      </trkpt>
      <trkpt lat="44.08245" lon="3.10735">
        <ele>764.6</ele>
        <time>2019-05-31T09:26:16Z</time>
      </trkpt>
      <trkpt lat="44.08242" lon="3.10738">
        <ele>764.4</ele>
        <time>2019-05-31T09:26:17Z</time>
      </trkpt>
      <trkpt lat="44.0824" lon="3.10741">
        <ele>764.4</ele>
        <time>2019-05-31T09:26:18Z</time>
      </trkpt>
      <trkpt lat="44.08237" lon="3.10745">
        <ele>764.3</ele>
        <time>2019-05-31T09:26:19Z</time>
      </trkpt>
      <trkpt lat="44.08235" lon="3.10748">
        <ele>764.2</ele>
        <time>2019-05-31T09:26:20Z</time>
      </trkpt>
      <trkpt lat="44.08233" lon="3.10751">
        <ele>764.2</ele>
        <time>2019-05-31T09:26:22Z</time>
      </trkpt>
      <trkpt lat="44.0823" lon="3.10756">
        <ele>764.2</ele>
        <time>2019-05-31T09:26:24Z</time>
      </trkpt>
      <trkpt lat="44.08227" lon="3.1076">
        <ele>764.2</ele>
        <time>2019-05-31T09:26:26Z</time>
      </trkpt>
      <trkpt lat="44.08225" lon="3.10763">
        <ele>764.2</ele>
        <time>2019-05-31T09:26:29Z</time>
      </trkpt>
      <trkpt lat="44.08223" lon="3.10768">
        <ele>764.3</ele>
        <time>2019-05-31T09:26:35Z</time>
      </trkpt>
      <trkpt lat="44.08221" lon="3.10771">
        <ele>764.3</ele>
        <time>2019-05-31T09:26:38Z</time>
      </trkpt>
      <trkpt lat="44.08221" lon="3.10775">
        <ele>764.3</ele>
        <time>2019-05-31T09:26:41Z</time>
      </trkpt>
      <trkpt lat="44.08219" lon="3.10777">
        <ele>764.3</ele>
        <time>2019-05-31T09:26:45Z</time>
      </trkpt>
      <trkpt lat="44.08216" lon="3.10779">
        <ele>764.4</ele>
        <time>2019-05-31T09:26:48Z</time>
      </trkpt>
      <trkpt lat="44.08213" lon="3.10781">
        <ele>764.4</ele>
        <time>2019-05-31T09:26:53Z</time>
      </trkpt>
      <trkpt lat="44.08207" lon="3.10784">
        <ele>764.4</ele>
        <time>2019-05-31T09:27:13Z</time>
      </trkpt>
      <trkpt lat="44.08204" lon="3.10787">
        <ele>764.4</ele>
        <time>2019-05-31T09:27:14Z</time>
      </trkpt>
      <trkpt lat="44.08201" lon="3.10788">
        <ele>764.4</ele>
        <time>2019-05-31T09:27:16Z</time>
      </trkpt>
      <trkpt lat="44.08198" lon="3.1079">
        <ele>764.4</ele>
        <time>2019-05-31T09:27:21Z</time>
      </trkpt>
      <trkpt lat="44.08195" lon="3.10791">
        <ele>764.4</ele>
        <time>2019-05-31T09:27:30Z</time>
      </trkpt>
      <trkpt lat="44.08192" lon="3.10792">
        <ele>764.4</ele>
        <time>2019-05-31T09:27:34Z</time>
      </trkpt>
      <trkpt lat="44.08189" lon="3.10793">
        <ele>764.4</ele>
        <time>2019-05-31T09:27:37Z</time>
      </trkpt>
      <trkpt lat="44.08186" lon="3.10793">
        <ele>764.4</ele>
        <time>2019-05-31T09:27:42Z</time>
      </trkpt>
      <trkpt lat="44.08184" lon="3.1079">
        <ele>764.4</ele>
        <time>2019-05-31T09:27:44Z</time>
      </trkpt>
      <trkpt lat="44.08181" lon="3.10789">
        <ele>764.4</ele>
        <time>2019-05-31T09:27:46Z</time>
      </trkpt>
      <trkpt lat="44.08178" lon="3.1079">
        <ele>764.4</ele>
        <time>2019-05-31T09:27:47Z</time>
      </trkpt>
      <trkpt lat="44.08173" lon="3.10793">
        <ele>764.4</ele>
        <time>2019-05-31T09:27:49Z</time>
      </trkpt>
      <trkpt lat="44.08168" lon="3.10795">
        <ele>764.4</ele>
        <time>2019-05-31T09:27:50Z</time>
      </trkpt>
      <trkpt lat="44.08164" lon="3.10797">
        <ele>764.3</ele>
        <time>2019-05-31T09:27:51Z</time>
      </trkpt>
      <trkpt lat="44.08158" lon="3.10802">
        <ele>764.2</ele>
        <time>2019-05-31T09:27:52Z</time>
      </trkpt>
      <trkpt lat="44.08153" lon="3.10803">
        <ele>764.2</ele>
        <time>2019-05-31T09:27:53Z</time>
      </trkpt>
      <trkpt lat="44.08149" lon="3.10807">
        <ele>764.1</ele>
        <time>2019-05-31T09:27:54Z</time>
      </trkpt>
      <trkpt lat="44.08143" lon="3.1081">
        <ele>764</ele>
        <time>2019-05-31T09:27:55Z</time>
      </trkpt>
      <trkpt lat="44.08137" lon="3.1081">
        <ele>763.9</ele>
        <time>2019-05-31T09:27:56Z</time>
      </trkpt>
      <trkpt lat="44.08132" lon="3.10811">
        <ele>763.9</ele>
        <time>2019-05-31T09:27:57Z</time>
      </trkpt>
      <trkpt lat="44.08127" lon="3.10813">
        <ele>763.8</ele>
        <time>2019-05-31T09:27:58Z</time>
      </trkpt>
      <trkpt lat="44.08124" lon="3.10818">
        <ele>763.8</ele>
        <time>2019-05-31T09:27:59Z</time>
      </trkpt>
      <trkpt lat="44.08123" lon="3.10823">
        <ele>763.8</ele>
        <time>2019-05-31T09:28:00Z</time>
      </trkpt>
      <trkpt lat="44.08123" lon="3.10828">
        <ele>763.8</ele>
        <time>2019-05-31T09:28:01Z</time>
      </trkpt>
      <trkpt lat="44.08121" lon="3.10833">
        <ele>763.3</ele>
        <time>2019-05-31T09:28:02Z</time>
      </trkpt>
      <trkpt lat="44.08119" lon="3.10837">
        <ele>763.2</ele>
        <time>2019-05-31T09:28:03Z</time>
      </trkpt>
      <trkpt lat="44.08117" lon="3.10841">
        <ele>763.1</ele>
        <time>2019-05-31T09:28:05Z</time>
      </trkpt>
      <trkpt lat="44.08116" lon="3.10845">
        <ele>763</ele>
        <time>2019-05-31T09:28:07Z</time>
      </trkpt>
      <trkpt lat="44.08115" lon="3.1085">
        <ele>762.8</ele>
        <time>2019-05-31T09:28:09Z</time>
      </trkpt>
      <trkpt lat="44.08112" lon="3.10855">
        <ele>762.7</ele>
        <time>2019-05-31T09:28:11Z</time>
      </trkpt>
      <trkpt lat="44.0811" lon="3.10858">
        <ele>762.7</ele>
        <time>2019-05-31T09:28:13Z</time>
      </trkpt>
      <trkpt lat="44.08108" lon="3.10861">
        <ele>762.6</ele>
        <time>2019-05-31T09:28:15Z</time>
      </trkpt>
      <trkpt lat="44.08107" lon="3.10865">
        <ele>762.5</ele>
        <time>2019-05-31T09:28:16Z</time>
      </trkpt>
      <trkpt lat="44.08106" lon="3.1087">
        <ele>762.5</ele>
        <time>2019-05-31T09:28:17Z</time>
      </trkpt>
      <trkpt lat="44.08106" lon="3.10875">
        <ele>762.4</ele>
        <time>2019-05-31T09:28:18Z</time>
      </trkpt>
      <trkpt lat="44.08106" lon="3.1088">
        <ele>762.3</ele>
        <time>2019-05-31T09:28:19Z</time>
      </trkpt>
      <trkpt lat="44.08106" lon="3.10885">
        <ele>762.3</ele>
        <time>2019-05-31T09:28:20Z</time>
      </trkpt>
      <trkpt lat="44.08107" lon="3.10891">
        <ele>762.2</ele>
        <time>2019-05-31T09:28:21Z</time>
      </trkpt>
      <trkpt lat="44.08107" lon="3.10898">
        <ele>762.1</ele>
        <time>2019-05-31T09:28:22Z</time>
      </trkpt>
      <trkpt lat="44.08107" lon="3.10904">
        <ele>762</ele>
        <time>2019-05-31T09:28:23Z</time>
      </trkpt>
      <trkpt lat="44.08106" lon="3.1091">
        <ele>761.9</ele>
        <time>2019-05-31T09:28:24Z</time>
      </trkpt>
      <trkpt lat="44.08104" lon="3.10916">
        <ele>761.8</ele>
        <time>2019-05-31T09:28:25Z</time>
      </trkpt>
      <trkpt lat="44.08102" lon="3.1092">
        <ele>761.8</ele>
        <time>2019-05-31T09:28:26Z</time>
      </trkpt>
      <trkpt lat="44.081" lon="3.10923">
        <ele>761.8</ele>
        <time>2019-05-31T09:28:27Z</time>
      </trkpt>
      <trkpt lat="44.08098" lon="3.10926">
        <ele>761.7</ele>
        <time>2019-05-31T09:28:28Z</time>
      </trkpt>
      <trkpt lat="44.08096" lon="3.10928">
        <ele>761.6</ele>
        <time>2019-05-31T09:28:29Z</time>
      </trkpt>
      <trkpt lat="44.08092" lon="3.1093">
        <ele>761.6</ele>
        <time>2019-05-31T09:28:31Z</time>
      </trkpt>
      <trkpt lat="44.08087" lon="3.10931">
        <ele>761.5</ele>
        <time>2019-05-31T09:28:33Z</time>
      </trkpt>
      <trkpt lat="44.08083" lon="3.10933">
        <ele>761.5</ele>
        <time>2019-05-31T09:28:35Z</time>
      </trkpt>
      <trkpt lat="44.0808" lon="3.10938">
        <ele>761.5</ele>
        <time>2019-05-31T09:28:37Z</time>
      </trkpt>
      <trkpt lat="44.08078" lon="3.10942">
        <ele>761.5</ele>
        <time>2019-05-31T09:28:39Z</time>
      </trkpt>
      <trkpt lat="44.08076" lon="3.10945">
        <ele>761.3</ele>
        <time>2019-05-31T09:28:41Z</time>
      </trkpt>
      <trkpt lat="44.08073" lon="3.10944">
        <ele>761.3</ele>
        <time>2019-05-31T09:28:50Z</time>
      </trkpt>
      <trkpt lat="44.08069" lon="3.10947">
        <ele>761.3</ele>
        <time>2019-05-31T09:28:52Z</time>
      </trkpt>
      <trkpt lat="44.08067" lon="3.10951">
        <ele>761.2</ele>
        <time>2019-05-31T09:28:53Z</time>
      </trkpt>
      <trkpt lat="44.08066" lon="3.10955">
        <ele>761.1</ele>
        <time>2019-05-31T09:28:54Z</time>
      </trkpt>
      <trkpt lat="44.08066" lon="3.1096">
        <ele>761</ele>
        <time>2019-05-31T09:28:55Z</time>
      </trkpt>
      <trkpt lat="44.08065" lon="3.10966">
        <ele>761</ele>
        <time>2019-05-31T09:28:56Z</time>
      </trkpt>
      <trkpt lat="44.08067" lon="3.10983">
        <ele>760.7</ele>
        <time>2019-05-31T09:28:57Z</time>
      </trkpt>
      <trkpt lat="44.08065" lon="3.10987">
        <ele>760.7</ele>
        <time>2019-05-31T09:28:58Z</time>
      </trkpt>
      <trkpt lat="44.08065" lon="3.10994">
        <ele>760.6</ele>
        <time>2019-05-31T09:28:59Z</time>
      </trkpt>
      <trkpt lat="44.08065" lon="3.11">
        <ele>760.5</ele>
        <time>2019-05-31T09:29:00Z</time>
      </trkpt>
      <trkpt lat="44.08064" lon="3.11005">
        <ele>760.4</ele>
        <time>2019-05-31T09:29:01Z</time>
      </trkpt>
      <trkpt lat="44.08063" lon="3.1101">
        <ele>760.3</ele>
        <time>2019-05-31T09:29:03Z</time>
      </trkpt>
      <trkpt lat="44.08064" lon="3.11014">
        <ele>760.2</ele>
        <time>2019-05-31T09:29:04Z</time>
      </trkpt>
      <trkpt lat="44.08065" lon="3.11021">
        <ele>760</ele>
        <time>2019-05-31T09:29:05Z</time>
      </trkpt>
      <trkpt lat="44.08064" lon="3.11027">
        <ele>759.8</ele>
        <time>2019-05-31T09:29:06Z</time>
      </trkpt>
      <trkpt lat="44.08064" lon="3.11037">
        <ele>759.6</ele>
        <time>2019-05-31T09:29:07Z</time>
      </trkpt>
      <trkpt lat="44.08063" lon="3.11042">
        <ele>759.6</ele>
        <time>2019-05-31T09:29:08Z</time>
      </trkpt>
      <trkpt lat="44.08062" lon="3.11046">
        <ele>759.4</ele>
        <time>2019-05-31T09:29:09Z</time>
      </trkpt>
      <trkpt lat="44.0806" lon="3.11052">
        <ele>759.3</ele>
        <time>2019-05-31T09:29:11Z</time>
      </trkpt>
      <trkpt lat="44.08059" lon="3.11056">
        <ele>759.2</ele>
        <time>2019-05-31T09:29:12Z</time>
      </trkpt>
      <trkpt lat="44.08059" lon="3.1106">
        <ele>759.1</ele>
        <time>2019-05-31T09:29:13Z</time>
      </trkpt>
      <trkpt lat="44.08059" lon="3.11065">
        <ele>759</ele>
        <time>2019-05-31T09:29:14Z</time>
      </trkpt>
      <trkpt lat="44.08058" lon="3.1107">
        <ele>758.9</ele>
        <time>2019-05-31T09:29:15Z</time>
      </trkpt>
      <trkpt lat="44.08058" lon="3.11075">
        <ele>758.7</ele>
        <time>2019-05-31T09:29:16Z</time>
      </trkpt>
      <trkpt lat="44.08058" lon="3.1108">
        <ele>758.7</ele>
        <time>2019-05-31T09:29:17Z</time>
      </trkpt>
      <trkpt lat="44.08058" lon="3.11085">
        <ele>758.6</ele>
        <time>2019-05-31T09:29:18Z</time>
      </trkpt>
      <trkpt lat="44.08058" lon="3.11091">
        <ele>758.5</ele>
        <time>2019-05-31T09:29:19Z</time>
      </trkpt>
      <trkpt lat="44.08059" lon="3.11098">
        <ele>758.4</ele>
        <time>2019-05-31T09:29:20Z</time>
      </trkpt>
      <trkpt lat="44.08059" lon="3.11103">
        <ele>758.3</ele>
        <time>2019-05-31T09:29:21Z</time>
      </trkpt>
      <trkpt lat="44.0806" lon="3.11108">
        <ele>758.2</ele>
        <time>2019-05-31T09:29:22Z</time>
      </trkpt>
      <trkpt lat="44.08061" lon="3.11112">
        <ele>758.1</ele>
        <time>2019-05-31T09:29:23Z</time>
      </trkpt>
      <trkpt lat="44.08061" lon="3.11117">
        <ele>758.1</ele>
        <time>2019-05-31T09:29:24Z</time>
      </trkpt>
      <trkpt lat="44.0806" lon="3.11121">
        <ele>758</ele>
        <time>2019-05-31T09:29:25Z</time>
      </trkpt>
      <trkpt lat="44.08057" lon="3.11129">
        <ele>757.9</ele>
        <time>2019-05-31T09:29:27Z</time>
      </trkpt>
      <trkpt lat="44.08056" lon="3.11134">
        <ele>757.8</ele>
        <time>2019-05-31T09:29:28Z</time>
      </trkpt>
      <trkpt lat="44.08055" lon="3.1114">
        <ele>757.7</ele>
        <time>2019-05-31T09:29:29Z</time>
      </trkpt>
      <trkpt lat="44.08054" lon="3.11146">
        <ele>757.7</ele>
        <time>2019-05-31T09:29:30Z</time>
      </trkpt>
      <trkpt lat="44.08053" lon="3.11152">
        <ele>757.6</ele>
        <time>2019-05-31T09:29:31Z</time>
      </trkpt>
      <trkpt lat="44.08051" lon="3.11157">
        <ele>757.5</ele>
        <time>2019-05-31T09:29:32Z</time>
      </trkpt>
      <trkpt lat="44.08049" lon="3.11161">
        <ele>757.5</ele>
        <time>2019-05-31T09:29:33Z</time>
      </trkpt>
      <trkpt lat="44.08046" lon="3.11166">
        <ele>757.4</ele>
        <time>2019-05-31T09:29:34Z</time>
      </trkpt>
      <trkpt lat="44.08043" lon="3.11171">
        <ele>757.3</ele>
        <time>2019-05-31T09:29:35Z</time>
      </trkpt>
      <trkpt lat="44.08041" lon="3.11178">
        <ele>757.1</ele>
        <time>2019-05-31T09:29:36Z</time>
      </trkpt>
      <trkpt lat="44.08036" lon="3.11193">
        <ele>756.9</ele>
        <time>2019-05-31T09:29:37Z</time>
      </trkpt>
      <trkpt lat="44.08036" lon="3.11199">
        <ele>756.9</ele>
        <time>2019-05-31T09:29:38Z</time>
      </trkpt>
      <trkpt lat="44.08035" lon="3.11204">
        <ele>756.8</ele>
        <time>2019-05-31T09:29:39Z</time>
      </trkpt>
      <trkpt lat="44.08033" lon="3.11207">
        <ele>756.7</ele>
        <time>2019-05-31T09:29:40Z</time>
      </trkpt>
      <trkpt lat="44.0803" lon="3.11212">
        <ele>756.6</ele>
        <time>2019-05-31T09:29:41Z</time>
      </trkpt>
      <trkpt lat="44.08028" lon="3.11216">
        <ele>756.5</ele>
        <time>2019-05-31T09:29:42Z</time>
      </trkpt>
      <trkpt lat="44.08028" lon="3.11222">
        <ele>756.5</ele>
        <time>2019-05-31T09:29:43Z</time>
      </trkpt>
      <trkpt lat="44.08028" lon="3.11226">
        <ele>756.4</ele>
        <time>2019-05-31T09:29:44Z</time>
      </trkpt>
      <trkpt lat="44.08023" lon="3.11229">
        <ele>756.4</ele>
        <time>2019-05-31T09:29:45Z</time>
      </trkpt>
      <trkpt lat="44.08024" lon="3.11238">
        <ele>756.3</ele>
        <time>2019-05-31T09:29:46Z</time>
      </trkpt>
      <trkpt lat="44.08021" lon="3.11242">
        <ele>756.3</ele>
        <time>2019-05-31T09:29:47Z</time>
      </trkpt>
      <trkpt lat="44.08018" lon="3.11247">
        <ele>756.3</ele>
        <time>2019-05-31T09:29:48Z</time>
      </trkpt>
      <trkpt lat="44.08016" lon="3.11252">
        <ele>756.3</ele>
        <time>2019-05-31T09:29:49Z</time>
      </trkpt>
      <trkpt lat="44.08013" lon="3.11254">
        <ele>756.2</ele>
        <time>2019-05-31T09:29:50Z</time>
      </trkpt>
      <trkpt lat="44.08011" lon="3.1126">
        <ele>756.2</ele>
        <time>2019-05-31T09:29:51Z</time>
      </trkpt>
      <trkpt lat="44.08007" lon="3.11269">
        <ele>756.2</ele>
        <time>2019-05-31T09:29:52Z</time>
      </trkpt>
      <trkpt lat="44.08002" lon="3.11272">
        <ele>756.1</ele>
        <time>2019-05-31T09:29:53Z</time>
      </trkpt>
      <trkpt lat="44.08" lon="3.11276">
        <ele>756.1</ele>
        <time>2019-05-31T09:29:54Z</time>
      </trkpt>
      <trkpt lat="44.07997" lon="3.11279">
        <ele>756.1</ele>
        <time>2019-05-31T09:29:55Z</time>
      </trkpt>
      <trkpt lat="44.07993" lon="3.11284">
        <ele>756</ele>
        <time>2019-05-31T09:29:56Z</time>
      </trkpt>
      <trkpt lat="44.07989" lon="3.11289">
        <ele>756</ele>
        <time>2019-05-31T09:29:57Z</time>
      </trkpt>
      <trkpt lat="44.07987" lon="3.11305">
        <ele>755.8</ele>
        <time>2019-05-31T09:29:58Z</time>
      </trkpt>
      <trkpt lat="44.07984" lon="3.1131">
        <ele>755.7</ele>
        <time>2019-05-31T09:29:59Z</time>
      </trkpt>
      <trkpt lat="44.07979" lon="3.11316">
        <ele>755.6</ele>
        <time>2019-05-31T09:30:00Z</time>
      </trkpt>
      <trkpt lat="44.07973" lon="3.11322">
        <ele>755.4</ele>
        <time>2019-05-31T09:30:01Z</time>
      </trkpt>
      <trkpt lat="44.07967" lon="3.11325">
        <ele>755.2</ele>
        <time>2019-05-31T09:30:02Z</time>
      </trkpt>
      <trkpt lat="44.0796" lon="3.11329">
        <ele>755.1</ele>
        <time>2019-05-31T09:30:03Z</time>
      </trkpt>
      <trkpt lat="44.07956" lon="3.11333">
        <ele>754.9</ele>
        <time>2019-05-31T09:30:04Z</time>
      </trkpt>
      <trkpt lat="44.07953" lon="3.11338">
        <ele>754.8</ele>
        <time>2019-05-31T09:30:05Z</time>
      </trkpt>
      <trkpt lat="44.0795" lon="3.11341">
        <ele>754.7</ele>
        <time>2019-05-31T09:30:06Z</time>
      </trkpt>
      <trkpt lat="44.07946" lon="3.11346">
        <ele>754.7</ele>
        <time>2019-05-31T09:30:07Z</time>
      </trkpt>
      <trkpt lat="44.07944" lon="3.1135">
        <ele>754.6</ele>
        <time>2019-05-31T09:30:08Z</time>
      </trkpt>
      <trkpt lat="44.07943" lon="3.11356">
        <ele>754.6</ele>
        <time>2019-05-31T09:30:09Z</time>
      </trkpt>
      <trkpt lat="44.07942" lon="3.11361">
        <ele>754.5</ele>
        <time>2019-05-31T09:30:10Z</time>
      </trkpt>
      <trkpt lat="44.0794" lon="3.11366">
        <ele>754.5</ele>
        <time>2019-05-31T09:30:11Z</time>
      </trkpt>
      <trkpt lat="44.07938" lon="3.11373">
        <ele>754.5</ele>
        <time>2019-05-31T09:30:12Z</time>
      </trkpt>
      <trkpt lat="44.07936" lon="3.11381">
        <ele>754.5</ele>
        <time>2019-05-31T09:30:13Z</time>
      </trkpt>
      <trkpt lat="44.07934" lon="3.11386">
        <ele>754.5</ele>
        <time>2019-05-31T09:30:14Z</time>
      </trkpt>
      <trkpt lat="44.07932" lon="3.11393">
        <ele>754.5</ele>
        <time>2019-05-31T09:30:15Z</time>
      </trkpt>
      <trkpt lat="44.07931" lon="3.11402">
        <ele>754.6</ele>
        <time>2019-05-31T09:30:16Z</time>
      </trkpt>
      <trkpt lat="44.07932" lon="3.11408">
        <ele>754.6</ele>
        <time>2019-05-31T09:30:17Z</time>
      </trkpt>
      <trkpt lat="44.07927" lon="3.11413">
        <ele>754.6</ele>
        <time>2019-05-31T09:30:18Z</time>
      </trkpt>
      <trkpt lat="44.07926" lon="3.11417">
        <ele>754.6</ele>
        <time>2019-05-31T09:30:19Z</time>
      </trkpt>
      <trkpt lat="44.07926" lon="3.11422">
        <ele>754.6</ele>
        <time>2019-05-31T09:30:20Z</time>
      </trkpt>
      <trkpt lat="44.07925" lon="3.11425">
        <ele>754.6</ele>
        <time>2019-05-31T09:30:21Z</time>
      </trkpt>
      <trkpt lat="44.07925" lon="3.11432">
        <ele>754.7</ele>
        <time>2019-05-31T09:30:22Z</time>
      </trkpt>
      <trkpt lat="44.07925" lon="3.11436">
        <ele>754.7</ele>
        <time>2019-05-31T09:30:23Z</time>
      </trkpt>
      <trkpt lat="44.07924" lon="3.1144">
        <ele>754.7</ele>
        <time>2019-05-31T09:30:24Z</time>
      </trkpt>
      <trkpt lat="44.07924" lon="3.11445">
        <ele>754.6</ele>
        <time>2019-05-31T09:30:25Z</time>
      </trkpt>
      <trkpt lat="44.07923" lon="3.1145">
        <ele>754.6</ele>
        <time>2019-05-31T09:30:26Z</time>
      </trkpt>
      <trkpt lat="44.07922" lon="3.11455">
        <ele>754.6</ele>
        <time>2019-05-31T09:30:27Z</time>
      </trkpt>
      <trkpt lat="44.0792" lon="3.11459">
        <ele>754.6</ele>
        <time>2019-05-31T09:30:28Z</time>
      </trkpt>
      <trkpt lat="44.07918" lon="3.11463">
        <ele>754.5</ele>
        <time>2019-05-31T09:30:29Z</time>
      </trkpt>
      <trkpt lat="44.07916" lon="3.11467">
        <ele>754.5</ele>
        <time>2019-05-31T09:30:30Z</time>
      </trkpt>
      <trkpt lat="44.07915" lon="3.1147">
        <ele>754.5</ele>
        <time>2019-05-31T09:30:31Z</time>
      </trkpt>
      <trkpt lat="44.07912" lon="3.11474">
        <ele>754.5</ele>
        <time>2019-05-31T09:30:33Z</time>
      </trkpt>
      <trkpt lat="44.07911" lon="3.11477">
        <ele>754.5</ele>
        <time>2019-05-31T09:30:35Z</time>
      </trkpt>
      <trkpt lat="44.07912" lon="3.11481">
        <ele>754.4</ele>
        <time>2019-05-31T09:30:38Z</time>
      </trkpt>
      <trkpt lat="44.07913" lon="3.11484">
        <ele>754.4</ele>
        <time>2019-05-31T09:31:13Z</time>
      </trkpt>
      <trkpt lat="44.07915" lon="3.11488">
        <ele>754.4</ele>
        <time>2019-05-31T09:31:15Z</time>
      </trkpt>
      <trkpt lat="44.07918" lon="3.11494">
        <ele>754.3</ele>
        <time>2019-05-31T09:31:17Z</time>
      </trkpt>
      <trkpt lat="44.07919" lon="3.11498">
        <ele>754.3</ele>
        <time>2019-05-31T09:31:18Z</time>
      </trkpt>
      <trkpt lat="44.0792" lon="3.11501">
        <ele>754.3</ele>
        <time>2019-05-31T09:31:19Z</time>
      </trkpt>
      <trkpt lat="44.07922" lon="3.11505">
        <ele>754.3</ele>
        <time>2019-05-31T09:31:20Z</time>
      </trkpt>
      <trkpt lat="44.07923" lon="3.11508">
        <ele>754.2</ele>
        <time>2019-05-31T09:31:21Z</time>
      </trkpt>
      <trkpt lat="44.07925" lon="3.11512">
        <ele>754.2</ele>
        <time>2019-05-31T09:31:22Z</time>
      </trkpt>
      <trkpt lat="44.07926" lon="3.11516">
        <ele>754.2</ele>
        <time>2019-05-31T09:31:23Z</time>
      </trkpt>
      <trkpt lat="44.07928" lon="3.1152">
        <ele>754.2</ele>
        <time>2019-05-31T09:31:24Z</time>
      </trkpt>
      <trkpt lat="44.07929" lon="3.11525">
        <ele>754.1</ele>
        <time>2019-05-31T09:31:25Z</time>
      </trkpt>
      <trkpt lat="44.0793" lon="3.11531">
        <ele>754</ele>
        <time>2019-05-31T09:31:26Z</time>
      </trkpt>
      <trkpt lat="44.07931" lon="3.11538">
        <ele>753.9</ele>
        <time>2019-05-31T09:31:27Z</time>
      </trkpt>
      <trkpt lat="44.07929" lon="3.11547">
        <ele>753.7</ele>
        <time>2019-05-31T09:31:28Z</time>
      </trkpt>
      <trkpt lat="44.0793" lon="3.11553">
        <ele>753.6</ele>
        <time>2019-05-31T09:31:29Z</time>
      </trkpt>
      <trkpt lat="44.07931" lon="3.11559">
        <ele>753.5</ele>
        <time>2019-05-31T09:31:30Z</time>
      </trkpt>
      <trkpt lat="44.07932" lon="3.11567">
        <ele>753.3</ele>
        <time>2019-05-31T09:31:31Z</time>
      </trkpt>
      <trkpt lat="44.07933" lon="3.11574">
        <ele>753.1</ele>
        <time>2019-05-31T09:31:32Z</time>
      </trkpt>
      <trkpt lat="44.07934" lon="3.11581">
        <ele>752.9</ele>
        <time>2019-05-31T09:31:33Z</time>
      </trkpt>
      <trkpt lat="44.07937" lon="3.11589">
        <ele>752.6</ele>
        <time>2019-05-31T09:31:34Z</time>
      </trkpt>
      <trkpt lat="44.07939" lon="3.11597">
        <ele>752.4</ele>
        <time>2019-05-31T09:31:35Z</time>
      </trkpt>
      <trkpt lat="44.07941" lon="3.11605">
        <ele>752.2</ele>
        <time>2019-05-31T09:31:36Z</time>
      </trkpt>
      <trkpt lat="44.07943" lon="3.11614">
        <ele>752</ele>
        <time>2019-05-31T09:31:37Z</time>
      </trkpt>
      <trkpt lat="44.07947" lon="3.11623">
        <ele>751.9</ele>
        <time>2019-05-31T09:31:38Z</time>
      </trkpt>
      <trkpt lat="44.07951" lon="3.11633">
        <ele>751.7</ele>
        <time>2019-05-31T09:31:39Z</time>
      </trkpt>
      <trkpt lat="44.07953" lon="3.11643">
        <ele>751.6</ele>
        <time>2019-05-31T09:31:40Z</time>
      </trkpt>
      <trkpt lat="44.07954" lon="3.11651">
        <ele>751.5</ele>
        <time>2019-05-31T09:31:41Z</time>
      </trkpt>
      <trkpt lat="44.07956" lon="3.1166">
        <ele>751.3</ele>
        <time>2019-05-31T09:31:42Z</time>
      </trkpt>
      <trkpt lat="44.07958" lon="3.11671">
        <ele>751.2</ele>
        <time>2019-05-31T09:31:43Z</time>
      </trkpt>
      <trkpt lat="44.07959" lon="3.11679">
        <ele>751.1</ele>
        <time>2019-05-31T09:31:44Z</time>
      </trkpt>
      <trkpt lat="44.0796" lon="3.1169">
        <ele>751</ele>
        <time>2019-05-31T09:31:45Z</time>
      </trkpt>
      <trkpt lat="44.07962" lon="3.117">
        <ele>750.9</ele>
        <time>2019-05-31T09:31:46Z</time>
      </trkpt>
      <trkpt lat="44.07964" lon="3.11709">
        <ele>750.7</ele>
        <time>2019-05-31T09:31:47Z</time>
      </trkpt>
      <trkpt lat="44.07964" lon="3.11717">
        <ele>750.6</ele>
        <time>2019-05-31T09:31:48Z</time>
      </trkpt>
      <trkpt lat="44.07965" lon="3.11727">
        <ele>750.5</ele>
        <time>2019-05-31T09:31:49Z</time>
      </trkpt>
      <trkpt lat="44.07966" lon="3.11735">
        <ele>750.4</ele>
        <time>2019-05-31T09:31:50Z</time>
      </trkpt>
      <trkpt lat="44.07966" lon="3.11743">
        <ele>750.3</ele>
        <time>2019-05-31T09:31:51Z</time>
      </trkpt>
      <trkpt lat="44.07967" lon="3.11751">
        <ele>750.2</ele>
        <time>2019-05-31T09:31:52Z</time>
      </trkpt>
      <trkpt lat="44.0797" lon="3.1176">
        <ele>750.1</ele>
        <time>2019-05-31T09:31:53Z</time>
      </trkpt>
      <trkpt lat="44.07972" lon="3.11768">
        <ele>750.1</ele>
        <time>2019-05-31T09:31:54Z</time>
      </trkpt>
      <trkpt lat="44.07975" lon="3.11776">
        <ele>750</ele>
        <time>2019-05-31T09:31:55Z</time>
      </trkpt>
      <trkpt lat="44.07976" lon="3.11784">
        <ele>749.9</ele>
        <time>2019-05-31T09:31:56Z</time>
      </trkpt>
      <trkpt lat="44.07977" lon="3.11793">
        <ele>749.8</ele>
        <time>2019-05-31T09:31:57Z</time>
      </trkpt>
      <trkpt lat="44.07979" lon="3.11802">
        <ele>749.8</ele>
        <time>2019-05-31T09:31:58Z</time>
      </trkpt>
      <trkpt lat="44.07979" lon="3.11811">
        <ele>749.7</ele>
        <time>2019-05-31T09:31:59Z</time>
      </trkpt>
      <trkpt lat="44.07981" lon="3.11819">
        <ele>749.7</ele>
        <time>2019-05-31T09:32:00Z</time>
      </trkpt>
      <trkpt lat="44.07981" lon="3.11826">
        <ele>749.7</ele>
        <time>2019-05-31T09:32:01Z</time>
      </trkpt>
      <trkpt lat="44.07982" lon="3.11835">
        <ele>749.6</ele>
        <time>2019-05-31T09:32:02Z</time>
      </trkpt>
      <trkpt lat="44.07983" lon="3.11843">
        <ele>749.6</ele>
        <time>2019-05-31T09:32:03Z</time>
      </trkpt>
      <trkpt lat="44.07985" lon="3.1185">
        <ele>749.6</ele>
        <time>2019-05-31T09:32:04Z</time>
      </trkpt>
      <trkpt lat="44.07986" lon="3.11859">
        <ele>749.5</ele>
        <time>2019-05-31T09:32:05Z</time>
      </trkpt>
      <trkpt lat="44.07986" lon="3.11867">
        <ele>749.5</ele>
        <time>2019-05-31T09:32:06Z</time>
      </trkpt>
      <trkpt lat="44.07987" lon="3.11875">
        <ele>749.4</ele>
        <time>2019-05-31T09:32:07Z</time>
      </trkpt>
      <trkpt lat="44.07989" lon="3.11883">
        <ele>749.4</ele>
        <time>2019-05-31T09:32:08Z</time>
      </trkpt>
      <trkpt lat="44.07991" lon="3.1189">
        <ele>749.3</ele>
        <time>2019-05-31T09:32:09Z</time>
      </trkpt>
      <trkpt lat="44.07994" lon="3.119">
        <ele>749.2</ele>
        <time>2019-05-31T09:32:10Z</time>
      </trkpt>
      <trkpt lat="44.07996" lon="3.11907">
        <ele>749.2</ele>
        <time>2019-05-31T09:32:11Z</time>
      </trkpt>
      <trkpt lat="44.07998" lon="3.11916">
        <ele>749.1</ele>
        <time>2019-05-31T09:32:12Z</time>
      </trkpt>
      <trkpt lat="44.07998" lon="3.11922">
        <ele>749</ele>
        <time>2019-05-31T09:32:13Z</time>
      </trkpt>
      <trkpt lat="44.07998" lon="3.11929">
        <ele>749</ele>
        <time>2019-05-31T09:32:14Z</time>
      </trkpt>
      <trkpt lat="44.08" lon="3.11937">
        <ele>749</ele>
        <time>2019-05-31T09:32:15Z</time>
      </trkpt>
      <trkpt lat="44.08" lon="3.11945">
        <ele>748.9</ele>
        <time>2019-05-31T09:32:16Z</time>
      </trkpt>
      <trkpt lat="44.08" lon="3.11954">
        <ele>748.9</ele>
        <time>2019-05-31T09:32:17Z</time>
      </trkpt>
      <trkpt lat="44.08001" lon="3.11962">
        <ele>748.9</ele>
        <time>2019-05-31T09:32:18Z</time>
      </trkpt>
      <trkpt lat="44.08002" lon="3.11969">
        <ele>748.9</ele>
        <time>2019-05-31T09:32:19Z</time>
      </trkpt>
      <trkpt lat="44.08003" lon="3.11977">
        <ele>748.8</ele>
        <time>2019-05-31T09:32:20Z</time>
      </trkpt>
      <trkpt lat="44.08003" lon="3.11983">
        <ele>748.8</ele>
        <time>2019-05-31T09:32:21Z</time>
      </trkpt>
      <trkpt lat="44.08003" lon="3.11992">
        <ele>748.8</ele>
        <time>2019-05-31T09:32:22Z</time>
      </trkpt>
      <trkpt lat="44.08003" lon="3.11999">
        <ele>748.8</ele>
        <time>2019-05-31T09:32:23Z</time>
      </trkpt>
      <trkpt lat="44.08005" lon="3.12006">
        <ele>748.8</ele>
        <time>2019-05-31T09:32:24Z</time>
      </trkpt>
      <trkpt lat="44.08005" lon="3.12014">
        <ele>748.8</ele>
        <time>2019-05-31T09:32:25Z</time>
      </trkpt>
      <trkpt lat="44.08006" lon="3.12021">
        <ele>748.8</ele>
        <time>2019-05-31T09:32:26Z</time>
      </trkpt>
      <trkpt lat="44.08006" lon="3.12029">
        <ele>748.7</ele>
        <time>2019-05-31T09:32:27Z</time>
      </trkpt>
      <trkpt lat="44.08008" lon="3.12037">
        <ele>748.7</ele>
        <time>2019-05-31T09:32:28Z</time>
      </trkpt>
      <trkpt lat="44.0801" lon="3.12045">
        <ele>748.7</ele>
        <time>2019-05-31T09:32:29Z</time>
      </trkpt>
      <trkpt lat="44.08011" lon="3.12053">
        <ele>748.7</ele>
        <time>2019-05-31T09:32:30Z</time>
      </trkpt>
      <trkpt lat="44.08012" lon="3.1206">
        <ele>748.7</ele>
        <time>2019-05-31T09:32:31Z</time>
      </trkpt>
      <trkpt lat="44.08013" lon="3.12067">
        <ele>748.7</ele>
        <time>2019-05-31T09:32:32Z</time>
      </trkpt>
      <trkpt lat="44.08013" lon="3.12072">
        <ele>748.8</ele>
        <time>2019-05-31T09:32:33Z</time>
      </trkpt>
      <trkpt lat="44.08016" lon="3.1208">
        <ele>748.8</ele>
        <time>2019-05-31T09:32:34Z</time>
      </trkpt>
      <trkpt lat="44.08017" lon="3.12088">
        <ele>748.8</ele>
        <time>2019-05-31T09:32:35Z</time>
      </trkpt>
      <trkpt lat="44.08017" lon="3.12094">
        <ele>748.9</ele>
        <time>2019-05-31T09:32:36Z</time>
      </trkpt>
      <trkpt lat="44.08019" lon="3.12101">
        <ele>749</ele>
        <time>2019-05-31T09:32:37Z</time>
      </trkpt>
      <trkpt lat="44.08022" lon="3.1211">
        <ele>749</ele>
        <time>2019-05-31T09:32:38Z</time>
      </trkpt>
      <trkpt lat="44.08022" lon="3.12117">
        <ele>749.1</ele>
        <time>2019-05-31T09:32:39Z</time>
      </trkpt>
      <trkpt lat="44.08023" lon="3.12125">
        <ele>749</ele>
        <time>2019-05-31T09:32:40Z</time>
      </trkpt>
      <trkpt lat="44.08023" lon="3.12131">
        <ele>748.9</ele>
        <time>2019-05-31T09:32:41Z</time>
      </trkpt>
      <trkpt lat="44.08025" lon="3.12137">
        <ele>748.8</ele>
        <time>2019-05-31T09:32:42Z</time>
      </trkpt>
      <trkpt lat="44.08027" lon="3.12142">
        <ele>748.6</ele>
        <time>2019-05-31T09:32:43Z</time>
      </trkpt>
      <trkpt lat="44.08026" lon="3.12148">
        <ele>748.5</ele>
        <time>2019-05-31T09:32:45Z</time>
      </trkpt>
      <trkpt lat="44.08025" lon="3.12153">
        <ele>748.4</ele>
        <time>2019-05-31T09:32:47Z</time>
      </trkpt>
      <trkpt lat="44.08029" lon="3.12155">
        <ele>748.3</ele>
        <time>2019-05-31T09:32:50Z</time>
      </trkpt>
      <trkpt lat="44.08029" lon="3.1215">
        <ele>748.2</ele>
        <time>2019-05-31T09:32:53Z</time>
      </trkpt>
      <trkpt lat="44.08027" lon="3.12148">
        <ele>748.2</ele>
        <time>2019-05-31T09:32:56Z</time>
      </trkpt>
      <trkpt lat="44.08024" lon="3.12147">
        <ele>748.1</ele>
        <time>2019-05-31T09:32:59Z</time>
      </trkpt>
      <trkpt lat="44.08023" lon="3.12151">
        <ele>748</ele>
        <time>2019-05-31T09:33:03Z</time>
      </trkpt>
      <trkpt lat="44.08023" lon="3.12155">
        <ele>748</ele>
        <time>2019-05-31T09:33:36Z</time>
      </trkpt>
      <trkpt lat="44.08025" lon="3.12159">
        <ele>747.9</ele>
        <time>2019-05-31T09:33:38Z</time>
      </trkpt>
      <trkpt lat="44.08026" lon="3.12165">
        <ele>747.8</ele>
        <time>2019-05-31T09:33:40Z</time>
      </trkpt>
      <trkpt lat="44.08027" lon="3.12169">
        <ele>747.7</ele>
        <time>2019-05-31T09:33:41Z</time>
      </trkpt>
      <trkpt lat="44.08027" lon="3.12174">
        <ele>747.7</ele>
        <time>2019-05-31T09:33:42Z</time>
      </trkpt>
      <trkpt lat="44.08027" lon="3.1218">
        <ele>747.6</ele>
        <time>2019-05-31T09:33:43Z</time>
      </trkpt>
      <trkpt lat="44.08028" lon="3.12188">
        <ele>747.5</ele>
        <time>2019-05-31T09:33:44Z</time>
      </trkpt>
      <trkpt lat="44.08029" lon="3.12196">
        <ele>747.4</ele>
        <time>2019-05-31T09:33:45Z</time>
      </trkpt>
      <trkpt lat="44.0803" lon="3.12204">
        <ele>747.2</ele>
        <time>2019-05-31T09:33:46Z</time>
      </trkpt>
      <trkpt lat="44.08032" lon="3.12212">
        <ele>747.1</ele>
        <time>2019-05-31T09:33:47Z</time>
      </trkpt>
      <trkpt lat="44.08033" lon="3.12222">
        <ele>746.8</ele>
        <time>2019-05-31T09:33:48Z</time>
      </trkpt>
      <trkpt lat="44.08035" lon="3.12231">
        <ele>746.6</ele>
        <time>2019-05-31T09:33:49Z</time>
      </trkpt>
      <trkpt lat="44.08038" lon="3.12241">
        <ele>746.3</ele>
        <time>2019-05-31T09:33:50Z</time>
      </trkpt>
      <trkpt lat="44.08041" lon="3.12251">
        <ele>746.1</ele>
        <time>2019-05-31T09:33:51Z</time>
      </trkpt>
      <trkpt lat="44.08044" lon="3.1226">
        <ele>745.5</ele>
        <time>2019-05-31T09:33:52Z</time>
      </trkpt>
      <trkpt lat="44.08045" lon="3.1227">
        <ele>745.5</ele>
        <time>2019-05-31T09:33:53Z</time>
      </trkpt>
      <trkpt lat="44.08042" lon="3.12277">
        <ele>745.3</ele>
        <time>2019-05-31T09:33:54Z</time>
      </trkpt>
      <trkpt lat="44.08039" lon="3.12284">
        <ele>745.1</ele>
        <time>2019-05-31T09:33:55Z</time>
      </trkpt>
      <trkpt lat="44.08036" lon="3.12291">
        <ele>744.8</ele>
        <time>2019-05-31T09:33:56Z</time>
      </trkpt>
      <trkpt lat="44.08033" lon="3.12299">
        <ele>744.6</ele>
        <time>2019-05-31T09:33:57Z</time>
      </trkpt>
      <trkpt lat="44.0803" lon="3.12307">
        <ele>744.4</ele>
        <time>2019-05-31T09:33:58Z</time>
      </trkpt>
      <trkpt lat="44.08018" lon="3.12302">
        <ele>744.1</ele>
        <time>2019-05-31T09:33:59Z</time>
      </trkpt>
      <trkpt lat="44.08011" lon="3.12302">
        <ele>743.9</ele>
        <time>2019-05-31T09:34:00Z</time>
      </trkpt>
      <trkpt lat="44.08005" lon="3.12302">
        <ele>743.6</ele>
        <time>2019-05-31T09:34:01Z</time>
      </trkpt>
      <trkpt lat="44.08001" lon="3.12303">
        <ele>743.4</ele>
        <time>2019-05-31T09:34:02Z</time>
      </trkpt>
      <trkpt lat="44.07997" lon="3.12303">
        <ele>743.2</ele>
        <time>2019-05-31T09:34:03Z</time>
      </trkpt>
      <trkpt lat="44.07992" lon="3.12302">
        <ele>742.9</ele>
        <time>2019-05-31T09:34:04Z</time>
      </trkpt>
      <trkpt lat="44.07987" lon="3.12301">
        <ele>742.7</ele>
        <time>2019-05-31T09:34:05Z</time>
      </trkpt>
      <trkpt lat="44.07984" lon="3.12302">
        <ele>742.5</ele>
        <time>2019-05-31T09:34:06Z</time>
      </trkpt>
      <trkpt lat="44.07981" lon="3.12302">
        <ele>742.4</ele>
        <time>2019-05-31T09:34:07Z</time>
      </trkpt>
      <trkpt lat="44.07978" lon="3.12303">
        <ele>742.2</ele>
        <time>2019-05-31T09:34:08Z</time>
      </trkpt>
      <trkpt lat="44.07974" lon="3.12305">
        <ele>742</ele>
        <time>2019-05-31T09:34:10Z</time>
      </trkpt>
      <trkpt lat="44.0797" lon="3.12306">
        <ele>741.8</ele>
        <time>2019-05-31T09:34:12Z</time>
      </trkpt>
      <trkpt lat="44.07967" lon="3.12307">
        <ele>741.6</ele>
        <time>2019-05-31T09:34:13Z</time>
      </trkpt>
      <trkpt lat="44.07962" lon="3.12309">
        <ele>741.4</ele>
        <time>2019-05-31T09:34:15Z</time>
      </trkpt>
      <trkpt lat="44.07959" lon="3.1231">
        <ele>741.2</ele>
        <time>2019-05-31T09:34:16Z</time>
      </trkpt>
      <trkpt lat="44.07957" lon="3.12311">
        <ele>741.1</ele>
        <time>2019-05-31T09:34:17Z</time>
      </trkpt>
      <trkpt lat="44.07954" lon="3.12312">
        <ele>740.9</ele>
        <time>2019-05-31T09:34:18Z</time>
      </trkpt>
      <trkpt lat="44.07951" lon="3.12312">
        <ele>740.7</ele>
        <time>2019-05-31T09:34:19Z</time>
      </trkpt>
      <trkpt lat="44.07947" lon="3.12313">
        <ele>740.4</ele>
        <time>2019-05-31T09:34:20Z</time>
      </trkpt>
      <trkpt lat="44.07944" lon="3.12314">
        <ele>740.2</ele>
        <time>2019-05-31T09:34:21Z</time>
      </trkpt>
      <trkpt lat="44.07941" lon="3.12314">
        <ele>740</ele>
        <time>2019-05-31T09:34:22Z</time>
      </trkpt>
      <trkpt lat="44.07937" lon="3.12314">
        <ele>739.7</ele>
        <time>2019-05-31T09:34:23Z</time>
      </trkpt>
      <trkpt lat="44.07933" lon="3.12315">
        <ele>739.4</ele>
        <time>2019-05-31T09:34:24Z</time>
      </trkpt>
      <trkpt lat="44.07929" lon="3.12315">
        <ele>739.1</ele>
        <time>2019-05-31T09:34:25Z</time>
      </trkpt>
      <trkpt lat="44.07925" lon="3.12316">
        <ele>739.2</ele>
        <time>2019-05-31T09:34:26Z</time>
      </trkpt>
      <trkpt lat="44.07921" lon="3.12317">
        <ele>739.3</ele>
        <time>2019-05-31T09:34:27Z</time>
      </trkpt>
      <trkpt lat="44.07918" lon="3.12319">
        <ele>739.4</ele>
        <time>2019-05-31T09:34:28Z</time>
      </trkpt>
      <trkpt lat="44.07915" lon="3.12322">
        <ele>739.4</ele>
        <time>2019-05-31T09:34:29Z</time>
      </trkpt>
      <trkpt lat="44.07912" lon="3.12325">
        <ele>739.5</ele>
        <time>2019-05-31T09:34:30Z</time>
      </trkpt>
      <trkpt lat="44.07908" lon="3.12328">
        <ele>739.6</ele>
        <time>2019-05-31T09:34:31Z</time>
      </trkpt>
      <trkpt lat="44.07904" lon="3.12332">
        <ele>739.7</ele>
        <time>2019-05-31T09:34:32Z</time>
      </trkpt>
      <trkpt lat="44.07899" lon="3.12335">
        <ele>739.8</ele>
        <time>2019-05-31T09:34:33Z</time>
      </trkpt>
      <trkpt lat="44.07895" lon="3.12339">
        <ele>739.9</ele>
        <time>2019-05-31T09:34:34Z</time>
      </trkpt>
      <trkpt lat="44.0789" lon="3.12341">
        <ele>740</ele>
        <time>2019-05-31T09:34:35Z</time>
      </trkpt>
      <trkpt lat="44.07887" lon="3.12344">
        <ele>740.1</ele>
        <time>2019-05-31T09:34:36Z</time>
      </trkpt>
      <trkpt lat="44.07883" lon="3.12347">
        <ele>740.2</ele>
        <time>2019-05-31T09:34:37Z</time>
      </trkpt>
      <trkpt lat="44.07881" lon="3.12351">
        <ele>740.3</ele>
        <time>2019-05-31T09:34:38Z</time>
      </trkpt>
      <trkpt lat="44.07876" lon="3.12354">
        <ele>740.4</ele>
        <time>2019-05-31T09:34:39Z</time>
      </trkpt>
      <trkpt lat="44.07872" lon="3.12357">
        <ele>740.5</ele>
        <time>2019-05-31T09:34:40Z</time>
      </trkpt>
      <trkpt lat="44.07869" lon="3.12361">
        <ele>740.7</ele>
        <time>2019-05-31T09:34:41Z</time>
      </trkpt>
      <trkpt lat="44.07864" lon="3.12365">
        <ele>740.9</ele>
        <time>2019-05-31T09:34:42Z</time>
      </trkpt>
      <trkpt lat="44.0786" lon="3.12368">
        <ele>741.1</ele>
        <time>2019-05-31T09:34:43Z</time>
      </trkpt>
      <trkpt lat="44.07855" lon="3.12372">
        <ele>741.3</ele>
        <time>2019-05-31T09:34:44Z</time>
      </trkpt>
      <trkpt lat="44.07851" lon="3.12375">
        <ele>741.6</ele>
        <time>2019-05-31T09:34:45Z</time>
      </trkpt>
      <trkpt lat="44.07847" lon="3.12379">
        <ele>741.8</ele>
        <time>2019-05-31T09:34:46Z</time>
      </trkpt>
      <trkpt lat="44.07842" lon="3.12385">
        <ele>742.1</ele>
        <time>2019-05-31T09:34:47Z</time>
      </trkpt>
      <trkpt lat="44.07838" lon="3.12386">
        <ele>742.3</ele>
        <time>2019-05-31T09:34:48Z</time>
      </trkpt>
      <trkpt lat="44.07833" lon="3.12388">
        <ele>742.4</ele>
        <time>2019-05-31T09:34:49Z</time>
      </trkpt>
      <trkpt lat="44.07829" lon="3.1239">
        <ele>742.5</ele>
        <time>2019-05-31T09:34:50Z</time>
      </trkpt>
      <trkpt lat="44.07824" lon="3.12392">
        <ele>742.6</ele>
        <time>2019-05-31T09:34:51Z</time>
      </trkpt>
      <trkpt lat="44.07819" lon="3.12393">
        <ele>742.8</ele>
        <time>2019-05-31T09:34:52Z</time>
      </trkpt>
      <trkpt lat="44.07814" lon="3.12395">
        <ele>742.9</ele>
        <time>2019-05-31T09:34:53Z</time>
      </trkpt>
      <trkpt lat="44.07809" lon="3.12393">
        <ele>743</ele>
        <time>2019-05-31T09:34:54Z</time>
      </trkpt>
      <trkpt lat="44.07804" lon="3.12392">
        <ele>743.1</ele>
        <time>2019-05-31T09:34:55Z</time>
      </trkpt>
      <trkpt lat="44.07798" lon="3.12391">
        <ele>743.2</ele>
        <time>2019-05-31T09:34:56Z</time>
      </trkpt>
      <trkpt lat="44.07794" lon="3.12391">
        <ele>743.3</ele>
        <time>2019-05-31T09:34:57Z</time>
      </trkpt>
      <trkpt lat="44.0779" lon="3.1239">
        <ele>743.5</ele>
        <time>2019-05-31T09:34:58Z</time>
      </trkpt>
      <trkpt lat="44.07785" lon="3.1239">
        <ele>743.7</ele>
        <time>2019-05-31T09:34:59Z</time>
      </trkpt>
      <trkpt lat="44.07779" lon="3.12391">
        <ele>744</ele>
        <time>2019-05-31T09:35:00Z</time>
      </trkpt>
      <trkpt lat="44.07774" lon="3.12392">
        <ele>744.4</ele>
        <time>2019-05-31T09:35:01Z</time>
      </trkpt>
      <trkpt lat="44.0777" lon="3.12395">
        <ele>744.7</ele>
        <time>2019-05-31T09:35:02Z</time>
      </trkpt>
      <trkpt lat="44.07765" lon="3.12399">
        <ele>744.9</ele>
        <time>2019-05-31T09:35:03Z</time>
      </trkpt>
      <trkpt lat="44.0776" lon="3.12403">
        <ele>744.9</ele>
        <time>2019-05-31T09:35:04Z</time>
      </trkpt>
      <trkpt lat="44.07756" lon="3.12406">
        <ele>744.9</ele>
        <time>2019-05-31T09:35:05Z</time>
      </trkpt>
      <trkpt lat="44.07752" lon="3.1241">
        <ele>744.9</ele>
        <time>2019-05-31T09:35:06Z</time>
      </trkpt>
      <trkpt lat="44.07747" lon="3.12415">
        <ele>744.9</ele>
        <time>2019-05-31T09:35:07Z</time>
      </trkpt>
      <trkpt lat="44.07744" lon="3.12419">
        <ele>745</ele>
        <time>2019-05-31T09:35:08Z</time>
      </trkpt>
      <trkpt lat="44.07741" lon="3.12422">
        <ele>745</ele>
        <time>2019-05-31T09:35:09Z</time>
      </trkpt>
      <trkpt lat="44.07738" lon="3.12427">
        <ele>745</ele>
        <time>2019-05-31T09:35:10Z</time>
      </trkpt>
      <trkpt lat="44.07734" lon="3.12431">
        <ele>745.1</ele>
        <time>2019-05-31T09:35:11Z</time>
      </trkpt>
      <trkpt lat="44.07729" lon="3.12434">
        <ele>745.1</ele>
        <time>2019-05-31T09:35:12Z</time>
      </trkpt>
      <trkpt lat="44.07724" lon="3.12443">
        <ele>745.2</ele>
        <time>2019-05-31T09:35:13Z</time>
      </trkpt>
      <trkpt lat="44.07722" lon="3.12447">
        <ele>745.2</ele>
        <time>2019-05-31T09:35:14Z</time>
      </trkpt>
      <trkpt lat="44.07717" lon="3.12451">
        <ele>745.3</ele>
        <time>2019-05-31T09:35:15Z</time>
      </trkpt>
      <trkpt lat="44.07713" lon="3.12456">
        <ele>745.3</ele>
        <time>2019-05-31T09:35:16Z</time>
      </trkpt>
      <trkpt lat="44.0771" lon="3.12458">
        <ele>745.3</ele>
        <time>2019-05-31T09:35:17Z</time>
      </trkpt>
      <trkpt lat="44.07706" lon="3.12461">
        <ele>745.4</ele>
        <time>2019-05-31T09:35:18Z</time>
      </trkpt>
      <trkpt lat="44.07703" lon="3.12469">
        <ele>745.5</ele>
        <time>2019-05-31T09:35:19Z</time>
      </trkpt>
      <trkpt lat="44.07699" lon="3.12473">
        <ele>745.5</ele>
        <time>2019-05-31T09:35:20Z</time>
      </trkpt>
      <trkpt lat="44.07697" lon="3.1248">
        <ele>745.6</ele>
        <time>2019-05-31T09:35:21Z</time>
      </trkpt>
      <trkpt lat="44.07692" lon="3.12485">
        <ele>745.6</ele>
        <time>2019-05-31T09:35:22Z</time>
      </trkpt>
      <trkpt lat="44.07688" lon="3.12489">
        <ele>745.7</ele>
        <time>2019-05-31T09:35:23Z</time>
      </trkpt>
      <trkpt lat="44.07684" lon="3.12495">
        <ele>745.7</ele>
        <time>2019-05-31T09:35:24Z</time>
      </trkpt>
      <trkpt lat="44.07681" lon="3.125">
        <ele>745.7</ele>
        <time>2019-05-31T09:35:25Z</time>
      </trkpt>
      <trkpt lat="44.07678" lon="3.12505">
        <ele>745.7</ele>
        <time>2019-05-31T09:35:26Z</time>
      </trkpt>
      <trkpt lat="44.07674" lon="3.12511">
        <ele>745.8</ele>
        <time>2019-05-31T09:35:27Z</time>
      </trkpt>
      <trkpt lat="44.07671" lon="3.1252">
        <ele>745.8</ele>
        <time>2019-05-31T09:35:28Z</time>
      </trkpt>
      <trkpt lat="44.07668" lon="3.12525">
        <ele>745.8</ele>
        <time>2019-05-31T09:35:29Z</time>
      </trkpt>
      <trkpt lat="44.07664" lon="3.12532">
        <ele>745.8</ele>
        <time>2019-05-31T09:35:30Z</time>
      </trkpt>
      <trkpt lat="44.0766" lon="3.12537">
        <ele>745.8</ele>
        <time>2019-05-31T09:35:31Z</time>
      </trkpt>
      <trkpt lat="44.07658" lon="3.12542">
        <ele>745.8</ele>
        <time>2019-05-31T09:35:32Z</time>
      </trkpt>
      <trkpt lat="44.07654" lon="3.12547">
        <ele>745.8</ele>
        <time>2019-05-31T09:35:33Z</time>
      </trkpt>
      <trkpt lat="44.0765" lon="3.12552">
        <ele>745.8</ele>
        <time>2019-05-31T09:35:34Z</time>
      </trkpt>
      <trkpt lat="44.07648" lon="3.12559">
        <ele>745.8</ele>
        <time>2019-05-31T09:35:35Z</time>
      </trkpt>
      <trkpt lat="44.07646" lon="3.12564">
        <ele>745.8</ele>
        <time>2019-05-31T09:35:36Z</time>
      </trkpt>
      <trkpt lat="44.07645" lon="3.12571">
        <ele>745.8</ele>
        <time>2019-05-31T09:35:37Z</time>
      </trkpt>
      <trkpt lat="44.07643" lon="3.1258">
        <ele>745.8</ele>
        <time>2019-05-31T09:35:38Z</time>
      </trkpt>
      <trkpt lat="44.07644" lon="3.12587">
        <ele>745.8</ele>
        <time>2019-05-31T09:35:39Z</time>
      </trkpt>
      <trkpt lat="44.07646" lon="3.12595">
        <ele>745.8</ele>
        <time>2019-05-31T09:35:40Z</time>
      </trkpt>
      <trkpt lat="44.07648" lon="3.12602">
        <ele>745.8</ele>
        <time>2019-05-31T09:35:41Z</time>
      </trkpt>
      <trkpt lat="44.07651" lon="3.12607">
        <ele>745.8</ele>
        <time>2019-05-31T09:35:42Z</time>
      </trkpt>
      <trkpt lat="44.07655" lon="3.12614">
        <ele>745.9</ele>
        <time>2019-05-31T09:35:43Z</time>
      </trkpt>
      <trkpt lat="44.07658" lon="3.12619">
        <ele>746</ele>
        <time>2019-05-31T09:35:44Z</time>
      </trkpt>
      <trkpt lat="44.07662" lon="3.12625">
        <ele>746</ele>
        <time>2019-05-31T09:35:45Z</time>
      </trkpt>
      <trkpt lat="44.07665" lon="3.12632">
        <ele>746.1</ele>
        <time>2019-05-31T09:35:46Z</time>
      </trkpt>
      <trkpt lat="44.07669" lon="3.1264">
        <ele>746.2</ele>
        <time>2019-05-31T09:35:47Z</time>
      </trkpt>
      <trkpt lat="44.07672" lon="3.12646">
        <ele>746.3</ele>
        <time>2019-05-31T09:35:48Z</time>
      </trkpt>
      <trkpt lat="44.07674" lon="3.12653">
        <ele>746.4</ele>
        <time>2019-05-31T09:35:49Z</time>
      </trkpt>
      <trkpt lat="44.07677" lon="3.12659">
        <ele>746.5</ele>
        <time>2019-05-31T09:35:50Z</time>
      </trkpt>
      <trkpt lat="44.0768" lon="3.12667">
        <ele>746.6</ele>
        <time>2019-05-31T09:35:51Z</time>
      </trkpt>
      <trkpt lat="44.07682" lon="3.12674">
        <ele>746.7</ele>
        <time>2019-05-31T09:35:52Z</time>
      </trkpt>
      <trkpt lat="44.07684" lon="3.1268">
        <ele>746.7</ele>
        <time>2019-05-31T09:35:53Z</time>
      </trkpt>
      <trkpt lat="44.07686" lon="3.12686">
        <ele>746.8</ele>
        <time>2019-05-31T09:35:54Z</time>
      </trkpt>
      <trkpt lat="44.07692" lon="3.12694">
        <ele>746.9</ele>
        <time>2019-05-31T09:35:55Z</time>
      </trkpt>
      <trkpt lat="44.07696" lon="3.12701">
        <ele>746.9</ele>
        <time>2019-05-31T09:35:56Z</time>
      </trkpt>
      <trkpt lat="44.07698" lon="3.12708">
        <ele>747</ele>
        <time>2019-05-31T09:35:57Z</time>
      </trkpt>
      <trkpt lat="44.077" lon="3.12711">
        <ele>747</ele>
        <time>2019-05-31T09:35:58Z</time>
      </trkpt>
      <trkpt lat="44.07705" lon="3.12719">
        <ele>747.1</ele>
        <time>2019-05-31T09:35:59Z</time>
      </trkpt>
      <trkpt lat="44.07706" lon="3.12727">
        <ele>747.2</ele>
        <time>2019-05-31T09:36:00Z</time>
      </trkpt>
      <trkpt lat="44.07707" lon="3.12734">
        <ele>747.3</ele>
        <time>2019-05-31T09:36:01Z</time>
      </trkpt>
      <trkpt lat="44.0771" lon="3.12744">
        <ele>747.4</ele>
        <time>2019-05-31T09:36:02Z</time>
      </trkpt>
      <trkpt lat="44.0771" lon="3.12751">
        <ele>747.5</ele>
        <time>2019-05-31T09:36:03Z</time>
      </trkpt>
      <trkpt lat="44.07709" lon="3.12761">
        <ele>747.6</ele>
        <time>2019-05-31T09:36:04Z</time>
      </trkpt>
      <trkpt lat="44.07706" lon="3.1277">
        <ele>747.8</ele>
        <time>2019-05-31T09:36:05Z</time>
      </trkpt>
      <trkpt lat="44.07705" lon="3.12777">
        <ele>748</ele>
        <time>2019-05-31T09:36:06Z</time>
      </trkpt>
      <trkpt lat="44.07702" lon="3.12785">
        <ele>748.2</ele>
        <time>2019-05-31T09:36:07Z</time>
      </trkpt>
      <trkpt lat="44.07701" lon="3.12792">
        <ele>748.3</ele>
        <time>2019-05-31T09:36:08Z</time>
      </trkpt>
      <trkpt lat="44.07698" lon="3.12798">
        <ele>748.5</ele>
        <time>2019-05-31T09:36:09Z</time>
      </trkpt>
      <trkpt lat="44.07694" lon="3.12804">
        <ele>748.7</ele>
        <time>2019-05-31T09:36:10Z</time>
      </trkpt>
      <trkpt lat="44.07691" lon="3.12808">
        <ele>748.9</ele>
        <time>2019-05-31T09:36:11Z</time>
      </trkpt>
      <trkpt lat="44.07686" lon="3.12813">
        <ele>749</ele>
        <time>2019-05-31T09:36:12Z</time>
      </trkpt>
      <trkpt lat="44.07682" lon="3.12817">
        <ele>749.2</ele>
        <time>2019-05-31T09:36:13Z</time>
      </trkpt>
      <trkpt lat="44.07677" lon="3.1282">
        <ele>749.3</ele>
        <time>2019-05-31T09:36:14Z</time>
      </trkpt>
      <trkpt lat="44.07673" lon="3.12822">
        <ele>749.4</ele>
        <time>2019-05-31T09:36:15Z</time>
      </trkpt>
      <trkpt lat="44.07668" lon="3.12826">
        <ele>749.5</ele>
        <time>2019-05-31T09:36:16Z</time>
      </trkpt>
      <trkpt lat="44.07665" lon="3.12828">
        <ele>749.6</ele>
        <time>2019-05-31T09:36:17Z</time>
      </trkpt>
      <trkpt lat="44.07661" lon="3.1283">
        <ele>749.7</ele>
        <time>2019-05-31T09:36:18Z</time>
      </trkpt>
      <trkpt lat="44.07656" lon="3.12833">
        <ele>749.8</ele>
        <time>2019-05-31T09:36:19Z</time>
      </trkpt>
      <trkpt lat="44.07652" lon="3.12836">
        <ele>749.9</ele>
        <time>2019-05-31T09:36:20Z</time>
      </trkpt>
      <trkpt lat="44.07647" lon="3.1284">
        <ele>750</ele>
        <time>2019-05-31T09:36:21Z</time>
      </trkpt>
      <trkpt lat="44.07643" lon="3.12843">
        <ele>750.1</ele>
        <time>2019-05-31T09:36:22Z</time>
      </trkpt>
      <trkpt lat="44.0764" lon="3.12848">
        <ele>750.2</ele>
        <time>2019-05-31T09:36:23Z</time>
      </trkpt>
      <trkpt lat="44.07635" lon="3.12853">
        <ele>750.4</ele>
        <time>2019-05-31T09:36:24Z</time>
      </trkpt>
      <trkpt lat="44.07633" lon="3.12858">
        <ele>750.4</ele>
        <time>2019-05-31T09:36:25Z</time>
      </trkpt>
      <trkpt lat="44.07629" lon="3.12862">
        <ele>750.5</ele>
        <time>2019-05-31T09:36:26Z</time>
      </trkpt>
      <trkpt lat="44.07627" lon="3.12866">
        <ele>750.6</ele>
        <time>2019-05-31T09:36:27Z</time>
      </trkpt>
      <trkpt lat="44.07625" lon="3.12871">
        <ele>750.6</ele>
        <time>2019-05-31T09:36:28Z</time>
      </trkpt>
      <trkpt lat="44.07621" lon="3.12876">
        <ele>750.7</ele>
        <time>2019-05-31T09:36:29Z</time>
      </trkpt>
      <trkpt lat="44.0762" lon="3.12882">
        <ele>750.8</ele>
        <time>2019-05-31T09:36:30Z</time>
      </trkpt>
      <trkpt lat="44.07618" lon="3.12888">
        <ele>750.9</ele>
        <time>2019-05-31T09:36:31Z</time>
      </trkpt>
      <trkpt lat="44.07617" lon="3.12894">
        <ele>751</ele>
        <time>2019-05-31T09:36:32Z</time>
      </trkpt>
      <trkpt lat="44.07617" lon="3.12902">
        <ele>751.1</ele>
        <time>2019-05-31T09:36:33Z</time>
      </trkpt>
      <trkpt lat="44.07617" lon="3.12911">
        <ele>751.2</ele>
        <time>2019-05-31T09:36:34Z</time>
      </trkpt>
      <trkpt lat="44.07618" lon="3.12919">
        <ele>751.3</ele>
        <time>2019-05-31T09:36:35Z</time>
      </trkpt>
      <trkpt lat="44.07618" lon="3.12926">
        <ele>751.4</ele>
        <time>2019-05-31T09:36:36Z</time>
      </trkpt>
      <trkpt lat="44.07619" lon="3.12933">
        <ele>751.5</ele>
        <time>2019-05-31T09:36:37Z</time>
      </trkpt>
      <trkpt lat="44.07619" lon="3.12941">
        <ele>751.7</ele>
        <time>2019-05-31T09:36:38Z</time>
      </trkpt>
      <trkpt lat="44.0762" lon="3.12947">
        <ele>751.9</ele>
        <time>2019-05-31T09:36:39Z</time>
      </trkpt>
      <trkpt lat="44.0762" lon="3.12953">
        <ele>752</ele>
        <time>2019-05-31T09:36:40Z</time>
      </trkpt>
      <trkpt lat="44.0762" lon="3.12959">
        <ele>752.2</ele>
        <time>2019-05-31T09:36:41Z</time>
      </trkpt>
      <trkpt lat="44.0762" lon="3.12965">
        <ele>752.4</ele>
        <time>2019-05-31T09:36:42Z</time>
      </trkpt>
      <trkpt lat="44.07623" lon="3.12971">
        <ele>752.6</ele>
        <time>2019-05-31T09:36:43Z</time>
      </trkpt>
      <trkpt lat="44.07625" lon="3.12978">
        <ele>752.9</ele>
        <time>2019-05-31T09:36:44Z</time>
      </trkpt>
      <trkpt lat="44.07626" lon="3.12983">
        <ele>753.1</ele>
        <time>2019-05-31T09:36:45Z</time>
      </trkpt>
      <trkpt lat="44.07627" lon="3.12988">
        <ele>753.3</ele>
        <time>2019-05-31T09:36:46Z</time>
      </trkpt>
      <trkpt lat="44.07627" lon="3.12994">
        <ele>753.6</ele>
        <time>2019-05-31T09:36:47Z</time>
      </trkpt>
      <trkpt lat="44.07627" lon="3.12999">
        <ele>753.8</ele>
        <time>2019-05-31T09:36:48Z</time>
      </trkpt>
      <trkpt lat="44.07627" lon="3.13004">
        <ele>754.2</ele>
        <time>2019-05-31T09:36:49Z</time>
      </trkpt>
      <trkpt lat="44.07627" lon="3.13009">
        <ele>754.3</ele>
        <time>2019-05-31T09:36:50Z</time>
      </trkpt>
      <trkpt lat="44.07623" lon="3.13013">
        <ele>754.5</ele>
        <time>2019-05-31T09:36:52Z</time>
      </trkpt>
      <trkpt lat="44.07619" lon="3.13013">
        <ele>754.7</ele>
        <time>2019-05-31T09:36:54Z</time>
      </trkpt>
      <trkpt lat="44.07614" lon="3.13015">
        <ele>755</ele>
        <time>2019-05-31T09:36:56Z</time>
      </trkpt>
      <trkpt lat="44.0761" lon="3.13017">
        <ele>755.3</ele>
        <time>2019-05-31T09:36:57Z</time>
      </trkpt>
      <trkpt lat="44.07607" lon="3.13019">
        <ele>755.6</ele>
        <time>2019-05-31T09:36:58Z</time>
      </trkpt>
      <trkpt lat="44.07604" lon="3.1302">
        <ele>755.8</ele>
        <time>2019-05-31T09:36:59Z</time>
      </trkpt>
      <trkpt lat="44.07599" lon="3.13022">
        <ele>756</ele>
        <time>2019-05-31T09:37:01Z</time>
      </trkpt>
      <trkpt lat="44.07596" lon="3.13025">
        <ele>756.2</ele>
        <time>2019-05-31T09:37:03Z</time>
      </trkpt>
      <trkpt lat="44.07593" lon="3.13028">
        <ele>756.4</ele>
        <time>2019-05-31T09:37:05Z</time>
      </trkpt>
      <trkpt lat="44.07591" lon="3.13032">
        <ele>756.7</ele>
        <time>2019-05-31T09:37:07Z</time>
      </trkpt>
      <trkpt lat="44.07587" lon="3.13037">
        <ele>756.9</ele>
        <time>2019-05-31T09:37:09Z</time>
      </trkpt>
      <trkpt lat="44.07584" lon="3.13041">
        <ele>757.2</ele>
        <time>2019-05-31T09:37:11Z</time>
      </trkpt>
      <trkpt lat="44.0758" lon="3.13045">
        <ele>757.5</ele>
        <time>2019-05-31T09:37:13Z</time>
      </trkpt>
      <trkpt lat="44.07576" lon="3.13047">
        <ele>757.7</ele>
        <time>2019-05-31T09:37:15Z</time>
      </trkpt>
      <trkpt lat="44.07573" lon="3.13048">
        <ele>757.8</ele>
        <time>2019-05-31T09:37:16Z</time>
      </trkpt>
      <trkpt lat="44.07569" lon="3.13049">
        <ele>758</ele>
        <time>2019-05-31T09:37:18Z</time>
      </trkpt>
      <trkpt lat="44.07566" lon="3.13052">
        <ele>758.1</ele>
        <time>2019-05-31T09:37:20Z</time>
      </trkpt>
      <trkpt lat="44.07564" lon="3.13055">
        <ele>758.3</ele>
        <time>2019-05-31T09:37:22Z</time>
      </trkpt>
      <trkpt lat="44.0756" lon="3.13059">
        <ele>758.4</ele>
        <time>2019-05-31T09:37:24Z</time>
      </trkpt>
      <trkpt lat="44.07556" lon="3.13061">
        <ele>758.7</ele>
        <time>2019-05-31T09:37:26Z</time>
      </trkpt>
      <trkpt lat="44.07551" lon="3.13062">
        <ele>759</ele>
        <time>2019-05-31T09:37:28Z</time>
      </trkpt>
      <trkpt lat="44.07547" lon="3.13061">
        <ele>759.2</ele>
        <time>2019-05-31T09:37:30Z</time>
      </trkpt>
      <trkpt lat="44.07542" lon="3.13062">
        <ele>759.4</ele>
        <time>2019-05-31T09:37:32Z</time>
      </trkpt>
      <trkpt lat="44.07538" lon="3.13062">
        <ele>759.5</ele>
        <time>2019-05-31T09:37:34Z</time>
      </trkpt>
      <trkpt lat="44.07534" lon="3.1306">
        <ele>759.7</ele>
        <time>2019-05-31T09:37:36Z</time>
      </trkpt>
      <trkpt lat="44.0753" lon="3.13059">
        <ele>759.9</ele>
        <time>2019-05-31T09:37:38Z</time>
      </trkpt>
      <trkpt lat="44.07528" lon="3.13059">
        <ele>760.2</ele>
        <time>2019-05-31T09:37:40Z</time>
      </trkpt>
      <trkpt lat="44.07524" lon="3.13059">
        <ele>760.4</ele>
        <time>2019-05-31T09:37:43Z</time>
      </trkpt>
      <trkpt lat="44.07519" lon="3.13058">
        <ele>760.8</ele>
        <time>2019-05-31T09:37:45Z</time>
      </trkpt>
      <trkpt lat="44.07515" lon="3.13058">
        <ele>761.1</ele>
        <time>2019-05-31T09:37:47Z</time>
      </trkpt>
      <trkpt lat="44.07509" lon="3.13058">
        <ele>761.5</ele>
        <time>2019-05-31T09:37:49Z</time>
      </trkpt>
      <trkpt lat="44.07506" lon="3.13058">
        <ele>761.8</ele>
        <time>2019-05-31T09:37:50Z</time>
      </trkpt>
      <trkpt lat="44.07502" lon="3.13058">
        <ele>762.1</ele>
        <time>2019-05-31T09:37:52Z</time>
      </trkpt>
      <trkpt lat="44.07499" lon="3.13058">
        <ele>762.3</ele>
        <time>2019-05-31T09:37:53Z</time>
      </trkpt>
      <trkpt lat="44.07494" lon="3.13058">
        <ele>762.7</ele>
        <time>2019-05-31T09:37:55Z</time>
      </trkpt>
      <trkpt lat="44.07489" lon="3.1306">
        <ele>763.1</ele>
        <time>2019-05-31T09:37:57Z</time>
      </trkpt>
      <trkpt lat="44.07486" lon="3.13062">
        <ele>763.3</ele>
        <time>2019-05-31T09:37:58Z</time>
      </trkpt>
      <trkpt lat="44.07481" lon="3.13064">
        <ele>763.7</ele>
        <time>2019-05-31T09:38:00Z</time>
      </trkpt>
      <trkpt lat="44.07477" lon="3.13066">
        <ele>764.2</ele>
        <time>2019-05-31T09:38:02Z</time>
      </trkpt>
      <trkpt lat="44.07473" lon="3.13067">
        <ele>764.5</ele>
        <time>2019-05-31T09:38:03Z</time>
      </trkpt>
      <trkpt lat="44.0747" lon="3.13069">
        <ele>764.7</ele>
        <time>2019-05-31T09:38:04Z</time>
      </trkpt>
      <trkpt lat="44.07467" lon="3.13071">
        <ele>764.9</ele>
        <time>2019-05-31T09:38:05Z</time>
      </trkpt>
      <trkpt lat="44.07464" lon="3.13073">
        <ele>765.1</ele>
        <time>2019-05-31T09:38:06Z</time>
      </trkpt>
      <trkpt lat="44.07461" lon="3.13075">
        <ele>765.3</ele>
        <time>2019-05-31T09:38:07Z</time>
      </trkpt>
      <trkpt lat="44.07457" lon="3.13076">
        <ele>765.5</ele>
        <time>2019-05-31T09:38:08Z</time>
      </trkpt>
      <trkpt lat="44.07454" lon="3.13077">
        <ele>765.7</ele>
        <time>2019-05-31T09:38:09Z</time>
      </trkpt>
      <trkpt lat="44.07451" lon="3.13078">
        <ele>765.9</ele>
        <time>2019-05-31T09:38:10Z</time>
      </trkpt>
      <trkpt lat="44.07449" lon="3.1308">
        <ele>766</ele>
        <time>2019-05-31T09:38:11Z</time>
      </trkpt>
      <trkpt lat="44.07446" lon="3.13081">
        <ele>766.2</ele>
        <time>2019-05-31T09:38:12Z</time>
      </trkpt>
      <trkpt lat="44.07443" lon="3.13084">
        <ele>766.3</ele>
        <time>2019-05-31T09:38:13Z</time>
      </trkpt>
      <trkpt lat="44.0744" lon="3.13086">
        <ele>766.6</ele>
        <time>2019-05-31T09:38:14Z</time>
      </trkpt>
      <trkpt lat="44.07436" lon="3.13089">
        <ele>766.8</ele>
        <time>2019-05-31T09:38:15Z</time>
      </trkpt>
      <trkpt lat="44.07433" lon="3.13092">
        <ele>767.2</ele>
        <time>2019-05-31T09:38:16Z</time>
      </trkpt>
      <trkpt lat="44.0743" lon="3.13094">
        <ele>767.4</ele>
        <time>2019-05-31T09:38:17Z</time>
      </trkpt>
      <trkpt lat="44.07425" lon="3.13093">
        <ele>767.7</ele>
        <time>2019-05-31T09:38:18Z</time>
      </trkpt>
      <trkpt lat="44.0742" lon="3.13096">
        <ele>768</ele>
        <time>2019-05-31T09:38:19Z</time>
      </trkpt>
      <trkpt lat="44.07416" lon="3.13101">
        <ele>768.3</ele>
        <time>2019-05-31T09:38:20Z</time>
      </trkpt>
      <trkpt lat="44.07412" lon="3.13105">
        <ele>768.7</ele>
        <time>2019-05-31T09:38:21Z</time>
      </trkpt>
      <trkpt lat="44.07407" lon="3.13108">
        <ele>769.1</ele>
        <time>2019-05-31T09:38:22Z</time>
      </trkpt>
      <trkpt lat="44.07404" lon="3.13111">
        <ele>769.4</ele>
        <time>2019-05-31T09:38:23Z</time>
      </trkpt>
      <trkpt lat="44.074" lon="3.13114">
        <ele>769.7</ele>
        <time>2019-05-31T09:38:24Z</time>
      </trkpt>
      <trkpt lat="44.07396" lon="3.13116">
        <ele>770</ele>
        <time>2019-05-31T09:38:25Z</time>
      </trkpt>
      <trkpt lat="44.07391" lon="3.13118">
        <ele>770.4</ele>
        <time>2019-05-31T09:38:26Z</time>
      </trkpt>
      <trkpt lat="44.07388" lon="3.13122">
        <ele>770.6</ele>
        <time>2019-05-31T09:38:27Z</time>
      </trkpt>
      <trkpt lat="44.07384" lon="3.13124">
        <ele>770.7</ele>
        <time>2019-05-31T09:38:28Z</time>
      </trkpt>
      <trkpt lat="44.07379" lon="3.13128">
        <ele>770.7</ele>
        <time>2019-05-31T09:38:29Z</time>
      </trkpt>
      <trkpt lat="44.07373" lon="3.13132">
        <ele>770.9</ele>
        <time>2019-05-31T09:38:30Z</time>
      </trkpt>
      <trkpt lat="44.07369" lon="3.13134">
        <ele>771</ele>
        <time>2019-05-31T09:38:31Z</time>
      </trkpt>
      <trkpt lat="44.07365" lon="3.13136">
        <ele>771.1</ele>
        <time>2019-05-31T09:38:32Z</time>
      </trkpt>
      <trkpt lat="44.07361" lon="3.1314">
        <ele>771.3</ele>
        <time>2019-05-31T09:38:33Z</time>
      </trkpt>
      <trkpt lat="44.07359" lon="3.13142">
        <ele>771.4</ele>
        <time>2019-05-31T09:38:34Z</time>
      </trkpt>
      <trkpt lat="44.07356" lon="3.13144">
        <ele>771.4</ele>
        <time>2019-05-31T09:38:35Z</time>
      </trkpt>
      <trkpt lat="44.07353" lon="3.13148">
        <ele>771.5</ele>
        <time>2019-05-31T09:38:37Z</time>
      </trkpt>
      <trkpt lat="44.07349" lon="3.13153">
        <ele>771.6</ele>
        <time>2019-05-31T09:38:39Z</time>
      </trkpt>
      <trkpt lat="44.07346" lon="3.13158">
        <ele>771.8</ele>
        <time>2019-05-31T09:38:41Z</time>
      </trkpt>
      <trkpt lat="44.07343" lon="3.13163">
        <ele>771.9</ele>
        <time>2019-05-31T09:38:43Z</time>
      </trkpt>
      <trkpt lat="44.07339" lon="3.13165">
        <ele>772</ele>
        <time>2019-05-31T09:38:45Z</time>
      </trkpt>
      <trkpt lat="44.07335" lon="3.13166">
        <ele>772</ele>
        <time>2019-05-31T09:38:47Z</time>
      </trkpt>
      <trkpt lat="44.07331" lon="3.13167">
        <ele>772.1</ele>
        <time>2019-05-31T09:38:49Z</time>
      </trkpt>
      <trkpt lat="44.07326" lon="3.13168">
        <ele>772.1</ele>
        <time>2019-05-31T09:38:51Z</time>
      </trkpt>
      <trkpt lat="44.07322" lon="3.13169">
        <ele>772.2</ele>
        <time>2019-05-31T09:38:53Z</time>
      </trkpt>
      <trkpt lat="44.07317" lon="3.1317">
        <ele>772.3</ele>
        <time>2019-05-31T09:38:55Z</time>
      </trkpt>
      <trkpt lat="44.07312" lon="3.13169">
        <ele>772.3</ele>
        <time>2019-05-31T09:38:57Z</time>
      </trkpt>
      <trkpt lat="44.07309" lon="3.13169">
        <ele>772.3</ele>
        <time>2019-05-31T09:38:58Z</time>
      </trkpt>
      <trkpt lat="44.07305" lon="3.13169">
        <ele>772.4</ele>
        <time>2019-05-31T09:38:59Z</time>
      </trkpt>
      <trkpt lat="44.07302" lon="3.13168">
        <ele>772.4</ele>
        <time>2019-05-31T09:39:00Z</time>
      </trkpt>
      <trkpt lat="44.07298" lon="3.13166">
        <ele>772.4</ele>
        <time>2019-05-31T09:39:01Z</time>
      </trkpt>
      <trkpt lat="44.07294" lon="3.13164">
        <ele>772.4</ele>
        <time>2019-05-31T09:39:02Z</time>
      </trkpt>
      <trkpt lat="44.07291" lon="3.13162">
        <ele>772.4</ele>
        <time>2019-05-31T09:39:03Z</time>
      </trkpt>
      <trkpt lat="44.07288" lon="3.13159">
        <ele>772.4</ele>
        <time>2019-05-31T09:39:04Z</time>
      </trkpt>
      <trkpt lat="44.07285" lon="3.13156">
        <ele>772.4</ele>
        <time>2019-05-31T09:39:05Z</time>
      </trkpt>
      <trkpt lat="44.07283" lon="3.13153">
        <ele>772.4</ele>
        <time>2019-05-31T09:39:06Z</time>
      </trkpt>
      <trkpt lat="44.07281" lon="3.1315">
        <ele>772.5</ele>
        <time>2019-05-31T09:39:07Z</time>
      </trkpt>
      <trkpt lat="44.07275" lon="3.13146">
        <ele>772.5</ele>
        <time>2019-05-31T09:39:08Z</time>
      </trkpt>
      <trkpt lat="44.0727" lon="3.13142">
        <ele>772.6</ele>
        <time>2019-05-31T09:39:09Z</time>
      </trkpt>
      <trkpt lat="44.07267" lon="3.1314">
        <ele>772.7</ele>
        <time>2019-05-31T09:39:10Z</time>
      </trkpt>
      <trkpt lat="44.07263" lon="3.13139">
        <ele>772.8</ele>
        <time>2019-05-31T09:39:11Z</time>
      </trkpt>
      <trkpt lat="44.07259" lon="3.13137">
        <ele>772.9</ele>
        <time>2019-05-31T09:39:12Z</time>
      </trkpt>
      <trkpt lat="44.07255" lon="3.13136">
        <ele>773</ele>
        <time>2019-05-31T09:39:13Z</time>
      </trkpt>
      <trkpt lat="44.07252" lon="3.13135">
        <ele>773.1</ele>
        <time>2019-05-31T09:39:14Z</time>
      </trkpt>
      <trkpt lat="44.07248" lon="3.13133">
        <ele>773.2</ele>
        <time>2019-05-31T09:39:15Z</time>
      </trkpt>
      <trkpt lat="44.07242" lon="3.13131">
        <ele>773.4</ele>
        <time>2019-05-31T09:39:16Z</time>
      </trkpt>
      <trkpt lat="44.07236" lon="3.13128">
        <ele>773.5</ele>
        <time>2019-05-31T09:39:17Z</time>
      </trkpt>
      <trkpt lat="44.0723" lon="3.13126">
        <ele>773.7</ele>
        <time>2019-05-31T09:39:18Z</time>
      </trkpt>
      <trkpt lat="44.07225" lon="3.13126">
        <ele>773.8</ele>
        <time>2019-05-31T09:39:19Z</time>
      </trkpt>
      <trkpt lat="44.0722" lon="3.13122">
        <ele>773.9</ele>
        <time>2019-05-31T09:39:20Z</time>
      </trkpt>
      <trkpt lat="44.07214" lon="3.13118">
        <ele>774.1</ele>
        <time>2019-05-31T09:39:21Z</time>
      </trkpt>
      <trkpt lat="44.07208" lon="3.13116">
        <ele>774.2</ele>
        <time>2019-05-31T09:39:22Z</time>
      </trkpt>
      <trkpt lat="44.07203" lon="3.13116">
        <ele>774.4</ele>
        <time>2019-05-31T09:39:23Z</time>
      </trkpt>
      <trkpt lat="44.07198" lon="3.13114">
        <ele>774.5</ele>
        <time>2019-05-31T09:39:24Z</time>
      </trkpt>
      <trkpt lat="44.07194" lon="3.13113">
        <ele>774.6</ele>
        <time>2019-05-31T09:39:25Z</time>
      </trkpt>
      <trkpt lat="44.0719" lon="3.13113">
        <ele>774.8</ele>
        <time>2019-05-31T09:39:26Z</time>
      </trkpt>
      <trkpt lat="44.07185" lon="3.13114">
        <ele>775</ele>
        <time>2019-05-31T09:39:27Z</time>
      </trkpt>
      <trkpt lat="44.07178" lon="3.13115">
        <ele>775.2</ele>
        <time>2019-05-31T09:39:28Z</time>
      </trkpt>
      <trkpt lat="44.07173" lon="3.13115">
        <ele>775.5</ele>
        <time>2019-05-31T09:39:29Z</time>
      </trkpt>
      <trkpt lat="44.07166" lon="3.13114">
        <ele>775.8</ele>
        <time>2019-05-31T09:39:30Z</time>
      </trkpt>
      <trkpt lat="44.07163" lon="3.13116">
        <ele>775.9</ele>
        <time>2019-05-31T09:39:31Z</time>
      </trkpt>
      <trkpt lat="44.07159" lon="3.13117">
        <ele>776.1</ele>
        <time>2019-05-31T09:39:32Z</time>
      </trkpt>
      <trkpt lat="44.07155" lon="3.13119">
        <ele>776.3</ele>
        <time>2019-05-31T09:39:33Z</time>
      </trkpt>
      <trkpt lat="44.0715" lon="3.1312">
        <ele>776.6</ele>
        <time>2019-05-31T09:39:34Z</time>
      </trkpt>
      <trkpt lat="44.07146" lon="3.13122">
        <ele>776.8</ele>
        <time>2019-05-31T09:39:35Z</time>
      </trkpt>
      <trkpt lat="44.0714" lon="3.13122">
        <ele>777.1</ele>
        <time>2019-05-31T09:39:37Z</time>
      </trkpt>
      <trkpt lat="44.07135" lon="3.13121">
        <ele>777.3</ele>
        <time>2019-05-31T09:39:38Z</time>
      </trkpt>
      <trkpt lat="44.0713" lon="3.13121">
        <ele>777.4</ele>
        <time>2019-05-31T09:39:39Z</time>
      </trkpt>
      <trkpt lat="44.07125" lon="3.1312">
        <ele>777.4</ele>
        <time>2019-05-31T09:39:40Z</time>
      </trkpt>
      <trkpt lat="44.0712" lon="3.13121">
        <ele>777.5</ele>
        <time>2019-05-31T09:39:41Z</time>
      </trkpt>
      <trkpt lat="44.07116" lon="3.13122">
        <ele>777.6</ele>
        <time>2019-05-31T09:39:42Z</time>
      </trkpt>
      <trkpt lat="44.07113" lon="3.13121">
        <ele>777.7</ele>
        <time>2019-05-31T09:39:43Z</time>
      </trkpt>
      <trkpt lat="44.0711" lon="3.13123">
        <ele>777.8</ele>
        <time>2019-05-31T09:39:44Z</time>
      </trkpt>
      <trkpt lat="44.07105" lon="3.13121">
        <ele>778</ele>
        <time>2019-05-31T09:39:45Z</time>
      </trkpt>
      <trkpt lat="44.07102" lon="3.1312">
        <ele>778.1</ele>
        <time>2019-05-31T09:39:46Z</time>
      </trkpt>
      <trkpt lat="44.07099" lon="3.13119">
        <ele>778.2</ele>
        <time>2019-05-31T09:39:47Z</time>
      </trkpt>
      <trkpt lat="44.07095" lon="3.13118">
        <ele>778.3</ele>
        <time>2019-05-31T09:39:48Z</time>
      </trkpt>
      <trkpt lat="44.07091" lon="3.13118">
        <ele>778.3</ele>
        <time>2019-05-31T09:39:49Z</time>
      </trkpt>
      <trkpt lat="44.07088" lon="3.1312">
        <ele>778.4</ele>
        <time>2019-05-31T09:39:50Z</time>
      </trkpt>
      <trkpt lat="44.07084" lon="3.13119">
        <ele>778.5</ele>
        <time>2019-05-31T09:39:51Z</time>
      </trkpt>
      <trkpt lat="44.07081" lon="3.13118">
        <ele>778.6</ele>
        <time>2019-05-31T09:39:52Z</time>
      </trkpt>
      <trkpt lat="44.07077" lon="3.13117">
        <ele>778.7</ele>
        <time>2019-05-31T09:39:53Z</time>
      </trkpt>
      <trkpt lat="44.07074" lon="3.13116">
        <ele>778.8</ele>
        <time>2019-05-31T09:39:54Z</time>
      </trkpt>
      <trkpt lat="44.07071" lon="3.13115">
        <ele>778.9</ele>
        <time>2019-05-31T09:39:55Z</time>
      </trkpt>
      <trkpt lat="44.07067" lon="3.13114">
        <ele>779</ele>
        <time>2019-05-31T09:39:57Z</time>
      </trkpt>
      <trkpt lat="44.07064" lon="3.13113">
        <ele>779</ele>
        <time>2019-05-31T09:39:59Z</time>
      </trkpt>
      <trkpt lat="44.07059" lon="3.13112">
        <ele>779.1</ele>
        <time>2019-05-31T09:40:02Z</time>
      </trkpt>
      <trkpt lat="44.07056" lon="3.13113">
        <ele>779.2</ele>
        <time>2019-05-31T09:40:03Z</time>
      </trkpt>
      <trkpt lat="44.07053" lon="3.13113">
        <ele>779.2</ele>
        <time>2019-05-31T09:40:04Z</time>
      </trkpt>
      <trkpt lat="44.0705" lon="3.13114">
        <ele>779.2</ele>
        <time>2019-05-31T09:40:05Z</time>
      </trkpt>
      <trkpt lat="44.07047" lon="3.13116">
        <ele>779.2</ele>
        <time>2019-05-31T09:40:06Z</time>
      </trkpt>
      <trkpt lat="44.07044" lon="3.13117">
        <ele>779.2</ele>
        <time>2019-05-31T09:40:07Z</time>
      </trkpt>
      <trkpt lat="44.07041" lon="3.13118">
        <ele>779.2</ele>
        <time>2019-05-31T09:40:08Z</time>
      </trkpt>
      <trkpt lat="44.07037" lon="3.13119">
        <ele>779.2</ele>
        <time>2019-05-31T09:40:09Z</time>
      </trkpt>
      <trkpt lat="44.07034" lon="3.1312">
        <ele>779.2</ele>
        <time>2019-05-31T09:40:10Z</time>
      </trkpt>
      <trkpt lat="44.07028" lon="3.13121">
        <ele>779.2</ele>
        <time>2019-05-31T09:40:11Z</time>
      </trkpt>
      <trkpt lat="44.07024" lon="3.13123">
        <ele>779.2</ele>
        <time>2019-05-31T09:40:12Z</time>
      </trkpt>
      <trkpt lat="44.07019" lon="3.13125">
        <ele>779.2</ele>
        <time>2019-05-31T09:40:13Z</time>
      </trkpt>
      <trkpt lat="44.07013" lon="3.13131">
        <ele>779.3</ele>
        <time>2019-05-31T09:40:14Z</time>
      </trkpt>
      <trkpt lat="44.07011" lon="3.13135">
        <ele>779.3</ele>
        <time>2019-05-31T09:40:15Z</time>
      </trkpt>
      <trkpt lat="44.0701" lon="3.13141">
        <ele>779.4</ele>
        <time>2019-05-31T09:40:16Z</time>
      </trkpt>
      <trkpt lat="44.0701" lon="3.13145">
        <ele>779.4</ele>
        <time>2019-05-31T09:40:17Z</time>
      </trkpt>
      <trkpt lat="44.07008" lon="3.13149">
        <ele>779.5</ele>
        <time>2019-05-31T09:40:18Z</time>
      </trkpt>
      <trkpt lat="44.07006" lon="3.13154">
        <ele>779.5</ele>
        <time>2019-05-31T09:40:19Z</time>
      </trkpt>
      <trkpt lat="44.07005" lon="3.13159">
        <ele>779.6</ele>
        <time>2019-05-31T09:40:20Z</time>
      </trkpt>
      <trkpt lat="44.07001" lon="3.13163">
        <ele>779.7</ele>
        <time>2019-05-31T09:40:22Z</time>
      </trkpt>
      <trkpt lat="44.06999" lon="3.13168">
        <ele>779.8</ele>
        <time>2019-05-31T09:40:24Z</time>
      </trkpt>
      <trkpt lat="44.06998" lon="3.13174">
        <ele>780</ele>
        <time>2019-05-31T09:40:26Z</time>
      </trkpt>
      <trkpt lat="44.06996" lon="3.13178">
        <ele>780.1</ele>
        <time>2019-05-31T09:40:27Z</time>
      </trkpt>
      <trkpt lat="44.06995" lon="3.13182">
        <ele>780.2</ele>
        <time>2019-05-31T09:40:28Z</time>
      </trkpt>
      <trkpt lat="44.06993" lon="3.13188">
        <ele>780.5</ele>
        <time>2019-05-31T09:40:30Z</time>
      </trkpt>
      <trkpt lat="44.06991" lon="3.13195">
        <ele>780.8</ele>
        <time>2019-05-31T09:40:32Z</time>
      </trkpt>
      <trkpt lat="44.0699" lon="3.13201">
        <ele>781.1</ele>
        <time>2019-05-31T09:40:34Z</time>
      </trkpt>
      <trkpt lat="44.0699" lon="3.13206">
        <ele>781.2</ele>
        <time>2019-05-31T09:40:35Z</time>
      </trkpt>
      <trkpt lat="44.06989" lon="3.1321">
        <ele>781.5</ele>
        <time>2019-05-31T09:40:36Z</time>
      </trkpt>
      <trkpt lat="44.06989" lon="3.13214">
        <ele>781.6</ele>
        <time>2019-05-31T09:40:37Z</time>
      </trkpt>
      <trkpt lat="44.0699" lon="3.13218">
        <ele>781.9</ele>
        <time>2019-05-31T09:40:38Z</time>
      </trkpt>
      <trkpt lat="44.06991" lon="3.13222">
        <ele>782.1</ele>
        <time>2019-05-31T09:40:39Z</time>
      </trkpt>
      <trkpt lat="44.06993" lon="3.13226">
        <ele>782.4</ele>
        <time>2019-05-31T09:40:40Z</time>
      </trkpt>
      <trkpt lat="44.06994" lon="3.1323">
        <ele>782.6</ele>
        <time>2019-05-31T09:40:41Z</time>
      </trkpt>
      <trkpt lat="44.06994" lon="3.13234">
        <ele>782.9</ele>
        <time>2019-05-31T09:40:42Z</time>
      </trkpt>
      <trkpt lat="44.06994" lon="3.13238">
        <ele>783.2</ele>
        <time>2019-05-31T09:40:43Z</time>
      </trkpt>
      <trkpt lat="44.06992" lon="3.13244">
        <ele>783.6</ele>
        <time>2019-05-31T09:40:45Z</time>
      </trkpt>
      <trkpt lat="44.0699" lon="3.1325">
        <ele>784</ele>
        <time>2019-05-31T09:40:47Z</time>
      </trkpt>
      <trkpt lat="44.06989" lon="3.13254">
        <ele>784.2</ele>
        <time>2019-05-31T09:40:49Z</time>
      </trkpt>
      <trkpt lat="44.06988" lon="3.13258">
        <ele>784.4</ele>
        <time>2019-05-31T09:40:50Z</time>
      </trkpt>
      <trkpt lat="44.06987" lon="3.13262">
        <ele>784.6</ele>
        <time>2019-05-31T09:40:51Z</time>
      </trkpt>
      <trkpt lat="44.06986" lon="3.13266">
        <ele>784.8</ele>
        <time>2019-05-31T09:40:52Z</time>
      </trkpt>
      <trkpt lat="44.06985" lon="3.13271">
        <ele>784.9</ele>
        <time>2019-05-31T09:40:53Z</time>
      </trkpt>
      <trkpt lat="44.06985" lon="3.13275">
        <ele>785.1</ele>
        <time>2019-05-31T09:40:54Z</time>
      </trkpt>
      <trkpt lat="44.06985" lon="3.13281">
        <ele>785.4</ele>
        <time>2019-05-31T09:40:56Z</time>
      </trkpt>
      <trkpt lat="44.06986" lon="3.13286">
        <ele>785.6</ele>
        <time>2019-05-31T09:40:58Z</time>
      </trkpt>
      <trkpt lat="44.06985" lon="3.13292">
        <ele>785.8</ele>
        <time>2019-05-31T09:41:00Z</time>
      </trkpt>
      <trkpt lat="44.06982" lon="3.13298">
        <ele>786</ele>
        <time>2019-05-31T09:41:02Z</time>
      </trkpt>
      <trkpt lat="44.0698" lon="3.13301">
        <ele>786</ele>
        <time>2019-05-31T09:41:03Z</time>
      </trkpt>
      <trkpt lat="44.06979" lon="3.13304">
        <ele>786</ele>
        <time>2019-05-31T09:41:04Z</time>
      </trkpt>
      <trkpt lat="44.06977" lon="3.13308">
        <ele>786</ele>
        <time>2019-05-31T09:41:05Z</time>
      </trkpt>
      <trkpt lat="44.06976" lon="3.13312">
        <ele>786.1</ele>
        <time>2019-05-31T09:41:06Z</time>
      </trkpt>
      <trkpt lat="44.06975" lon="3.13316">
        <ele>786.1</ele>
        <time>2019-05-31T09:41:07Z</time>
      </trkpt>
      <trkpt lat="44.06975" lon="3.13323">
        <ele>786.2</ele>
        <time>2019-05-31T09:41:09Z</time>
      </trkpt>
      <trkpt lat="44.06975" lon="3.13329">
        <ele>786.3</ele>
        <time>2019-05-31T09:41:11Z</time>
      </trkpt>
      <trkpt lat="44.06975" lon="3.13336">
        <ele>786.4</ele>
        <time>2019-05-31T09:41:13Z</time>
      </trkpt>
      <trkpt lat="44.06972" lon="3.13338">
        <ele>786.4</ele>
        <time>2019-05-31T09:41:15Z</time>
      </trkpt>
      <trkpt lat="44.06968" lon="3.13339">
        <ele>786.5</ele>
        <time>2019-05-31T09:41:17Z</time>
      </trkpt>
      <trkpt lat="44.06965" lon="3.13339">
        <ele>786.6</ele>
        <time>2019-05-31T09:41:19Z</time>
      </trkpt>
      <trkpt lat="44.06962" lon="3.13339">
        <ele>786.7</ele>
        <time>2019-05-31T09:41:25Z</time>
      </trkpt>
      <trkpt lat="44.06957" lon="3.13342">
        <ele>786.8</ele>
        <time>2019-05-31T09:41:27Z</time>
      </trkpt>
      <trkpt lat="44.06955" lon="3.13345">
        <ele>786.9</ele>
        <time>2019-05-31T09:41:28Z</time>
      </trkpt>
      <trkpt lat="44.06953" lon="3.13348">
        <ele>787</ele>
        <time>2019-05-31T09:41:29Z</time>
      </trkpt>
      <trkpt lat="44.0695" lon="3.13353">
        <ele>787.1</ele>
        <time>2019-05-31T09:41:31Z</time>
      </trkpt>
      <trkpt lat="44.06947" lon="3.13355">
        <ele>787.2</ele>
        <time>2019-05-31T09:41:32Z</time>
      </trkpt>
      <trkpt lat="44.06944" lon="3.13358">
        <ele>787.3</ele>
        <time>2019-05-31T09:41:33Z</time>
      </trkpt>
      <trkpt lat="44.06942" lon="3.13361">
        <ele>787.4</ele>
        <time>2019-05-31T09:41:34Z</time>
      </trkpt>
      <trkpt lat="44.0694" lon="3.13364">
        <ele>787.5</ele>
        <time>2019-05-31T09:41:35Z</time>
      </trkpt>
      <trkpt lat="44.06938" lon="3.13367">
        <ele>787.6</ele>
        <time>2019-05-31T09:41:36Z</time>
      </trkpt>
      <trkpt lat="44.06936" lon="3.13371">
        <ele>787.7</ele>
        <time>2019-05-31T09:41:37Z</time>
      </trkpt>
      <trkpt lat="44.06935" lon="3.13375">
        <ele>787.8</ele>
        <time>2019-05-31T09:41:38Z</time>
      </trkpt>
      <trkpt lat="44.06934" lon="3.13378">
        <ele>787.9</ele>
        <time>2019-05-31T09:41:39Z</time>
      </trkpt>
      <trkpt lat="44.06933" lon="3.13382">
        <ele>788</ele>
        <time>2019-05-31T09:41:40Z</time>
      </trkpt>
      <trkpt lat="44.06932" lon="3.13386">
        <ele>788.1</ele>
        <time>2019-05-31T09:41:41Z</time>
      </trkpt>
      <trkpt lat="44.06931" lon="3.1339">
        <ele>788.2</ele>
        <time>2019-05-31T09:41:42Z</time>
      </trkpt>
      <trkpt lat="44.06929" lon="3.13393">
        <ele>788.3</ele>
        <time>2019-05-31T09:41:43Z</time>
      </trkpt>
      <trkpt lat="44.06928" lon="3.13397">
        <ele>788.4</ele>
        <time>2019-05-31T09:41:44Z</time>
      </trkpt>
      <trkpt lat="44.06927" lon="3.13401">
        <ele>788.5</ele>
        <time>2019-05-31T09:41:45Z</time>
      </trkpt>
      <trkpt lat="44.06926" lon="3.13404">
        <ele>788.6</ele>
        <time>2019-05-31T09:41:46Z</time>
      </trkpt>
      <trkpt lat="44.06924" lon="3.13408">
        <ele>788.6</ele>
        <time>2019-05-31T09:41:47Z</time>
      </trkpt>
      <trkpt lat="44.06923" lon="3.13412">
        <ele>788.7</ele>
        <time>2019-05-31T09:41:48Z</time>
      </trkpt>
      <trkpt lat="44.0692" lon="3.13419">
        <ele>788.9</ele>
        <time>2019-05-31T09:41:50Z</time>
      </trkpt>
      <trkpt lat="44.06919" lon="3.13422">
        <ele>789</ele>
        <time>2019-05-31T09:41:51Z</time>
      </trkpt>
      <trkpt lat="44.06918" lon="3.13426">
        <ele>789.1</ele>
        <time>2019-05-31T09:41:52Z</time>
      </trkpt>
      <trkpt lat="44.06916" lon="3.1343">
        <ele>789.2</ele>
        <time>2019-05-31T09:41:53Z</time>
      </trkpt>
      <trkpt lat="44.06914" lon="3.13434">
        <ele>789.3</ele>
        <time>2019-05-31T09:41:54Z</time>
      </trkpt>
      <trkpt lat="44.06912" lon="3.13438">
        <ele>789.4</ele>
        <time>2019-05-31T09:41:55Z</time>
      </trkpt>
      <trkpt lat="44.06911" lon="3.13442">
        <ele>789.5</ele>
        <time>2019-05-31T09:41:56Z</time>
      </trkpt>
      <trkpt lat="44.06909" lon="3.13445">
        <ele>789.6</ele>
        <time>2019-05-31T09:41:57Z</time>
      </trkpt>
      <trkpt lat="44.06908" lon="3.1345">
        <ele>789.8</ele>
        <time>2019-05-31T09:41:58Z</time>
      </trkpt>
      <trkpt lat="44.06906" lon="3.13453">
        <ele>789.9</ele>
        <time>2019-05-31T09:41:59Z</time>
      </trkpt>
      <trkpt lat="44.06904" lon="3.13457">
        <ele>790</ele>
        <time>2019-05-31T09:42:00Z</time>
      </trkpt>
      <trkpt lat="44.06902" lon="3.1346">
        <ele>790.1</ele>
        <time>2019-05-31T09:42:01Z</time>
      </trkpt>
      <trkpt lat="44.069" lon="3.13463">
        <ele>790.3</ele>
        <time>2019-05-31T09:42:02Z</time>
      </trkpt>
      <trkpt lat="44.06896" lon="3.13467">
        <ele>790.4</ele>
        <time>2019-05-31T09:42:04Z</time>
      </trkpt>
      <trkpt lat="44.06892" lon="3.13469">
        <ele>790.6</ele>
        <time>2019-05-31T09:42:06Z</time>
      </trkpt>
      <trkpt lat="44.0689" lon="3.13471">
        <ele>790.7</ele>
        <time>2019-05-31T09:42:07Z</time>
      </trkpt>
      <trkpt lat="44.06887" lon="3.13472">
        <ele>790.8</ele>
        <time>2019-05-31T09:42:08Z</time>
      </trkpt>
      <trkpt lat="44.06884" lon="3.13473">
        <ele>791</ele>
        <time>2019-05-31T09:42:09Z</time>
      </trkpt>
      <trkpt lat="44.0688" lon="3.13474">
        <ele>791.1</ele>
        <time>2019-05-31T09:42:10Z</time>
      </trkpt>
      <trkpt lat="44.06877" lon="3.13475">
        <ele>791.2</ele>
        <time>2019-05-31T09:42:11Z</time>
      </trkpt>
      <trkpt lat="44.06874" lon="3.13476">
        <ele>791.3</ele>
        <time>2019-05-31T09:42:12Z</time>
      </trkpt>
      <trkpt lat="44.0687" lon="3.1348">
        <ele>791.4</ele>
        <time>2019-05-31T09:42:14Z</time>
      </trkpt>
      <trkpt lat="44.06868" lon="3.13483">
        <ele>791.5</ele>
        <time>2019-05-31T09:42:15Z</time>
      </trkpt>
      <trkpt lat="44.06865" lon="3.13485">
        <ele>791.7</ele>
        <time>2019-05-31T09:42:16Z</time>
      </trkpt>
      <trkpt lat="44.06862" lon="3.13487">
        <ele>791.8</ele>
        <time>2019-05-31T09:42:17Z</time>
      </trkpt>
      <trkpt lat="44.0686" lon="3.1349">
        <ele>791.9</ele>
        <time>2019-05-31T09:42:18Z</time>
      </trkpt>
      <trkpt lat="44.06857" lon="3.13492">
        <ele>792.1</ele>
        <time>2019-05-31T09:42:19Z</time>
      </trkpt>
      <trkpt lat="44.06855" lon="3.13495">
        <ele>792.2</ele>
        <time>2019-05-31T09:42:20Z</time>
      </trkpt>
      <trkpt lat="44.06852" lon="3.13497">
        <ele>792.3</ele>
        <time>2019-05-31T09:42:21Z</time>
      </trkpt>
      <trkpt lat="44.06848" lon="3.13501">
        <ele>792.6</ele>
        <time>2019-05-31T09:42:23Z</time>
      </trkpt>
      <trkpt lat="44.06845" lon="3.13504">
        <ele>792.8</ele>
        <time>2019-05-31T09:42:24Z</time>
      </trkpt>
      <trkpt lat="44.06842" lon="3.13506">
        <ele>793</ele>
        <time>2019-05-31T09:42:25Z</time>
      </trkpt>
      <trkpt lat="44.06839" lon="3.13508">
        <ele>793.3</ele>
        <time>2019-05-31T09:42:26Z</time>
      </trkpt>
      <trkpt lat="44.06836" lon="3.1351">
        <ele>793.6</ele>
        <time>2019-05-31T09:42:27Z</time>
      </trkpt>
      <trkpt lat="44.06833" lon="3.13511">
        <ele>793.8</ele>
        <time>2019-05-31T09:42:28Z</time>
      </trkpt>
      <trkpt lat="44.06829" lon="3.13512">
        <ele>794.2</ele>
        <time>2019-05-31T09:42:30Z</time>
      </trkpt>
      <trkpt lat="44.06824" lon="3.13513">
        <ele>794.5</ele>
        <time>2019-05-31T09:42:32Z</time>
      </trkpt>
      <trkpt lat="44.0682" lon="3.13515">
        <ele>794.8</ele>
        <time>2019-05-31T09:42:34Z</time>
      </trkpt>
      <trkpt lat="44.06816" lon="3.13517">
        <ele>795.1</ele>
        <time>2019-05-31T09:42:36Z</time>
      </trkpt>
      <trkpt lat="44.06812" lon="3.1352">
        <ele>795.4</ele>
        <time>2019-05-31T09:42:38Z</time>
      </trkpt>
      <trkpt lat="44.06808" lon="3.13523">
        <ele>795.7</ele>
        <time>2019-05-31T09:42:40Z</time>
      </trkpt>
      <trkpt lat="44.06804" lon="3.13526">
        <ele>795.9</ele>
        <time>2019-05-31T09:42:42Z</time>
      </trkpt>
      <trkpt lat="44.06802" lon="3.13528">
        <ele>796</ele>
        <time>2019-05-31T09:42:43Z</time>
      </trkpt>
      <trkpt lat="44.06798" lon="3.13533">
        <ele>796.3</ele>
        <time>2019-05-31T09:42:45Z</time>
      </trkpt>
      <trkpt lat="44.06796" lon="3.13536">
        <ele>796.4</ele>
        <time>2019-05-31T09:42:46Z</time>
      </trkpt>
      <trkpt lat="44.06793" lon="3.13539">
        <ele>796.6</ele>
        <time>2019-05-31T09:42:47Z</time>
      </trkpt>
      <trkpt lat="44.06791" lon="3.13542">
        <ele>796.7</ele>
        <time>2019-05-31T09:42:48Z</time>
      </trkpt>
      <trkpt lat="44.06785" lon="3.13544">
        <ele>797.1</ele>
        <time>2019-05-31T09:42:50Z</time>
      </trkpt>
      <trkpt lat="44.06781" lon="3.13545">
        <ele>797.3</ele>
        <time>2019-05-31T09:42:51Z</time>
      </trkpt>
      <trkpt lat="44.06778" lon="3.13545">
        <ele>797.5</ele>
        <time>2019-05-31T09:42:52Z</time>
      </trkpt>
      <trkpt lat="44.06774" lon="3.13546">
        <ele>797.7</ele>
        <time>2019-05-31T09:42:53Z</time>
      </trkpt>
      <trkpt lat="44.06771" lon="3.13548">
        <ele>797.8</ele>
        <time>2019-05-31T09:42:54Z</time>
      </trkpt>
      <trkpt lat="44.06768" lon="3.1355">
        <ele>798</ele>
        <time>2019-05-31T09:42:56Z</time>
      </trkpt>
      <trkpt lat="44.06765" lon="3.13551">
        <ele>798.2</ele>
        <time>2019-05-31T09:42:57Z</time>
      </trkpt>
      <trkpt lat="44.06761" lon="3.13551">
        <ele>798.4</ele>
        <time>2019-05-31T09:42:58Z</time>
      </trkpt>
      <trkpt lat="44.06758" lon="3.13551">
        <ele>798.6</ele>
        <time>2019-05-31T09:42:59Z</time>
      </trkpt>
      <trkpt lat="44.06754" lon="3.13553">
        <ele>798.8</ele>
        <time>2019-05-31T09:43:00Z</time>
      </trkpt>
      <trkpt lat="44.06751" lon="3.13555">
        <ele>799</ele>
        <time>2019-05-31T09:43:01Z</time>
      </trkpt>
      <trkpt lat="44.06748" lon="3.13557">
        <ele>799.1</ele>
        <time>2019-05-31T09:43:02Z</time>
      </trkpt>
      <trkpt lat="44.06746" lon="3.1356">
        <ele>799.3</ele>
        <time>2019-05-31T09:43:03Z</time>
      </trkpt>
      <trkpt lat="44.06744" lon="3.13563">
        <ele>799.5</ele>
        <time>2019-05-31T09:43:04Z</time>
      </trkpt>
      <trkpt lat="44.06742" lon="3.13567">
        <ele>799.7</ele>
        <time>2019-05-31T09:43:05Z</time>
      </trkpt>
      <trkpt lat="44.06739" lon="3.1357">
        <ele>799.9</ele>
        <time>2019-05-31T09:43:06Z</time>
      </trkpt>
      <trkpt lat="44.06737" lon="3.13573">
        <ele>800.1</ele>
        <time>2019-05-31T09:43:07Z</time>
      </trkpt>
      <trkpt lat="44.06735" lon="3.13576">
        <ele>800.4</ele>
        <time>2019-05-31T09:43:08Z</time>
      </trkpt>
      <trkpt lat="44.06731" lon="3.13581">
        <ele>800.7</ele>
        <time>2019-05-31T09:43:09Z</time>
      </trkpt>
      <trkpt lat="44.06729" lon="3.13584">
        <ele>800.9</ele>
        <time>2019-05-31T09:43:10Z</time>
      </trkpt>
      <trkpt lat="44.06727" lon="3.13588">
        <ele>801.1</ele>
        <time>2019-05-31T09:43:11Z</time>
      </trkpt>
      <trkpt lat="44.06726" lon="3.13592">
        <ele>801.2</ele>
        <time>2019-05-31T09:43:12Z</time>
      </trkpt>
      <trkpt lat="44.06724" lon="3.13596">
        <ele>801.4</ele>
        <time>2019-05-31T09:43:13Z</time>
      </trkpt>
      <trkpt lat="44.06721" lon="3.136">
        <ele>801.6</ele>
        <time>2019-05-31T09:43:14Z</time>
      </trkpt>
      <trkpt lat="44.06718" lon="3.13603">
        <ele>801.8</ele>
        <time>2019-05-31T09:43:15Z</time>
      </trkpt>
      <trkpt lat="44.06715" lon="3.13606">
        <ele>801.9</ele>
        <time>2019-05-31T09:43:16Z</time>
      </trkpt>
      <trkpt lat="44.06712" lon="3.13608">
        <ele>802</ele>
        <time>2019-05-31T09:43:17Z</time>
      </trkpt>
      <trkpt lat="44.06709" lon="3.13609">
        <ele>802.2</ele>
        <time>2019-05-31T09:43:18Z</time>
      </trkpt>
      <trkpt lat="44.06707" lon="3.1361">
        <ele>802.3</ele>
        <time>2019-05-31T09:43:19Z</time>
      </trkpt>
      <trkpt lat="44.06704" lon="3.13612">
        <ele>802.4</ele>
        <time>2019-05-31T09:43:20Z</time>
      </trkpt>
      <trkpt lat="44.06701" lon="3.13614">
        <ele>802.5</ele>
        <time>2019-05-31T09:43:21Z</time>
      </trkpt>
      <trkpt lat="44.06698" lon="3.13617">
        <ele>802.6</ele>
        <time>2019-05-31T09:43:22Z</time>
      </trkpt>
      <trkpt lat="44.06695" lon="3.13622">
        <ele>802.8</ele>
        <time>2019-05-31T09:43:24Z</time>
      </trkpt>
      <trkpt lat="44.06693" lon="3.13625">
        <ele>802.9</ele>
        <time>2019-05-31T09:43:25Z</time>
      </trkpt>
      <trkpt lat="44.06691" lon="3.13628">
        <ele>803</ele>
        <time>2019-05-31T09:43:26Z</time>
      </trkpt>
      <trkpt lat="44.06688" lon="3.13632">
        <ele>803.1</ele>
        <time>2019-05-31T09:43:27Z</time>
      </trkpt>
      <trkpt lat="44.06686" lon="3.13636">
        <ele>803.2</ele>
        <time>2019-05-31T09:43:28Z</time>
      </trkpt>
      <trkpt lat="44.06684" lon="3.13639">
        <ele>803.3</ele>
        <time>2019-05-31T09:43:29Z</time>
      </trkpt>
      <trkpt lat="44.06682" lon="3.13642">
        <ele>803.4</ele>
        <time>2019-05-31T09:43:30Z</time>
      </trkpt>
      <trkpt lat="44.0668" lon="3.13648">
        <ele>803.5</ele>
        <time>2019-05-31T09:43:32Z</time>
      </trkpt>
      <trkpt lat="44.06677" lon="3.13654">
        <ele>803.7</ele>
        <time>2019-05-31T09:43:34Z</time>
      </trkpt>
      <trkpt lat="44.06672" lon="3.13658">
        <ele>803.8</ele>
        <time>2019-05-31T09:43:36Z</time>
      </trkpt>
      <trkpt lat="44.06669" lon="3.13659">
        <ele>803.9</ele>
        <time>2019-05-31T09:43:37Z</time>
      </trkpt>
      <trkpt lat="44.06667" lon="3.13661">
        <ele>804</ele>
        <time>2019-05-31T09:43:38Z</time>
      </trkpt>
      <trkpt lat="44.06664" lon="3.13661">
        <ele>804.1</ele>
        <time>2019-05-31T09:43:39Z</time>
      </trkpt>
      <trkpt lat="44.0666" lon="3.13664">
        <ele>804.2</ele>
        <time>2019-05-31T09:43:41Z</time>
      </trkpt>
      <trkpt lat="44.06658" lon="3.13667">
        <ele>804.3</ele>
        <time>2019-05-31T09:43:42Z</time>
      </trkpt>
      <trkpt lat="44.06656" lon="3.13671">
        <ele>804.4</ele>
        <time>2019-05-31T09:43:43Z</time>
      </trkpt>
      <trkpt lat="44.06653" lon="3.13677">
        <ele>804.6</ele>
        <time>2019-05-31T09:43:45Z</time>
      </trkpt>
      <trkpt lat="44.0665" lon="3.13681">
        <ele>804.7</ele>
        <time>2019-05-31T09:43:47Z</time>
      </trkpt>
      <trkpt lat="44.06647" lon="3.13684">
        <ele>804.9</ele>
        <time>2019-05-31T09:43:49Z</time>
      </trkpt>
      <trkpt lat="44.06644" lon="3.13688">
        <ele>805.1</ele>
        <time>2019-05-31T09:43:51Z</time>
      </trkpt>
      <trkpt lat="44.06641" lon="3.13692">
        <ele>805.4</ele>
        <time>2019-05-31T09:43:53Z</time>
      </trkpt>
      <trkpt lat="44.06637" lon="3.13695">
        <ele>805.7</ele>
        <time>2019-05-31T09:43:55Z</time>
      </trkpt>
      <trkpt lat="44.06633" lon="3.13698">
        <ele>806</ele>
        <time>2019-05-31T09:43:57Z</time>
      </trkpt>
      <trkpt lat="44.06631" lon="3.13699">
        <ele>806.1</ele>
        <time>2019-05-31T09:43:59Z</time>
      </trkpt>
      <trkpt lat="44.06628" lon="3.13703">
        <ele>806.4</ele>
        <time>2019-05-31T09:44:01Z</time>
      </trkpt>
      <trkpt lat="44.06624" lon="3.13708">
        <ele>806.7</ele>
        <time>2019-05-31T09:44:03Z</time>
      </trkpt>
      <trkpt lat="44.06622" lon="3.1371">
        <ele>806.9</ele>
        <time>2019-05-31T09:44:04Z</time>
      </trkpt>
      <trkpt lat="44.06618" lon="3.13715">
        <ele>807.1</ele>
        <time>2019-05-31T09:44:06Z</time>
      </trkpt>
      <trkpt lat="44.06616" lon="3.13717">
        <ele>807.2</ele>
        <time>2019-05-31T09:44:07Z</time>
      </trkpt>
      <trkpt lat="44.06613" lon="3.13722">
        <ele>807.5</ele>
        <time>2019-05-31T09:44:09Z</time>
      </trkpt>
      <trkpt lat="44.06608" lon="3.13726">
        <ele>807.7</ele>
        <time>2019-05-31T09:44:11Z</time>
      </trkpt>
      <trkpt lat="44.06605" lon="3.13729">
        <ele>807.9</ele>
        <time>2019-05-31T09:44:13Z</time>
      </trkpt>
      <trkpt lat="44.06601" lon="3.13732">
        <ele>808.1</ele>
        <time>2019-05-31T09:44:15Z</time>
      </trkpt>
      <trkpt lat="44.06598" lon="3.13735">
        <ele>808.3</ele>
        <time>2019-05-31T09:44:17Z</time>
      </trkpt>
      <trkpt lat="44.06595" lon="3.1374">
        <ele>808.5</ele>
        <time>2019-05-31T09:44:19Z</time>
      </trkpt>
      <trkpt lat="44.06593" lon="3.13745">
        <ele>808.8</ele>
        <time>2019-05-31T09:44:21Z</time>
      </trkpt>
      <trkpt lat="44.0659" lon="3.13749">
        <ele>809.2</ele>
        <time>2019-05-31T09:44:23Z</time>
      </trkpt>
      <trkpt lat="44.06587" lon="3.13754">
        <ele>809.5</ele>
        <time>2019-05-31T09:44:25Z</time>
      </trkpt>
      <trkpt lat="44.06585" lon="3.13757">
        <ele>809.8</ele>
        <time>2019-05-31T09:44:26Z</time>
      </trkpt>
      <trkpt lat="44.06582" lon="3.13762">
        <ele>810.2</ele>
        <time>2019-05-31T09:44:28Z</time>
      </trkpt>
      <trkpt lat="44.06581" lon="3.13765">
        <ele>810.5</ele>
        <time>2019-05-31T09:44:29Z</time>
      </trkpt>
      <trkpt lat="44.06579" lon="3.13769">
        <ele>810.8</ele>
        <time>2019-05-31T09:44:30Z</time>
      </trkpt>
      <trkpt lat="44.06576" lon="3.13773">
        <ele>810.9</ele>
        <time>2019-05-31T09:44:32Z</time>
      </trkpt>
      <trkpt lat="44.06571" lon="3.13775">
        <ele>810.6</ele>
        <time>2019-05-31T09:44:34Z</time>
      </trkpt>
      <trkpt lat="44.06569" lon="3.13778">
        <ele>810.4</ele>
        <time>2019-05-31T09:44:36Z</time>
      </trkpt>
      <trkpt lat="44.06568" lon="3.13783">
        <ele>810.1</ele>
        <time>2019-05-31T09:44:38Z</time>
      </trkpt>
      <trkpt lat="44.06569" lon="3.13787">
        <ele>809.9</ele>
        <time>2019-05-31T09:44:40Z</time>
      </trkpt>
      <trkpt lat="44.06569" lon="3.13792">
        <ele>809.7</ele>
        <time>2019-05-31T09:44:42Z</time>
      </trkpt>
      <trkpt lat="44.0657" lon="3.13797">
        <ele>809.4</ele>
        <time>2019-05-31T09:44:44Z</time>
      </trkpt>
      <trkpt lat="44.06572" lon="3.13802">
        <ele>809.1</ele>
        <time>2019-05-31T09:44:46Z</time>
      </trkpt>
      <trkpt lat="44.06572" lon="3.13807">
        <ele>809.4</ele>
        <time>2019-05-31T09:44:48Z</time>
      </trkpt>
      <trkpt lat="44.06571" lon="3.13813">
        <ele>809.7</ele>
        <time>2019-05-31T09:44:50Z</time>
      </trkpt>
      <trkpt lat="44.06569" lon="3.13816">
        <ele>809.9</ele>
        <time>2019-05-31T09:44:51Z</time>
      </trkpt>
      <trkpt lat="44.06567" lon="3.1382">
        <ele>810.2</ele>
        <time>2019-05-31T09:44:52Z</time>
      </trkpt>
      <trkpt lat="44.06564" lon="3.13824">
        <ele>810.6</ele>
        <time>2019-05-31T09:44:53Z</time>
      </trkpt>
      <trkpt lat="44.0656" lon="3.13827">
        <ele>810.8</ele>
        <time>2019-05-31T09:44:54Z</time>
      </trkpt>
      <trkpt lat="44.06557" lon="3.13831">
        <ele>811.2</ele>
        <time>2019-05-31T09:44:55Z</time>
      </trkpt>
      <trkpt lat="44.06552" lon="3.13834">
        <ele>812</ele>
        <time>2019-05-31T09:44:56Z</time>
      </trkpt>
      <trkpt lat="44.06549" lon="3.13838">
        <ele>812.5</ele>
        <time>2019-05-31T09:44:57Z</time>
      </trkpt>
      <trkpt lat="44.06546" lon="3.13843">
        <ele>812.7</ele>
        <time>2019-05-31T09:44:58Z</time>
      </trkpt>
      <trkpt lat="44.06542" lon="3.13848">
        <ele>812.4</ele>
        <time>2019-05-31T09:44:59Z</time>
      </trkpt>
      <trkpt lat="44.06539" lon="3.13853">
        <ele>812.6</ele>
        <time>2019-05-31T09:45:00Z</time>
      </trkpt>
      <trkpt lat="44.06536" lon="3.13859">
        <ele>813</ele>
        <time>2019-05-31T09:45:01Z</time>
      </trkpt>
      <trkpt lat="44.06532" lon="3.13863">
        <ele>813.8</ele>
        <time>2019-05-31T09:45:02Z</time>
      </trkpt>
      <trkpt lat="44.06528" lon="3.13865">
        <ele>814.5</ele>
        <time>2019-05-31T09:45:03Z</time>
      </trkpt>
      <trkpt lat="44.06525" lon="3.13868">
        <ele>815.1</ele>
        <time>2019-05-31T09:45:04Z</time>
      </trkpt>
      <trkpt lat="44.06523" lon="3.1387">
        <ele>815.6</ele>
        <time>2019-05-31T09:45:05Z</time>
      </trkpt>
      <trkpt lat="44.06519" lon="3.13873">
        <ele>816.1</ele>
        <time>2019-05-31T09:45:07Z</time>
      </trkpt>
      <trkpt lat="44.06516" lon="3.13876">
        <ele>816.2</ele>
        <time>2019-05-31T09:45:09Z</time>
      </trkpt>
      <trkpt lat="44.06512" lon="3.13879">
        <ele>816.4</ele>
        <time>2019-05-31T09:45:11Z</time>
      </trkpt>
      <trkpt lat="44.06509" lon="3.13881">
        <ele>816.5</ele>
        <time>2019-05-31T09:45:13Z</time>
      </trkpt>
      <trkpt lat="44.06505" lon="3.13883">
        <ele>817.2</ele>
        <time>2019-05-31T09:45:15Z</time>
      </trkpt>
      <trkpt lat="44.06502" lon="3.13883">
        <ele>817.8</ele>
        <time>2019-05-31T09:45:17Z</time>
      </trkpt>
      <trkpt lat="44.06499" lon="3.13883">
        <ele>818.2</ele>
        <time>2019-05-31T09:45:19Z</time>
      </trkpt>
      <trkpt lat="44.06496" lon="3.13887">
        <ele>818.8</ele>
        <time>2019-05-31T09:45:21Z</time>
      </trkpt>
      <trkpt lat="44.06494" lon="3.13891">
        <ele>819.2</ele>
        <time>2019-05-31T09:45:23Z</time>
      </trkpt>
      <trkpt lat="44.06491" lon="3.13894">
        <ele>819.4</ele>
        <time>2019-05-31T09:45:25Z</time>
      </trkpt>
      <trkpt lat="44.06488" lon="3.13894">
        <ele>819.9</ele>
        <time>2019-05-31T09:45:27Z</time>
      </trkpt>
      <trkpt lat="44.06486" lon="3.1389">
        <ele>820.5</ele>
        <time>2019-05-31T09:45:29Z</time>
      </trkpt>
      <trkpt lat="44.06484" lon="3.13886">
        <ele>821.3</ele>
        <time>2019-05-31T09:45:31Z</time>
      </trkpt>
      <trkpt lat="44.06481" lon="3.13884">
        <ele>821.5</ele>
        <time>2019-05-31T09:45:33Z</time>
      </trkpt>
      <trkpt lat="44.06477" lon="3.13885">
        <ele>821.5</ele>
        <time>2019-05-31T09:45:36Z</time>
      </trkpt>
      <trkpt lat="44.06474" lon="3.13887">
        <ele>821.7</ele>
        <time>2019-05-31T09:45:38Z</time>
      </trkpt>
      <trkpt lat="44.06471" lon="3.13889">
        <ele>821.8</ele>
        <time>2019-05-31T09:45:40Z</time>
      </trkpt>
      <trkpt lat="44.06467" lon="3.13891">
        <ele>822</ele>
        <time>2019-05-31T09:45:43Z</time>
      </trkpt>
      <trkpt lat="44.06464" lon="3.13891">
        <ele>822.1</ele>
        <time>2019-05-31T09:45:45Z</time>
      </trkpt>
      <trkpt lat="44.06461" lon="3.13892">
        <ele>822.3</ele>
        <time>2019-05-31T09:45:47Z</time>
      </trkpt>
      <trkpt lat="44.06457" lon="3.13893">
        <ele>822.5</ele>
        <time>2019-05-31T09:45:49Z</time>
      </trkpt>
      <trkpt lat="44.06454" lon="3.13893">
        <ele>822.7</ele>
        <time>2019-05-31T09:45:51Z</time>
      </trkpt>
      <trkpt lat="44.06451" lon="3.13895">
        <ele>822.9</ele>
        <time>2019-05-31T09:45:53Z</time>
      </trkpt>
      <trkpt lat="44.06448" lon="3.13893">
        <ele>823.1</ele>
        <time>2019-05-31T09:45:56Z</time>
      </trkpt>
      <trkpt lat="44.06445" lon="3.13891">
        <ele>823.2</ele>
        <time>2019-05-31T09:45:58Z</time>
      </trkpt>
      <trkpt lat="44.06442" lon="3.13892">
        <ele>823.4</ele>
        <time>2019-05-31T09:50:32Z</time>
      </trkpt>
      <trkpt lat="44.0644" lon="3.1389">
        <ele>823.6</ele>
        <time>2019-05-31T09:50:43Z</time>
      </trkpt>
      <trkpt lat="44.0644" lon="3.13894">
        <ele>823.8</ele>
        <time>2019-05-31T09:51:06Z</time>
      </trkpt>
      <trkpt lat="44.06442" lon="3.13897">
        <ele>824</ele>
        <time>2019-05-31T09:51:12Z</time>
      </trkpt>
      <trkpt lat="44.06446" lon="3.13898">
        <ele>824.3</ele>
        <time>2019-05-31T09:51:16Z</time>
      </trkpt>
      <trkpt lat="44.06451" lon="3.13899">
        <ele>823.7</ele>
        <time>2019-05-31T09:51:18Z</time>
      </trkpt>
      <trkpt lat="44.06454" lon="3.139">
        <ele>823.3</ele>
        <time>2019-05-31T09:51:19Z</time>
      </trkpt>
      <trkpt lat="44.0646" lon="3.13898">
        <ele>822.9</ele>
        <time>2019-05-31T09:51:20Z</time>
      </trkpt>
      <trkpt lat="44.06465" lon="3.13896">
        <ele>822.4</ele>
        <time>2019-05-31T09:51:21Z</time>
      </trkpt>
      <trkpt lat="44.0647" lon="3.13894">
        <ele>822</ele>
        <time>2019-05-31T09:51:22Z</time>
      </trkpt>
      <trkpt lat="44.06474" lon="3.13892">
        <ele>821.7</ele>
        <time>2019-05-31T09:51:23Z</time>
      </trkpt>
      <trkpt lat="44.06478" lon="3.13891">
        <ele>821.5</ele>
        <time>2019-05-31T09:51:24Z</time>
      </trkpt>
      <trkpt lat="44.06481" lon="3.13895">
        <ele>820.9</ele>
        <time>2019-05-31T09:51:25Z</time>
      </trkpt>
      <trkpt lat="44.06485" lon="3.13898">
        <ele>820.1</ele>
        <time>2019-05-31T09:51:26Z</time>
      </trkpt>
      <trkpt lat="44.06489" lon="3.13898">
        <ele>819.4</ele>
        <time>2019-05-31T09:51:27Z</time>
      </trkpt>
      <trkpt lat="44.06493" lon="3.13894">
        <ele>819.1</ele>
        <time>2019-05-31T09:51:28Z</time>
      </trkpt>
      <trkpt lat="44.06496" lon="3.13888">
        <ele>818.4</ele>
        <time>2019-05-31T09:51:29Z</time>
      </trkpt>
      <trkpt lat="44.065" lon="3.13885">
        <ele>817.7</ele>
        <time>2019-05-31T09:51:30Z</time>
      </trkpt>
      <trkpt lat="44.06506" lon="3.13882">
        <ele>816.7</ele>
        <time>2019-05-31T09:51:31Z</time>
      </trkpt>
      <trkpt lat="44.06511" lon="3.13876">
        <ele>816.3</ele>
        <time>2019-05-31T09:51:32Z</time>
      </trkpt>
      <trkpt lat="44.06517" lon="3.1387">
        <ele>816.1</ele>
        <time>2019-05-31T09:51:33Z</time>
      </trkpt>
      <trkpt lat="44.06523" lon="3.13867">
        <ele>815.3</ele>
        <time>2019-05-31T09:51:34Z</time>
      </trkpt>
      <trkpt lat="44.06528" lon="3.13865">
        <ele>814.3</ele>
        <time>2019-05-31T09:51:35Z</time>
      </trkpt>
      <trkpt lat="44.06531" lon="3.13862">
        <ele>813.7</ele>
        <time>2019-05-31T09:51:36Z</time>
      </trkpt>
      <trkpt lat="44.06534" lon="3.13859">
        <ele>813.1</ele>
        <time>2019-05-31T09:51:37Z</time>
      </trkpt>
      <trkpt lat="44.06537" lon="3.13855">
        <ele>812.7</ele>
        <time>2019-05-31T09:51:38Z</time>
      </trkpt>
      <trkpt lat="44.06539" lon="3.1385">
        <ele>812.3</ele>
        <time>2019-05-31T09:51:40Z</time>
      </trkpt>
      <trkpt lat="44.0654" lon="3.1384">
        <ele>812.6</ele>
        <time>2019-05-31T09:51:41Z</time>
      </trkpt>
      <trkpt lat="44.06543" lon="3.13838">
        <ele>812.8</ele>
        <time>2019-05-31T09:51:42Z</time>
      </trkpt>
      <trkpt lat="44.06544" lon="3.13835">
        <ele>812.5</ele>
        <time>2019-05-31T09:51:43Z</time>
      </trkpt>
      <trkpt lat="44.06548" lon="3.13832">
        <ele>811.9</ele>
        <time>2019-05-31T09:51:45Z</time>
      </trkpt>
      <trkpt lat="44.06551" lon="3.13829">
        <ele>811.4</ele>
        <time>2019-05-31T09:51:47Z</time>
      </trkpt>
      <trkpt lat="44.06555" lon="3.13825">
        <ele>810.9</ele>
        <time>2019-05-31T09:51:49Z</time>
      </trkpt>
      <trkpt lat="44.06557" lon="3.13822">
        <ele>810.8</ele>
        <time>2019-05-31T09:51:50Z</time>
      </trkpt>
      <trkpt lat="44.0656" lon="3.13816">
        <ele>810.4</ele>
        <time>2019-05-31T09:51:52Z</time>
      </trkpt>
      <trkpt lat="44.06564" lon="3.13813">
        <ele>810</ele>
        <time>2019-05-31T09:51:54Z</time>
      </trkpt>
      <trkpt lat="44.06566" lon="3.1381">
        <ele>809.8</ele>
        <time>2019-05-31T09:51:56Z</time>
      </trkpt>
      <trkpt lat="44.06569" lon="3.13807">
        <ele>809.5</ele>
        <time>2019-05-31T09:51:58Z</time>
      </trkpt>
      <trkpt lat="44.06572" lon="3.13803">
        <ele>809.2</ele>
        <time>2019-05-31T09:52:00Z</time>
      </trkpt>
      <trkpt lat="44.06576" lon="3.13798">
        <ele>809</ele>
        <time>2019-05-31T09:52:02Z</time>
      </trkpt>
      <trkpt lat="44.06579" lon="3.13795">
        <ele>809</ele>
        <time>2019-05-31T09:52:04Z</time>
      </trkpt>
      <trkpt lat="44.06582" lon="3.13792">
        <ele>808.9</ele>
        <time>2019-05-31T09:52:05Z</time>
      </trkpt>
      <trkpt lat="44.06585" lon="3.13788">
        <ele>808.7</ele>
        <time>2019-05-31T09:52:06Z</time>
      </trkpt>
      <trkpt lat="44.0659" lon="3.13781">
        <ele>808.4</ele>
        <time>2019-05-31T09:52:07Z</time>
      </trkpt>
      <trkpt lat="44.06593" lon="3.13778">
        <ele>808.3</ele>
        <time>2019-05-31T09:52:08Z</time>
      </trkpt>
      <trkpt lat="44.06596" lon="3.13773">
        <ele>808.2</ele>
        <time>2019-05-31T09:52:09Z</time>
      </trkpt>
      <trkpt lat="44.06598" lon="3.1377">
        <ele>808.1</ele>
        <time>2019-05-31T09:52:10Z</time>
      </trkpt>
      <trkpt lat="44.06601" lon="3.13768">
        <ele>808</ele>
        <time>2019-05-31T09:52:11Z</time>
      </trkpt>
      <trkpt lat="44.06603" lon="3.13772">
        <ele>807.8</ele>
        <time>2019-05-31T09:52:13Z</time>
      </trkpt>
      <trkpt lat="44.06605" lon="3.13769">
        <ele>807.7</ele>
        <time>2019-05-31T09:52:18Z</time>
      </trkpt>
      <trkpt lat="44.06609" lon="3.13764">
        <ele>807.5</ele>
        <time>2019-05-31T09:52:20Z</time>
      </trkpt>
      <trkpt lat="44.06613" lon="3.13762">
        <ele>807.4</ele>
        <time>2019-05-31T09:52:22Z</time>
      </trkpt>
      <trkpt lat="44.06616" lon="3.1376">
        <ele>807.3</ele>
        <time>2019-05-31T09:52:23Z</time>
      </trkpt>
      <trkpt lat="44.06619" lon="3.13758">
        <ele>807.2</ele>
        <time>2019-05-31T09:52:24Z</time>
      </trkpt>
      <trkpt lat="44.06622" lon="3.13757">
        <ele>807.1</ele>
        <time>2019-05-31T09:52:25Z</time>
      </trkpt>
      <trkpt lat="44.06624" lon="3.13755">
        <ele>807</ele>
        <time>2019-05-31T09:52:26Z</time>
      </trkpt>
      <trkpt lat="44.06628" lon="3.13752">
        <ele>806.8</ele>
        <time>2019-05-31T09:52:27Z</time>
      </trkpt>
      <trkpt lat="44.06632" lon="3.13749">
        <ele>806.7</ele>
        <time>2019-05-31T09:52:28Z</time>
      </trkpt>
      <trkpt lat="44.06635" lon="3.13745">
        <ele>806.4</ele>
        <time>2019-05-31T09:52:29Z</time>
      </trkpt>
      <trkpt lat="44.06639" lon="3.13741">
        <ele>806.1</ele>
        <time>2019-05-31T09:52:30Z</time>
      </trkpt>
      <trkpt lat="44.06643" lon="3.1374">
        <ele>805.8</ele>
        <time>2019-05-31T09:52:31Z</time>
      </trkpt>
      <trkpt lat="44.06647" lon="3.13738">
        <ele>805.5</ele>
        <time>2019-05-31T09:52:32Z</time>
      </trkpt>
      <trkpt lat="44.06652" lon="3.13734">
        <ele>805.2</ele>
        <time>2019-05-31T09:52:33Z</time>
      </trkpt>
      <trkpt lat="44.06656" lon="3.13731">
        <ele>805</ele>
        <time>2019-05-31T09:52:34Z</time>
      </trkpt>
      <trkpt lat="44.0666" lon="3.13728">
        <ele>804.8</ele>
        <time>2019-05-31T09:52:35Z</time>
      </trkpt>
      <trkpt lat="44.06667" lon="3.13725">
        <ele>804.6</ele>
        <time>2019-05-31T09:52:36Z</time>
      </trkpt>
      <trkpt lat="44.06674" lon="3.13723">
        <ele>804.3</ele>
        <time>2019-05-31T09:52:37Z</time>
      </trkpt>
      <trkpt lat="44.0668" lon="3.1372">
        <ele>804.2</ele>
        <time>2019-05-31T09:52:38Z</time>
      </trkpt>
      <trkpt lat="44.06687" lon="3.13715">
        <ele>804.1</ele>
        <time>2019-05-31T09:52:39Z</time>
      </trkpt>
      <trkpt lat="44.06691" lon="3.13711">
        <ele>804</ele>
        <time>2019-05-31T09:52:40Z</time>
      </trkpt>
      <trkpt lat="44.06696" lon="3.1371">
        <ele>803.8</ele>
        <time>2019-05-31T09:52:41Z</time>
      </trkpt>
      <trkpt lat="44.06701" lon="3.13708">
        <ele>803.7</ele>
        <time>2019-05-31T09:52:42Z</time>
      </trkpt>
      <trkpt lat="44.06705" lon="3.13705">
        <ele>803.6</ele>
        <time>2019-05-31T09:52:43Z</time>
      </trkpt>
      <trkpt lat="44.06709" lon="3.13701">
        <ele>803.5</ele>
        <time>2019-05-31T09:52:44Z</time>
      </trkpt>
      <trkpt lat="44.06713" lon="3.13701">
        <ele>803.4</ele>
        <time>2019-05-31T09:52:45Z</time>
      </trkpt>
      <trkpt lat="44.06716" lon="3.137">
        <ele>803.3</ele>
        <time>2019-05-31T09:52:47Z</time>
      </trkpt>
      <trkpt lat="44.06721" lon="3.13695">
        <ele>803.1</ele>
        <time>2019-05-31T09:52:49Z</time>
      </trkpt>
      <trkpt lat="44.06724" lon="3.13692">
        <ele>803.1</ele>
        <time>2019-05-31T09:52:50Z</time>
      </trkpt>
      <trkpt lat="44.06727" lon="3.1369">
        <ele>803</ele>
        <time>2019-05-31T09:52:51Z</time>
      </trkpt>
      <trkpt lat="44.0673" lon="3.13687">
        <ele>802.9</ele>
        <time>2019-05-31T09:52:52Z</time>
      </trkpt>
      <trkpt lat="44.06734" lon="3.13684">
        <ele>802.8</ele>
        <time>2019-05-31T09:52:53Z</time>
      </trkpt>
      <trkpt lat="44.06737" lon="3.13681">
        <ele>802.7</ele>
        <time>2019-05-31T09:52:54Z</time>
      </trkpt>
      <trkpt lat="44.06741" lon="3.13678">
        <ele>802.7</ele>
        <time>2019-05-31T09:52:55Z</time>
      </trkpt>
      <trkpt lat="44.06744" lon="3.13675">
        <ele>802.6</ele>
        <time>2019-05-31T09:52:56Z</time>
      </trkpt>
      <trkpt lat="44.06747" lon="3.13672">
        <ele>802.6</ele>
        <time>2019-05-31T09:52:57Z</time>
      </trkpt>
      <trkpt lat="44.0675" lon="3.13669">
        <ele>802.5</ele>
        <time>2019-05-31T09:52:58Z</time>
      </trkpt>
      <trkpt lat="44.06753" lon="3.13666">
        <ele>802.5</ele>
        <time>2019-05-31T09:52:59Z</time>
      </trkpt>
      <trkpt lat="44.06756" lon="3.13661">
        <ele>802.4</ele>
        <time>2019-05-31T09:53:01Z</time>
      </trkpt>
      <trkpt lat="44.06758" lon="3.13666">
        <ele>802.3</ele>
        <time>2019-05-31T09:53:16Z</time>
      </trkpt>
      <trkpt lat="44.06758" lon="3.13671">
        <ele>802.1</ele>
        <time>2019-05-31T09:53:19Z</time>
      </trkpt>
      <trkpt lat="44.06757" lon="3.13676">
        <ele>801.9</ele>
        <time>2019-05-31T09:53:22Z</time>
      </trkpt>
      <trkpt lat="44.06758" lon="3.13681">
        <ele>801.9</ele>
        <time>2019-05-31T09:53:24Z</time>
      </trkpt>
      <trkpt lat="44.06758" lon="3.13685">
        <ele>801.9</ele>
        <time>2019-05-31T09:53:27Z</time>
      </trkpt>
      <trkpt lat="44.06757" lon="3.13689">
        <ele>801.9</ele>
        <time>2019-05-31T09:53:29Z</time>
      </trkpt>
      <trkpt lat="44.06758" lon="3.13693">
        <ele>801.9</ele>
        <time>2019-05-31T09:53:32Z</time>
      </trkpt>
      <trkpt lat="44.06758" lon="3.13698">
        <ele>801.9</ele>
        <time>2019-05-31T09:53:34Z</time>
      </trkpt>
      <trkpt lat="44.06758" lon="3.13702">
        <ele>801.8</ele>
        <time>2019-05-31T09:53:36Z</time>
      </trkpt>
      <trkpt lat="44.06759" lon="3.13707">
        <ele>801.8</ele>
        <time>2019-05-31T09:53:38Z</time>
      </trkpt>
      <trkpt lat="44.06759" lon="3.13712">
        <ele>801.7</ele>
        <time>2019-05-31T09:53:40Z</time>
      </trkpt>
      <trkpt lat="44.06757" lon="3.13718">
        <ele>801.7</ele>
        <time>2019-05-31T09:53:42Z</time>
      </trkpt>
      <trkpt lat="44.06756" lon="3.13725">
        <ele>801.7</ele>
        <time>2019-05-31T09:53:44Z</time>
      </trkpt>
      <trkpt lat="44.06756" lon="3.13729">
        <ele>801.6</ele>
        <time>2019-05-31T09:53:45Z</time>
      </trkpt>
      <trkpt lat="44.06755" lon="3.13735">
        <ele>801.6</ele>
        <time>2019-05-31T09:53:47Z</time>
      </trkpt>
      <trkpt lat="44.06752" lon="3.1374">
        <ele>801.7</ele>
        <time>2019-05-31T09:53:49Z</time>
      </trkpt>
      <trkpt lat="44.06749" lon="3.13746">
        <ele>801.6</ele>
        <time>2019-05-31T09:53:51Z</time>
      </trkpt>
      <trkpt lat="44.06746" lon="3.13751">
        <ele>801.6</ele>
        <time>2019-05-31T09:53:53Z</time>
      </trkpt>
      <trkpt lat="44.06744" lon="3.13756">
        <ele>801.6</ele>
        <time>2019-05-31T09:53:55Z</time>
      </trkpt>
      <trkpt lat="44.06741" lon="3.1376">
        <ele>801.5</ele>
        <time>2019-05-31T09:53:57Z</time>
      </trkpt>
      <trkpt lat="44.06737" lon="3.13764">
        <ele>801.5</ele>
        <time>2019-05-31T09:53:59Z</time>
      </trkpt>
      <trkpt lat="44.06733" lon="3.13768">
        <ele>801.4</ele>
        <time>2019-05-31T09:54:01Z</time>
      </trkpt>
      <trkpt lat="44.0673" lon="3.13771">
        <ele>801.4</ele>
        <time>2019-05-31T09:54:03Z</time>
      </trkpt>
      <trkpt lat="44.06727" lon="3.13774">
        <ele>801.4</ele>
        <time>2019-05-31T09:54:05Z</time>
      </trkpt>
      <trkpt lat="44.06722" lon="3.13777">
        <ele>801.4</ele>
        <time>2019-05-31T09:54:07Z</time>
      </trkpt>
      <trkpt lat="44.06719" lon="3.13778">
        <ele>801.4</ele>
        <time>2019-05-31T09:54:08Z</time>
      </trkpt>
      <trkpt lat="44.06716" lon="3.13781">
        <ele>801.3</ele>
        <time>2019-05-31T09:54:09Z</time>
      </trkpt>
      <trkpt lat="44.06713" lon="3.13784">
        <ele>801.3</ele>
        <time>2019-05-31T09:54:10Z</time>
      </trkpt>
      <trkpt lat="44.06709" lon="3.13788">
        <ele>801.3</ele>
        <time>2019-05-31T09:54:11Z</time>
      </trkpt>
      <trkpt lat="44.06707" lon="3.13792">
        <ele>801.4</ele>
        <time>2019-05-31T09:54:12Z</time>
      </trkpt>
      <trkpt lat="44.06704" lon="3.13796">
        <ele>801.6</ele>
        <time>2019-05-31T09:54:13Z</time>
      </trkpt>
      <trkpt lat="44.06702" lon="3.13802">
        <ele>801.7</ele>
        <time>2019-05-31T09:54:14Z</time>
      </trkpt>
      <trkpt lat="44.06698" lon="3.13804">
        <ele>801.8</ele>
        <time>2019-05-31T09:54:15Z</time>
      </trkpt>
      <trkpt lat="44.06695" lon="3.13806">
        <ele>801.9</ele>
        <time>2019-05-31T09:54:16Z</time>
      </trkpt>
      <trkpt lat="44.06692" lon="3.1381">
        <ele>802</ele>
        <time>2019-05-31T09:54:17Z</time>
      </trkpt>
      <trkpt lat="44.06688" lon="3.13814">
        <ele>802</ele>
        <time>2019-05-31T09:54:18Z</time>
      </trkpt>
      <trkpt lat="44.06684" lon="3.13819">
        <ele>802</ele>
        <time>2019-05-31T09:54:19Z</time>
      </trkpt>
      <trkpt lat="44.06681" lon="3.13823">
        <ele>802</ele>
        <time>2019-05-31T09:54:20Z</time>
      </trkpt>
      <trkpt lat="44.06677" lon="3.13827">
        <ele>802</ele>
        <time>2019-05-31T09:54:21Z</time>
      </trkpt>
      <trkpt lat="44.06674" lon="3.13831">
        <ele>801.8</ele>
        <time>2019-05-31T09:54:22Z</time>
      </trkpt>
      <trkpt lat="44.06671" lon="3.13838">
        <ele>801.6</ele>
        <time>2019-05-31T09:54:23Z</time>
      </trkpt>
      <trkpt lat="44.06669" lon="3.13843">
        <ele>801.5</ele>
        <time>2019-05-31T09:54:24Z</time>
      </trkpt>
      <trkpt lat="44.06666" lon="3.13849">
        <ele>801.2</ele>
        <time>2019-05-31T09:54:25Z</time>
      </trkpt>
      <trkpt lat="44.06663" lon="3.13852">
        <ele>801.1</ele>
        <time>2019-05-31T09:54:26Z</time>
      </trkpt>
      <trkpt lat="44.06659" lon="3.13858">
        <ele>801</ele>
        <time>2019-05-31T09:54:27Z</time>
      </trkpt>
      <trkpt lat="44.06657" lon="3.13864">
        <ele>800.8</ele>
        <time>2019-05-31T09:54:28Z</time>
      </trkpt>
      <trkpt lat="44.06656" lon="3.13868">
        <ele>800.6</ele>
        <time>2019-05-31T09:54:29Z</time>
      </trkpt>
      <trkpt lat="44.06653" lon="3.13874">
        <ele>800.3</ele>
        <time>2019-05-31T09:54:30Z</time>
      </trkpt>
      <trkpt lat="44.06651" lon="3.13877">
        <ele>800.1</ele>
        <time>2019-05-31T09:54:31Z</time>
      </trkpt>
      <trkpt lat="44.06648" lon="3.13883">
        <ele>799.9</ele>
        <time>2019-05-31T09:54:33Z</time>
      </trkpt>
      <trkpt lat="44.06645" lon="3.13886">
        <ele>799.8</ele>
        <time>2019-05-31T09:54:34Z</time>
      </trkpt>
      <trkpt lat="44.06642" lon="3.13891">
        <ele>799.8</ele>
        <time>2019-05-31T09:54:35Z</time>
      </trkpt>
      <trkpt lat="44.06639" lon="3.13894">
        <ele>799.9</ele>
        <time>2019-05-31T09:54:36Z</time>
      </trkpt>
      <trkpt lat="44.06637" lon="3.13898">
        <ele>799.9</ele>
        <time>2019-05-31T09:54:37Z</time>
      </trkpt>
      <trkpt lat="44.06635" lon="3.13902">
        <ele>800.1</ele>
        <time>2019-05-31T09:54:38Z</time>
      </trkpt>
      <trkpt lat="44.06633" lon="3.13906">
        <ele>800.2</ele>
        <time>2019-05-31T09:54:39Z</time>
      </trkpt>
      <trkpt lat="44.0663" lon="3.13909">
        <ele>800.3</ele>
        <time>2019-05-31T09:54:40Z</time>
      </trkpt>
      <trkpt lat="44.06628" lon="3.13912">
        <ele>800.4</ele>
        <time>2019-05-31T09:54:41Z</time>
      </trkpt>
      <trkpt lat="44.06626" lon="3.13916">
        <ele>800.5</ele>
        <time>2019-05-31T09:54:42Z</time>
      </trkpt>
      <trkpt lat="44.06625" lon="3.13922">
        <ele>800.6</ele>
        <time>2019-05-31T09:54:44Z</time>
      </trkpt>
      <trkpt lat="44.06625" lon="3.13926">
        <ele>800.6</ele>
        <time>2019-05-31T09:54:46Z</time>
      </trkpt>
      <trkpt lat="44.06622" lon="3.13929">
        <ele>800.7</ele>
        <time>2019-05-31T09:54:50Z</time>
      </trkpt>
      <trkpt lat="44.0662" lon="3.13933">
        <ele>800.8</ele>
        <time>2019-05-31T09:55:26Z</time>
      </trkpt>
      <trkpt lat="44.06617" lon="3.13938">
        <ele>800.9</ele>
        <time>2019-05-31T09:55:28Z</time>
      </trkpt>
      <trkpt lat="44.06614" lon="3.13943">
        <ele>800.9</ele>
        <time>2019-05-31T09:55:30Z</time>
      </trkpt>
      <trkpt lat="44.06613" lon="3.13947">
        <ele>800.9</ele>
        <time>2019-05-31T09:55:31Z</time>
      </trkpt>
      <trkpt lat="44.06612" lon="3.1395">
        <ele>800.8</ele>
        <time>2019-05-31T09:55:32Z</time>
      </trkpt>
      <trkpt lat="44.06611" lon="3.13954">
        <ele>800.8</ele>
        <time>2019-05-31T09:55:33Z</time>
      </trkpt>
      <trkpt lat="44.06609" lon="3.13959">
        <ele>800.7</ele>
        <time>2019-05-31T09:55:34Z</time>
      </trkpt>
      <trkpt lat="44.06609" lon="3.13966">
        <ele>800.8</ele>
        <time>2019-05-31T09:55:36Z</time>
      </trkpt>
      <trkpt lat="44.06609" lon="3.13971">
        <ele>800.8</ele>
        <time>2019-05-31T09:55:37Z</time>
      </trkpt>
      <trkpt lat="44.06609" lon="3.13976">
        <ele>800.8</ele>
        <time>2019-05-31T09:55:38Z</time>
      </trkpt>
      <trkpt lat="44.06608" lon="3.1398">
        <ele>800.8</ele>
        <time>2019-05-31T09:55:39Z</time>
      </trkpt>
      <trkpt lat="44.06607" lon="3.13984">
        <ele>800.9</ele>
        <time>2019-05-31T09:55:40Z</time>
      </trkpt>
      <trkpt lat="44.06607" lon="3.13988">
        <ele>800.9</ele>
        <time>2019-05-31T09:55:41Z</time>
      </trkpt>
      <trkpt lat="44.06606" lon="3.13991">
        <ele>801</ele>
        <time>2019-05-31T09:55:42Z</time>
      </trkpt>
      <trkpt lat="44.06605" lon="3.13996">
        <ele>801.1</ele>
        <time>2019-05-31T09:55:43Z</time>
      </trkpt>
      <trkpt lat="44.06605" lon="3.14">
        <ele>801.2</ele>
        <time>2019-05-31T09:55:44Z</time>
      </trkpt>
      <trkpt lat="44.06604" lon="3.14004">
        <ele>801.3</ele>
        <time>2019-05-31T09:55:45Z</time>
      </trkpt>
      <trkpt lat="44.06604" lon="3.14009">
        <ele>801.4</ele>
        <time>2019-05-31T09:55:46Z</time>
      </trkpt>
      <trkpt lat="44.06603" lon="3.14013">
        <ele>801.5</ele>
        <time>2019-05-31T09:55:47Z</time>
      </trkpt>
      <trkpt lat="44.06601" lon="3.14016">
        <ele>801.6</ele>
        <time>2019-05-31T09:55:48Z</time>
      </trkpt>
      <trkpt lat="44.06599" lon="3.1402">
        <ele>801.6</ele>
        <time>2019-05-31T09:55:49Z</time>
      </trkpt>
      <trkpt lat="44.06598" lon="3.14024">
        <ele>801.6</ele>
        <time>2019-05-31T09:55:50Z</time>
      </trkpt>
      <trkpt lat="44.06596" lon="3.14028">
        <ele>801.6</ele>
        <time>2019-05-31T09:55:51Z</time>
      </trkpt>
      <trkpt lat="44.06594" lon="3.14031">
        <ele>801.5</ele>
        <time>2019-05-31T09:55:52Z</time>
      </trkpt>
      <trkpt lat="44.06592" lon="3.14035">
        <ele>801.4</ele>
        <time>2019-05-31T09:55:53Z</time>
      </trkpt>
      <trkpt lat="44.0659" lon="3.14039">
        <ele>801.2</ele>
        <time>2019-05-31T09:55:54Z</time>
      </trkpt>
      <trkpt lat="44.06587" lon="3.14042">
        <ele>801.1</ele>
        <time>2019-05-31T09:55:55Z</time>
      </trkpt>
      <trkpt lat="44.06584" lon="3.14046">
        <ele>800.9</ele>
        <time>2019-05-31T09:55:56Z</time>
      </trkpt>
      <trkpt lat="44.06581" lon="3.14048">
        <ele>800.8</ele>
        <time>2019-05-31T09:55:57Z</time>
      </trkpt>
      <trkpt lat="44.06578" lon="3.14052">
        <ele>800.8</ele>
        <time>2019-05-31T09:55:58Z</time>
      </trkpt>
      <trkpt lat="44.06575" lon="3.14055">
        <ele>800.9</ele>
        <time>2019-05-31T09:55:59Z</time>
      </trkpt>
      <trkpt lat="44.06572" lon="3.14058">
        <ele>801</ele>
        <time>2019-05-31T09:56:00Z</time>
      </trkpt>
      <trkpt lat="44.06568" lon="3.1406">
        <ele>801.1</ele>
        <time>2019-05-31T09:56:01Z</time>
      </trkpt>
      <trkpt lat="44.06564" lon="3.14063">
        <ele>801.1</ele>
        <time>2019-05-31T09:56:02Z</time>
      </trkpt>
      <trkpt lat="44.0656" lon="3.14065">
        <ele>801.2</ele>
        <time>2019-05-31T09:56:03Z</time>
      </trkpt>
      <trkpt lat="44.06557" lon="3.14067">
        <ele>801.2</ele>
        <time>2019-05-31T09:56:04Z</time>
      </trkpt>
      <trkpt lat="44.06553" lon="3.14068">
        <ele>801.2</ele>
        <time>2019-05-31T09:56:05Z</time>
      </trkpt>
      <trkpt lat="44.0655" lon="3.1407">
        <ele>801.3</ele>
        <time>2019-05-31T09:56:06Z</time>
      </trkpt>
      <trkpt lat="44.06546" lon="3.14072">
        <ele>801.4</ele>
        <time>2019-05-31T09:56:07Z</time>
      </trkpt>
      <trkpt lat="44.06542" lon="3.14074">
        <ele>801.6</ele>
        <time>2019-05-31T09:56:08Z</time>
      </trkpt>
      <trkpt lat="44.06539" lon="3.14076">
        <ele>801.8</ele>
        <time>2019-05-31T09:56:09Z</time>
      </trkpt>
      <trkpt lat="44.06535" lon="3.14077">
        <ele>802</ele>
        <time>2019-05-31T09:56:10Z</time>
      </trkpt>
      <trkpt lat="44.0653" lon="3.14078">
        <ele>802.2</ele>
        <time>2019-05-31T09:56:11Z</time>
      </trkpt>
      <trkpt lat="44.06526" lon="3.14078">
        <ele>802.4</ele>
        <time>2019-05-31T09:56:12Z</time>
      </trkpt>
      <trkpt lat="44.06522" lon="3.14077">
        <ele>802.7</ele>
        <time>2019-05-31T09:56:13Z</time>
      </trkpt>
      <trkpt lat="44.06518" lon="3.14077">
        <ele>803</ele>
        <time>2019-05-31T09:56:14Z</time>
      </trkpt>
      <trkpt lat="44.06514" lon="3.14077">
        <ele>803.4</ele>
        <time>2019-05-31T09:56:15Z</time>
      </trkpt>
      <trkpt lat="44.06511" lon="3.14078">
        <ele>803.7</ele>
        <time>2019-05-31T09:56:16Z</time>
      </trkpt>
      <trkpt lat="44.06506" lon="3.1408">
        <ele>804.1</ele>
        <time>2019-05-31T09:56:17Z</time>
      </trkpt>
      <trkpt lat="44.06502" lon="3.14081">
        <ele>804.6</ele>
        <time>2019-05-31T09:56:18Z</time>
      </trkpt>
      <trkpt lat="44.06497" lon="3.14083">
        <ele>805.2</ele>
        <time>2019-05-31T09:56:19Z</time>
      </trkpt>
      <trkpt lat="44.06493" lon="3.14087">
        <ele>805.4</ele>
        <time>2019-05-31T09:56:20Z</time>
      </trkpt>
      <trkpt lat="44.0649" lon="3.1409">
        <ele>805.6</ele>
        <time>2019-05-31T09:56:21Z</time>
      </trkpt>
      <trkpt lat="44.06486" lon="3.14093">
        <ele>805.9</ele>
        <time>2019-05-31T09:56:22Z</time>
      </trkpt>
      <trkpt lat="44.06483" lon="3.14095">
        <ele>806.2</ele>
        <time>2019-05-31T09:56:23Z</time>
      </trkpt>
      <trkpt lat="44.06479" lon="3.14097">
        <ele>806.2</ele>
        <time>2019-05-31T09:56:24Z</time>
      </trkpt>
      <trkpt lat="44.06476" lon="3.14095">
        <ele>806.3</ele>
        <time>2019-05-31T09:56:25Z</time>
      </trkpt>
      <trkpt lat="44.06472" lon="3.14094">
        <ele>806.5</ele>
        <time>2019-05-31T09:56:26Z</time>
      </trkpt>
      <trkpt lat="44.06469" lon="3.14094">
        <ele>806.6</ele>
        <time>2019-05-31T09:56:27Z</time>
      </trkpt>
      <trkpt lat="44.06465" lon="3.14096">
        <ele>806.9</ele>
        <time>2019-05-31T09:56:28Z</time>
      </trkpt>
      <trkpt lat="44.06461" lon="3.14098">
        <ele>807.2</ele>
        <time>2019-05-31T09:56:29Z</time>
      </trkpt>
      <trkpt lat="44.06457" lon="3.14102">
        <ele>807.7</ele>
        <time>2019-05-31T09:56:31Z</time>
      </trkpt>
      <trkpt lat="44.06454" lon="3.14105">
        <ele>807.9</ele>
        <time>2019-05-31T09:56:32Z</time>
      </trkpt>
      <trkpt lat="44.06451" lon="3.14109">
        <ele>808.2</ele>
        <time>2019-05-31T09:56:34Z</time>
      </trkpt>
      <trkpt lat="44.0645" lon="3.14115">
        <ele>808.4</ele>
        <time>2019-05-31T09:56:36Z</time>
      </trkpt>
      <trkpt lat="44.06448" lon="3.14121">
        <ele>808.4</ele>
        <time>2019-05-31T09:56:38Z</time>
      </trkpt>
      <trkpt lat="44.06444" lon="3.14125">
        <ele>808.2</ele>
        <time>2019-05-31T09:56:40Z</time>
      </trkpt>
      <trkpt lat="44.06441" lon="3.14127">
        <ele>808.3</ele>
        <time>2019-05-31T09:56:41Z</time>
      </trkpt>
      <trkpt lat="44.06438" lon="3.14129">
        <ele>808.4</ele>
        <time>2019-05-31T09:56:42Z</time>
      </trkpt>
      <trkpt lat="44.06434" lon="3.14134">
        <ele>808.6</ele>
        <time>2019-05-31T09:56:44Z</time>
      </trkpt>
      <trkpt lat="44.06432" lon="3.14137">
        <ele>808.7</ele>
        <time>2019-05-31T09:56:45Z</time>
      </trkpt>
      <trkpt lat="44.06429" lon="3.1414">
        <ele>808.8</ele>
        <time>2019-05-31T09:56:46Z</time>
      </trkpt>
      <trkpt lat="44.06427" lon="3.14141">
        <ele>809</ele>
        <time>2019-05-31T09:56:47Z</time>
      </trkpt>
      <trkpt lat="44.06424" lon="3.14143">
        <ele>809.2</ele>
        <time>2019-05-31T09:56:48Z</time>
      </trkpt>
      <trkpt lat="44.06421" lon="3.14143">
        <ele>809.3</ele>
        <time>2019-05-31T09:56:49Z</time>
      </trkpt>
      <trkpt lat="44.06417" lon="3.14145">
        <ele>809.4</ele>
        <time>2019-05-31T09:56:51Z</time>
      </trkpt>
      <trkpt lat="44.06412" lon="3.14147">
        <ele>809.6</ele>
        <time>2019-05-31T09:56:53Z</time>
      </trkpt>
      <trkpt lat="44.06409" lon="3.14149">
        <ele>809.7</ele>
        <time>2019-05-31T09:56:54Z</time>
      </trkpt>
      <trkpt lat="44.06406" lon="3.1415">
        <ele>809.8</ele>
        <time>2019-05-31T09:56:55Z</time>
      </trkpt>
      <trkpt lat="44.06402" lon="3.14155">
        <ele>809.9</ele>
        <time>2019-05-31T09:56:57Z</time>
      </trkpt>
      <trkpt lat="44.06399" lon="3.1416">
        <ele>809.9</ele>
        <time>2019-05-31T09:56:58Z</time>
      </trkpt>
      <trkpt lat="44.06397" lon="3.14162">
        <ele>809.8</ele>
        <time>2019-05-31T09:56:59Z</time>
      </trkpt>
      <trkpt lat="44.06394" lon="3.14163">
        <ele>809.8</ele>
        <time>2019-05-31T09:57:01Z</time>
      </trkpt>
      <trkpt lat="44.0639" lon="3.14164">
        <ele>809.8</ele>
        <time>2019-05-31T09:57:03Z</time>
      </trkpt>
      <trkpt lat="44.06387" lon="3.14167">
        <ele>809.8</ele>
        <time>2019-05-31T09:57:05Z</time>
      </trkpt>
      <trkpt lat="44.06384" lon="3.14173">
        <ele>809.8</ele>
        <time>2019-05-31T09:57:07Z</time>
      </trkpt>
      <trkpt lat="44.06381" lon="3.14179">
        <ele>809.8</ele>
        <time>2019-05-31T09:57:09Z</time>
      </trkpt>
      <trkpt lat="44.06379" lon="3.14183">
        <ele>809.8</ele>
        <time>2019-05-31T09:57:10Z</time>
      </trkpt>
      <trkpt lat="44.06377" lon="3.14185">
        <ele>809.8</ele>
        <time>2019-05-31T09:57:11Z</time>
      </trkpt>
      <trkpt lat="44.06375" lon="3.14189">
        <ele>809.8</ele>
        <time>2019-05-31T09:57:12Z</time>
      </trkpt>
      <trkpt lat="44.06373" lon="3.14192">
        <ele>809.8</ele>
        <time>2019-05-31T09:57:13Z</time>
      </trkpt>
      <trkpt lat="44.06371" lon="3.14196">
        <ele>809.8</ele>
        <time>2019-05-31T09:57:14Z</time>
      </trkpt>
      <trkpt lat="44.06369" lon="3.14199">
        <ele>809.8</ele>
        <time>2019-05-31T09:57:15Z</time>
      </trkpt>
      <trkpt lat="44.06367" lon="3.14203">
        <ele>809.8</ele>
        <time>2019-05-31T09:57:16Z</time>
      </trkpt>
      <trkpt lat="44.06364" lon="3.14207">
        <ele>809.7</ele>
        <time>2019-05-31T09:57:17Z</time>
      </trkpt>
      <trkpt lat="44.06361" lon="3.1421">
        <ele>809.7</ele>
        <time>2019-05-31T09:57:18Z</time>
      </trkpt>
      <trkpt lat="44.06358" lon="3.14213">
        <ele>809.6</ele>
        <time>2019-05-31T09:57:19Z</time>
      </trkpt>
      <trkpt lat="44.06355" lon="3.14215">
        <ele>809.5</ele>
        <time>2019-05-31T09:57:20Z</time>
      </trkpt>
      <trkpt lat="44.06351" lon="3.14217">
        <ele>809.4</ele>
        <time>2019-05-31T09:57:21Z</time>
      </trkpt>
      <trkpt lat="44.06344" lon="3.14219">
        <ele>809.1</ele>
        <time>2019-05-31T09:57:22Z</time>
      </trkpt>
      <trkpt lat="44.06338" lon="3.14224">
        <ele>808.9</ele>
        <time>2019-05-31T09:57:23Z</time>
      </trkpt>
      <trkpt lat="44.06334" lon="3.1423">
        <ele>808.8</ele>
        <time>2019-05-31T09:57:24Z</time>
      </trkpt>
      <trkpt lat="44.0633" lon="3.14236">
        <ele>808.8</ele>
        <time>2019-05-31T09:57:25Z</time>
      </trkpt>
      <trkpt lat="44.06326" lon="3.1424">
        <ele>808.7</ele>
        <time>2019-05-31T09:57:26Z</time>
      </trkpt>
      <trkpt lat="44.06323" lon="3.14247">
        <ele>808.6</ele>
        <time>2019-05-31T09:57:27Z</time>
      </trkpt>
      <trkpt lat="44.06317" lon="3.14252">
        <ele>808.5</ele>
        <time>2019-05-31T09:57:28Z</time>
      </trkpt>
      <trkpt lat="44.06312" lon="3.14255">
        <ele>808.4</ele>
        <time>2019-05-31T09:57:29Z</time>
      </trkpt>
      <trkpt lat="44.06307" lon="3.14259">
        <ele>808.2</ele>
        <time>2019-05-31T09:57:30Z</time>
      </trkpt>
      <trkpt lat="44.06301" lon="3.14261">
        <ele>808</ele>
        <time>2019-05-31T09:57:31Z</time>
      </trkpt>
      <trkpt lat="44.06295" lon="3.14266">
        <ele>807.9</ele>
        <time>2019-05-31T09:57:32Z</time>
      </trkpt>
      <trkpt lat="44.06289" lon="3.1427">
        <ele>807.8</ele>
        <time>2019-05-31T09:57:33Z</time>
      </trkpt>
      <trkpt lat="44.06283" lon="3.14276">
        <ele>807.6</ele>
        <time>2019-05-31T09:57:34Z</time>
      </trkpt>
      <trkpt lat="44.06277" lon="3.14278">
        <ele>807.5</ele>
        <time>2019-05-31T09:57:35Z</time>
      </trkpt>
      <trkpt lat="44.06271" lon="3.14282">
        <ele>807.5</ele>
        <time>2019-05-31T09:57:36Z</time>
      </trkpt>
      <trkpt lat="44.06265" lon="3.14286">
        <ele>807.4</ele>
        <time>2019-05-31T09:57:37Z</time>
      </trkpt>
      <trkpt lat="44.0626" lon="3.14292">
        <ele>807.4</ele>
        <time>2019-05-31T09:57:38Z</time>
      </trkpt>
      <trkpt lat="44.06255" lon="3.14299">
        <ele>807.4</ele>
        <time>2019-05-31T09:57:39Z</time>
      </trkpt>
      <trkpt lat="44.06251" lon="3.14306">
        <ele>807.3</ele>
        <time>2019-05-31T09:57:40Z</time>
      </trkpt>
      <trkpt lat="44.06248" lon="3.1431">
        <ele>807.3</ele>
        <time>2019-05-31T09:57:41Z</time>
      </trkpt>
      <trkpt lat="44.06245" lon="3.14313">
        <ele>807.3</ele>
        <time>2019-05-31T09:57:42Z</time>
      </trkpt>
      <trkpt lat="44.06241" lon="3.14316">
        <ele>807.2</ele>
        <time>2019-05-31T09:57:43Z</time>
      </trkpt>
      <trkpt lat="44.06237" lon="3.1432">
        <ele>807.2</ele>
        <time>2019-05-31T09:57:44Z</time>
      </trkpt>
      <trkpt lat="44.06235" lon="3.14325">
        <ele>807.1</ele>
        <time>2019-05-31T09:57:45Z</time>
      </trkpt>
      <trkpt lat="44.06232" lon="3.14328">
        <ele>807.1</ele>
        <time>2019-05-31T09:57:46Z</time>
      </trkpt>
      <trkpt lat="44.06229" lon="3.1433">
        <ele>807</ele>
        <time>2019-05-31T09:57:47Z</time>
      </trkpt>
      <trkpt lat="44.06225" lon="3.14333">
        <ele>807</ele>
        <time>2019-05-31T09:57:48Z</time>
      </trkpt>
      <trkpt lat="44.0622" lon="3.14338">
        <ele>806.9</ele>
        <time>2019-05-31T09:57:49Z</time>
      </trkpt>
      <trkpt lat="44.06217" lon="3.14342">
        <ele>806.8</ele>
        <time>2019-05-31T09:57:50Z</time>
      </trkpt>
      <trkpt lat="44.06215" lon="3.14345">
        <ele>806.8</ele>
        <time>2019-05-31T09:57:51Z</time>
      </trkpt>
      <trkpt lat="44.0621" lon="3.14347">
        <ele>806.6</ele>
        <time>2019-05-31T09:57:52Z</time>
      </trkpt>
      <trkpt lat="44.06206" lon="3.14348">
        <ele>806.5</ele>
        <time>2019-05-31T09:57:53Z</time>
      </trkpt>
      <trkpt lat="44.06201" lon="3.1435">
        <ele>806.4</ele>
        <time>2019-05-31T09:57:54Z</time>
      </trkpt>
      <trkpt lat="44.06197" lon="3.14354">
        <ele>806.3</ele>
        <time>2019-05-31T09:57:55Z</time>
      </trkpt>
      <trkpt lat="44.06194" lon="3.14358">
        <ele>806.2</ele>
        <time>2019-05-31T09:57:56Z</time>
      </trkpt>
      <trkpt lat="44.06191" lon="3.14363">
        <ele>806.1</ele>
        <time>2019-05-31T09:57:57Z</time>
      </trkpt>
      <trkpt lat="44.06187" lon="3.14365">
        <ele>806</ele>
        <time>2019-05-31T09:57:58Z</time>
      </trkpt>
      <trkpt lat="44.06183" lon="3.14368">
        <ele>805.8</ele>
        <time>2019-05-31T09:57:59Z</time>
      </trkpt>
      <trkpt lat="44.06178" lon="3.14373">
        <ele>805.6</ele>
        <time>2019-05-31T09:58:00Z</time>
      </trkpt>
      <trkpt lat="44.06172" lon="3.14377">
        <ele>805.6</ele>
        <time>2019-05-31T09:58:01Z</time>
      </trkpt>
      <trkpt lat="44.06169" lon="3.14382">
        <ele>805.6</ele>
        <time>2019-05-31T09:58:02Z</time>
      </trkpt>
      <trkpt lat="44.06165" lon="3.14388">
        <ele>805.5</ele>
        <time>2019-05-31T09:58:03Z</time>
      </trkpt>
      <trkpt lat="44.06162" lon="3.14391">
        <ele>805.5</ele>
        <time>2019-05-31T09:58:04Z</time>
      </trkpt>
      <trkpt lat="44.06159" lon="3.14396">
        <ele>805.5</ele>
        <time>2019-05-31T09:58:05Z</time>
      </trkpt>
      <trkpt lat="44.06156" lon="3.14399">
        <ele>805.5</ele>
        <time>2019-05-31T09:58:06Z</time>
      </trkpt>
      <trkpt lat="44.06153" lon="3.14403">
        <ele>805.4</ele>
        <time>2019-05-31T09:58:07Z</time>
      </trkpt>
      <trkpt lat="44.06149" lon="3.14407">
        <ele>805.4</ele>
        <time>2019-05-31T09:58:08Z</time>
      </trkpt>
      <trkpt lat="44.06145" lon="3.14408">
        <ele>805.4</ele>
        <time>2019-05-31T09:58:09Z</time>
      </trkpt>
      <trkpt lat="44.06141" lon="3.14411">
        <ele>805.4</ele>
        <time>2019-05-31T09:58:10Z</time>
      </trkpt>
      <trkpt lat="44.06136" lon="3.14415">
        <ele>805.4</ele>
        <time>2019-05-31T09:58:11Z</time>
      </trkpt>
      <trkpt lat="44.06132" lon="3.14421">
        <ele>805.3</ele>
        <time>2019-05-31T09:58:12Z</time>
      </trkpt>
      <trkpt lat="44.06128" lon="3.14426">
        <ele>805.3</ele>
        <time>2019-05-31T09:58:13Z</time>
      </trkpt>
      <trkpt lat="44.06123" lon="3.14429">
        <ele>805.3</ele>
        <time>2019-05-31T09:58:14Z</time>
      </trkpt>
      <trkpt lat="44.06119" lon="3.14434">
        <ele>805.2</ele>
        <time>2019-05-31T09:58:15Z</time>
      </trkpt>
      <trkpt lat="44.06114" lon="3.1444">
        <ele>805.1</ele>
        <time>2019-05-31T09:58:16Z</time>
      </trkpt>
      <trkpt lat="44.06111" lon="3.14445">
        <ele>805</ele>
        <time>2019-05-31T09:58:17Z</time>
      </trkpt>
      <trkpt lat="44.06108" lon="3.14452">
        <ele>804.8</ele>
        <time>2019-05-31T09:58:18Z</time>
      </trkpt>
      <trkpt lat="44.06103" lon="3.14458">
        <ele>804.7</ele>
        <time>2019-05-31T09:58:19Z</time>
      </trkpt>
      <trkpt lat="44.06098" lon="3.14462">
        <ele>804.5</ele>
        <time>2019-05-31T09:58:20Z</time>
      </trkpt>
      <trkpt lat="44.06092" lon="3.14463">
        <ele>804.3</ele>
        <time>2019-05-31T09:58:21Z</time>
      </trkpt>
      <trkpt lat="44.06087" lon="3.14466">
        <ele>804.1</ele>
        <time>2019-05-31T09:58:22Z</time>
      </trkpt>
      <trkpt lat="44.06083" lon="3.14472">
        <ele>804</ele>
        <time>2019-05-31T09:58:23Z</time>
      </trkpt>
      <trkpt lat="44.06079" lon="3.14477">
        <ele>803.9</ele>
        <time>2019-05-31T09:58:24Z</time>
      </trkpt>
      <trkpt lat="44.06076" lon="3.14485">
        <ele>803.9</ele>
        <time>2019-05-31T09:58:25Z</time>
      </trkpt>
      <trkpt lat="44.06076" lon="3.14491">
        <ele>803.8</ele>
        <time>2019-05-31T09:58:26Z</time>
      </trkpt>
      <trkpt lat="44.06074" lon="3.14495">
        <ele>803.7</ele>
        <time>2019-05-31T09:58:27Z</time>
      </trkpt>
      <trkpt lat="44.0607" lon="3.14499">
        <ele>803.7</ele>
        <time>2019-05-31T09:58:29Z</time>
      </trkpt>
      <trkpt lat="44.06068" lon="3.14504">
        <ele>803.6</ele>
        <time>2019-05-31T09:58:30Z</time>
      </trkpt>
      <trkpt lat="44.06065" lon="3.14509">
        <ele>803.5</ele>
        <time>2019-05-31T09:58:31Z</time>
      </trkpt>
      <trkpt lat="44.06061" lon="3.14512">
        <ele>803.4</ele>
        <time>2019-05-31T09:58:32Z</time>
      </trkpt>
      <trkpt lat="44.06057" lon="3.14519">
        <ele>803.3</ele>
        <time>2019-05-31T09:58:33Z</time>
      </trkpt>
      <trkpt lat="44.06053" lon="3.14525">
        <ele>803.1</ele>
        <time>2019-05-31T09:58:34Z</time>
      </trkpt>
      <trkpt lat="44.0605" lon="3.14529">
        <ele>803</ele>
        <time>2019-05-31T09:58:35Z</time>
      </trkpt>
      <trkpt lat="44.06047" lon="3.14532">
        <ele>803</ele>
        <time>2019-05-31T09:58:36Z</time>
      </trkpt>
      <trkpt lat="44.06045" lon="3.14536">
        <ele>803</ele>
        <time>2019-05-31T09:58:37Z</time>
      </trkpt>
      <trkpt lat="44.06042" lon="3.14541">
        <ele>802.8</ele>
        <time>2019-05-31T09:58:38Z</time>
      </trkpt>
      <trkpt lat="44.0604" lon="3.14546">
        <ele>802.7</ele>
        <time>2019-05-31T09:58:39Z</time>
      </trkpt>
      <trkpt lat="44.06039" lon="3.14552">
        <ele>802.6</ele>
        <time>2019-05-31T09:58:40Z</time>
      </trkpt>
      <trkpt lat="44.06037" lon="3.14555">
        <ele>802.5</ele>
        <time>2019-05-31T09:58:41Z</time>
      </trkpt>
      <trkpt lat="44.06033" lon="3.14559">
        <ele>802.2</ele>
        <time>2019-05-31T09:58:42Z</time>
      </trkpt>
      <trkpt lat="44.0603" lon="3.14562">
        <ele>802</ele>
        <time>2019-05-31T09:58:43Z</time>
      </trkpt>
      <trkpt lat="44.06028" lon="3.14565">
        <ele>802</ele>
        <time>2019-05-31T09:58:44Z</time>
      </trkpt>
      <trkpt lat="44.06025" lon="3.14569">
        <ele>801.9</ele>
        <time>2019-05-31T09:58:45Z</time>
      </trkpt>
      <trkpt lat="44.06022" lon="3.14573">
        <ele>801.9</ele>
        <time>2019-05-31T09:58:46Z</time>
      </trkpt>
      <trkpt lat="44.06019" lon="3.14576">
        <ele>801.8</ele>
        <time>2019-05-31T09:58:47Z</time>
      </trkpt>
      <trkpt lat="44.06016" lon="3.14579">
        <ele>801.8</ele>
        <time>2019-05-31T09:58:48Z</time>
      </trkpt>
      <trkpt lat="44.06013" lon="3.14582">
        <ele>801.8</ele>
        <time>2019-05-31T09:58:49Z</time>
      </trkpt>
      <trkpt lat="44.06009" lon="3.14585">
        <ele>801.8</ele>
        <time>2019-05-31T09:58:50Z</time>
      </trkpt>
      <trkpt lat="44.06006" lon="3.14587">
        <ele>801.7</ele>
        <time>2019-05-31T09:58:51Z</time>
      </trkpt>
      <trkpt lat="44.06003" lon="3.1459">
        <ele>801.7</ele>
        <time>2019-05-31T09:58:52Z</time>
      </trkpt>
      <trkpt lat="44.06" lon="3.14593">
        <ele>801.8</ele>
        <time>2019-05-31T09:58:53Z</time>
      </trkpt>
      <trkpt lat="44.05997" lon="3.14595">
        <ele>801.8</ele>
        <time>2019-05-31T09:58:54Z</time>
      </trkpt>
      <trkpt lat="44.05994" lon="3.14598">
        <ele>801.8</ele>
        <time>2019-05-31T09:58:55Z</time>
      </trkpt>
      <trkpt lat="44.05991" lon="3.14601">
        <ele>801.8</ele>
        <time>2019-05-31T09:58:56Z</time>
      </trkpt>
      <trkpt lat="44.05988" lon="3.14604">
        <ele>801.9</ele>
        <time>2019-05-31T09:58:57Z</time>
      </trkpt>
      <trkpt lat="44.05984" lon="3.14606">
        <ele>801.9</ele>
        <time>2019-05-31T09:58:58Z</time>
      </trkpt>
      <trkpt lat="44.05981" lon="3.14609">
        <ele>801.9</ele>
        <time>2019-05-31T09:58:59Z</time>
      </trkpt>
      <trkpt lat="44.05978" lon="3.14611">
        <ele>802</ele>
        <time>2019-05-31T09:59:00Z</time>
      </trkpt>
      <trkpt lat="44.05974" lon="3.14614">
        <ele>802.1</ele>
        <time>2019-05-31T09:59:01Z</time>
      </trkpt>
      <trkpt lat="44.05971" lon="3.14617">
        <ele>802.1</ele>
        <time>2019-05-31T09:59:02Z</time>
      </trkpt>
      <trkpt lat="44.05967" lon="3.1462">
        <ele>802.1</ele>
        <time>2019-05-31T09:59:03Z</time>
      </trkpt>
      <trkpt lat="44.05964" lon="3.14623">
        <ele>802.2</ele>
        <time>2019-05-31T09:59:04Z</time>
      </trkpt>
      <trkpt lat="44.05961" lon="3.14626">
        <ele>802.2</ele>
        <time>2019-05-31T09:59:05Z</time>
      </trkpt>
      <trkpt lat="44.05957" lon="3.14627">
        <ele>802.4</ele>
        <time>2019-05-31T09:59:06Z</time>
      </trkpt>
      <trkpt lat="44.05953" lon="3.14627">
        <ele>802.5</ele>
        <time>2019-05-31T09:59:07Z</time>
      </trkpt>
      <trkpt lat="44.0595" lon="3.14627">
        <ele>802.6</ele>
        <time>2019-05-31T09:59:08Z</time>
      </trkpt>
      <trkpt lat="44.05946" lon="3.14627">
        <ele>802.6</ele>
        <time>2019-05-31T09:59:09Z</time>
      </trkpt>
      <trkpt lat="44.05942" lon="3.14628">
        <ele>802.7</ele>
        <time>2019-05-31T09:59:10Z</time>
      </trkpt>
      <trkpt lat="44.05939" lon="3.14629">
        <ele>802.8</ele>
        <time>2019-05-31T09:59:11Z</time>
      </trkpt>
      <trkpt lat="44.05935" lon="3.14631">
        <ele>802.9</ele>
        <time>2019-05-31T09:59:12Z</time>
      </trkpt>
      <trkpt lat="44.05933" lon="3.14634">
        <ele>803.1</ele>
        <time>2019-05-31T09:59:13Z</time>
      </trkpt>
      <trkpt lat="44.0593" lon="3.14637">
        <ele>803.3</ele>
        <time>2019-05-31T09:59:14Z</time>
      </trkpt>
      <trkpt lat="44.05927" lon="3.1464">
        <ele>803.4</ele>
        <time>2019-05-31T09:59:15Z</time>
      </trkpt>
      <trkpt lat="44.05924" lon="3.14643">
        <ele>803.6</ele>
        <time>2019-05-31T09:59:16Z</time>
      </trkpt>
      <trkpt lat="44.05921" lon="3.14646">
        <ele>803.8</ele>
        <time>2019-05-31T09:59:17Z</time>
      </trkpt>
      <trkpt lat="44.05919" lon="3.1465">
        <ele>804</ele>
        <time>2019-05-31T09:59:18Z</time>
      </trkpt>
      <trkpt lat="44.05918" lon="3.14654">
        <ele>804.3</ele>
        <time>2019-05-31T09:59:19Z</time>
      </trkpt>
      <trkpt lat="44.05916" lon="3.14659">
        <ele>804.4</ele>
        <time>2019-05-31T09:59:20Z</time>
      </trkpt>
      <trkpt lat="44.05915" lon="3.14664">
        <ele>804.6</ele>
        <time>2019-05-31T09:59:21Z</time>
      </trkpt>
      <trkpt lat="44.05914" lon="3.14668">
        <ele>804.8</ele>
        <time>2019-05-31T09:59:22Z</time>
      </trkpt>
      <trkpt lat="44.05913" lon="3.14673">
        <ele>804.9</ele>
        <time>2019-05-31T09:59:23Z</time>
      </trkpt>
      <trkpt lat="44.05911" lon="3.14678">
        <ele>805.1</ele>
        <time>2019-05-31T09:59:24Z</time>
      </trkpt>
      <trkpt lat="44.05909" lon="3.14682">
        <ele>805.3</ele>
        <time>2019-05-31T09:59:25Z</time>
      </trkpt>
      <trkpt lat="44.05907" lon="3.14688">
        <ele>805.4</ele>
        <time>2019-05-31T09:59:26Z</time>
      </trkpt>
      <trkpt lat="44.05906" lon="3.14694">
        <ele>805.6</ele>
        <time>2019-05-31T09:59:27Z</time>
      </trkpt>
      <trkpt lat="44.05905" lon="3.14699">
        <ele>805.8</ele>
        <time>2019-05-31T09:59:28Z</time>
      </trkpt>
      <trkpt lat="44.05903" lon="3.14707">
        <ele>806.1</ele>
        <time>2019-05-31T09:59:29Z</time>
      </trkpt>
      <trkpt lat="44.05902" lon="3.14713">
        <ele>806.2</ele>
        <time>2019-05-31T09:59:30Z</time>
      </trkpt>
      <trkpt lat="44.059" lon="3.14719">
        <ele>806.4</ele>
        <time>2019-05-31T09:59:31Z</time>
      </trkpt>
      <trkpt lat="44.05899" lon="3.14725">
        <ele>806.6</ele>
        <time>2019-05-31T09:59:32Z</time>
      </trkpt>
      <trkpt lat="44.05898" lon="3.14731">
        <ele>806.8</ele>
        <time>2019-05-31T09:59:33Z</time>
      </trkpt>
      <trkpt lat="44.05898" lon="3.14737">
        <ele>807</ele>
        <time>2019-05-31T09:59:34Z</time>
      </trkpt>
      <trkpt lat="44.05897" lon="3.14743">
        <ele>807.3</ele>
        <time>2019-05-31T09:59:35Z</time>
      </trkpt>
      <trkpt lat="44.05896" lon="3.14748">
        <ele>807.4</ele>
        <time>2019-05-31T09:59:36Z</time>
      </trkpt>
      <trkpt lat="44.05895" lon="3.14755">
        <ele>807.7</ele>
        <time>2019-05-31T09:59:37Z</time>
      </trkpt>
      <trkpt lat="44.05894" lon="3.1476">
        <ele>807.8</ele>
        <time>2019-05-31T09:59:38Z</time>
      </trkpt>
      <trkpt lat="44.05894" lon="3.14767">
        <ele>807.8</ele>
        <time>2019-05-31T09:59:39Z</time>
      </trkpt>
      <trkpt lat="44.05894" lon="3.14775">
        <ele>807.9</ele>
        <time>2019-05-31T09:59:40Z</time>
      </trkpt>
      <trkpt lat="44.05893" lon="3.1478">
        <ele>807.9</ele>
        <time>2019-05-31T09:59:41Z</time>
      </trkpt>
      <trkpt lat="44.0589" lon="3.14783">
        <ele>808</ele>
        <time>2019-05-31T09:59:42Z</time>
      </trkpt>
      <trkpt lat="44.05888" lon="3.14787">
        <ele>808.2</ele>
        <time>2019-05-31T09:59:43Z</time>
      </trkpt>
      <trkpt lat="44.05884" lon="3.14791">
        <ele>808.4</ele>
        <time>2019-05-31T09:59:45Z</time>
      </trkpt>
      <trkpt lat="44.0588" lon="3.14794">
        <ele>808.5</ele>
        <time>2019-05-31T09:59:47Z</time>
      </trkpt>
      <trkpt lat="44.05878" lon="3.14796">
        <ele>808.6</ele>
        <time>2019-05-31T10:00:04Z</time>
      </trkpt>
      <trkpt lat="44.05874" lon="3.148">
        <ele>808.7</ele>
        <time>2019-05-31T10:00:06Z</time>
      </trkpt>
      <trkpt lat="44.05871" lon="3.14803">
        <ele>808.8</ele>
        <time>2019-05-31T10:00:07Z</time>
      </trkpt>
      <trkpt lat="44.05869" lon="3.14805">
        <ele>808.9</ele>
        <time>2019-05-31T10:00:08Z</time>
      </trkpt>
      <trkpt lat="44.05866" lon="3.14808">
        <ele>808.9</ele>
        <time>2019-05-31T10:00:09Z</time>
      </trkpt>
      <trkpt lat="44.05863" lon="3.1481">
        <ele>809</ele>
        <time>2019-05-31T10:00:10Z</time>
      </trkpt>
      <trkpt lat="44.0586" lon="3.14812">
        <ele>809.1</ele>
        <time>2019-05-31T10:00:11Z</time>
      </trkpt>
      <trkpt lat="44.05857" lon="3.14814">
        <ele>809.1</ele>
        <time>2019-05-31T10:00:12Z</time>
      </trkpt>
      <trkpt lat="44.05855" lon="3.14816">
        <ele>809.3</ele>
        <time>2019-05-31T10:00:13Z</time>
      </trkpt>
      <trkpt lat="44.05851" lon="3.14819">
        <ele>809.4</ele>
        <time>2019-05-31T10:00:14Z</time>
      </trkpt>
      <trkpt lat="44.05848" lon="3.14822">
        <ele>809.5</ele>
        <time>2019-05-31T10:00:15Z</time>
      </trkpt>
      <trkpt lat="44.05843" lon="3.14824">
        <ele>809.6</ele>
        <time>2019-05-31T10:00:16Z</time>
      </trkpt>
      <trkpt lat="44.05839" lon="3.14826">
        <ele>809.7</ele>
        <time>2019-05-31T10:00:17Z</time>
      </trkpt>
      <trkpt lat="44.05835" lon="3.1483">
        <ele>809.9</ele>
        <time>2019-05-31T10:00:18Z</time>
      </trkpt>
      <trkpt lat="44.05832" lon="3.14833">
        <ele>809.9</ele>
        <time>2019-05-31T10:00:19Z</time>
      </trkpt>
      <trkpt lat="44.05828" lon="3.14837">
        <ele>809.9</ele>
        <time>2019-05-31T10:00:20Z</time>
      </trkpt>
      <trkpt lat="44.05825" lon="3.14843">
        <ele>809.8</ele>
        <time>2019-05-31T10:00:21Z</time>
      </trkpt>
      <trkpt lat="44.05822" lon="3.14849">
        <ele>809.7</ele>
        <time>2019-05-31T10:00:22Z</time>
      </trkpt>
      <trkpt lat="44.05818" lon="3.14855">
        <ele>809.5</ele>
        <time>2019-05-31T10:00:23Z</time>
      </trkpt>
      <trkpt lat="44.05815" lon="3.1486">
        <ele>809.5</ele>
        <time>2019-05-31T10:00:24Z</time>
      </trkpt>
      <trkpt lat="44.0581" lon="3.14863">
        <ele>809.3</ele>
        <time>2019-05-31T10:00:25Z</time>
      </trkpt>
      <trkpt lat="44.05805" lon="3.14867">
        <ele>809.2</ele>
        <time>2019-05-31T10:00:26Z</time>
      </trkpt>
      <trkpt lat="44.05801" lon="3.14872">
        <ele>809</ele>
        <time>2019-05-31T10:00:27Z</time>
      </trkpt>
      <trkpt lat="44.05797" lon="3.14878">
        <ele>808.8</ele>
        <time>2019-05-31T10:00:28Z</time>
      </trkpt>
      <trkpt lat="44.05793" lon="3.14884">
        <ele>808.6</ele>
        <time>2019-05-31T10:00:29Z</time>
      </trkpt>
      <trkpt lat="44.05788" lon="3.1489">
        <ele>808.4</ele>
        <time>2019-05-31T10:00:30Z</time>
      </trkpt>
      <trkpt lat="44.05785" lon="3.14898">
        <ele>808</ele>
        <time>2019-05-31T10:00:31Z</time>
      </trkpt>
      <trkpt lat="44.05781" lon="3.14907">
        <ele>807.7</ele>
        <time>2019-05-31T10:00:32Z</time>
      </trkpt>
      <trkpt lat="44.05778" lon="3.14913">
        <ele>807.5</ele>
        <time>2019-05-31T10:00:33Z</time>
      </trkpt>
      <trkpt lat="44.05775" lon="3.14919">
        <ele>807.3</ele>
        <time>2019-05-31T10:00:34Z</time>
      </trkpt>
      <trkpt lat="44.05772" lon="3.14926">
        <ele>807.1</ele>
        <time>2019-05-31T10:00:35Z</time>
      </trkpt>
      <trkpt lat="44.05769" lon="3.14933">
        <ele>806.8</ele>
        <time>2019-05-31T10:00:36Z</time>
      </trkpt>
      <trkpt lat="44.05767" lon="3.14941">
        <ele>806.6</ele>
        <time>2019-05-31T10:00:37Z</time>
      </trkpt>
      <trkpt lat="44.05764" lon="3.14951">
        <ele>806.4</ele>
        <time>2019-05-31T10:00:38Z</time>
      </trkpt>
      <trkpt lat="44.05763" lon="3.14958">
        <ele>806.3</ele>
        <time>2019-05-31T10:00:39Z</time>
      </trkpt>
      <trkpt lat="44.05761" lon="3.14964">
        <ele>806.2</ele>
        <time>2019-05-31T10:00:40Z</time>
      </trkpt>
      <trkpt lat="44.05758" lon="3.14969">
        <ele>806.1</ele>
        <time>2019-05-31T10:00:41Z</time>
      </trkpt>
      <trkpt lat="44.05757" lon="3.14975">
        <ele>806.1</ele>
        <time>2019-05-31T10:00:42Z</time>
      </trkpt>
      <trkpt lat="44.05755" lon="3.14983">
        <ele>806.2</ele>
        <time>2019-05-31T10:00:43Z</time>
      </trkpt>
      <trkpt lat="44.05753" lon="3.14989">
        <ele>806.2</ele>
        <time>2019-05-31T10:00:44Z</time>
      </trkpt>
      <trkpt lat="44.05751" lon="3.14994">
        <ele>806.3</ele>
        <time>2019-05-31T10:00:45Z</time>
      </trkpt>
      <trkpt lat="44.05748" lon="3.15001">
        <ele>806.4</ele>
        <time>2019-05-31T10:00:46Z</time>
      </trkpt>
      <trkpt lat="44.05744" lon="3.15005">
        <ele>806.4</ele>
        <time>2019-05-31T10:00:47Z</time>
      </trkpt>
      <trkpt lat="44.05742" lon="3.1501">
        <ele>806.5</ele>
        <time>2019-05-31T10:00:48Z</time>
      </trkpt>
      <trkpt lat="44.0574" lon="3.15013">
        <ele>806.5</ele>
        <time>2019-05-31T10:00:49Z</time>
      </trkpt>
      <trkpt lat="44.05737" lon="3.15015">
        <ele>806.6</ele>
        <time>2019-05-31T10:00:50Z</time>
      </trkpt>
      <trkpt lat="44.05733" lon="3.15018">
        <ele>806.7</ele>
        <time>2019-05-31T10:00:52Z</time>
      </trkpt>
      <trkpt lat="44.05728" lon="3.1502">
        <ele>806.8</ele>
        <time>2019-05-31T10:00:54Z</time>
      </trkpt>
      <trkpt lat="44.05723" lon="3.1502">
        <ele>806.9</ele>
        <time>2019-05-31T10:00:56Z</time>
      </trkpt>
      <trkpt lat="44.05718" lon="3.15021">
        <ele>807</ele>
        <time>2019-05-31T10:00:57Z</time>
      </trkpt>
      <trkpt lat="44.05714" lon="3.15024">
        <ele>807.1</ele>
        <time>2019-05-31T10:00:58Z</time>
      </trkpt>
      <trkpt lat="44.05711" lon="3.15026">
        <ele>807.2</ele>
        <time>2019-05-31T10:00:59Z</time>
      </trkpt>
      <trkpt lat="44.05708" lon="3.15029">
        <ele>807.3</ele>
        <time>2019-05-31T10:01:00Z</time>
      </trkpt>
      <trkpt lat="44.05704" lon="3.1503">
        <ele>807.4</ele>
        <time>2019-05-31T10:01:01Z</time>
      </trkpt>
      <trkpt lat="44.05701" lon="3.15032">
        <ele>807.5</ele>
        <time>2019-05-31T10:01:02Z</time>
      </trkpt>
      <trkpt lat="44.05698" lon="3.15034">
        <ele>807.5</ele>
        <time>2019-05-31T10:01:03Z</time>
      </trkpt>
      <trkpt lat="44.05694" lon="3.15036">
        <ele>807.6</ele>
        <time>2019-05-31T10:01:04Z</time>
      </trkpt>
      <trkpt lat="44.05691" lon="3.15038">
        <ele>807.7</ele>
        <time>2019-05-31T10:01:05Z</time>
      </trkpt>
      <trkpt lat="44.05688" lon="3.15039">
        <ele>807.8</ele>
        <time>2019-05-31T10:01:06Z</time>
      </trkpt>
      <trkpt lat="44.05685" lon="3.1504">
        <ele>807.9</ele>
        <time>2019-05-31T10:01:07Z</time>
      </trkpt>
      <trkpt lat="44.05682" lon="3.15041">
        <ele>808</ele>
        <time>2019-05-31T10:01:08Z</time>
      </trkpt>
      <trkpt lat="44.0568" lon="3.15041">
        <ele>808.1</ele>
        <time>2019-05-31T10:01:09Z</time>
      </trkpt>
      <trkpt lat="44.05675" lon="3.15044">
        <ele>808.2</ele>
        <time>2019-05-31T10:01:11Z</time>
      </trkpt>
      <trkpt lat="44.05672" lon="3.15046">
        <ele>808.3</ele>
        <time>2019-05-31T10:01:12Z</time>
      </trkpt>
      <trkpt lat="44.05669" lon="3.15048">
        <ele>808.4</ele>
        <time>2019-05-31T10:01:13Z</time>
      </trkpt>
      <trkpt lat="44.05666" lon="3.1505">
        <ele>808.5</ele>
        <time>2019-05-31T10:01:14Z</time>
      </trkpt>
      <trkpt lat="44.05663" lon="3.15052">
        <ele>808.6</ele>
        <time>2019-05-31T10:01:15Z</time>
      </trkpt>
      <trkpt lat="44.05659" lon="3.15054">
        <ele>808.8</ele>
        <time>2019-05-31T10:01:16Z</time>
      </trkpt>
      <trkpt lat="44.05656" lon="3.15056">
        <ele>808.9</ele>
        <time>2019-05-31T10:01:17Z</time>
      </trkpt>
      <trkpt lat="44.05652" lon="3.15057">
        <ele>809</ele>
        <time>2019-05-31T10:01:18Z</time>
      </trkpt>
      <trkpt lat="44.05649" lon="3.15059">
        <ele>809.2</ele>
        <time>2019-05-31T10:01:19Z</time>
      </trkpt>
      <trkpt lat="44.05646" lon="3.1506">
        <ele>809.3</ele>
        <time>2019-05-31T10:01:20Z</time>
      </trkpt>
      <trkpt lat="44.05642" lon="3.15061">
        <ele>809.4</ele>
        <time>2019-05-31T10:01:21Z</time>
      </trkpt>
      <trkpt lat="44.05639" lon="3.15064">
        <ele>809.6</ele>
        <time>2019-05-31T10:01:22Z</time>
      </trkpt>
      <trkpt lat="44.05636" lon="3.15066">
        <ele>809.7</ele>
        <time>2019-05-31T10:01:23Z</time>
      </trkpt>
      <trkpt lat="44.05632" lon="3.1507">
        <ele>809.9</ele>
        <time>2019-05-31T10:01:24Z</time>
      </trkpt>
      <trkpt lat="44.0563" lon="3.15073">
        <ele>810.1</ele>
        <time>2019-05-31T10:01:25Z</time>
      </trkpt>
      <trkpt lat="44.05626" lon="3.15077">
        <ele>810.3</ele>
        <time>2019-05-31T10:01:26Z</time>
      </trkpt>
      <trkpt lat="44.05624" lon="3.1508">
        <ele>810.4</ele>
        <time>2019-05-31T10:01:27Z</time>
      </trkpt>
      <trkpt lat="44.05619" lon="3.15082">
        <ele>810.6</ele>
        <time>2019-05-31T10:01:28Z</time>
      </trkpt>
      <trkpt lat="44.05617" lon="3.15085">
        <ele>810.8</ele>
        <time>2019-05-31T10:01:29Z</time>
      </trkpt>
      <trkpt lat="44.05615" lon="3.15088">
        <ele>810.9</ele>
        <time>2019-05-31T10:01:30Z</time>
      </trkpt>
      <trkpt lat="44.05611" lon="3.15089">
        <ele>811</ele>
        <time>2019-05-31T10:01:31Z</time>
      </trkpt>
      <trkpt lat="44.05609" lon="3.15092">
        <ele>811.2</ele>
        <time>2019-05-31T10:01:32Z</time>
      </trkpt>
      <trkpt lat="44.05605" lon="3.15096">
        <ele>811.4</ele>
        <time>2019-05-31T10:01:33Z</time>
      </trkpt>
      <trkpt lat="44.05602" lon="3.15098">
        <ele>811.5</ele>
        <time>2019-05-31T10:01:34Z</time>
      </trkpt>
      <trkpt lat="44.05599" lon="3.151">
        <ele>811.8</ele>
        <time>2019-05-31T10:01:35Z</time>
      </trkpt>
      <trkpt lat="44.05595" lon="3.15102">
        <ele>811.9</ele>
        <time>2019-05-31T10:01:36Z</time>
      </trkpt>
      <trkpt lat="44.05593" lon="3.15103">
        <ele>812.1</ele>
        <time>2019-05-31T10:01:37Z</time>
      </trkpt>
      <trkpt lat="44.0559" lon="3.15106">
        <ele>812.2</ele>
        <time>2019-05-31T10:01:38Z</time>
      </trkpt>
      <trkpt lat="44.05588" lon="3.15109">
        <ele>812.3</ele>
        <time>2019-05-31T10:01:39Z</time>
      </trkpt>
      <trkpt lat="44.05586" lon="3.15112">
        <ele>812.4</ele>
        <time>2019-05-31T10:01:40Z</time>
      </trkpt>
      <trkpt lat="44.05584" lon="3.15116">
        <ele>812.6</ele>
        <time>2019-05-31T10:01:41Z</time>
      </trkpt>
      <trkpt lat="44.05582" lon="3.15119">
        <ele>812.8</ele>
        <time>2019-05-31T10:01:42Z</time>
      </trkpt>
      <trkpt lat="44.0558" lon="3.15123">
        <ele>813</ele>
        <time>2019-05-31T10:01:43Z</time>
      </trkpt>
      <trkpt lat="44.05579" lon="3.15127">
        <ele>813.2</ele>
        <time>2019-05-31T10:01:44Z</time>
      </trkpt>
      <trkpt lat="44.05576" lon="3.1513">
        <ele>813.4</ele>
        <time>2019-05-31T10:01:45Z</time>
      </trkpt>
      <trkpt lat="44.05574" lon="3.15134">
        <ele>813.5</ele>
        <time>2019-05-31T10:01:46Z</time>
      </trkpt>
      <trkpt lat="44.05572" lon="3.15138">
        <ele>813.7</ele>
        <time>2019-05-31T10:01:47Z</time>
      </trkpt>
      <trkpt lat="44.05569" lon="3.15141">
        <ele>813.8</ele>
        <time>2019-05-31T10:01:48Z</time>
      </trkpt>
      <trkpt lat="44.05565" lon="3.15146">
        <ele>814.2</ele>
        <time>2019-05-31T10:01:50Z</time>
      </trkpt>
      <trkpt lat="44.05563" lon="3.1515">
        <ele>814.4</ele>
        <time>2019-05-31T10:01:51Z</time>
      </trkpt>
      <trkpt lat="44.05561" lon="3.15154">
        <ele>814.6</ele>
        <time>2019-05-31T10:01:52Z</time>
      </trkpt>
      <trkpt lat="44.05559" lon="3.15159">
        <ele>814.7</ele>
        <time>2019-05-31T10:01:53Z</time>
      </trkpt>
      <trkpt lat="44.05557" lon="3.15164">
        <ele>814.8</ele>
        <time>2019-05-31T10:01:54Z</time>
      </trkpt>
      <trkpt lat="44.05555" lon="3.15168">
        <ele>815.1</ele>
        <time>2019-05-31T10:01:55Z</time>
      </trkpt>
      <trkpt lat="44.05553" lon="3.15172">
        <ele>815.3</ele>
        <time>2019-05-31T10:01:56Z</time>
      </trkpt>
      <trkpt lat="44.05551" lon="3.15176">
        <ele>815.5</ele>
        <time>2019-05-31T10:01:57Z</time>
      </trkpt>
      <trkpt lat="44.05547" lon="3.1518">
        <ele>815.8</ele>
        <time>2019-05-31T10:01:58Z</time>
      </trkpt>
      <trkpt lat="44.05544" lon="3.15184">
        <ele>816</ele>
        <time>2019-05-31T10:01:59Z</time>
      </trkpt>
      <trkpt lat="44.05541" lon="3.15189">
        <ele>816.3</ele>
        <time>2019-05-31T10:02:00Z</time>
      </trkpt>
      <trkpt lat="44.05539" lon="3.15192">
        <ele>816.4</ele>
        <time>2019-05-31T10:02:01Z</time>
      </trkpt>
      <trkpt lat="44.05535" lon="3.15195">
        <ele>816.7</ele>
        <time>2019-05-31T10:02:02Z</time>
      </trkpt>
      <trkpt lat="44.05533" lon="3.15197">
        <ele>816.8</ele>
        <time>2019-05-31T10:02:03Z</time>
      </trkpt>
      <trkpt lat="44.05529" lon="3.152">
        <ele>817.1</ele>
        <time>2019-05-31T10:02:04Z</time>
      </trkpt>
      <trkpt lat="44.05523" lon="3.15205">
        <ele>817.5</ele>
        <time>2019-05-31T10:02:06Z</time>
      </trkpt>
      <trkpt lat="44.05518" lon="3.15207">
        <ele>817.8</ele>
        <time>2019-05-31T10:02:08Z</time>
      </trkpt>
      <trkpt lat="44.05513" lon="3.1521">
        <ele>818.1</ele>
        <time>2019-05-31T10:02:10Z</time>
      </trkpt>
      <trkpt lat="44.0551" lon="3.15211">
        <ele>818.3</ele>
        <time>2019-05-31T10:02:11Z</time>
      </trkpt>
      <trkpt lat="44.05508" lon="3.1521">
        <ele>818.4</ele>
        <time>2019-05-31T10:02:12Z</time>
      </trkpt>
      <trkpt lat="44.05505" lon="3.15212">
        <ele>818.6</ele>
        <time>2019-05-31T10:02:13Z</time>
      </trkpt>
      <trkpt lat="44.05502" lon="3.15215">
        <ele>818.7</ele>
        <time>2019-05-31T10:02:14Z</time>
      </trkpt>
      <trkpt lat="44.05499" lon="3.15218">
        <ele>818.8</ele>
        <time>2019-05-31T10:02:15Z</time>
      </trkpt>
      <trkpt lat="44.05497" lon="3.15221">
        <ele>818.8</ele>
        <time>2019-05-31T10:02:16Z</time>
      </trkpt>
      <trkpt lat="44.05494" lon="3.15225">
        <ele>818.9</ele>
        <time>2019-05-31T10:02:17Z</time>
      </trkpt>
      <trkpt lat="44.05492" lon="3.15229">
        <ele>818.9</ele>
        <time>2019-05-31T10:02:18Z</time>
      </trkpt>
      <trkpt lat="44.05489" lon="3.15233">
        <ele>818.9</ele>
        <time>2019-05-31T10:02:19Z</time>
      </trkpt>
      <trkpt lat="44.05487" lon="3.15236">
        <ele>819</ele>
        <time>2019-05-31T10:02:20Z</time>
      </trkpt>
      <trkpt lat="44.05485" lon="3.1524">
        <ele>819</ele>
        <time>2019-05-31T10:02:21Z</time>
      </trkpt>
      <trkpt lat="44.05481" lon="3.15244">
        <ele>819.1</ele>
        <time>2019-05-31T10:02:23Z</time>
      </trkpt>
      <trkpt lat="44.05476" lon="3.15245">
        <ele>819.1</ele>
        <time>2019-05-31T10:02:25Z</time>
      </trkpt>
      <trkpt lat="44.05471" lon="3.15247">
        <ele>819.2</ele>
        <time>2019-05-31T10:02:27Z</time>
      </trkpt>
      <trkpt lat="44.05469" lon="3.15251">
        <ele>819.2</ele>
        <time>2019-05-31T10:02:29Z</time>
      </trkpt>
      <trkpt lat="44.0547" lon="3.15257">
        <ele>819.3</ele>
        <time>2019-05-31T10:02:31Z</time>
      </trkpt>
      <trkpt lat="44.05471" lon="3.15261">
        <ele>819.4</ele>
        <time>2019-05-31T10:02:33Z</time>
      </trkpt>
      <trkpt lat="44.05471" lon="3.15265">
        <ele>819.5</ele>
        <time>2019-05-31T10:02:35Z</time>
      </trkpt>
      <trkpt lat="44.05471" lon="3.15269">
        <ele>819.6</ele>
        <time>2019-05-31T10:02:37Z</time>
      </trkpt>
      <trkpt lat="44.05471" lon="3.15274">
        <ele>819.7</ele>
        <time>2019-05-31T10:02:39Z</time>
      </trkpt>
      <trkpt lat="44.0547" lon="3.15278">
        <ele>819.8</ele>
        <time>2019-05-31T10:02:41Z</time>
      </trkpt>
      <trkpt lat="44.0547" lon="3.15283">
        <ele>819.9</ele>
        <time>2019-05-31T10:02:43Z</time>
      </trkpt>
      <trkpt lat="44.0547" lon="3.15287">
        <ele>820</ele>
        <time>2019-05-31T10:02:45Z</time>
      </trkpt>
      <trkpt lat="44.0547" lon="3.15291">
        <ele>820.2</ele>
        <time>2019-05-31T10:02:47Z</time>
      </trkpt>
      <trkpt lat="44.0547" lon="3.15295">
        <ele>820.3</ele>
        <time>2019-05-31T10:02:49Z</time>
      </trkpt>
      <trkpt lat="44.05469" lon="3.153">
        <ele>820.5</ele>
        <time>2019-05-31T10:02:51Z</time>
      </trkpt>
      <trkpt lat="44.05468" lon="3.15304">
        <ele>820.7</ele>
        <time>2019-05-31T10:02:54Z</time>
      </trkpt>
      <trkpt lat="44.05465" lon="3.15306">
        <ele>820.8</ele>
        <time>2019-05-31T10:03:27Z</time>
      </trkpt>
      <trkpt lat="44.05464" lon="3.15311">
        <ele>821.1</ele>
        <time>2019-05-31T10:03:29Z</time>
      </trkpt>
      <trkpt lat="44.05462" lon="3.15314">
        <ele>821.2</ele>
        <time>2019-05-31T10:03:30Z</time>
      </trkpt>
      <trkpt lat="44.05461" lon="3.15318">
        <ele>821.3</ele>
        <time>2019-05-31T10:03:31Z</time>
      </trkpt>
      <trkpt lat="44.0546" lon="3.15325">
        <ele>821.4</ele>
        <time>2019-05-31T10:03:33Z</time>
      </trkpt>
      <trkpt lat="44.05458" lon="3.15329">
        <ele>821.5</ele>
        <time>2019-05-31T10:03:34Z</time>
      </trkpt>
      <trkpt lat="44.05457" lon="3.15332">
        <ele>821.6</ele>
        <time>2019-05-31T10:03:35Z</time>
      </trkpt>
      <trkpt lat="44.05456" lon="3.15336">
        <ele>821.7</ele>
        <time>2019-05-31T10:03:36Z</time>
      </trkpt>
      <trkpt lat="44.05455" lon="3.1534">
        <ele>821.8</ele>
        <time>2019-05-31T10:03:37Z</time>
      </trkpt>
      <trkpt lat="44.05453" lon="3.15347">
        <ele>822</ele>
        <time>2019-05-31T10:03:39Z</time>
      </trkpt>
      <trkpt lat="44.05451" lon="3.15351">
        <ele>822.1</ele>
        <time>2019-05-31T10:03:40Z</time>
      </trkpt>
      <trkpt lat="44.0545" lon="3.15357">
        <ele>822.3</ele>
        <time>2019-05-31T10:03:42Z</time>
      </trkpt>
      <trkpt lat="44.05448" lon="3.15363">
        <ele>822.7</ele>
        <time>2019-05-31T10:03:44Z</time>
      </trkpt>
      <trkpt lat="44.05446" lon="3.1537">
        <ele>823</ele>
        <time>2019-05-31T10:03:46Z</time>
      </trkpt>
      <trkpt lat="44.05444" lon="3.15376">
        <ele>823.5</ele>
        <time>2019-05-31T10:03:48Z</time>
      </trkpt>
      <trkpt lat="44.05442" lon="3.15382">
        <ele>823.8</ele>
        <time>2019-05-31T10:03:50Z</time>
      </trkpt>
      <trkpt lat="44.05441" lon="3.15386">
        <ele>824.2</ele>
        <time>2019-05-31T10:03:52Z</time>
      </trkpt>
      <trkpt lat="44.0544" lon="3.15392">
        <ele>824.5</ele>
        <time>2019-05-31T10:03:55Z</time>
      </trkpt>
      <trkpt lat="44.05438" lon="3.15398">
        <ele>824.9</ele>
        <time>2019-05-31T10:03:57Z</time>
      </trkpt>
      <trkpt lat="44.05436" lon="3.15404">
        <ele>825.2</ele>
        <time>2019-05-31T10:03:59Z</time>
      </trkpt>
      <trkpt lat="44.05433" lon="3.1541">
        <ele>825.5</ele>
        <time>2019-05-31T10:04:01Z</time>
      </trkpt>
      <trkpt lat="44.05429" lon="3.15414">
        <ele>825.7</ele>
        <time>2019-05-31T10:04:03Z</time>
      </trkpt>
      <trkpt lat="44.05426" lon="3.15416">
        <ele>825.9</ele>
        <time>2019-05-31T10:04:04Z</time>
      </trkpt>
      <trkpt lat="44.05423" lon="3.15417">
        <ele>826</ele>
        <time>2019-05-31T10:04:05Z</time>
      </trkpt>
      <trkpt lat="44.0542" lon="3.15419">
        <ele>826.1</ele>
        <time>2019-05-31T10:04:06Z</time>
      </trkpt>
      <trkpt lat="44.05417" lon="3.1542">
        <ele>826.1</ele>
        <time>2019-05-31T10:04:07Z</time>
      </trkpt>
      <trkpt lat="44.05414" lon="3.15422">
        <ele>826.1</ele>
        <time>2019-05-31T10:04:08Z</time>
      </trkpt>
      <trkpt lat="44.05409" lon="3.15422">
        <ele>826.1</ele>
        <time>2019-05-31T10:04:10Z</time>
      </trkpt>
      <trkpt lat="44.05404" lon="3.15425">
        <ele>826.4</ele>
        <time>2019-05-31T10:04:12Z</time>
      </trkpt>
      <trkpt lat="44.05402" lon="3.15429">
        <ele>826.5</ele>
        <time>2019-05-31T10:04:13Z</time>
      </trkpt>
      <trkpt lat="44.05401" lon="3.15435">
        <ele>826.6</ele>
        <time>2019-05-31T10:04:14Z</time>
      </trkpt>
      <trkpt lat="44.054" lon="3.1544">
        <ele>826.8</ele>
        <time>2019-05-31T10:04:15Z</time>
      </trkpt>
      <trkpt lat="44.054" lon="3.15446">
        <ele>826.9</ele>
        <time>2019-05-31T10:04:16Z</time>
      </trkpt>
      <trkpt lat="44.054" lon="3.15451">
        <ele>827</ele>
        <time>2019-05-31T10:04:17Z</time>
      </trkpt>
      <trkpt lat="44.054" lon="3.15457">
        <ele>827.1</ele>
        <time>2019-05-31T10:04:18Z</time>
      </trkpt>
      <trkpt lat="44.054" lon="3.15462">
        <ele>827.1</ele>
        <time>2019-05-31T10:04:19Z</time>
      </trkpt>
      <trkpt lat="44.05401" lon="3.15467">
        <ele>827.2</ele>
        <time>2019-05-31T10:04:20Z</time>
      </trkpt>
      <trkpt lat="44.05401" lon="3.15473">
        <ele>827.3</ele>
        <time>2019-05-31T10:04:21Z</time>
      </trkpt>
      <trkpt lat="44.05402" lon="3.15477">
        <ele>827.3</ele>
        <time>2019-05-31T10:04:22Z</time>
      </trkpt>
      <trkpt lat="44.05403" lon="3.15482">
        <ele>827.3</ele>
        <time>2019-05-31T10:04:23Z</time>
      </trkpt>
      <trkpt lat="44.05405" lon="3.15487">
        <ele>827.4</ele>
        <time>2019-05-31T10:04:24Z</time>
      </trkpt>
      <trkpt lat="44.05406" lon="3.15493">
        <ele>827.4</ele>
        <time>2019-05-31T10:04:25Z</time>
      </trkpt>
      <trkpt lat="44.05407" lon="3.15499">
        <ele>827.4</ele>
        <time>2019-05-31T10:04:26Z</time>
      </trkpt>
      <trkpt lat="44.05408" lon="3.15504">
        <ele>827.4</ele>
        <time>2019-05-31T10:04:27Z</time>
      </trkpt>
      <trkpt lat="44.05408" lon="3.15509">
        <ele>827.4</ele>
        <time>2019-05-31T10:04:28Z</time>
      </trkpt>
      <trkpt lat="44.05408" lon="3.15514">
        <ele>827.4</ele>
        <time>2019-05-31T10:04:29Z</time>
      </trkpt>
      <trkpt lat="44.05408" lon="3.15519">
        <ele>827.2</ele>
        <time>2019-05-31T10:04:30Z</time>
      </trkpt>
      <trkpt lat="44.05408" lon="3.15524">
        <ele>827</ele>
        <time>2019-05-31T10:04:31Z</time>
      </trkpt>
      <trkpt lat="44.05408" lon="3.15528">
        <ele>826.8</ele>
        <time>2019-05-31T10:04:32Z</time>
      </trkpt>
      <trkpt lat="44.05408" lon="3.15534">
        <ele>826.5</ele>
        <time>2019-05-31T10:04:33Z</time>
      </trkpt>
      <trkpt lat="44.05409" lon="3.1554">
        <ele>826.3</ele>
        <time>2019-05-31T10:04:34Z</time>
      </trkpt>
      <trkpt lat="44.05409" lon="3.15546">
        <ele>826.1</ele>
        <time>2019-05-31T10:04:35Z</time>
      </trkpt>
      <trkpt lat="44.05409" lon="3.15552">
        <ele>825.8</ele>
        <time>2019-05-31T10:04:36Z</time>
      </trkpt>
      <trkpt lat="44.05408" lon="3.15556">
        <ele>825.6</ele>
        <time>2019-05-31T10:04:37Z</time>
      </trkpt>
      <trkpt lat="44.05408" lon="3.15561">
        <ele>825.4</ele>
        <time>2019-05-31T10:04:38Z</time>
      </trkpt>
      <trkpt lat="44.05406" lon="3.15569">
        <ele>825.1</ele>
        <time>2019-05-31T10:04:40Z</time>
      </trkpt>
      <trkpt lat="44.05407" lon="3.15574">
        <ele>824.9</ele>
        <time>2019-05-31T10:04:41Z</time>
      </trkpt>
      <trkpt lat="44.05406" lon="3.15577">
        <ele>824.7</ele>
        <time>2019-05-31T10:04:42Z</time>
      </trkpt>
      <trkpt lat="44.05406" lon="3.15583">
        <ele>824.5</ele>
        <time>2019-05-31T10:04:43Z</time>
      </trkpt>
      <trkpt lat="44.05405" lon="3.15589">
        <ele>824.2</ele>
        <time>2019-05-31T10:04:44Z</time>
      </trkpt>
      <trkpt lat="44.05404" lon="3.15597">
        <ele>823.8</ele>
        <time>2019-05-31T10:04:45Z</time>
      </trkpt>
      <trkpt lat="44.05406" lon="3.15603">
        <ele>823.5</ele>
        <time>2019-05-31T10:04:46Z</time>
      </trkpt>
      <trkpt lat="44.05407" lon="3.15609">
        <ele>823.2</ele>
        <time>2019-05-31T10:04:47Z</time>
      </trkpt>
      <trkpt lat="44.05407" lon="3.15615">
        <ele>822.9</ele>
        <time>2019-05-31T10:04:48Z</time>
      </trkpt>
      <trkpt lat="44.05406" lon="3.15623">
        <ele>822.5</ele>
        <time>2019-05-31T10:04:49Z</time>
      </trkpt>
      <trkpt lat="44.05406" lon="3.15628">
        <ele>822.2</ele>
        <time>2019-05-31T10:04:50Z</time>
      </trkpt>
      <trkpt lat="44.05405" lon="3.15634">
        <ele>821.9</ele>
        <time>2019-05-31T10:04:51Z</time>
      </trkpt>
      <trkpt lat="44.05405" lon="3.15641">
        <ele>821.6</ele>
        <time>2019-05-31T10:04:52Z</time>
      </trkpt>
      <trkpt lat="44.05407" lon="3.15646">
        <ele>821.2</ele>
        <time>2019-05-31T10:04:53Z</time>
      </trkpt>
      <trkpt lat="44.05409" lon="3.15653">
        <ele>820.8</ele>
        <time>2019-05-31T10:04:54Z</time>
      </trkpt>
      <trkpt lat="44.05411" lon="3.15659">
        <ele>820.4</ele>
        <time>2019-05-31T10:04:55Z</time>
      </trkpt>
      <trkpt lat="44.05413" lon="3.15667">
        <ele>819.9</ele>
        <time>2019-05-31T10:04:56Z</time>
      </trkpt>
      <trkpt lat="44.05414" lon="3.15673">
        <ele>819.5</ele>
        <time>2019-05-31T10:04:57Z</time>
      </trkpt>
      <trkpt lat="44.05416" lon="3.15681">
        <ele>819</ele>
        <time>2019-05-31T10:04:58Z</time>
      </trkpt>
      <trkpt lat="44.05419" lon="3.15688">
        <ele>818.5</ele>
        <time>2019-05-31T10:04:59Z</time>
      </trkpt>
      <trkpt lat="44.05421" lon="3.15695">
        <ele>818</ele>
        <time>2019-05-31T10:05:00Z</time>
      </trkpt>
      <trkpt lat="44.0542" lon="3.15703">
        <ele>817.6</ele>
        <time>2019-05-31T10:05:01Z</time>
      </trkpt>
      <trkpt lat="44.0542" lon="3.15711">
        <ele>817.2</ele>
        <time>2019-05-31T10:05:02Z</time>
      </trkpt>
      <trkpt lat="44.05419" lon="3.15716">
        <ele>817.2</ele>
        <time>2019-05-31T10:05:03Z</time>
      </trkpt>
      <trkpt lat="44.05419" lon="3.15726">
        <ele>816.5</ele>
        <time>2019-05-31T10:05:04Z</time>
      </trkpt>
      <trkpt lat="44.05418" lon="3.15731">
        <ele>816.1</ele>
        <time>2019-05-31T10:05:05Z</time>
      </trkpt>
      <trkpt lat="44.05418" lon="3.15737">
        <ele>815.7</ele>
        <time>2019-05-31T10:05:06Z</time>
      </trkpt>
      <trkpt lat="44.05418" lon="3.15745">
        <ele>815.1</ele>
        <time>2019-05-31T10:05:07Z</time>
      </trkpt>
      <trkpt lat="44.05418" lon="3.15749">
        <ele>814.7</ele>
        <time>2019-05-31T10:05:08Z</time>
      </trkpt>
      <trkpt lat="44.05417" lon="3.15756">
        <ele>814.3</ele>
        <time>2019-05-31T10:05:09Z</time>
      </trkpt>
      <trkpt lat="44.05416" lon="3.15762">
        <ele>814.1</ele>
        <time>2019-05-31T10:05:10Z</time>
      </trkpt>
      <trkpt lat="44.05416" lon="3.15767">
        <ele>814</ele>
        <time>2019-05-31T10:05:11Z</time>
      </trkpt>
      <trkpt lat="44.05415" lon="3.15773">
        <ele>814</ele>
        <time>2019-05-31T10:05:12Z</time>
      </trkpt>
      <trkpt lat="44.05414" lon="3.15779">
        <ele>814.1</ele>
        <time>2019-05-31T10:05:13Z</time>
      </trkpt>
      <trkpt lat="44.05414" lon="3.15783">
        <ele>814.1</ele>
        <time>2019-05-31T10:05:14Z</time>
      </trkpt>
      <trkpt lat="44.05414" lon="3.15789">
        <ele>813.9</ele>
        <time>2019-05-31T10:05:15Z</time>
      </trkpt>
      <trkpt lat="44.05413" lon="3.15793">
        <ele>813.9</ele>
        <time>2019-05-31T10:05:16Z</time>
      </trkpt>
      <trkpt lat="44.05413" lon="3.15797">
        <ele>813.9</ele>
        <time>2019-05-31T10:05:17Z</time>
      </trkpt>
      <trkpt lat="44.05412" lon="3.15803">
        <ele>813.8</ele>
        <time>2019-05-31T10:05:18Z</time>
      </trkpt>
      <trkpt lat="44.05411" lon="3.15809">
        <ele>813.6</ele>
        <time>2019-05-31T10:05:19Z</time>
      </trkpt>
      <trkpt lat="44.0541" lon="3.15816">
        <ele>813.4</ele>
        <time>2019-05-31T10:05:20Z</time>
      </trkpt>
      <trkpt lat="44.0541" lon="3.15823">
        <ele>813.2</ele>
        <time>2019-05-31T10:05:21Z</time>
      </trkpt>
      <trkpt lat="44.05409" lon="3.15831">
        <ele>813</ele>
        <time>2019-05-31T10:05:22Z</time>
      </trkpt>
      <trkpt lat="44.05409" lon="3.15839">
        <ele>812.6</ele>
        <time>2019-05-31T10:05:23Z</time>
      </trkpt>
      <trkpt lat="44.05408" lon="3.15849">
        <ele>812.5</ele>
        <time>2019-05-31T10:05:24Z</time>
      </trkpt>
      <trkpt lat="44.05407" lon="3.15858">
        <ele>812.3</ele>
        <time>2019-05-31T10:05:25Z</time>
      </trkpt>
      <trkpt lat="44.05405" lon="3.15867">
        <ele>812.3</ele>
        <time>2019-05-31T10:05:26Z</time>
      </trkpt>
      <trkpt lat="44.05402" lon="3.15876">
        <ele>812.4</ele>
        <time>2019-05-31T10:05:27Z</time>
      </trkpt>
      <trkpt lat="44.05399" lon="3.15884">
        <ele>812.6</ele>
        <time>2019-05-31T10:05:28Z</time>
      </trkpt>
      <trkpt lat="44.05396" lon="3.15893">
        <ele>812.7</ele>
        <time>2019-05-31T10:05:29Z</time>
      </trkpt>
      <trkpt lat="44.05392" lon="3.15901">
        <ele>812.9</ele>
        <time>2019-05-31T10:05:30Z</time>
      </trkpt>
      <trkpt lat="44.0539" lon="3.15909">
        <ele>813.1</ele>
        <time>2019-05-31T10:05:31Z</time>
      </trkpt>
      <trkpt lat="44.05387" lon="3.15918">
        <ele>813.2</ele>
        <time>2019-05-31T10:05:32Z</time>
      </trkpt>
      <trkpt lat="44.05386" lon="3.15927">
        <ele>813.3</ele>
        <time>2019-05-31T10:05:33Z</time>
      </trkpt>
      <trkpt lat="44.05383" lon="3.15935">
        <ele>813.3</ele>
        <time>2019-05-31T10:05:34Z</time>
      </trkpt>
      <trkpt lat="44.0538" lon="3.15943">
        <ele>813.2</ele>
        <time>2019-05-31T10:05:35Z</time>
      </trkpt>
      <trkpt lat="44.05379" lon="3.15951">
        <ele>813</ele>
        <time>2019-05-31T10:05:36Z</time>
      </trkpt>
      <trkpt lat="44.0538" lon="3.15959">
        <ele>812.8</ele>
        <time>2019-05-31T10:05:37Z</time>
      </trkpt>
      <trkpt lat="44.05381" lon="3.15968">
        <ele>812.6</ele>
        <time>2019-05-31T10:05:38Z</time>
      </trkpt>
      <trkpt lat="44.05381" lon="3.15974">
        <ele>812.5</ele>
        <time>2019-05-31T10:05:39Z</time>
      </trkpt>
      <trkpt lat="44.05381" lon="3.15984">
        <ele>812.3</ele>
        <time>2019-05-31T10:05:40Z</time>
      </trkpt>
      <trkpt lat="44.05382" lon="3.15995">
        <ele>812.1</ele>
        <time>2019-05-31T10:05:41Z</time>
      </trkpt>
      <trkpt lat="44.05381" lon="3.16004">
        <ele>811.9</ele>
        <time>2019-05-31T10:05:42Z</time>
      </trkpt>
      <trkpt lat="44.05382" lon="3.16013">
        <ele>811.8</ele>
        <time>2019-05-31T10:05:43Z</time>
      </trkpt>
      <trkpt lat="44.05382" lon="3.16022">
        <ele>811.6</ele>
        <time>2019-05-31T10:05:44Z</time>
      </trkpt>
      <trkpt lat="44.05381" lon="3.16032">
        <ele>811.3</ele>
        <time>2019-05-31T10:05:45Z</time>
      </trkpt>
      <trkpt lat="44.05381" lon="3.16042">
        <ele>811</ele>
        <time>2019-05-31T10:05:46Z</time>
      </trkpt>
      <trkpt lat="44.05383" lon="3.16052">
        <ele>810.8</ele>
        <time>2019-05-31T10:05:47Z</time>
      </trkpt>
      <trkpt lat="44.05386" lon="3.16063">
        <ele>810.4</ele>
        <time>2019-05-31T10:05:48Z</time>
      </trkpt>
      <trkpt lat="44.05389" lon="3.16073">
        <ele>810.2</ele>
        <time>2019-05-31T10:05:49Z</time>
      </trkpt>
      <trkpt lat="44.05392" lon="3.16081">
        <ele>810</ele>
        <time>2019-05-31T10:05:50Z</time>
      </trkpt>
      <trkpt lat="44.05395" lon="3.16088">
        <ele>809.8</ele>
        <time>2019-05-31T10:05:51Z</time>
      </trkpt>
      <trkpt lat="44.05396" lon="3.16093">
        <ele>809.7</ele>
        <time>2019-05-31T10:05:52Z</time>
      </trkpt>
      <trkpt lat="44.05398" lon="3.16098">
        <ele>809.6</ele>
        <time>2019-05-31T10:05:53Z</time>
      </trkpt>
      <trkpt lat="44.054" lon="3.16107">
        <ele>809.4</ele>
        <time>2019-05-31T10:05:54Z</time>
      </trkpt>
      <trkpt lat="44.05402" lon="3.16113">
        <ele>809.2</ele>
        <time>2019-05-31T10:05:55Z</time>
      </trkpt>
      <trkpt lat="44.05403" lon="3.1612">
        <ele>809.1</ele>
        <time>2019-05-31T10:05:56Z</time>
      </trkpt>
      <trkpt lat="44.05404" lon="3.16126">
        <ele>808.9</ele>
        <time>2019-05-31T10:05:57Z</time>
      </trkpt>
      <trkpt lat="44.05406" lon="3.16133">
        <ele>808.7</ele>
        <time>2019-05-31T10:05:58Z</time>
      </trkpt>
      <trkpt lat="44.05406" lon="3.16139">
        <ele>808.5</ele>
        <time>2019-05-31T10:05:59Z</time>
      </trkpt>
      <trkpt lat="44.05408" lon="3.16148">
        <ele>808.2</ele>
        <time>2019-05-31T10:06:00Z</time>
      </trkpt>
      <trkpt lat="44.05407" lon="3.16155">
        <ele>807.8</ele>
        <time>2019-05-31T10:06:01Z</time>
      </trkpt>
      <trkpt lat="44.0541" lon="3.16164">
        <ele>807.3</ele>
        <time>2019-05-31T10:06:02Z</time>
      </trkpt>
      <trkpt lat="44.05413" lon="3.16173">
        <ele>806.8</ele>
        <time>2019-05-31T10:06:03Z</time>
      </trkpt>
      <trkpt lat="44.05414" lon="3.16183">
        <ele>806.4</ele>
        <time>2019-05-31T10:06:04Z</time>
      </trkpt>
      <trkpt lat="44.05414" lon="3.16193">
        <ele>806</ele>
        <time>2019-05-31T10:06:05Z</time>
      </trkpt>
      <trkpt lat="44.05414" lon="3.16202">
        <ele>805.6</ele>
        <time>2019-05-31T10:06:06Z</time>
      </trkpt>
      <trkpt lat="44.05414" lon="3.16212">
        <ele>805.3</ele>
        <time>2019-05-31T10:06:07Z</time>
      </trkpt>
      <trkpt lat="44.05415" lon="3.16223">
        <ele>804.8</ele>
        <time>2019-05-31T10:06:08Z</time>
      </trkpt>
      <trkpt lat="44.05417" lon="3.16232">
        <ele>804.4</ele>
        <time>2019-05-31T10:06:09Z</time>
      </trkpt>
      <trkpt lat="44.05419" lon="3.16243">
        <ele>804.1</ele>
        <time>2019-05-31T10:06:10Z</time>
      </trkpt>
      <trkpt lat="44.05418" lon="3.16253">
        <ele>803.8</ele>
        <time>2019-05-31T10:06:11Z</time>
      </trkpt>
      <trkpt lat="44.05419" lon="3.16262">
        <ele>803.5</ele>
        <time>2019-05-31T10:06:12Z</time>
      </trkpt>
      <trkpt lat="44.0542" lon="3.16272">
        <ele>803.2</ele>
        <time>2019-05-31T10:06:13Z</time>
      </trkpt>
      <trkpt lat="44.0542" lon="3.16281">
        <ele>803</ele>
        <time>2019-05-31T10:06:14Z</time>
      </trkpt>
      <trkpt lat="44.05421" lon="3.16288">
        <ele>802.8</ele>
        <time>2019-05-31T10:06:15Z</time>
      </trkpt>
      <trkpt lat="44.05422" lon="3.16294">
        <ele>802.7</ele>
        <time>2019-05-31T10:06:16Z</time>
      </trkpt>
      <trkpt lat="44.05424" lon="3.163">
        <ele>802.5</ele>
        <time>2019-05-31T10:06:17Z</time>
      </trkpt>
      <trkpt lat="44.05426" lon="3.16305">
        <ele>802.4</ele>
        <time>2019-05-31T10:06:18Z</time>
      </trkpt>
      <trkpt lat="44.05427" lon="3.16313">
        <ele>802.3</ele>
        <time>2019-05-31T10:06:19Z</time>
      </trkpt>
      <trkpt lat="44.05429" lon="3.16321">
        <ele>802.2</ele>
        <time>2019-05-31T10:06:20Z</time>
      </trkpt>
      <trkpt lat="44.05431" lon="3.16327">
        <ele>802.1</ele>
        <time>2019-05-31T10:06:21Z</time>
      </trkpt>
      <trkpt lat="44.05432" lon="3.16335">
        <ele>802.1</ele>
        <time>2019-05-31T10:06:22Z</time>
      </trkpt>
      <trkpt lat="44.05434" lon="3.16342">
        <ele>802.1</ele>
        <time>2019-05-31T10:06:23Z</time>
      </trkpt>
      <trkpt lat="44.05437" lon="3.16349">
        <ele>802</ele>
        <time>2019-05-31T10:06:24Z</time>
      </trkpt>
      <trkpt lat="44.05438" lon="3.16356">
        <ele>802</ele>
        <time>2019-05-31T10:06:25Z</time>
      </trkpt>
      <trkpt lat="44.05439" lon="3.16365">
        <ele>802</ele>
        <time>2019-05-31T10:06:26Z</time>
      </trkpt>
      <trkpt lat="44.05441" lon="3.16372">
        <ele>802.1</ele>
        <time>2019-05-31T10:06:27Z</time>
      </trkpt>
      <trkpt lat="44.05445" lon="3.1638">
        <ele>802.1</ele>
        <time>2019-05-31T10:06:28Z</time>
      </trkpt>
      <trkpt lat="44.05448" lon="3.16388">
        <ele>802.1</ele>
        <time>2019-05-31T10:06:29Z</time>
      </trkpt>
      <trkpt lat="44.05451" lon="3.16394">
        <ele>802.2</ele>
        <time>2019-05-31T10:06:30Z</time>
      </trkpt>
      <trkpt lat="44.05455" lon="3.16401">
        <ele>802.3</ele>
        <time>2019-05-31T10:06:31Z</time>
      </trkpt>
      <trkpt lat="44.05459" lon="3.16407">
        <ele>802.3</ele>
        <time>2019-05-31T10:06:32Z</time>
      </trkpt>
      <trkpt lat="44.05464" lon="3.16413">
        <ele>802.4</ele>
        <time>2019-05-31T10:06:33Z</time>
      </trkpt>
      <trkpt lat="44.05468" lon="3.16417">
        <ele>802.5</ele>
        <time>2019-05-31T10:06:34Z</time>
      </trkpt>
      <trkpt lat="44.05472" lon="3.16417">
        <ele>802.5</ele>
        <time>2019-05-31T10:06:35Z</time>
      </trkpt>
      <trkpt lat="44.05477" lon="3.16417">
        <ele>802.6</ele>
        <time>2019-05-31T10:06:36Z</time>
      </trkpt>
      <trkpt lat="44.05483" lon="3.16419">
        <ele>802.7</ele>
        <time>2019-05-31T10:06:37Z</time>
      </trkpt>
      <trkpt lat="44.05487" lon="3.16421">
        <ele>802.8</ele>
        <time>2019-05-31T10:06:38Z</time>
      </trkpt>
      <trkpt lat="44.05489" lon="3.16423">
        <ele>802.8</ele>
        <time>2019-05-31T10:06:39Z</time>
      </trkpt>
      <trkpt lat="44.05492" lon="3.16425">
        <ele>802.9</ele>
        <time>2019-05-31T10:06:40Z</time>
      </trkpt>
      <trkpt lat="44.05491" lon="3.16429">
        <ele>802.9</ele>
        <time>2019-05-31T10:06:41Z</time>
      </trkpt>
      <trkpt lat="44.05494" lon="3.16432">
        <ele>803</ele>
        <time>2019-05-31T10:06:42Z</time>
      </trkpt>
      <trkpt lat="44.05494" lon="3.16437">
        <ele>803</ele>
        <time>2019-05-31T10:06:43Z</time>
      </trkpt>
      <trkpt lat="44.05494" lon="3.16441">
        <ele>803.1</ele>
        <time>2019-05-31T10:06:44Z</time>
      </trkpt>
      <trkpt lat="44.05494" lon="3.16444">
        <ele>803.2</ele>
        <time>2019-05-31T10:06:45Z</time>
      </trkpt>
      <trkpt lat="44.05496" lon="3.16449">
        <ele>803.3</ele>
        <time>2019-05-31T10:06:46Z</time>
      </trkpt>
      <trkpt lat="44.05496" lon="3.16455">
        <ele>803.3</ele>
        <time>2019-05-31T10:06:47Z</time>
      </trkpt>
      <trkpt lat="44.05497" lon="3.16459">
        <ele>803.4</ele>
        <time>2019-05-31T10:06:48Z</time>
      </trkpt>
      <trkpt lat="44.05497" lon="3.16464">
        <ele>803.4</ele>
        <time>2019-05-31T10:06:49Z</time>
      </trkpt>
      <trkpt lat="44.05497" lon="3.16469">
        <ele>803.5</ele>
        <time>2019-05-31T10:06:50Z</time>
      </trkpt>
      <trkpt lat="44.05496" lon="3.16474">
        <ele>803.5</ele>
        <time>2019-05-31T10:06:51Z</time>
      </trkpt>
      <trkpt lat="44.05496" lon="3.16479">
        <ele>803.5</ele>
        <time>2019-05-31T10:06:52Z</time>
      </trkpt>
      <trkpt lat="44.05495" lon="3.16484">
        <ele>803.5</ele>
        <time>2019-05-31T10:06:53Z</time>
      </trkpt>
      <trkpt lat="44.05493" lon="3.16489">
        <ele>803.5</ele>
        <time>2019-05-31T10:06:54Z</time>
      </trkpt>
      <trkpt lat="44.05492" lon="3.16494">
        <ele>803.5</ele>
        <time>2019-05-31T10:06:55Z</time>
      </trkpt>
      <trkpt lat="44.05491" lon="3.16498">
        <ele>803.5</ele>
        <time>2019-05-31T10:06:56Z</time>
      </trkpt>
      <trkpt lat="44.05488" lon="3.16499">
        <ele>803.5</ele>
        <time>2019-05-31T10:06:57Z</time>
      </trkpt>
      <trkpt lat="44.05488" lon="3.16505">
        <ele>803.5</ele>
        <time>2019-05-31T10:06:58Z</time>
      </trkpt>
      <trkpt lat="44.05486" lon="3.16512">
        <ele>803.4</ele>
        <time>2019-05-31T10:06:59Z</time>
      </trkpt>
      <trkpt lat="44.05485" lon="3.1652">
        <ele>803.3</ele>
        <time>2019-05-31T10:07:00Z</time>
      </trkpt>
      <trkpt lat="44.05483" lon="3.16528">
        <ele>803.2</ele>
        <time>2019-05-31T10:07:01Z</time>
      </trkpt>
      <trkpt lat="44.05483" lon="3.16535">
        <ele>803</ele>
        <time>2019-05-31T10:07:02Z</time>
      </trkpt>
      <trkpt lat="44.05485" lon="3.16544">
        <ele>802.7</ele>
        <time>2019-05-31T10:07:03Z</time>
      </trkpt>
      <trkpt lat="44.05486" lon="3.16551">
        <ele>802.4</ele>
        <time>2019-05-31T10:07:04Z</time>
      </trkpt>
      <trkpt lat="44.05489" lon="3.16559">
        <ele>802.1</ele>
        <time>2019-05-31T10:07:05Z</time>
      </trkpt>
      <trkpt lat="44.05492" lon="3.16568">
        <ele>801.7</ele>
        <time>2019-05-31T10:07:06Z</time>
      </trkpt>
      <trkpt lat="44.05495" lon="3.16575">
        <ele>801.5</ele>
        <time>2019-05-31T10:07:07Z</time>
      </trkpt>
      <trkpt lat="44.05497" lon="3.16582">
        <ele>801.2</ele>
        <time>2019-05-31T10:07:08Z</time>
      </trkpt>
      <trkpt lat="44.055" lon="3.16588">
        <ele>801</ele>
        <time>2019-05-31T10:07:09Z</time>
      </trkpt>
      <trkpt lat="44.05502" lon="3.16595">
        <ele>800.8</ele>
        <time>2019-05-31T10:07:10Z</time>
      </trkpt>
      <trkpt lat="44.05506" lon="3.166">
        <ele>800.6</ele>
        <time>2019-05-31T10:07:11Z</time>
      </trkpt>
      <trkpt lat="44.05511" lon="3.16605">
        <ele>800.4</ele>
        <time>2019-05-31T10:07:12Z</time>
      </trkpt>
      <trkpt lat="44.05515" lon="3.1661">
        <ele>800.3</ele>
        <time>2019-05-31T10:07:13Z</time>
      </trkpt>
      <trkpt lat="44.0552" lon="3.16615">
        <ele>800.1</ele>
        <time>2019-05-31T10:07:14Z</time>
      </trkpt>
      <trkpt lat="44.05526" lon="3.16619">
        <ele>800</ele>
        <time>2019-05-31T10:07:15Z</time>
      </trkpt>
      <trkpt lat="44.05532" lon="3.16623">
        <ele>799.8</ele>
        <time>2019-05-31T10:07:16Z</time>
      </trkpt>
      <trkpt lat="44.05537" lon="3.16626">
        <ele>799.7</ele>
        <time>2019-05-31T10:07:17Z</time>
      </trkpt>
      <trkpt lat="44.05541" lon="3.1663">
        <ele>799.6</ele>
        <time>2019-05-31T10:07:18Z</time>
      </trkpt>
      <trkpt lat="44.05547" lon="3.16633">
        <ele>799.4</ele>
        <time>2019-05-31T10:07:19Z</time>
      </trkpt>
      <trkpt lat="44.05555" lon="3.16635">
        <ele>799.2</ele>
        <time>2019-05-31T10:07:20Z</time>
      </trkpt>
      <trkpt lat="44.0556" lon="3.16637">
        <ele>799.1</ele>
        <time>2019-05-31T10:07:21Z</time>
      </trkpt>
      <trkpt lat="44.05565" lon="3.16639">
        <ele>799</ele>
        <time>2019-05-31T10:07:22Z</time>
      </trkpt>
      <trkpt lat="44.05571" lon="3.1664">
        <ele>798.9</ele>
        <time>2019-05-31T10:07:23Z</time>
      </trkpt>
      <trkpt lat="44.05576" lon="3.16642">
        <ele>798.8</ele>
        <time>2019-05-31T10:07:24Z</time>
      </trkpt>
      <trkpt lat="44.05581" lon="3.16643">
        <ele>798.6</ele>
        <time>2019-05-31T10:07:25Z</time>
      </trkpt>
      <trkpt lat="44.05586" lon="3.16645">
        <ele>798.5</ele>
        <time>2019-05-31T10:07:26Z</time>
      </trkpt>
      <trkpt lat="44.05591" lon="3.16646">
        <ele>798.4</ele>
        <time>2019-05-31T10:07:27Z</time>
      </trkpt>
      <trkpt lat="44.05597" lon="3.16642">
        <ele>798.2</ele>
        <time>2019-05-31T10:07:28Z</time>
      </trkpt>
      <trkpt lat="44.05602" lon="3.16643">
        <ele>798.1</ele>
        <time>2019-05-31T10:07:29Z</time>
      </trkpt>
      <trkpt lat="44.05607" lon="3.16645">
        <ele>798</ele>
        <time>2019-05-31T10:07:30Z</time>
      </trkpt>
      <trkpt lat="44.05612" lon="3.16647">
        <ele>798</ele>
        <time>2019-05-31T10:07:31Z</time>
      </trkpt>
      <trkpt lat="44.05615" lon="3.16647">
        <ele>797.9</ele>
        <time>2019-05-31T10:07:32Z</time>
      </trkpt>
      <trkpt lat="44.05619" lon="3.16646">
        <ele>797.9</ele>
        <time>2019-05-31T10:07:33Z</time>
      </trkpt>
      <trkpt lat="44.05623" lon="3.16646">
        <ele>797.9</ele>
        <time>2019-05-31T10:07:34Z</time>
      </trkpt>
      <trkpt lat="44.05627" lon="3.1665">
        <ele>797.9</ele>
        <time>2019-05-31T10:07:35Z</time>
      </trkpt>
      <trkpt lat="44.0563" lon="3.1665">
        <ele>797.9</ele>
        <time>2019-05-31T10:07:36Z</time>
      </trkpt>
      <trkpt lat="44.05633" lon="3.16652">
        <ele>797.9</ele>
        <time>2019-05-31T10:07:37Z</time>
      </trkpt>
      <trkpt lat="44.05636" lon="3.16655">
        <ele>797.9</ele>
        <time>2019-05-31T10:07:38Z</time>
      </trkpt>
      <trkpt lat="44.05641" lon="3.16657">
        <ele>797.9</ele>
        <time>2019-05-31T10:07:39Z</time>
      </trkpt>
      <trkpt lat="44.05644" lon="3.16661">
        <ele>797.9</ele>
        <time>2019-05-31T10:07:40Z</time>
      </trkpt>
      <trkpt lat="44.05648" lon="3.16663">
        <ele>798</ele>
        <time>2019-05-31T10:07:41Z</time>
      </trkpt>
      <trkpt lat="44.05652" lon="3.16665">
        <ele>798</ele>
        <time>2019-05-31T10:07:42Z</time>
      </trkpt>
      <trkpt lat="44.05655" lon="3.16667">
        <ele>798.1</ele>
        <time>2019-05-31T10:07:43Z</time>
      </trkpt>
      <trkpt lat="44.05659" lon="3.16669">
        <ele>798.1</ele>
        <time>2019-05-31T10:07:44Z</time>
      </trkpt>
      <trkpt lat="44.05665" lon="3.16671">
        <ele>798.2</ele>
        <time>2019-05-31T10:07:46Z</time>
      </trkpt>
      <trkpt lat="44.0567" lon="3.16673">
        <ele>798.2</ele>
        <time>2019-05-31T10:07:47Z</time>
      </trkpt>
      <trkpt lat="44.05675" lon="3.16675">
        <ele>798.3</ele>
        <time>2019-05-31T10:07:48Z</time>
      </trkpt>
      <trkpt lat="44.05681" lon="3.16676">
        <ele>798.3</ele>
        <time>2019-05-31T10:07:49Z</time>
      </trkpt>
      <trkpt lat="44.05686" lon="3.16678">
        <ele>798.3</ele>
        <time>2019-05-31T10:07:50Z</time>
      </trkpt>
      <trkpt lat="44.05692" lon="3.16676">
        <ele>798.4</ele>
        <time>2019-05-31T10:07:51Z</time>
      </trkpt>
      <trkpt lat="44.05697" lon="3.16677">
        <ele>798.4</ele>
        <time>2019-05-31T10:07:52Z</time>
      </trkpt>
      <trkpt lat="44.05702" lon="3.16679">
        <ele>798.4</ele>
        <time>2019-05-31T10:07:53Z</time>
      </trkpt>
      <trkpt lat="44.05708" lon="3.16682">
        <ele>798.4</ele>
        <time>2019-05-31T10:07:54Z</time>
      </trkpt>
      <trkpt lat="44.05712" lon="3.16683">
        <ele>798.3</ele>
        <time>2019-05-31T10:07:55Z</time>
      </trkpt>
      <trkpt lat="44.05718" lon="3.16684">
        <ele>798.3</ele>
        <time>2019-05-31T10:07:56Z</time>
      </trkpt>
      <trkpt lat="44.05724" lon="3.16686">
        <ele>798.2</ele>
        <time>2019-05-31T10:07:57Z</time>
      </trkpt>
      <trkpt lat="44.05729" lon="3.16688">
        <ele>798.1</ele>
        <time>2019-05-31T10:07:58Z</time>
      </trkpt>
      <trkpt lat="44.05734" lon="3.16689">
        <ele>798.1</ele>
        <time>2019-05-31T10:07:59Z</time>
      </trkpt>
      <trkpt lat="44.05739" lon="3.16691">
        <ele>798</ele>
        <time>2019-05-31T10:08:00Z</time>
      </trkpt>
      <trkpt lat="44.05745" lon="3.16691">
        <ele>797.9</ele>
        <time>2019-05-31T10:08:01Z</time>
      </trkpt>
      <trkpt lat="44.0575" lon="3.16691">
        <ele>797.8</ele>
        <time>2019-05-31T10:08:02Z</time>
      </trkpt>
      <trkpt lat="44.05753" lon="3.16692">
        <ele>797.8</ele>
        <time>2019-05-31T10:08:03Z</time>
      </trkpt>
      <trkpt lat="44.05758" lon="3.16697">
        <ele>797.6</ele>
        <time>2019-05-31T10:08:05Z</time>
      </trkpt>
      <trkpt lat="44.05761" lon="3.16699">
        <ele>797.6</ele>
        <time>2019-05-31T10:08:06Z</time>
      </trkpt>
      <trkpt lat="44.05763" lon="3.16703">
        <ele>797.5</ele>
        <time>2019-05-31T10:08:07Z</time>
      </trkpt>
      <trkpt lat="44.05767" lon="3.16705">
        <ele>797.4</ele>
        <time>2019-05-31T10:08:08Z</time>
      </trkpt>
      <trkpt lat="44.05769" lon="3.16711">
        <ele>797.3</ele>
        <time>2019-05-31T10:08:09Z</time>
      </trkpt>
      <trkpt lat="44.05774" lon="3.16716">
        <ele>797.2</ele>
        <time>2019-05-31T10:08:10Z</time>
      </trkpt>
      <trkpt lat="44.05776" lon="3.16721">
        <ele>797.1</ele>
        <time>2019-05-31T10:08:11Z</time>
      </trkpt>
      <trkpt lat="44.05779" lon="3.16726">
        <ele>797</ele>
        <time>2019-05-31T10:08:12Z</time>
      </trkpt>
      <trkpt lat="44.05783" lon="3.1673">
        <ele>796.9</ele>
        <time>2019-05-31T10:08:13Z</time>
      </trkpt>
      <trkpt lat="44.05785" lon="3.16734">
        <ele>796.8</ele>
        <time>2019-05-31T10:08:14Z</time>
      </trkpt>
      <trkpt lat="44.05788" lon="3.16739">
        <ele>796.7</ele>
        <time>2019-05-31T10:08:15Z</time>
      </trkpt>
      <trkpt lat="44.05789" lon="3.16745">
        <ele>796.6</ele>
        <time>2019-05-31T10:08:17Z</time>
      </trkpt>
      <trkpt lat="44.05794" lon="3.16751">
        <ele>796.5</ele>
        <time>2019-05-31T10:08:18Z</time>
      </trkpt>
      <trkpt lat="44.05795" lon="3.16756">
        <ele>796.4</ele>
        <time>2019-05-31T10:08:19Z</time>
      </trkpt>
      <trkpt lat="44.05797" lon="3.16762">
        <ele>796.4</ele>
        <time>2019-05-31T10:08:20Z</time>
      </trkpt>
      <trkpt lat="44.05797" lon="3.16766">
        <ele>796.3</ele>
        <time>2019-05-31T10:08:21Z</time>
      </trkpt>
      <trkpt lat="44.05799" lon="3.16772">
        <ele>796.3</ele>
        <time>2019-05-31T10:08:22Z</time>
      </trkpt>
      <trkpt lat="44.05804" lon="3.16781">
        <ele>796.1</ele>
        <time>2019-05-31T10:08:23Z</time>
      </trkpt>
      <trkpt lat="44.05805" lon="3.16787">
        <ele>796</ele>
        <time>2019-05-31T10:08:24Z</time>
      </trkpt>
      <trkpt lat="44.05808" lon="3.16795">
        <ele>795.7</ele>
        <time>2019-05-31T10:08:25Z</time>
      </trkpt>
      <trkpt lat="44.05809" lon="3.16804">
        <ele>795.4</ele>
        <time>2019-05-31T10:08:26Z</time>
      </trkpt>
      <trkpt lat="44.05812" lon="3.16813">
        <ele>795.1</ele>
        <time>2019-05-31T10:08:27Z</time>
      </trkpt>
      <trkpt lat="44.05817" lon="3.16823">
        <ele>794.8</ele>
        <time>2019-05-31T10:08:28Z</time>
      </trkpt>
      <trkpt lat="44.0582" lon="3.16831">
        <ele>794.7</ele>
        <time>2019-05-31T10:08:29Z</time>
      </trkpt>
      <trkpt lat="44.05822" lon="3.16839">
        <ele>794.5</ele>
        <time>2019-05-31T10:08:30Z</time>
      </trkpt>
      <trkpt lat="44.05824" lon="3.16846">
        <ele>794.4</ele>
        <time>2019-05-31T10:08:31Z</time>
      </trkpt>
      <trkpt lat="44.05827" lon="3.16854">
        <ele>794.4</ele>
        <time>2019-05-31T10:08:32Z</time>
      </trkpt>
      <trkpt lat="44.05829" lon="3.16861">
        <ele>794.3</ele>
        <time>2019-05-31T10:08:33Z</time>
      </trkpt>
      <trkpt lat="44.05832" lon="3.16867">
        <ele>794.2</ele>
        <time>2019-05-31T10:08:34Z</time>
      </trkpt>
      <trkpt lat="44.05835" lon="3.16875">
        <ele>794.2</ele>
        <time>2019-05-31T10:08:35Z</time>
      </trkpt>
      <trkpt lat="44.05837" lon="3.16883">
        <ele>794.1</ele>
        <time>2019-05-31T10:08:36Z</time>
      </trkpt>
      <trkpt lat="44.05839" lon="3.16889">
        <ele>794.1</ele>
        <time>2019-05-31T10:08:37Z</time>
      </trkpt>
      <trkpt lat="44.05841" lon="3.16895">
        <ele>794.1</ele>
        <time>2019-05-31T10:08:38Z</time>
      </trkpt>
      <trkpt lat="44.05843" lon="3.16904">
        <ele>794</ele>
        <time>2019-05-31T10:08:39Z</time>
      </trkpt>
      <trkpt lat="44.05845" lon="3.16912">
        <ele>794</ele>
        <time>2019-05-31T10:08:40Z</time>
      </trkpt>
      <trkpt lat="44.05848" lon="3.1692">
        <ele>794</ele>
        <time>2019-05-31T10:08:41Z</time>
      </trkpt>
      <trkpt lat="44.05847" lon="3.16926">
        <ele>794</ele>
        <time>2019-05-31T10:08:42Z</time>
      </trkpt>
      <trkpt lat="44.0585" lon="3.16933">
        <ele>794</ele>
        <time>2019-05-31T10:08:43Z</time>
      </trkpt>
      <trkpt lat="44.05851" lon="3.1694">
        <ele>794</ele>
        <time>2019-05-31T10:08:44Z</time>
      </trkpt>
      <trkpt lat="44.05852" lon="3.16948">
        <ele>794.1</ele>
        <time>2019-05-31T10:08:45Z</time>
      </trkpt>
      <trkpt lat="44.05853" lon="3.16954">
        <ele>794.1</ele>
        <time>2019-05-31T10:08:46Z</time>
      </trkpt>
      <trkpt lat="44.05854" lon="3.16961">
        <ele>794.2</ele>
        <time>2019-05-31T10:08:47Z</time>
      </trkpt>
      <trkpt lat="44.05854" lon="3.16969">
        <ele>794.4</ele>
        <time>2019-05-31T10:08:48Z</time>
      </trkpt>
      <trkpt lat="44.05855" lon="3.16975">
        <ele>794.4</ele>
        <time>2019-05-31T10:08:49Z</time>
      </trkpt>
      <trkpt lat="44.05858" lon="3.1698">
        <ele>794.5</ele>
        <time>2019-05-31T10:08:50Z</time>
      </trkpt>
      <trkpt lat="44.05859" lon="3.16986">
        <ele>794.6</ele>
        <time>2019-05-31T10:08:51Z</time>
      </trkpt>
      <trkpt lat="44.05861" lon="3.16992">
        <ele>794.7</ele>
        <time>2019-05-31T10:08:52Z</time>
      </trkpt>
      <trkpt lat="44.05863" lon="3.16998">
        <ele>794.8</ele>
        <time>2019-05-31T10:08:53Z</time>
      </trkpt>
      <trkpt lat="44.05865" lon="3.17005">
        <ele>795</ele>
        <time>2019-05-31T10:08:54Z</time>
      </trkpt>
      <trkpt lat="44.05867" lon="3.17011">
        <ele>795.1</ele>
        <time>2019-05-31T10:08:55Z</time>
      </trkpt>
      <trkpt lat="44.05868" lon="3.1702">
        <ele>795.3</ele>
        <time>2019-05-31T10:08:56Z</time>
      </trkpt>
      <trkpt lat="44.0587" lon="3.17029">
        <ele>795.6</ele>
        <time>2019-05-31T10:08:57Z</time>
      </trkpt>
      <trkpt lat="44.05872" lon="3.17033">
        <ele>795.7</ele>
        <time>2019-05-31T10:08:58Z</time>
      </trkpt>
      <trkpt lat="44.05874" lon="3.17039">
        <ele>795.8</ele>
        <time>2019-05-31T10:08:59Z</time>
      </trkpt>
      <trkpt lat="44.05876" lon="3.17047">
        <ele>796.1</ele>
        <time>2019-05-31T10:09:00Z</time>
      </trkpt>
      <trkpt lat="44.0588" lon="3.17054">
        <ele>796.3</ele>
        <time>2019-05-31T10:09:01Z</time>
      </trkpt>
      <trkpt lat="44.05884" lon="3.17061">
        <ele>796.6</ele>
        <time>2019-05-31T10:09:02Z</time>
      </trkpt>
      <trkpt lat="44.05888" lon="3.17069">
        <ele>796.8</ele>
        <time>2019-05-31T10:09:03Z</time>
      </trkpt>
      <trkpt lat="44.05891" lon="3.17076">
        <ele>797</ele>
        <time>2019-05-31T10:09:04Z</time>
      </trkpt>
      <trkpt lat="44.05895" lon="3.17084">
        <ele>797.2</ele>
        <time>2019-05-31T10:09:05Z</time>
      </trkpt>
      <trkpt lat="44.05899" lon="3.17092">
        <ele>797.3</ele>
        <time>2019-05-31T10:09:06Z</time>
      </trkpt>
      <trkpt lat="44.05904" lon="3.17102">
        <ele>797.5</ele>
        <time>2019-05-31T10:09:07Z</time>
      </trkpt>
      <trkpt lat="44.05907" lon="3.17112">
        <ele>797.5</ele>
        <time>2019-05-31T10:09:08Z</time>
      </trkpt>
      <trkpt lat="44.05909" lon="3.1712">
        <ele>797.6</ele>
        <time>2019-05-31T10:09:09Z</time>
      </trkpt>
      <trkpt lat="44.05911" lon="3.17127">
        <ele>797.6</ele>
        <time>2019-05-31T10:09:10Z</time>
      </trkpt>
      <trkpt lat="44.05908" lon="3.17132">
        <ele>797.6</ele>
        <time>2019-05-31T10:09:11Z</time>
      </trkpt>
      <trkpt lat="44.05908" lon="3.17138">
        <ele>797.5</ele>
        <time>2019-05-31T10:09:12Z</time>
      </trkpt>
      <trkpt lat="44.05909" lon="3.17145">
        <ele>797.5</ele>
        <time>2019-05-31T10:09:13Z</time>
      </trkpt>
      <trkpt lat="44.05911" lon="3.1715">
        <ele>797.4</ele>
        <time>2019-05-31T10:09:14Z</time>
      </trkpt>
      <trkpt lat="44.05912" lon="3.17155">
        <ele>797.4</ele>
        <time>2019-05-31T10:09:15Z</time>
      </trkpt>
      <trkpt lat="44.05916" lon="3.17161">
        <ele>797.2</ele>
        <time>2019-05-31T10:09:16Z</time>
      </trkpt>
      <trkpt lat="44.05918" lon="3.17165">
        <ele>797.1</ele>
        <time>2019-05-31T10:09:17Z</time>
      </trkpt>
      <trkpt lat="44.05919" lon="3.1717">
        <ele>797</ele>
        <time>2019-05-31T10:09:18Z</time>
      </trkpt>
      <trkpt lat="44.05924" lon="3.17175">
        <ele>796.8</ele>
        <time>2019-05-31T10:09:19Z</time>
      </trkpt>
      <trkpt lat="44.0593" lon="3.17179">
        <ele>796.6</ele>
        <time>2019-05-31T10:09:20Z</time>
      </trkpt>
      <trkpt lat="44.05936" lon="3.17183">
        <ele>796.3</ele>
        <time>2019-05-31T10:09:21Z</time>
      </trkpt>
      <trkpt lat="44.0594" lon="3.17186">
        <ele>796.1</ele>
        <time>2019-05-31T10:09:22Z</time>
      </trkpt>
      <trkpt lat="44.05942" lon="3.1719">
        <ele>796</ele>
        <time>2019-05-31T10:09:23Z</time>
      </trkpt>
      <trkpt lat="44.05945" lon="3.17192">
        <ele>795.8</ele>
        <time>2019-05-31T10:09:24Z</time>
      </trkpt>
      <trkpt lat="44.05948" lon="3.17195">
        <ele>795.6</ele>
        <time>2019-05-31T10:09:25Z</time>
      </trkpt>
      <trkpt lat="44.0595" lon="3.17198">
        <ele>795.5</ele>
        <time>2019-05-31T10:09:26Z</time>
      </trkpt>
      <trkpt lat="44.05953" lon="3.17202">
        <ele>795.3</ele>
        <time>2019-05-31T10:09:27Z</time>
      </trkpt>
      <trkpt lat="44.05955" lon="3.17204">
        <ele>795.1</ele>
        <time>2019-05-31T10:09:28Z</time>
      </trkpt>
      <trkpt lat="44.05958" lon="3.17207">
        <ele>795</ele>
        <time>2019-05-31T10:09:29Z</time>
      </trkpt>
      <trkpt lat="44.05961" lon="3.17209">
        <ele>794.8</ele>
        <time>2019-05-31T10:09:30Z</time>
      </trkpt>
      <trkpt lat="44.05964" lon="3.17212">
        <ele>794.7</ele>
        <time>2019-05-31T10:09:31Z</time>
      </trkpt>
      <trkpt lat="44.05967" lon="3.17214">
        <ele>794.6</ele>
        <time>2019-05-31T10:09:32Z</time>
      </trkpt>
      <trkpt lat="44.0597" lon="3.17217">
        <ele>794.4</ele>
        <time>2019-05-31T10:09:33Z</time>
      </trkpt>
      <trkpt lat="44.05973" lon="3.17221">
        <ele>794.3</ele>
        <time>2019-05-31T10:09:34Z</time>
      </trkpt>
      <trkpt lat="44.05976" lon="3.17224">
        <ele>794.3</ele>
        <time>2019-05-31T10:09:35Z</time>
      </trkpt>
      <trkpt lat="44.05979" lon="3.17227">
        <ele>794.2</ele>
        <time>2019-05-31T10:09:36Z</time>
      </trkpt>
      <trkpt lat="44.05982" lon="3.1723">
        <ele>794.2</ele>
        <time>2019-05-31T10:09:37Z</time>
      </trkpt>
      <trkpt lat="44.05984" lon="3.17234">
        <ele>794.2</ele>
        <time>2019-05-31T10:09:38Z</time>
      </trkpt>
      <trkpt lat="44.05987" lon="3.17238">
        <ele>794.1</ele>
        <time>2019-05-31T10:09:39Z</time>
      </trkpt>
      <trkpt lat="44.05989" lon="3.17241">
        <ele>794.2</ele>
        <time>2019-05-31T10:09:40Z</time>
      </trkpt>
      <trkpt lat="44.05991" lon="3.17243">
        <ele>794.2</ele>
        <time>2019-05-31T10:09:41Z</time>
      </trkpt>
      <trkpt lat="44.05994" lon="3.17248">
        <ele>794.2</ele>
        <time>2019-05-31T10:09:43Z</time>
      </trkpt>
      <trkpt lat="44.05996" lon="3.17251">
        <ele>794.3</ele>
        <time>2019-05-31T10:09:44Z</time>
      </trkpt>
      <trkpt lat="44.05999" lon="3.17255">
        <ele>794.3</ele>
        <time>2019-05-31T10:09:45Z</time>
      </trkpt>
      <trkpt lat="44.06001" lon="3.17258">
        <ele>794.3</ele>
        <time>2019-05-31T10:09:46Z</time>
      </trkpt>
      <trkpt lat="44.06004" lon="3.17261">
        <ele>794.4</ele>
        <time>2019-05-31T10:09:47Z</time>
      </trkpt>
      <trkpt lat="44.06006" lon="3.17264">
        <ele>794.5</ele>
        <time>2019-05-31T10:09:48Z</time>
      </trkpt>
      <trkpt lat="44.06008" lon="3.17267">
        <ele>794.6</ele>
        <time>2019-05-31T10:09:49Z</time>
      </trkpt>
      <trkpt lat="44.0601" lon="3.1727">
        <ele>794.7</ele>
        <time>2019-05-31T10:09:50Z</time>
      </trkpt>
      <trkpt lat="44.06012" lon="3.17272">
        <ele>794.8</ele>
        <time>2019-05-31T10:09:51Z</time>
      </trkpt>
      <trkpt lat="44.06014" lon="3.17275">
        <ele>794.9</ele>
        <time>2019-05-31T10:09:52Z</time>
      </trkpt>
      <trkpt lat="44.06017" lon="3.1728">
        <ele>795.1</ele>
        <time>2019-05-31T10:09:54Z</time>
      </trkpt>
      <trkpt lat="44.06019" lon="3.17285">
        <ele>795.2</ele>
        <time>2019-05-31T10:09:56Z</time>
      </trkpt>
      <trkpt lat="44.06023" lon="3.17291">
        <ele>795.4</ele>
        <time>2019-05-31T10:09:58Z</time>
      </trkpt>
      <trkpt lat="44.06025" lon="3.17295">
        <ele>795.5</ele>
        <time>2019-05-31T10:09:59Z</time>
      </trkpt>
      <trkpt lat="44.06027" lon="3.17298">
        <ele>795.7</ele>
        <time>2019-05-31T10:10:00Z</time>
      </trkpt>
      <trkpt lat="44.06029" lon="3.17301">
        <ele>795.8</ele>
        <time>2019-05-31T10:10:01Z</time>
      </trkpt>
      <trkpt lat="44.06032" lon="3.17305">
        <ele>795.9</ele>
        <time>2019-05-31T10:10:02Z</time>
      </trkpt>
      <trkpt lat="44.06033" lon="3.17309">
        <ele>796</ele>
        <time>2019-05-31T10:10:03Z</time>
      </trkpt>
      <trkpt lat="44.06035" lon="3.17312">
        <ele>796.1</ele>
        <time>2019-05-31T10:10:04Z</time>
      </trkpt>
      <trkpt lat="44.06037" lon="3.17317">
        <ele>796.2</ele>
        <time>2019-05-31T10:10:05Z</time>
      </trkpt>
      <trkpt lat="44.06038" lon="3.17321">
        <ele>796.3</ele>
        <time>2019-05-31T10:10:06Z</time>
      </trkpt>
      <trkpt lat="44.06041" lon="3.17327">
        <ele>796.5</ele>
        <time>2019-05-31T10:10:08Z</time>
      </trkpt>
      <trkpt lat="44.06043" lon="3.17333">
        <ele>796.6</ele>
        <time>2019-05-31T10:10:10Z</time>
      </trkpt>
      <trkpt lat="44.06044" lon="3.17337">
        <ele>796.8</ele>
        <time>2019-05-31T10:10:11Z</time>
      </trkpt>
      <trkpt lat="44.06045" lon="3.17343">
        <ele>796.9</ele>
        <time>2019-05-31T10:10:12Z</time>
      </trkpt>
      <trkpt lat="44.06047" lon="3.17349">
        <ele>797.1</ele>
        <time>2019-05-31T10:10:13Z</time>
      </trkpt>
      <trkpt lat="44.06049" lon="3.17354">
        <ele>797.2</ele>
        <time>2019-05-31T10:10:14Z</time>
      </trkpt>
      <trkpt lat="44.06052" lon="3.17359">
        <ele>797.3</ele>
        <time>2019-05-31T10:10:15Z</time>
      </trkpt>
      <trkpt lat="44.06054" lon="3.17364">
        <ele>797.5</ele>
        <time>2019-05-31T10:10:16Z</time>
      </trkpt>
      <trkpt lat="44.06055" lon="3.17369">
        <ele>797.6</ele>
        <time>2019-05-31T10:10:17Z</time>
      </trkpt>
      <trkpt lat="44.06055" lon="3.17375">
        <ele>797.7</ele>
        <time>2019-05-31T10:10:18Z</time>
      </trkpt>
      <trkpt lat="44.06055" lon="3.17379">
        <ele>797.8</ele>
        <time>2019-05-31T10:10:19Z</time>
      </trkpt>
      <trkpt lat="44.06055" lon="3.17384">
        <ele>797.9</ele>
        <time>2019-05-31T10:10:20Z</time>
      </trkpt>
      <trkpt lat="44.06055" lon="3.17391">
        <ele>798.1</ele>
        <time>2019-05-31T10:10:21Z</time>
      </trkpt>
      <trkpt lat="44.06057" lon="3.17398">
        <ele>798.3</ele>
        <time>2019-05-31T10:10:22Z</time>
      </trkpt>
      <trkpt lat="44.06058" lon="3.17405">
        <ele>798.6</ele>
        <time>2019-05-31T10:10:23Z</time>
      </trkpt>
      <trkpt lat="44.06059" lon="3.17411">
        <ele>798.7</ele>
        <time>2019-05-31T10:10:24Z</time>
      </trkpt>
      <trkpt lat="44.06059" lon="3.17425">
        <ele>798.9</ele>
        <time>2019-05-31T10:10:25Z</time>
      </trkpt>
      <trkpt lat="44.06059" lon="3.1743">
        <ele>799</ele>
        <time>2019-05-31T10:10:26Z</time>
      </trkpt>
      <trkpt lat="44.0606" lon="3.17438">
        <ele>799.1</ele>
        <time>2019-05-31T10:10:27Z</time>
      </trkpt>
      <trkpt lat="44.0606" lon="3.17448">
        <ele>799.4</ele>
        <time>2019-05-31T10:10:28Z</time>
      </trkpt>
      <trkpt lat="44.06059" lon="3.17457">
        <ele>799.6</ele>
        <time>2019-05-31T10:10:29Z</time>
      </trkpt>
      <trkpt lat="44.06059" lon="3.17466">
        <ele>799.8</ele>
        <time>2019-05-31T10:10:30Z</time>
      </trkpt>
      <trkpt lat="44.06058" lon="3.17473">
        <ele>800</ele>
        <time>2019-05-31T10:10:31Z</time>
      </trkpt>
      <trkpt lat="44.06058" lon="3.17482">
        <ele>800.1</ele>
        <time>2019-05-31T10:10:32Z</time>
      </trkpt>
      <trkpt lat="44.06058" lon="3.1749">
        <ele>800.3</ele>
        <time>2019-05-31T10:10:33Z</time>
      </trkpt>
      <trkpt lat="44.06057" lon="3.17499">
        <ele>800.5</ele>
        <time>2019-05-31T10:10:34Z</time>
      </trkpt>
      <trkpt lat="44.06057" lon="3.17504">
        <ele>800.5</ele>
        <time>2019-05-31T10:10:35Z</time>
      </trkpt>
      <trkpt lat="44.06055" lon="3.17513">
        <ele>800.7</ele>
        <time>2019-05-31T10:10:36Z</time>
      </trkpt>
      <trkpt lat="44.06056" lon="3.17519">
        <ele>800.8</ele>
        <time>2019-05-31T10:10:37Z</time>
      </trkpt>
      <trkpt lat="44.06056" lon="3.17529">
        <ele>800.9</ele>
        <time>2019-05-31T10:10:38Z</time>
      </trkpt>
      <trkpt lat="44.06056" lon="3.17537">
        <ele>801</ele>
        <time>2019-05-31T10:10:39Z</time>
      </trkpt>
      <trkpt lat="44.06056" lon="3.17545">
        <ele>801.1</ele>
        <time>2019-05-31T10:10:40Z</time>
      </trkpt>
      <trkpt lat="44.06055" lon="3.17553">
        <ele>801.1</ele>
        <time>2019-05-31T10:10:41Z</time>
      </trkpt>
      <trkpt lat="44.06053" lon="3.1756">
        <ele>801.1</ele>
        <time>2019-05-31T10:10:42Z</time>
      </trkpt>
      <trkpt lat="44.06052" lon="3.17571">
        <ele>801.1</ele>
        <time>2019-05-31T10:10:43Z</time>
      </trkpt>
      <trkpt lat="44.06054" lon="3.17578">
        <ele>801.1</ele>
        <time>2019-05-31T10:10:44Z</time>
      </trkpt>
      <trkpt lat="44.06056" lon="3.17588">
        <ele>801</ele>
        <time>2019-05-31T10:10:45Z</time>
      </trkpt>
      <trkpt lat="44.06055" lon="3.17597">
        <ele>801</ele>
        <time>2019-05-31T10:10:46Z</time>
      </trkpt>
      <trkpt lat="44.06056" lon="3.17607">
        <ele>800.8</ele>
        <time>2019-05-31T10:10:47Z</time>
      </trkpt>
      <trkpt lat="44.06052" lon="3.17616">
        <ele>800.7</ele>
        <time>2019-05-31T10:10:48Z</time>
      </trkpt>
      <trkpt lat="44.06051" lon="3.17624">
        <ele>800.6</ele>
        <time>2019-05-31T10:10:49Z</time>
      </trkpt>
      <trkpt lat="44.06051" lon="3.17631">
        <ele>800.5</ele>
        <time>2019-05-31T10:10:50Z</time>
      </trkpt>
      <trkpt lat="44.06051" lon="3.17642">
        <ele>800.3</ele>
        <time>2019-05-31T10:10:51Z</time>
      </trkpt>
      <trkpt lat="44.0605" lon="3.17653">
        <ele>800.2</ele>
        <time>2019-05-31T10:10:52Z</time>
      </trkpt>
      <trkpt lat="44.06048" lon="3.17662">
        <ele>800</ele>
        <time>2019-05-31T10:10:53Z</time>
      </trkpt>
      <trkpt lat="44.06045" lon="3.1767">
        <ele>799.9</ele>
        <time>2019-05-31T10:10:54Z</time>
      </trkpt>
      <trkpt lat="44.06046" lon="3.17678">
        <ele>799.8</ele>
        <time>2019-05-31T10:10:55Z</time>
      </trkpt>
      <trkpt lat="44.06046" lon="3.17687">
        <ele>799.7</ele>
        <time>2019-05-31T10:10:56Z</time>
      </trkpt>
      <trkpt lat="44.06046" lon="3.17696">
        <ele>799.6</ele>
        <time>2019-05-31T10:10:57Z</time>
      </trkpt>
      <trkpt lat="44.06047" lon="3.17705">
        <ele>799.5</ele>
        <time>2019-05-31T10:10:58Z</time>
      </trkpt>
      <trkpt lat="44.06047" lon="3.17714">
        <ele>799.4</ele>
        <time>2019-05-31T10:10:59Z</time>
      </trkpt>
      <trkpt lat="44.06047" lon="3.17725">
        <ele>799.4</ele>
        <time>2019-05-31T10:11:00Z</time>
      </trkpt>
      <trkpt lat="44.06048" lon="3.17737">
        <ele>799.3</ele>
        <time>2019-05-31T10:11:01Z</time>
      </trkpt>
      <trkpt lat="44.0605" lon="3.17749">
        <ele>799.3</ele>
        <time>2019-05-31T10:11:02Z</time>
      </trkpt>
      <trkpt lat="44.06052" lon="3.1776">
        <ele>799.3</ele>
        <time>2019-05-31T10:11:03Z</time>
      </trkpt>
      <trkpt lat="44.06055" lon="3.17767">
        <ele>799.3</ele>
        <time>2019-05-31T10:11:04Z</time>
      </trkpt>
      <trkpt lat="44.06057" lon="3.17776">
        <ele>799.3</ele>
        <time>2019-05-31T10:11:05Z</time>
      </trkpt>
      <trkpt lat="44.0606" lon="3.17784">
        <ele>799.3</ele>
        <time>2019-05-31T10:11:06Z</time>
      </trkpt>
      <trkpt lat="44.06061" lon="3.17794">
        <ele>799.3</ele>
        <time>2019-05-31T10:11:07Z</time>
      </trkpt>
      <trkpt lat="44.06062" lon="3.17804">
        <ele>799.2</ele>
        <time>2019-05-31T10:11:08Z</time>
      </trkpt>
      <trkpt lat="44.06062" lon="3.17812">
        <ele>799.2</ele>
        <time>2019-05-31T10:11:09Z</time>
      </trkpt>
      <trkpt lat="44.06062" lon="3.1782">
        <ele>799.2</ele>
        <time>2019-05-31T10:11:10Z</time>
      </trkpt>
      <trkpt lat="44.06063" lon="3.17827">
        <ele>799.1</ele>
        <time>2019-05-31T10:11:11Z</time>
      </trkpt>
      <trkpt lat="44.06063" lon="3.17832">
        <ele>799.1</ele>
        <time>2019-05-31T10:11:12Z</time>
      </trkpt>
      <trkpt lat="44.06064" lon="3.17838">
        <ele>799</ele>
        <time>2019-05-31T10:11:13Z</time>
      </trkpt>
      <trkpt lat="44.06064" lon="3.17843">
        <ele>799</ele>
        <time>2019-05-31T10:11:14Z</time>
      </trkpt>
      <trkpt lat="44.06068" lon="3.17848">
        <ele>798.9</ele>
        <time>2019-05-31T10:11:15Z</time>
      </trkpt>
      <trkpt lat="44.06069" lon="3.17853">
        <ele>798.9</ele>
        <time>2019-05-31T10:11:16Z</time>
      </trkpt>
      <trkpt lat="44.0607" lon="3.17858">
        <ele>798.8</ele>
        <time>2019-05-31T10:11:17Z</time>
      </trkpt>
      <trkpt lat="44.0607" lon="3.17865">
        <ele>798.7</ele>
        <time>2019-05-31T10:11:18Z</time>
      </trkpt>
      <trkpt lat="44.06069" lon="3.17871">
        <ele>798.6</ele>
        <time>2019-05-31T10:11:19Z</time>
      </trkpt>
      <trkpt lat="44.06068" lon="3.17877">
        <ele>798.6</ele>
        <time>2019-05-31T10:11:20Z</time>
      </trkpt>
      <trkpt lat="44.06066" lon="3.17884">
        <ele>798.5</ele>
        <time>2019-05-31T10:11:21Z</time>
      </trkpt>
      <trkpt lat="44.06065" lon="3.17891">
        <ele>798.4</ele>
        <time>2019-05-31T10:11:22Z</time>
      </trkpt>
      <trkpt lat="44.06065" lon="3.17898">
        <ele>798.3</ele>
        <time>2019-05-31T10:11:23Z</time>
      </trkpt>
      <trkpt lat="44.06064" lon="3.17906">
        <ele>798.2</ele>
        <time>2019-05-31T10:11:24Z</time>
      </trkpt>
      <trkpt lat="44.06064" lon="3.17914">
        <ele>798.1</ele>
        <time>2019-05-31T10:11:25Z</time>
      </trkpt>
      <trkpt lat="44.06064" lon="3.17921">
        <ele>797.9</ele>
        <time>2019-05-31T10:11:26Z</time>
      </trkpt>
      <trkpt lat="44.06065" lon="3.1793">
        <ele>797.8</ele>
        <time>2019-05-31T10:11:27Z</time>
      </trkpt>
      <trkpt lat="44.06066" lon="3.17936">
        <ele>797.6</ele>
        <time>2019-05-31T10:11:28Z</time>
      </trkpt>
      <trkpt lat="44.06067" lon="3.17943">
        <ele>797.5</ele>
        <time>2019-05-31T10:11:29Z</time>
      </trkpt>
      <trkpt lat="44.06068" lon="3.1795">
        <ele>797.3</ele>
        <time>2019-05-31T10:11:30Z</time>
      </trkpt>
      <trkpt lat="44.0607" lon="3.17958">
        <ele>797.1</ele>
        <time>2019-05-31T10:11:31Z</time>
      </trkpt>
      <trkpt lat="44.06071" lon="3.17964">
        <ele>796.9</ele>
        <time>2019-05-31T10:11:32Z</time>
      </trkpt>
      <trkpt lat="44.06071" lon="3.1797">
        <ele>796.8</ele>
        <time>2019-05-31T10:11:33Z</time>
      </trkpt>
      <trkpt lat="44.06072" lon="3.17973">
        <ele>796.7</ele>
        <time>2019-05-31T10:11:34Z</time>
      </trkpt>
      <trkpt lat="44.06073" lon="3.1798">
        <ele>796.5</ele>
        <time>2019-05-31T10:11:36Z</time>
      </trkpt>
      <trkpt lat="44.06075" lon="3.17985">
        <ele>796.4</ele>
        <time>2019-05-31T10:11:39Z</time>
      </trkpt>
      <trkpt lat="44.06077" lon="3.1799">
        <ele>796.2</ele>
        <time>2019-05-31T10:11:40Z</time>
      </trkpt>
      <trkpt lat="44.06077" lon="3.17994">
        <ele>796.1</ele>
        <time>2019-05-31T10:11:41Z</time>
      </trkpt>
      <trkpt lat="44.06079" lon="3.17999">
        <ele>796</ele>
        <time>2019-05-31T10:11:42Z</time>
      </trkpt>
      <trkpt lat="44.06078" lon="3.18004">
        <ele>795.9</ele>
        <time>2019-05-31T10:11:43Z</time>
      </trkpt>
      <trkpt lat="44.06079" lon="3.1801">
        <ele>795.7</ele>
        <time>2019-05-31T10:11:44Z</time>
      </trkpt>
      <trkpt lat="44.06079" lon="3.18016">
        <ele>795.6</ele>
        <time>2019-05-31T10:11:45Z</time>
      </trkpt>
      <trkpt lat="44.0608" lon="3.18022">
        <ele>795.4</ele>
        <time>2019-05-31T10:11:46Z</time>
      </trkpt>
      <trkpt lat="44.06081" lon="3.18028">
        <ele>795.2</ele>
        <time>2019-05-31T10:11:47Z</time>
      </trkpt>
      <trkpt lat="44.06081" lon="3.18033">
        <ele>795.1</ele>
        <time>2019-05-31T10:11:48Z</time>
      </trkpt>
      <trkpt lat="44.06082" lon="3.18039">
        <ele>794.8</ele>
        <time>2019-05-31T10:11:49Z</time>
      </trkpt>
      <trkpt lat="44.06082" lon="3.18044">
        <ele>794.7</ele>
        <time>2019-05-31T10:11:50Z</time>
      </trkpt>
      <trkpt lat="44.06083" lon="3.18049">
        <ele>794.5</ele>
        <time>2019-05-31T10:11:51Z</time>
      </trkpt>
      <trkpt lat="44.06084" lon="3.18055">
        <ele>794.4</ele>
        <time>2019-05-31T10:11:52Z</time>
      </trkpt>
      <trkpt lat="44.06086" lon="3.18059">
        <ele>794.3</ele>
        <time>2019-05-31T10:11:53Z</time>
      </trkpt>
      <trkpt lat="44.06088" lon="3.18063">
        <ele>794.2</ele>
        <time>2019-05-31T10:11:54Z</time>
      </trkpt>
      <trkpt lat="44.0609" lon="3.18066">
        <ele>794.1</ele>
        <time>2019-05-31T10:11:55Z</time>
      </trkpt>
      <trkpt lat="44.06093" lon="3.18068">
        <ele>794</ele>
        <time>2019-05-31T10:11:56Z</time>
      </trkpt>
      <trkpt lat="44.06096" lon="3.1807">
        <ele>793.8</ele>
        <time>2019-05-31T10:11:57Z</time>
      </trkpt>
      <trkpt lat="44.06099" lon="3.18072">
        <ele>793.7</ele>
        <time>2019-05-31T10:11:58Z</time>
      </trkpt>
      <trkpt lat="44.06102" lon="3.18071">
        <ele>793.6</ele>
        <time>2019-05-31T10:11:59Z</time>
      </trkpt>
      <trkpt lat="44.06105" lon="3.18069">
        <ele>793.5</ele>
        <time>2019-05-31T10:12:00Z</time>
      </trkpt>
      <trkpt lat="44.06107" lon="3.18066">
        <ele>793.3</ele>
        <time>2019-05-31T10:12:01Z</time>
      </trkpt>
      <trkpt lat="44.06109" lon="3.18063">
        <ele>793.2</ele>
        <time>2019-05-31T10:12:02Z</time>
      </trkpt>
      <trkpt lat="44.06111" lon="3.1806">
        <ele>793.1</ele>
        <time>2019-05-31T10:12:03Z</time>
      </trkpt>
      <trkpt lat="44.06113" lon="3.18057">
        <ele>793</ele>
        <time>2019-05-31T10:12:04Z</time>
      </trkpt>
      <trkpt lat="44.06118" lon="3.18057">
        <ele>792.7</ele>
        <time>2019-05-31T10:12:06Z</time>
      </trkpt>
      <trkpt lat="44.06122" lon="3.18063">
        <ele>792.5</ele>
        <time>2019-05-31T10:12:08Z</time>
      </trkpt>
      <trkpt lat="44.06123" lon="3.18067">
        <ele>792.4</ele>
        <time>2019-05-31T10:12:09Z</time>
      </trkpt>
      <trkpt lat="44.06124" lon="3.18072">
        <ele>792.3</ele>
        <time>2019-05-31T10:12:10Z</time>
      </trkpt>
      <trkpt lat="44.06125" lon="3.18076">
        <ele>792.2</ele>
        <time>2019-05-31T10:12:11Z</time>
      </trkpt>
      <trkpt lat="44.06127" lon="3.18082">
        <ele>792</ele>
        <time>2019-05-31T10:12:13Z</time>
      </trkpt>
      <trkpt lat="44.06132" lon="3.18085">
        <ele>791.8</ele>
        <time>2019-05-31T10:12:15Z</time>
      </trkpt>
      <trkpt lat="44.06136" lon="3.18084">
        <ele>790.9</ele>
        <time>2019-05-31T10:12:16Z</time>
      </trkpt>
      <trkpt lat="44.06139" lon="3.18082">
        <ele>791</ele>
        <time>2019-05-31T10:12:17Z</time>
      </trkpt>
      <trkpt lat="44.06143" lon="3.18081">
        <ele>791.1</ele>
        <time>2019-05-31T10:12:18Z</time>
      </trkpt>
      <trkpt lat="44.06147" lon="3.1808">
        <ele>791.2</ele>
        <time>2019-05-31T10:12:19Z</time>
      </trkpt>
      <trkpt lat="44.0615" lon="3.1808">
        <ele>791.3</ele>
        <time>2019-05-31T10:12:20Z</time>
      </trkpt>
      <trkpt lat="44.06154" lon="3.1808">
        <ele>791.4</ele>
        <time>2019-05-31T10:12:21Z</time>
      </trkpt>
      <trkpt lat="44.06157" lon="3.1808">
        <ele>791.5</ele>
        <time>2019-05-31T10:12:22Z</time>
      </trkpt>
      <trkpt lat="44.0616" lon="3.1808">
        <ele>791.7</ele>
        <time>2019-05-31T10:12:23Z</time>
      </trkpt>
      <trkpt lat="44.06164" lon="3.18079">
        <ele>791.8</ele>
        <time>2019-05-31T10:12:24Z</time>
      </trkpt>
      <trkpt lat="44.06167" lon="3.18077">
        <ele>792</ele>
        <time>2019-05-31T10:12:25Z</time>
      </trkpt>
      <trkpt lat="44.06171" lon="3.18074">
        <ele>792.1</ele>
        <time>2019-05-31T10:12:26Z</time>
      </trkpt>
      <trkpt lat="44.06175" lon="3.18071">
        <ele>792.3</ele>
        <time>2019-05-31T10:12:27Z</time>
      </trkpt>
      <trkpt lat="44.06179" lon="3.18069">
        <ele>792.5</ele>
        <time>2019-05-31T10:12:28Z</time>
      </trkpt>
      <trkpt lat="44.06182" lon="3.18067">
        <ele>792.6</ele>
        <time>2019-05-31T10:12:29Z</time>
      </trkpt>
      <trkpt lat="44.06186" lon="3.18065">
        <ele>792.7</ele>
        <time>2019-05-31T10:12:30Z</time>
      </trkpt>
      <trkpt lat="44.0619" lon="3.18064">
        <ele>792.8</ele>
        <time>2019-05-31T10:12:31Z</time>
      </trkpt>
      <trkpt lat="44.06193" lon="3.18063">
        <ele>792.9</ele>
        <time>2019-05-31T10:12:32Z</time>
      </trkpt>
      <trkpt lat="44.06196" lon="3.18062">
        <ele>793.1</ele>
        <time>2019-05-31T10:12:33Z</time>
      </trkpt>
      <trkpt lat="44.062" lon="3.18062">
        <ele>793.1</ele>
        <time>2019-05-31T10:12:34Z</time>
      </trkpt>
      <trkpt lat="44.06203" lon="3.18061">
        <ele>793.2</ele>
        <time>2019-05-31T10:12:35Z</time>
      </trkpt>
      <trkpt lat="44.06206" lon="3.18059">
        <ele>793.3</ele>
        <time>2019-05-31T10:12:36Z</time>
      </trkpt>
      <trkpt lat="44.06209" lon="3.18058">
        <ele>793.4</ele>
        <time>2019-05-31T10:12:37Z</time>
      </trkpt>
      <trkpt lat="44.06213" lon="3.18053">
        <ele>793.5</ele>
        <time>2019-05-31T10:12:39Z</time>
      </trkpt>
      <trkpt lat="44.06217" lon="3.18049">
        <ele>793.7</ele>
        <time>2019-05-31T10:12:41Z</time>
      </trkpt>
      <trkpt lat="44.0622" lon="3.18048">
        <ele>793.8</ele>
        <time>2019-05-31T10:12:42Z</time>
      </trkpt>
      <trkpt lat="44.06223" lon="3.18046">
        <ele>793.9</ele>
        <time>2019-05-31T10:12:43Z</time>
      </trkpt>
      <trkpt lat="44.06226" lon="3.18045">
        <ele>794</ele>
        <time>2019-05-31T10:12:44Z</time>
      </trkpt>
      <trkpt lat="44.06229" lon="3.18043">
        <ele>794</ele>
        <time>2019-05-31T10:12:45Z</time>
      </trkpt>
      <trkpt lat="44.06232" lon="3.18041">
        <ele>794.1</ele>
        <time>2019-05-31T10:12:46Z</time>
      </trkpt>
      <trkpt lat="44.06234" lon="3.18038">
        <ele>794.2</ele>
        <time>2019-05-31T10:12:47Z</time>
      </trkpt>
      <trkpt lat="44.06237" lon="3.18037">
        <ele>794.4</ele>
        <time>2019-05-31T10:12:48Z</time>
      </trkpt>
      <trkpt lat="44.06241" lon="3.18035">
        <ele>794.5</ele>
        <time>2019-05-31T10:12:49Z</time>
      </trkpt>
      <trkpt lat="44.06244" lon="3.18033">
        <ele>794.6</ele>
        <time>2019-05-31T10:12:50Z</time>
      </trkpt>
      <trkpt lat="44.06247" lon="3.1803">
        <ele>794.8</ele>
        <time>2019-05-31T10:12:51Z</time>
      </trkpt>
      <trkpt lat="44.0625" lon="3.18028">
        <ele>794.9</ele>
        <time>2019-05-31T10:12:52Z</time>
      </trkpt>
      <trkpt lat="44.06252" lon="3.18025">
        <ele>794.9</ele>
        <time>2019-05-31T10:12:53Z</time>
      </trkpt>
      <trkpt lat="44.06257" lon="3.18021">
        <ele>795.2</ele>
        <time>2019-05-31T10:12:55Z</time>
      </trkpt>
      <trkpt lat="44.0626" lon="3.18018">
        <ele>795.4</ele>
        <time>2019-05-31T10:12:56Z</time>
      </trkpt>
      <trkpt lat="44.06263" lon="3.18016">
        <ele>795.5</ele>
        <time>2019-05-31T10:12:57Z</time>
      </trkpt>
      <trkpt lat="44.06265" lon="3.18013">
        <ele>795.6</ele>
        <time>2019-05-31T10:12:58Z</time>
      </trkpt>
      <trkpt lat="44.06267" lon="3.18011">
        <ele>795.7</ele>
        <time>2019-05-31T10:12:59Z</time>
      </trkpt>
      <trkpt lat="44.0627" lon="3.18008">
        <ele>795.9</ele>
        <time>2019-05-31T10:13:00Z</time>
      </trkpt>
      <trkpt lat="44.06272" lon="3.18005">
        <ele>796.1</ele>
        <time>2019-05-31T10:13:01Z</time>
      </trkpt>
      <trkpt lat="44.06276" lon="3.17999">
        <ele>796.2</ele>
        <time>2019-05-31T10:13:03Z</time>
      </trkpt>
      <trkpt lat="44.06279" lon="3.17996">
        <ele>796.3</ele>
        <time>2019-05-31T10:13:04Z</time>
      </trkpt>
      <trkpt lat="44.06282" lon="3.17993">
        <ele>796.4</ele>
        <time>2019-05-31T10:13:05Z</time>
      </trkpt>
      <trkpt lat="44.06285" lon="3.1799">
        <ele>796.5</ele>
        <time>2019-05-31T10:13:06Z</time>
      </trkpt>
      <trkpt lat="44.06288" lon="3.17987">
        <ele>796.6</ele>
        <time>2019-05-31T10:13:07Z</time>
      </trkpt>
      <trkpt lat="44.06291" lon="3.17984">
        <ele>796.7</ele>
        <time>2019-05-31T10:13:08Z</time>
      </trkpt>
      <trkpt lat="44.06294" lon="3.17982">
        <ele>796.8</ele>
        <time>2019-05-31T10:13:09Z</time>
      </trkpt>
      <trkpt lat="44.06298" lon="3.1798">
        <ele>796.9</ele>
        <time>2019-05-31T10:13:10Z</time>
      </trkpt>
      <trkpt lat="44.06301" lon="3.17978">
        <ele>797</ele>
        <time>2019-05-31T10:13:11Z</time>
      </trkpt>
      <trkpt lat="44.06304" lon="3.17976">
        <ele>797.1</ele>
        <time>2019-05-31T10:13:12Z</time>
      </trkpt>
      <trkpt lat="44.06307" lon="3.17975">
        <ele>797.2</ele>
        <time>2019-05-31T10:13:13Z</time>
      </trkpt>
      <trkpt lat="44.0631" lon="3.17972">
        <ele>797.3</ele>
        <time>2019-05-31T10:13:14Z</time>
      </trkpt>
      <trkpt lat="44.06314" lon="3.1797">
        <ele>797.4</ele>
        <time>2019-05-31T10:13:15Z</time>
      </trkpt>
      <trkpt lat="44.06317" lon="3.17969">
        <ele>797.5</ele>
        <time>2019-05-31T10:13:16Z</time>
      </trkpt>
      <trkpt lat="44.06321" lon="3.17966">
        <ele>797.8</ele>
        <time>2019-05-31T10:13:18Z</time>
      </trkpt>
      <trkpt lat="44.06325" lon="3.17964">
        <ele>797.9</ele>
        <time>2019-05-31T10:13:19Z</time>
      </trkpt>
      <trkpt lat="44.06328" lon="3.17963">
        <ele>798.1</ele>
        <time>2019-05-31T10:13:20Z</time>
      </trkpt>
      <trkpt lat="44.06331" lon="3.17961">
        <ele>798.3</ele>
        <time>2019-05-31T10:13:21Z</time>
      </trkpt>
      <trkpt lat="44.06334" lon="3.1796">
        <ele>798.4</ele>
        <time>2019-05-31T10:13:22Z</time>
      </trkpt>
      <trkpt lat="44.06338" lon="3.17959">
        <ele>798.6</ele>
        <time>2019-05-31T10:13:23Z</time>
      </trkpt>
      <trkpt lat="44.06342" lon="3.17958">
        <ele>798.8</ele>
        <time>2019-05-31T10:13:24Z</time>
      </trkpt>
      <trkpt lat="44.06345" lon="3.17957">
        <ele>798.9</ele>
        <time>2019-05-31T10:13:25Z</time>
      </trkpt>
      <trkpt lat="44.06348" lon="3.17956">
        <ele>798.9</ele>
        <time>2019-05-31T10:13:26Z</time>
      </trkpt>
      <trkpt lat="44.06354" lon="3.17955">
        <ele>799.1</ele>
        <time>2019-05-31T10:13:28Z</time>
      </trkpt>
      <trkpt lat="44.06358" lon="3.17954">
        <ele>799.3</ele>
        <time>2019-05-31T10:13:29Z</time>
      </trkpt>
      <trkpt lat="44.06361" lon="3.17954">
        <ele>799.4</ele>
        <time>2019-05-31T10:13:30Z</time>
      </trkpt>
      <trkpt lat="44.06364" lon="3.17953">
        <ele>799.5</ele>
        <time>2019-05-31T10:13:31Z</time>
      </trkpt>
      <trkpt lat="44.06367" lon="3.17952">
        <ele>799.6</ele>
        <time>2019-05-31T10:13:32Z</time>
      </trkpt>
      <trkpt lat="44.06371" lon="3.17952">
        <ele>799.7</ele>
        <time>2019-05-31T10:13:33Z</time>
      </trkpt>
      <trkpt lat="44.06375" lon="3.17951">
        <ele>799.8</ele>
        <time>2019-05-31T10:13:34Z</time>
      </trkpt>
      <trkpt lat="44.06378" lon="3.17949">
        <ele>799.9</ele>
        <time>2019-05-31T10:13:35Z</time>
      </trkpt>
      <trkpt lat="44.06382" lon="3.17947">
        <ele>800</ele>
        <time>2019-05-31T10:13:36Z</time>
      </trkpt>
      <trkpt lat="44.06386" lon="3.17946">
        <ele>800.1</ele>
        <time>2019-05-31T10:13:37Z</time>
      </trkpt>
      <trkpt lat="44.06389" lon="3.17944">
        <ele>800.3</ele>
        <time>2019-05-31T10:13:38Z</time>
      </trkpt>
      <trkpt lat="44.06393" lon="3.17943">
        <ele>800.4</ele>
        <time>2019-05-31T10:13:39Z</time>
      </trkpt>
      <trkpt lat="44.06396" lon="3.17941">
        <ele>800.5</ele>
        <time>2019-05-31T10:13:40Z</time>
      </trkpt>
      <trkpt lat="44.06399" lon="3.1794">
        <ele>800.6</ele>
        <time>2019-05-31T10:13:41Z</time>
      </trkpt>
      <trkpt lat="44.06403" lon="3.17938">
        <ele>800.8</ele>
        <time>2019-05-31T10:13:42Z</time>
      </trkpt>
      <trkpt lat="44.06406" lon="3.17937">
        <ele>801</ele>
        <time>2019-05-31T10:13:43Z</time>
      </trkpt>
      <trkpt lat="44.06409" lon="3.17935">
        <ele>801.1</ele>
        <time>2019-05-31T10:13:44Z</time>
      </trkpt>
      <trkpt lat="44.06413" lon="3.17934">
        <ele>801.3</ele>
        <time>2019-05-31T10:13:45Z</time>
      </trkpt>
      <trkpt lat="44.06416" lon="3.17932">
        <ele>801.4</ele>
        <time>2019-05-31T10:13:46Z</time>
      </trkpt>
      <trkpt lat="44.0642" lon="3.17931">
        <ele>801.5</ele>
        <time>2019-05-31T10:13:47Z</time>
      </trkpt>
      <trkpt lat="44.06423" lon="3.17929">
        <ele>801.6</ele>
        <time>2019-05-31T10:13:48Z</time>
      </trkpt>
      <trkpt lat="44.06426" lon="3.17927">
        <ele>801.7</ele>
        <time>2019-05-31T10:13:49Z</time>
      </trkpt>
      <trkpt lat="44.0643" lon="3.17925">
        <ele>801.8</ele>
        <time>2019-05-31T10:13:50Z</time>
      </trkpt>
      <trkpt lat="44.06433" lon="3.17923">
        <ele>801.8</ele>
        <time>2019-05-31T10:13:51Z</time>
      </trkpt>
      <trkpt lat="44.06436" lon="3.17922">
        <ele>801.8</ele>
        <time>2019-05-31T10:13:52Z</time>
      </trkpt>
      <trkpt lat="44.06438" lon="3.1792">
        <ele>801.8</ele>
        <time>2019-05-31T10:13:53Z</time>
      </trkpt>
      <trkpt lat="44.06442" lon="3.17918">
        <ele>801.8</ele>
        <time>2019-05-31T10:13:54Z</time>
      </trkpt>
      <trkpt lat="44.06445" lon="3.17917">
        <ele>801.8</ele>
        <time>2019-05-31T10:13:55Z</time>
      </trkpt>
      <trkpt lat="44.06449" lon="3.17915">
        <ele>801.7</ele>
        <time>2019-05-31T10:13:56Z</time>
      </trkpt>
      <trkpt lat="44.06453" lon="3.17913">
        <ele>801.6</ele>
        <time>2019-05-31T10:13:57Z</time>
      </trkpt>
      <trkpt lat="44.06456" lon="3.1791">
        <ele>801.5</ele>
        <time>2019-05-31T10:13:58Z</time>
      </trkpt>
      <trkpt lat="44.0646" lon="3.17908">
        <ele>801.4</ele>
        <time>2019-05-31T10:13:59Z</time>
      </trkpt>
      <trkpt lat="44.06464" lon="3.17906">
        <ele>801.3</ele>
        <time>2019-05-31T10:14:00Z</time>
      </trkpt>
      <trkpt lat="44.06469" lon="3.17906">
        <ele>801</ele>
        <time>2019-05-31T10:14:01Z</time>
      </trkpt>
      <trkpt lat="44.06474" lon="3.17906">
        <ele>800.9</ele>
        <time>2019-05-31T10:14:02Z</time>
      </trkpt>
      <trkpt lat="44.0648" lon="3.17904">
        <ele>800.7</ele>
        <time>2019-05-31T10:14:03Z</time>
      </trkpt>
      <trkpt lat="44.06484" lon="3.17901">
        <ele>800.5</ele>
        <time>2019-05-31T10:14:04Z</time>
      </trkpt>
      <trkpt lat="44.06489" lon="3.17902">
        <ele>800.4</ele>
        <time>2019-05-31T10:14:05Z</time>
      </trkpt>
      <trkpt lat="44.06494" lon="3.17901">
        <ele>800.2</ele>
        <time>2019-05-31T10:14:06Z</time>
      </trkpt>
      <trkpt lat="44.06501" lon="3.179">
        <ele>799.9</ele>
        <time>2019-05-31T10:14:07Z</time>
      </trkpt>
      <trkpt lat="44.06507" lon="3.179">
        <ele>799.7</ele>
        <time>2019-05-31T10:14:08Z</time>
      </trkpt>
      <trkpt lat="44.06515" lon="3.17898">
        <ele>799.4</ele>
        <time>2019-05-31T10:14:09Z</time>
      </trkpt>
      <trkpt lat="44.06521" lon="3.17897">
        <ele>799</ele>
        <time>2019-05-31T10:14:10Z</time>
      </trkpt>
      <trkpt lat="44.06529" lon="3.17893">
        <ele>798.4</ele>
        <time>2019-05-31T10:14:11Z</time>
      </trkpt>
      <trkpt lat="44.06536" lon="3.17891">
        <ele>797.9</ele>
        <time>2019-05-31T10:14:12Z</time>
      </trkpt>
      <trkpt lat="44.06543" lon="3.17889">
        <ele>797.3</ele>
        <time>2019-05-31T10:14:13Z</time>
      </trkpt>
      <trkpt lat="44.06551" lon="3.17886">
        <ele>796.5</ele>
        <time>2019-05-31T10:14:14Z</time>
      </trkpt>
      <trkpt lat="44.06558" lon="3.17884">
        <ele>795.8</ele>
        <time>2019-05-31T10:14:15Z</time>
      </trkpt>
      <trkpt lat="44.06567" lon="3.17882">
        <ele>795.1</ele>
        <time>2019-05-31T10:14:16Z</time>
      </trkpt>
      <trkpt lat="44.06575" lon="3.1788">
        <ele>794.7</ele>
        <time>2019-05-31T10:14:17Z</time>
      </trkpt>
      <trkpt lat="44.06583" lon="3.17878">
        <ele>794.1</ele>
        <time>2019-05-31T10:14:18Z</time>
      </trkpt>
      <trkpt lat="44.06591" lon="3.17874">
        <ele>793.8</ele>
        <time>2019-05-31T10:14:19Z</time>
      </trkpt>
      <trkpt lat="44.06599" lon="3.1787">
        <ele>793.3</ele>
        <time>2019-05-31T10:14:20Z</time>
      </trkpt>
      <trkpt lat="44.06606" lon="3.17865">
        <ele>793</ele>
        <time>2019-05-31T10:14:21Z</time>
      </trkpt>
      <trkpt lat="44.06615" lon="3.17859">
        <ele>792.6</ele>
        <time>2019-05-31T10:14:22Z</time>
      </trkpt>
      <trkpt lat="44.06623" lon="3.17854">
        <ele>792.4</ele>
        <time>2019-05-31T10:14:23Z</time>
      </trkpt>
      <trkpt lat="44.06631" lon="3.1785">
        <ele>791.9</ele>
        <time>2019-05-31T10:14:24Z</time>
      </trkpt>
      <trkpt lat="44.0664" lon="3.17846">
        <ele>791.6</ele>
        <time>2019-05-31T10:14:25Z</time>
      </trkpt>
      <trkpt lat="44.06648" lon="3.17842">
        <ele>791.4</ele>
        <time>2019-05-31T10:14:26Z</time>
      </trkpt>
      <trkpt lat="44.06657" lon="3.17839">
        <ele>791.2</ele>
        <time>2019-05-31T10:14:27Z</time>
      </trkpt>
      <trkpt lat="44.06666" lon="3.17837">
        <ele>790.9</ele>
        <time>2019-05-31T10:14:28Z</time>
      </trkpt>
      <trkpt lat="44.06675" lon="3.17835">
        <ele>790.8</ele>
        <time>2019-05-31T10:14:29Z</time>
      </trkpt>
      <trkpt lat="44.06683" lon="3.17834">
        <ele>790.6</ele>
        <time>2019-05-31T10:14:30Z</time>
      </trkpt>
      <trkpt lat="44.06691" lon="3.17834">
        <ele>790.4</ele>
        <time>2019-05-31T10:14:31Z</time>
      </trkpt>
      <trkpt lat="44.06699" lon="3.17832">
        <ele>790.2</ele>
        <time>2019-05-31T10:14:32Z</time>
      </trkpt>
      <trkpt lat="44.06706" lon="3.17831">
        <ele>790.1</ele>
        <time>2019-05-31T10:14:33Z</time>
      </trkpt>
      <trkpt lat="44.06714" lon="3.1783">
        <ele>789.9</ele>
        <time>2019-05-31T10:14:34Z</time>
      </trkpt>
      <trkpt lat="44.06721" lon="3.17829">
        <ele>789.7</ele>
        <time>2019-05-31T10:14:35Z</time>
      </trkpt>
      <trkpt lat="44.06728" lon="3.17827">
        <ele>789.6</ele>
        <time>2019-05-31T10:14:36Z</time>
      </trkpt>
      <trkpt lat="44.06734" lon="3.17826">
        <ele>789.5</ele>
        <time>2019-05-31T10:14:37Z</time>
      </trkpt>
      <trkpt lat="44.0674" lon="3.17825">
        <ele>789.4</ele>
        <time>2019-05-31T10:14:38Z</time>
      </trkpt>
      <trkpt lat="44.06747" lon="3.17824">
        <ele>789.2</ele>
        <time>2019-05-31T10:14:39Z</time>
      </trkpt>
      <trkpt lat="44.06754" lon="3.17822">
        <ele>789</ele>
        <time>2019-05-31T10:14:40Z</time>
      </trkpt>
      <trkpt lat="44.0676" lon="3.17822">
        <ele>788.9</ele>
        <time>2019-05-31T10:14:41Z</time>
      </trkpt>
      <trkpt lat="44.06767" lon="3.17821">
        <ele>788.8</ele>
        <time>2019-05-31T10:14:42Z</time>
      </trkpt>
      <trkpt lat="44.06775" lon="3.17817">
        <ele>788.5</ele>
        <time>2019-05-31T10:14:43Z</time>
      </trkpt>
      <trkpt lat="44.06782" lon="3.17814">
        <ele>788.4</ele>
        <time>2019-05-31T10:14:44Z</time>
      </trkpt>
      <trkpt lat="44.06788" lon="3.17815">
        <ele>788.3</ele>
        <time>2019-05-31T10:14:45Z</time>
      </trkpt>
      <trkpt lat="44.06795" lon="3.17816">
        <ele>788.2</ele>
        <time>2019-05-31T10:14:46Z</time>
      </trkpt>
      <trkpt lat="44.06803" lon="3.17816">
        <ele>788.1</ele>
        <time>2019-05-31T10:14:47Z</time>
      </trkpt>
      <trkpt lat="44.06812" lon="3.1781">
        <ele>788.1</ele>
        <time>2019-05-31T10:14:48Z</time>
      </trkpt>
      <trkpt lat="44.06818" lon="3.17809">
        <ele>788.1</ele>
        <time>2019-05-31T10:14:49Z</time>
      </trkpt>
      <trkpt lat="44.06825" lon="3.17809">
        <ele>788.1</ele>
        <time>2019-05-31T10:14:50Z</time>
      </trkpt>
      <trkpt lat="44.06832" lon="3.17808">
        <ele>788.2</ele>
        <time>2019-05-31T10:14:51Z</time>
      </trkpt>
      <trkpt lat="44.06838" lon="3.17808">
        <ele>788.3</ele>
        <time>2019-05-31T10:14:52Z</time>
      </trkpt>
      <trkpt lat="44.06844" lon="3.17807">
        <ele>788.5</ele>
        <time>2019-05-31T10:14:53Z</time>
      </trkpt>
      <trkpt lat="44.0685" lon="3.17806">
        <ele>788.7</ele>
        <time>2019-05-31T10:14:54Z</time>
      </trkpt>
      <trkpt lat="44.06855" lon="3.17806">
        <ele>788.9</ele>
        <time>2019-05-31T10:14:55Z</time>
      </trkpt>
      <trkpt lat="44.06861" lon="3.17807">
        <ele>789.1</ele>
        <time>2019-05-31T10:14:56Z</time>
      </trkpt>
      <trkpt lat="44.06867" lon="3.17807">
        <ele>789.3</ele>
        <time>2019-05-31T10:14:57Z</time>
      </trkpt>
      <trkpt lat="44.06872" lon="3.17804">
        <ele>789.5</ele>
        <time>2019-05-31T10:14:58Z</time>
      </trkpt>
      <trkpt lat="44.06877" lon="3.17805">
        <ele>789.7</ele>
        <time>2019-05-31T10:14:59Z</time>
      </trkpt>
      <trkpt lat="44.06883" lon="3.17807">
        <ele>789.8</ele>
        <time>2019-05-31T10:15:00Z</time>
      </trkpt>
      <trkpt lat="44.06888" lon="3.17808">
        <ele>790</ele>
        <time>2019-05-31T10:15:01Z</time>
      </trkpt>
      <trkpt lat="44.06892" lon="3.17809">
        <ele>790.1</ele>
        <time>2019-05-31T10:15:02Z</time>
      </trkpt>
      <trkpt lat="44.06896" lon="3.17809">
        <ele>790.4</ele>
        <time>2019-05-31T10:15:03Z</time>
      </trkpt>
      <trkpt lat="44.06902" lon="3.1781">
        <ele>790.6</ele>
        <time>2019-05-31T10:15:04Z</time>
      </trkpt>
      <trkpt lat="44.06908" lon="3.17811">
        <ele>790.8</ele>
        <time>2019-05-31T10:15:05Z</time>
      </trkpt>
      <trkpt lat="44.06912" lon="3.17812">
        <ele>790.9</ele>
        <time>2019-05-31T10:15:06Z</time>
      </trkpt>
      <trkpt lat="44.06917" lon="3.17815">
        <ele>791.1</ele>
        <time>2019-05-31T10:15:07Z</time>
      </trkpt>
      <trkpt lat="44.06922" lon="3.17816">
        <ele>791.1</ele>
        <time>2019-05-31T10:15:08Z</time>
      </trkpt>
      <trkpt lat="44.06927" lon="3.17817">
        <ele>791.2</ele>
        <time>2019-05-31T10:15:09Z</time>
      </trkpt>
      <trkpt lat="44.06932" lon="3.17818">
        <ele>791.3</ele>
        <time>2019-05-31T10:15:10Z</time>
      </trkpt>
      <trkpt lat="44.06937" lon="3.17819">
        <ele>791.4</ele>
        <time>2019-05-31T10:15:11Z</time>
      </trkpt>
      <trkpt lat="44.06941" lon="3.17819">
        <ele>791.4</ele>
        <time>2019-05-31T10:15:12Z</time>
      </trkpt>
      <trkpt lat="44.06946" lon="3.1782">
        <ele>791.4</ele>
        <time>2019-05-31T10:15:13Z</time>
      </trkpt>
      <trkpt lat="44.06951" lon="3.1782">
        <ele>791.4</ele>
        <time>2019-05-31T10:15:14Z</time>
      </trkpt>
      <trkpt lat="44.06956" lon="3.17821">
        <ele>791.3</ele>
        <time>2019-05-31T10:15:15Z</time>
      </trkpt>
      <trkpt lat="44.0696" lon="3.17821">
        <ele>791.3</ele>
        <time>2019-05-31T10:15:16Z</time>
      </trkpt>
      <trkpt lat="44.06964" lon="3.17822">
        <ele>791.2</ele>
        <time>2019-05-31T10:15:17Z</time>
      </trkpt>
      <trkpt lat="44.06969" lon="3.1782">
        <ele>791.1</ele>
        <time>2019-05-31T10:15:18Z</time>
      </trkpt>
      <trkpt lat="44.06973" lon="3.17819">
        <ele>791.1</ele>
        <time>2019-05-31T10:15:19Z</time>
      </trkpt>
      <trkpt lat="44.06977" lon="3.17819">
        <ele>791</ele>
        <time>2019-05-31T10:15:20Z</time>
      </trkpt>
      <trkpt lat="44.06982" lon="3.17818">
        <ele>791</ele>
        <time>2019-05-31T10:15:21Z</time>
      </trkpt>
      <trkpt lat="44.06986" lon="3.17819">
        <ele>791</ele>
        <time>2019-05-31T10:15:22Z</time>
      </trkpt>
      <trkpt lat="44.06991" lon="3.1782">
        <ele>791.1</ele>
        <time>2019-05-31T10:15:23Z</time>
      </trkpt>
      <trkpt lat="44.06998" lon="3.1782">
        <ele>791.4</ele>
        <time>2019-05-31T10:15:24Z</time>
      </trkpt>
      <trkpt lat="44.07004" lon="3.17823">
        <ele>791.7</ele>
        <time>2019-05-31T10:15:25Z</time>
      </trkpt>
      <trkpt lat="44.07008" lon="3.17828">
        <ele>792</ele>
        <time>2019-05-31T10:15:26Z</time>
      </trkpt>
      <trkpt lat="44.07013" lon="3.17834">
        <ele>792.4</ele>
        <time>2019-05-31T10:15:27Z</time>
      </trkpt>
      <trkpt lat="44.07017" lon="3.17841">
        <ele>792.8</ele>
        <time>2019-05-31T10:15:28Z</time>
      </trkpt>
      <trkpt lat="44.0702" lon="3.17849">
        <ele>793.3</ele>
        <time>2019-05-31T10:15:29Z</time>
      </trkpt>
      <trkpt lat="44.07025" lon="3.17856">
        <ele>793.8</ele>
        <time>2019-05-31T10:15:30Z</time>
      </trkpt>
      <trkpt lat="44.07031" lon="3.17861">
        <ele>794.2</ele>
        <time>2019-05-31T10:15:31Z</time>
      </trkpt>
      <trkpt lat="44.07037" lon="3.17862">
        <ele>794</ele>
        <time>2019-05-31T10:15:32Z</time>
      </trkpt>
      <trkpt lat="44.07044" lon="3.17859">
        <ele>793.9</ele>
        <time>2019-05-31T10:15:33Z</time>
      </trkpt>
      <trkpt lat="44.0705" lon="3.17855">
        <ele>793.6</ele>
        <time>2019-05-31T10:15:34Z</time>
      </trkpt>
      <trkpt lat="44.07055" lon="3.1785">
        <ele>793.2</ele>
        <time>2019-05-31T10:15:35Z</time>
      </trkpt>
      <trkpt lat="44.0706" lon="3.17845">
        <ele>792.9</ele>
        <time>2019-05-31T10:15:36Z</time>
      </trkpt>
      <trkpt lat="44.07066" lon="3.1784">
        <ele>792.8</ele>
        <time>2019-05-31T10:15:37Z</time>
      </trkpt>
      <trkpt lat="44.07071" lon="3.17836">
        <ele>792.5</ele>
        <time>2019-05-31T10:15:38Z</time>
      </trkpt>
      <trkpt lat="44.07074" lon="3.17831">
        <ele>792.3</ele>
        <time>2019-05-31T10:15:39Z</time>
      </trkpt>
      <trkpt lat="44.0708" lon="3.17828">
        <ele>792</ele>
        <time>2019-05-31T10:15:40Z</time>
      </trkpt>
      <trkpt lat="44.07085" lon="3.17822">
        <ele>791.8</ele>
        <time>2019-05-31T10:15:41Z</time>
      </trkpt>
      <trkpt lat="44.07089" lon="3.17818">
        <ele>791.8</ele>
        <time>2019-05-31T10:15:42Z</time>
      </trkpt>
      <trkpt lat="44.07093" lon="3.17812">
        <ele>791.6</ele>
        <time>2019-05-31T10:15:43Z</time>
      </trkpt>
      <trkpt lat="44.07095" lon="3.17804">
        <ele>791.4</ele>
        <time>2019-05-31T10:15:44Z</time>
      </trkpt>
      <trkpt lat="44.071" lon="3.17796">
        <ele>791.1</ele>
        <time>2019-05-31T10:15:45Z</time>
      </trkpt>
      <trkpt lat="44.07102" lon="3.17791">
        <ele>791</ele>
        <time>2019-05-31T10:15:46Z</time>
      </trkpt>
      <trkpt lat="44.07105" lon="3.17786">
        <ele>790.8</ele>
        <time>2019-05-31T10:15:47Z</time>
      </trkpt>
      <trkpt lat="44.07107" lon="3.17781">
        <ele>790.7</ele>
        <time>2019-05-31T10:15:48Z</time>
      </trkpt>
      <trkpt lat="44.07108" lon="3.17777">
        <ele>790.6</ele>
        <time>2019-05-31T10:15:49Z</time>
      </trkpt>
      <trkpt lat="44.0711" lon="3.17772">
        <ele>790.5</ele>
        <time>2019-05-31T10:15:50Z</time>
      </trkpt>
      <trkpt lat="44.07114" lon="3.17766">
        <ele>790.3</ele>
        <time>2019-05-31T10:15:51Z</time>
      </trkpt>
      <trkpt lat="44.07117" lon="3.17761">
        <ele>790.2</ele>
        <time>2019-05-31T10:15:52Z</time>
      </trkpt>
      <trkpt lat="44.07121" lon="3.17759">
        <ele>790.3</ele>
        <time>2019-05-31T10:15:54Z</time>
      </trkpt>
      <trkpt lat="44.07125" lon="3.17758">
        <ele>790.5</ele>
        <time>2019-05-31T10:15:56Z</time>
      </trkpt>
      <trkpt lat="44.07127" lon="3.17753">
        <ele>790.5</ele>
        <time>2019-05-31T10:15:58Z</time>
      </trkpt>
      <trkpt lat="44.07127" lon="3.17746">
        <ele>790.6</ele>
        <time>2019-05-31T10:16:00Z</time>
      </trkpt>
      <trkpt lat="44.07127" lon="3.1774">
        <ele>790.6</ele>
        <time>2019-05-31T10:16:02Z</time>
      </trkpt>
      <trkpt lat="44.07127" lon="3.17733">
        <ele>790.6</ele>
        <time>2019-05-31T10:16:04Z</time>
      </trkpt>
      <trkpt lat="44.07128" lon="3.17729">
        <ele>790.6</ele>
        <time>2019-05-31T10:16:05Z</time>
      </trkpt>
      <trkpt lat="44.07129" lon="3.17725">
        <ele>790.6</ele>
        <time>2019-05-31T10:16:06Z</time>
      </trkpt>
      <trkpt lat="44.0713" lon="3.17719">
        <ele>790.7</ele>
        <time>2019-05-31T10:16:07Z</time>
      </trkpt>
      <trkpt lat="44.07132" lon="3.17714">
        <ele>790.7</ele>
        <time>2019-05-31T10:16:08Z</time>
      </trkpt>
      <trkpt lat="44.07133" lon="3.17706">
        <ele>790.7</ele>
        <time>2019-05-31T10:16:09Z</time>
      </trkpt>
      <trkpt lat="44.07133" lon="3.17702">
        <ele>790.7</ele>
        <time>2019-05-31T10:16:10Z</time>
      </trkpt>
      <trkpt lat="44.07135" lon="3.17695">
        <ele>790.7</ele>
        <time>2019-05-31T10:16:11Z</time>
      </trkpt>
      <trkpt lat="44.07136" lon="3.1769">
        <ele>790.7</ele>
        <time>2019-05-31T10:16:12Z</time>
      </trkpt>
      <trkpt lat="44.07137" lon="3.17685">
        <ele>790.7</ele>
        <time>2019-05-31T10:16:13Z</time>
      </trkpt>
      <trkpt lat="44.0714" lon="3.17678">
        <ele>790.8</ele>
        <time>2019-05-31T10:16:14Z</time>
      </trkpt>
      <trkpt lat="44.07142" lon="3.17671">
        <ele>790.8</ele>
        <time>2019-05-31T10:16:15Z</time>
      </trkpt>
      <trkpt lat="44.07144" lon="3.17666">
        <ele>790.8</ele>
        <time>2019-05-31T10:16:16Z</time>
      </trkpt>
      <trkpt lat="44.07147" lon="3.1766">
        <ele>790.8</ele>
        <time>2019-05-31T10:16:17Z</time>
      </trkpt>
      <trkpt lat="44.07149" lon="3.17653">
        <ele>790.8</ele>
        <time>2019-05-31T10:16:18Z</time>
      </trkpt>
      <trkpt lat="44.07151" lon="3.17647">
        <ele>790.8</ele>
        <time>2019-05-31T10:16:19Z</time>
      </trkpt>
      <trkpt lat="44.07151" lon="3.1764">
        <ele>790.8</ele>
        <time>2019-05-31T10:16:20Z</time>
      </trkpt>
      <trkpt lat="44.07152" lon="3.17634">
        <ele>790.8</ele>
        <time>2019-05-31T10:16:21Z</time>
      </trkpt>
      <trkpt lat="44.07154" lon="3.17628">
        <ele>790.8</ele>
        <time>2019-05-31T10:16:22Z</time>
      </trkpt>
      <trkpt lat="44.07154" lon="3.17621">
        <ele>790.8</ele>
        <time>2019-05-31T10:16:23Z</time>
      </trkpt>
      <trkpt lat="44.07155" lon="3.17615">
        <ele>790.8</ele>
        <time>2019-05-31T10:16:24Z</time>
      </trkpt>
      <trkpt lat="44.07156" lon="3.17608">
        <ele>790.8</ele>
        <time>2019-05-31T10:16:25Z</time>
      </trkpt>
      <trkpt lat="44.07159" lon="3.17603">
        <ele>790.8</ele>
        <time>2019-05-31T10:16:26Z</time>
      </trkpt>
      <trkpt lat="44.0716" lon="3.17594">
        <ele>790.8</ele>
        <time>2019-05-31T10:16:27Z</time>
      </trkpt>
      <trkpt lat="44.07162" lon="3.17588">
        <ele>790.8</ele>
        <time>2019-05-31T10:16:28Z</time>
      </trkpt>
      <trkpt lat="44.07164" lon="3.17581">
        <ele>790.8</ele>
        <time>2019-05-31T10:16:29Z</time>
      </trkpt>
      <trkpt lat="44.07167" lon="3.17575">
        <ele>790.8</ele>
        <time>2019-05-31T10:16:30Z</time>
      </trkpt>
      <trkpt lat="44.07171" lon="3.17568">
        <ele>790.8</ele>
        <time>2019-05-31T10:16:31Z</time>
      </trkpt>
      <trkpt lat="44.07174" lon="3.17562">
        <ele>790.8</ele>
        <time>2019-05-31T10:16:32Z</time>
      </trkpt>
      <trkpt lat="44.07178" lon="3.17558">
        <ele>790.8</ele>
        <time>2019-05-31T10:16:33Z</time>
      </trkpt>
      <trkpt lat="44.07181" lon="3.17554">
        <ele>790.8</ele>
        <time>2019-05-31T10:16:34Z</time>
      </trkpt>
      <trkpt lat="44.07181" lon="3.17546">
        <ele>790.8</ele>
        <time>2019-05-31T10:16:35Z</time>
      </trkpt>
      <trkpt lat="44.07182" lon="3.17538">
        <ele>790.7</ele>
        <time>2019-05-31T10:16:36Z</time>
      </trkpt>
      <trkpt lat="44.07183" lon="3.1753">
        <ele>790.7</ele>
        <time>2019-05-31T10:16:37Z</time>
      </trkpt>
      <trkpt lat="44.07185" lon="3.17516">
        <ele>790.7</ele>
        <time>2019-05-31T10:16:38Z</time>
      </trkpt>
      <trkpt lat="44.07187" lon="3.1751">
        <ele>790.7</ele>
        <time>2019-05-31T10:16:39Z</time>
      </trkpt>
      <trkpt lat="44.0719" lon="3.17504">
        <ele>790.7</ele>
        <time>2019-05-31T10:16:40Z</time>
      </trkpt>
      <trkpt lat="44.07193" lon="3.17497">
        <ele>790.7</ele>
        <time>2019-05-31T10:16:41Z</time>
      </trkpt>
      <trkpt lat="44.07199" lon="3.17491">
        <ele>790.7</ele>
        <time>2019-05-31T10:16:42Z</time>
      </trkpt>
      <trkpt lat="44.07199" lon="3.17484">
        <ele>790.7</ele>
        <time>2019-05-31T10:16:43Z</time>
      </trkpt>
      <trkpt lat="44.07201" lon="3.17478">
        <ele>790.7</ele>
        <time>2019-05-31T10:16:44Z</time>
      </trkpt>
      <trkpt lat="44.07201" lon="3.1747">
        <ele>790.7</ele>
        <time>2019-05-31T10:16:45Z</time>
      </trkpt>
      <trkpt lat="44.07203" lon="3.17465">
        <ele>790.7</ele>
        <time>2019-05-31T10:16:46Z</time>
      </trkpt>
      <trkpt lat="44.07204" lon="3.17457">
        <ele>790.7</ele>
        <time>2019-05-31T10:16:47Z</time>
      </trkpt>
      <trkpt lat="44.07207" lon="3.1745">
        <ele>790.7</ele>
        <time>2019-05-31T10:16:48Z</time>
      </trkpt>
      <trkpt lat="44.0721" lon="3.17446">
        <ele>790.7</ele>
        <time>2019-05-31T10:16:49Z</time>
      </trkpt>
      <trkpt lat="44.07212" lon="3.17438">
        <ele>790.7</ele>
        <time>2019-05-31T10:16:50Z</time>
      </trkpt>
      <trkpt lat="44.07214" lon="3.1743">
        <ele>790.8</ele>
        <time>2019-05-31T10:16:51Z</time>
      </trkpt>
      <trkpt lat="44.07215" lon="3.17424">
        <ele>790.8</ele>
        <time>2019-05-31T10:16:52Z</time>
      </trkpt>
      <trkpt lat="44.07217" lon="3.17418">
        <ele>790.8</ele>
        <time>2019-05-31T10:16:53Z</time>
      </trkpt>
      <trkpt lat="44.07218" lon="3.17412">
        <ele>790.8</ele>
        <time>2019-05-31T10:16:54Z</time>
      </trkpt>
      <trkpt lat="44.07219" lon="3.17407">
        <ele>790.8</ele>
        <time>2019-05-31T10:16:56Z</time>
      </trkpt>
      <trkpt lat="44.0722" lon="3.17403">
        <ele>790.9</ele>
        <time>2019-05-31T10:16:57Z</time>
      </trkpt>
      <trkpt lat="44.07221" lon="3.17399">
        <ele>790.9</ele>
        <time>2019-05-31T10:16:58Z</time>
      </trkpt>
      <trkpt lat="44.07221" lon="3.17395">
        <ele>790.9</ele>
        <time>2019-05-31T10:16:59Z</time>
      </trkpt>
      <trkpt lat="44.07221" lon="3.17388">
        <ele>790.9</ele>
        <time>2019-05-31T10:17:01Z</time>
      </trkpt>
      <trkpt lat="44.07223" lon="3.17378">
        <ele>791</ele>
        <time>2019-05-31T10:17:03Z</time>
      </trkpt>
      <trkpt lat="44.07224" lon="3.17375">
        <ele>791</ele>
        <time>2019-05-31T10:17:05Z</time>
      </trkpt>
      <trkpt lat="44.07225" lon="3.1737">
        <ele>791</ele>
        <time>2019-05-31T10:17:07Z</time>
      </trkpt>
      <trkpt lat="44.07226" lon="3.17363">
        <ele>791</ele>
        <time>2019-05-31T10:17:09Z</time>
      </trkpt>
      <trkpt lat="44.07226" lon="3.1736">
        <ele>791.1</ele>
        <time>2019-05-31T10:17:10Z</time>
      </trkpt>
      <trkpt lat="44.07227" lon="3.17356">
        <ele>791.1</ele>
        <time>2019-05-31T10:17:11Z</time>
      </trkpt>
      <trkpt lat="44.07228" lon="3.17352">
        <ele>791.1</ele>
        <time>2019-05-31T10:17:12Z</time>
      </trkpt>
      <trkpt lat="44.07228" lon="3.17348">
        <ele>791.1</ele>
        <time>2019-05-31T10:17:13Z</time>
      </trkpt>
      <trkpt lat="44.07228" lon="3.17342">
        <ele>791.2</ele>
        <time>2019-05-31T10:17:15Z</time>
      </trkpt>
      <trkpt lat="44.07228" lon="3.17337">
        <ele>791.2</ele>
        <time>2019-05-31T10:17:16Z</time>
      </trkpt>
      <trkpt lat="44.07229" lon="3.17333">
        <ele>791.2</ele>
        <time>2019-05-31T10:17:17Z</time>
      </trkpt>
      <trkpt lat="44.07229" lon="3.1733">
        <ele>791.2</ele>
        <time>2019-05-31T10:17:18Z</time>
      </trkpt>
      <trkpt lat="44.07229" lon="3.17323">
        <ele>791.2</ele>
        <time>2019-05-31T10:17:20Z</time>
      </trkpt>
      <trkpt lat="44.07231" lon="3.17317">
        <ele>791.3</ele>
        <time>2019-05-31T10:17:22Z</time>
      </trkpt>
      <trkpt lat="44.07234" lon="3.17319">
        <ele>791.3</ele>
        <time>2019-05-31T10:17:25Z</time>
      </trkpt>
      <trkpt lat="44.07235" lon="3.17323">
        <ele>791.3</ele>
        <time>2019-05-31T10:17:33Z</time>
      </trkpt>
      <trkpt lat="44.07235" lon="3.17327">
        <ele>791.3</ele>
        <time>2019-05-31T10:17:37Z</time>
      </trkpt>
      <trkpt lat="44.07238" lon="3.1733">
        <ele>791.4</ele>
        <time>2019-05-31T10:17:51Z</time>
      </trkpt>
      <trkpt lat="44.07239" lon="3.17334">
        <ele>791.4</ele>
        <time>2019-05-31T10:17:54Z</time>
      </trkpt>
      <trkpt lat="44.0724" lon="3.17338">
        <ele>791.4</ele>
        <time>2019-05-31T10:17:56Z</time>
      </trkpt>
      <trkpt lat="44.07241" lon="3.17344">
        <ele>791.3</ele>
        <time>2019-05-31T10:17:59Z</time>
      </trkpt>
      <trkpt lat="44.07242" lon="3.1735">
        <ele>791.2</ele>
        <time>2019-05-31T10:18:01Z</time>
      </trkpt>
      <trkpt lat="44.07243" lon="3.17354">
        <ele>791.2</ele>
        <time>2019-05-31T10:18:02Z</time>
      </trkpt>
      <trkpt lat="44.07244" lon="3.17359">
        <ele>791.1</ele>
        <time>2019-05-31T10:18:03Z</time>
      </trkpt>
      <trkpt lat="44.07245" lon="3.17364">
        <ele>791</ele>
        <time>2019-05-31T10:18:04Z</time>
      </trkpt>
      <trkpt lat="44.07245" lon="3.17369">
        <ele>790.9</ele>
        <time>2019-05-31T10:18:05Z</time>
      </trkpt>
      <trkpt lat="44.07247" lon="3.17374">
        <ele>790.8</ele>
        <time>2019-05-31T10:18:06Z</time>
      </trkpt>
      <trkpt lat="44.07248" lon="3.1738">
        <ele>790.7</ele>
        <time>2019-05-31T10:18:07Z</time>
      </trkpt>
      <trkpt lat="44.0725" lon="3.17384">
        <ele>790.6</ele>
        <time>2019-05-31T10:18:08Z</time>
      </trkpt>
      <trkpt lat="44.07255" lon="3.17394">
        <ele>790.3</ele>
        <time>2019-05-31T10:18:09Z</time>
      </trkpt>
      <trkpt lat="44.07261" lon="3.17399">
        <ele>790.1</ele>
        <time>2019-05-31T10:18:10Z</time>
      </trkpt>
      <trkpt lat="44.07264" lon="3.17405">
        <ele>790</ele>
        <time>2019-05-31T10:18:11Z</time>
      </trkpt>
      <trkpt lat="44.07268" lon="3.17411">
        <ele>789.8</ele>
        <time>2019-05-31T10:18:12Z</time>
      </trkpt>
      <trkpt lat="44.07274" lon="3.17423">
        <ele>789.5</ele>
        <time>2019-05-31T10:18:13Z</time>
      </trkpt>
      <trkpt lat="44.07277" lon="3.17435">
        <ele>789.3</ele>
        <time>2019-05-31T10:18:14Z</time>
      </trkpt>
      <trkpt lat="44.07279" lon="3.17444">
        <ele>789.1</ele>
        <time>2019-05-31T10:18:15Z</time>
      </trkpt>
      <trkpt lat="44.07284" lon="3.17453">
        <ele>788.8</ele>
        <time>2019-05-31T10:18:16Z</time>
      </trkpt>
      <trkpt lat="44.07287" lon="3.1746">
        <ele>788.6</ele>
        <time>2019-05-31T10:18:17Z</time>
      </trkpt>
      <trkpt lat="44.07289" lon="3.17468">
        <ele>788.4</ele>
        <time>2019-05-31T10:18:18Z</time>
      </trkpt>
      <trkpt lat="44.07294" lon="3.17474">
        <ele>788.2</ele>
        <time>2019-05-31T10:18:19Z</time>
      </trkpt>
      <trkpt lat="44.07297" lon="3.17479">
        <ele>788.1</ele>
        <time>2019-05-31T10:18:20Z</time>
      </trkpt>
      <trkpt lat="44.07307" lon="3.17482">
        <ele>787.9</ele>
        <time>2019-05-31T10:18:21Z</time>
      </trkpt>
      <trkpt lat="44.0731" lon="3.17485">
        <ele>787.9</ele>
        <time>2019-05-31T10:18:22Z</time>
      </trkpt>
      <trkpt lat="44.07317" lon="3.17494">
        <ele>787.8</ele>
        <time>2019-05-31T10:18:24Z</time>
      </trkpt>
      <trkpt lat="44.07322" lon="3.17496">
        <ele>787.9</ele>
        <time>2019-05-31T10:18:25Z</time>
      </trkpt>
      <trkpt lat="44.07325" lon="3.17495">
        <ele>788</ele>
        <time>2019-05-31T10:18:26Z</time>
      </trkpt>
      <trkpt lat="44.07329" lon="3.17499">
        <ele>788.1</ele>
        <time>2019-05-31T10:18:27Z</time>
      </trkpt>
      <trkpt lat="44.07331" lon="3.17506">
        <ele>788.3</ele>
        <time>2019-05-31T10:18:30Z</time>
      </trkpt>
      <trkpt lat="44.07333" lon="3.1751">
        <ele>788.4</ele>
        <time>2019-05-31T10:18:33Z</time>
      </trkpt>
      <trkpt lat="44.07334" lon="3.17515">
        <ele>788.5</ele>
        <time>2019-05-31T10:18:37Z</time>
      </trkpt>
      <trkpt lat="44.07336" lon="3.1752">
        <ele>788.6</ele>
        <time>2019-05-31T10:18:40Z</time>
      </trkpt>
      <trkpt lat="44.07337" lon="3.17525">
        <ele>788.8</ele>
        <time>2019-05-31T10:18:43Z</time>
      </trkpt>
      <trkpt lat="44.07339" lon="3.17529">
        <ele>788.9</ele>
        <time>2019-05-31T10:18:45Z</time>
      </trkpt>
      <trkpt lat="44.0734" lon="3.17532">
        <ele>789.1</ele>
        <time>2019-05-31T10:18:47Z</time>
      </trkpt>
      <trkpt lat="44.07343" lon="3.17536">
        <ele>789.2</ele>
        <time>2019-05-31T10:18:49Z</time>
      </trkpt>
      <trkpt lat="44.07346" lon="3.17539">
        <ele>789.3</ele>
        <time>2019-05-31T10:18:51Z</time>
      </trkpt>
      <trkpt lat="44.07348" lon="3.17542">
        <ele>789.4</ele>
        <time>2019-05-31T10:18:53Z</time>
      </trkpt>
      <trkpt lat="44.0735" lon="3.17546">
        <ele>789.5</ele>
        <time>2019-05-31T10:18:55Z</time>
      </trkpt>
      <trkpt lat="44.07352" lon="3.1755">
        <ele>789.6</ele>
        <time>2019-05-31T10:18:57Z</time>
      </trkpt>
      <trkpt lat="44.07354" lon="3.17553">
        <ele>789.7</ele>
        <time>2019-05-31T10:18:59Z</time>
      </trkpt>
      <trkpt lat="44.07357" lon="3.17556">
        <ele>789.9</ele>
        <time>2019-05-31T10:19:02Z</time>
      </trkpt>
      <trkpt lat="44.0736" lon="3.17559">
        <ele>790</ele>
        <time>2019-05-31T10:19:05Z</time>
      </trkpt>
      <trkpt lat="44.07363" lon="3.17563">
        <ele>790.1</ele>
        <time>2019-05-31T10:19:07Z</time>
      </trkpt>
      <trkpt lat="44.07365" lon="3.17567">
        <ele>790.3</ele>
        <time>2019-05-31T10:19:09Z</time>
      </trkpt>
      <trkpt lat="44.07367" lon="3.17569">
        <ele>790.4</ele>
        <time>2019-05-31T10:19:14Z</time>
      </trkpt>
      <trkpt lat="44.0737" lon="3.17572">
        <ele>790.5</ele>
        <time>2019-05-31T10:20:17Z</time>
      </trkpt>
      <trkpt lat="44.07372" lon="3.17576">
        <ele>790.7</ele>
        <time>2019-05-31T10:20:19Z</time>
      </trkpt>
      <trkpt lat="44.07375" lon="3.17581">
        <ele>790.9</ele>
        <time>2019-05-31T10:20:21Z</time>
      </trkpt>
      <trkpt lat="44.07379" lon="3.17586">
        <ele>791.1</ele>
        <time>2019-05-31T10:20:23Z</time>
      </trkpt>
      <trkpt lat="44.07381" lon="3.17589">
        <ele>791.2</ele>
        <time>2019-05-31T10:20:24Z</time>
      </trkpt>
      <trkpt lat="44.07384" lon="3.17593">
        <ele>791.4</ele>
        <time>2019-05-31T10:20:25Z</time>
      </trkpt>
      <trkpt lat="44.07387" lon="3.17597">
        <ele>791.5</ele>
        <time>2019-05-31T10:20:26Z</time>
      </trkpt>
      <trkpt lat="44.07397" lon="3.17609">
        <ele>792</ele>
        <time>2019-05-31T10:20:27Z</time>
      </trkpt>
      <trkpt lat="44.07401" lon="3.17615">
        <ele>792.1</ele>
        <time>2019-05-31T10:20:28Z</time>
      </trkpt>
      <trkpt lat="44.07406" lon="3.17618">
        <ele>792.2</ele>
        <time>2019-05-31T10:20:29Z</time>
      </trkpt>
      <trkpt lat="44.0741" lon="3.17625">
        <ele>792.3</ele>
        <time>2019-05-31T10:20:30Z</time>
      </trkpt>
      <trkpt lat="44.07414" lon="3.17629">
        <ele>792.3</ele>
        <time>2019-05-31T10:20:31Z</time>
      </trkpt>
      <trkpt lat="44.07417" lon="3.1763">
        <ele>792.3</ele>
        <time>2019-05-31T10:20:32Z</time>
      </trkpt>
      <trkpt lat="44.07423" lon="3.17634">
        <ele>792.4</ele>
        <time>2019-05-31T10:20:33Z</time>
      </trkpt>
      <trkpt lat="44.07426" lon="3.17642">
        <ele>792.4</ele>
        <time>2019-05-31T10:20:34Z</time>
      </trkpt>
      <trkpt lat="44.07429" lon="3.17648">
        <ele>792.4</ele>
        <time>2019-05-31T10:20:35Z</time>
      </trkpt>
      <trkpt lat="44.07435" lon="3.17652">
        <ele>792.4</ele>
        <time>2019-05-31T10:20:36Z</time>
      </trkpt>
      <trkpt lat="44.0744" lon="3.17655">
        <ele>792.4</ele>
        <time>2019-05-31T10:20:37Z</time>
      </trkpt>
      <trkpt lat="44.07444" lon="3.17659">
        <ele>792.4</ele>
        <time>2019-05-31T10:20:38Z</time>
      </trkpt>
      <trkpt lat="44.07449" lon="3.17661">
        <ele>792.3</ele>
        <time>2019-05-31T10:20:39Z</time>
      </trkpt>
      <trkpt lat="44.07452" lon="3.17663">
        <ele>792.3</ele>
        <time>2019-05-31T10:20:40Z</time>
      </trkpt>
      <trkpt lat="44.07456" lon="3.17668">
        <ele>792.2</ele>
        <time>2019-05-31T10:20:42Z</time>
      </trkpt>
      <trkpt lat="44.07457" lon="3.17674">
        <ele>792.2</ele>
        <time>2019-05-31T10:20:43Z</time>
      </trkpt>
      <trkpt lat="44.0746" lon="3.17678">
        <ele>792.1</ele>
        <time>2019-05-31T10:20:44Z</time>
      </trkpt>
      <trkpt lat="44.07463" lon="3.17683">
        <ele>792</ele>
        <time>2019-05-31T10:20:45Z</time>
      </trkpt>
      <trkpt lat="44.07465" lon="3.17688">
        <ele>791.8</ele>
        <time>2019-05-31T10:20:46Z</time>
      </trkpt>
      <trkpt lat="44.07468" lon="3.17692">
        <ele>791.6</ele>
        <time>2019-05-31T10:20:47Z</time>
      </trkpt>
      <trkpt lat="44.07469" lon="3.17697">
        <ele>791.5</ele>
        <time>2019-05-31T10:20:48Z</time>
      </trkpt>
      <trkpt lat="44.07471" lon="3.17702">
        <ele>791.3</ele>
        <time>2019-05-31T10:20:49Z</time>
      </trkpt>
      <trkpt lat="44.07473" lon="3.17708">
        <ele>791.1</ele>
        <time>2019-05-31T10:20:50Z</time>
      </trkpt>
      <trkpt lat="44.07475" lon="3.17713">
        <ele>791</ele>
        <time>2019-05-31T10:20:51Z</time>
      </trkpt>
      <trkpt lat="44.07476" lon="3.17722">
        <ele>790.7</ele>
        <time>2019-05-31T10:20:52Z</time>
      </trkpt>
      <trkpt lat="44.07478" lon="3.17728">
        <ele>790.6</ele>
        <time>2019-05-31T10:20:53Z</time>
      </trkpt>
      <trkpt lat="44.0748" lon="3.17734">
        <ele>790.4</ele>
        <time>2019-05-31T10:20:54Z</time>
      </trkpt>
      <trkpt lat="44.07483" lon="3.17742">
        <ele>790.2</ele>
        <time>2019-05-31T10:20:55Z</time>
      </trkpt>
      <trkpt lat="44.07485" lon="3.17748">
        <ele>790</ele>
        <time>2019-05-31T10:20:56Z</time>
      </trkpt>
      <trkpt lat="44.07487" lon="3.17754">
        <ele>789.8</ele>
        <time>2019-05-31T10:20:57Z</time>
      </trkpt>
      <trkpt lat="44.07489" lon="3.17759">
        <ele>789.6</ele>
        <time>2019-05-31T10:20:58Z</time>
      </trkpt>
      <trkpt lat="44.07491" lon="3.17763">
        <ele>789.4</ele>
        <time>2019-05-31T10:20:59Z</time>
      </trkpt>
      <trkpt lat="44.07493" lon="3.17767">
        <ele>789.2</ele>
        <time>2019-05-31T10:21:00Z</time>
      </trkpt>
      <trkpt lat="44.07499" lon="3.1777">
        <ele>788.8</ele>
        <time>2019-05-31T10:21:01Z</time>
      </trkpt>
      <trkpt lat="44.07503" lon="3.17774">
        <ele>788.5</ele>
        <time>2019-05-31T10:21:02Z</time>
      </trkpt>
      <trkpt lat="44.07506" lon="3.17779">
        <ele>788.2</ele>
        <time>2019-05-31T10:21:03Z</time>
      </trkpt>
      <trkpt lat="44.07512" lon="3.17785">
        <ele>787.7</ele>
        <time>2019-05-31T10:21:04Z</time>
      </trkpt>
      <trkpt lat="44.07519" lon="3.17789">
        <ele>787.2</ele>
        <time>2019-05-31T10:21:05Z</time>
      </trkpt>
      <trkpt lat="44.07525" lon="3.17796">
        <ele>786.7</ele>
        <time>2019-05-31T10:21:06Z</time>
      </trkpt>
      <trkpt lat="44.0753" lon="3.17802">
        <ele>786.1</ele>
        <time>2019-05-31T10:21:07Z</time>
      </trkpt>
      <trkpt lat="44.07533" lon="3.17811">
        <ele>785.6</ele>
        <time>2019-05-31T10:21:08Z</time>
      </trkpt>
      <trkpt lat="44.07538" lon="3.17818">
        <ele>785.1</ele>
        <time>2019-05-31T10:21:09Z</time>
      </trkpt>
      <trkpt lat="44.07544" lon="3.17824">
        <ele>784.7</ele>
        <time>2019-05-31T10:21:10Z</time>
      </trkpt>
      <trkpt lat="44.07548" lon="3.17829">
        <ele>784.3</ele>
        <time>2019-05-31T10:21:11Z</time>
      </trkpt>
      <trkpt lat="44.07553" lon="3.17836">
        <ele>783.9</ele>
        <time>2019-05-31T10:21:12Z</time>
      </trkpt>
      <trkpt lat="44.07556" lon="3.17838">
        <ele>783.7</ele>
        <time>2019-05-31T10:21:13Z</time>
      </trkpt>
      <trkpt lat="44.07558" lon="3.17848">
        <ele>783.2</ele>
        <time>2019-05-31T10:21:15Z</time>
      </trkpt>
      <trkpt lat="44.0756" lon="3.17853">
        <ele>783</ele>
        <time>2019-05-31T10:21:16Z</time>
      </trkpt>
      <trkpt lat="44.07562" lon="3.17858">
        <ele>782.5</ele>
        <time>2019-05-31T10:21:17Z</time>
      </trkpt>
      <trkpt lat="44.07566" lon="3.17862">
        <ele>781.9</ele>
        <time>2019-05-31T10:21:18Z</time>
      </trkpt>
      <trkpt lat="44.0757" lon="3.17868">
        <ele>781.3</ele>
        <time>2019-05-31T10:21:19Z</time>
      </trkpt>
      <trkpt lat="44.07576" lon="3.17875">
        <ele>780.6</ele>
        <time>2019-05-31T10:21:20Z</time>
      </trkpt>
      <trkpt lat="44.07582" lon="3.17881">
        <ele>779.8</ele>
        <time>2019-05-31T10:21:21Z</time>
      </trkpt>
      <trkpt lat="44.07587" lon="3.1789">
        <ele>779</ele>
        <time>2019-05-31T10:21:22Z</time>
      </trkpt>
      <trkpt lat="44.07592" lon="3.17899">
        <ele>778</ele>
        <time>2019-05-31T10:21:23Z</time>
      </trkpt>
      <trkpt lat="44.07596" lon="3.17907">
        <ele>777</ele>
        <time>2019-05-31T10:21:24Z</time>
      </trkpt>
      <trkpt lat="44.07599" lon="3.17913">
        <ele>776.2</ele>
        <time>2019-05-31T10:21:25Z</time>
      </trkpt>
      <trkpt lat="44.07603" lon="3.17919">
        <ele>775.5</ele>
        <time>2019-05-31T10:21:26Z</time>
      </trkpt>
      <trkpt lat="44.07607" lon="3.17925">
        <ele>774.9</ele>
        <time>2019-05-31T10:21:27Z</time>
      </trkpt>
      <trkpt lat="44.07612" lon="3.17933">
        <ele>774.1</ele>
        <time>2019-05-31T10:21:28Z</time>
      </trkpt>
      <trkpt lat="44.07616" lon="3.1794">
        <ele>773.5</ele>
        <time>2019-05-31T10:21:29Z</time>
      </trkpt>
      <trkpt lat="44.07619" lon="3.17946">
        <ele>773</ele>
        <time>2019-05-31T10:21:30Z</time>
      </trkpt>
      <trkpt lat="44.07624" lon="3.17953">
        <ele>772.4</ele>
        <time>2019-05-31T10:21:31Z</time>
      </trkpt>
      <trkpt lat="44.07627" lon="3.17956">
        <ele>772.1</ele>
        <time>2019-05-31T10:21:32Z</time>
      </trkpt>
      <trkpt lat="44.07631" lon="3.17963">
        <ele>771.5</ele>
        <time>2019-05-31T10:21:33Z</time>
      </trkpt>
      <trkpt lat="44.07635" lon="3.17969">
        <ele>770.9</ele>
        <time>2019-05-31T10:21:34Z</time>
      </trkpt>
      <trkpt lat="44.0764" lon="3.17973">
        <ele>770.4</ele>
        <time>2019-05-31T10:21:35Z</time>
      </trkpt>
      <trkpt lat="44.07643" lon="3.17978">
        <ele>770</ele>
        <time>2019-05-31T10:21:36Z</time>
      </trkpt>
      <trkpt lat="44.07648" lon="3.17985">
        <ele>769.5</ele>
        <time>2019-05-31T10:21:37Z</time>
      </trkpt>
      <trkpt lat="44.07652" lon="3.17989">
        <ele>769</ele>
        <time>2019-05-31T10:21:38Z</time>
      </trkpt>
      <trkpt lat="44.07659" lon="3.17998">
        <ele>768.2</ele>
        <time>2019-05-31T10:21:39Z</time>
      </trkpt>
      <trkpt lat="44.07664" lon="3.18004">
        <ele>767.6</ele>
        <time>2019-05-31T10:21:40Z</time>
      </trkpt>
      <trkpt lat="44.0767" lon="3.18008">
        <ele>767.2</ele>
        <time>2019-05-31T10:21:41Z</time>
      </trkpt>
      <trkpt lat="44.07676" lon="3.18013">
        <ele>766.7</ele>
        <time>2019-05-31T10:21:42Z</time>
      </trkpt>
      <trkpt lat="44.07681" lon="3.18018">
        <ele>766.4</ele>
        <time>2019-05-31T10:21:43Z</time>
      </trkpt>
      <trkpt lat="44.07684" lon="3.18023">
        <ele>766.2</ele>
        <time>2019-05-31T10:21:44Z</time>
      </trkpt>
      <trkpt lat="44.07687" lon="3.18027">
        <ele>766</ele>
        <time>2019-05-31T10:21:45Z</time>
      </trkpt>
      <trkpt lat="44.0769" lon="3.18032">
        <ele>765.9</ele>
        <time>2019-05-31T10:21:46Z</time>
      </trkpt>
      <trkpt lat="44.07692" lon="3.18037">
        <ele>765.8</ele>
        <time>2019-05-31T10:21:47Z</time>
      </trkpt>
      <trkpt lat="44.07694" lon="3.1804">
        <ele>765.7</ele>
        <time>2019-05-31T10:21:48Z</time>
      </trkpt>
      <trkpt lat="44.07697" lon="3.18045">
        <ele>765.6</ele>
        <time>2019-05-31T10:21:49Z</time>
      </trkpt>
      <trkpt lat="44.077" lon="3.18048">
        <ele>765.7</ele>
        <time>2019-05-31T10:21:50Z</time>
      </trkpt>
      <trkpt lat="44.07702" lon="3.18053">
        <ele>765.9</ele>
        <time>2019-05-31T10:21:51Z</time>
      </trkpt>
      <trkpt lat="44.07704" lon="3.18059">
        <ele>766.1</ele>
        <time>2019-05-31T10:21:53Z</time>
      </trkpt>
      <trkpt lat="44.07707" lon="3.18064">
        <ele>766.3</ele>
        <time>2019-05-31T10:21:55Z</time>
      </trkpt>
      <trkpt lat="44.07709" lon="3.18069">
        <ele>766.7</ele>
        <time>2019-05-31T10:21:57Z</time>
      </trkpt>
      <trkpt lat="44.07712" lon="3.18074">
        <ele>767</ele>
        <time>2019-05-31T10:21:59Z</time>
      </trkpt>
      <trkpt lat="44.07716" lon="3.18077">
        <ele>767.3</ele>
        <time>2019-05-31T10:22:01Z</time>
      </trkpt>
      <trkpt lat="44.07719" lon="3.1808">
        <ele>767.5</ele>
        <time>2019-05-31T10:22:03Z</time>
      </trkpt>
      <trkpt lat="44.07722" lon="3.18084">
        <ele>767.9</ele>
        <time>2019-05-31T10:22:05Z</time>
      </trkpt>
      <trkpt lat="44.07725" lon="3.18086">
        <ele>768.2</ele>
        <time>2019-05-31T10:22:07Z</time>
      </trkpt>
      <trkpt lat="44.07727" lon="3.18088">
        <ele>768.5</ele>
        <time>2019-05-31T10:22:09Z</time>
      </trkpt>
      <trkpt lat="44.07729" lon="3.18092">
        <ele>768.8</ele>
        <time>2019-05-31T10:22:11Z</time>
      </trkpt>
      <trkpt lat="44.07731" lon="3.18097">
        <ele>769.3</ele>
        <time>2019-05-31T10:22:13Z</time>
      </trkpt>
      <trkpt lat="44.07733" lon="3.18101">
        <ele>769.6</ele>
        <time>2019-05-31T10:22:15Z</time>
      </trkpt>
      <trkpt lat="44.07736" lon="3.18106">
        <ele>770.2</ele>
        <time>2019-05-31T10:22:17Z</time>
      </trkpt>
      <trkpt lat="44.07739" lon="3.18111">
        <ele>770.7</ele>
        <time>2019-05-31T10:22:19Z</time>
      </trkpt>
      <trkpt lat="44.07742" lon="3.18115">
        <ele>771.1</ele>
        <time>2019-05-31T10:22:21Z</time>
      </trkpt>
      <trkpt lat="44.07745" lon="3.18119">
        <ele>771.1</ele>
        <time>2019-05-31T10:22:23Z</time>
      </trkpt>
      <trkpt lat="44.07749" lon="3.18124">
        <ele>771.2</ele>
        <time>2019-05-31T10:22:25Z</time>
      </trkpt>
      <trkpt lat="44.07752" lon="3.18127">
        <ele>771.2</ele>
        <time>2019-05-31T10:22:27Z</time>
      </trkpt>
      <trkpt lat="44.07756" lon="3.18129">
        <ele>771.2</ele>
        <time>2019-05-31T10:22:29Z</time>
      </trkpt>
      <trkpt lat="44.0776" lon="3.18131">
        <ele>771.2</ele>
        <time>2019-05-31T10:22:32Z</time>
      </trkpt>
      <trkpt lat="44.07765" lon="3.18132">
        <ele>771.1</ele>
        <time>2019-05-31T10:22:34Z</time>
      </trkpt>
      <trkpt lat="44.07769" lon="3.18131">
        <ele>771.1</ele>
        <time>2019-05-31T10:22:35Z</time>
      </trkpt>
      <trkpt lat="44.07773" lon="3.18131">
        <ele>771</ele>
        <time>2019-05-31T10:22:36Z</time>
      </trkpt>
      <trkpt lat="44.07777" lon="3.1813">
        <ele>770.9</ele>
        <time>2019-05-31T10:22:37Z</time>
      </trkpt>
      <trkpt lat="44.07781" lon="3.18129">
        <ele>770.9</ele>
        <time>2019-05-31T10:22:38Z</time>
      </trkpt>
      <trkpt lat="44.07784" lon="3.18129">
        <ele>770.8</ele>
        <time>2019-05-31T10:22:39Z</time>
      </trkpt>
      <trkpt lat="44.07787" lon="3.18128">
        <ele>770.7</ele>
        <time>2019-05-31T10:22:40Z</time>
      </trkpt>
      <trkpt lat="44.0779" lon="3.18129">
        <ele>770.7</ele>
        <time>2019-05-31T10:22:41Z</time>
      </trkpt>
      <trkpt lat="44.07793" lon="3.1813">
        <ele>770.6</ele>
        <time>2019-05-31T10:22:42Z</time>
      </trkpt>
      <trkpt lat="44.07797" lon="3.1813">
        <ele>770.5</ele>
        <time>2019-05-31T10:22:43Z</time>
      </trkpt>
      <trkpt lat="44.07802" lon="3.1813">
        <ele>770.4</ele>
        <time>2019-05-31T10:22:44Z</time>
      </trkpt>
      <trkpt lat="44.07806" lon="3.1813">
        <ele>770.3</ele>
        <time>2019-05-31T10:22:45Z</time>
      </trkpt>
      <trkpt lat="44.07811" lon="3.18129">
        <ele>770.3</ele>
        <time>2019-05-31T10:22:46Z</time>
      </trkpt>
      <trkpt lat="44.07815" lon="3.18129">
        <ele>770.2</ele>
        <time>2019-05-31T10:22:47Z</time>
      </trkpt>
      <trkpt lat="44.07819" lon="3.18128">
        <ele>770.2</ele>
        <time>2019-05-31T10:22:48Z</time>
      </trkpt>
      <trkpt lat="44.07823" lon="3.18128">
        <ele>770.2</ele>
        <time>2019-05-31T10:22:49Z</time>
      </trkpt>
      <trkpt lat="44.07827" lon="3.18128">
        <ele>770.2</ele>
        <time>2019-05-31T10:22:50Z</time>
      </trkpt>
      <trkpt lat="44.07831" lon="3.18128">
        <ele>770.3</ele>
        <time>2019-05-31T10:22:51Z</time>
      </trkpt>
      <trkpt lat="44.07835" lon="3.18128">
        <ele>770.3</ele>
        <time>2019-05-31T10:22:52Z</time>
      </trkpt>
      <trkpt lat="44.07839" lon="3.18127">
        <ele>770.3</ele>
        <time>2019-05-31T10:22:53Z</time>
      </trkpt>
      <trkpt lat="44.07844" lon="3.18126">
        <ele>770.4</ele>
        <time>2019-05-31T10:22:54Z</time>
      </trkpt>
      <trkpt lat="44.07848" lon="3.18125">
        <ele>770.4</ele>
        <time>2019-05-31T10:22:55Z</time>
      </trkpt>
      <trkpt lat="44.07852" lon="3.18125">
        <ele>770.5</ele>
        <time>2019-05-31T10:22:56Z</time>
      </trkpt>
      <trkpt lat="44.07856" lon="3.18126">
        <ele>770.5</ele>
        <time>2019-05-31T10:22:57Z</time>
      </trkpt>
      <trkpt lat="44.0786" lon="3.18128">
        <ele>770.6</ele>
        <time>2019-05-31T10:22:58Z</time>
      </trkpt>
      <trkpt lat="44.07864" lon="3.18129">
        <ele>770.6</ele>
        <time>2019-05-31T10:22:59Z</time>
      </trkpt>
      <trkpt lat="44.07868" lon="3.18131">
        <ele>770.6</ele>
        <time>2019-05-31T10:23:00Z</time>
      </trkpt>
      <trkpt lat="44.07874" lon="3.18134">
        <ele>770.8</ele>
        <time>2019-05-31T10:23:01Z</time>
      </trkpt>
      <trkpt lat="44.07878" lon="3.18134">
        <ele>770.8</ele>
        <time>2019-05-31T10:23:02Z</time>
      </trkpt>
      <trkpt lat="44.07882" lon="3.18133">
        <ele>770.9</ele>
        <time>2019-05-31T10:23:03Z</time>
      </trkpt>
      <trkpt lat="44.07887" lon="3.18131">
        <ele>771</ele>
        <time>2019-05-31T10:23:04Z</time>
      </trkpt>
      <trkpt lat="44.07892" lon="3.1813">
        <ele>771.1</ele>
        <time>2019-05-31T10:23:05Z</time>
      </trkpt>
      <trkpt lat="44.07897" lon="3.18129">
        <ele>771.3</ele>
        <time>2019-05-31T10:23:06Z</time>
      </trkpt>
      <trkpt lat="44.079" lon="3.18129">
        <ele>771.3</ele>
        <time>2019-05-31T10:23:07Z</time>
      </trkpt>
      <trkpt lat="44.07905" lon="3.18127">
        <ele>771.5</ele>
        <time>2019-05-31T10:23:08Z</time>
      </trkpt>
      <trkpt lat="44.07909" lon="3.18127">
        <ele>771.6</ele>
        <time>2019-05-31T10:23:09Z</time>
      </trkpt>
      <trkpt lat="44.07916" lon="3.18125">
        <ele>771.8</ele>
        <time>2019-05-31T10:23:11Z</time>
      </trkpt>
      <trkpt lat="44.07919" lon="3.18124">
        <ele>772</ele>
        <time>2019-05-31T10:23:12Z</time>
      </trkpt>
      <trkpt lat="44.07924" lon="3.18124">
        <ele>772.1</ele>
        <time>2019-05-31T10:23:13Z</time>
      </trkpt>
      <trkpt lat="44.07927" lon="3.18124">
        <ele>772.3</ele>
        <time>2019-05-31T10:23:14Z</time>
      </trkpt>
      <trkpt lat="44.0793" lon="3.18123">
        <ele>772.4</ele>
        <time>2019-05-31T10:23:15Z</time>
      </trkpt>
      <trkpt lat="44.07933" lon="3.18122">
        <ele>772.5</ele>
        <time>2019-05-31T10:23:17Z</time>
      </trkpt>
      <trkpt lat="44.07937" lon="3.18121">
        <ele>772.8</ele>
        <time>2019-05-31T10:23:19Z</time>
      </trkpt>
      <trkpt lat="44.07943" lon="3.18121">
        <ele>773.2</ele>
        <time>2019-05-31T10:23:21Z</time>
      </trkpt>
      <trkpt lat="44.07946" lon="3.1812">
        <ele>773.4</ele>
        <time>2019-05-31T10:23:22Z</time>
      </trkpt>
      <trkpt lat="44.0795" lon="3.18119">
        <ele>773.6</ele>
        <time>2019-05-31T10:23:23Z</time>
      </trkpt>
      <trkpt lat="44.07954" lon="3.18118">
        <ele>773.8</ele>
        <time>2019-05-31T10:23:24Z</time>
      </trkpt>
      <trkpt lat="44.07957" lon="3.18117">
        <ele>774</ele>
        <time>2019-05-31T10:23:25Z</time>
      </trkpt>
      <trkpt lat="44.07961" lon="3.18116">
        <ele>774.3</ele>
        <time>2019-05-31T10:23:26Z</time>
      </trkpt>
      <trkpt lat="44.07965" lon="3.18115">
        <ele>774.5</ele>
        <time>2019-05-31T10:23:27Z</time>
      </trkpt>
      <trkpt lat="44.07968" lon="3.18115">
        <ele>774.7</ele>
        <time>2019-05-31T10:23:28Z</time>
      </trkpt>
      <trkpt lat="44.07971" lon="3.18114">
        <ele>774.9</ele>
        <time>2019-05-31T10:23:29Z</time>
      </trkpt>
      <trkpt lat="44.07974" lon="3.18113">
        <ele>775.1</ele>
        <time>2019-05-31T10:23:30Z</time>
      </trkpt>
      <trkpt lat="44.07978" lon="3.18112">
        <ele>775.3</ele>
        <time>2019-05-31T10:23:31Z</time>
      </trkpt>
      <trkpt lat="44.07981" lon="3.18111">
        <ele>775.4</ele>
        <time>2019-05-31T10:23:32Z</time>
      </trkpt>
      <trkpt lat="44.07985" lon="3.1811">
        <ele>775.6</ele>
        <time>2019-05-31T10:23:33Z</time>
      </trkpt>
      <trkpt lat="44.07988" lon="3.18109">
        <ele>775.7</ele>
        <time>2019-05-31T10:23:34Z</time>
      </trkpt>
      <trkpt lat="44.07991" lon="3.18109">
        <ele>775.9</ele>
        <time>2019-05-31T10:23:35Z</time>
      </trkpt>
      <trkpt lat="44.07997" lon="3.18108">
        <ele>776.3</ele>
        <time>2019-05-31T10:23:37Z</time>
      </trkpt>
      <trkpt lat="44.08" lon="3.18108">
        <ele>776.4</ele>
        <time>2019-05-31T10:23:38Z</time>
      </trkpt>
      <trkpt lat="44.08003" lon="3.18108">
        <ele>776.6</ele>
        <time>2019-05-31T10:23:39Z</time>
      </trkpt>
      <trkpt lat="44.08005" lon="3.18107">
        <ele>776.7</ele>
        <time>2019-05-31T10:23:40Z</time>
      </trkpt>
      <trkpt lat="44.0801" lon="3.18107">
        <ele>777</ele>
        <time>2019-05-31T10:23:42Z</time>
      </trkpt>
      <trkpt lat="44.08013" lon="3.18109">
        <ele>777.3</ele>
        <time>2019-05-31T10:23:44Z</time>
      </trkpt>
      <trkpt lat="44.08016" lon="3.18111">
        <ele>777.5</ele>
        <time>2019-05-31T10:23:46Z</time>
      </trkpt>
      <trkpt lat="44.08017" lon="3.18116">
        <ele>777.7</ele>
        <time>2019-05-31T10:23:48Z</time>
      </trkpt>
      <trkpt lat="44.08016" lon="3.18122">
        <ele>778</ele>
        <time>2019-05-31T10:23:50Z</time>
      </trkpt>
      <trkpt lat="44.08014" lon="3.18129">
        <ele>778.2</ele>
        <time>2019-05-31T10:23:52Z</time>
      </trkpt>
      <trkpt lat="44.08013" lon="3.18133">
        <ele>778.3</ele>
        <time>2019-05-31T10:23:53Z</time>
      </trkpt>
      <trkpt lat="44.08012" lon="3.18137">
        <ele>778.5</ele>
        <time>2019-05-31T10:23:54Z</time>
      </trkpt>
      <trkpt lat="44.08012" lon="3.18142">
        <ele>778.6</ele>
        <time>2019-05-31T10:23:56Z</time>
      </trkpt>
      <trkpt lat="44.08013" lon="3.18147">
        <ele>778.6</ele>
        <time>2019-05-31T10:23:58Z</time>
      </trkpt>
      <trkpt lat="44.08016" lon="3.18151">
        <ele>778.6</ele>
        <time>2019-05-31T10:24:00Z</time>
      </trkpt>
      <trkpt lat="44.08019" lon="3.18154">
        <ele>778.6</ele>
        <time>2019-05-31T10:24:02Z</time>
      </trkpt>
      <trkpt lat="44.08022" lon="3.1816">
        <ele>778.5</ele>
        <time>2019-05-31T10:24:04Z</time>
      </trkpt>
      <trkpt lat="44.08025" lon="3.18164">
        <ele>778.5</ele>
        <time>2019-05-31T10:24:05Z</time>
      </trkpt>
      <trkpt lat="44.08028" lon="3.18168">
        <ele>778.4</ele>
        <time>2019-05-31T10:24:06Z</time>
      </trkpt>
      <trkpt lat="44.0803" lon="3.18173">
        <ele>778.4</ele>
        <time>2019-05-31T10:24:07Z</time>
      </trkpt>
      <trkpt lat="44.08031" lon="3.18177">
        <ele>778.3</ele>
        <time>2019-05-31T10:24:08Z</time>
      </trkpt>
      <trkpt lat="44.08033" lon="3.18181">
        <ele>778.3</ele>
        <time>2019-05-31T10:24:09Z</time>
      </trkpt>
      <trkpt lat="44.08036" lon="3.18185">
        <ele>778.3</ele>
        <time>2019-05-31T10:24:10Z</time>
      </trkpt>
      <trkpt lat="44.08038" lon="3.18189">
        <ele>778.2</ele>
        <time>2019-05-31T10:24:11Z</time>
      </trkpt>
      <trkpt lat="44.0804" lon="3.18193">
        <ele>778.2</ele>
        <time>2019-05-31T10:24:12Z</time>
      </trkpt>
      <trkpt lat="44.08044" lon="3.18197">
        <ele>778.1</ele>
        <time>2019-05-31T10:24:13Z</time>
      </trkpt>
      <trkpt lat="44.08048" lon="3.18199">
        <ele>778</ele>
        <time>2019-05-31T10:24:14Z</time>
      </trkpt>
      <trkpt lat="44.08054" lon="3.182">
        <ele>777.9</ele>
        <time>2019-05-31T10:24:15Z</time>
      </trkpt>
      <trkpt lat="44.08058" lon="3.182">
        <ele>777.8</ele>
        <time>2019-05-31T10:24:16Z</time>
      </trkpt>
      <trkpt lat="44.08061" lon="3.182">
        <ele>777.8</ele>
        <time>2019-05-31T10:24:17Z</time>
      </trkpt>
      <trkpt lat="44.08064" lon="3.18201">
        <ele>777.7</ele>
        <time>2019-05-31T10:24:18Z</time>
      </trkpt>
      <trkpt lat="44.08067" lon="3.18202">
        <ele>777.7</ele>
        <time>2019-05-31T10:24:19Z</time>
      </trkpt>
      <trkpt lat="44.0807" lon="3.18203">
        <ele>777.6</ele>
        <time>2019-05-31T10:24:20Z</time>
      </trkpt>
      <trkpt lat="44.08073" lon="3.18203">
        <ele>777.6</ele>
        <time>2019-05-31T10:24:21Z</time>
      </trkpt>
      <trkpt lat="44.08075" lon="3.18205">
        <ele>777.6</ele>
        <time>2019-05-31T10:24:22Z</time>
      </trkpt>
      <trkpt lat="44.08078" lon="3.18206">
        <ele>777.5</ele>
        <time>2019-05-31T10:24:23Z</time>
      </trkpt>
      <trkpt lat="44.08083" lon="3.18209">
        <ele>777.5</ele>
        <time>2019-05-31T10:24:25Z</time>
      </trkpt>
      <trkpt lat="44.08086" lon="3.18209">
        <ele>777.5</ele>
        <time>2019-05-31T10:24:26Z</time>
      </trkpt>
      <trkpt lat="44.08091" lon="3.18207">
        <ele>777.4</ele>
        <time>2019-05-31T10:24:27Z</time>
      </trkpt>
      <trkpt lat="44.08095" lon="3.18203">
        <ele>777.4</ele>
        <time>2019-05-31T10:24:28Z</time>
      </trkpt>
      <trkpt lat="44.081" lon="3.18199">
        <ele>777.3</ele>
        <time>2019-05-31T10:24:29Z</time>
      </trkpt>
      <trkpt lat="44.08105" lon="3.18195">
        <ele>777.3</ele>
        <time>2019-05-31T10:24:30Z</time>
      </trkpt>
      <trkpt lat="44.08114" lon="3.18183">
        <ele>777.1</ele>
        <time>2019-05-31T10:24:31Z</time>
      </trkpt>
      <trkpt lat="44.08118" lon="3.18181">
        <ele>777.1</ele>
        <time>2019-05-31T10:24:32Z</time>
      </trkpt>
      <trkpt lat="44.08123" lon="3.18178">
        <ele>777</ele>
        <time>2019-05-31T10:24:33Z</time>
      </trkpt>
      <trkpt lat="44.08128" lon="3.18174">
        <ele>777</ele>
        <time>2019-05-31T10:24:34Z</time>
      </trkpt>
      <trkpt lat="44.08133" lon="3.18173">
        <ele>777</ele>
        <time>2019-05-31T10:24:35Z</time>
      </trkpt>
      <trkpt lat="44.08137" lon="3.18172">
        <ele>777.1</ele>
        <time>2019-05-31T10:24:36Z</time>
      </trkpt>
      <trkpt lat="44.08142" lon="3.1817">
        <ele>777.2</ele>
        <time>2019-05-31T10:24:37Z</time>
      </trkpt>
      <trkpt lat="44.08147" lon="3.18171">
        <ele>777.4</ele>
        <time>2019-05-31T10:24:39Z</time>
      </trkpt>
      <trkpt lat="44.08153" lon="3.18172">
        <ele>777.7</ele>
        <time>2019-05-31T10:24:40Z</time>
      </trkpt>
      <trkpt lat="44.08157" lon="3.18173">
        <ele>777.8</ele>
        <time>2019-05-31T10:24:41Z</time>
      </trkpt>
      <trkpt lat="44.0816" lon="3.18174">
        <ele>778</ele>
        <time>2019-05-31T10:24:42Z</time>
      </trkpt>
      <trkpt lat="44.08163" lon="3.18176">
        <ele>778.2</ele>
        <time>2019-05-31T10:24:43Z</time>
      </trkpt>
      <trkpt lat="44.08167" lon="3.18178">
        <ele>778.5</ele>
        <time>2019-05-31T10:24:44Z</time>
      </trkpt>
      <trkpt lat="44.08169" lon="3.1818">
        <ele>778.7</ele>
        <time>2019-05-31T10:24:45Z</time>
      </trkpt>
      <trkpt lat="44.08173" lon="3.18183">
        <ele>779</ele>
        <time>2019-05-31T10:24:46Z</time>
      </trkpt>
      <trkpt lat="44.08175" lon="3.18185">
        <ele>779.3</ele>
        <time>2019-05-31T10:24:47Z</time>
      </trkpt>
      <trkpt lat="44.0818" lon="3.18188">
        <ele>779.8</ele>
        <time>2019-05-31T10:24:49Z</time>
      </trkpt>
      <trkpt lat="44.08184" lon="3.1819">
        <ele>780.2</ele>
        <time>2019-05-31T10:24:51Z</time>
      </trkpt>
      <trkpt lat="44.08187" lon="3.18192">
        <ele>780.5</ele>
        <time>2019-05-31T10:24:53Z</time>
      </trkpt>
      <trkpt lat="44.08191" lon="3.18193">
        <ele>781</ele>
        <time>2019-05-31T10:24:55Z</time>
      </trkpt>
      <trkpt lat="44.08195" lon="3.18192">
        <ele>781.4</ele>
        <time>2019-05-31T10:24:57Z</time>
      </trkpt>
      <trkpt lat="44.08199" lon="3.18193">
        <ele>781.8</ele>
        <time>2019-05-31T10:24:59Z</time>
      </trkpt>
      <trkpt lat="44.08203" lon="3.18195">
        <ele>782.2</ele>
        <time>2019-05-31T10:25:01Z</time>
      </trkpt>
      <trkpt lat="44.08209" lon="3.18197">
        <ele>782.6</ele>
        <time>2019-05-31T10:25:03Z</time>
      </trkpt>
      <trkpt lat="44.08212" lon="3.18199">
        <ele>782.8</ele>
        <time>2019-05-31T10:25:04Z</time>
      </trkpt>
      <trkpt lat="44.08215" lon="3.18199">
        <ele>783</ele>
        <time>2019-05-31T10:25:05Z</time>
      </trkpt>
      <trkpt lat="44.08218" lon="3.18199">
        <ele>783.2</ele>
        <time>2019-05-31T10:25:06Z</time>
      </trkpt>
      <trkpt lat="44.08222" lon="3.18198">
        <ele>783.4</ele>
        <time>2019-05-31T10:25:07Z</time>
      </trkpt>
      <trkpt lat="44.08226" lon="3.18197">
        <ele>783.6</ele>
        <time>2019-05-31T10:25:08Z</time>
      </trkpt>
      <trkpt lat="44.0823" lon="3.18197">
        <ele>783.8</ele>
        <time>2019-05-31T10:25:10Z</time>
      </trkpt>
      <trkpt lat="44.08233" lon="3.18196">
        <ele>783.9</ele>
        <time>2019-05-31T10:25:11Z</time>
      </trkpt>
      <trkpt lat="44.08236" lon="3.18196">
        <ele>784.1</ele>
        <time>2019-05-31T10:25:12Z</time>
      </trkpt>
      <trkpt lat="44.08239" lon="3.18195">
        <ele>784.2</ele>
        <time>2019-05-31T10:25:13Z</time>
      </trkpt>
      <trkpt lat="44.08244" lon="3.18197">
        <ele>784.5</ele>
        <time>2019-05-31T10:25:15Z</time>
      </trkpt>
      <trkpt lat="44.08246" lon="3.18199">
        <ele>784.7</ele>
        <time>2019-05-31T10:25:16Z</time>
      </trkpt>
      <trkpt lat="44.08252" lon="3.18202">
        <ele>785</ele>
        <time>2019-05-31T10:25:18Z</time>
      </trkpt>
      <trkpt lat="44.08255" lon="3.18204">
        <ele>785.1</ele>
        <time>2019-05-31T10:25:19Z</time>
      </trkpt>
      <trkpt lat="44.08258" lon="3.18206">
        <ele>785.3</ele>
        <time>2019-05-31T10:25:20Z</time>
      </trkpt>
      <trkpt lat="44.08261" lon="3.18206">
        <ele>785.5</ele>
        <time>2019-05-31T10:25:21Z</time>
      </trkpt>
      <trkpt lat="44.08266" lon="3.18206">
        <ele>785.9</ele>
        <time>2019-05-31T10:25:23Z</time>
      </trkpt>
      <trkpt lat="44.0827" lon="3.18206">
        <ele>786.1</ele>
        <time>2019-05-31T10:25:25Z</time>
      </trkpt>
      <trkpt lat="44.08274" lon="3.18209">
        <ele>786.5</ele>
        <time>2019-05-31T10:25:27Z</time>
      </trkpt>
      <trkpt lat="44.08278" lon="3.18213">
        <ele>787.1</ele>
        <time>2019-05-31T10:25:29Z</time>
      </trkpt>
      <trkpt lat="44.0828" lon="3.18218">
        <ele>787.5</ele>
        <time>2019-05-31T10:25:31Z</time>
      </trkpt>
      <trkpt lat="44.08283" lon="3.18221">
        <ele>787.9</ele>
        <time>2019-05-31T10:25:34Z</time>
      </trkpt>
      <trkpt lat="44.08287" lon="3.18223">
        <ele>788.3</ele>
        <time>2019-05-31T10:25:36Z</time>
      </trkpt>
      <trkpt lat="44.08291" lon="3.18226">
        <ele>788.7</ele>
        <time>2019-05-31T10:25:38Z</time>
      </trkpt>
      <trkpt lat="44.08295" lon="3.18228">
        <ele>789.1</ele>
        <time>2019-05-31T10:25:40Z</time>
      </trkpt>
      <trkpt lat="44.08299" lon="3.1823">
        <ele>789.4</ele>
        <time>2019-05-31T10:25:42Z</time>
      </trkpt>
      <trkpt lat="44.08302" lon="3.18232">
        <ele>789.7</ele>
        <time>2019-05-31T10:25:44Z</time>
      </trkpt>
      <trkpt lat="44.08306" lon="3.18232">
        <ele>790</ele>
        <time>2019-05-31T10:25:46Z</time>
      </trkpt>
      <trkpt lat="44.08309" lon="3.18233">
        <ele>790.2</ele>
        <time>2019-05-31T10:25:48Z</time>
      </trkpt>
      <trkpt lat="44.08312" lon="3.18235">
        <ele>790.4</ele>
        <time>2019-05-31T10:25:50Z</time>
      </trkpt>
      <trkpt lat="44.08315" lon="3.18237">
        <ele>790.7</ele>
        <time>2019-05-31T10:25:52Z</time>
      </trkpt>
      <trkpt lat="44.08319" lon="3.18239">
        <ele>790.9</ele>
        <time>2019-05-31T10:25:53Z</time>
      </trkpt>
      <trkpt lat="44.08324" lon="3.1824">
        <ele>791.3</ele>
        <time>2019-05-31T10:25:55Z</time>
      </trkpt>
      <trkpt lat="44.08327" lon="3.1824">
        <ele>791.5</ele>
        <time>2019-05-31T10:25:56Z</time>
      </trkpt>
      <trkpt lat="44.0833" lon="3.18241">
        <ele>791.8</ele>
        <time>2019-05-31T10:25:57Z</time>
      </trkpt>
      <trkpt lat="44.08333" lon="3.18242">
        <ele>792.1</ele>
        <time>2019-05-31T10:25:58Z</time>
      </trkpt>
      <trkpt lat="44.08337" lon="3.18242">
        <ele>792.4</ele>
        <time>2019-05-31T10:25:59Z</time>
      </trkpt>
      <trkpt lat="44.0834" lon="3.18243">
        <ele>792.7</ele>
        <time>2019-05-31T10:26:00Z</time>
      </trkpt>
      <trkpt lat="44.08345" lon="3.18244">
        <ele>793.1</ele>
        <time>2019-05-31T10:26:02Z</time>
      </trkpt>
      <trkpt lat="44.08348" lon="3.18244">
        <ele>793.4</ele>
        <time>2019-05-31T10:26:03Z</time>
      </trkpt>
      <trkpt lat="44.08351" lon="3.18244">
        <ele>793.5</ele>
        <time>2019-05-31T10:26:04Z</time>
      </trkpt>
      <trkpt lat="44.08355" lon="3.18245">
        <ele>793.7</ele>
        <time>2019-05-31T10:26:06Z</time>
      </trkpt>
      <trkpt lat="44.08359" lon="3.18244">
        <ele>793.9</ele>
        <time>2019-05-31T10:26:08Z</time>
      </trkpt>
      <trkpt lat="44.08364" lon="3.18243">
        <ele>794.1</ele>
        <time>2019-05-31T10:26:10Z</time>
      </trkpt>
      <trkpt lat="44.08369" lon="3.18244">
        <ele>794.3</ele>
        <time>2019-05-31T10:26:12Z</time>
      </trkpt>
      <trkpt lat="44.08374" lon="3.18243">
        <ele>794.4</ele>
        <time>2019-05-31T10:26:14Z</time>
      </trkpt>
      <trkpt lat="44.08378" lon="3.18243">
        <ele>794.4</ele>
        <time>2019-05-31T10:26:15Z</time>
      </trkpt>
      <trkpt lat="44.08382" lon="3.18242">
        <ele>794.4</ele>
        <time>2019-05-31T10:26:16Z</time>
      </trkpt>
      <trkpt lat="44.08386" lon="3.18241">
        <ele>794.4</ele>
        <time>2019-05-31T10:26:17Z</time>
      </trkpt>
      <trkpt lat="44.0839" lon="3.18241">
        <ele>794.3</ele>
        <time>2019-05-31T10:26:18Z</time>
      </trkpt>
      <trkpt lat="44.08394" lon="3.18241">
        <ele>794.2</ele>
        <time>2019-05-31T10:26:19Z</time>
      </trkpt>
      <trkpt lat="44.08397" lon="3.18242">
        <ele>794.2</ele>
        <time>2019-05-31T10:26:20Z</time>
      </trkpt>
      <trkpt lat="44.08401" lon="3.18244">
        <ele>794.1</ele>
        <time>2019-05-31T10:26:21Z</time>
      </trkpt>
      <trkpt lat="44.08405" lon="3.18245">
        <ele>794</ele>
        <time>2019-05-31T10:26:22Z</time>
      </trkpt>
      <trkpt lat="44.0841" lon="3.18246">
        <ele>793.8</ele>
        <time>2019-05-31T10:26:23Z</time>
      </trkpt>
      <trkpt lat="44.08422" lon="3.18247">
        <ele>793.4</ele>
        <time>2019-05-31T10:26:24Z</time>
      </trkpt>
      <trkpt lat="44.08427" lon="3.18247">
        <ele>793.1</ele>
        <time>2019-05-31T10:26:25Z</time>
      </trkpt>
      <trkpt lat="44.08431" lon="3.18249">
        <ele>793</ele>
        <time>2019-05-31T10:26:26Z</time>
      </trkpt>
      <trkpt lat="44.08436" lon="3.18253">
        <ele>792.7</ele>
        <time>2019-05-31T10:26:27Z</time>
      </trkpt>
      <trkpt lat="44.08442" lon="3.18259">
        <ele>792.3</ele>
        <time>2019-05-31T10:26:29Z</time>
      </trkpt>
      <trkpt lat="44.08447" lon="3.18263">
        <ele>791.7</ele>
        <time>2019-05-31T10:26:30Z</time>
      </trkpt>
      <trkpt lat="44.0845" lon="3.18267">
        <ele>791.3</ele>
        <time>2019-05-31T10:26:31Z</time>
      </trkpt>
      <trkpt lat="44.08454" lon="3.18268">
        <ele>790.8</ele>
        <time>2019-05-31T10:26:32Z</time>
      </trkpt>
      <trkpt lat="44.0846" lon="3.18271">
        <ele>790.4</ele>
        <time>2019-05-31T10:26:33Z</time>
      </trkpt>
      <trkpt lat="44.08464" lon="3.18274">
        <ele>790.1</ele>
        <time>2019-05-31T10:26:34Z</time>
      </trkpt>
      <trkpt lat="44.0847" lon="3.18276">
        <ele>789.5</ele>
        <time>2019-05-31T10:26:35Z</time>
      </trkpt>
      <trkpt lat="44.08477" lon="3.18281">
        <ele>789.3</ele>
        <time>2019-05-31T10:26:36Z</time>
      </trkpt>
      <trkpt lat="44.08488" lon="3.18284">
        <ele>788.9</ele>
        <time>2019-05-31T10:26:37Z</time>
      </trkpt>
      <trkpt lat="44.08489" lon="3.1829">
        <ele>788.8</ele>
        <time>2019-05-31T10:26:38Z</time>
      </trkpt>
      <trkpt lat="44.08498" lon="3.18293">
        <ele>788.5</ele>
        <time>2019-05-31T10:26:39Z</time>
      </trkpt>
      <trkpt lat="44.08505" lon="3.18296">
        <ele>788.4</ele>
        <time>2019-05-31T10:26:40Z</time>
      </trkpt>
      <trkpt lat="44.0851" lon="3.18299">
        <ele>788.3</ele>
        <time>2019-05-31T10:26:41Z</time>
      </trkpt>
      <trkpt lat="44.08517" lon="3.183">
        <ele>788.1</ele>
        <time>2019-05-31T10:26:42Z</time>
      </trkpt>
      <trkpt lat="44.08524" lon="3.18306">
        <ele>787.8</ele>
        <time>2019-05-31T10:26:43Z</time>
      </trkpt>
      <trkpt lat="44.08532" lon="3.1831">
        <ele>787.4</ele>
        <time>2019-05-31T10:26:44Z</time>
      </trkpt>
      <trkpt lat="44.08538" lon="3.18314">
        <ele>787.1</ele>
        <time>2019-05-31T10:26:45Z</time>
      </trkpt>
      <trkpt lat="44.08545" lon="3.18318">
        <ele>786.7</ele>
        <time>2019-05-31T10:26:46Z</time>
      </trkpt>
      <trkpt lat="44.08551" lon="3.1832">
        <ele>786.4</ele>
        <time>2019-05-31T10:26:47Z</time>
      </trkpt>
      <trkpt lat="44.08555" lon="3.18324">
        <ele>786.2</ele>
        <time>2019-05-31T10:26:48Z</time>
      </trkpt>
      <trkpt lat="44.0856" lon="3.18328">
        <ele>785.9</ele>
        <time>2019-05-31T10:26:49Z</time>
      </trkpt>
      <trkpt lat="44.08567" lon="3.1833">
        <ele>785.7</ele>
        <time>2019-05-31T10:26:50Z</time>
      </trkpt>
      <trkpt lat="44.0857" lon="3.18335">
        <ele>785.5</ele>
        <time>2019-05-31T10:26:51Z</time>
      </trkpt>
      <trkpt lat="44.08577" lon="3.18339">
        <ele>785.1</ele>
        <time>2019-05-31T10:26:52Z</time>
      </trkpt>
      <trkpt lat="44.08582" lon="3.18343">
        <ele>784.8</ele>
        <time>2019-05-31T10:26:53Z</time>
      </trkpt>
      <trkpt lat="44.08588" lon="3.18347">
        <ele>784.6</ele>
        <time>2019-05-31T10:26:54Z</time>
      </trkpt>
      <trkpt lat="44.08591" lon="3.18356">
        <ele>784.4</ele>
        <time>2019-05-31T10:26:55Z</time>
      </trkpt>
      <trkpt lat="44.08596" lon="3.1836">
        <ele>784.2</ele>
        <time>2019-05-31T10:26:56Z</time>
      </trkpt>
      <trkpt lat="44.08602" lon="3.18364">
        <ele>783.9</ele>
        <time>2019-05-31T10:26:57Z</time>
      </trkpt>
      <trkpt lat="44.08607" lon="3.18367">
        <ele>783.8</ele>
        <time>2019-05-31T10:26:58Z</time>
      </trkpt>
      <trkpt lat="44.08612" lon="3.1837">
        <ele>783.6</ele>
        <time>2019-05-31T10:26:59Z</time>
      </trkpt>
      <trkpt lat="44.08617" lon="3.18374">
        <ele>783.4</ele>
        <time>2019-05-31T10:27:00Z</time>
      </trkpt>
      <trkpt lat="44.08622" lon="3.1838">
        <ele>783.2</ele>
        <time>2019-05-31T10:27:01Z</time>
      </trkpt>
      <trkpt lat="44.08627" lon="3.18388">
        <ele>783.1</ele>
        <time>2019-05-31T10:27:02Z</time>
      </trkpt>
      <trkpt lat="44.0863" lon="3.18395">
        <ele>783.1</ele>
        <time>2019-05-31T10:27:03Z</time>
      </trkpt>
      <trkpt lat="44.08633" lon="3.18403">
        <ele>783.1</ele>
        <time>2019-05-31T10:27:04Z</time>
      </trkpt>
      <trkpt lat="44.08636" lon="3.18408">
        <ele>783.1</ele>
        <time>2019-05-31T10:27:05Z</time>
      </trkpt>
      <trkpt lat="44.08641" lon="3.18414">
        <ele>783.1</ele>
        <time>2019-05-31T10:27:06Z</time>
      </trkpt>
      <trkpt lat="44.08645" lon="3.1842">
        <ele>783.1</ele>
        <time>2019-05-31T10:27:07Z</time>
      </trkpt>
      <trkpt lat="44.08649" lon="3.18423">
        <ele>783.1</ele>
        <time>2019-05-31T10:27:08Z</time>
      </trkpt>
      <trkpt lat="44.08654" lon="3.18426">
        <ele>783.2</ele>
        <time>2019-05-31T10:27:09Z</time>
      </trkpt>
      <trkpt lat="44.08659" lon="3.18429">
        <ele>783.3</ele>
        <time>2019-05-31T10:27:10Z</time>
      </trkpt>
      <trkpt lat="44.08664" lon="3.18431">
        <ele>783.4</ele>
        <time>2019-05-31T10:27:11Z</time>
      </trkpt>
      <trkpt lat="44.08669" lon="3.18432">
        <ele>783.5</ele>
        <time>2019-05-31T10:27:12Z</time>
      </trkpt>
      <trkpt lat="44.08674" lon="3.18434">
        <ele>783.6</ele>
        <time>2019-05-31T10:27:13Z</time>
      </trkpt>
      <trkpt lat="44.08679" lon="3.18436">
        <ele>783.6</ele>
        <time>2019-05-31T10:27:14Z</time>
      </trkpt>
      <trkpt lat="44.08685" lon="3.18437">
        <ele>783.7</ele>
        <time>2019-05-31T10:27:15Z</time>
      </trkpt>
      <trkpt lat="44.08689" lon="3.1844">
        <ele>783.8</ele>
        <time>2019-05-31T10:27:16Z</time>
      </trkpt>
      <trkpt lat="44.08693" lon="3.18444">
        <ele>783.8</ele>
        <time>2019-05-31T10:27:17Z</time>
      </trkpt>
      <trkpt lat="44.08697" lon="3.18448">
        <ele>783.8</ele>
        <time>2019-05-31T10:27:18Z</time>
      </trkpt>
      <trkpt lat="44.08701" lon="3.1845">
        <ele>783.9</ele>
        <time>2019-05-31T10:27:19Z</time>
      </trkpt>
      <trkpt lat="44.08706" lon="3.18454">
        <ele>783.9</ele>
        <time>2019-05-31T10:27:20Z</time>
      </trkpt>
      <trkpt lat="44.08709" lon="3.18458">
        <ele>783.9</ele>
        <time>2019-05-31T10:27:21Z</time>
      </trkpt>
      <trkpt lat="44.08716" lon="3.1846">
        <ele>783.9</ele>
        <time>2019-05-31T10:27:22Z</time>
      </trkpt>
      <trkpt lat="44.08722" lon="3.1846">
        <ele>784</ele>
        <time>2019-05-31T10:27:23Z</time>
      </trkpt>
      <trkpt lat="44.08726" lon="3.18463">
        <ele>784</ele>
        <time>2019-05-31T10:27:24Z</time>
      </trkpt>
      <trkpt lat="44.0873" lon="3.18466">
        <ele>784.2</ele>
        <time>2019-05-31T10:27:25Z</time>
      </trkpt>
      <trkpt lat="44.08734" lon="3.18468">
        <ele>784.3</ele>
        <time>2019-05-31T10:27:26Z</time>
      </trkpt>
      <trkpt lat="44.08739" lon="3.18469">
        <ele>784.5</ele>
        <time>2019-05-31T10:27:27Z</time>
      </trkpt>
      <trkpt lat="44.08744" lon="3.18471">
        <ele>784.7</ele>
        <time>2019-05-31T10:27:28Z</time>
      </trkpt>
      <trkpt lat="44.08747" lon="3.18476">
        <ele>784.9</ele>
        <time>2019-05-31T10:27:30Z</time>
      </trkpt>
      <trkpt lat="44.08751" lon="3.18476">
        <ele>785.1</ele>
        <time>2019-05-31T10:27:31Z</time>
      </trkpt>
      <trkpt lat="44.08754" lon="3.18478">
        <ele>785.2</ele>
        <time>2019-05-31T10:27:32Z</time>
      </trkpt>
      <trkpt lat="44.08758" lon="3.1848">
        <ele>785.4</ele>
        <time>2019-05-31T10:27:33Z</time>
      </trkpt>
      <trkpt lat="44.08763" lon="3.18487">
        <ele>785.7</ele>
        <time>2019-05-31T10:27:35Z</time>
      </trkpt>
      <trkpt lat="44.08767" lon="3.18489">
        <ele>785.9</ele>
        <time>2019-05-31T10:27:36Z</time>
      </trkpt>
      <trkpt lat="44.0877" lon="3.18492">
        <ele>786.1</ele>
        <time>2019-05-31T10:27:37Z</time>
      </trkpt>
      <trkpt lat="44.08772" lon="3.18495">
        <ele>786.1</ele>
        <time>2019-05-31T10:27:38Z</time>
      </trkpt>
      <trkpt lat="44.08773" lon="3.18499">
        <ele>786.2</ele>
        <time>2019-05-31T10:27:39Z</time>
      </trkpt>
      <trkpt lat="44.08774" lon="3.18504">
        <ele>786.2</ele>
        <time>2019-05-31T10:27:40Z</time>
      </trkpt>
      <trkpt lat="44.08776" lon="3.18509">
        <ele>786.3</ele>
        <time>2019-05-31T10:27:41Z</time>
      </trkpt>
      <trkpt lat="44.08778" lon="3.18512">
        <ele>786.3</ele>
        <time>2019-05-31T10:27:42Z</time>
      </trkpt>
      <trkpt lat="44.0878" lon="3.18515">
        <ele>786.4</ele>
        <time>2019-05-31T10:27:43Z</time>
      </trkpt>
      <trkpt lat="44.08783" lon="3.18517">
        <ele>786.4</ele>
        <time>2019-05-31T10:27:44Z</time>
      </trkpt>
      <trkpt lat="44.08787" lon="3.1852">
        <ele>786.5</ele>
        <time>2019-05-31T10:27:45Z</time>
      </trkpt>
      <trkpt lat="44.08792" lon="3.18523">
        <ele>786.5</ele>
        <time>2019-05-31T10:27:46Z</time>
      </trkpt>
      <trkpt lat="44.08798" lon="3.18529">
        <ele>786.5</ele>
        <time>2019-05-31T10:27:47Z</time>
      </trkpt>
      <trkpt lat="44.08801" lon="3.18532">
        <ele>786.5</ele>
        <time>2019-05-31T10:27:48Z</time>
      </trkpt>
      <trkpt lat="44.08806" lon="3.18534">
        <ele>786.5</ele>
        <time>2019-05-31T10:27:49Z</time>
      </trkpt>
      <trkpt lat="44.08811" lon="3.18536">
        <ele>786.5</ele>
        <time>2019-05-31T10:27:50Z</time>
      </trkpt>
      <trkpt lat="44.08816" lon="3.18536">
        <ele>786.4</ele>
        <time>2019-05-31T10:27:51Z</time>
      </trkpt>
      <trkpt lat="44.0882" lon="3.18535">
        <ele>786.4</ele>
        <time>2019-05-31T10:27:52Z</time>
      </trkpt>
      <trkpt lat="44.08823" lon="3.18534">
        <ele>786.3</ele>
        <time>2019-05-31T10:27:53Z</time>
      </trkpt>
      <trkpt lat="44.0883" lon="3.18533">
        <ele>786.3</ele>
        <time>2019-05-31T10:27:54Z</time>
      </trkpt>
      <trkpt lat="44.08837" lon="3.18532">
        <ele>786.2</ele>
        <time>2019-05-31T10:27:55Z</time>
      </trkpt>
      <trkpt lat="44.08843" lon="3.18534">
        <ele>786.2</ele>
        <time>2019-05-31T10:27:56Z</time>
      </trkpt>
      <trkpt lat="44.08847" lon="3.18536">
        <ele>786.2</ele>
        <time>2019-05-31T10:27:57Z</time>
      </trkpt>
      <trkpt lat="44.08853" lon="3.18536">
        <ele>786.3</ele>
        <time>2019-05-31T10:27:58Z</time>
      </trkpt>
      <trkpt lat="44.08857" lon="3.18536">
        <ele>786.3</ele>
        <time>2019-05-31T10:27:59Z</time>
      </trkpt>
      <trkpt lat="44.08861" lon="3.18535">
        <ele>786.4</ele>
        <time>2019-05-31T10:28:00Z</time>
      </trkpt>
      <trkpt lat="44.08865" lon="3.18535">
        <ele>786.4</ele>
        <time>2019-05-31T10:28:01Z</time>
      </trkpt>
      <trkpt lat="44.08869" lon="3.18533">
        <ele>786.5</ele>
        <time>2019-05-31T10:28:02Z</time>
      </trkpt>
      <trkpt lat="44.08872" lon="3.18533">
        <ele>786.6</ele>
        <time>2019-05-31T10:28:03Z</time>
      </trkpt>
      <trkpt lat="44.08877" lon="3.18533">
        <ele>786.7</ele>
        <time>2019-05-31T10:28:04Z</time>
      </trkpt>
      <trkpt lat="44.0888" lon="3.18535">
        <ele>786.7</ele>
        <time>2019-05-31T10:28:05Z</time>
      </trkpt>
      <trkpt lat="44.08886" lon="3.18535">
        <ele>786.7</ele>
        <time>2019-05-31T10:28:06Z</time>
      </trkpt>
      <trkpt lat="44.0889" lon="3.18535">
        <ele>786.6</ele>
        <time>2019-05-31T10:28:07Z</time>
      </trkpt>
      <trkpt lat="44.08895" lon="3.18533">
        <ele>786.5</ele>
        <time>2019-05-31T10:28:08Z</time>
      </trkpt>
      <trkpt lat="44.08901" lon="3.18532">
        <ele>786.4</ele>
        <time>2019-05-31T10:28:09Z</time>
      </trkpt>
      <trkpt lat="44.08906" lon="3.1853">
        <ele>786.1</ele>
        <time>2019-05-31T10:28:10Z</time>
      </trkpt>
      <trkpt lat="44.0891" lon="3.18528">
        <ele>785.9</ele>
        <time>2019-05-31T10:28:11Z</time>
      </trkpt>
      <trkpt lat="44.08917" lon="3.18525">
        <ele>785.6</ele>
        <time>2019-05-31T10:28:12Z</time>
      </trkpt>
      <trkpt lat="44.08925" lon="3.18521">
        <ele>785.3</ele>
        <time>2019-05-31T10:28:13Z</time>
      </trkpt>
      <trkpt lat="44.08932" lon="3.18517">
        <ele>785</ele>
        <time>2019-05-31T10:28:14Z</time>
      </trkpt>
      <trkpt lat="44.08939" lon="3.18514">
        <ele>784.5</ele>
        <time>2019-05-31T10:28:15Z</time>
      </trkpt>
      <trkpt lat="44.08945" lon="3.18508">
        <ele>784.1</ele>
        <time>2019-05-31T10:28:16Z</time>
      </trkpt>
      <trkpt lat="44.08953" lon="3.18506">
        <ele>783.6</ele>
        <time>2019-05-31T10:28:17Z</time>
      </trkpt>
      <trkpt lat="44.08961" lon="3.18505">
        <ele>783</ele>
        <time>2019-05-31T10:28:18Z</time>
      </trkpt>
      <trkpt lat="44.08965" lon="3.18513">
        <ele>782.7</ele>
        <time>2019-05-31T10:28:19Z</time>
      </trkpt>
      <trkpt lat="44.0897" lon="3.1852">
        <ele>782.4</ele>
        <time>2019-05-31T10:28:20Z</time>
      </trkpt>
      <trkpt lat="44.08973" lon="3.18529">
        <ele>782.1</ele>
        <time>2019-05-31T10:28:21Z</time>
      </trkpt>
      <trkpt lat="44.08978" lon="3.18539">
        <ele>781.7</ele>
        <time>2019-05-31T10:28:22Z</time>
      </trkpt>
      <trkpt lat="44.08983" lon="3.18547">
        <ele>781.3</ele>
        <time>2019-05-31T10:28:23Z</time>
      </trkpt>
      <trkpt lat="44.08988" lon="3.18554">
        <ele>780.8</ele>
        <time>2019-05-31T10:28:24Z</time>
      </trkpt>
      <trkpt lat="44.08992" lon="3.18563">
        <ele>780.4</ele>
        <time>2019-05-31T10:28:25Z</time>
      </trkpt>
      <trkpt lat="44.08997" lon="3.1857">
        <ele>780.1</ele>
        <time>2019-05-31T10:28:26Z</time>
      </trkpt>
      <trkpt lat="44.09003" lon="3.18577">
        <ele>779.4</ele>
        <time>2019-05-31T10:28:27Z</time>
      </trkpt>
      <trkpt lat="44.09012" lon="3.18583">
        <ele>778.3</ele>
        <time>2019-05-31T10:28:28Z</time>
      </trkpt>
      <trkpt lat="44.09018" lon="3.1859">
        <ele>777.5</ele>
        <time>2019-05-31T10:28:29Z</time>
      </trkpt>
      <trkpt lat="44.09023" lon="3.186">
        <ele>776.4</ele>
        <time>2019-05-31T10:28:30Z</time>
      </trkpt>
      <trkpt lat="44.09026" lon="3.18613">
        <ele>775</ele>
        <time>2019-05-31T10:28:31Z</time>
      </trkpt>
      <trkpt lat="44.09029" lon="3.18626">
        <ele>773.4</ele>
        <time>2019-05-31T10:28:32Z</time>
      </trkpt>
      <trkpt lat="44.09029" lon="3.18639">
        <ele>772</ele>
        <time>2019-05-31T10:28:33Z</time>
      </trkpt>
      <trkpt lat="44.09027" lon="3.18651">
        <ele>771.1</ele>
        <time>2019-05-31T10:28:34Z</time>
      </trkpt>
      <trkpt lat="44.09025" lon="3.18664">
        <ele>770.6</ele>
        <time>2019-05-31T10:28:35Z</time>
      </trkpt>
      <trkpt lat="44.09021" lon="3.18675">
        <ele>770.1</ele>
        <time>2019-05-31T10:28:36Z</time>
      </trkpt>
      <trkpt lat="44.09016" lon="3.18685">
        <ele>769.6</ele>
        <time>2019-05-31T10:28:37Z</time>
      </trkpt>
      <trkpt lat="44.0901" lon="3.18698">
        <ele>769.3</ele>
        <time>2019-05-31T10:28:38Z</time>
      </trkpt>
      <trkpt lat="44.09005" lon="3.18708">
        <ele>769</ele>
        <time>2019-05-31T10:28:39Z</time>
      </trkpt>
      <trkpt lat="44.09002" lon="3.18718">
        <ele>768.6</ele>
        <time>2019-05-31T10:28:40Z</time>
      </trkpt>
      <trkpt lat="44.08998" lon="3.18727">
        <ele>768.4</ele>
        <time>2019-05-31T10:28:41Z</time>
      </trkpt>
      <trkpt lat="44.08993" lon="3.18738">
        <ele>768.2</ele>
        <time>2019-05-31T10:28:42Z</time>
      </trkpt>
      <trkpt lat="44.0899" lon="3.18748">
        <ele>768</ele>
        <time>2019-05-31T10:28:43Z</time>
      </trkpt>
      <trkpt lat="44.08986" lon="3.18758">
        <ele>767.7</ele>
        <time>2019-05-31T10:28:44Z</time>
      </trkpt>
      <trkpt lat="44.08984" lon="3.18769">
        <ele>767.5</ele>
        <time>2019-05-31T10:28:45Z</time>
      </trkpt>
      <trkpt lat="44.0898" lon="3.18779">
        <ele>767.3</ele>
        <time>2019-05-31T10:28:46Z</time>
      </trkpt>
      <trkpt lat="44.08978" lon="3.18788">
        <ele>767.1</ele>
        <time>2019-05-31T10:28:47Z</time>
      </trkpt>
      <trkpt lat="44.08975" lon="3.18797">
        <ele>767</ele>
        <time>2019-05-31T10:28:48Z</time>
      </trkpt>
      <trkpt lat="44.08971" lon="3.18805">
        <ele>766.7</ele>
        <time>2019-05-31T10:28:49Z</time>
      </trkpt>
      <trkpt lat="44.08963" lon="3.18814">
        <ele>766.2</ele>
        <time>2019-05-31T10:28:50Z</time>
      </trkpt>
      <trkpt lat="44.08957" lon="3.18819">
        <ele>765.9</ele>
        <time>2019-05-31T10:28:51Z</time>
      </trkpt>
      <trkpt lat="44.08951" lon="3.18826">
        <ele>765.5</ele>
        <time>2019-05-31T10:28:52Z</time>
      </trkpt>
      <trkpt lat="44.08946" lon="3.18836">
        <ele>764.7</ele>
        <time>2019-05-31T10:28:53Z</time>
      </trkpt>
      <trkpt lat="44.08943" lon="3.18848">
        <ele>763.5</ele>
        <time>2019-05-31T10:28:54Z</time>
      </trkpt>
      <trkpt lat="44.0894" lon="3.1886">
        <ele>762.1</ele>
        <time>2019-05-31T10:28:55Z</time>
      </trkpt>
      <trkpt lat="44.08936" lon="3.1887">
        <ele>761.2</ele>
        <time>2019-05-31T10:28:56Z</time>
      </trkpt>
      <trkpt lat="44.08933" lon="3.18876">
        <ele>760.7</ele>
        <time>2019-05-31T10:28:57Z</time>
      </trkpt>
      <trkpt lat="44.08932" lon="3.18884">
        <ele>760.2</ele>
        <time>2019-05-31T10:28:58Z</time>
      </trkpt>
      <trkpt lat="44.08932" lon="3.18889">
        <ele>759.9</ele>
        <time>2019-05-31T10:28:59Z</time>
      </trkpt>
      <trkpt lat="44.08929" lon="3.18896">
        <ele>759.7</ele>
        <time>2019-05-31T10:29:00Z</time>
      </trkpt>
      <trkpt lat="44.08929" lon="3.18902">
        <ele>759.5</ele>
        <time>2019-05-31T10:29:01Z</time>
      </trkpt>
      <trkpt lat="44.08931" lon="3.18907">
        <ele>759.4</ele>
        <time>2019-05-31T10:29:02Z</time>
      </trkpt>
      <trkpt lat="44.08931" lon="3.18911">
        <ele>759.3</ele>
        <time>2019-05-31T10:29:04Z</time>
      </trkpt>
      <trkpt lat="44.08933" lon="3.18917">
        <ele>759.3</ele>
        <time>2019-05-31T10:29:35Z</time>
      </trkpt>
      <trkpt lat="44.08935" lon="3.1892">
        <ele>759.2</ele>
        <time>2019-05-31T10:29:37Z</time>
      </trkpt>
      <trkpt lat="44.08941" lon="3.18922">
        <ele>759.2</ele>
        <time>2019-05-31T10:29:39Z</time>
      </trkpt>
      <trkpt lat="44.08944" lon="3.18923">
        <ele>759.2</ele>
        <time>2019-05-31T10:29:40Z</time>
      </trkpt>
      <trkpt lat="44.08947" lon="3.18923">
        <ele>759.2</ele>
        <time>2019-05-31T10:29:41Z</time>
      </trkpt>
      <trkpt lat="44.0895" lon="3.18924">
        <ele>759.1</ele>
        <time>2019-05-31T10:29:43Z</time>
      </trkpt>
      <trkpt lat="44.08952" lon="3.18926">
        <ele>759.1</ele>
        <time>2019-05-31T10:29:46Z</time>
      </trkpt>
      <trkpt lat="44.08957" lon="3.18929">
        <ele>759.1</ele>
        <time>2019-05-31T10:30:28Z</time>
      </trkpt>
      <trkpt lat="44.08962" lon="3.18935">
        <ele>759</ele>
        <time>2019-05-31T10:30:30Z</time>
      </trkpt>
      <trkpt lat="44.08965" lon="3.18938">
        <ele>759</ele>
        <time>2019-05-31T10:30:31Z</time>
      </trkpt>
      <trkpt lat="44.08968" lon="3.18942">
        <ele>758.9</ele>
        <time>2019-05-31T10:30:32Z</time>
      </trkpt>
      <trkpt lat="44.08973" lon="3.18947">
        <ele>758.7</ele>
        <time>2019-05-31T10:30:33Z</time>
      </trkpt>
      <trkpt lat="44.08976" lon="3.18953">
        <ele>758.6</ele>
        <time>2019-05-31T10:30:34Z</time>
      </trkpt>
      <trkpt lat="44.0898" lon="3.18956">
        <ele>758.5</ele>
        <time>2019-05-31T10:30:35Z</time>
      </trkpt>
      <trkpt lat="44.08986" lon="3.18955">
        <ele>758.4</ele>
        <time>2019-05-31T10:30:36Z</time>
      </trkpt>
      <trkpt lat="44.08989" lon="3.18957">
        <ele>758.3</ele>
        <time>2019-05-31T10:30:37Z</time>
      </trkpt>
      <trkpt lat="44.08991" lon="3.18959">
        <ele>758.2</ele>
        <time>2019-05-31T10:30:38Z</time>
      </trkpt>
      <trkpt lat="44.08998" lon="3.1896">
        <ele>758</ele>
        <time>2019-05-31T10:30:39Z</time>
      </trkpt>
      <trkpt lat="44.09003" lon="3.18961">
        <ele>757.7</ele>
        <time>2019-05-31T10:30:40Z</time>
      </trkpt>
      <trkpt lat="44.09006" lon="3.18963">
        <ele>757.6</ele>
        <time>2019-05-31T10:30:41Z</time>
      </trkpt>
      <trkpt lat="44.09012" lon="3.18968">
        <ele>757.4</ele>
        <time>2019-05-31T10:30:42Z</time>
      </trkpt>
      <trkpt lat="44.09017" lon="3.18975">
        <ele>757.1</ele>
        <time>2019-05-31T10:30:43Z</time>
      </trkpt>
      <trkpt lat="44.09025" lon="3.1898">
        <ele>756.6</ele>
        <time>2019-05-31T10:30:44Z</time>
      </trkpt>
      <trkpt lat="44.09029" lon="3.18986">
        <ele>756.2</ele>
        <time>2019-05-31T10:30:45Z</time>
      </trkpt>
      <trkpt lat="44.09032" lon="3.18988">
        <ele>755.9</ele>
        <time>2019-05-31T10:30:46Z</time>
      </trkpt>
      <trkpt lat="44.09038" lon="3.19">
        <ele>755.3</ele>
        <time>2019-05-31T10:30:47Z</time>
      </trkpt>
      <trkpt lat="44.0904" lon="3.19012">
        <ele>754.6</ele>
        <time>2019-05-31T10:30:48Z</time>
      </trkpt>
      <trkpt lat="44.09044" lon="3.19018">
        <ele>754.2</ele>
        <time>2019-05-31T10:30:49Z</time>
      </trkpt>
      <trkpt lat="44.09052" lon="3.19026">
        <ele>753.3</ele>
        <time>2019-05-31T10:30:50Z</time>
      </trkpt>
      <trkpt lat="44.09058" lon="3.19034">
        <ele>752.8</ele>
        <time>2019-05-31T10:30:51Z</time>
      </trkpt>
      <trkpt lat="44.09064" lon="3.19038">
        <ele>752.2</ele>
        <time>2019-05-31T10:30:52Z</time>
      </trkpt>
      <trkpt lat="44.09075" lon="3.19031">
        <ele>751.4</ele>
        <time>2019-05-31T10:30:53Z</time>
      </trkpt>
      <trkpt lat="44.09081" lon="3.19031">
        <ele>751.1</ele>
        <time>2019-05-31T10:30:54Z</time>
      </trkpt>
      <trkpt lat="44.09089" lon="3.19028">
        <ele>750.5</ele>
        <time>2019-05-31T10:30:55Z</time>
      </trkpt>
      <trkpt lat="44.09092" lon="3.19028">
        <ele>750.3</ele>
        <time>2019-05-31T10:30:56Z</time>
      </trkpt>
      <trkpt lat="44.09095" lon="3.19027">
        <ele>750.2</ele>
        <time>2019-05-31T10:30:57Z</time>
      </trkpt>
      <trkpt lat="44.091" lon="3.19029">
        <ele>749.9</ele>
        <time>2019-05-31T10:30:58Z</time>
      </trkpt>
      <trkpt lat="44.09104" lon="3.19029">
        <ele>749.8</ele>
        <time>2019-05-31T10:30:59Z</time>
      </trkpt>
      <trkpt lat="44.09109" lon="3.19032">
        <ele>749.5</ele>
        <time>2019-05-31T10:31:00Z</time>
      </trkpt>
      <trkpt lat="44.09113" lon="3.19032">
        <ele>749.3</ele>
        <time>2019-05-31T10:31:01Z</time>
      </trkpt>
      <trkpt lat="44.09117" lon="3.19032">
        <ele>749.1</ele>
        <time>2019-05-31T10:31:02Z</time>
      </trkpt>
      <trkpt lat="44.0912" lon="3.19033">
        <ele>749</ele>
        <time>2019-05-31T10:31:04Z</time>
      </trkpt>
      <trkpt lat="44.09124" lon="3.19033">
        <ele>748.8</ele>
        <time>2019-05-31T10:31:05Z</time>
      </trkpt>
      <trkpt lat="44.09128" lon="3.19033">
        <ele>748.5</ele>
        <time>2019-05-31T10:31:07Z</time>
      </trkpt>
      <trkpt lat="44.09133" lon="3.19035">
        <ele>748.3</ele>
        <time>2019-05-31T10:31:09Z</time>
      </trkpt>
      <trkpt lat="44.09136" lon="3.19035">
        <ele>748.2</ele>
        <time>2019-05-31T10:31:10Z</time>
      </trkpt>
      <trkpt lat="44.09139" lon="3.19036">
        <ele>747.9</ele>
        <time>2019-05-31T10:31:11Z</time>
      </trkpt>
      <trkpt lat="44.09142" lon="3.19036">
        <ele>747.7</ele>
        <time>2019-05-31T10:31:12Z</time>
      </trkpt>
      <trkpt lat="44.09145" lon="3.19036">
        <ele>747.6</ele>
        <time>2019-05-31T10:31:13Z</time>
      </trkpt>
      <trkpt lat="44.0915" lon="3.19036">
        <ele>747.5</ele>
        <time>2019-05-31T10:31:15Z</time>
      </trkpt>
      <trkpt lat="44.09154" lon="3.19035">
        <ele>747.3</ele>
        <time>2019-05-31T10:31:16Z</time>
      </trkpt>
      <trkpt lat="44.09159" lon="3.19033">
        <ele>747</ele>
        <time>2019-05-31T10:31:17Z</time>
      </trkpt>
      <trkpt lat="44.09163" lon="3.19031">
        <ele>746.8</ele>
        <time>2019-05-31T10:31:18Z</time>
      </trkpt>
      <trkpt lat="44.09167" lon="3.19029">
        <ele>746.6</ele>
        <time>2019-05-31T10:31:19Z</time>
      </trkpt>
      <trkpt lat="44.09171" lon="3.19028">
        <ele>746.3</ele>
        <time>2019-05-31T10:31:20Z</time>
      </trkpt>
      <trkpt lat="44.09176" lon="3.19026">
        <ele>746</ele>
        <time>2019-05-31T10:31:21Z</time>
      </trkpt>
      <trkpt lat="44.0918" lon="3.19023">
        <ele>746</ele>
        <time>2019-05-31T10:31:22Z</time>
      </trkpt>
      <trkpt lat="44.09184" lon="3.1902">
        <ele>746.1</ele>
        <time>2019-05-31T10:31:23Z</time>
      </trkpt>
      <trkpt lat="44.09187" lon="3.19017">
        <ele>746</ele>
        <time>2019-05-31T10:31:24Z</time>
      </trkpt>
      <trkpt lat="44.0919" lon="3.19014">
        <ele>746</ele>
        <time>2019-05-31T10:31:25Z</time>
      </trkpt>
      <trkpt lat="44.09193" lon="3.19009">
        <ele>746</ele>
        <time>2019-05-31T10:31:27Z</time>
      </trkpt>
      <trkpt lat="44.09196" lon="3.19006">
        <ele>746</ele>
        <time>2019-05-31T10:31:29Z</time>
      </trkpt>
      <trkpt lat="44.09198" lon="3.19004">
        <ele>746</ele>
        <time>2019-05-31T10:31:33Z</time>
      </trkpt>
      <trkpt lat="44.092" lon="3.19001">
        <ele>746</ele>
        <time>2019-05-31T10:31:36Z</time>
      </trkpt>
      <trkpt lat="44.09203" lon="3.18997">
        <ele>746</ele>
        <time>2019-05-31T10:31:42Z</time>
      </trkpt>
      <trkpt lat="44.09206" lon="3.18992">
        <ele>746.1</ele>
        <time>2019-05-31T10:31:44Z</time>
      </trkpt>
      <trkpt lat="44.0921" lon="3.18988">
        <ele>746.6</ele>
        <time>2019-05-31T10:31:46Z</time>
      </trkpt>
      <trkpt lat="44.09212" lon="3.18985">
        <ele>746.9</ele>
        <time>2019-05-31T10:31:47Z</time>
      </trkpt>
      <trkpt lat="44.09215" lon="3.18982">
        <ele>747.1</ele>
        <time>2019-05-31T10:31:48Z</time>
      </trkpt>
      <trkpt lat="44.09219" lon="3.18978">
        <ele>747.2</ele>
        <time>2019-05-31T10:31:50Z</time>
      </trkpt>
      <trkpt lat="44.09222" lon="3.18977">
        <ele>747.3</ele>
        <time>2019-05-31T10:31:51Z</time>
      </trkpt>
      <trkpt lat="44.09225" lon="3.18976">
        <ele>747.1</ele>
        <time>2019-05-31T10:31:52Z</time>
      </trkpt>
      <trkpt lat="44.09229" lon="3.18975">
        <ele>746.9</ele>
        <time>2019-05-31T10:31:53Z</time>
      </trkpt>
      <trkpt lat="44.09232" lon="3.18975">
        <ele>746.7</ele>
        <time>2019-05-31T10:31:54Z</time>
      </trkpt>
      <trkpt lat="44.09235" lon="3.18976">
        <ele>746.5</ele>
        <time>2019-05-31T10:31:55Z</time>
      </trkpt>
      <trkpt lat="44.09239" lon="3.18978">
        <ele>746.4</ele>
        <time>2019-05-31T10:31:56Z</time>
      </trkpt>
      <trkpt lat="44.09243" lon="3.18981">
        <ele>746.2</ele>
        <time>2019-05-31T10:31:57Z</time>
      </trkpt>
      <trkpt lat="44.09247" lon="3.18982">
        <ele>745.9</ele>
        <time>2019-05-31T10:31:58Z</time>
      </trkpt>
      <trkpt lat="44.09251" lon="3.18984">
        <ele>745.6</ele>
        <time>2019-05-31T10:31:59Z</time>
      </trkpt>
      <trkpt lat="44.09255" lon="3.18985">
        <ele>745.4</ele>
        <time>2019-05-31T10:32:00Z</time>
      </trkpt>
      <trkpt lat="44.0926" lon="3.18986">
        <ele>745.3</ele>
        <time>2019-05-31T10:32:01Z</time>
      </trkpt>
      <trkpt lat="44.09264" lon="3.18988">
        <ele>745.2</ele>
        <time>2019-05-31T10:32:02Z</time>
      </trkpt>
      <trkpt lat="44.09268" lon="3.18989">
        <ele>745</ele>
        <time>2019-05-31T10:32:03Z</time>
      </trkpt>
      <trkpt lat="44.09273" lon="3.18989">
        <ele>744.9</ele>
        <time>2019-05-31T10:32:04Z</time>
      </trkpt>
      <trkpt lat="44.09277" lon="3.18989">
        <ele>744.6</ele>
        <time>2019-05-31T10:32:05Z</time>
      </trkpt>
      <trkpt lat="44.09282" lon="3.18988">
        <ele>744.4</ele>
        <time>2019-05-31T10:32:06Z</time>
      </trkpt>
      <trkpt lat="44.09285" lon="3.18986">
        <ele>744.3</ele>
        <time>2019-05-31T10:32:07Z</time>
      </trkpt>
      <trkpt lat="44.09289" lon="3.18984">
        <ele>744.3</ele>
        <time>2019-05-31T10:32:08Z</time>
      </trkpt>
      <trkpt lat="44.09293" lon="3.18982">
        <ele>744.5</ele>
        <time>2019-05-31T10:32:09Z</time>
      </trkpt>
      <trkpt lat="44.09297" lon="3.1898">
        <ele>744.5</ele>
        <time>2019-05-31T10:32:10Z</time>
      </trkpt>
      <trkpt lat="44.09301" lon="3.18979">
        <ele>744.5</ele>
        <time>2019-05-31T10:32:11Z</time>
      </trkpt>
      <trkpt lat="44.09305" lon="3.18977">
        <ele>744.6</ele>
        <time>2019-05-31T10:32:12Z</time>
      </trkpt>
      <trkpt lat="44.09308" lon="3.18976">
        <ele>744.7</ele>
        <time>2019-05-31T10:32:13Z</time>
      </trkpt>
      <trkpt lat="44.09312" lon="3.18975">
        <ele>744.8</ele>
        <time>2019-05-31T10:32:14Z</time>
      </trkpt>
      <trkpt lat="44.09315" lon="3.18974">
        <ele>744.8</ele>
        <time>2019-05-31T10:32:15Z</time>
      </trkpt>
      <trkpt lat="44.09318" lon="3.18974">
        <ele>744.8</ele>
        <time>2019-05-31T10:32:16Z</time>
      </trkpt>
      <trkpt lat="44.09321" lon="3.18973">
        <ele>744.9</ele>
        <time>2019-05-31T10:32:17Z</time>
      </trkpt>
      <trkpt lat="44.09325" lon="3.18973">
        <ele>745</ele>
        <time>2019-05-31T10:32:18Z</time>
      </trkpt>
      <trkpt lat="44.09329" lon="3.18972">
        <ele>745</ele>
        <time>2019-05-31T10:32:19Z</time>
      </trkpt>
      <trkpt lat="44.09332" lon="3.18971">
        <ele>744.9</ele>
        <time>2019-05-31T10:32:20Z</time>
      </trkpt>
      <trkpt lat="44.09336" lon="3.1897">
        <ele>744.7</ele>
        <time>2019-05-31T10:32:21Z</time>
      </trkpt>
      <trkpt lat="44.09342" lon="3.18967">
        <ele>744.8</ele>
        <time>2019-05-31T10:32:22Z</time>
      </trkpt>
      <trkpt lat="44.09346" lon="3.18965">
        <ele>744.6</ele>
        <time>2019-05-31T10:32:23Z</time>
      </trkpt>
      <trkpt lat="44.0935" lon="3.18962">
        <ele>744.3</ele>
        <time>2019-05-31T10:32:24Z</time>
      </trkpt>
      <trkpt lat="44.09354" lon="3.1896">
        <ele>744.2</ele>
        <time>2019-05-31T10:32:25Z</time>
      </trkpt>
      <trkpt lat="44.09359" lon="3.18957">
        <ele>744.1</ele>
        <time>2019-05-31T10:32:26Z</time>
      </trkpt>
      <trkpt lat="44.09363" lon="3.18954">
        <ele>744</ele>
        <time>2019-05-31T10:32:27Z</time>
      </trkpt>
      <trkpt lat="44.09366" lon="3.18952">
        <ele>744</ele>
        <time>2019-05-31T10:32:28Z</time>
      </trkpt>
      <trkpt lat="44.09369" lon="3.18949">
        <ele>744</ele>
        <time>2019-05-31T10:32:29Z</time>
      </trkpt>
      <trkpt lat="44.09373" lon="3.18946">
        <ele>744.1</ele>
        <time>2019-05-31T10:32:30Z</time>
      </trkpt>
      <trkpt lat="44.09376" lon="3.18945">
        <ele>744.3</ele>
        <time>2019-05-31T10:32:31Z</time>
      </trkpt>
      <trkpt lat="44.0938" lon="3.18942">
        <ele>744.4</ele>
        <time>2019-05-31T10:32:32Z</time>
      </trkpt>
      <trkpt lat="44.09383" lon="3.1894">
        <ele>744.4</ele>
        <time>2019-05-31T10:32:33Z</time>
      </trkpt>
      <trkpt lat="44.09386" lon="3.18938">
        <ele>744.5</ele>
        <time>2019-05-31T10:32:34Z</time>
      </trkpt>
      <trkpt lat="44.0939" lon="3.18936">
        <ele>744.5</ele>
        <time>2019-05-31T10:32:35Z</time>
      </trkpt>
      <trkpt lat="44.09393" lon="3.18935">
        <ele>744.4</ele>
        <time>2019-05-31T10:32:36Z</time>
      </trkpt>
      <trkpt lat="44.09396" lon="3.18933">
        <ele>744.4</ele>
        <time>2019-05-31T10:32:37Z</time>
      </trkpt>
      <trkpt lat="44.094" lon="3.18931">
        <ele>744.3</ele>
        <time>2019-05-31T10:32:38Z</time>
      </trkpt>
      <trkpt lat="44.09404" lon="3.18929">
        <ele>744.1</ele>
        <time>2019-05-31T10:32:39Z</time>
      </trkpt>
      <trkpt lat="44.09408" lon="3.18927">
        <ele>743.7</ele>
        <time>2019-05-31T10:32:40Z</time>
      </trkpt>
      <trkpt lat="44.09412" lon="3.18926">
        <ele>743.4</ele>
        <time>2019-05-31T10:32:41Z</time>
      </trkpt>
      <trkpt lat="44.09417" lon="3.18925">
        <ele>743.2</ele>
        <time>2019-05-31T10:32:42Z</time>
      </trkpt>
      <trkpt lat="44.09424" lon="3.18923">
        <ele>742.6</ele>
        <time>2019-05-31T10:32:43Z</time>
      </trkpt>
      <trkpt lat="44.09429" lon="3.18922">
        <ele>742.2</ele>
        <time>2019-05-31T10:32:44Z</time>
      </trkpt>
      <trkpt lat="44.09434" lon="3.18922">
        <ele>742</ele>
        <time>2019-05-31T10:32:45Z</time>
      </trkpt>
      <trkpt lat="44.09439" lon="3.18919">
        <ele>741.7</ele>
        <time>2019-05-31T10:32:46Z</time>
      </trkpt>
      <trkpt lat="44.09446" lon="3.18917">
        <ele>741.4</ele>
        <time>2019-05-31T10:32:47Z</time>
      </trkpt>
      <trkpt lat="44.09453" lon="3.18915">
        <ele>741</ele>
        <time>2019-05-31T10:32:48Z</time>
      </trkpt>
      <trkpt lat="44.0946" lon="3.18913">
        <ele>740.5</ele>
        <time>2019-05-31T10:32:49Z</time>
      </trkpt>
      <trkpt lat="44.09467" lon="3.18912">
        <ele>740.1</ele>
        <time>2019-05-31T10:32:50Z</time>
      </trkpt>
      <trkpt lat="44.09474" lon="3.18912">
        <ele>739.7</ele>
        <time>2019-05-31T10:32:51Z</time>
      </trkpt>
      <trkpt lat="44.0948" lon="3.18912">
        <ele>739.5</ele>
        <time>2019-05-31T10:32:52Z</time>
      </trkpt>
      <trkpt lat="44.09486" lon="3.1891">
        <ele>739.4</ele>
        <time>2019-05-31T10:32:53Z</time>
      </trkpt>
      <trkpt lat="44.09491" lon="3.18911">
        <ele>739</ele>
        <time>2019-05-31T10:32:54Z</time>
      </trkpt>
      <trkpt lat="44.09497" lon="3.18909">
        <ele>738.5</ele>
        <time>2019-05-31T10:32:55Z</time>
      </trkpt>
      <trkpt lat="44.09502" lon="3.18912">
        <ele>738.2</ele>
        <time>2019-05-31T10:32:56Z</time>
      </trkpt>
      <trkpt lat="44.09508" lon="3.18915">
        <ele>737.8</ele>
        <time>2019-05-31T10:32:57Z</time>
      </trkpt>
      <trkpt lat="44.09514" lon="3.18917">
        <ele>737.4</ele>
        <time>2019-05-31T10:32:58Z</time>
      </trkpt>
      <trkpt lat="44.09519" lon="3.18921">
        <ele>737.2</ele>
        <time>2019-05-31T10:32:59Z</time>
      </trkpt>
      <trkpt lat="44.09524" lon="3.18925">
        <ele>736.9</ele>
        <time>2019-05-31T10:33:00Z</time>
      </trkpt>
      <trkpt lat="44.09529" lon="3.18928">
        <ele>736.7</ele>
        <time>2019-05-31T10:33:01Z</time>
      </trkpt>
      <trkpt lat="44.09535" lon="3.18931">
        <ele>736.5</ele>
        <time>2019-05-31T10:33:02Z</time>
      </trkpt>
      <trkpt lat="44.0954" lon="3.18933">
        <ele>736.4</ele>
        <time>2019-05-31T10:33:03Z</time>
      </trkpt>
      <trkpt lat="44.09546" lon="3.18935">
        <ele>736.4</ele>
        <time>2019-05-31T10:33:04Z</time>
      </trkpt>
      <trkpt lat="44.0955" lon="3.18937">
        <ele>736.2</ele>
        <time>2019-05-31T10:33:05Z</time>
      </trkpt>
      <trkpt lat="44.09554" lon="3.1894">
        <ele>736.1</ele>
        <time>2019-05-31T10:33:06Z</time>
      </trkpt>
      <trkpt lat="44.09559" lon="3.18942">
        <ele>735.9</ele>
        <time>2019-05-31T10:33:07Z</time>
      </trkpt>
      <trkpt lat="44.09562" lon="3.18945">
        <ele>735.7</ele>
        <time>2019-05-31T10:33:08Z</time>
      </trkpt>
      <trkpt lat="44.09568" lon="3.18949">
        <ele>735.4</ele>
        <time>2019-05-31T10:33:09Z</time>
      </trkpt>
      <trkpt lat="44.09572" lon="3.18951">
        <ele>735.2</ele>
        <time>2019-05-31T10:33:10Z</time>
      </trkpt>
      <trkpt lat="44.09578" lon="3.1895">
        <ele>734.9</ele>
        <time>2019-05-31T10:33:11Z</time>
      </trkpt>
      <trkpt lat="44.09581" lon="3.1895">
        <ele>734.7</ele>
        <time>2019-05-31T10:33:12Z</time>
      </trkpt>
      <trkpt lat="44.09587" lon="3.18949">
        <ele>734.4</ele>
        <time>2019-05-31T10:33:13Z</time>
      </trkpt>
      <trkpt lat="44.09593" lon="3.18948">
        <ele>734.2</ele>
        <time>2019-05-31T10:33:14Z</time>
      </trkpt>
      <trkpt lat="44.09598" lon="3.18949">
        <ele>734.1</ele>
        <time>2019-05-31T10:33:15Z</time>
      </trkpt>
      <trkpt lat="44.09603" lon="3.18948">
        <ele>734</ele>
        <time>2019-05-31T10:33:16Z</time>
      </trkpt>
      <trkpt lat="44.09608" lon="3.18948">
        <ele>733.9</ele>
        <time>2019-05-31T10:33:17Z</time>
      </trkpt>
      <trkpt lat="44.09612" lon="3.18947">
        <ele>733.8</ele>
        <time>2019-05-31T10:33:18Z</time>
      </trkpt>
      <trkpt lat="44.09617" lon="3.18946">
        <ele>733.7</ele>
        <time>2019-05-31T10:33:19Z</time>
      </trkpt>
      <trkpt lat="44.09621" lon="3.18946">
        <ele>733.6</ele>
        <time>2019-05-31T10:33:20Z</time>
      </trkpt>
      <trkpt lat="44.09624" lon="3.18945">
        <ele>733.5</ele>
        <time>2019-05-31T10:33:21Z</time>
      </trkpt>
      <trkpt lat="44.09627" lon="3.18951">
        <ele>733.4</ele>
        <time>2019-05-31T10:33:23Z</time>
      </trkpt>
      <trkpt lat="44.09632" lon="3.18954">
        <ele>733.3</ele>
        <time>2019-05-31T10:33:24Z</time>
      </trkpt>
      <trkpt lat="44.09639" lon="3.18958">
        <ele>733.1</ele>
        <time>2019-05-31T10:33:25Z</time>
      </trkpt>
      <trkpt lat="44.09643" lon="3.18963">
        <ele>733</ele>
        <time>2019-05-31T10:33:26Z</time>
      </trkpt>
      <trkpt lat="44.09646" lon="3.18967">
        <ele>732.9</ele>
        <time>2019-05-31T10:33:27Z</time>
      </trkpt>
      <trkpt lat="44.09651" lon="3.18971">
        <ele>732.8</ele>
        <time>2019-05-31T10:33:28Z</time>
      </trkpt>
      <trkpt lat="44.09654" lon="3.18983">
        <ele>732.3</ele>
        <time>2019-05-31T10:33:29Z</time>
      </trkpt>
      <trkpt lat="44.09655" lon="3.18989">
        <ele>731.9</ele>
        <time>2019-05-31T10:33:30Z</time>
      </trkpt>
      <trkpt lat="44.09656" lon="3.18998">
        <ele>731.2</ele>
        <time>2019-05-31T10:33:31Z</time>
      </trkpt>
      <trkpt lat="44.09661" lon="3.19008">
        <ele>730.7</ele>
        <time>2019-05-31T10:33:32Z</time>
      </trkpt>
      <trkpt lat="44.09663" lon="3.19015">
        <ele>730.4</ele>
        <time>2019-05-31T10:33:33Z</time>
      </trkpt>
      <trkpt lat="44.09667" lon="3.19026">
        <ele>730.2</ele>
        <time>2019-05-31T10:33:34Z</time>
      </trkpt>
      <trkpt lat="44.09671" lon="3.19033">
        <ele>730.1</ele>
        <time>2019-05-31T10:33:35Z</time>
      </trkpt>
      <trkpt lat="44.09676" lon="3.19039">
        <ele>730.2</ele>
        <time>2019-05-31T10:33:36Z</time>
      </trkpt>
      <trkpt lat="44.09682" lon="3.19043">
        <ele>730.3</ele>
        <time>2019-05-31T10:33:37Z</time>
      </trkpt>
      <trkpt lat="44.09688" lon="3.19046">
        <ele>730.5</ele>
        <time>2019-05-31T10:33:38Z</time>
      </trkpt>
      <trkpt lat="44.09691" lon="3.19049">
        <ele>730.6</ele>
        <time>2019-05-31T10:33:39Z</time>
      </trkpt>
      <trkpt lat="44.09695" lon="3.19053">
        <ele>730.7</ele>
        <time>2019-05-31T10:33:40Z</time>
      </trkpt>
      <trkpt lat="44.09698" lon="3.19056">
        <ele>730.9</ele>
        <time>2019-05-31T10:33:41Z</time>
      </trkpt>
      <trkpt lat="44.09702" lon="3.19059">
        <ele>731.2</ele>
        <time>2019-05-31T10:33:42Z</time>
      </trkpt>
      <trkpt lat="44.09705" lon="3.19063">
        <ele>731.4</ele>
        <time>2019-05-31T10:33:43Z</time>
      </trkpt>
      <trkpt lat="44.09708" lon="3.19067">
        <ele>731.6</ele>
        <time>2019-05-31T10:33:44Z</time>
      </trkpt>
      <trkpt lat="44.0971" lon="3.1907">
        <ele>731.7</ele>
        <time>2019-05-31T10:33:45Z</time>
      </trkpt>
      <trkpt lat="44.09713" lon="3.19074">
        <ele>732</ele>
        <time>2019-05-31T10:33:46Z</time>
      </trkpt>
      <trkpt lat="44.09717" lon="3.19076">
        <ele>732.4</ele>
        <time>2019-05-31T10:33:47Z</time>
      </trkpt>
      <trkpt lat="44.09722" lon="3.19078">
        <ele>732.9</ele>
        <time>2019-05-31T10:33:48Z</time>
      </trkpt>
      <trkpt lat="44.09724" lon="3.19081">
        <ele>733.2</ele>
        <time>2019-05-31T10:33:49Z</time>
      </trkpt>
      <trkpt lat="44.09726" lon="3.19084">
        <ele>733.3</ele>
        <time>2019-05-31T10:33:50Z</time>
      </trkpt>
      <trkpt lat="44.09729" lon="3.19087">
        <ele>733.5</ele>
        <time>2019-05-31T10:33:51Z</time>
      </trkpt>
      <trkpt lat="44.09731" lon="3.1909">
        <ele>733.5</ele>
        <time>2019-05-31T10:33:52Z</time>
      </trkpt>
      <trkpt lat="44.09735" lon="3.19095">
        <ele>733.3</ele>
        <time>2019-05-31T10:33:54Z</time>
      </trkpt>
      <trkpt lat="44.0974" lon="3.19097">
        <ele>733</ele>
        <time>2019-05-31T10:33:56Z</time>
      </trkpt>
      <trkpt lat="44.09743" lon="3.19094">
        <ele>732.8</ele>
        <time>2019-05-31T10:33:57Z</time>
      </trkpt>
      <trkpt lat="44.09746" lon="3.19089">
        <ele>732.3</ele>
        <time>2019-05-31T10:33:58Z</time>
      </trkpt>
      <trkpt lat="44.09748" lon="3.19084">
        <ele>731.8</ele>
        <time>2019-05-31T10:33:59Z</time>
      </trkpt>
      <trkpt lat="44.09751" lon="3.19078">
        <ele>731.1</ele>
        <time>2019-05-31T10:34:00Z</time>
      </trkpt>
      <trkpt lat="44.09754" lon="3.19076">
        <ele>730.9</ele>
        <time>2019-05-31T10:34:01Z</time>
      </trkpt>
      <trkpt lat="44.0976" lon="3.19071">
        <ele>730.5</ele>
        <time>2019-05-31T10:34:02Z</time>
      </trkpt>
      <trkpt lat="44.09765" lon="3.19067">
        <ele>730</ele>
        <time>2019-05-31T10:34:03Z</time>
      </trkpt>
      <trkpt lat="44.0977" lon="3.19064">
        <ele>729.6</ele>
        <time>2019-05-31T10:34:04Z</time>
      </trkpt>
      <trkpt lat="44.09775" lon="3.19059">
        <ele>729.1</ele>
        <time>2019-05-31T10:34:05Z</time>
      </trkpt>
      <trkpt lat="44.09782" lon="3.19053">
        <ele>728.2</ele>
        <time>2019-05-31T10:34:06Z</time>
      </trkpt>
      <trkpt lat="44.09787" lon="3.1905">
        <ele>727.7</ele>
        <time>2019-05-31T10:34:07Z</time>
      </trkpt>
      <trkpt lat="44.09792" lon="3.19049">
        <ele>727.3</ele>
        <time>2019-05-31T10:34:08Z</time>
      </trkpt>
      <trkpt lat="44.09796" lon="3.19045">
        <ele>726.8</ele>
        <time>2019-05-31T10:34:09Z</time>
      </trkpt>
      <trkpt lat="44.09803" lon="3.19042">
        <ele>726.1</ele>
        <time>2019-05-31T10:34:10Z</time>
      </trkpt>
      <trkpt lat="44.09808" lon="3.19036">
        <ele>725.5</ele>
        <time>2019-05-31T10:34:11Z</time>
      </trkpt>
      <trkpt lat="44.09809" lon="3.19029">
        <ele>725.2</ele>
        <time>2019-05-31T10:34:12Z</time>
      </trkpt>
      <trkpt lat="44.09817" lon="3.19023">
        <ele>724.6</ele>
        <time>2019-05-31T10:34:13Z</time>
      </trkpt>
      <trkpt lat="44.09822" lon="3.19018">
        <ele>724.2</ele>
        <time>2019-05-31T10:34:14Z</time>
      </trkpt>
      <trkpt lat="44.0983" lon="3.19014">
        <ele>723.5</ele>
        <time>2019-05-31T10:34:15Z</time>
      </trkpt>
      <trkpt lat="44.09836" lon="3.19008">
        <ele>723</ele>
        <time>2019-05-31T10:34:16Z</time>
      </trkpt>
      <trkpt lat="44.09844" lon="3.19008">
        <ele>722.5</ele>
        <time>2019-05-31T10:34:17Z</time>
      </trkpt>
      <trkpt lat="44.09851" lon="3.19008">
        <ele>722.1</ele>
        <time>2019-05-31T10:34:18Z</time>
      </trkpt>
      <trkpt lat="44.09856" lon="3.19003">
        <ele>721.9</ele>
        <time>2019-05-31T10:34:19Z</time>
      </trkpt>
      <trkpt lat="44.09863" lon="3.19001">
        <ele>722</ele>
        <time>2019-05-31T10:34:20Z</time>
      </trkpt>
      <trkpt lat="44.0987" lon="3.19001">
        <ele>721.7</ele>
        <time>2019-05-31T10:34:21Z</time>
      </trkpt>
      <trkpt lat="44.09878" lon="3.18997">
        <ele>721.8</ele>
        <time>2019-05-31T10:34:22Z</time>
      </trkpt>
      <trkpt lat="44.09884" lon="3.18996">
        <ele>721.5</ele>
        <time>2019-05-31T10:34:23Z</time>
      </trkpt>
      <trkpt lat="44.09889" lon="3.18992">
        <ele>721.2</ele>
        <time>2019-05-31T10:34:24Z</time>
      </trkpt>
      <trkpt lat="44.09896" lon="3.18989">
        <ele>720.9</ele>
        <time>2019-05-31T10:34:25Z</time>
      </trkpt>
      <trkpt lat="44.09899" lon="3.18983">
        <ele>720.6</ele>
        <time>2019-05-31T10:34:26Z</time>
      </trkpt>
      <trkpt lat="44.09907" lon="3.18979">
        <ele>720.1</ele>
        <time>2019-05-31T10:34:27Z</time>
      </trkpt>
      <trkpt lat="44.09912" lon="3.18975">
        <ele>719.8</ele>
        <time>2019-05-31T10:34:28Z</time>
      </trkpt>
      <trkpt lat="44.09919" lon="3.1897">
        <ele>719.8</ele>
        <time>2019-05-31T10:34:29Z</time>
      </trkpt>
      <trkpt lat="44.09925" lon="3.18966">
        <ele>720</ele>
        <time>2019-05-31T10:34:30Z</time>
      </trkpt>
      <trkpt lat="44.09929" lon="3.18958">
        <ele>719.8</ele>
        <time>2019-05-31T10:34:31Z</time>
      </trkpt>
      <trkpt lat="44.09933" lon="3.18952">
        <ele>719.4</ele>
        <time>2019-05-31T10:34:32Z</time>
      </trkpt>
      <trkpt lat="44.09938" lon="3.18947">
        <ele>719.2</ele>
        <time>2019-05-31T10:34:33Z</time>
      </trkpt>
      <trkpt lat="44.09945" lon="3.18944">
        <ele>718.6</ele>
        <time>2019-05-31T10:34:34Z</time>
      </trkpt>
      <trkpt lat="44.09951" lon="3.18943">
        <ele>718.2</ele>
        <time>2019-05-31T10:34:35Z</time>
      </trkpt>
      <trkpt lat="44.09958" lon="3.18939">
        <ele>718</ele>
        <time>2019-05-31T10:34:36Z</time>
      </trkpt>
      <trkpt lat="44.09964" lon="3.18938">
        <ele>718</ele>
        <time>2019-05-31T10:34:37Z</time>
      </trkpt>
      <trkpt lat="44.0997" lon="3.18932">
        <ele>717.5</ele>
        <time>2019-05-31T10:34:38Z</time>
      </trkpt>
      <trkpt lat="44.09975" lon="3.18928">
        <ele>717.3</ele>
        <time>2019-05-31T10:34:39Z</time>
      </trkpt>
      <trkpt lat="44.0998" lon="3.18924">
        <ele>717.4</ele>
        <time>2019-05-31T10:34:40Z</time>
      </trkpt>
      <trkpt lat="44.09986" lon="3.1892">
        <ele>717.3</ele>
        <time>2019-05-31T10:34:41Z</time>
      </trkpt>
      <trkpt lat="44.09991" lon="3.18919">
        <ele>717.5</ele>
        <time>2019-05-31T10:34:42Z</time>
      </trkpt>
      <trkpt lat="44.09998" lon="3.18917">
        <ele>718.3</ele>
        <time>2019-05-31T10:34:43Z</time>
      </trkpt>
      <trkpt lat="44.10005" lon="3.18918">
        <ele>718.4</ele>
        <time>2019-05-31T10:34:44Z</time>
      </trkpt>
      <trkpt lat="44.10015" lon="3.18914">
        <ele>719.5</ele>
        <time>2019-05-31T10:34:45Z</time>
      </trkpt>
      <trkpt lat="44.10022" lon="3.1891">
        <ele>719.6</ele>
        <time>2019-05-31T10:34:46Z</time>
      </trkpt>
      <trkpt lat="44.10029" lon="3.18903">
        <ele>720</ele>
        <time>2019-05-31T10:34:47Z</time>
      </trkpt>
      <trkpt lat="44.10034" lon="3.18897">
        <ele>720.3</ele>
        <time>2019-05-31T10:34:48Z</time>
      </trkpt>
      <trkpt lat="44.10041" lon="3.1889">
        <ele>720.6</ele>
        <time>2019-05-31T10:34:49Z</time>
      </trkpt>
      <trkpt lat="44.10049" lon="3.18884">
        <ele>721.6</ele>
        <time>2019-05-31T10:34:50Z</time>
      </trkpt>
      <trkpt lat="44.1006" lon="3.18882">
        <ele>723.1</ele>
        <time>2019-05-31T10:34:51Z</time>
      </trkpt>
      <trkpt lat="44.10065" lon="3.1888">
        <ele>724</ele>
        <time>2019-05-31T10:34:52Z</time>
      </trkpt>
      <trkpt lat="44.10067" lon="3.18875">
        <ele>724</ele>
        <time>2019-05-31T10:34:53Z</time>
      </trkpt>
      <trkpt lat="44.10065" lon="3.1887">
        <ele>724.2</ele>
        <time>2019-05-31T10:34:54Z</time>
      </trkpt>
      <trkpt lat="44.10063" lon="3.18864">
        <ele>724.4</ele>
        <time>2019-05-31T10:34:55Z</time>
      </trkpt>
      <trkpt lat="44.10061" lon="3.1886">
        <ele>724.6</ele>
        <time>2019-05-31T10:34:56Z</time>
      </trkpt>
      <trkpt lat="44.10059" lon="3.18854">
        <ele>724.8</ele>
        <time>2019-05-31T10:34:57Z</time>
      </trkpt>
      <trkpt lat="44.10055" lon="3.18851">
        <ele>724.9</ele>
        <time>2019-05-31T10:34:58Z</time>
      </trkpt>
      <trkpt lat="44.10052" lon="3.18845">
        <ele>725</ele>
        <time>2019-05-31T10:34:59Z</time>
      </trkpt>
      <trkpt lat="44.10052" lon="3.18841">
        <ele>725.1</ele>
        <time>2019-05-31T10:35:00Z</time>
      </trkpt>
      <trkpt lat="44.10047" lon="3.18839">
        <ele>725.2</ele>
        <time>2019-05-31T10:35:01Z</time>
      </trkpt>
      <trkpt lat="44.10046" lon="3.18834">
        <ele>725.3</ele>
        <time>2019-05-31T10:35:02Z</time>
      </trkpt>
      <trkpt lat="44.10045" lon="3.1883">
        <ele>725.4</ele>
        <time>2019-05-31T10:35:03Z</time>
      </trkpt>
      <trkpt lat="44.10043" lon="3.18824">
        <ele>725.5</ele>
        <time>2019-05-31T10:35:05Z</time>
      </trkpt>
      <trkpt lat="44.1004" lon="3.18821">
        <ele>725.6</ele>
        <time>2019-05-31T10:35:06Z</time>
      </trkpt>
      <trkpt lat="44.10038" lon="3.18817">
        <ele>725.7</ele>
        <time>2019-05-31T10:35:07Z</time>
      </trkpt>
      <trkpt lat="44.10035" lon="3.18814">
        <ele>725.7</ele>
        <time>2019-05-31T10:35:08Z</time>
      </trkpt>
      <trkpt lat="44.10033" lon="3.1881">
        <ele>725.8</ele>
        <time>2019-05-31T10:35:09Z</time>
      </trkpt>
      <trkpt lat="44.10031" lon="3.18805">
        <ele>726</ele>
        <time>2019-05-31T10:35:10Z</time>
      </trkpt>
      <trkpt lat="44.10028" lon="3.188">
        <ele>726.1</ele>
        <time>2019-05-31T10:35:11Z</time>
      </trkpt>
      <trkpt lat="44.10026" lon="3.18795">
        <ele>726.3</ele>
        <time>2019-05-31T10:35:12Z</time>
      </trkpt>
      <trkpt lat="44.10024" lon="3.18789">
        <ele>726.5</ele>
        <time>2019-05-31T10:35:13Z</time>
      </trkpt>
      <trkpt lat="44.10023" lon="3.18784">
        <ele>726.8</ele>
        <time>2019-05-31T10:35:14Z</time>
      </trkpt>
      <trkpt lat="44.10022" lon="3.18781">
        <ele>727</ele>
        <time>2019-05-31T10:35:15Z</time>
      </trkpt>
      <trkpt lat="44.10021" lon="3.18777">
        <ele>727.2</ele>
        <time>2019-05-31T10:35:16Z</time>
      </trkpt>
      <trkpt lat="44.1002" lon="3.18773">
        <ele>727.4</ele>
        <time>2019-05-31T10:35:17Z</time>
      </trkpt>
      <trkpt lat="44.10019" lon="3.18769">
        <ele>727.6</ele>
        <time>2019-05-31T10:35:18Z</time>
      </trkpt>
      <trkpt lat="44.10018" lon="3.18765">
        <ele>727.8</ele>
        <time>2019-05-31T10:35:19Z</time>
      </trkpt>
      <trkpt lat="44.10017" lon="3.1876">
        <ele>728.1</ele>
        <time>2019-05-31T10:35:20Z</time>
      </trkpt>
      <trkpt lat="44.10016" lon="3.18756">
        <ele>728.3</ele>
        <time>2019-05-31T10:35:21Z</time>
      </trkpt>
      <trkpt lat="44.10016" lon="3.18752">
        <ele>728.5</ele>
        <time>2019-05-31T10:35:22Z</time>
      </trkpt>
      <trkpt lat="44.10014" lon="3.18745">
        <ele>728.8</ele>
        <time>2019-05-31T10:35:24Z</time>
      </trkpt>
      <trkpt lat="44.10013" lon="3.18742">
        <ele>728.9</ele>
        <time>2019-05-31T10:35:25Z</time>
      </trkpt>
      <trkpt lat="44.10011" lon="3.18738">
        <ele>729.1</ele>
        <time>2019-05-31T10:35:26Z</time>
      </trkpt>
      <trkpt lat="44.1001" lon="3.18734">
        <ele>729.2</ele>
        <time>2019-05-31T10:35:27Z</time>
      </trkpt>
      <trkpt lat="44.10008" lon="3.18731">
        <ele>729.3</ele>
        <time>2019-05-31T10:35:28Z</time>
      </trkpt>
      <trkpt lat="44.10006" lon="3.18724">
        <ele>729.4</ele>
        <time>2019-05-31T10:35:30Z</time>
      </trkpt>
      <trkpt lat="44.10005" lon="3.1872">
        <ele>729.5</ele>
        <time>2019-05-31T10:35:31Z</time>
      </trkpt>
      <trkpt lat="44.10003" lon="3.18714">
        <ele>729.6</ele>
        <time>2019-05-31T10:35:33Z</time>
      </trkpt>
      <trkpt lat="44.10001" lon="3.18707">
        <ele>729.7</ele>
        <time>2019-05-31T10:35:35Z</time>
      </trkpt>
      <trkpt lat="44.09999" lon="3.18704">
        <ele>729.7</ele>
        <time>2019-05-31T10:35:36Z</time>
      </trkpt>
      <trkpt lat="44.09997" lon="3.18697">
        <ele>729.8</ele>
        <time>2019-05-31T10:35:38Z</time>
      </trkpt>
      <trkpt lat="44.09996" lon="3.18693">
        <ele>729.8</ele>
        <time>2019-05-31T10:35:39Z</time>
      </trkpt>
      <trkpt lat="44.09995" lon="3.18688">
        <ele>729.9</ele>
        <time>2019-05-31T10:35:40Z</time>
      </trkpt>
      <trkpt lat="44.09995" lon="3.18683">
        <ele>729.9</ele>
        <time>2019-05-31T10:35:41Z</time>
      </trkpt>
      <trkpt lat="44.09995" lon="3.18676">
        <ele>730</ele>
        <time>2019-05-31T10:35:43Z</time>
      </trkpt>
      <trkpt lat="44.09995" lon="3.18673">
        <ele>730</ele>
        <time>2019-05-31T10:35:44Z</time>
      </trkpt>
      <trkpt lat="44.09994" lon="3.18668">
        <ele>730.1</ele>
        <time>2019-05-31T10:35:45Z</time>
      </trkpt>
      <trkpt lat="44.09994" lon="3.18661">
        <ele>730.2</ele>
        <time>2019-05-31T10:35:47Z</time>
      </trkpt>
      <trkpt lat="44.09994" lon="3.18655">
        <ele>730.3</ele>
        <time>2019-05-31T10:35:49Z</time>
      </trkpt>
      <trkpt lat="44.09996" lon="3.18651">
        <ele>730.4</ele>
        <time>2019-05-31T10:35:51Z</time>
      </trkpt>
      <trkpt lat="44.1" lon="3.18645">
        <ele>730.5</ele>
        <time>2019-05-31T10:35:53Z</time>
      </trkpt>
      <trkpt lat="44.10002" lon="3.18642">
        <ele>730.7</ele>
        <time>2019-05-31T10:35:54Z</time>
      </trkpt>
      <trkpt lat="44.10004" lon="3.18639">
        <ele>730.8</ele>
        <time>2019-05-31T10:35:55Z</time>
      </trkpt>
      <trkpt lat="44.10006" lon="3.18636">
        <ele>730.9</ele>
        <time>2019-05-31T10:35:56Z</time>
      </trkpt>
      <trkpt lat="44.10008" lon="3.18633">
        <ele>731</ele>
        <time>2019-05-31T10:35:57Z</time>
      </trkpt>
      <trkpt lat="44.1001" lon="3.18627">
        <ele>731.2</ele>
        <time>2019-05-31T10:35:59Z</time>
      </trkpt>
      <trkpt lat="44.10013" lon="3.1862">
        <ele>731.4</ele>
        <time>2019-05-31T10:36:01Z</time>
      </trkpt>
      <trkpt lat="44.10014" lon="3.18617">
        <ele>731.5</ele>
        <time>2019-05-31T10:36:02Z</time>
      </trkpt>
      <trkpt lat="44.10016" lon="3.18612">
        <ele>731.6</ele>
        <time>2019-05-31T10:36:03Z</time>
      </trkpt>
      <trkpt lat="44.10018" lon="3.18608">
        <ele>731.8</ele>
        <time>2019-05-31T10:36:04Z</time>
      </trkpt>
      <trkpt lat="44.10021" lon="3.18603">
        <ele>732</ele>
        <time>2019-05-31T10:36:06Z</time>
      </trkpt>
      <trkpt lat="44.10024" lon="3.18597">
        <ele>732.2</ele>
        <time>2019-05-31T10:36:08Z</time>
      </trkpt>
      <trkpt lat="44.10026" lon="3.18593">
        <ele>732.4</ele>
        <time>2019-05-31T10:36:09Z</time>
      </trkpt>
      <trkpt lat="44.10028" lon="3.1859">
        <ele>732.5</ele>
        <time>2019-05-31T10:36:10Z</time>
      </trkpt>
      <trkpt lat="44.10029" lon="3.18587">
        <ele>732.6</ele>
        <time>2019-05-31T10:36:11Z</time>
      </trkpt>
      <trkpt lat="44.10031" lon="3.18584">
        <ele>732.7</ele>
        <time>2019-05-31T10:36:12Z</time>
      </trkpt>
      <trkpt lat="44.10034" lon="3.18579">
        <ele>732.9</ele>
        <time>2019-05-31T10:36:14Z</time>
      </trkpt>
      <trkpt lat="44.10036" lon="3.18575">
        <ele>733</ele>
        <time>2019-05-31T10:36:15Z</time>
      </trkpt>
      <trkpt lat="44.10038" lon="3.1857">
        <ele>733.2</ele>
        <time>2019-05-31T10:36:17Z</time>
      </trkpt>
      <trkpt lat="44.1004" lon="3.18567">
        <ele>733.3</ele>
        <time>2019-05-31T10:36:18Z</time>
      </trkpt>
      <trkpt lat="44.10043" lon="3.18562">
        <ele>733.6</ele>
        <time>2019-05-31T10:36:20Z</time>
      </trkpt>
      <trkpt lat="44.10046" lon="3.18558">
        <ele>734</ele>
        <time>2019-05-31T10:36:22Z</time>
      </trkpt>
      <trkpt lat="44.1005" lon="3.18554">
        <ele>734.3</ele>
        <time>2019-05-31T10:36:24Z</time>
      </trkpt>
      <trkpt lat="44.10053" lon="3.1855">
        <ele>734.6</ele>
        <time>2019-05-31T10:36:26Z</time>
      </trkpt>
      <trkpt lat="44.10057" lon="3.18548">
        <ele>734.9</ele>
        <time>2019-05-31T10:36:28Z</time>
      </trkpt>
      <trkpt lat="44.10061" lon="3.18546">
        <ele>735.2</ele>
        <time>2019-05-31T10:36:30Z</time>
      </trkpt>
      <trkpt lat="44.10065" lon="3.18549">
        <ele>735.6</ele>
        <time>2019-05-31T10:36:36Z</time>
      </trkpt>
      <trkpt lat="44.10068" lon="3.18555">
        <ele>736.1</ele>
        <time>2019-05-31T10:36:38Z</time>
      </trkpt>
      <trkpt lat="44.1007" lon="3.18561">
        <ele>736.6</ele>
        <time>2019-05-31T10:36:40Z</time>
      </trkpt>
      <trkpt lat="44.10071" lon="3.18565">
        <ele>737</ele>
        <time>2019-05-31T10:36:42Z</time>
      </trkpt>
      <trkpt lat="44.10071" lon="3.1857">
        <ele>737.3</ele>
        <time>2019-05-31T10:36:44Z</time>
      </trkpt>
      <trkpt lat="44.10071" lon="3.18575">
        <ele>737.6</ele>
        <time>2019-05-31T10:36:46Z</time>
      </trkpt>
      <trkpt lat="44.10071" lon="3.18582">
        <ele>738</ele>
        <time>2019-05-31T10:36:48Z</time>
      </trkpt>
      <trkpt lat="44.10073" lon="3.18588">
        <ele>738.3</ele>
        <time>2019-05-31T10:36:50Z</time>
      </trkpt>
      <trkpt lat="44.10075" lon="3.18592">
        <ele>738.6</ele>
        <time>2019-05-31T10:36:52Z</time>
      </trkpt>
      <trkpt lat="44.10077" lon="3.18597">
        <ele>738.8</ele>
        <time>2019-05-31T10:36:54Z</time>
      </trkpt>
      <trkpt lat="44.10079" lon="3.18601">
        <ele>739</ele>
        <time>2019-05-31T10:36:56Z</time>
      </trkpt>
      <trkpt lat="44.10081" lon="3.18607">
        <ele>739.2</ele>
        <time>2019-05-31T10:36:58Z</time>
      </trkpt>
      <trkpt lat="44.10082" lon="3.18611">
        <ele>739.4</ele>
        <time>2019-05-31T10:37:01Z</time>
      </trkpt>
      <trkpt lat="44.10083" lon="3.18616">
        <ele>739.6</ele>
        <time>2019-05-31T10:37:04Z</time>
      </trkpt>
      <trkpt lat="44.10086" lon="3.1862">
        <ele>739.8</ele>
        <time>2019-05-31T10:37:06Z</time>
      </trkpt>
      <trkpt lat="44.10089" lon="3.18622">
        <ele>740</ele>
        <time>2019-05-31T10:37:08Z</time>
      </trkpt>
      <trkpt lat="44.10092" lon="3.18623">
        <ele>740.2</ele>
        <time>2019-05-31T10:37:10Z</time>
      </trkpt>
      <trkpt lat="44.10096" lon="3.18622">
        <ele>740.5</ele>
        <time>2019-05-31T10:37:12Z</time>
      </trkpt>
      <trkpt lat="44.101" lon="3.18621">
        <ele>740.6</ele>
        <time>2019-05-31T10:37:14Z</time>
      </trkpt>
      <trkpt lat="44.10104" lon="3.18623">
        <ele>740.8</ele>
        <time>2019-05-31T10:37:16Z</time>
      </trkpt>
      <trkpt lat="44.10108" lon="3.18626">
        <ele>741</ele>
        <time>2019-05-31T10:37:18Z</time>
      </trkpt>
      <trkpt lat="44.1011" lon="3.18629">
        <ele>741.1</ele>
        <time>2019-05-31T10:37:20Z</time>
      </trkpt>
      <trkpt lat="44.10113" lon="3.18634">
        <ele>741.3</ele>
        <time>2019-05-31T10:37:22Z</time>
      </trkpt>
      <trkpt lat="44.10114" lon="3.1864">
        <ele>741.5</ele>
        <time>2019-05-31T10:37:24Z</time>
      </trkpt>
      <trkpt lat="44.10115" lon="3.18646">
        <ele>741.6</ele>
        <time>2019-05-31T10:37:26Z</time>
      </trkpt>
      <trkpt lat="44.10116" lon="3.18649">
        <ele>741.8</ele>
        <time>2019-05-31T10:37:28Z</time>
      </trkpt>
      <trkpt lat="44.10118" lon="3.18653">
        <ele>741.9</ele>
        <time>2019-05-31T10:37:30Z</time>
      </trkpt>
      <trkpt lat="44.1012" lon="3.18657">
        <ele>742</ele>
        <time>2019-05-31T10:37:32Z</time>
      </trkpt>
      <trkpt lat="44.10122" lon="3.18663">
        <ele>742.1</ele>
        <time>2019-05-31T10:37:34Z</time>
      </trkpt>
      <trkpt lat="44.10123" lon="3.1867">
        <ele>742.3</ele>
        <time>2019-05-31T10:37:36Z</time>
      </trkpt>
      <trkpt lat="44.10123" lon="3.18678">
        <ele>742.4</ele>
        <time>2019-05-31T10:37:38Z</time>
      </trkpt>
      <trkpt lat="44.10124" lon="3.18682">
        <ele>742.4</ele>
        <time>2019-05-31T10:37:39Z</time>
      </trkpt>
      <trkpt lat="44.10125" lon="3.18686">
        <ele>742.4</ele>
        <time>2019-05-31T10:37:40Z</time>
      </trkpt>
      <trkpt lat="44.10126" lon="3.1869">
        <ele>742.4</ele>
        <time>2019-05-31T10:37:41Z</time>
      </trkpt>
      <trkpt lat="44.10127" lon="3.18694">
        <ele>742.4</ele>
        <time>2019-05-31T10:37:42Z</time>
      </trkpt>
      <trkpt lat="44.10128" lon="3.18699">
        <ele>742.4</ele>
        <time>2019-05-31T10:37:43Z</time>
      </trkpt>
      <trkpt lat="44.10129" lon="3.18703">
        <ele>742.4</ele>
        <time>2019-05-31T10:37:44Z</time>
      </trkpt>
      <trkpt lat="44.1013" lon="3.18708">
        <ele>742.4</ele>
        <time>2019-05-31T10:37:45Z</time>
      </trkpt>
      <trkpt lat="44.10132" lon="3.18713">
        <ele>742.3</ele>
        <time>2019-05-31T10:37:46Z</time>
      </trkpt>
      <trkpt lat="44.10133" lon="3.18717">
        <ele>742.3</ele>
        <time>2019-05-31T10:37:47Z</time>
      </trkpt>
      <trkpt lat="44.10136" lon="3.18722">
        <ele>742.2</ele>
        <time>2019-05-31T10:37:48Z</time>
      </trkpt>
      <trkpt lat="44.10139" lon="3.18726">
        <ele>742.2</ele>
        <time>2019-05-31T10:37:49Z</time>
      </trkpt>
      <trkpt lat="44.10142" lon="3.18728">
        <ele>742.1</ele>
        <time>2019-05-31T10:37:50Z</time>
      </trkpt>
      <trkpt lat="44.10145" lon="3.18732">
        <ele>742</ele>
        <time>2019-05-31T10:37:51Z</time>
      </trkpt>
      <trkpt lat="44.10148" lon="3.18735">
        <ele>741.9</ele>
        <time>2019-05-31T10:37:52Z</time>
      </trkpt>
      <trkpt lat="44.1015" lon="3.18738">
        <ele>741.8</ele>
        <time>2019-05-31T10:37:53Z</time>
      </trkpt>
      <trkpt lat="44.10152" lon="3.18742">
        <ele>741.7</ele>
        <time>2019-05-31T10:37:54Z</time>
      </trkpt>
      <trkpt lat="44.10154" lon="3.18746">
        <ele>741.6</ele>
        <time>2019-05-31T10:37:55Z</time>
      </trkpt>
      <trkpt lat="44.10156" lon="3.1875">
        <ele>741.5</ele>
        <time>2019-05-31T10:37:56Z</time>
      </trkpt>
      <trkpt lat="44.10159" lon="3.18754">
        <ele>741.5</ele>
        <time>2019-05-31T10:37:57Z</time>
      </trkpt>
      <trkpt lat="44.10163" lon="3.18756">
        <ele>741.4</ele>
        <time>2019-05-31T10:37:58Z</time>
      </trkpt>
      <trkpt lat="44.10166" lon="3.18758">
        <ele>741.3</ele>
        <time>2019-05-31T10:37:59Z</time>
      </trkpt>
      <trkpt lat="44.10169" lon="3.1876">
        <ele>741.2</ele>
        <time>2019-05-31T10:38:00Z</time>
      </trkpt>
      <trkpt lat="44.10172" lon="3.18761">
        <ele>741.3</ele>
        <time>2019-05-31T10:38:01Z</time>
      </trkpt>
      <trkpt lat="44.10175" lon="3.18762">
        <ele>741.5</ele>
        <time>2019-05-31T10:38:02Z</time>
      </trkpt>
      <trkpt lat="44.10177" lon="3.18762">
        <ele>741.6</ele>
        <time>2019-05-31T10:38:03Z</time>
      </trkpt>
      <trkpt lat="44.10183" lon="3.18761">
        <ele>741.7</ele>
        <time>2019-05-31T10:38:05Z</time>
      </trkpt>
      <trkpt lat="44.10188" lon="3.18762">
        <ele>741.9</ele>
        <time>2019-05-31T10:38:07Z</time>
      </trkpt>
      <trkpt lat="44.10191" lon="3.18763">
        <ele>742</ele>
        <time>2019-05-31T10:38:08Z</time>
      </trkpt>
      <trkpt lat="44.10195" lon="3.18763">
        <ele>742.2</ele>
        <time>2019-05-31T10:38:10Z</time>
      </trkpt>
      <trkpt lat="44.102" lon="3.18763">
        <ele>742.5</ele>
        <time>2019-05-31T10:38:12Z</time>
      </trkpt>
      <trkpt lat="44.10203" lon="3.18763">
        <ele>742.6</ele>
        <time>2019-05-31T10:38:13Z</time>
      </trkpt>
      <trkpt lat="44.10206" lon="3.18764">
        <ele>742.7</ele>
        <time>2019-05-31T10:38:14Z</time>
      </trkpt>
      <trkpt lat="44.10209" lon="3.18764">
        <ele>742.8</ele>
        <time>2019-05-31T10:38:15Z</time>
      </trkpt>
      <trkpt lat="44.10214" lon="3.18764">
        <ele>742.9</ele>
        <time>2019-05-31T10:38:17Z</time>
      </trkpt>
      <trkpt lat="44.10217" lon="3.18765">
        <ele>742.9</ele>
        <time>2019-05-31T10:38:18Z</time>
      </trkpt>
      <trkpt lat="44.10221" lon="3.18764">
        <ele>743</ele>
        <time>2019-05-31T10:38:20Z</time>
      </trkpt>
      <trkpt lat="44.10224" lon="3.18762">
        <ele>743.1</ele>
        <time>2019-05-31T10:38:21Z</time>
      </trkpt>
      <trkpt lat="44.10228" lon="3.1876">
        <ele>742.9</ele>
        <time>2019-05-31T10:38:22Z</time>
      </trkpt>
      <trkpt lat="44.10231" lon="3.18758">
        <ele>742.6</ele>
        <time>2019-05-31T10:38:23Z</time>
      </trkpt>
      <trkpt lat="44.10234" lon="3.18756">
        <ele>742.6</ele>
        <time>2019-05-31T10:38:24Z</time>
      </trkpt>
      <trkpt lat="44.10239" lon="3.18754">
        <ele>742.4</ele>
        <time>2019-05-31T10:38:26Z</time>
      </trkpt>
      <trkpt lat="44.10242" lon="3.18752">
        <ele>742</ele>
        <time>2019-05-31T10:38:27Z</time>
      </trkpt>
      <trkpt lat="44.10247" lon="3.1875">
        <ele>741.5</ele>
        <time>2019-05-31T10:38:28Z</time>
      </trkpt>
      <trkpt lat="44.10251" lon="3.18749">
        <ele>741</ele>
        <time>2019-05-31T10:38:29Z</time>
      </trkpt>
      <trkpt lat="44.10254" lon="3.18747">
        <ele>740.7</ele>
        <time>2019-05-31T10:38:30Z</time>
      </trkpt>
      <trkpt lat="44.10257" lon="3.18747">
        <ele>740.5</ele>
        <time>2019-05-31T10:38:31Z</time>
      </trkpt>
      <trkpt lat="44.10261" lon="3.18747">
        <ele>740.3</ele>
        <time>2019-05-31T10:38:32Z</time>
      </trkpt>
      <trkpt lat="44.10266" lon="3.18747">
        <ele>740.1</ele>
        <time>2019-05-31T10:38:33Z</time>
      </trkpt>
      <trkpt lat="44.1027" lon="3.18747">
        <ele>739.9</ele>
        <time>2019-05-31T10:38:34Z</time>
      </trkpt>
      <trkpt lat="44.10273" lon="3.18748">
        <ele>739.7</ele>
        <time>2019-05-31T10:38:35Z</time>
      </trkpt>
      <trkpt lat="44.10278" lon="3.1875">
        <ele>739.5</ele>
        <time>2019-05-31T10:38:37Z</time>
      </trkpt>
      <trkpt lat="44.10281" lon="3.18751">
        <ele>739.4</ele>
        <time>2019-05-31T10:38:38Z</time>
      </trkpt>
      <trkpt lat="44.10285" lon="3.18752">
        <ele>739.3</ele>
        <time>2019-05-31T10:38:39Z</time>
      </trkpt>
      <trkpt lat="44.10288" lon="3.18752">
        <ele>739.2</ele>
        <time>2019-05-31T10:38:40Z</time>
      </trkpt>
      <trkpt lat="44.10292" lon="3.18751">
        <ele>739.1</ele>
        <time>2019-05-31T10:38:41Z</time>
      </trkpt>
      <trkpt lat="44.10296" lon="3.18749">
        <ele>739</ele>
        <time>2019-05-31T10:38:42Z</time>
      </trkpt>
      <trkpt lat="44.10301" lon="3.18748">
        <ele>739</ele>
        <time>2019-05-31T10:38:43Z</time>
      </trkpt>
      <trkpt lat="44.10305" lon="3.18748">
        <ele>739</ele>
        <time>2019-05-31T10:38:44Z</time>
      </trkpt>
      <trkpt lat="44.10308" lon="3.18748">
        <ele>739</ele>
        <time>2019-05-31T10:38:45Z</time>
      </trkpt>
      <trkpt lat="44.10313" lon="3.18749">
        <ele>739</ele>
        <time>2019-05-31T10:38:47Z</time>
      </trkpt>
      <trkpt lat="44.10317" lon="3.18749">
        <ele>739</ele>
        <time>2019-05-31T10:38:49Z</time>
      </trkpt>
      <trkpt lat="44.10327" lon="3.18752">
        <ele>739.1</ele>
        <time>2019-05-31T10:38:51Z</time>
      </trkpt>
      <trkpt lat="44.10334" lon="3.18752">
        <ele>739.1</ele>
        <time>2019-05-31T10:38:52Z</time>
      </trkpt>
      <trkpt lat="44.10341" lon="3.18752">
        <ele>739.1</ele>
        <time>2019-05-31T10:38:53Z</time>
      </trkpt>
      <trkpt lat="44.10345" lon="3.18752">
        <ele>739.1</ele>
        <time>2019-05-31T10:38:54Z</time>
      </trkpt>
      <trkpt lat="44.10349" lon="3.18754">
        <ele>739.1</ele>
        <time>2019-05-31T10:38:55Z</time>
      </trkpt>
      <trkpt lat="44.10353" lon="3.18755">
        <ele>739.1</ele>
        <time>2019-05-31T10:38:56Z</time>
      </trkpt>
      <trkpt lat="44.10357" lon="3.18757">
        <ele>739.1</ele>
        <time>2019-05-31T10:38:57Z</time>
      </trkpt>
      <trkpt lat="44.10365" lon="3.18756">
        <ele>739.3</ele>
        <time>2019-05-31T10:38:59Z</time>
      </trkpt>
      <trkpt lat="44.10369" lon="3.18758">
        <ele>739.3</ele>
        <time>2019-05-31T10:39:00Z</time>
      </trkpt>
      <trkpt lat="44.10374" lon="3.18757">
        <ele>739.4</ele>
        <time>2019-05-31T10:39:01Z</time>
      </trkpt>
      <trkpt lat="44.10384" lon="3.18756">
        <ele>739.6</ele>
        <time>2019-05-31T10:39:02Z</time>
      </trkpt>
      <trkpt lat="44.10387" lon="3.18757">
        <ele>739.8</ele>
        <time>2019-05-31T10:39:03Z</time>
      </trkpt>
      <trkpt lat="44.10391" lon="3.18759">
        <ele>739.9</ele>
        <time>2019-05-31T10:39:04Z</time>
      </trkpt>
      <trkpt lat="44.10397" lon="3.18756">
        <ele>740.2</ele>
        <time>2019-05-31T10:39:05Z</time>
      </trkpt>
      <trkpt lat="44.10401" lon="3.18756">
        <ele>740.4</ele>
        <time>2019-05-31T10:39:06Z</time>
      </trkpt>
      <trkpt lat="44.10405" lon="3.18756">
        <ele>740.7</ele>
        <time>2019-05-31T10:39:07Z</time>
      </trkpt>
      <trkpt lat="44.10409" lon="3.18756">
        <ele>740.9</ele>
        <time>2019-05-31T10:39:08Z</time>
      </trkpt>
      <trkpt lat="44.10412" lon="3.18757">
        <ele>741.1</ele>
        <time>2019-05-31T10:39:09Z</time>
      </trkpt>
      <trkpt lat="44.10415" lon="3.18756">
        <ele>741.3</ele>
        <time>2019-05-31T10:39:10Z</time>
      </trkpt>
      <trkpt lat="44.10419" lon="3.18756">
        <ele>741.5</ele>
        <time>2019-05-31T10:39:11Z</time>
      </trkpt>
      <trkpt lat="44.10423" lon="3.18757">
        <ele>741.8</ele>
        <time>2019-05-31T10:39:12Z</time>
      </trkpt>
      <trkpt lat="44.10427" lon="3.18758">
        <ele>742.1</ele>
        <time>2019-05-31T10:39:13Z</time>
      </trkpt>
      <trkpt lat="44.1043" lon="3.18759">
        <ele>742.4</ele>
        <time>2019-05-31T10:39:14Z</time>
      </trkpt>
      <trkpt lat="44.10433" lon="3.1876">
        <ele>742.6</ele>
        <time>2019-05-31T10:39:15Z</time>
      </trkpt>
      <trkpt lat="44.10439" lon="3.18758">
        <ele>743</ele>
        <time>2019-05-31T10:39:17Z</time>
      </trkpt>
      <trkpt lat="44.10443" lon="3.18756">
        <ele>743.4</ele>
        <time>2019-05-31T10:39:19Z</time>
      </trkpt>
      <trkpt lat="44.10446" lon="3.18754">
        <ele>743.6</ele>
        <time>2019-05-31T10:39:20Z</time>
      </trkpt>
      <trkpt lat="44.10451" lon="3.18753">
        <ele>743.8</ele>
        <time>2019-05-31T10:39:21Z</time>
      </trkpt>
      <trkpt lat="44.10456" lon="3.18752">
        <ele>744</ele>
        <time>2019-05-31T10:39:22Z</time>
      </trkpt>
      <trkpt lat="44.10465" lon="3.18751">
        <ele>743.6</ele>
        <time>2019-05-31T10:39:23Z</time>
      </trkpt>
      <trkpt lat="44.1047" lon="3.18749">
        <ele>743.8</ele>
        <time>2019-05-31T10:39:24Z</time>
      </trkpt>
      <trkpt lat="44.10475" lon="3.18746">
        <ele>744.1</ele>
        <time>2019-05-31T10:39:25Z</time>
      </trkpt>
      <trkpt lat="44.10478" lon="3.18748">
        <ele>744.2</ele>
        <time>2019-05-31T10:39:26Z</time>
      </trkpt>
      <trkpt lat="44.10482" lon="3.1875">
        <ele>744.3</ele>
        <time>2019-05-31T10:39:28Z</time>
      </trkpt>
      <trkpt lat="44.10488" lon="3.1875">
        <ele>744.1</ele>
        <time>2019-05-31T10:39:29Z</time>
      </trkpt>
      <trkpt lat="44.10492" lon="3.1875">
        <ele>744.2</ele>
        <time>2019-05-31T10:39:30Z</time>
      </trkpt>
      <trkpt lat="44.10498" lon="3.18749">
        <ele>744.6</ele>
        <time>2019-05-31T10:39:31Z</time>
      </trkpt>
      <trkpt lat="44.10503" lon="3.18749">
        <ele>745.1</ele>
        <time>2019-05-31T10:39:32Z</time>
      </trkpt>
      <trkpt lat="44.10508" lon="3.1875">
        <ele>745.5</ele>
        <time>2019-05-31T10:39:33Z</time>
      </trkpt>
      <trkpt lat="44.10514" lon="3.18752">
        <ele>745.6</ele>
        <time>2019-05-31T10:39:34Z</time>
      </trkpt>
      <trkpt lat="44.10521" lon="3.18749">
        <ele>746.1</ele>
        <time>2019-05-31T10:39:35Z</time>
      </trkpt>
      <trkpt lat="44.10525" lon="3.1875">
        <ele>746.3</ele>
        <time>2019-05-31T10:39:36Z</time>
      </trkpt>
      <trkpt lat="44.10531" lon="3.18753">
        <ele>746.3</ele>
        <time>2019-05-31T10:39:37Z</time>
      </trkpt>
      <trkpt lat="44.10536" lon="3.18753">
        <ele>746.4</ele>
        <time>2019-05-31T10:39:38Z</time>
      </trkpt>
      <trkpt lat="44.10541" lon="3.18755">
        <ele>746.6</ele>
        <time>2019-05-31T10:39:39Z</time>
      </trkpt>
      <trkpt lat="44.10544" lon="3.18757">
        <ele>746.6</ele>
        <time>2019-05-31T10:39:40Z</time>
      </trkpt>
      <trkpt lat="44.10549" lon="3.18759">
        <ele>746.5</ele>
        <time>2019-05-31T10:39:41Z</time>
      </trkpt>
      <trkpt lat="44.10553" lon="3.1876">
        <ele>746.4</ele>
        <time>2019-05-31T10:39:42Z</time>
      </trkpt>
      <trkpt lat="44.10556" lon="3.1876">
        <ele>746.4</ele>
        <time>2019-05-31T10:39:43Z</time>
      </trkpt>
      <trkpt lat="44.1056" lon="3.18762">
        <ele>746.4</ele>
        <time>2019-05-31T10:39:44Z</time>
      </trkpt>
      <trkpt lat="44.10564" lon="3.18765">
        <ele>746.5</ele>
        <time>2019-05-31T10:39:46Z</time>
      </trkpt>
      <trkpt lat="44.10567" lon="3.18767">
        <ele>746.5</ele>
        <time>2019-05-31T10:39:47Z</time>
      </trkpt>
      <trkpt lat="44.10572" lon="3.18768">
        <ele>746.4</ele>
        <time>2019-05-31T10:39:48Z</time>
      </trkpt>
      <trkpt lat="44.10576" lon="3.18768">
        <ele>746.4</ele>
        <time>2019-05-31T10:39:49Z</time>
      </trkpt>
      <trkpt lat="44.10581" lon="3.18768">
        <ele>746.6</ele>
        <time>2019-05-31T10:39:50Z</time>
      </trkpt>
      <trkpt lat="44.10585" lon="3.18767">
        <ele>746.7</ele>
        <time>2019-05-31T10:39:51Z</time>
      </trkpt>
      <trkpt lat="44.1059" lon="3.18766">
        <ele>746.7</ele>
        <time>2019-05-31T10:39:52Z</time>
      </trkpt>
      <trkpt lat="44.10595" lon="3.18765">
        <ele>746.6</ele>
        <time>2019-05-31T10:39:53Z</time>
      </trkpt>
      <trkpt lat="44.10599" lon="3.18765">
        <ele>746.5</ele>
        <time>2019-05-31T10:39:54Z</time>
      </trkpt>
      <trkpt lat="44.10603" lon="3.18765">
        <ele>746.6</ele>
        <time>2019-05-31T10:39:55Z</time>
      </trkpt>
      <trkpt lat="44.10607" lon="3.18765">
        <ele>746.7</ele>
        <time>2019-05-31T10:39:56Z</time>
      </trkpt>
      <trkpt lat="44.10611" lon="3.18766">
        <ele>747</ele>
        <time>2019-05-31T10:39:57Z</time>
      </trkpt>
      <trkpt lat="44.10614" lon="3.18767">
        <ele>747.2</ele>
        <time>2019-05-31T10:39:58Z</time>
      </trkpt>
      <trkpt lat="44.10618" lon="3.18769">
        <ele>747.5</ele>
        <time>2019-05-31T10:39:59Z</time>
      </trkpt>
      <trkpt lat="44.10621" lon="3.18771">
        <ele>747.7</ele>
        <time>2019-05-31T10:40:00Z</time>
      </trkpt>
      <trkpt lat="44.10624" lon="3.18773">
        <ele>748</ele>
        <time>2019-05-31T10:40:01Z</time>
      </trkpt>
      <trkpt lat="44.10627" lon="3.18775">
        <ele>748.4</ele>
        <time>2019-05-31T10:40:02Z</time>
      </trkpt>
      <trkpt lat="44.10631" lon="3.18777">
        <ele>748.7</ele>
        <time>2019-05-31T10:40:03Z</time>
      </trkpt>
      <trkpt lat="44.10635" lon="3.18777">
        <ele>748.9</ele>
        <time>2019-05-31T10:40:04Z</time>
      </trkpt>
      <trkpt lat="44.10639" lon="3.18778">
        <ele>749.2</ele>
        <time>2019-05-31T10:40:05Z</time>
      </trkpt>
      <trkpt lat="44.10644" lon="3.18777">
        <ele>749.8</ele>
        <time>2019-05-31T10:40:06Z</time>
      </trkpt>
      <trkpt lat="44.10653" lon="3.1877">
        <ele>750.8</ele>
        <time>2019-05-31T10:40:07Z</time>
      </trkpt>
      <trkpt lat="44.10655" lon="3.18761">
        <ele>750.8</ele>
        <time>2019-05-31T10:40:09Z</time>
      </trkpt>
      <trkpt lat="44.10653" lon="3.18756">
        <ele>750.7</ele>
        <time>2019-05-31T10:40:10Z</time>
      </trkpt>
      <trkpt lat="44.10656" lon="3.18751">
        <ele>750.7</ele>
        <time>2019-05-31T10:40:12Z</time>
      </trkpt>
      <trkpt lat="44.10655" lon="3.18746">
        <ele>750.9</ele>
        <time>2019-05-31T10:40:14Z</time>
      </trkpt>
      <trkpt lat="44.10659" lon="3.18739">
        <ele>751.3</ele>
        <time>2019-05-31T10:40:16Z</time>
      </trkpt>
      <trkpt lat="44.10659" lon="3.18735">
        <ele>751.3</ele>
        <time>2019-05-31T10:40:17Z</time>
      </trkpt>
      <trkpt lat="44.1066" lon="3.1873">
        <ele>751.5</ele>
        <time>2019-05-31T10:40:19Z</time>
      </trkpt>
      <trkpt lat="44.10662" lon="3.18724">
        <ele>751.9</ele>
        <time>2019-05-31T10:40:21Z</time>
      </trkpt>
      <trkpt lat="44.10663" lon="3.18719">
        <ele>752.2</ele>
        <time>2019-05-31T10:40:23Z</time>
      </trkpt>
      <trkpt lat="44.10664" lon="3.18715">
        <ele>752.5</ele>
        <time>2019-05-31T10:40:26Z</time>
      </trkpt>
      <trkpt lat="44.10665" lon="3.1871">
        <ele>752.9</ele>
        <time>2019-05-31T10:40:28Z</time>
      </trkpt>
      <trkpt lat="44.10666" lon="3.18704">
        <ele>753.7</ele>
        <time>2019-05-31T10:40:30Z</time>
      </trkpt>
      <trkpt lat="44.10667" lon="3.18697">
        <ele>754.7</ele>
        <time>2019-05-31T10:40:32Z</time>
      </trkpt>
      <trkpt lat="44.10666" lon="3.18693">
        <ele>755.2</ele>
        <time>2019-05-31T10:40:34Z</time>
      </trkpt>
      <trkpt lat="44.10667" lon="3.18688">
        <ele>755.6</ele>
        <time>2019-05-31T10:40:36Z</time>
      </trkpt>
      <trkpt lat="44.10668" lon="3.18681">
        <ele>756.3</ele>
        <time>2019-05-31T10:40:38Z</time>
      </trkpt>
      <trkpt lat="44.10668" lon="3.18675">
        <ele>757</ele>
        <time>2019-05-31T10:40:40Z</time>
      </trkpt>
      <trkpt lat="44.10668" lon="3.18669">
        <ele>757.5</ele>
        <time>2019-05-31T10:40:42Z</time>
      </trkpt>
      <trkpt lat="44.10667" lon="3.18663">
        <ele>758</ele>
        <time>2019-05-31T10:40:44Z</time>
      </trkpt>
      <trkpt lat="44.10667" lon="3.1866">
        <ele>758.4</ele>
        <time>2019-05-31T10:40:45Z</time>
      </trkpt>
      <trkpt lat="44.10665" lon="3.18654">
        <ele>759</ele>
        <time>2019-05-31T10:40:47Z</time>
      </trkpt>
      <trkpt lat="44.10664" lon="3.18648">
        <ele>759.6</ele>
        <time>2019-05-31T10:40:49Z</time>
      </trkpt>
      <trkpt lat="44.10663" lon="3.18642">
        <ele>760.1</ele>
        <time>2019-05-31T10:40:51Z</time>
      </trkpt>
      <trkpt lat="44.10661" lon="3.18637">
        <ele>760.2</ele>
        <time>2019-05-31T10:40:53Z</time>
      </trkpt>
      <trkpt lat="44.10658" lon="3.18631">
        <ele>760.3</ele>
        <time>2019-05-31T10:40:55Z</time>
      </trkpt>
      <trkpt lat="44.10655" lon="3.18626">
        <ele>760.4</ele>
        <time>2019-05-31T10:40:57Z</time>
      </trkpt>
      <trkpt lat="44.10652" lon="3.1862">
        <ele>760.6</ele>
        <time>2019-05-31T10:40:59Z</time>
      </trkpt>
      <trkpt lat="44.10649" lon="3.18614">
        <ele>760.5</ele>
        <time>2019-05-31T10:41:01Z</time>
      </trkpt>
      <trkpt lat="44.10648" lon="3.18609">
        <ele>760.6</ele>
        <time>2019-05-31T10:41:03Z</time>
      </trkpt>
      <trkpt lat="44.10646" lon="3.18603">
        <ele>760.9</ele>
        <time>2019-05-31T10:41:05Z</time>
      </trkpt>
      <trkpt lat="44.10645" lon="3.18599">
        <ele>761</ele>
        <time>2019-05-31T10:41:07Z</time>
      </trkpt>
      <trkpt lat="44.10644" lon="3.18595">
        <ele>761.1</ele>
        <time>2019-05-31T10:41:09Z</time>
      </trkpt>
      <trkpt lat="44.10644" lon="3.18591">
        <ele>761.1</ele>
        <time>2019-05-31T10:41:11Z</time>
      </trkpt>
      <trkpt lat="44.10643" lon="3.18587">
        <ele>761.2</ele>
        <time>2019-05-31T10:41:13Z</time>
      </trkpt>
      <trkpt lat="44.10642" lon="3.18582">
        <ele>761.4</ele>
        <time>2019-05-31T10:41:15Z</time>
      </trkpt>
      <trkpt lat="44.10642" lon="3.18578">
        <ele>761.5</ele>
        <time>2019-05-31T10:41:19Z</time>
      </trkpt>
      <trkpt lat="44.10641" lon="3.18575">
        <ele>761.5</ele>
        <time>2019-05-31T10:42:08Z</time>
      </trkpt>
      <trkpt lat="44.10638" lon="3.18574">
        <ele>761.4</ele>
        <time>2019-05-31T10:47:04Z</time>
      </trkpt>
      <trkpt lat="44.10636" lon="3.18571">
        <ele>761.4</ele>
        <time>2019-05-31T11:03:55Z</time>
      </trkpt>
      <trkpt lat="44.10634" lon="3.18568">
        <ele>761.5</ele>
        <time>2019-05-31T11:03:57Z</time>
      </trkpt>
      <trkpt lat="44.10633" lon="3.18562">
        <ele>761.6</ele>
        <time>2019-05-31T11:03:59Z</time>
      </trkpt>
      <trkpt lat="44.10631" lon="3.18558">
        <ele>761.8</ele>
        <time>2019-05-31T11:04:01Z</time>
      </trkpt>
      <trkpt lat="44.10628" lon="3.18553">
        <ele>761.9</ele>
        <time>2019-05-31T11:04:03Z</time>
      </trkpt>
      <trkpt lat="44.10626" lon="3.18548">
        <ele>762.1</ele>
        <time>2019-05-31T11:04:05Z</time>
      </trkpt>
      <trkpt lat="44.10623" lon="3.18544">
        <ele>762.2</ele>
        <time>2019-05-31T11:04:07Z</time>
      </trkpt>
      <trkpt lat="44.1062" lon="3.1854">
        <ele>762.3</ele>
        <time>2019-05-31T11:04:09Z</time>
      </trkpt>
      <trkpt lat="44.10617" lon="3.18535">
        <ele>762.2</ele>
        <time>2019-05-31T11:04:11Z</time>
      </trkpt>
      <trkpt lat="44.10613" lon="3.1853">
        <ele>762.1</ele>
        <time>2019-05-31T11:04:13Z</time>
      </trkpt>
      <trkpt lat="44.10611" lon="3.18526">
        <ele>762.2</ele>
        <time>2019-05-31T11:04:15Z</time>
      </trkpt>
      <trkpt lat="44.10609" lon="3.18521">
        <ele>762.4</ele>
        <time>2019-05-31T11:04:17Z</time>
      </trkpt>
      <trkpt lat="44.10607" lon="3.18514">
        <ele>762.8</ele>
        <time>2019-05-31T11:04:19Z</time>
      </trkpt>
      <trkpt lat="44.10606" lon="3.18509">
        <ele>763.2</ele>
        <time>2019-05-31T11:04:21Z</time>
      </trkpt>
      <trkpt lat="44.10606" lon="3.18503">
        <ele>763.7</ele>
        <time>2019-05-31T11:04:23Z</time>
      </trkpt>
      <trkpt lat="44.10607" lon="3.18497">
        <ele>764.2</ele>
        <time>2019-05-31T11:04:25Z</time>
      </trkpt>
      <trkpt lat="44.1061" lon="3.18492">
        <ele>764.6</ele>
        <time>2019-05-31T11:04:27Z</time>
      </trkpt>
      <trkpt lat="44.10613" lon="3.18488">
        <ele>764.9</ele>
        <time>2019-05-31T11:04:29Z</time>
      </trkpt>
      <trkpt lat="44.10616" lon="3.18483">
        <ele>765.3</ele>
        <time>2019-05-31T11:04:31Z</time>
      </trkpt>
      <trkpt lat="44.10619" lon="3.18479">
        <ele>765.7</ele>
        <time>2019-05-31T11:04:33Z</time>
      </trkpt>
      <trkpt lat="44.10622" lon="3.18476">
        <ele>766.1</ele>
        <time>2019-05-31T11:04:35Z</time>
      </trkpt>
      <trkpt lat="44.10626" lon="3.18474">
        <ele>766.5</ele>
        <time>2019-05-31T11:04:37Z</time>
      </trkpt>
      <trkpt lat="44.1063" lon="3.18472">
        <ele>766.8</ele>
        <time>2019-05-31T11:04:39Z</time>
      </trkpt>
      <trkpt lat="44.10635" lon="3.18469">
        <ele>767.2</ele>
        <time>2019-05-31T11:04:41Z</time>
      </trkpt>
      <trkpt lat="44.10639" lon="3.18467">
        <ele>767.7</ele>
        <time>2019-05-31T11:04:43Z</time>
      </trkpt>
      <trkpt lat="44.10643" lon="3.18465">
        <ele>768.2</ele>
        <time>2019-05-31T11:04:45Z</time>
      </trkpt>
      <trkpt lat="44.10646" lon="3.18462">
        <ele>768.5</ele>
        <time>2019-05-31T11:04:47Z</time>
      </trkpt>
      <trkpt lat="44.1065" lon="3.18458">
        <ele>768.7</ele>
        <time>2019-05-31T11:04:49Z</time>
      </trkpt>
      <trkpt lat="44.10653" lon="3.18456">
        <ele>768.8</ele>
        <time>2019-05-31T11:04:51Z</time>
      </trkpt>
      <trkpt lat="44.10657" lon="3.18451">
        <ele>769</ele>
        <time>2019-05-31T11:04:53Z</time>
      </trkpt>
      <trkpt lat="44.10659" lon="3.18448">
        <ele>769</ele>
        <time>2019-05-31T11:04:54Z</time>
      </trkpt>
      <trkpt lat="44.10662" lon="3.18445">
        <ele>769.1</ele>
        <time>2019-05-31T11:04:55Z</time>
      </trkpt>
      <trkpt lat="44.10666" lon="3.1844">
        <ele>769.3</ele>
        <time>2019-05-31T11:04:57Z</time>
      </trkpt>
      <trkpt lat="44.10668" lon="3.18437">
        <ele>769.4</ele>
        <time>2019-05-31T11:04:58Z</time>
      </trkpt>
      <trkpt lat="44.10671" lon="3.18432">
        <ele>769.6</ele>
        <time>2019-05-31T11:05:00Z</time>
      </trkpt>
      <trkpt lat="44.10675" lon="3.18428">
        <ele>769.5</ele>
        <time>2019-05-31T11:05:02Z</time>
      </trkpt>
      <trkpt lat="44.10678" lon="3.18425">
        <ele>769.5</ele>
        <time>2019-05-31T11:05:04Z</time>
      </trkpt>
      <trkpt lat="44.10681" lon="3.18421">
        <ele>769.4</ele>
        <time>2019-05-31T11:05:06Z</time>
      </trkpt>
      <trkpt lat="44.10684" lon="3.18417">
        <ele>769.4</ele>
        <time>2019-05-31T11:05:08Z</time>
      </trkpt>
      <trkpt lat="44.10687" lon="3.18412">
        <ele>769.3</ele>
        <time>2019-05-31T11:05:10Z</time>
      </trkpt>
      <trkpt lat="44.10691" lon="3.18407">
        <ele>769.2</ele>
        <time>2019-05-31T11:05:12Z</time>
      </trkpt>
      <trkpt lat="44.10693" lon="3.18404">
        <ele>769.2</ele>
        <time>2019-05-31T11:05:13Z</time>
      </trkpt>
      <trkpt lat="44.10696" lon="3.18398">
        <ele>768.8</ele>
        <time>2019-05-31T11:05:15Z</time>
      </trkpt>
      <trkpt lat="44.10699" lon="3.18394">
        <ele>768.5</ele>
        <time>2019-05-31T11:05:17Z</time>
      </trkpt>
      <trkpt lat="44.10702" lon="3.18389">
        <ele>768.1</ele>
        <time>2019-05-31T11:05:19Z</time>
      </trkpt>
      <trkpt lat="44.10704" lon="3.18387">
        <ele>767.9</ele>
        <time>2019-05-31T11:05:20Z</time>
      </trkpt>
      <trkpt lat="44.10708" lon="3.18382">
        <ele>767.6</ele>
        <time>2019-05-31T11:05:22Z</time>
      </trkpt>
      <trkpt lat="44.1071" lon="3.18378">
        <ele>767.3</ele>
        <time>2019-05-31T11:05:24Z</time>
      </trkpt>
      <trkpt lat="44.10714" lon="3.18374">
        <ele>766.9</ele>
        <time>2019-05-31T11:05:26Z</time>
      </trkpt>
      <trkpt lat="44.10718" lon="3.1837">
        <ele>766.8</ele>
        <time>2019-05-31T11:05:28Z</time>
      </trkpt>
      <trkpt lat="44.10722" lon="3.18368">
        <ele>766.7</ele>
        <time>2019-05-31T11:05:30Z</time>
      </trkpt>
      <trkpt lat="44.10726" lon="3.18365">
        <ele>766.6</ele>
        <time>2019-05-31T11:05:32Z</time>
      </trkpt>
      <trkpt lat="44.1073" lon="3.18364">
        <ele>766.5</ele>
        <time>2019-05-31T11:05:34Z</time>
      </trkpt>
      <trkpt lat="44.10735" lon="3.18365">
        <ele>766.4</ele>
        <time>2019-05-31T11:05:36Z</time>
      </trkpt>
      <trkpt lat="44.10739" lon="3.18364">
        <ele>766.3</ele>
        <time>2019-05-31T11:05:38Z</time>
      </trkpt>
      <trkpt lat="44.10742" lon="3.18362">
        <ele>766.2</ele>
        <time>2019-05-31T11:05:39Z</time>
      </trkpt>
      <trkpt lat="44.10745" lon="3.18361">
        <ele>766.1</ele>
        <time>2019-05-31T11:05:40Z</time>
      </trkpt>
      <trkpt lat="44.10749" lon="3.1836">
        <ele>766.2</ele>
        <time>2019-05-31T11:05:42Z</time>
      </trkpt>
      <trkpt lat="44.10752" lon="3.18363">
        <ele>766.4</ele>
        <time>2019-05-31T11:05:44Z</time>
      </trkpt>
      <trkpt lat="44.10755" lon="3.18368">
        <ele>766.5</ele>
        <time>2019-05-31T11:05:46Z</time>
      </trkpt>
      <trkpt lat="44.10757" lon="3.18372">
        <ele>766.6</ele>
        <time>2019-05-31T11:05:48Z</time>
      </trkpt>
      <trkpt lat="44.1076" lon="3.18375">
        <ele>766.8</ele>
        <time>2019-05-31T11:05:50Z</time>
      </trkpt>
      <trkpt lat="44.10763" lon="3.18379">
        <ele>766.9</ele>
        <time>2019-05-31T11:05:52Z</time>
      </trkpt>
      <trkpt lat="44.10766" lon="3.18383">
        <ele>767</ele>
        <time>2019-05-31T11:05:54Z</time>
      </trkpt>
      <trkpt lat="44.10768" lon="3.18387">
        <ele>767.1</ele>
        <time>2019-05-31T11:05:56Z</time>
      </trkpt>
      <trkpt lat="44.10771" lon="3.18391">
        <ele>767.2</ele>
        <time>2019-05-31T11:05:58Z</time>
      </trkpt>
      <trkpt lat="44.10774" lon="3.18392">
        <ele>767.2</ele>
        <time>2019-05-31T11:05:59Z</time>
      </trkpt>
      <trkpt lat="44.10778" lon="3.18391">
        <ele>767.3</ele>
        <time>2019-05-31T11:06:01Z</time>
      </trkpt>
      <trkpt lat="44.10782" lon="3.18391">
        <ele>767.4</ele>
        <time>2019-05-31T11:06:03Z</time>
      </trkpt>
      <trkpt lat="44.10786" lon="3.18391">
        <ele>767.5</ele>
        <time>2019-05-31T11:06:05Z</time>
      </trkpt>
      <trkpt lat="44.1079" lon="3.18392">
        <ele>767.5</ele>
        <time>2019-05-31T11:06:07Z</time>
      </trkpt>
      <trkpt lat="44.10796" lon="3.18394">
        <ele>767.6</ele>
        <time>2019-05-31T11:06:09Z</time>
      </trkpt>
      <trkpt lat="44.10799" lon="3.18394">
        <ele>767.7</ele>
        <time>2019-05-31T11:06:10Z</time>
      </trkpt>
      <trkpt lat="44.10803" lon="3.18395">
        <ele>767.8</ele>
        <time>2019-05-31T11:06:12Z</time>
      </trkpt>
      <trkpt lat="44.10807" lon="3.18394">
        <ele>767.8</ele>
        <time>2019-05-31T11:06:14Z</time>
      </trkpt>
      <trkpt lat="44.10812" lon="3.18393">
        <ele>767.9</ele>
        <time>2019-05-31T11:06:16Z</time>
      </trkpt>
      <trkpt lat="44.10814" lon="3.1839">
        <ele>767.9</ele>
        <time>2019-05-31T11:06:18Z</time>
      </trkpt>
      <trkpt lat="44.10819" lon="3.18389">
        <ele>768</ele>
        <time>2019-05-31T11:06:20Z</time>
      </trkpt>
      <trkpt lat="44.10821" lon="3.18388">
        <ele>768</ele>
        <time>2019-05-31T11:06:21Z</time>
      </trkpt>
      <trkpt lat="44.10824" lon="3.18387">
        <ele>768</ele>
        <time>2019-05-31T11:06:22Z</time>
      </trkpt>
      <trkpt lat="44.10827" lon="3.18386">
        <ele>768.1</ele>
        <time>2019-05-31T11:06:23Z</time>
      </trkpt>
      <trkpt lat="44.1083" lon="3.18384">
        <ele>768.1</ele>
        <time>2019-05-31T11:06:24Z</time>
      </trkpt>
      <trkpt lat="44.10835" lon="3.18382">
        <ele>768.1</ele>
        <time>2019-05-31T11:06:26Z</time>
      </trkpt>
      <trkpt lat="44.10838" lon="3.18382">
        <ele>768.2</ele>
        <time>2019-05-31T11:06:27Z</time>
      </trkpt>
      <trkpt lat="44.10841" lon="3.18381">
        <ele>768.2</ele>
        <time>2019-05-31T11:06:28Z</time>
      </trkpt>
      <trkpt lat="44.10846" lon="3.1838">
        <ele>768.2</ele>
        <time>2019-05-31T11:06:30Z</time>
      </trkpt>
      <trkpt lat="44.10849" lon="3.18379">
        <ele>768.2</ele>
        <time>2019-05-31T11:06:32Z</time>
      </trkpt>
      <trkpt lat="44.10852" lon="3.18378">
        <ele>768.3</ele>
        <time>2019-05-31T11:06:34Z</time>
      </trkpt>
      <trkpt lat="44.10856" lon="3.18376">
        <ele>768.3</ele>
        <time>2019-05-31T11:06:36Z</time>
      </trkpt>
      <trkpt lat="44.1086" lon="3.18375">
        <ele>768.3</ele>
        <time>2019-05-31T11:06:38Z</time>
      </trkpt>
      <trkpt lat="44.10865" lon="3.18374">
        <ele>768.3</ele>
        <time>2019-05-31T11:06:40Z</time>
      </trkpt>
      <trkpt lat="44.1087" lon="3.18374">
        <ele>768.4</ele>
        <time>2019-05-31T11:06:42Z</time>
      </trkpt>
      <trkpt lat="44.10875" lon="3.18373">
        <ele>768.4</ele>
        <time>2019-05-31T11:06:44Z</time>
      </trkpt>
      <trkpt lat="44.10879" lon="3.18372">
        <ele>768.4</ele>
        <time>2019-05-31T11:06:46Z</time>
      </trkpt>
      <trkpt lat="44.10883" lon="3.1837">
        <ele>768.4</ele>
        <time>2019-05-31T11:06:48Z</time>
      </trkpt>
      <trkpt lat="44.10886" lon="3.18367">
        <ele>768.4</ele>
        <time>2019-05-31T11:06:50Z</time>
      </trkpt>
      <trkpt lat="44.10889" lon="3.18366">
        <ele>768.4</ele>
        <time>2019-05-31T11:06:52Z</time>
      </trkpt>
      <trkpt lat="44.10893" lon="3.18365">
        <ele>768.4</ele>
        <time>2019-05-31T11:06:54Z</time>
      </trkpt>
      <trkpt lat="44.10897" lon="3.18366">
        <ele>768.4</ele>
        <time>2019-05-31T11:06:56Z</time>
      </trkpt>
      <trkpt lat="44.10901" lon="3.18369">
        <ele>768.4</ele>
        <time>2019-05-31T11:06:58Z</time>
      </trkpt>
      <trkpt lat="44.10905" lon="3.18369">
        <ele>768.4</ele>
        <time>2019-05-31T11:07:00Z</time>
      </trkpt>
      <trkpt lat="44.10908" lon="3.18368">
        <ele>768.4</ele>
        <time>2019-05-31T11:07:01Z</time>
      </trkpt>
      <trkpt lat="44.10911" lon="3.18368">
        <ele>768.4</ele>
        <time>2019-05-31T11:07:02Z</time>
      </trkpt>
      <trkpt lat="44.10914" lon="3.18366">
        <ele>768.4</ele>
        <time>2019-05-31T11:07:03Z</time>
      </trkpt>
      <trkpt lat="44.10917" lon="3.18365">
        <ele>768.4</ele>
        <time>2019-05-31T11:07:04Z</time>
      </trkpt>
      <trkpt lat="44.1092" lon="3.18365">
        <ele>768.4</ele>
        <time>2019-05-31T11:07:05Z</time>
      </trkpt>
      <trkpt lat="44.10923" lon="3.18365">
        <ele>768.3</ele>
        <time>2019-05-31T11:07:06Z</time>
      </trkpt>
      <trkpt lat="44.10926" lon="3.18365">
        <ele>768.3</ele>
        <time>2019-05-31T11:07:07Z</time>
      </trkpt>
      <trkpt lat="44.10929" lon="3.18365">
        <ele>768.3</ele>
        <time>2019-05-31T11:07:08Z</time>
      </trkpt>
      <trkpt lat="44.10932" lon="3.18364">
        <ele>768.2</ele>
        <time>2019-05-31T11:07:09Z</time>
      </trkpt>
      <trkpt lat="44.10935" lon="3.18363">
        <ele>768.2</ele>
        <time>2019-05-31T11:07:10Z</time>
      </trkpt>
      <trkpt lat="44.10938" lon="3.18362">
        <ele>768.2</ele>
        <time>2019-05-31T11:07:11Z</time>
      </trkpt>
      <trkpt lat="44.10941" lon="3.1836">
        <ele>768.2</ele>
        <time>2019-05-31T11:07:12Z</time>
      </trkpt>
      <trkpt lat="44.10945" lon="3.18357">
        <ele>768.1</ele>
        <time>2019-05-31T11:07:14Z</time>
      </trkpt>
      <trkpt lat="44.1095" lon="3.18356">
        <ele>768</ele>
        <time>2019-05-31T11:07:16Z</time>
      </trkpt>
      <trkpt lat="44.10954" lon="3.18356">
        <ele>768</ele>
        <time>2019-05-31T11:07:17Z</time>
      </trkpt>
      <trkpt lat="44.10957" lon="3.18357">
        <ele>768</ele>
        <time>2019-05-31T11:07:18Z</time>
      </trkpt>
      <trkpt lat="44.10961" lon="3.18358">
        <ele>767.9</ele>
        <time>2019-05-31T11:07:19Z</time>
      </trkpt>
      <trkpt lat="44.10964" lon="3.18362">
        <ele>767.9</ele>
        <time>2019-05-31T11:07:20Z</time>
      </trkpt>
      <trkpt lat="44.10968" lon="3.18365">
        <ele>767.8</ele>
        <time>2019-05-31T11:07:21Z</time>
      </trkpt>
      <trkpt lat="44.10972" lon="3.18367">
        <ele>767.8</ele>
        <time>2019-05-31T11:07:22Z</time>
      </trkpt>
      <trkpt lat="44.10976" lon="3.18369">
        <ele>767.8</ele>
        <time>2019-05-31T11:07:23Z</time>
      </trkpt>
      <trkpt lat="44.1098" lon="3.18369">
        <ele>767.8</ele>
        <time>2019-05-31T11:07:24Z</time>
      </trkpt>
      <trkpt lat="44.10984" lon="3.18369">
        <ele>767.7</ele>
        <time>2019-05-31T11:07:25Z</time>
      </trkpt>
      <trkpt lat="44.10988" lon="3.18369">
        <ele>767.7</ele>
        <time>2019-05-31T11:07:26Z</time>
      </trkpt>
      <trkpt lat="44.10991" lon="3.18369">
        <ele>767.7</ele>
        <time>2019-05-31T11:07:27Z</time>
      </trkpt>
      <trkpt lat="44.10994" lon="3.1837">
        <ele>767.7</ele>
        <time>2019-05-31T11:07:28Z</time>
      </trkpt>
      <trkpt lat="44.10997" lon="3.18371">
        <ele>767.7</ele>
        <time>2019-05-31T11:07:29Z</time>
      </trkpt>
      <trkpt lat="44.11001" lon="3.18375">
        <ele>767.7</ele>
        <time>2019-05-31T11:07:31Z</time>
      </trkpt>
      <trkpt lat="44.11004" lon="3.1838">
        <ele>767.6</ele>
        <time>2019-05-31T11:07:33Z</time>
      </trkpt>
      <trkpt lat="44.11007" lon="3.18384">
        <ele>767.5</ele>
        <time>2019-05-31T11:07:35Z</time>
      </trkpt>
      <trkpt lat="44.11009" lon="3.18388">
        <ele>767.4</ele>
        <time>2019-05-31T11:07:37Z</time>
      </trkpt>
      <trkpt lat="44.11012" lon="3.18393">
        <ele>767.2</ele>
        <time>2019-05-31T11:07:39Z</time>
      </trkpt>
      <trkpt lat="44.11015" lon="3.18399">
        <ele>766.9</ele>
        <time>2019-05-31T11:07:41Z</time>
      </trkpt>
      <trkpt lat="44.11017" lon="3.18404">
        <ele>766.6</ele>
        <time>2019-05-31T11:07:43Z</time>
      </trkpt>
      <trkpt lat="44.11016" lon="3.18411">
        <ele>766.2</ele>
        <time>2019-05-31T11:07:45Z</time>
      </trkpt>
      <trkpt lat="44.11014" lon="3.18416">
        <ele>765.8</ele>
        <time>2019-05-31T11:07:46Z</time>
      </trkpt>
      <trkpt lat="44.11012" lon="3.1842">
        <ele>765.4</ele>
        <time>2019-05-31T11:07:47Z</time>
      </trkpt>
      <trkpt lat="44.11008" lon="3.18424">
        <ele>765</ele>
        <time>2019-05-31T11:07:48Z</time>
      </trkpt>
      <trkpt lat="44.11006" lon="3.1843">
        <ele>764.6</ele>
        <time>2019-05-31T11:07:49Z</time>
      </trkpt>
      <trkpt lat="44.11006" lon="3.18435">
        <ele>764.3</ele>
        <time>2019-05-31T11:07:50Z</time>
      </trkpt>
      <trkpt lat="44.11015" lon="3.18436">
        <ele>763.7</ele>
        <time>2019-05-31T11:07:51Z</time>
      </trkpt>
      <trkpt lat="44.11018" lon="3.18438">
        <ele>763.5</ele>
        <time>2019-05-31T11:07:52Z</time>
      </trkpt>
      <trkpt lat="44.11022" lon="3.18442">
        <ele>763.2</ele>
        <time>2019-05-31T11:07:53Z</time>
      </trkpt>
      <trkpt lat="44.11025" lon="3.18445">
        <ele>763</ele>
        <time>2019-05-31T11:07:54Z</time>
      </trkpt>
      <trkpt lat="44.11026" lon="3.1845">
        <ele>762.7</ele>
        <time>2019-05-31T11:07:55Z</time>
      </trkpt>
      <trkpt lat="44.11027" lon="3.18454">
        <ele>762.4</ele>
        <time>2019-05-31T11:07:56Z</time>
      </trkpt>
      <trkpt lat="44.11031" lon="3.18459">
        <ele>762</ele>
        <time>2019-05-31T11:07:57Z</time>
      </trkpt>
      <trkpt lat="44.1103" lon="3.18465">
        <ele>761.7</ele>
        <time>2019-05-31T11:07:58Z</time>
      </trkpt>
      <trkpt lat="44.11031" lon="3.18475">
        <ele>761.4</ele>
        <time>2019-05-31T11:07:59Z</time>
      </trkpt>
      <trkpt lat="44.11036" lon="3.18481">
        <ele>761.1</ele>
        <time>2019-05-31T11:08:00Z</time>
      </trkpt>
      <trkpt lat="44.11039" lon="3.18487">
        <ele>760.8</ele>
        <time>2019-05-31T11:08:01Z</time>
      </trkpt>
      <trkpt lat="44.11041" lon="3.18492">
        <ele>760.7</ele>
        <time>2019-05-31T11:08:02Z</time>
      </trkpt>
      <trkpt lat="44.11043" lon="3.18496">
        <ele>760.6</ele>
        <time>2019-05-31T11:08:03Z</time>
      </trkpt>
      <trkpt lat="44.11045" lon="3.185">
        <ele>760.4</ele>
        <time>2019-05-31T11:08:04Z</time>
      </trkpt>
      <trkpt lat="44.11047" lon="3.18504">
        <ele>760.3</ele>
        <time>2019-05-31T11:08:05Z</time>
      </trkpt>
      <trkpt lat="44.11049" lon="3.18507">
        <ele>760.2</ele>
        <time>2019-05-31T11:08:06Z</time>
      </trkpt>
      <trkpt lat="44.11051" lon="3.18512">
        <ele>760.1</ele>
        <time>2019-05-31T11:08:07Z</time>
      </trkpt>
      <trkpt lat="44.11052" lon="3.18519">
        <ele>760</ele>
        <time>2019-05-31T11:08:08Z</time>
      </trkpt>
      <trkpt lat="44.11054" lon="3.18525">
        <ele>759.8</ele>
        <time>2019-05-31T11:08:09Z</time>
      </trkpt>
      <trkpt lat="44.11057" lon="3.18524">
        <ele>759.8</ele>
        <time>2019-05-31T11:08:10Z</time>
      </trkpt>
      <trkpt lat="44.11063" lon="3.18529">
        <ele>759.6</ele>
        <time>2019-05-31T11:08:11Z</time>
      </trkpt>
      <trkpt lat="44.11066" lon="3.18534">
        <ele>759.4</ele>
        <time>2019-05-31T11:08:12Z</time>
      </trkpt>
      <trkpt lat="44.11068" lon="3.18539">
        <ele>759.2</ele>
        <time>2019-05-31T11:08:13Z</time>
      </trkpt>
      <trkpt lat="44.11071" lon="3.18543">
        <ele>759</ele>
        <time>2019-05-31T11:08:14Z</time>
      </trkpt>
      <trkpt lat="44.11073" lon="3.18546">
        <ele>758.8</ele>
        <time>2019-05-31T11:08:15Z</time>
      </trkpt>
      <trkpt lat="44.11076" lon="3.18548">
        <ele>758.7</ele>
        <time>2019-05-31T11:08:16Z</time>
      </trkpt>
      <trkpt lat="44.1108" lon="3.18549">
        <ele>758.5</ele>
        <time>2019-05-31T11:08:17Z</time>
      </trkpt>
      <trkpt lat="44.11089" lon="3.1855">
        <ele>758</ele>
        <time>2019-05-31T11:08:18Z</time>
      </trkpt>
      <trkpt lat="44.11095" lon="3.18553">
        <ele>757.8</ele>
        <time>2019-05-31T11:08:19Z</time>
      </trkpt>
      <trkpt lat="44.11099" lon="3.18556">
        <ele>757.5</ele>
        <time>2019-05-31T11:08:20Z</time>
      </trkpt>
      <trkpt lat="44.11106" lon="3.18558">
        <ele>757.3</ele>
        <time>2019-05-31T11:08:21Z</time>
      </trkpt>
      <trkpt lat="44.1111" lon="3.1856">
        <ele>757.2</ele>
        <time>2019-05-31T11:08:22Z</time>
      </trkpt>
      <trkpt lat="44.11115" lon="3.18562">
        <ele>757.3</ele>
        <time>2019-05-31T11:08:23Z</time>
      </trkpt>
      <trkpt lat="44.11119" lon="3.1856">
        <ele>757.4</ele>
        <time>2019-05-31T11:08:24Z</time>
      </trkpt>
      <trkpt lat="44.11124" lon="3.1856">
        <ele>757.6</ele>
        <time>2019-05-31T11:08:25Z</time>
      </trkpt>
      <trkpt lat="44.11129" lon="3.18558">
        <ele>757.8</ele>
        <time>2019-05-31T11:08:29Z</time>
      </trkpt>
      <trkpt lat="44.11132" lon="3.18558">
        <ele>758.1</ele>
        <time>2019-05-31T11:08:31Z</time>
      </trkpt>
      <trkpt lat="44.11136" lon="3.18558">
        <ele>758.5</ele>
        <time>2019-05-31T11:08:33Z</time>
      </trkpt>
      <trkpt lat="44.11139" lon="3.1856">
        <ele>758.9</ele>
        <time>2019-05-31T11:08:35Z</time>
      </trkpt>
      <trkpt lat="44.11143" lon="3.18559">
        <ele>759.4</ele>
        <time>2019-05-31T11:08:38Z</time>
      </trkpt>
      <trkpt lat="44.11147" lon="3.18559">
        <ele>759.8</ele>
        <time>2019-05-31T11:08:40Z</time>
      </trkpt>
      <trkpt lat="44.1115" lon="3.18559">
        <ele>760.2</ele>
        <time>2019-05-31T11:08:42Z</time>
      </trkpt>
      <trkpt lat="44.11154" lon="3.18561">
        <ele>760.8</ele>
        <time>2019-05-31T11:08:44Z</time>
      </trkpt>
      <trkpt lat="44.11158" lon="3.18564">
        <ele>761.2</ele>
        <time>2019-05-31T11:08:46Z</time>
      </trkpt>
      <trkpt lat="44.11162" lon="3.18566">
        <ele>761.6</ele>
        <time>2019-05-31T11:08:48Z</time>
      </trkpt>
      <trkpt lat="44.11166" lon="3.18569">
        <ele>762</ele>
        <time>2019-05-31T11:08:50Z</time>
      </trkpt>
      <trkpt lat="44.11171" lon="3.18572">
        <ele>762.2</ele>
        <time>2019-05-31T11:08:52Z</time>
      </trkpt>
      <trkpt lat="44.11173" lon="3.18575">
        <ele>762.4</ele>
        <time>2019-05-31T11:08:53Z</time>
      </trkpt>
      <trkpt lat="44.11176" lon="3.18577">
        <ele>762.5</ele>
        <time>2019-05-31T11:08:54Z</time>
      </trkpt>
      <trkpt lat="44.11179" lon="3.18581">
        <ele>762.5</ele>
        <time>2019-05-31T11:08:55Z</time>
      </trkpt>
      <trkpt lat="44.11183" lon="3.18585">
        <ele>762.6</ele>
        <time>2019-05-31T11:08:56Z</time>
      </trkpt>
      <trkpt lat="44.11186" lon="3.18588">
        <ele>762.6</ele>
        <time>2019-05-31T11:08:57Z</time>
      </trkpt>
      <trkpt lat="44.11188" lon="3.18592">
        <ele>762.5</ele>
        <time>2019-05-31T11:08:58Z</time>
      </trkpt>
      <trkpt lat="44.1119" lon="3.18594">
        <ele>762.5</ele>
        <time>2019-05-31T11:08:59Z</time>
      </trkpt>
      <trkpt lat="44.11193" lon="3.18596">
        <ele>762.5</ele>
        <time>2019-05-31T11:09:00Z</time>
      </trkpt>
      <trkpt lat="44.11196" lon="3.18599">
        <ele>762.5</ele>
        <time>2019-05-31T11:09:02Z</time>
      </trkpt>
      <trkpt lat="44.11198" lon="3.18601">
        <ele>762.5</ele>
        <time>2019-05-31T11:09:04Z</time>
      </trkpt>
      <trkpt lat="44.11202" lon="3.18598">
        <ele>762.4</ele>
        <time>2019-05-31T11:09:06Z</time>
      </trkpt>
      <trkpt lat="44.11205" lon="3.18596">
        <ele>762.4</ele>
        <time>2019-05-31T11:09:07Z</time>
      </trkpt>
      <trkpt lat="44.11211" lon="3.18594">
        <ele>762.4</ele>
        <time>2019-05-31T11:09:08Z</time>
      </trkpt>
      <trkpt lat="44.11215" lon="3.18592">
        <ele>762.5</ele>
        <time>2019-05-31T11:09:09Z</time>
      </trkpt>
      <trkpt lat="44.11219" lon="3.18591">
        <ele>762.5</ele>
        <time>2019-05-31T11:09:10Z</time>
      </trkpt>
      <trkpt lat="44.11222" lon="3.18591">
        <ele>762.5</ele>
        <time>2019-05-31T11:09:11Z</time>
      </trkpt>
      <trkpt lat="44.11226" lon="3.1859">
        <ele>762.6</ele>
        <time>2019-05-31T11:09:13Z</time>
      </trkpt>
      <trkpt lat="44.11229" lon="3.18589">
        <ele>762.6</ele>
        <time>2019-05-31T11:09:14Z</time>
      </trkpt>
      <trkpt lat="44.11232" lon="3.18589">
        <ele>762.7</ele>
        <time>2019-05-31T11:09:15Z</time>
      </trkpt>
      <trkpt lat="44.11237" lon="3.18587">
        <ele>762.8</ele>
        <time>2019-05-31T11:09:17Z</time>
      </trkpt>
      <trkpt lat="44.11242" lon="3.18586">
        <ele>762.9</ele>
        <time>2019-05-31T11:09:19Z</time>
      </trkpt>
      <trkpt lat="44.11246" lon="3.18584">
        <ele>763.1</ele>
        <time>2019-05-31T11:09:21Z</time>
      </trkpt>
      <trkpt lat="44.1125" lon="3.18584">
        <ele>763.2</ele>
        <time>2019-05-31T11:09:23Z</time>
      </trkpt>
      <trkpt lat="44.11253" lon="3.18583">
        <ele>763.3</ele>
        <time>2019-05-31T11:09:25Z</time>
      </trkpt>
      <trkpt lat="44.11257" lon="3.18581">
        <ele>763.4</ele>
        <time>2019-05-31T11:09:27Z</time>
      </trkpt>
      <trkpt lat="44.11261" lon="3.18578">
        <ele>763.6</ele>
        <time>2019-05-31T11:09:29Z</time>
      </trkpt>
      <trkpt lat="44.11266" lon="3.18579">
        <ele>763.7</ele>
        <time>2019-05-31T11:09:31Z</time>
      </trkpt>
      <trkpt lat="44.11269" lon="3.1858">
        <ele>763.9</ele>
        <time>2019-05-31T11:09:32Z</time>
      </trkpt>
      <trkpt lat="44.11272" lon="3.18581">
        <ele>764</ele>
        <time>2019-05-31T11:09:33Z</time>
      </trkpt>
      <trkpt lat="44.11277" lon="3.18581">
        <ele>764.3</ele>
        <time>2019-05-31T11:09:35Z</time>
      </trkpt>
      <trkpt lat="44.11281" lon="3.18581">
        <ele>764.5</ele>
        <time>2019-05-31T11:09:37Z</time>
      </trkpt>
      <trkpt lat="44.11285" lon="3.1858">
        <ele>764.8</ele>
        <time>2019-05-31T11:09:39Z</time>
      </trkpt>
      <trkpt lat="44.11289" lon="3.18579">
        <ele>765</ele>
        <time>2019-05-31T11:09:41Z</time>
      </trkpt>
      <trkpt lat="44.11293" lon="3.18576">
        <ele>765.2</ele>
        <time>2019-05-31T11:09:43Z</time>
      </trkpt>
      <trkpt lat="44.11296" lon="3.18574">
        <ele>765.4</ele>
        <time>2019-05-31T11:09:45Z</time>
      </trkpt>
      <trkpt lat="44.113" lon="3.18574">
        <ele>765.7</ele>
        <time>2019-05-31T11:09:47Z</time>
      </trkpt>
      <trkpt lat="44.11302" lon="3.18573">
        <ele>766</ele>
        <time>2019-05-31T11:09:49Z</time>
      </trkpt>
      <trkpt lat="44.11307" lon="3.18576">
        <ele>766.1</ele>
        <time>2019-05-31T11:09:51Z</time>
      </trkpt>
      <trkpt lat="44.1131" lon="3.18578">
        <ele>766.2</ele>
        <time>2019-05-31T11:09:53Z</time>
      </trkpt>
      <trkpt lat="44.11315" lon="3.18581">
        <ele>766.3</ele>
        <time>2019-05-31T11:09:55Z</time>
      </trkpt>
      <trkpt lat="44.11318" lon="3.18584">
        <ele>766.3</ele>
        <time>2019-05-31T11:09:56Z</time>
      </trkpt>
      <trkpt lat="44.11321" lon="3.18587">
        <ele>766.3</ele>
        <time>2019-05-31T11:09:58Z</time>
      </trkpt>
      <trkpt lat="44.11324" lon="3.18592">
        <ele>766.3</ele>
        <time>2019-05-31T11:10:00Z</time>
      </trkpt>
      <trkpt lat="44.11325" lon="3.18595">
        <ele>766.2</ele>
        <time>2019-05-31T11:10:08Z</time>
      </trkpt>
      <trkpt lat="44.11325" lon="3.18597">
        <ele>766.2</ele>
        <time>2019-05-31T11:10:50Z</time>
      </trkpt>
      <trkpt lat="44.11326" lon="3.18599">
        <ele>766.2</ele>
        <time>2019-05-31T11:11:24Z</time>
      </trkpt>
      <trkpt lat="44.11327" lon="3.18601">
        <ele>766.1</ele>
        <time>2019-05-31T11:11:25Z</time>
      </trkpt>
      <trkpt lat="44.11324" lon="3.18606">
        <ele>766</ele>
        <time>2019-05-31T11:11:26Z</time>
      </trkpt>
      <trkpt lat="44.11321" lon="3.1861">
        <ele>766</ele>
        <time>2019-05-31T11:11:27Z</time>
      </trkpt>
      <trkpt lat="44.1132" lon="3.18615">
        <ele>766.1</ele>
        <time>2019-05-31T11:11:28Z</time>
      </trkpt>
      <trkpt lat="44.11319" lon="3.1862">
        <ele>766.2</ele>
        <time>2019-05-31T11:11:29Z</time>
      </trkpt>
      <trkpt lat="44.1132" lon="3.18626">
        <ele>766.4</ele>
        <time>2019-05-31T11:11:30Z</time>
      </trkpt>
      <trkpt lat="44.11322" lon="3.1863">
        <ele>766.6</ele>
        <time>2019-05-31T11:11:31Z</time>
      </trkpt>
      <trkpt lat="44.11324" lon="3.18633">
        <ele>766.8</ele>
        <time>2019-05-31T11:11:32Z</time>
      </trkpt>
      <trkpt lat="44.11328" lon="3.18637">
        <ele>767.1</ele>
        <time>2019-05-31T11:11:34Z</time>
      </trkpt>
      <trkpt lat="44.1133" lon="3.18639">
        <ele>767.3</ele>
        <time>2019-05-31T11:11:35Z</time>
      </trkpt>
      <trkpt lat="44.11333" lon="3.18641">
        <ele>767.4</ele>
        <time>2019-05-31T11:11:36Z</time>
      </trkpt>
      <trkpt lat="44.11335" lon="3.18646">
        <ele>767.7</ele>
        <time>2019-05-31T11:11:38Z</time>
      </trkpt>
      <trkpt lat="44.11337" lon="3.18652">
        <ele>768</ele>
        <time>2019-05-31T11:11:40Z</time>
      </trkpt>
      <trkpt lat="44.1134" lon="3.18658">
        <ele>768.6</ele>
        <time>2019-05-31T11:11:42Z</time>
      </trkpt>
      <trkpt lat="44.11342" lon="3.1866">
        <ele>768.8</ele>
        <time>2019-05-31T11:11:43Z</time>
      </trkpt>
      <trkpt lat="44.11348" lon="3.18664">
        <ele>769.2</ele>
        <time>2019-05-31T11:11:45Z</time>
      </trkpt>
      <trkpt lat="44.11351" lon="3.18666">
        <ele>769.5</ele>
        <time>2019-05-31T11:11:46Z</time>
      </trkpt>
      <trkpt lat="44.11354" lon="3.18668">
        <ele>769.7</ele>
        <time>2019-05-31T11:11:47Z</time>
      </trkpt>
      <trkpt lat="44.11358" lon="3.1867">
        <ele>770.1</ele>
        <time>2019-05-31T11:11:48Z</time>
      </trkpt>
      <trkpt lat="44.11361" lon="3.18672">
        <ele>770.4</ele>
        <time>2019-05-31T11:11:49Z</time>
      </trkpt>
      <trkpt lat="44.11365" lon="3.18675">
        <ele>771.1</ele>
        <time>2019-05-31T11:11:50Z</time>
      </trkpt>
      <trkpt lat="44.1137" lon="3.18676">
        <ele>771.6</ele>
        <time>2019-05-31T11:11:51Z</time>
      </trkpt>
      <trkpt lat="44.11373" lon="3.18678">
        <ele>772</ele>
        <time>2019-05-31T11:11:52Z</time>
      </trkpt>
      <trkpt lat="44.11377" lon="3.1868">
        <ele>772.4</ele>
        <time>2019-05-31T11:11:54Z</time>
      </trkpt>
      <trkpt lat="44.11382" lon="3.18679">
        <ele>773.2</ele>
        <time>2019-05-31T11:11:56Z</time>
      </trkpt>
      <trkpt lat="44.11386" lon="3.18677">
        <ele>774</ele>
        <time>2019-05-31T11:11:58Z</time>
      </trkpt>
      <trkpt lat="44.11391" lon="3.18674">
        <ele>774.9</ele>
        <time>2019-05-31T11:12:00Z</time>
      </trkpt>
      <trkpt lat="44.11393" lon="3.18668">
        <ele>775.6</ele>
        <time>2019-05-31T11:12:02Z</time>
      </trkpt>
      <trkpt lat="44.11391" lon="3.18662">
        <ele>776.5</ele>
        <time>2019-05-31T11:12:04Z</time>
      </trkpt>
      <trkpt lat="44.11393" lon="3.18659">
        <ele>777.2</ele>
        <time>2019-05-31T11:12:15Z</time>
      </trkpt>
      <trkpt lat="44.11396" lon="3.18655">
        <ele>777.9</ele>
        <time>2019-05-31T11:12:18Z</time>
      </trkpt>
      <trkpt lat="44.11398" lon="3.18653">
        <ele>778.5</ele>
        <time>2019-05-31T11:12:20Z</time>
      </trkpt>
      <trkpt lat="44.11401" lon="3.1865">
        <ele>779.2</ele>
        <time>2019-05-31T11:12:22Z</time>
      </trkpt>
      <trkpt lat="44.11405" lon="3.18649">
        <ele>780</ele>
        <time>2019-05-31T11:12:24Z</time>
      </trkpt>
      <trkpt lat="44.11409" lon="3.18651">
        <ele>780.9</ele>
        <time>2019-05-31T11:12:26Z</time>
      </trkpt>
      <trkpt lat="44.11412" lon="3.18652">
        <ele>781.3</ele>
        <time>2019-05-31T11:12:27Z</time>
      </trkpt>
      <trkpt lat="44.11415" lon="3.18654">
        <ele>781.8</ele>
        <time>2019-05-31T11:12:28Z</time>
      </trkpt>
      <trkpt lat="44.11418" lon="3.18657">
        <ele>782.3</ele>
        <time>2019-05-31T11:12:29Z</time>
      </trkpt>
      <trkpt lat="44.11422" lon="3.18662">
        <ele>783.3</ele>
        <time>2019-05-31T11:12:30Z</time>
      </trkpt>
      <trkpt lat="44.11426" lon="3.18665">
        <ele>784.1</ele>
        <time>2019-05-31T11:12:31Z</time>
      </trkpt>
      <trkpt lat="44.11427" lon="3.18671">
        <ele>785</ele>
        <time>2019-05-31T11:12:32Z</time>
      </trkpt>
      <trkpt lat="44.11431" lon="3.18669">
        <ele>786</ele>
        <time>2019-05-31T11:12:33Z</time>
      </trkpt>
      <trkpt lat="44.11434" lon="3.1867">
        <ele>786.4</ele>
        <time>2019-05-31T11:12:35Z</time>
      </trkpt>
      <trkpt lat="44.11437" lon="3.18671">
        <ele>786.8</ele>
        <time>2019-05-31T11:12:37Z</time>
      </trkpt>
      <trkpt lat="44.11442" lon="3.18674">
        <ele>787.5</ele>
        <time>2019-05-31T11:12:39Z</time>
      </trkpt>
      <trkpt lat="44.11446" lon="3.18676">
        <ele>788.2</ele>
        <time>2019-05-31T11:12:41Z</time>
      </trkpt>
      <trkpt lat="44.1145" lon="3.18678">
        <ele>788.9</ele>
        <time>2019-05-31T11:12:43Z</time>
      </trkpt>
      <trkpt lat="44.11455" lon="3.18678">
        <ele>789.7</ele>
        <time>2019-05-31T11:12:45Z</time>
      </trkpt>
      <trkpt lat="44.11458" lon="3.18678">
        <ele>790.2</ele>
        <time>2019-05-31T11:12:46Z</time>
      </trkpt>
      <trkpt lat="44.11461" lon="3.18679">
        <ele>790.7</ele>
        <time>2019-05-31T11:12:47Z</time>
      </trkpt>
      <trkpt lat="44.11465" lon="3.18681">
        <ele>791.2</ele>
        <time>2019-05-31T11:12:49Z</time>
      </trkpt>
      <trkpt lat="44.1147" lon="3.18684">
        <ele>791.7</ele>
        <time>2019-05-31T11:12:51Z</time>
      </trkpt>
      <trkpt lat="44.11473" lon="3.18686">
        <ele>792</ele>
        <time>2019-05-31T11:12:52Z</time>
      </trkpt>
      <trkpt lat="44.11474" lon="3.18692">
        <ele>792.2</ele>
        <time>2019-05-31T11:12:54Z</time>
      </trkpt>
      <trkpt lat="44.11471" lon="3.18697">
        <ele>792.2</ele>
        <time>2019-05-31T11:12:56Z</time>
      </trkpt>
      <trkpt lat="44.1147" lon="3.18701">
        <ele>792.3</ele>
        <time>2019-05-31T11:12:58Z</time>
      </trkpt>
      <trkpt lat="44.11468" lon="3.18705">
        <ele>792.2</ele>
        <time>2019-05-31T11:13:00Z</time>
      </trkpt>
      <trkpt lat="44.11465" lon="3.18711">
        <ele>792</ele>
        <time>2019-05-31T11:13:02Z</time>
      </trkpt>
      <trkpt lat="44.11465" lon="3.18722">
        <ele>791.4</ele>
        <time>2019-05-31T11:13:03Z</time>
      </trkpt>
      <trkpt lat="44.11467" lon="3.18729">
        <ele>791.2</ele>
        <time>2019-05-31T11:13:04Z</time>
      </trkpt>
      <trkpt lat="44.1147" lon="3.18737">
        <ele>790.9</ele>
        <time>2019-05-31T11:13:05Z</time>
      </trkpt>
      <trkpt lat="44.11472" lon="3.18743">
        <ele>790.7</ele>
        <time>2019-05-31T11:13:06Z</time>
      </trkpt>
      <trkpt lat="44.11476" lon="3.18748">
        <ele>790.6</ele>
        <time>2019-05-31T11:13:07Z</time>
      </trkpt>
      <trkpt lat="44.11478" lon="3.18753">
        <ele>790.5</ele>
        <time>2019-05-31T11:13:08Z</time>
      </trkpt>
      <trkpt lat="44.11486" lon="3.18754">
        <ele>790.5</ele>
        <time>2019-05-31T11:13:09Z</time>
      </trkpt>
      <trkpt lat="44.11489" lon="3.18758">
        <ele>790.5</ele>
        <time>2019-05-31T11:13:10Z</time>
      </trkpt>
      <trkpt lat="44.11495" lon="3.18755">
        <ele>790.6</ele>
        <time>2019-05-31T11:13:12Z</time>
      </trkpt>
      <trkpt lat="44.11498" lon="3.18749">
        <ele>790.8</ele>
        <time>2019-05-31T11:13:13Z</time>
      </trkpt>
      <trkpt lat="44.115" lon="3.18747">
        <ele>790.9</ele>
        <time>2019-05-31T11:13:14Z</time>
      </trkpt>
      <trkpt lat="44.11505" lon="3.18746">
        <ele>791.2</ele>
        <time>2019-05-31T11:13:16Z</time>
      </trkpt>
      <trkpt lat="44.11509" lon="3.18745">
        <ele>791.5</ele>
        <time>2019-05-31T11:13:17Z</time>
      </trkpt>
      <trkpt lat="44.11513" lon="3.18742">
        <ele>791.8</ele>
        <time>2019-05-31T11:13:19Z</time>
      </trkpt>
      <trkpt lat="44.11517" lon="3.18743">
        <ele>792.3</ele>
        <time>2019-05-31T11:13:21Z</time>
      </trkpt>
      <trkpt lat="44.11522" lon="3.18744">
        <ele>792.8</ele>
        <time>2019-05-31T11:13:23Z</time>
      </trkpt>
      <trkpt lat="44.11524" lon="3.18743">
        <ele>793.3</ele>
        <time>2019-05-31T11:13:27Z</time>
      </trkpt>
      <trkpt lat="44.11527" lon="3.18742">
        <ele>793.7</ele>
        <time>2019-05-31T11:13:32Z</time>
      </trkpt>
      <trkpt lat="44.11529" lon="3.1874">
        <ele>794.2</ele>
        <time>2019-05-31T11:14:19Z</time>
      </trkpt>
      <trkpt lat="44.1153" lon="3.18736">
        <ele>794.6</ele>
        <time>2019-05-31T11:14:25Z</time>
      </trkpt>
      <trkpt lat="44.1153" lon="3.1874">
        <ele>795</ele>
        <time>2019-05-31T11:14:44Z</time>
      </trkpt>
      <trkpt lat="44.11527" lon="3.18737">
        <ele>795.5</ele>
        <time>2019-05-31T11:16:57Z</time>
      </trkpt>
      <trkpt lat="44.11529" lon="3.18737">
        <ele>795.9</ele>
        <time>2019-05-31T11:17:11Z</time>
      </trkpt>
      <trkpt lat="44.11529" lon="3.18746">
        <ele>796.9</ele>
        <time>2019-05-31T11:19:17Z</time>
      </trkpt>
      <trkpt lat="44.1153" lon="3.18752">
        <ele>797.5</ele>
        <time>2019-05-31T11:19:19Z</time>
      </trkpt>
      <trkpt lat="44.11533" lon="3.18757">
        <ele>798.2</ele>
        <time>2019-05-31T11:19:21Z</time>
      </trkpt>
      <trkpt lat="44.11533" lon="3.18763">
        <ele>798.8</ele>
        <time>2019-05-31T11:19:23Z</time>
      </trkpt>
      <trkpt lat="44.11531" lon="3.18766">
        <ele>799.3</ele>
        <time>2019-05-31T11:19:25Z</time>
      </trkpt>
      <trkpt lat="44.11528" lon="3.18768">
        <ele>799.8</ele>
        <time>2019-05-31T11:19:27Z</time>
      </trkpt>
      <trkpt lat="44.11526" lon="3.18772">
        <ele>800.4</ele>
        <time>2019-05-31T11:19:29Z</time>
      </trkpt>
      <trkpt lat="44.11527" lon="3.18778">
        <ele>801.2</ele>
        <time>2019-05-31T11:19:31Z</time>
      </trkpt>
      <trkpt lat="44.11527" lon="3.18785">
        <ele>801.9</ele>
        <time>2019-05-31T11:19:33Z</time>
      </trkpt>
      <trkpt lat="44.11527" lon="3.1879">
        <ele>802.5</ele>
        <time>2019-05-31T11:19:35Z</time>
      </trkpt>
      <trkpt lat="44.11526" lon="3.18794">
        <ele>803</ele>
        <time>2019-05-31T11:19:38Z</time>
      </trkpt>
      <trkpt lat="44.11524" lon="3.18798">
        <ele>803.5</ele>
        <time>2019-05-31T11:19:40Z</time>
      </trkpt>
      <trkpt lat="44.11521" lon="3.18801">
        <ele>803.9</ele>
        <time>2019-05-31T11:19:41Z</time>
      </trkpt>
      <trkpt lat="44.11515" lon="3.18806">
        <ele>804.8</ele>
        <time>2019-05-31T11:19:42Z</time>
      </trkpt>
      <trkpt lat="44.11505" lon="3.18806">
        <ele>805.8</ele>
        <time>2019-05-31T11:19:43Z</time>
      </trkpt>
      <trkpt lat="44.11499" lon="3.18808">
        <ele>806.5</ele>
        <time>2019-05-31T11:19:45Z</time>
      </trkpt>
      <trkpt lat="44.11495" lon="3.1881">
        <ele>807.1</ele>
        <time>2019-05-31T11:19:46Z</time>
      </trkpt>
      <trkpt lat="44.11491" lon="3.18811">
        <ele>807.9</ele>
        <time>2019-05-31T11:19:47Z</time>
      </trkpt>
      <trkpt lat="44.11487" lon="3.18811">
        <ele>808.4</ele>
        <time>2019-05-31T11:19:48Z</time>
      </trkpt>
      <trkpt lat="44.11484" lon="3.18814">
        <ele>809</ele>
        <time>2019-05-31T11:19:50Z</time>
      </trkpt>
      <trkpt lat="44.11482" lon="3.18822">
        <ele>809.9</ele>
        <time>2019-05-31T11:19:51Z</time>
      </trkpt>
      <trkpt lat="44.1148" lon="3.18825">
        <ele>810.5</ele>
        <time>2019-05-31T11:19:52Z</time>
      </trkpt>
      <trkpt lat="44.11481" lon="3.1883">
        <ele>811</ele>
        <time>2019-05-31T11:19:53Z</time>
      </trkpt>
      <trkpt lat="44.11477" lon="3.18834">
        <ele>811.5</ele>
        <time>2019-05-31T11:19:54Z</time>
      </trkpt>
      <trkpt lat="44.11475" lon="3.18838">
        <ele>811.8</ele>
        <time>2019-05-31T11:19:55Z</time>
      </trkpt>
      <trkpt lat="44.11472" lon="3.18841">
        <ele>812</ele>
        <time>2019-05-31T11:19:57Z</time>
      </trkpt>
      <trkpt lat="44.11469" lon="3.18843">
        <ele>812.1</ele>
        <time>2019-05-31T11:19:58Z</time>
      </trkpt>
      <trkpt lat="44.11466" lon="3.18845">
        <ele>812.1</ele>
        <time>2019-05-31T11:19:59Z</time>
      </trkpt>
      <trkpt lat="44.11461" lon="3.18848">
        <ele>812</ele>
        <time>2019-05-31T11:20:00Z</time>
      </trkpt>
      <trkpt lat="44.11458" lon="3.1885">
        <ele>811.8</ele>
        <time>2019-05-31T11:20:01Z</time>
      </trkpt>
      <trkpt lat="44.11454" lon="3.18852">
        <ele>811.4</ele>
        <time>2019-05-31T11:20:03Z</time>
      </trkpt>
      <trkpt lat="44.11452" lon="3.18854">
        <ele>811</ele>
        <time>2019-05-31T11:20:05Z</time>
      </trkpt>
      <trkpt lat="44.11453" lon="3.18857">
        <ele>810.5</ele>
        <time>2019-05-31T11:20:10Z</time>
      </trkpt>
      <trkpt lat="44.11453" lon="3.18862">
        <ele>809.8</ele>
        <time>2019-05-31T11:20:12Z</time>
      </trkpt>
      <trkpt lat="44.11452" lon="3.18866">
        <ele>809.2</ele>
        <time>2019-05-31T11:20:13Z</time>
      </trkpt>
      <trkpt lat="44.11449" lon="3.18871">
        <ele>808.1</ele>
        <time>2019-05-31T11:20:14Z</time>
      </trkpt>
      <trkpt lat="44.11447" lon="3.18876">
        <ele>806.9</ele>
        <time>2019-05-31T11:20:16Z</time>
      </trkpt>
      <trkpt lat="44.11445" lon="3.1888">
        <ele>806.2</ele>
        <time>2019-05-31T11:20:17Z</time>
      </trkpt>
      <trkpt lat="44.11444" lon="3.18884">
        <ele>805.4</ele>
        <time>2019-05-31T11:20:18Z</time>
      </trkpt>
      <trkpt lat="44.11443" lon="3.18888">
        <ele>804.7</ele>
        <time>2019-05-31T11:20:19Z</time>
      </trkpt>
      <trkpt lat="44.11443" lon="3.18893">
        <ele>804</ele>
        <time>2019-05-31T11:20:20Z</time>
      </trkpt>
      <trkpt lat="44.11442" lon="3.18896">
        <ele>803.3</ele>
        <time>2019-05-31T11:20:21Z</time>
      </trkpt>
      <trkpt lat="44.11443" lon="3.18901">
        <ele>802.4</ele>
        <time>2019-05-31T11:20:22Z</time>
      </trkpt>
      <trkpt lat="44.11445" lon="3.18904">
        <ele>801.5</ele>
        <time>2019-05-31T11:20:23Z</time>
      </trkpt>
      <trkpt lat="44.11447" lon="3.18908">
        <ele>801.2</ele>
        <time>2019-05-31T11:20:24Z</time>
      </trkpt>
      <trkpt lat="44.11449" lon="3.18912">
        <ele>801.7</ele>
        <time>2019-05-31T11:20:25Z</time>
      </trkpt>
      <trkpt lat="44.11453" lon="3.18916">
        <ele>802.2</ele>
        <time>2019-05-31T11:20:26Z</time>
      </trkpt>
      <trkpt lat="44.11456" lon="3.1892">
        <ele>802.7</ele>
        <time>2019-05-31T11:20:27Z</time>
      </trkpt>
      <trkpt lat="44.11459" lon="3.18923">
        <ele>803.1</ele>
        <time>2019-05-31T11:20:28Z</time>
      </trkpt>
      <trkpt lat="44.11463" lon="3.18924">
        <ele>803.5</ele>
        <time>2019-05-31T11:20:29Z</time>
      </trkpt>
      <trkpt lat="44.11466" lon="3.18926">
        <ele>803.8</ele>
        <time>2019-05-31T11:20:30Z</time>
      </trkpt>
      <trkpt lat="44.1147" lon="3.1893">
        <ele>804.1</ele>
        <time>2019-05-31T11:20:32Z</time>
      </trkpt>
      <trkpt lat="44.11471" lon="3.18933">
        <ele>804.3</ele>
        <time>2019-05-31T11:20:33Z</time>
      </trkpt>
      <trkpt lat="44.11472" lon="3.18937">
        <ele>804.4</ele>
        <time>2019-05-31T11:20:34Z</time>
      </trkpt>
      <trkpt lat="44.11473" lon="3.18941">
        <ele>804.5</ele>
        <time>2019-05-31T11:20:35Z</time>
      </trkpt>
      <trkpt lat="44.11474" lon="3.18945">
        <ele>804.6</ele>
        <time>2019-05-31T11:20:36Z</time>
      </trkpt>
      <trkpt lat="44.11475" lon="3.18949">
        <ele>804.6</ele>
        <time>2019-05-31T11:20:37Z</time>
      </trkpt>
      <trkpt lat="44.11477" lon="3.18952">
        <ele>804.7</ele>
        <time>2019-05-31T11:20:38Z</time>
      </trkpt>
      <trkpt lat="44.11481" lon="3.18957">
        <ele>804.8</ele>
        <time>2019-05-31T11:20:40Z</time>
      </trkpt>
      <trkpt lat="44.11483" lon="3.1896">
        <ele>804.8</ele>
        <time>2019-05-31T11:20:41Z</time>
      </trkpt>
      <trkpt lat="44.11485" lon="3.18963">
        <ele>804.8</ele>
        <time>2019-05-31T11:20:42Z</time>
      </trkpt>
      <trkpt lat="44.11485" lon="3.18969">
        <ele>804.8</ele>
        <time>2019-05-31T11:20:44Z</time>
      </trkpt>
      <trkpt lat="44.11483" lon="3.18973">
        <ele>804.7</ele>
        <time>2019-05-31T11:20:46Z</time>
      </trkpt>
      <trkpt lat="44.1148" lon="3.18975">
        <ele>804.7</ele>
        <time>2019-05-31T11:20:47Z</time>
      </trkpt>
      <trkpt lat="44.11479" lon="3.1898">
        <ele>804.6</ele>
        <time>2019-05-31T11:20:49Z</time>
      </trkpt>
      <trkpt lat="44.11481" lon="3.18986">
        <ele>804.5</ele>
        <time>2019-05-31T11:20:51Z</time>
      </trkpt>
      <trkpt lat="44.11483" lon="3.18989">
        <ele>804.4</ele>
        <time>2019-05-31T11:20:52Z</time>
      </trkpt>
      <trkpt lat="44.11486" lon="3.18995">
        <ele>804.3</ele>
        <time>2019-05-31T11:20:54Z</time>
      </trkpt>
      <trkpt lat="44.11487" lon="3.18999">
        <ele>804.2</ele>
        <time>2019-05-31T11:20:55Z</time>
      </trkpt>
      <trkpt lat="44.11489" lon="3.19004">
        <ele>804.1</ele>
        <time>2019-05-31T11:20:57Z</time>
      </trkpt>
      <trkpt lat="44.11489" lon="3.1901">
        <ele>803.9</ele>
        <time>2019-05-31T11:20:59Z</time>
      </trkpt>
      <trkpt lat="44.11487" lon="3.19017">
        <ele>803.7</ele>
        <time>2019-05-31T11:21:01Z</time>
      </trkpt>
      <trkpt lat="44.11485" lon="3.1902">
        <ele>803.6</ele>
        <time>2019-05-31T11:21:02Z</time>
      </trkpt>
      <trkpt lat="44.11482" lon="3.19026">
        <ele>803.3</ele>
        <time>2019-05-31T11:21:04Z</time>
      </trkpt>
      <trkpt lat="44.1148" lon="3.19029">
        <ele>803.2</ele>
        <time>2019-05-31T11:21:05Z</time>
      </trkpt>
      <trkpt lat="44.11478" lon="3.19031">
        <ele>803</ele>
        <time>2019-05-31T11:21:06Z</time>
      </trkpt>
      <trkpt lat="44.11473" lon="3.19033">
        <ele>802.6</ele>
        <time>2019-05-31T11:21:08Z</time>
      </trkpt>
      <trkpt lat="44.1147" lon="3.19034">
        <ele>802.4</ele>
        <time>2019-05-31T11:21:09Z</time>
      </trkpt>
      <trkpt lat="44.11467" lon="3.19036">
        <ele>802.1</ele>
        <time>2019-05-31T11:21:10Z</time>
      </trkpt>
      <trkpt lat="44.11464" lon="3.19038">
        <ele>801.9</ele>
        <time>2019-05-31T11:21:11Z</time>
      </trkpt>
      <trkpt lat="44.1146" lon="3.1904">
        <ele>801.5</ele>
        <time>2019-05-31T11:21:12Z</time>
      </trkpt>
      <trkpt lat="44.11456" lon="3.19042">
        <ele>801.1</ele>
        <time>2019-05-31T11:21:13Z</time>
      </trkpt>
      <trkpt lat="44.11453" lon="3.19044">
        <ele>800.8</ele>
        <time>2019-05-31T11:21:14Z</time>
      </trkpt>
      <trkpt lat="44.11451" lon="3.19049">
        <ele>800.4</ele>
        <time>2019-05-31T11:21:16Z</time>
      </trkpt>
      <trkpt lat="44.11451" lon="3.19053">
        <ele>800.2</ele>
        <time>2019-05-31T11:21:18Z</time>
      </trkpt>
      <trkpt lat="44.11451" lon="3.19057">
        <ele>800</ele>
        <time>2019-05-31T11:21:20Z</time>
      </trkpt>
      <trkpt lat="44.11448" lon="3.1906">
        <ele>799.8</ele>
        <time>2019-05-31T11:21:22Z</time>
      </trkpt>
      <trkpt lat="44.11443" lon="3.19063">
        <ele>799.5</ele>
        <time>2019-05-31T11:21:24Z</time>
      </trkpt>
      <trkpt lat="44.1144" lon="3.19065">
        <ele>799.4</ele>
        <time>2019-05-31T11:21:25Z</time>
      </trkpt>
      <trkpt lat="44.11437" lon="3.19066">
        <ele>799.2</ele>
        <time>2019-05-31T11:21:27Z</time>
      </trkpt>
      <trkpt lat="44.11434" lon="3.19067">
        <ele>799.1</ele>
        <time>2019-05-31T11:21:29Z</time>
      </trkpt>
      <trkpt lat="44.1143" lon="3.1907">
        <ele>799</ele>
        <time>2019-05-31T11:21:31Z</time>
      </trkpt>
      <trkpt lat="44.11428" lon="3.19074">
        <ele>798.8</ele>
        <time>2019-05-31T11:21:34Z</time>
      </trkpt>
      <trkpt lat="44.11425" lon="3.19075">
        <ele>798.7</ele>
        <time>2019-05-31T11:21:38Z</time>
      </trkpt>
      <trkpt lat="44.11423" lon="3.19078">
        <ele>798.6</ele>
        <time>2019-05-31T11:21:42Z</time>
      </trkpt>
      <trkpt lat="44.11421" lon="3.19082">
        <ele>798.5</ele>
        <time>2019-05-31T11:21:47Z</time>
      </trkpt>
      <trkpt lat="44.11421" lon="3.19086">
        <ele>798.4</ele>
        <time>2019-05-31T11:21:50Z</time>
      </trkpt>
      <trkpt lat="44.1142" lon="3.19089">
        <ele>798.3</ele>
        <time>2019-05-31T11:21:52Z</time>
      </trkpt>
      <trkpt lat="44.11419" lon="3.19094">
        <ele>798.3</ele>
        <time>2019-05-31T11:21:54Z</time>
      </trkpt>
      <trkpt lat="44.11418" lon="3.19097">
        <ele>798.2</ele>
        <time>2019-05-31T11:21:56Z</time>
      </trkpt>
      <trkpt lat="44.11416" lon="3.19105">
        <ele>798.1</ele>
        <time>2019-05-31T11:22:07Z</time>
      </trkpt>
      <trkpt lat="44.11417" lon="3.1911">
        <ele>798</ele>
        <time>2019-05-31T11:22:09Z</time>
      </trkpt>
      <trkpt lat="44.11418" lon="3.19114">
        <ele>798</ele>
        <time>2019-05-31T11:22:10Z</time>
      </trkpt>
      <trkpt lat="44.11419" lon="3.19119">
        <ele>797.9</ele>
        <time>2019-05-31T11:22:11Z</time>
      </trkpt>
      <trkpt lat="44.1142" lon="3.19124">
        <ele>797.7</ele>
        <time>2019-05-31T11:22:12Z</time>
      </trkpt>
      <trkpt lat="44.11419" lon="3.19129">
        <ele>797.6</ele>
        <time>2019-05-31T11:22:13Z</time>
      </trkpt>
      <trkpt lat="44.11417" lon="3.19135">
        <ele>797.3</ele>
        <time>2019-05-31T11:22:14Z</time>
      </trkpt>
      <trkpt lat="44.11415" lon="3.19139">
        <ele>797.1</ele>
        <time>2019-05-31T11:22:15Z</time>
      </trkpt>
      <trkpt lat="44.11412" lon="3.19142">
        <ele>797</ele>
        <time>2019-05-31T11:22:16Z</time>
      </trkpt>
      <trkpt lat="44.11407" lon="3.19144">
        <ele>796.7</ele>
        <time>2019-05-31T11:22:18Z</time>
      </trkpt>
      <trkpt lat="44.11402" lon="3.19142">
        <ele>796.4</ele>
        <time>2019-05-31T11:22:20Z</time>
      </trkpt>
      <trkpt lat="44.114" lon="3.19141">
        <ele>796.3</ele>
        <time>2019-05-31T11:22:21Z</time>
      </trkpt>
      <trkpt lat="44.11394" lon="3.19141">
        <ele>796</ele>
        <time>2019-05-31T11:22:23Z</time>
      </trkpt>
      <trkpt lat="44.11391" lon="3.19143">
        <ele>795.9</ele>
        <time>2019-05-31T11:22:24Z</time>
      </trkpt>
      <trkpt lat="44.11388" lon="3.19145">
        <ele>795.6</ele>
        <time>2019-05-31T11:22:26Z</time>
      </trkpt>
      <trkpt lat="44.11385" lon="3.19146">
        <ele>795.5</ele>
        <time>2019-05-31T11:22:28Z</time>
      </trkpt>
      <trkpt lat="44.11378" lon="3.19148">
        <ele>795.1</ele>
        <time>2019-05-31T11:23:14Z</time>
      </trkpt>
      <trkpt lat="44.11376" lon="3.19151">
        <ele>795</ele>
        <time>2019-05-31T11:23:17Z</time>
      </trkpt>
      <trkpt lat="44.11374" lon="3.19154">
        <ele>794.9</ele>
        <time>2019-05-31T11:23:21Z</time>
      </trkpt>
      <trkpt lat="44.1137" lon="3.19157">
        <ele>794.9</ele>
        <time>2019-05-31T11:23:23Z</time>
      </trkpt>
      <trkpt lat="44.11368" lon="3.19159">
        <ele>794.9</ele>
        <time>2019-05-31T11:23:24Z</time>
      </trkpt>
      <trkpt lat="44.11364" lon="3.19163">
        <ele>795.1</ele>
        <time>2019-05-31T11:23:26Z</time>
      </trkpt>
      <trkpt lat="44.11361" lon="3.19165">
        <ele>795.3</ele>
        <time>2019-05-31T11:23:27Z</time>
      </trkpt>
      <trkpt lat="44.11357" lon="3.19166">
        <ele>795.7</ele>
        <time>2019-05-31T11:23:29Z</time>
      </trkpt>
      <trkpt lat="44.11354" lon="3.19167">
        <ele>796</ele>
        <time>2019-05-31T11:23:31Z</time>
      </trkpt>
      <trkpt lat="44.1135" lon="3.19173">
        <ele>796.7</ele>
        <time>2019-05-31T11:23:43Z</time>
      </trkpt>
      <trkpt lat="44.11348" lon="3.19177">
        <ele>797</ele>
        <time>2019-05-31T11:23:44Z</time>
      </trkpt>
      <trkpt lat="44.11346" lon="3.1918">
        <ele>797.2</ele>
        <time>2019-05-31T11:23:45Z</time>
      </trkpt>
      <trkpt lat="44.11345" lon="3.19184">
        <ele>797.3</ele>
        <time>2019-05-31T11:23:46Z</time>
      </trkpt>
      <trkpt lat="44.11342" lon="3.1919">
        <ele>797.4</ele>
        <time>2019-05-31T11:23:48Z</time>
      </trkpt>
      <trkpt lat="44.11338" lon="3.19194">
        <ele>797.5</ele>
        <time>2019-05-31T11:23:50Z</time>
      </trkpt>
      <trkpt lat="44.11334" lon="3.19195">
        <ele>797.4</ele>
        <time>2019-05-31T11:23:52Z</time>
      </trkpt>
      <trkpt lat="44.11331" lon="3.19198">
        <ele>797.1</ele>
        <time>2019-05-31T11:24:11Z</time>
      </trkpt>
      <trkpt lat="44.11328" lon="3.192">
        <ele>796.8</ele>
        <time>2019-05-31T11:24:12Z</time>
      </trkpt>
      <trkpt lat="44.11326" lon="3.19202">
        <ele>796.5</ele>
        <time>2019-05-31T11:24:13Z</time>
      </trkpt>
      <trkpt lat="44.11323" lon="3.19204">
        <ele>796</ele>
        <time>2019-05-31T11:24:15Z</time>
      </trkpt>
      <trkpt lat="44.1132" lon="3.19208">
        <ele>795.2</ele>
        <time>2019-05-31T11:24:17Z</time>
      </trkpt>
      <trkpt lat="44.11318" lon="3.19211">
        <ele>794.7</ele>
        <time>2019-05-31T11:24:18Z</time>
      </trkpt>
      <trkpt lat="44.11315" lon="3.19214">
        <ele>794.1</ele>
        <time>2019-05-31T11:24:19Z</time>
      </trkpt>
      <trkpt lat="44.11311" lon="3.19217">
        <ele>793.4</ele>
        <time>2019-05-31T11:24:20Z</time>
      </trkpt>
      <trkpt lat="44.11309" lon="3.19219">
        <ele>792.9</ele>
        <time>2019-05-31T11:24:21Z</time>
      </trkpt>
      <trkpt lat="44.11306" lon="3.19222">
        <ele>792.2</ele>
        <time>2019-05-31T11:24:23Z</time>
      </trkpt>
      <trkpt lat="44.11305" lon="3.19228">
        <ele>791.2</ele>
        <time>2019-05-31T11:24:25Z</time>
      </trkpt>
      <trkpt lat="44.11303" lon="3.19231">
        <ele>790.6</ele>
        <time>2019-05-31T11:24:26Z</time>
      </trkpt>
      <trkpt lat="44.11301" lon="3.19239">
        <ele>788.9</ele>
        <time>2019-05-31T11:24:28Z</time>
      </trkpt>
      <trkpt lat="44.11301" lon="3.19244">
        <ele>787.6</ele>
        <time>2019-05-31T11:24:29Z</time>
      </trkpt>
      <trkpt lat="44.11301" lon="3.19249">
        <ele>786.1</ele>
        <time>2019-05-31T11:24:30Z</time>
      </trkpt>
      <trkpt lat="44.11301" lon="3.19253">
        <ele>784.8</ele>
        <time>2019-05-31T11:24:31Z</time>
      </trkpt>
      <trkpt lat="44.11301" lon="3.1926">
        <ele>782.5</ele>
        <time>2019-05-31T11:24:33Z</time>
      </trkpt>
      <trkpt lat="44.11302" lon="3.19266">
        <ele>780.2</ele>
        <time>2019-05-31T11:24:35Z</time>
      </trkpt>
      <trkpt lat="44.11302" lon="3.19271">
        <ele>778.7</ele>
        <time>2019-05-31T11:24:36Z</time>
      </trkpt>
      <trkpt lat="44.11302" lon="3.19277">
        <ele>776.5</ele>
        <time>2019-05-31T11:24:37Z</time>
      </trkpt>
      <trkpt lat="44.11301" lon="3.19284">
        <ele>774.1</ele>
        <time>2019-05-31T11:24:38Z</time>
      </trkpt>
      <trkpt lat="44.11301" lon="3.19291">
        <ele>771.7</ele>
        <time>2019-05-31T11:24:39Z</time>
      </trkpt>
      <trkpt lat="44.11303" lon="3.19298">
        <ele>769.4</ele>
        <time>2019-05-31T11:24:40Z</time>
      </trkpt>
      <trkpt lat="44.11305" lon="3.19303">
        <ele>767.6</ele>
        <time>2019-05-31T11:24:41Z</time>
      </trkpt>
      <trkpt lat="44.11307" lon="3.19307">
        <ele>766.2</ele>
        <time>2019-05-31T11:24:42Z</time>
      </trkpt>
      <trkpt lat="44.1131" lon="3.19309">
        <ele>764.5</ele>
        <time>2019-05-31T11:24:44Z</time>
      </trkpt>
      <trkpt lat="44.11313" lon="3.1931">
        <ele>763.2</ele>
        <time>2019-05-31T11:24:46Z</time>
      </trkpt>
      <trkpt lat="44.11317" lon="3.19314">
        <ele>761.8</ele>
        <time>2019-05-31T11:24:48Z</time>
      </trkpt>
      <trkpt lat="44.11321" lon="3.19322">
        <ele>759.9</ele>
        <time>2019-05-31T11:24:50Z</time>
      </trkpt>
      <trkpt lat="44.11323" lon="3.19328">
        <ele>758.8</ele>
        <time>2019-05-31T11:24:51Z</time>
      </trkpt>
      <trkpt lat="44.11326" lon="3.19334">
        <ele>757.8</ele>
        <time>2019-05-31T11:24:52Z</time>
      </trkpt>
      <trkpt lat="44.11336" lon="3.1935">
        <ele>754.9</ele>
        <time>2019-05-31T11:24:53Z</time>
      </trkpt>
      <trkpt lat="44.11338" lon="3.1936">
        <ele>753.3</ele>
        <time>2019-05-31T11:24:54Z</time>
      </trkpt>
      <trkpt lat="44.11346" lon="3.19381">
        <ele>750.2</ele>
        <time>2019-05-31T11:24:55Z</time>
      </trkpt>
      <trkpt lat="44.11353" lon="3.19394">
        <ele>748.3</ele>
        <time>2019-05-31T11:24:56Z</time>
      </trkpt>
      <trkpt lat="44.11359" lon="3.1941">
        <ele>746.4</ele>
        <time>2019-05-31T11:24:57Z</time>
      </trkpt>
      <trkpt lat="44.11364" lon="3.19426">
        <ele>744.5</ele>
        <time>2019-05-31T11:24:58Z</time>
      </trkpt>
      <trkpt lat="44.11372" lon="3.19436">
        <ele>742.9</ele>
        <time>2019-05-31T11:24:59Z</time>
      </trkpt>
      <trkpt lat="44.11378" lon="3.19451">
        <ele>741.2</ele>
        <time>2019-05-31T11:25:00Z</time>
      </trkpt>
      <trkpt lat="44.11383" lon="3.19464">
        <ele>739.8</ele>
        <time>2019-05-31T11:25:01Z</time>
      </trkpt>
      <trkpt lat="44.11384" lon="3.19471">
        <ele>739.1</ele>
        <time>2019-05-31T11:25:02Z</time>
      </trkpt>
      <trkpt lat="44.11376" lon="3.1947">
        <ele>738.4</ele>
        <time>2019-05-31T11:25:03Z</time>
      </trkpt>
      <trkpt lat="44.11374" lon="3.19475">
        <ele>738.2</ele>
        <time>2019-05-31T11:25:04Z</time>
      </trkpt>
      <trkpt lat="44.11371" lon="3.19481">
        <ele>738.1</ele>
        <time>2019-05-31T11:25:05Z</time>
      </trkpt>
      <trkpt lat="44.11371" lon="3.19492">
        <ele>737.9</ele>
        <time>2019-05-31T11:25:06Z</time>
      </trkpt>
      <trkpt lat="44.11368" lon="3.19497">
        <ele>737.9</ele>
        <time>2019-05-31T11:25:07Z</time>
      </trkpt>
      <trkpt lat="44.11365" lon="3.19504">
        <ele>737.9</ele>
        <time>2019-05-31T11:25:08Z</time>
      </trkpt>
      <trkpt lat="44.11363" lon="3.19511">
        <ele>738</ele>
        <time>2019-05-31T11:25:09Z</time>
      </trkpt>
      <trkpt lat="44.11363" lon="3.19518">
        <ele>738.1</ele>
        <time>2019-05-31T11:25:10Z</time>
      </trkpt>
      <trkpt lat="44.11362" lon="3.19525">
        <ele>738.3</ele>
        <time>2019-05-31T11:25:11Z</time>
      </trkpt>
      <trkpt lat="44.11359" lon="3.19535">
        <ele>738.6</ele>
        <time>2019-05-31T11:25:12Z</time>
      </trkpt>
      <trkpt lat="44.11358" lon="3.19543">
        <ele>738.9</ele>
        <time>2019-05-31T11:25:13Z</time>
      </trkpt>
      <trkpt lat="44.11362" lon="3.19549">
        <ele>739.3</ele>
        <time>2019-05-31T11:25:14Z</time>
      </trkpt>
      <trkpt lat="44.11361" lon="3.19555">
        <ele>739.5</ele>
        <time>2019-05-31T11:25:15Z</time>
      </trkpt>
      <trkpt lat="44.11359" lon="3.1956">
        <ele>739.7</ele>
        <time>2019-05-31T11:25:16Z</time>
      </trkpt>
      <trkpt lat="44.1136" lon="3.19567">
        <ele>739.8</ele>
        <time>2019-05-31T11:25:17Z</time>
      </trkpt>
      <trkpt lat="44.11359" lon="3.19572">
        <ele>739.9</ele>
        <time>2019-05-31T11:25:18Z</time>
      </trkpt>
      <trkpt lat="44.11359" lon="3.19578">
        <ele>740</ele>
        <time>2019-05-31T11:25:19Z</time>
      </trkpt>
      <trkpt lat="44.11356" lon="3.19585">
        <ele>740</ele>
        <time>2019-05-31T11:25:21Z</time>
      </trkpt>
      <trkpt lat="44.11356" lon="3.1959">
        <ele>740</ele>
        <time>2019-05-31T11:25:22Z</time>
      </trkpt>
      <trkpt lat="44.11354" lon="3.19595">
        <ele>740</ele>
        <time>2019-05-31T11:25:23Z</time>
      </trkpt>
      <trkpt lat="44.11352" lon="3.196">
        <ele>740</ele>
        <time>2019-05-31T11:25:24Z</time>
      </trkpt>
      <trkpt lat="44.1135" lon="3.19604">
        <ele>740</ele>
        <time>2019-05-31T11:25:25Z</time>
      </trkpt>
      <trkpt lat="44.11348" lon="3.19608">
        <ele>739.9</ele>
        <time>2019-05-31T11:25:26Z</time>
      </trkpt>
      <trkpt lat="44.11347" lon="3.19613">
        <ele>739.9</ele>
        <time>2019-05-31T11:25:27Z</time>
      </trkpt>
      <trkpt lat="44.11346" lon="3.19618">
        <ele>739.9</ele>
        <time>2019-05-31T11:25:28Z</time>
      </trkpt>
      <trkpt lat="44.11344" lon="3.19622">
        <ele>739.8</ele>
        <time>2019-05-31T11:25:29Z</time>
      </trkpt>
      <trkpt lat="44.11343" lon="3.19627">
        <ele>739.7</ele>
        <time>2019-05-31T11:25:30Z</time>
      </trkpt>
      <trkpt lat="44.11341" lon="3.19633">
        <ele>739.5</ele>
        <time>2019-05-31T11:25:31Z</time>
      </trkpt>
      <trkpt lat="44.11339" lon="3.19638">
        <ele>739.3</ele>
        <time>2019-05-31T11:25:32Z</time>
      </trkpt>
      <trkpt lat="44.11338" lon="3.19644">
        <ele>739</ele>
        <time>2019-05-31T11:25:33Z</time>
      </trkpt>
      <trkpt lat="44.11338" lon="3.19652">
        <ele>738.7</ele>
        <time>2019-05-31T11:25:34Z</time>
      </trkpt>
      <trkpt lat="44.11339" lon="3.1966">
        <ele>738.5</ele>
        <time>2019-05-31T11:25:35Z</time>
      </trkpt>
      <trkpt lat="44.1134" lon="3.19667">
        <ele>738.2</ele>
        <time>2019-05-31T11:25:36Z</time>
      </trkpt>
      <trkpt lat="44.1134" lon="3.19674">
        <ele>738</ele>
        <time>2019-05-31T11:25:37Z</time>
      </trkpt>
      <trkpt lat="44.1134" lon="3.19681">
        <ele>737.8</ele>
        <time>2019-05-31T11:25:38Z</time>
      </trkpt>
      <trkpt lat="44.11339" lon="3.19687">
        <ele>737.5</ele>
        <time>2019-05-31T11:25:39Z</time>
      </trkpt>
      <trkpt lat="44.11338" lon="3.19692">
        <ele>737.3</ele>
        <time>2019-05-31T11:25:40Z</time>
      </trkpt>
      <trkpt lat="44.11337" lon="3.19698">
        <ele>737.1</ele>
        <time>2019-05-31T11:25:41Z</time>
      </trkpt>
      <trkpt lat="44.11336" lon="3.19704">
        <ele>736.9</ele>
        <time>2019-05-31T11:25:42Z</time>
      </trkpt>
      <trkpt lat="44.11334" lon="3.19711">
        <ele>736.4</ele>
        <time>2019-05-31T11:25:43Z</time>
      </trkpt>
      <trkpt lat="44.1133" lon="3.19725">
        <ele>735.7</ele>
        <time>2019-05-31T11:25:44Z</time>
      </trkpt>
      <trkpt lat="44.1133" lon="3.19732">
        <ele>735.4</ele>
        <time>2019-05-31T11:25:45Z</time>
      </trkpt>
      <trkpt lat="44.11328" lon="3.19736">
        <ele>735.2</ele>
        <time>2019-05-31T11:25:46Z</time>
      </trkpt>
      <trkpt lat="44.11327" lon="3.19741">
        <ele>735</ele>
        <time>2019-05-31T11:25:47Z</time>
      </trkpt>
      <trkpt lat="44.11327" lon="3.19744">
        <ele>734.7</ele>
        <time>2019-05-31T11:25:48Z</time>
      </trkpt>
      <trkpt lat="44.11326" lon="3.1975">
        <ele>734.2</ele>
        <time>2019-05-31T11:25:49Z</time>
      </trkpt>
      <trkpt lat="44.11326" lon="3.19758">
        <ele>733.8</ele>
        <time>2019-05-31T11:25:50Z</time>
      </trkpt>
      <trkpt lat="44.11326" lon="3.19765">
        <ele>733.3</ele>
        <time>2019-05-31T11:25:51Z</time>
      </trkpt>
      <trkpt lat="44.11326" lon="3.19771">
        <ele>732.9</ele>
        <time>2019-05-31T11:25:52Z</time>
      </trkpt>
      <trkpt lat="44.11323" lon="3.19777">
        <ele>732.2</ele>
        <time>2019-05-31T11:25:53Z</time>
      </trkpt>
      <trkpt lat="44.1132" lon="3.19784">
        <ele>731.5</ele>
        <time>2019-05-31T11:25:54Z</time>
      </trkpt>
      <trkpt lat="44.11316" lon="3.19789">
        <ele>731</ele>
        <time>2019-05-31T11:25:55Z</time>
      </trkpt>
      <trkpt lat="44.11315" lon="3.19799">
        <ele>730.4</ele>
        <time>2019-05-31T11:25:56Z</time>
      </trkpt>
      <trkpt lat="44.11315" lon="3.19807">
        <ele>729.8</ele>
        <time>2019-05-31T11:25:57Z</time>
      </trkpt>
      <trkpt lat="44.11316" lon="3.19812">
        <ele>729.4</ele>
        <time>2019-05-31T11:25:58Z</time>
      </trkpt>
      <trkpt lat="44.11316" lon="3.19817">
        <ele>728.9</ele>
        <time>2019-05-31T11:25:59Z</time>
      </trkpt>
      <trkpt lat="44.11317" lon="3.19824">
        <ele>728.3</ele>
        <time>2019-05-31T11:26:00Z</time>
      </trkpt>
      <trkpt lat="44.1132" lon="3.19833">
        <ele>727.9</ele>
        <time>2019-05-31T11:26:01Z</time>
      </trkpt>
      <trkpt lat="44.11323" lon="3.19839">
        <ele>727.7</ele>
        <time>2019-05-31T11:26:02Z</time>
      </trkpt>
      <trkpt lat="44.11327" lon="3.19843">
        <ele>727.4</ele>
        <time>2019-05-31T11:26:03Z</time>
      </trkpt>
      <trkpt lat="44.11329" lon="3.1985">
        <ele>727.1</ele>
        <time>2019-05-31T11:26:04Z</time>
      </trkpt>
      <trkpt lat="44.11332" lon="3.19854">
        <ele>726.9</ele>
        <time>2019-05-31T11:26:05Z</time>
      </trkpt>
      <trkpt lat="44.11335" lon="3.19858">
        <ele>726.9</ele>
        <time>2019-05-31T11:26:06Z</time>
      </trkpt>
      <trkpt lat="44.11337" lon="3.19861">
        <ele>726.8</ele>
        <time>2019-05-31T11:26:07Z</time>
      </trkpt>
      <trkpt lat="44.11339" lon="3.19864">
        <ele>726.7</ele>
        <time>2019-05-31T11:26:08Z</time>
      </trkpt>
      <trkpt lat="44.11342" lon="3.19867">
        <ele>726.6</ele>
        <time>2019-05-31T11:26:09Z</time>
      </trkpt>
      <trkpt lat="44.11344" lon="3.19871">
        <ele>726.5</ele>
        <time>2019-05-31T11:26:10Z</time>
      </trkpt>
      <trkpt lat="44.11348" lon="3.19874">
        <ele>726.4</ele>
        <time>2019-05-31T11:26:11Z</time>
      </trkpt>
      <trkpt lat="44.11351" lon="3.19877">
        <ele>726.3</ele>
        <time>2019-05-31T11:26:12Z</time>
      </trkpt>
      <trkpt lat="44.11354" lon="3.19879">
        <ele>726.2</ele>
        <time>2019-05-31T11:26:13Z</time>
      </trkpt>
      <trkpt lat="44.11357" lon="3.19882">
        <ele>726.2</ele>
        <time>2019-05-31T11:26:14Z</time>
      </trkpt>
      <trkpt lat="44.11361" lon="3.19884">
        <ele>726.1</ele>
        <time>2019-05-31T11:26:15Z</time>
      </trkpt>
      <trkpt lat="44.11364" lon="3.19886">
        <ele>726</ele>
        <time>2019-05-31T11:26:16Z</time>
      </trkpt>
      <trkpt lat="44.11368" lon="3.19888">
        <ele>725.9</ele>
        <time>2019-05-31T11:26:17Z</time>
      </trkpt>
      <trkpt lat="44.11372" lon="3.1989">
        <ele>725.9</ele>
        <time>2019-05-31T11:26:18Z</time>
      </trkpt>
      <trkpt lat="44.11375" lon="3.19892">
        <ele>725.9</ele>
        <time>2019-05-31T11:26:19Z</time>
      </trkpt>
      <trkpt lat="44.11378" lon="3.19895">
        <ele>725.9</ele>
        <time>2019-05-31T11:26:20Z</time>
      </trkpt>
      <trkpt lat="44.11381" lon="3.19898">
        <ele>725.9</ele>
        <time>2019-05-31T11:26:21Z</time>
      </trkpt>
      <trkpt lat="44.11384" lon="3.19901">
        <ele>725.8</ele>
        <time>2019-05-31T11:26:22Z</time>
      </trkpt>
      <trkpt lat="44.11388" lon="3.19902">
        <ele>725.8</ele>
        <time>2019-05-31T11:26:23Z</time>
      </trkpt>
      <trkpt lat="44.11391" lon="3.19903">
        <ele>725.8</ele>
        <time>2019-05-31T11:26:24Z</time>
      </trkpt>
      <trkpt lat="44.11394" lon="3.19904">
        <ele>725.8</ele>
        <time>2019-05-31T11:26:25Z</time>
      </trkpt>
      <trkpt lat="44.11398" lon="3.19905">
        <ele>725.8</ele>
        <time>2019-05-31T11:26:27Z</time>
      </trkpt>
      <trkpt lat="44.11401" lon="3.19908">
        <ele>725.8</ele>
        <time>2019-05-31T11:26:28Z</time>
      </trkpt>
      <trkpt lat="44.11404" lon="3.19912">
        <ele>725.7</ele>
        <time>2019-05-31T11:26:29Z</time>
      </trkpt>
      <trkpt lat="44.11407" lon="3.19916">
        <ele>725.6</ele>
        <time>2019-05-31T11:26:30Z</time>
      </trkpt>
      <trkpt lat="44.1141" lon="3.1992">
        <ele>725.5</ele>
        <time>2019-05-31T11:26:31Z</time>
      </trkpt>
      <trkpt lat="44.11412" lon="3.19925">
        <ele>725.3</ele>
        <time>2019-05-31T11:26:32Z</time>
      </trkpt>
      <trkpt lat="44.11415" lon="3.19929">
        <ele>725.2</ele>
        <time>2019-05-31T11:26:33Z</time>
      </trkpt>
      <trkpt lat="44.11417" lon="3.19934">
        <ele>725</ele>
        <time>2019-05-31T11:26:34Z</time>
      </trkpt>
      <trkpt lat="44.1142" lon="3.19938">
        <ele>724.8</ele>
        <time>2019-05-31T11:26:35Z</time>
      </trkpt>
      <trkpt lat="44.11421" lon="3.19944">
        <ele>724.5</ele>
        <time>2019-05-31T11:26:36Z</time>
      </trkpt>
      <trkpt lat="44.11422" lon="3.19949">
        <ele>724.3</ele>
        <time>2019-05-31T11:26:37Z</time>
      </trkpt>
      <trkpt lat="44.11422" lon="3.19955">
        <ele>724.1</ele>
        <time>2019-05-31T11:26:38Z</time>
      </trkpt>
      <trkpt lat="44.11423" lon="3.19961">
        <ele>723.9</ele>
        <time>2019-05-31T11:26:39Z</time>
      </trkpt>
      <trkpt lat="44.11428" lon="3.19967">
        <ele>723.5</ele>
        <time>2019-05-31T11:26:40Z</time>
      </trkpt>
      <trkpt lat="44.1143" lon="3.19974">
        <ele>723</ele>
        <time>2019-05-31T11:26:41Z</time>
      </trkpt>
      <trkpt lat="44.11431" lon="3.19979">
        <ele>722.6</ele>
        <time>2019-05-31T11:26:42Z</time>
      </trkpt>
      <trkpt lat="44.1143" lon="3.19986">
        <ele>722.3</ele>
        <time>2019-05-31T11:26:43Z</time>
      </trkpt>
      <trkpt lat="44.1143" lon="3.19991">
        <ele>722</ele>
        <time>2019-05-31T11:26:45Z</time>
      </trkpt>
      <trkpt lat="44.11426" lon="3.19991">
        <ele>721.6</ele>
        <time>2019-05-31T11:26:46Z</time>
      </trkpt>
      <trkpt lat="44.11423" lon="3.19991">
        <ele>721.4</ele>
        <time>2019-05-31T11:26:47Z</time>
      </trkpt>
      <trkpt lat="44.1142" lon="3.19994">
        <ele>721</ele>
        <time>2019-05-31T11:26:48Z</time>
      </trkpt>
      <trkpt lat="44.11414" lon="3.19994">
        <ele>720.4</ele>
        <time>2019-05-31T11:26:50Z</time>
      </trkpt>
      <trkpt lat="44.11407" lon="3.19998">
        <ele>719.7</ele>
        <time>2019-05-31T11:26:52Z</time>
      </trkpt>
      <trkpt lat="44.11402" lon="3.20003">
        <ele>719.3</ele>
        <time>2019-05-31T11:26:53Z</time>
      </trkpt>
      <trkpt lat="44.11399" lon="3.20008">
        <ele>718.8</ele>
        <time>2019-05-31T11:26:54Z</time>
      </trkpt>
      <trkpt lat="44.11392" lon="3.20016">
        <ele>717.7</ele>
        <time>2019-05-31T11:26:55Z</time>
      </trkpt>
      <trkpt lat="44.11386" lon="3.2002">
        <ele>717.1</ele>
        <time>2019-05-31T11:26:56Z</time>
      </trkpt>
      <trkpt lat="44.11381" lon="3.20026">
        <ele>716.3</ele>
        <time>2019-05-31T11:26:57Z</time>
      </trkpt>
      <trkpt lat="44.11376" lon="3.2003">
        <ele>715.7</ele>
        <time>2019-05-31T11:26:58Z</time>
      </trkpt>
      <trkpt lat="44.11368" lon="3.20038">
        <ele>714.5</ele>
        <time>2019-05-31T11:26:59Z</time>
      </trkpt>
      <trkpt lat="44.11363" lon="3.20046">
        <ele>713.6</ele>
        <time>2019-05-31T11:27:00Z</time>
      </trkpt>
      <trkpt lat="44.11358" lon="3.20055">
        <ele>712.7</ele>
        <time>2019-05-31T11:27:01Z</time>
      </trkpt>
      <trkpt lat="44.11352" lon="3.20064">
        <ele>711.6</ele>
        <time>2019-05-31T11:27:02Z</time>
      </trkpt>
      <trkpt lat="44.11344" lon="3.20075">
        <ele>710.2</ele>
        <time>2019-05-31T11:27:03Z</time>
      </trkpt>
      <trkpt lat="44.1134" lon="3.2008">
        <ele>709.5</ele>
        <time>2019-05-31T11:27:04Z</time>
      </trkpt>
      <trkpt lat="44.11335" lon="3.20087">
        <ele>708.6</ele>
        <time>2019-05-31T11:27:05Z</time>
      </trkpt>
      <trkpt lat="44.11327" lon="3.20096">
        <ele>707.3</ele>
        <time>2019-05-31T11:27:06Z</time>
      </trkpt>
      <trkpt lat="44.11323" lon="3.20105">
        <ele>706.3</ele>
        <time>2019-05-31T11:27:07Z</time>
      </trkpt>
      <trkpt lat="44.11315" lon="3.20114">
        <ele>705.2</ele>
        <time>2019-05-31T11:27:08Z</time>
      </trkpt>
      <trkpt lat="44.11309" lon="3.20122">
        <ele>704.2</ele>
        <time>2019-05-31T11:27:09Z</time>
      </trkpt>
      <trkpt lat="44.11302" lon="3.20135">
        <ele>702.8</ele>
        <time>2019-05-31T11:27:10Z</time>
      </trkpt>
      <trkpt lat="44.11295" lon="3.2015">
        <ele>701.4</ele>
        <time>2019-05-31T11:27:11Z</time>
      </trkpt>
      <trkpt lat="44.11288" lon="3.2016">
        <ele>700.1</ele>
        <time>2019-05-31T11:27:12Z</time>
      </trkpt>
      <trkpt lat="44.1128" lon="3.20166">
        <ele>698.6</ele>
        <time>2019-05-31T11:27:13Z</time>
      </trkpt>
      <trkpt lat="44.11273" lon="3.20177">
        <ele>696.9</ele>
        <time>2019-05-31T11:27:14Z</time>
      </trkpt>
      <trkpt lat="44.11268" lon="3.20178">
        <ele>696.2</ele>
        <time>2019-05-31T11:27:16Z</time>
      </trkpt>
      <trkpt lat="44.11266" lon="3.20174">
        <ele>695.7</ele>
        <time>2019-05-31T11:27:17Z</time>
      </trkpt>
      <trkpt lat="44.11264" lon="3.20172">
        <ele>695.2</ele>
        <time>2019-05-31T11:27:18Z</time>
      </trkpt>
      <trkpt lat="44.11262" lon="3.20168">
        <ele>694.5</ele>
        <time>2019-05-31T11:27:19Z</time>
      </trkpt>
      <trkpt lat="44.11258" lon="3.20167">
        <ele>693.8</ele>
        <time>2019-05-31T11:27:20Z</time>
      </trkpt>
      <trkpt lat="44.11255" lon="3.20166">
        <ele>693.2</ele>
        <time>2019-05-31T11:27:21Z</time>
      </trkpt>
      <trkpt lat="44.11252" lon="3.20165">
        <ele>692.4</ele>
        <time>2019-05-31T11:27:22Z</time>
      </trkpt>
      <trkpt lat="44.11247" lon="3.20164">
        <ele>691.4</ele>
        <time>2019-05-31T11:27:24Z</time>
      </trkpt>
      <trkpt lat="44.11243" lon="3.20164">
        <ele>690.6</ele>
        <time>2019-05-31T11:27:26Z</time>
      </trkpt>
      <trkpt lat="44.1124" lon="3.20164">
        <ele>690</ele>
        <time>2019-05-31T11:27:27Z</time>
      </trkpt>
      <trkpt lat="44.11236" lon="3.20163">
        <ele>689.2</ele>
        <time>2019-05-31T11:27:28Z</time>
      </trkpt>
      <trkpt lat="44.1123" lon="3.20164">
        <ele>688</ele>
        <time>2019-05-31T11:27:29Z</time>
      </trkpt>
      <trkpt lat="44.11225" lon="3.20161">
        <ele>686.9</ele>
        <time>2019-05-31T11:27:30Z</time>
      </trkpt>
      <trkpt lat="44.11219" lon="3.20155">
        <ele>685.6</ele>
        <time>2019-05-31T11:27:31Z</time>
      </trkpt>
      <trkpt lat="44.11213" lon="3.2015">
        <ele>684.3</ele>
        <time>2019-05-31T11:27:32Z</time>
      </trkpt>
      <trkpt lat="44.1122" lon="3.20146">
        <ele>682.9</ele>
        <time>2019-05-31T11:27:33Z</time>
      </trkpt>
      <trkpt lat="44.11223" lon="3.2014">
        <ele>681.7</ele>
        <time>2019-05-31T11:27:34Z</time>
      </trkpt>
      <trkpt lat="44.11224" lon="3.20134">
        <ele>680.8</ele>
        <time>2019-05-31T11:27:35Z</time>
      </trkpt>
      <trkpt lat="44.11226" lon="3.20128">
        <ele>679.8</ele>
        <time>2019-05-31T11:27:36Z</time>
      </trkpt>
      <trkpt lat="44.11216" lon="3.20127">
        <ele>677.6</ele>
        <time>2019-05-31T11:27:38Z</time>
      </trkpt>
      <trkpt lat="44.11207" lon="3.20126">
        <ele>675.8</ele>
        <time>2019-05-31T11:27:40Z</time>
      </trkpt>
      <trkpt lat="44.11202" lon="3.20122">
        <ele>674.4</ele>
        <time>2019-05-31T11:27:41Z</time>
      </trkpt>
      <trkpt lat="44.11191" lon="3.20118">
        <ele>672.7</ele>
        <time>2019-05-31T11:27:42Z</time>
      </trkpt>
      <trkpt lat="44.11185" lon="3.20115">
        <ele>671.6</ele>
        <time>2019-05-31T11:27:43Z</time>
      </trkpt>
      <trkpt lat="44.11177" lon="3.20112">
        <ele>670.3</ele>
        <time>2019-05-31T11:27:44Z</time>
      </trkpt>
      <trkpt lat="44.11171" lon="3.2011">
        <ele>669.2</ele>
        <time>2019-05-31T11:27:45Z</time>
      </trkpt>
      <trkpt lat="44.11163" lon="3.20112">
        <ele>668.2</ele>
        <time>2019-05-31T11:27:46Z</time>
      </trkpt>
      <trkpt lat="44.11159" lon="3.20119">
        <ele>667.5</ele>
        <time>2019-05-31T11:27:47Z</time>
      </trkpt>
      <trkpt lat="44.11155" lon="3.20126">
        <ele>667</ele>
        <time>2019-05-31T11:27:48Z</time>
      </trkpt>
      <trkpt lat="44.1115" lon="3.20128">
        <ele>666.5</ele>
        <time>2019-05-31T11:27:49Z</time>
      </trkpt>
      <trkpt lat="44.11146" lon="3.20132">
        <ele>666.1</ele>
        <time>2019-05-31T11:27:50Z</time>
      </trkpt>
      <trkpt lat="44.11142" lon="3.20135">
        <ele>665.7</ele>
        <time>2019-05-31T11:27:51Z</time>
      </trkpt>
      <trkpt lat="44.11137" lon="3.20138">
        <ele>665.2</ele>
        <time>2019-05-31T11:27:52Z</time>
      </trkpt>
      <trkpt lat="44.11132" lon="3.20141">
        <ele>664.7</ele>
        <time>2019-05-31T11:27:53Z</time>
      </trkpt>
      <trkpt lat="44.1112" lon="3.20151">
        <ele>663.2</ele>
        <time>2019-05-31T11:27:54Z</time>
      </trkpt>
      <trkpt lat="44.11117" lon="3.20157">
        <ele>662.7</ele>
        <time>2019-05-31T11:27:55Z</time>
      </trkpt>
      <trkpt lat="44.11116" lon="3.20165">
        <ele>662.3</ele>
        <time>2019-05-31T11:27:56Z</time>
      </trkpt>
      <trkpt lat="44.11113" lon="3.20175">
        <ele>661.8</ele>
        <time>2019-05-31T11:27:57Z</time>
      </trkpt>
      <trkpt lat="44.11107" lon="3.20182">
        <ele>661.6</ele>
        <time>2019-05-31T11:27:58Z</time>
      </trkpt>
      <trkpt lat="44.11105" lon="3.20191">
        <ele>661.4</ele>
        <time>2019-05-31T11:27:59Z</time>
      </trkpt>
      <trkpt lat="44.11102" lon="3.20198">
        <ele>661.2</ele>
        <time>2019-05-31T11:28:00Z</time>
      </trkpt>
      <trkpt lat="44.11105" lon="3.20206">
        <ele>661.2</ele>
        <time>2019-05-31T11:28:01Z</time>
      </trkpt>
      <trkpt lat="44.11108" lon="3.20213">
        <ele>661.1</ele>
        <time>2019-05-31T11:28:02Z</time>
      </trkpt>
      <trkpt lat="44.1111" lon="3.20218">
        <ele>661.1</ele>
        <time>2019-05-31T11:28:03Z</time>
      </trkpt>
      <trkpt lat="44.1111" lon="3.20224">
        <ele>661.1</ele>
        <time>2019-05-31T11:28:04Z</time>
      </trkpt>
      <trkpt lat="44.1111" lon="3.2023">
        <ele>661.1</ele>
        <time>2019-05-31T11:28:05Z</time>
      </trkpt>
      <trkpt lat="44.11111" lon="3.20236">
        <ele>661.2</ele>
        <time>2019-05-31T11:28:06Z</time>
      </trkpt>
      <trkpt lat="44.11113" lon="3.20243">
        <ele>661.3</ele>
        <time>2019-05-31T11:28:07Z</time>
      </trkpt>
      <trkpt lat="44.11114" lon="3.20251">
        <ele>661.4</ele>
        <time>2019-05-31T11:28:08Z</time>
      </trkpt>
      <trkpt lat="44.11115" lon="3.20257">
        <ele>661.5</ele>
        <time>2019-05-31T11:28:09Z</time>
      </trkpt>
      <trkpt lat="44.11116" lon="3.20264">
        <ele>661.7</ele>
        <time>2019-05-31T11:28:10Z</time>
      </trkpt>
      <trkpt lat="44.11116" lon="3.20272">
        <ele>661.9</ele>
        <time>2019-05-31T11:28:11Z</time>
      </trkpt>
      <trkpt lat="44.11117" lon="3.20279">
        <ele>662.1</ele>
        <time>2019-05-31T11:28:12Z</time>
      </trkpt>
      <trkpt lat="44.11118" lon="3.20286">
        <ele>662.3</ele>
        <time>2019-05-31T11:28:13Z</time>
      </trkpt>
      <trkpt lat="44.11119" lon="3.20291">
        <ele>662.4</ele>
        <time>2019-05-31T11:28:14Z</time>
      </trkpt>
      <trkpt lat="44.11119" lon="3.20296">
        <ele>662.5</ele>
        <time>2019-05-31T11:28:16Z</time>
      </trkpt>
      <trkpt lat="44.1112" lon="3.20304">
        <ele>662.7</ele>
        <time>2019-05-31T11:28:18Z</time>
      </trkpt>
      <trkpt lat="44.1112" lon="3.2031">
        <ele>662.9</ele>
        <time>2019-05-31T11:28:19Z</time>
      </trkpt>
      <trkpt lat="44.1112" lon="3.20316">
        <ele>663</ele>
        <time>2019-05-31T11:28:20Z</time>
      </trkpt>
      <trkpt lat="44.1112" lon="3.20323">
        <ele>663.2</ele>
        <time>2019-05-31T11:28:21Z</time>
      </trkpt>
      <trkpt lat="44.11119" lon="3.2033">
        <ele>663.3</ele>
        <time>2019-05-31T11:28:22Z</time>
      </trkpt>
      <trkpt lat="44.11119" lon="3.20337">
        <ele>663.4</ele>
        <time>2019-05-31T11:28:23Z</time>
      </trkpt>
      <trkpt lat="44.11117" lon="3.20343">
        <ele>663.5</ele>
        <time>2019-05-31T11:28:24Z</time>
      </trkpt>
      <trkpt lat="44.11116" lon="3.20348">
        <ele>663.6</ele>
        <time>2019-05-31T11:28:25Z</time>
      </trkpt>
      <trkpt lat="44.11115" lon="3.20353">
        <ele>663.6</ele>
        <time>2019-05-31T11:28:26Z</time>
      </trkpt>
      <trkpt lat="44.11113" lon="3.20357">
        <ele>663.6</ele>
        <time>2019-05-31T11:28:27Z</time>
      </trkpt>
      <trkpt lat="44.11111" lon="3.20362">
        <ele>663.7</ele>
        <time>2019-05-31T11:28:28Z</time>
      </trkpt>
      <trkpt lat="44.11109" lon="3.20366">
        <ele>663.7</ele>
        <time>2019-05-31T11:28:29Z</time>
      </trkpt>
      <trkpt lat="44.11106" lon="3.20373">
        <ele>663.7</ele>
        <time>2019-05-31T11:28:31Z</time>
      </trkpt>
      <trkpt lat="44.11102" lon="3.20378">
        <ele>663.7</ele>
        <time>2019-05-31T11:28:32Z</time>
      </trkpt>
      <trkpt lat="44.11101" lon="3.20385">
        <ele>663.7</ele>
        <time>2019-05-31T11:28:33Z</time>
      </trkpt>
      <trkpt lat="44.11099" lon="3.20391">
        <ele>663.7</ele>
        <time>2019-05-31T11:28:34Z</time>
      </trkpt>
      <trkpt lat="44.11097" lon="3.20399">
        <ele>663.7</ele>
        <time>2019-05-31T11:28:35Z</time>
      </trkpt>
      <trkpt lat="44.11095" lon="3.20405">
        <ele>663.7</ele>
        <time>2019-05-31T11:28:36Z</time>
      </trkpt>
      <trkpt lat="44.11092" lon="3.2041">
        <ele>663.7</ele>
        <time>2019-05-31T11:28:37Z</time>
      </trkpt>
      <trkpt lat="44.11089" lon="3.20414">
        <ele>663.7</ele>
        <time>2019-05-31T11:28:38Z</time>
      </trkpt>
      <trkpt lat="44.11087" lon="3.2042">
        <ele>663.7</ele>
        <time>2019-05-31T11:28:39Z</time>
      </trkpt>
      <trkpt lat="44.11084" lon="3.20427">
        <ele>663.7</ele>
        <time>2019-05-31T11:28:40Z</time>
      </trkpt>
      <trkpt lat="44.11082" lon="3.20434">
        <ele>663.7</ele>
        <time>2019-05-31T11:28:41Z</time>
      </trkpt>
      <trkpt lat="44.11082" lon="3.20441">
        <ele>663.7</ele>
        <time>2019-05-31T11:28:42Z</time>
      </trkpt>
      <trkpt lat="44.11081" lon="3.20449">
        <ele>663.7</ele>
        <time>2019-05-31T11:28:43Z</time>
      </trkpt>
      <trkpt lat="44.1108" lon="3.20455">
        <ele>663.7</ele>
        <time>2019-05-31T11:28:44Z</time>
      </trkpt>
      <trkpt lat="44.11077" lon="3.20461">
        <ele>663.7</ele>
        <time>2019-05-31T11:28:45Z</time>
      </trkpt>
      <trkpt lat="44.11074" lon="3.20466">
        <ele>663.8</ele>
        <time>2019-05-31T11:28:46Z</time>
      </trkpt>
      <trkpt lat="44.11073" lon="3.20471">
        <ele>663.8</ele>
        <time>2019-05-31T11:28:47Z</time>
      </trkpt>
      <trkpt lat="44.11071" lon="3.20475">
        <ele>663.8</ele>
        <time>2019-05-31T11:28:48Z</time>
      </trkpt>
      <trkpt lat="44.11069" lon="3.2048">
        <ele>663.8</ele>
        <time>2019-05-31T11:28:49Z</time>
      </trkpt>
      <trkpt lat="44.11067" lon="3.20485">
        <ele>663.8</ele>
        <time>2019-05-31T11:28:50Z</time>
      </trkpt>
      <trkpt lat="44.11066" lon="3.20491">
        <ele>663.8</ele>
        <time>2019-05-31T11:28:51Z</time>
      </trkpt>
      <trkpt lat="44.11065" lon="3.20497">
        <ele>663.9</ele>
        <time>2019-05-31T11:28:52Z</time>
      </trkpt>
      <trkpt lat="44.11064" lon="3.20501">
        <ele>663.8</ele>
        <time>2019-05-31T11:28:53Z</time>
      </trkpt>
      <trkpt lat="44.11062" lon="3.20508">
        <ele>663.8</ele>
        <time>2019-05-31T11:28:55Z</time>
      </trkpt>
      <trkpt lat="44.11058" lon="3.20513">
        <ele>663.8</ele>
        <time>2019-05-31T11:28:57Z</time>
      </trkpt>
      <trkpt lat="44.11055" lon="3.20517">
        <ele>663.8</ele>
        <time>2019-05-31T11:28:58Z</time>
      </trkpt>
      <trkpt lat="44.11051" lon="3.20522">
        <ele>663.7</ele>
        <time>2019-05-31T11:28:59Z</time>
      </trkpt>
      <trkpt lat="44.11047" lon="3.20527">
        <ele>663.6</ele>
        <time>2019-05-31T11:29:00Z</time>
      </trkpt>
      <trkpt lat="44.11044" lon="3.20531">
        <ele>663.6</ele>
        <time>2019-05-31T11:29:01Z</time>
      </trkpt>
      <trkpt lat="44.1104" lon="3.20535">
        <ele>663.5</ele>
        <time>2019-05-31T11:29:02Z</time>
      </trkpt>
      <trkpt lat="44.11037" lon="3.20538">
        <ele>663.4</ele>
        <time>2019-05-31T11:29:03Z</time>
      </trkpt>
      <trkpt lat="44.11034" lon="3.20542">
        <ele>663.3</ele>
        <time>2019-05-31T11:29:04Z</time>
      </trkpt>
      <trkpt lat="44.11029" lon="3.20544">
        <ele>663.2</ele>
        <time>2019-05-31T11:29:05Z</time>
      </trkpt>
      <trkpt lat="44.11024" lon="3.20547">
        <ele>663</ele>
        <time>2019-05-31T11:29:06Z</time>
      </trkpt>
      <trkpt lat="44.1102" lon="3.2055">
        <ele>662.8</ele>
        <time>2019-05-31T11:29:07Z</time>
      </trkpt>
      <trkpt lat="44.11017" lon="3.20552">
        <ele>662.7</ele>
        <time>2019-05-31T11:29:08Z</time>
      </trkpt>
      <trkpt lat="44.11014" lon="3.20554">
        <ele>662.5</ele>
        <time>2019-05-31T11:29:09Z</time>
      </trkpt>
      <trkpt lat="44.11011" lon="3.20556">
        <ele>662.4</ele>
        <time>2019-05-31T11:29:10Z</time>
      </trkpt>
      <trkpt lat="44.11007" lon="3.2056">
        <ele>662.2</ele>
        <time>2019-05-31T11:29:11Z</time>
      </trkpt>
      <trkpt lat="44.11003" lon="3.20566">
        <ele>661.9</ele>
        <time>2019-05-31T11:29:12Z</time>
      </trkpt>
      <trkpt lat="44.10992" lon="3.20581">
        <ele>660.9</ele>
        <time>2019-05-31T11:29:13Z</time>
      </trkpt>
      <trkpt lat="44.10985" lon="3.20587">
        <ele>660.6</ele>
        <time>2019-05-31T11:29:14Z</time>
      </trkpt>
      <trkpt lat="44.1098" lon="3.20591">
        <ele>660.4</ele>
        <time>2019-05-31T11:29:15Z</time>
      </trkpt>
      <trkpt lat="44.10977" lon="3.20597">
        <ele>660.1</ele>
        <time>2019-05-31T11:29:16Z</time>
      </trkpt>
      <trkpt lat="44.10976" lon="3.20601">
        <ele>660</ele>
        <time>2019-05-31T11:29:17Z</time>
      </trkpt>
      <trkpt lat="44.10974" lon="3.20605">
        <ele>659.9</ele>
        <time>2019-05-31T11:29:18Z</time>
      </trkpt>
      <trkpt lat="44.10972" lon="3.2061">
        <ele>659.7</ele>
        <time>2019-05-31T11:29:19Z</time>
      </trkpt>
      <trkpt lat="44.10971" lon="3.20617">
        <ele>659.6</ele>
        <time>2019-05-31T11:29:20Z</time>
      </trkpt>
      <trkpt lat="44.10966" lon="3.20626">
        <ele>659.5</ele>
        <time>2019-05-31T11:29:21Z</time>
      </trkpt>
      <trkpt lat="44.10961" lon="3.20635">
        <ele>659.4</ele>
        <time>2019-05-31T11:29:22Z</time>
      </trkpt>
      <trkpt lat="44.10959" lon="3.20644">
        <ele>659.4</ele>
        <time>2019-05-31T11:29:23Z</time>
      </trkpt>
      <trkpt lat="44.10952" lon="3.20652">
        <ele>659.3</ele>
        <time>2019-05-31T11:29:24Z</time>
      </trkpt>
      <trkpt lat="44.1095" lon="3.2066">
        <ele>659.3</ele>
        <time>2019-05-31T11:29:25Z</time>
      </trkpt>
      <trkpt lat="44.10947" lon="3.2067">
        <ele>659.2</ele>
        <time>2019-05-31T11:29:26Z</time>
      </trkpt>
      <trkpt lat="44.10944" lon="3.20678">
        <ele>659.2</ele>
        <time>2019-05-31T11:29:27Z</time>
      </trkpt>
      <trkpt lat="44.10948" lon="3.20689">
        <ele>659.1</ele>
        <time>2019-05-31T11:29:28Z</time>
      </trkpt>
      <trkpt lat="44.10944" lon="3.20698">
        <ele>659.1</ele>
        <time>2019-05-31T11:29:29Z</time>
      </trkpt>
      <trkpt lat="44.10941" lon="3.20706">
        <ele>659</ele>
        <time>2019-05-31T11:29:30Z</time>
      </trkpt>
      <trkpt lat="44.1094" lon="3.20717">
        <ele>659</ele>
        <time>2019-05-31T11:29:31Z</time>
      </trkpt>
      <trkpt lat="44.10934" lon="3.20725">
        <ele>658.9</ele>
        <time>2019-05-31T11:29:32Z</time>
      </trkpt>
      <trkpt lat="44.10933" lon="3.20732">
        <ele>658.9</ele>
        <time>2019-05-31T11:29:33Z</time>
      </trkpt>
      <trkpt lat="44.10923" lon="3.20732">
        <ele>658.8</ele>
        <time>2019-05-31T11:29:34Z</time>
      </trkpt>
      <trkpt lat="44.10921" lon="3.20736">
        <ele>658.8</ele>
        <time>2019-05-31T11:29:35Z</time>
      </trkpt>
      <trkpt lat="44.10916" lon="3.20743">
        <ele>658.7</ele>
        <time>2019-05-31T11:29:36Z</time>
      </trkpt>
      <trkpt lat="44.10911" lon="3.20745">
        <ele>658.7</ele>
        <time>2019-05-31T11:29:37Z</time>
      </trkpt>
      <trkpt lat="44.10908" lon="3.2075">
        <ele>658.7</ele>
        <time>2019-05-31T11:29:38Z</time>
      </trkpt>
      <trkpt lat="44.10905" lon="3.20754">
        <ele>658.6</ele>
        <time>2019-05-31T11:29:39Z</time>
      </trkpt>
      <trkpt lat="44.109" lon="3.20758">
        <ele>658.6</ele>
        <time>2019-05-31T11:29:40Z</time>
      </trkpt>
      <trkpt lat="44.10899" lon="3.20764">
        <ele>658.6</ele>
        <time>2019-05-31T11:29:41Z</time>
      </trkpt>
      <trkpt lat="44.10897" lon="3.20771">
        <ele>658.6</ele>
        <time>2019-05-31T11:29:42Z</time>
      </trkpt>
      <trkpt lat="44.10893" lon="3.20777">
        <ele>658.5</ele>
        <time>2019-05-31T11:29:43Z</time>
      </trkpt>
      <trkpt lat="44.10888" lon="3.20782">
        <ele>658.5</ele>
        <time>2019-05-31T11:29:44Z</time>
      </trkpt>
      <trkpt lat="44.10884" lon="3.20791">
        <ele>658.4</ele>
        <time>2019-05-31T11:29:45Z</time>
      </trkpt>
      <trkpt lat="44.1088" lon="3.20795">
        <ele>658.4</ele>
        <time>2019-05-31T11:29:46Z</time>
      </trkpt>
      <trkpt lat="44.10883" lon="3.208">
        <ele>658.4</ele>
        <time>2019-05-31T11:29:47Z</time>
      </trkpt>
      <trkpt lat="44.10876" lon="3.20807">
        <ele>658.3</ele>
        <time>2019-05-31T11:29:48Z</time>
      </trkpt>
      <trkpt lat="44.10871" lon="3.20811">
        <ele>658.2</ele>
        <time>2019-05-31T11:29:49Z</time>
      </trkpt>
      <trkpt lat="44.10867" lon="3.20817">
        <ele>658.1</ele>
        <time>2019-05-31T11:29:50Z</time>
      </trkpt>
      <trkpt lat="44.10859" lon="3.20822">
        <ele>657.9</ele>
        <time>2019-05-31T11:29:51Z</time>
      </trkpt>
      <trkpt lat="44.10856" lon="3.20826">
        <ele>658</ele>
        <time>2019-05-31T11:29:52Z</time>
      </trkpt>
      <trkpt lat="44.10852" lon="3.2083">
        <ele>658.1</ele>
        <time>2019-05-31T11:29:53Z</time>
      </trkpt>
      <trkpt lat="44.10847" lon="3.20829">
        <ele>658.2</ele>
        <time>2019-05-31T11:29:54Z</time>
      </trkpt>
      <trkpt lat="44.10843" lon="3.20833">
        <ele>658.4</ele>
        <time>2019-05-31T11:29:55Z</time>
      </trkpt>
      <trkpt lat="44.10839" lon="3.20835">
        <ele>658.5</ele>
        <time>2019-05-31T11:29:56Z</time>
      </trkpt>
      <trkpt lat="44.10833" lon="3.20836">
        <ele>658.6</ele>
        <time>2019-05-31T11:29:57Z</time>
      </trkpt>
      <trkpt lat="44.10829" lon="3.20838">
        <ele>658.7</ele>
        <time>2019-05-31T11:29:58Z</time>
      </trkpt>
      <trkpt lat="44.10826" lon="3.20843">
        <ele>658.9</ele>
        <time>2019-05-31T11:29:59Z</time>
      </trkpt>
      <trkpt lat="44.10824" lon="3.20851">
        <ele>659</ele>
        <time>2019-05-31T11:30:01Z</time>
      </trkpt>
      <trkpt lat="44.10826" lon="3.20861">
        <ele>659.4</ele>
        <time>2019-05-31T11:30:02Z</time>
      </trkpt>
      <trkpt lat="44.10832" lon="3.20864">
        <ele>659.8</ele>
        <time>2019-05-31T11:30:03Z</time>
      </trkpt>
      <trkpt lat="44.10836" lon="3.2087">
        <ele>660.3</ele>
        <time>2019-05-31T11:30:06Z</time>
      </trkpt>
      <trkpt lat="44.10838" lon="3.20873">
        <ele>660.5</ele>
        <time>2019-05-31T11:30:07Z</time>
      </trkpt>
      <trkpt lat="44.1084" lon="3.20877">
        <ele>660.7</ele>
        <time>2019-05-31T11:30:08Z</time>
      </trkpt>
      <trkpt lat="44.10843" lon="3.20881">
        <ele>661.1</ele>
        <time>2019-05-31T11:30:10Z</time>
      </trkpt>
      <trkpt lat="44.10846" lon="3.20884">
        <ele>661.4</ele>
        <time>2019-05-31T11:30:12Z</time>
      </trkpt>
      <trkpt lat="44.10848" lon="3.20888">
        <ele>661.7</ele>
        <time>2019-05-31T11:30:14Z</time>
      </trkpt>
      <trkpt lat="44.10851" lon="3.20889">
        <ele>662.1</ele>
        <time>2019-05-31T11:30:16Z</time>
      </trkpt>
      <trkpt lat="44.10853" lon="3.20893">
        <ele>662.3</ele>
        <time>2019-05-31T11:30:19Z</time>
      </trkpt>
      <trkpt lat="44.10855" lon="3.20897">
        <ele>662.8</ele>
        <time>2019-05-31T11:30:22Z</time>
      </trkpt>
      <trkpt lat="44.10857" lon="3.209">
        <ele>663.1</ele>
        <time>2019-05-31T11:30:24Z</time>
      </trkpt>
      <trkpt lat="44.10859" lon="3.20905">
        <ele>663.3</ele>
        <time>2019-05-31T11:30:27Z</time>
      </trkpt>
      <trkpt lat="44.1086" lon="3.20909">
        <ele>663.5</ele>
        <time>2019-05-31T11:30:29Z</time>
      </trkpt>
      <trkpt lat="44.10861" lon="3.20914">
        <ele>663.7</ele>
        <time>2019-05-31T11:30:31Z</time>
      </trkpt>
      <trkpt lat="44.10864" lon="3.20919">
        <ele>664</ele>
        <time>2019-05-31T11:30:33Z</time>
      </trkpt>
      <trkpt lat="44.10866" lon="3.20923">
        <ele>664.3</ele>
        <time>2019-05-31T11:30:35Z</time>
      </trkpt>
      <trkpt lat="44.10869" lon="3.20928">
        <ele>664.7</ele>
        <time>2019-05-31T11:30:37Z</time>
      </trkpt>
      <trkpt lat="44.1087" lon="3.20932">
        <ele>664.9</ele>
        <time>2019-05-31T11:30:39Z</time>
      </trkpt>
      <trkpt lat="44.10871" lon="3.20936">
        <ele>665.2</ele>
        <time>2019-05-31T11:30:41Z</time>
      </trkpt>
      <trkpt lat="44.10872" lon="3.2094">
        <ele>665.5</ele>
        <time>2019-05-31T11:30:43Z</time>
      </trkpt>
      <trkpt lat="44.10874" lon="3.20946">
        <ele>665.9</ele>
        <time>2019-05-31T11:30:46Z</time>
      </trkpt>
      <trkpt lat="44.10875" lon="3.20951">
        <ele>666.3</ele>
        <time>2019-05-31T11:30:49Z</time>
      </trkpt>
      <trkpt lat="44.10876" lon="3.20956">
        <ele>666.7</ele>
        <time>2019-05-31T11:30:51Z</time>
      </trkpt>
      <trkpt lat="44.10877" lon="3.20961">
        <ele>667.1</ele>
        <time>2019-05-31T11:30:53Z</time>
      </trkpt>
      <trkpt lat="44.10879" lon="3.20967">
        <ele>667.4</ele>
        <time>2019-05-31T11:30:55Z</time>
      </trkpt>
      <trkpt lat="44.10881" lon="3.20973">
        <ele>667.7</ele>
        <time>2019-05-31T11:30:57Z</time>
      </trkpt>
      <trkpt lat="44.10883" lon="3.20979">
        <ele>668.1</ele>
        <time>2019-05-31T11:30:59Z</time>
      </trkpt>
      <trkpt lat="44.10884" lon="3.20984">
        <ele>668.5</ele>
        <time>2019-05-31T11:31:01Z</time>
      </trkpt>
      <trkpt lat="44.10886" lon="3.20989">
        <ele>668.8</ele>
        <time>2019-05-31T11:31:03Z</time>
      </trkpt>
      <trkpt lat="44.10888" lon="3.20992">
        <ele>669</ele>
        <time>2019-05-31T11:31:05Z</time>
      </trkpt>
      <trkpt lat="44.1089" lon="3.20996">
        <ele>669.2</ele>
        <time>2019-05-31T11:31:07Z</time>
      </trkpt>
      <trkpt lat="44.10892" lon="3.20999">
        <ele>669.4</ele>
        <time>2019-05-31T11:31:10Z</time>
      </trkpt>
      <trkpt lat="44.10893" lon="3.21003">
        <ele>669.6</ele>
        <time>2019-05-31T11:31:12Z</time>
      </trkpt>
      <trkpt lat="44.10896" lon="3.21008">
        <ele>669.8</ele>
        <time>2019-05-31T11:31:14Z</time>
      </trkpt>
      <trkpt lat="44.10898" lon="3.21012">
        <ele>670.1</ele>
        <time>2019-05-31T11:31:16Z</time>
      </trkpt>
      <trkpt lat="44.10899" lon="3.21016">
        <ele>670.3</ele>
        <time>2019-05-31T11:31:18Z</time>
      </trkpt>
      <trkpt lat="44.10901" lon="3.21021">
        <ele>670.5</ele>
        <time>2019-05-31T11:31:21Z</time>
      </trkpt>
      <trkpt lat="44.10902" lon="3.21024">
        <ele>670.7</ele>
        <time>2019-05-31T11:31:23Z</time>
      </trkpt>
      <trkpt lat="44.10902" lon="3.21029">
        <ele>670.9</ele>
        <time>2019-05-31T11:31:25Z</time>
      </trkpt>
      <trkpt lat="44.10902" lon="3.21035">
        <ele>671.1</ele>
        <time>2019-05-31T11:31:27Z</time>
      </trkpt>
      <trkpt lat="44.10902" lon="3.21039">
        <ele>671.3</ele>
        <time>2019-05-31T11:31:29Z</time>
      </trkpt>
      <trkpt lat="44.10904" lon="3.21045">
        <ele>671.5</ele>
        <time>2019-05-31T11:31:31Z</time>
      </trkpt>
      <trkpt lat="44.10905" lon="3.21052">
        <ele>671.8</ele>
        <time>2019-05-31T11:31:33Z</time>
      </trkpt>
      <trkpt lat="44.10906" lon="3.21057">
        <ele>672.1</ele>
        <time>2019-05-31T11:31:35Z</time>
      </trkpt>
      <trkpt lat="44.10906" lon="3.21061">
        <ele>672.3</ele>
        <time>2019-05-31T11:31:37Z</time>
      </trkpt>
      <trkpt lat="44.10905" lon="3.21065">
        <ele>672.5</ele>
        <time>2019-05-31T11:31:40Z</time>
      </trkpt>
      <trkpt lat="44.10905" lon="3.21071">
        <ele>672.8</ele>
        <time>2019-05-31T11:31:43Z</time>
      </trkpt>
      <trkpt lat="44.10904" lon="3.21075">
        <ele>673.1</ele>
        <time>2019-05-31T11:31:45Z</time>
      </trkpt>
      <trkpt lat="44.10902" lon="3.2108">
        <ele>673.4</ele>
        <time>2019-05-31T11:31:47Z</time>
      </trkpt>
      <trkpt lat="44.10901" lon="3.21084">
        <ele>673.6</ele>
        <time>2019-05-31T11:31:49Z</time>
      </trkpt>
      <trkpt lat="44.10899" lon="3.21088">
        <ele>673.9</ele>
        <time>2019-05-31T11:31:52Z</time>
      </trkpt>
      <trkpt lat="44.10897" lon="3.21091">
        <ele>674.4</ele>
        <time>2019-05-31T11:31:55Z</time>
      </trkpt>
      <trkpt lat="44.10895" lon="3.21095">
        <ele>674.8</ele>
        <time>2019-05-31T11:31:57Z</time>
      </trkpt>
      <trkpt lat="44.10895" lon="3.21099">
        <ele>675.3</ele>
        <time>2019-05-31T11:31:59Z</time>
      </trkpt>
      <trkpt lat="44.10894" lon="3.21103">
        <ele>675.6</ele>
        <time>2019-05-31T11:32:01Z</time>
      </trkpt>
      <trkpt lat="44.10893" lon="3.21106">
        <ele>676</ele>
        <time>2019-05-31T11:32:03Z</time>
      </trkpt>
      <trkpt lat="44.10893" lon="3.21113">
        <ele>676.6</ele>
        <time>2019-05-31T11:32:05Z</time>
      </trkpt>
      <trkpt lat="44.10893" lon="3.2112">
        <ele>677.2</ele>
        <time>2019-05-31T11:32:07Z</time>
      </trkpt>
      <trkpt lat="44.10893" lon="3.21124">
        <ele>677.5</ele>
        <time>2019-05-31T11:32:08Z</time>
      </trkpt>
      <trkpt lat="44.10893" lon="3.21127">
        <ele>677.9</ele>
        <time>2019-05-31T11:32:09Z</time>
      </trkpt>
      <trkpt lat="44.10893" lon="3.21134">
        <ele>678.3</ele>
        <time>2019-05-31T11:32:11Z</time>
      </trkpt>
      <trkpt lat="44.10893" lon="3.21139">
        <ele>678.8</ele>
        <time>2019-05-31T11:32:13Z</time>
      </trkpt>
      <trkpt lat="44.10895" lon="3.21144">
        <ele>679.1</ele>
        <time>2019-05-31T11:32:15Z</time>
      </trkpt>
      <trkpt lat="44.10897" lon="3.2115">
        <ele>679.6</ele>
        <time>2019-05-31T11:32:17Z</time>
      </trkpt>
      <trkpt lat="44.10899" lon="3.21157">
        <ele>680.1</ele>
        <time>2019-05-31T11:32:19Z</time>
      </trkpt>
      <trkpt lat="44.109" lon="3.21163">
        <ele>680.5</ele>
        <time>2019-05-31T11:32:21Z</time>
      </trkpt>
      <trkpt lat="44.109" lon="3.2117">
        <ele>681.2</ele>
        <time>2019-05-31T11:32:23Z</time>
      </trkpt>
      <trkpt lat="44.10901" lon="3.21174">
        <ele>681.5</ele>
        <time>2019-05-31T11:32:24Z</time>
      </trkpt>
      <trkpt lat="44.10901" lon="3.21179">
        <ele>681.9</ele>
        <time>2019-05-31T11:32:26Z</time>
      </trkpt>
      <trkpt lat="44.109" lon="3.21186">
        <ele>682.3</ele>
        <time>2019-05-31T11:32:28Z</time>
      </trkpt>
      <trkpt lat="44.10901" lon="3.21193">
        <ele>682.8</ele>
        <time>2019-05-31T11:32:30Z</time>
      </trkpt>
      <trkpt lat="44.10901" lon="3.21198">
        <ele>683.2</ele>
        <time>2019-05-31T11:32:32Z</time>
      </trkpt>
      <trkpt lat="44.10901" lon="3.21204">
        <ele>683.7</ele>
        <time>2019-05-31T11:32:34Z</time>
      </trkpt>
      <trkpt lat="44.10901" lon="3.2121">
        <ele>684.2</ele>
        <time>2019-05-31T11:32:36Z</time>
      </trkpt>
      <trkpt lat="44.10901" lon="3.21215">
        <ele>684.7</ele>
        <time>2019-05-31T11:32:38Z</time>
      </trkpt>
      <trkpt lat="44.10902" lon="3.21222">
        <ele>685.3</ele>
        <time>2019-05-31T11:32:40Z</time>
      </trkpt>
      <trkpt lat="44.10903" lon="3.21228">
        <ele>685.8</ele>
        <time>2019-05-31T11:32:42Z</time>
      </trkpt>
      <trkpt lat="44.10903" lon="3.21234">
        <ele>686.2</ele>
        <time>2019-05-31T11:32:44Z</time>
      </trkpt>
      <trkpt lat="44.10904" lon="3.21239">
        <ele>686.6</ele>
        <time>2019-05-31T11:32:46Z</time>
      </trkpt>
      <trkpt lat="44.10905" lon="3.21244">
        <ele>686.9</ele>
        <time>2019-05-31T11:32:48Z</time>
      </trkpt>
      <trkpt lat="44.10905" lon="3.2125">
        <ele>687.3</ele>
        <time>2019-05-31T11:32:50Z</time>
      </trkpt>
      <trkpt lat="44.10905" lon="3.21256">
        <ele>687.5</ele>
        <time>2019-05-31T11:32:52Z</time>
      </trkpt>
      <trkpt lat="44.10906" lon="3.21261">
        <ele>687.6</ele>
        <time>2019-05-31T11:32:54Z</time>
      </trkpt>
      <trkpt lat="44.10907" lon="3.21267">
        <ele>687.8</ele>
        <time>2019-05-31T11:32:56Z</time>
      </trkpt>
      <trkpt lat="44.10907" lon="3.21272">
        <ele>687.9</ele>
        <time>2019-05-31T11:32:58Z</time>
      </trkpt>
      <trkpt lat="44.10905" lon="3.21275">
        <ele>687.9</ele>
        <time>2019-05-31T11:33:00Z</time>
      </trkpt>
      <trkpt lat="44.10905" lon="3.2128">
        <ele>687.9</ele>
        <time>2019-05-31T11:33:02Z</time>
      </trkpt>
      <trkpt lat="44.10906" lon="3.21287">
        <ele>688</ele>
        <time>2019-05-31T11:33:04Z</time>
      </trkpt>
      <trkpt lat="44.10905" lon="3.21292">
        <ele>688</ele>
        <time>2019-05-31T11:33:06Z</time>
      </trkpt>
      <trkpt lat="44.10905" lon="3.21298">
        <ele>687.9</ele>
        <time>2019-05-31T11:33:08Z</time>
      </trkpt>
      <trkpt lat="44.10905" lon="3.21305">
        <ele>687.9</ele>
        <time>2019-05-31T11:33:10Z</time>
      </trkpt>
      <trkpt lat="44.10904" lon="3.21313">
        <ele>687.9</ele>
        <time>2019-05-31T11:33:12Z</time>
      </trkpt>
      <trkpt lat="44.10904" lon="3.21317">
        <ele>687.8</ele>
        <time>2019-05-31T11:33:13Z</time>
      </trkpt>
      <trkpt lat="44.10903" lon="3.21321">
        <ele>687.8</ele>
        <time>2019-05-31T11:33:14Z</time>
      </trkpt>
      <trkpt lat="44.10902" lon="3.21326">
        <ele>687.7</ele>
        <time>2019-05-31T11:33:15Z</time>
      </trkpt>
      <trkpt lat="44.10901" lon="3.21331">
        <ele>687.7</ele>
        <time>2019-05-31T11:33:16Z</time>
      </trkpt>
      <trkpt lat="44.10899" lon="3.21335">
        <ele>687.6</ele>
        <time>2019-05-31T11:33:17Z</time>
      </trkpt>
      <trkpt lat="44.10898" lon="3.21339">
        <ele>687.6</ele>
        <time>2019-05-31T11:33:18Z</time>
      </trkpt>
      <trkpt lat="44.10896" lon="3.21343">
        <ele>687.5</ele>
        <time>2019-05-31T11:33:19Z</time>
      </trkpt>
      <trkpt lat="44.10895" lon="3.21347">
        <ele>687.4</ele>
        <time>2019-05-31T11:33:20Z</time>
      </trkpt>
      <trkpt lat="44.10894" lon="3.2135">
        <ele>687.4</ele>
        <time>2019-05-31T11:33:21Z</time>
      </trkpt>
      <trkpt lat="44.10893" lon="3.21354">
        <ele>687.3</ele>
        <time>2019-05-31T11:33:22Z</time>
      </trkpt>
      <trkpt lat="44.10891" lon="3.21358">
        <ele>687.2</ele>
        <time>2019-05-31T11:33:23Z</time>
      </trkpt>
      <trkpt lat="44.10889" lon="3.21362">
        <ele>687.1</ele>
        <time>2019-05-31T11:33:24Z</time>
      </trkpt>
      <trkpt lat="44.10887" lon="3.21367">
        <ele>686.9</ele>
        <time>2019-05-31T11:33:25Z</time>
      </trkpt>
      <trkpt lat="44.10885" lon="3.2137">
        <ele>686.8</ele>
        <time>2019-05-31T11:33:26Z</time>
      </trkpt>
      <trkpt lat="44.10883" lon="3.21374">
        <ele>686.6</ele>
        <time>2019-05-31T11:33:27Z</time>
      </trkpt>
      <trkpt lat="44.1088" lon="3.21377">
        <ele>686.5</ele>
        <time>2019-05-31T11:33:28Z</time>
      </trkpt>
      <trkpt lat="44.10878" lon="3.2138">
        <ele>686.3</ele>
        <time>2019-05-31T11:33:29Z</time>
      </trkpt>
      <trkpt lat="44.10876" lon="3.21384">
        <ele>686</ele>
        <time>2019-05-31T11:33:30Z</time>
      </trkpt>
      <trkpt lat="44.10874" lon="3.21388">
        <ele>685.8</ele>
        <time>2019-05-31T11:33:31Z</time>
      </trkpt>
      <trkpt lat="44.10871" lon="3.21392">
        <ele>685.6</ele>
        <time>2019-05-31T11:33:32Z</time>
      </trkpt>
      <trkpt lat="44.10869" lon="3.21395">
        <ele>685.4</ele>
        <time>2019-05-31T11:33:33Z</time>
      </trkpt>
      <trkpt lat="44.10867" lon="3.21398">
        <ele>685.3</ele>
        <time>2019-05-31T11:33:34Z</time>
      </trkpt>
      <trkpt lat="44.10865" lon="3.21401">
        <ele>685.1</ele>
        <time>2019-05-31T11:33:35Z</time>
      </trkpt>
      <trkpt lat="44.10863" lon="3.21405">
        <ele>685</ele>
        <time>2019-05-31T11:33:36Z</time>
      </trkpt>
      <trkpt lat="44.10861" lon="3.21409">
        <ele>684.9</ele>
        <time>2019-05-31T11:33:37Z</time>
      </trkpt>
      <trkpt lat="44.10858" lon="3.21412">
        <ele>684.7</ele>
        <time>2019-05-31T11:33:38Z</time>
      </trkpt>
      <trkpt lat="44.10856" lon="3.21414">
        <ele>684.6</ele>
        <time>2019-05-31T11:33:39Z</time>
      </trkpt>
      <trkpt lat="44.10851" lon="3.21418">
        <ele>684.4</ele>
        <time>2019-05-31T11:33:41Z</time>
      </trkpt>
      <trkpt lat="44.10848" lon="3.21421">
        <ele>684.3</ele>
        <time>2019-05-31T11:33:42Z</time>
      </trkpt>
      <trkpt lat="44.10846" lon="3.21424">
        <ele>684.2</ele>
        <time>2019-05-31T11:33:43Z</time>
      </trkpt>
      <trkpt lat="44.10841" lon="3.2143">
        <ele>684</ele>
        <time>2019-05-31T11:33:45Z</time>
      </trkpt>
      <trkpt lat="44.10839" lon="3.21433">
        <ele>684</ele>
        <time>2019-05-31T11:33:46Z</time>
      </trkpt>
      <trkpt lat="44.10836" lon="3.21436">
        <ele>683.8</ele>
        <time>2019-05-31T11:33:47Z</time>
      </trkpt>
      <trkpt lat="44.10833" lon="3.21439">
        <ele>683.7</ele>
        <time>2019-05-31T11:33:48Z</time>
      </trkpt>
      <trkpt lat="44.1083" lon="3.21441">
        <ele>683.6</ele>
        <time>2019-05-31T11:33:49Z</time>
      </trkpt>
      <trkpt lat="44.10827" lon="3.21445">
        <ele>683.5</ele>
        <time>2019-05-31T11:33:50Z</time>
      </trkpt>
      <trkpt lat="44.10825" lon="3.21448">
        <ele>683.3</ele>
        <time>2019-05-31T11:33:51Z</time>
      </trkpt>
      <trkpt lat="44.10822" lon="3.21453">
        <ele>683.2</ele>
        <time>2019-05-31T11:33:52Z</time>
      </trkpt>
      <trkpt lat="44.10819" lon="3.21458">
        <ele>683</ele>
        <time>2019-05-31T11:33:53Z</time>
      </trkpt>
      <trkpt lat="44.10817" lon="3.21462">
        <ele>682.9</ele>
        <time>2019-05-31T11:33:54Z</time>
      </trkpt>
      <trkpt lat="44.10815" lon="3.21466">
        <ele>682.8</ele>
        <time>2019-05-31T11:33:55Z</time>
      </trkpt>
      <trkpt lat="44.10813" lon="3.2147">
        <ele>682.8</ele>
        <time>2019-05-31T11:33:56Z</time>
      </trkpt>
      <trkpt lat="44.10811" lon="3.21473">
        <ele>682.8</ele>
        <time>2019-05-31T11:33:57Z</time>
      </trkpt>
      <trkpt lat="44.10808" lon="3.21475">
        <ele>682.8</ele>
        <time>2019-05-31T11:33:58Z</time>
      </trkpt>
      <trkpt lat="44.10804" lon="3.21477">
        <ele>682.8</ele>
        <time>2019-05-31T11:33:59Z</time>
      </trkpt>
      <trkpt lat="44.10802" lon="3.21479">
        <ele>682.9</ele>
        <time>2019-05-31T11:34:00Z</time>
      </trkpt>
      <trkpt lat="44.10798" lon="3.2148">
        <ele>682.9</ele>
        <time>2019-05-31T11:34:02Z</time>
      </trkpt>
      <trkpt lat="44.10795" lon="3.21481">
        <ele>683</ele>
        <time>2019-05-31T11:34:03Z</time>
      </trkpt>
      <trkpt lat="44.10791" lon="3.21482">
        <ele>683.2</ele>
        <time>2019-05-31T11:34:05Z</time>
      </trkpt>
      <trkpt lat="44.10787" lon="3.21483">
        <ele>683.5</ele>
        <time>2019-05-31T11:34:07Z</time>
      </trkpt>
      <trkpt lat="44.10784" lon="3.21486">
        <ele>683.7</ele>
        <time>2019-05-31T11:34:09Z</time>
      </trkpt>
      <trkpt lat="44.10782" lon="3.21488">
        <ele>684.1</ele>
        <time>2019-05-31T11:34:11Z</time>
      </trkpt>
      <trkpt lat="44.10779" lon="3.21489">
        <ele>684.4</ele>
        <time>2019-05-31T11:34:13Z</time>
      </trkpt>
      <trkpt lat="44.10775" lon="3.21488">
        <ele>685</ele>
        <time>2019-05-31T11:34:15Z</time>
      </trkpt>
      <trkpt lat="44.1077" lon="3.21487">
        <ele>685.7</ele>
        <time>2019-05-31T11:34:17Z</time>
      </trkpt>
      <trkpt lat="44.10767" lon="3.21487">
        <ele>686.3</ele>
        <time>2019-05-31T11:34:19Z</time>
      </trkpt>
      <trkpt lat="44.10764" lon="3.21488">
        <ele>686.7</ele>
        <time>2019-05-31T11:34:22Z</time>
      </trkpt>
      <trkpt lat="44.10761" lon="3.21488">
        <ele>687.1</ele>
        <time>2019-05-31T11:34:24Z</time>
      </trkpt>
      <trkpt lat="44.10757" lon="3.21487">
        <ele>687.6</ele>
        <time>2019-05-31T11:34:26Z</time>
      </trkpt>
      <trkpt lat="44.10754" lon="3.21485">
        <ele>688.2</ele>
        <time>2019-05-31T11:34:29Z</time>
      </trkpt>
      <trkpt lat="44.1075" lon="3.21483">
        <ele>688.5</ele>
        <time>2019-05-31T11:34:31Z</time>
      </trkpt>
      <trkpt lat="44.10746" lon="3.21482">
        <ele>688.8</ele>
        <time>2019-05-31T11:34:33Z</time>
      </trkpt>
      <trkpt lat="44.10743" lon="3.21482">
        <ele>689.1</ele>
        <time>2019-05-31T11:34:35Z</time>
      </trkpt>
      <trkpt lat="44.10737" lon="3.21483">
        <ele>689.5</ele>
        <time>2019-05-31T11:34:37Z</time>
      </trkpt>
      <trkpt lat="44.10732" lon="3.21484">
        <ele>690.1</ele>
        <time>2019-05-31T11:34:39Z</time>
      </trkpt>
      <trkpt lat="44.10728" lon="3.21485">
        <ele>690.5</ele>
        <time>2019-05-31T11:34:41Z</time>
      </trkpt>
      <trkpt lat="44.10723" lon="3.21485">
        <ele>691</ele>
        <time>2019-05-31T11:34:43Z</time>
      </trkpt>
      <trkpt lat="44.10718" lon="3.21486">
        <ele>691.5</ele>
        <time>2019-05-31T11:34:45Z</time>
      </trkpt>
      <trkpt lat="44.10712" lon="3.21487">
        <ele>692.1</ele>
        <time>2019-05-31T11:34:47Z</time>
      </trkpt>
      <trkpt lat="44.10708" lon="3.21488">
        <ele>692.4</ele>
        <time>2019-05-31T11:34:48Z</time>
      </trkpt>
      <trkpt lat="44.10705" lon="3.21488">
        <ele>692.6</ele>
        <time>2019-05-31T11:34:49Z</time>
      </trkpt>
      <trkpt lat="44.10701" lon="3.21488">
        <ele>692.9</ele>
        <time>2019-05-31T11:34:51Z</time>
      </trkpt>
      <trkpt lat="44.10697" lon="3.21489">
        <ele>693.2</ele>
        <time>2019-05-31T11:34:53Z</time>
      </trkpt>
      <trkpt lat="44.10694" lon="3.21489">
        <ele>693.6</ele>
        <time>2019-05-31T11:34:55Z</time>
      </trkpt>
      <trkpt lat="44.10689" lon="3.21488">
        <ele>694</ele>
        <time>2019-05-31T11:34:57Z</time>
      </trkpt>
      <trkpt lat="44.10686" lon="3.21485">
        <ele>694.2</ele>
        <time>2019-05-31T11:34:59Z</time>
      </trkpt>
      <trkpt lat="44.10682" lon="3.21484">
        <ele>694.4</ele>
        <time>2019-05-31T11:35:03Z</time>
      </trkpt>
      <trkpt lat="44.10679" lon="3.21484">
        <ele>694.6</ele>
        <time>2019-05-31T11:35:05Z</time>
      </trkpt>
      <trkpt lat="44.10675" lon="3.21483">
        <ele>694.8</ele>
        <time>2019-05-31T11:35:07Z</time>
      </trkpt>
      <trkpt lat="44.10672" lon="3.21484">
        <ele>695</ele>
        <time>2019-05-31T11:35:09Z</time>
      </trkpt>
      <trkpt lat="44.10666" lon="3.21485">
        <ele>695.3</ele>
        <time>2019-05-31T11:35:11Z</time>
      </trkpt>
      <trkpt lat="44.10645" lon="3.21495">
        <ele>692</ele>
      </trkpt>
      <trkpt lat="44.10647" lon="3.21519">
        <ele>690.4</ele>
      </trkpt>
      <trkpt lat="44.10653" lon="3.21553">
        <ele>688.1</ele>
      </trkpt>
      <trkpt lat="44.10676" lon="3.21612">
        <ele>685.7</ele>
      </trkpt>
      <trkpt lat="44.10729" lon="3.21693">
        <ele>689.2</ele>
      </trkpt>
      <trkpt lat="44.1077" lon="3.21706">
        <ele>690.4</ele>
      </trkpt>
      <trkpt lat="44.10782" lon="3.21719">
        <ele>691.7</ele>
      </trkpt>
      <trkpt lat="44.10783" lon="3.21745">
        <ele>693.5</ele>
      </trkpt>
      <trkpt lat="44.10796" lon="3.21752">
        <ele>693.3</ele>
      </trkpt>
      <trkpt lat="44.10801" lon="3.21793">
        <ele>691.7</ele>
      </trkpt>
      <trkpt lat="44.10822" lon="3.21811">
        <ele>689.6</ele>
      </trkpt>
      <trkpt lat="44.10831" lon="3.21834">
        <ele>686.9</ele>
      </trkpt>
      <trkpt lat="44.10834" lon="3.21853">
        <ele>684.9</ele>
      </trkpt>
      <trkpt lat="44.10837" lon="3.21863">
        <ele>684</ele>
      </trkpt>
      <trkpt lat="44.10923" lon="3.21939">
        <ele>688.8</ele>
      </trkpt>
      <trkpt lat="44.10959" lon="3.21994">
        <ele>692.6</ele>
      </trkpt>
      <trkpt lat="44.10972" lon="3.22027">
        <ele>693.1</ele>
      </trkpt>
      <trkpt lat="44.11017" lon="3.22053">
        <ele>695.8</ele>
      </trkpt>
      <trkpt lat="44.11029" lon="3.22081">
        <ele>695.3</ele>
      </trkpt>
      <trkpt lat="44.11028" lon="3.221">
        <ele>695.6</ele>
      </trkpt>
      <trkpt lat="44.11022" lon="3.22125">
        <ele>696.7</ele>
      </trkpt>
      <trkpt lat="44.1102" lon="3.22178">
        <ele>702</ele>
      </trkpt>
      <trkpt lat="44.11015" lon="3.222">
        <ele>703.2</ele>
      </trkpt>
      <trkpt lat="44.11015" lon="3.22221">
        <ele>705.6</ele>
      </trkpt>
      <trkpt lat="44.10989" lon="3.22442">
        <ele>723.3</ele>
      </trkpt>
      <trkpt lat="44.10984" lon="3.22566">
        <ele>735.3</ele>
      </trkpt>
      <trkpt lat="44.10966" lon="3.22639">
        <ele>736.8</ele>
      </trkpt>
      <trkpt lat="44.10969" lon="3.22675">
        <ele>738.2</ele>
      </trkpt>
      <trkpt lat="44.10964" lon="3.22694">
        <ele>741.1</ele>
      </trkpt>
      <trkpt lat="44.10935" lon="3.22745">
        <ele>743.1</ele>
      </trkpt>
      <trkpt lat="44.10893" lon="3.22778">
        <ele>747.4</ele>
      </trkpt>
      <trkpt lat="44.10856" lon="3.22859">
        <ele>743.4</ele>
      </trkpt>
      <trkpt lat="44.1085" lon="3.22893">
        <ele>741.5</ele>
      </trkpt>
      <trkpt lat="44.10851" lon="3.23006">
        <ele>740.5</ele>
      </trkpt>
      <trkpt lat="44.10842" lon="3.23025">
        <ele>741.6</ele>
      </trkpt>
      <trkpt lat="44.10814" lon="3.23125">
        <ele>745.8</ele>
      </trkpt>
      <trkpt lat="44.10806" lon="3.23203">
        <ele>754.9</ele>
      </trkpt>
      <trkpt lat="44.10794" lon="3.23275">
        <ele>761.9</ele>
      </trkpt>
      <trkpt lat="44.108" lon="3.23371">
        <ele>768.5</ele>
      </trkpt>
      <trkpt lat="44.10801" lon="3.23492">
        <ele>778.5</ele>
      </trkpt>
      <trkpt lat="44.1082" lon="3.23489">
        <ele>777</ele>
      </trkpt>
      <trkpt lat="44.10833" lon="3.235">
        <ele>777</ele>
      </trkpt>
      <trkpt lat="44.10853" lon="3.23532">
        <ele>776.2</ele>
      </trkpt>
      <trkpt lat="44.10908" lon="3.23532">
        <ele>772.5</ele>
      </trkpt>
      <trkpt lat="44.10925" lon="3.23527">
        <ele>771.1</ele>
      </trkpt>
      <trkpt lat="44.10948" lon="3.23616">
        <ele>765.6</ele>
      </trkpt>
      <trkpt lat="44.10962" lon="3.23708">
        <ele>765.1</ele>
      </trkpt>
      <trkpt lat="44.10945" lon="3.23771">
        <ele>766.7</ele>
      </trkpt>
      <trkpt lat="44.10926" lon="3.23918">
        <ele>773.3</ele>
      </trkpt>
      <trkpt lat="44.10901" lon="3.24007">
        <ele>773.4</ele>
      </trkpt>
      <trkpt lat="44.10927" lon="3.24104">
        <ele>771.6</ele>
      </trkpt>
      <trkpt lat="44.10915" lon="3.24155">
        <ele>767.6</ele>
      </trkpt>
      <trkpt lat="44.10905" lon="3.2417">
        <ele>765.7</ele>
      </trkpt>
      <trkpt lat="44.10903" lon="3.24213">
        <ele>764.8</ele>
      </trkpt>
      <trkpt lat="44.10909" lon="3.24238">
        <ele>765</ele>
      </trkpt>
      <trkpt lat="44.10899" lon="3.24266">
        <ele>764.2</ele>
      </trkpt>
      <trkpt lat="44.10899" lon="3.24279">
        <ele>763.9</ele>
      </trkpt>
      <trkpt lat="44.10906" lon="3.2429">
        <ele>762.3</ele>
      </trkpt>
      <trkpt lat="44.10925" lon="3.24284">
        <ele>763.3</ele>
      </trkpt>
      <trkpt lat="44.10942" lon="3.2429">
        <ele>763.5</ele>
      </trkpt>
      <trkpt lat="44.10957" lon="3.24306">
        <ele>763.3</ele>
      </trkpt>
      <trkpt lat="44.10967" lon="3.24309">
        <ele>763.8</ele>
      </trkpt>
      <trkpt lat="44.11005" lon="3.24289">
        <ele>767.6</ele>
      </trkpt>
      <trkpt lat="44.11044" lon="3.24273">
        <ele>770.3</ele>
      </trkpt>
      <trkpt lat="44.11081" lon="3.24259">
        <ele>770</ele>
      </trkpt>
      <trkpt lat="44.11111" lon="3.24264">
        <ele>767.5</ele>
      </trkpt>
      <trkpt lat="44.11133" lon="3.24278">
        <ele>764.1</ele>
      </trkpt>
      <trkpt lat="44.1115" lon="3.24281">
        <ele>760.3</ele>
      </trkpt>
      <trkpt lat="44.11156" lon="3.24287">
        <ele>757.1</ele>
      </trkpt>
      <trkpt lat="44.1119" lon="3.24305">
        <ele>747.5</ele>
      </trkpt>
      <trkpt lat="44.112" lon="3.2433">
        <ele>739.3</ele>
      </trkpt>
      <trkpt lat="44.11211" lon="3.24324">
        <ele>737.5</ele>
      </trkpt>
      <trkpt lat="44.11277" lon="3.24247">
        <ele>735.8</ele>
      </trkpt>
      <trkpt lat="44.11311" lon="3.24233">
        <ele>726</ele>
      </trkpt>
      <trkpt lat="44.11317" lon="3.24232">
        <ele>723.1</ele>
      </trkpt>
      <trkpt lat="44.11338" lon="3.24209">
        <ele>717.3</ele>
      </trkpt>
      <trkpt lat="44.11333" lon="3.24243">
        <ele>709.9</ele>
      </trkpt>
      <trkpt lat="44.1136" lon="3.24218">
        <ele>701.1</ele>
      </trkpt>
      <trkpt lat="44.11358" lon="3.24234">
        <ele>698.7</ele>
      </trkpt>
      <trkpt lat="44.11358" lon="3.24251">
        <ele>693.5</ele>
      </trkpt>
      <trkpt lat="44.11377" lon="3.24212">
        <ele>689.6</ele>
      </trkpt>
      <trkpt lat="44.11378" lon="3.24245">
        <ele>683.2</ele>
      </trkpt>
      <trkpt lat="44.11373" lon="3.24269">
        <ele>679.7</ele>
      </trkpt>
      <trkpt lat="44.11395" lon="3.24234">
        <ele>674.6</ele>
      </trkpt>
      <trkpt lat="44.11403" lon="3.24239">
        <ele>668.6</ele>
      </trkpt>
      <trkpt lat="44.11419" lon="3.24232">
        <ele>660.9</ele>
      </trkpt>
      <trkpt lat="44.11422" lon="3.24243">
        <ele>656.5</ele>
      </trkpt>
      <trkpt lat="44.11418" lon="3.2432">
        <ele>645.8</ele>
      </trkpt>
      <trkpt lat="44.11442" lon="3.24274">
        <ele>634.1</ele>
      </trkpt>
      <trkpt lat="44.11448" lon="3.24288">
        <ele>627.9</ele>
      </trkpt>
      <trkpt lat="44.11464" lon="3.2428">
        <ele>620.6</ele>
      </trkpt>
      <trkpt lat="44.11462" lon="3.24291">
        <ele>618.9</ele>
      </trkpt>
      <trkpt lat="44.1151" lon="3.24274">
        <ele>607</ele>
      </trkpt>
      <trkpt lat="44.11542" lon="3.24267">
        <ele>598.5</ele>
      </trkpt>
      <trkpt lat="44.11541" lon="3.24252">
        <ele>598.1</ele>
      </trkpt>
      <trkpt lat="44.11572" lon="3.24273">
        <ele>588.9</ele>
      </trkpt>
      <trkpt lat="44.11608" lon="3.24303">
        <ele>580</ele>
      </trkpt>
      <trkpt lat="44.11638" lon="3.24309">
        <ele>572.3</ele>
      </trkpt>
      <trkpt lat="44.11645" lon="3.24306">
        <ele>569.3</ele>
      </trkpt>
      <trkpt lat="44.1165" lon="3.24317">
        <ele>565</ele>
      </trkpt>
      <trkpt lat="44.11644" lon="3.24328">
        <ele>565.3</ele>
      </trkpt>
      <trkpt lat="44.11663" lon="3.24323">
        <ele>558.4</ele>
      </trkpt>
      <trkpt lat="44.1166" lon="3.24298">
        <ele>557.2</ele>
      </trkpt>
      <trkpt lat="44.1167" lon="3.24295">
        <ele>550.2</ele>
      </trkpt>
      <trkpt lat="44.1168" lon="3.24319">
        <ele>549.3</ele>
      </trkpt>
      <trkpt lat="44.11688" lon="3.24323">
        <ele>545</ele>
      </trkpt>
      <trkpt lat="44.11683" lon="3.24286">
        <ele>538.7</ele>
      </trkpt>
      <trkpt lat="44.1173" lon="3.24325">
        <ele>525.1</ele>
      </trkpt>
      <trkpt lat="44.11747" lon="3.24349">
        <ele>519.2</ele>
      </trkpt>
      <trkpt lat="44.11745" lon="3.24362">
        <ele>518.6</ele>
      </trkpt>
      <trkpt lat="44.11743" lon="3.24363">
        <ele>518.7</ele>
      </trkpt>
      <trkpt lat="44.11762" lon="3.24354">
        <ele>511.8</ele>
      </trkpt>
      <trkpt lat="44.11765" lon="3.24364">
        <ele>509.2</ele>
      </trkpt>
      <trkpt lat="44.11757" lon="3.24391">
        <ele>503.9</ele>
      </trkpt>
      <trkpt lat="44.11763" lon="3.2439">
        <ele>502.6</ele>
      </trkpt>
      <trkpt lat="44.11803" lon="3.24363">
        <ele>492.9</ele>
      </trkpt>
      <trkpt lat="44.11808" lon="3.24346">
        <ele>491.6</ele>
      </trkpt>
      <trkpt lat="44.11804" lon="3.24322">
        <ele>490.7</ele>
      </trkpt>
      <trkpt lat="44.11791" lon="3.2429">
        <ele>486</ele>
      </trkpt>
      <trkpt lat="44.11797" lon="3.24282">
        <ele>480.9</ele>
      </trkpt>
      <trkpt lat="44.11843" lon="3.24308">
        <ele>474.8</ele>
      </trkpt>
      <trkpt lat="44.11854" lon="3.24308">
        <ele>472.7</ele>
      </trkpt>
      <trkpt lat="44.11864" lon="3.24316">
        <ele>469</ele>
      </trkpt>
      <trkpt lat="44.11867" lon="3.24338">
        <ele>467.3</ele>
      </trkpt>
      <trkpt lat="44.11869" lon="3.24352">
        <ele>463.4</ele>
      </trkpt>
      <trkpt lat="44.1186" lon="3.24383">
        <ele>465</ele>
      </trkpt>
      <trkpt lat="44.11856" lon="3.24414">
        <ele>457.4</ele>
      </trkpt>
      <trkpt lat="44.11881" lon="3.24393">
        <ele>451.4</ele>
      </trkpt>
      <trkpt lat="44.11887" lon="3.24405">
        <ele>445.1</ele>
      </trkpt>
      <trkpt lat="44.11881" lon="3.2442">
        <ele>443.2</ele>
      </trkpt>
      <trkpt lat="44.11891" lon="3.24416">
        <ele>438.5</ele>
      </trkpt>
      <trkpt lat="44.11892" lon="3.24423">
        <ele>434.9</ele>
      </trkpt>
      <trkpt lat="44.11876" lon="3.24459">
        <ele>430.3</ele>
      </trkpt>
      <trkpt lat="44.11889" lon="3.24448">
        <ele>425.9</ele>
      </trkpt>
      <trkpt lat="44.11901" lon="3.24424">
        <ele>425.9</ele>
      </trkpt>
      <trkpt lat="44.11907" lon="3.24424">
        <ele>420.9</ele>
      </trkpt>
      <trkpt lat="44.11915" lon="3.24446">
        <ele>411.3</ele>
      </trkpt>
      <trkpt lat="44.11908" lon="3.24474">
        <ele>407.6</ele>
      </trkpt>
      <trkpt lat="44.11924" lon="3.24489">
        <ele>404.7</ele>
      </trkpt>
      <trkpt lat="44.11952" lon="3.24504">
        <ele>411.1</ele>
      </trkpt>
      <trkpt lat="44.11962" lon="3.24562">
        <ele>420.6</ele>
        <time>2021-10-14T11:50:29Z</time>
      </trkpt>
      <trkpt lat="44.11954" lon="3.24574">
        <ele>420.6</ele>
        <time>2021-10-14T11:50:31Z</time>
      </trkpt>
      <trkpt lat="44.1195" lon="3.24579">
        <ele>420.6</ele>
        <time>2021-10-14T11:50:32Z</time>
      </trkpt>
      <trkpt lat="44.11945" lon="3.24583">
        <ele>420.6</ele>
        <time>2021-10-14T11:50:33Z</time>
      </trkpt>
      <trkpt lat="44.11935" lon="3.24591">
        <ele>420.6</ele>
        <time>2021-10-14T11:50:35Z</time>
      </trkpt>
      <trkpt lat="44.1193" lon="3.24594">
        <ele>420.6</ele>
        <time>2021-10-14T11:50:36Z</time>
      </trkpt>
      <trkpt lat="44.11922" lon="3.24595">
        <ele>420.6</ele>
        <time>2021-10-14T11:50:38Z</time>
      </trkpt>
      <trkpt lat="44.11917" lon="3.24597">
        <ele>420.7</ele>
        <time>2021-10-14T11:50:39Z</time>
      </trkpt>
      <trkpt lat="44.11906" lon="3.24599">
        <ele>420.7</ele>
        <time>2021-10-14T11:50:41Z</time>
      </trkpt>
      <trkpt lat="44.11901" lon="3.24602">
        <ele>420.7</ele>
        <time>2021-10-14T11:50:42Z</time>
      </trkpt>
      <trkpt lat="44.11897" lon="3.24603">
        <ele>420.7</ele>
        <time>2021-10-14T11:50:43Z</time>
      </trkpt>
      <trkpt lat="44.11891" lon="3.24605">
        <ele>420.7</ele>
        <time>2021-10-14T11:50:44Z</time>
      </trkpt>
      <trkpt lat="44.11886" lon="3.24606">
        <ele>420.8</ele>
        <time>2021-10-14T11:50:45Z</time>
      </trkpt>
      <trkpt lat="44.11876" lon="3.24609">
        <ele>420.8</ele>
        <time>2021-10-14T11:50:47Z</time>
      </trkpt>
      <trkpt lat="44.11865" lon="3.2461">
        <ele>420.9</ele>
        <time>2021-10-14T11:50:49Z</time>
      </trkpt>
      <trkpt lat="44.1186" lon="3.24611">
        <ele>420.9</ele>
        <time>2021-10-14T11:50:50Z</time>
      </trkpt>
      <trkpt lat="44.11851" lon="3.24615">
        <ele>420.9</ele>
        <time>2021-10-14T11:50:52Z</time>
      </trkpt>
      <trkpt lat="44.11843" lon="3.24618">
        <ele>420.9</ele>
        <time>2021-10-14T11:50:54Z</time>
      </trkpt>
      <trkpt lat="44.1184" lon="3.24621">
        <ele>420.9</ele>
        <time>2021-10-14T11:50:56Z</time>
      </trkpt>
      <trkpt lat="44.11835" lon="3.24623">
        <ele>421.2</ele>
        <time>2021-10-14T11:50:57Z</time>
      </trkpt>
      <trkpt lat="44.11835" lon="3.24626">
        <ele>421.3</ele>
        <time>2021-10-14T11:50:58Z</time>
      </trkpt>
      <trkpt lat="44.11835" lon="3.24627">
        <ele>421.4</ele>
        <time>2021-10-14T11:50:59Z</time>
      </trkpt>
      <trkpt lat="44.11831" lon="3.24627">
        <ele>421.5</ele>
        <time>2021-10-14T11:51:00Z</time>
      </trkpt>
      <trkpt lat="44.11828" lon="3.24627">
        <ele>421.8</ele>
        <time>2021-10-14T11:51:01Z</time>
      </trkpt>
      <trkpt lat="44.11823" lon="3.24626">
        <ele>422.1</ele>
        <time>2021-10-14T11:51:03Z</time>
      </trkpt>
      <trkpt lat="44.11818" lon="3.24627">
        <ele>422.5</ele>
        <time>2021-10-14T11:51:04Z</time>
      </trkpt>
      <trkpt lat="44.11813" lon="3.24628">
        <ele>422.9</ele>
        <time>2021-10-14T11:51:06Z</time>
      </trkpt>
      <trkpt lat="44.11811" lon="3.24629">
        <ele>423.1</ele>
        <time>2021-10-14T11:51:07Z</time>
      </trkpt>
      <trkpt lat="44.1181" lon="3.2463">
        <ele>423.3</ele>
        <time>2021-10-14T11:51:08Z</time>
      </trkpt>
      <trkpt lat="44.11807" lon="3.2463">
        <ele>423.5</ele>
        <time>2021-10-14T11:51:09Z</time>
      </trkpt>
      <trkpt lat="44.11805" lon="3.24629">
        <ele>423.7</ele>
        <time>2021-10-14T11:51:10Z</time>
      </trkpt>
      <trkpt lat="44.11803" lon="3.24629">
        <ele>423.9</ele>
        <time>2021-10-14T11:51:11Z</time>
      </trkpt>
      <trkpt lat="44.11801" lon="3.24629">
        <ele>424.1</ele>
        <time>2021-10-14T11:51:13Z</time>
      </trkpt>
      <trkpt lat="44.118" lon="3.2463">
        <ele>424.2</ele>
        <time>2021-10-14T11:51:14Z</time>
      </trkpt>
      <trkpt lat="44.11797" lon="3.24631">
        <ele>424.5</ele>
        <time>2021-10-14T11:51:15Z</time>
      </trkpt>
      <trkpt lat="44.11796" lon="3.24632">
        <ele>424.6</ele>
        <time>2021-10-14T11:51:16Z</time>
      </trkpt>
      <trkpt lat="44.11794" lon="3.24632">
        <ele>424.8</ele>
        <time>2021-10-14T11:51:17Z</time>
      </trkpt>
      <trkpt lat="44.11791" lon="3.24633">
        <ele>425.1</ele>
        <time>2021-10-14T11:51:19Z</time>
      </trkpt>
      <trkpt lat="44.11789" lon="3.24633">
        <ele>425.2</ele>
        <time>2021-10-14T11:51:20Z</time>
      </trkpt>
      <trkpt lat="44.11788" lon="3.24633">
        <ele>425.4</ele>
        <time>2021-10-14T11:51:21Z</time>
      </trkpt>
      <trkpt lat="44.11785" lon="3.24635">
        <ele>425.7</ele>
        <time>2021-10-14T11:51:22Z</time>
      </trkpt>
      <trkpt lat="44.11784" lon="3.24636">
        <ele>425.8</ele>
        <time>2021-10-14T11:51:23Z</time>
      </trkpt>
      <trkpt lat="44.11782" lon="3.24638">
        <ele>426</ele>
        <time>2021-10-14T11:51:24Z</time>
      </trkpt>
      <trkpt lat="44.11781" lon="3.2464">
        <ele>426.2</ele>
        <time>2021-10-14T11:51:26Z</time>
      </trkpt>
      <trkpt lat="44.11778" lon="3.24642">
        <ele>426.5</ele>
        <time>2021-10-14T11:51:27Z</time>
      </trkpt>
      <trkpt lat="44.11777" lon="3.24642">
        <ele>426.6</ele>
        <time>2021-10-14T11:51:28Z</time>
      </trkpt>
      <trkpt lat="44.11774" lon="3.24644">
        <ele>426.9</ele>
        <time>2021-10-14T11:51:29Z</time>
      </trkpt>
      <trkpt lat="44.11772" lon="3.24645">
        <ele>427.1</ele>
        <time>2021-10-14T11:51:31Z</time>
      </trkpt>
      <trkpt lat="44.1177" lon="3.24647">
        <ele>427.3</ele>
        <time>2021-10-14T11:51:32Z</time>
      </trkpt>
      <trkpt lat="44.11767" lon="3.2465">
        <ele>427.7</ele>
        <time>2021-10-14T11:51:34Z</time>
      </trkpt>
      <trkpt lat="44.11765" lon="3.24652">
        <ele>427.9</ele>
        <time>2021-10-14T11:51:35Z</time>
      </trkpt>
      <trkpt lat="44.11762" lon="3.24654">
        <ele>428.1</ele>
        <time>2021-10-14T11:51:37Z</time>
      </trkpt>
      <trkpt lat="44.1176" lon="3.24656">
        <ele>428.3</ele>
        <time>2021-10-14T11:51:38Z</time>
      </trkpt>
      <trkpt lat="44.11759" lon="3.24658">
        <ele>428.5</ele>
        <time>2021-10-14T11:51:40Z</time>
      </trkpt>
      <trkpt lat="44.11756" lon="3.24659">
        <ele>428.7</ele>
        <time>2021-10-14T11:51:41Z</time>
      </trkpt>
      <trkpt lat="44.11755" lon="3.2466">
        <ele>428.8</ele>
        <time>2021-10-14T11:51:42Z</time>
      </trkpt>
      <trkpt lat="44.11753" lon="3.24661">
        <ele>429</ele>
        <time>2021-10-14T11:51:43Z</time>
      </trkpt>
      <trkpt lat="44.11751" lon="3.24662">
        <ele>429.2</ele>
        <time>2021-10-14T11:51:45Z</time>
      </trkpt>
      <trkpt lat="44.11749" lon="3.24665">
        <ele>429.4</ele>
        <time>2021-10-14T11:51:46Z</time>
      </trkpt>
      <trkpt lat="44.11748" lon="3.24666">
        <ele>429.5</ele>
        <time>2021-10-14T11:51:47Z</time>
      </trkpt>
      <trkpt lat="44.11746" lon="3.24669">
        <ele>429.8</ele>
        <time>2021-10-14T11:51:48Z</time>
      </trkpt>
      <trkpt lat="44.11745" lon="3.2467">
        <ele>429.9</ele>
        <time>2021-10-14T11:51:49Z</time>
      </trkpt>
      <trkpt lat="44.11743" lon="3.24673">
        <ele>430.1</ele>
        <time>2021-10-14T11:51:50Z</time>
      </trkpt>
      <trkpt lat="44.11742" lon="3.24674">
        <ele>430.2</ele>
        <time>2021-10-14T11:51:51Z</time>
      </trkpt>
      <trkpt lat="44.1174" lon="3.24677">
        <ele>430.5</ele>
        <time>2021-10-14T11:51:53Z</time>
      </trkpt>
      <trkpt lat="44.11739" lon="3.24677">
        <ele>430.5</ele>
        <time>2021-10-14T11:51:54Z</time>
      </trkpt>
      <trkpt lat="44.11737" lon="3.2468">
        <ele>430.8</ele>
        <time>2021-10-14T11:51:55Z</time>
      </trkpt>
      <trkpt lat="44.11736" lon="3.24681">
        <ele>430.9</ele>
        <time>2021-10-14T11:51:56Z</time>
      </trkpt>
      <trkpt lat="44.11735" lon="3.24683">
        <ele>431.1</ele>
        <time>2021-10-14T11:51:58Z</time>
      </trkpt>
      <trkpt lat="44.11734" lon="3.24684">
        <ele>431.2</ele>
        <time>2021-10-14T11:51:59Z</time>
      </trkpt>
      <trkpt lat="44.11733" lon="3.24686">
        <ele>431.3</ele>
        <time>2021-10-14T11:52:00Z</time>
      </trkpt>
      <trkpt lat="44.11732" lon="3.24687">
        <ele>431.4</ele>
        <time>2021-10-14T11:52:01Z</time>
      </trkpt>
      <trkpt lat="44.11729" lon="3.2469">
        <ele>431.6</ele>
        <time>2021-10-14T11:52:03Z</time>
      </trkpt>
      <trkpt lat="44.11729" lon="3.24691">
        <ele>431.7</ele>
        <time>2021-10-14T11:52:04Z</time>
      </trkpt>
      <trkpt lat="44.11728" lon="3.24693">
        <ele>431.8</ele>
        <time>2021-10-14T11:52:05Z</time>
      </trkpt>
      <trkpt lat="44.11727" lon="3.24694">
        <ele>431.9</ele>
        <time>2021-10-14T11:52:06Z</time>
      </trkpt>
      <trkpt lat="44.11725" lon="3.24698">
        <ele>432.2</ele>
        <time>2021-10-14T11:52:08Z</time>
      </trkpt>
      <trkpt lat="44.11724" lon="3.24699">
        <ele>432.3</ele>
        <time>2021-10-14T11:52:09Z</time>
      </trkpt>
      <trkpt lat="44.11723" lon="3.247">
        <ele>432.4</ele>
        <time>2021-10-14T11:52:10Z</time>
      </trkpt>
      <trkpt lat="44.11721" lon="3.24702">
        <ele>432.5</ele>
        <time>2021-10-14T11:52:12Z</time>
      </trkpt>
      <trkpt lat="44.1172" lon="3.24704">
        <ele>432.7</ele>
        <time>2021-10-14T11:52:13Z</time>
      </trkpt>
      <trkpt lat="44.11718" lon="3.24708">
        <ele>432.9</ele>
        <time>2021-10-14T11:52:15Z</time>
      </trkpt>
      <trkpt lat="44.11716" lon="3.24711">
        <ele>433.1</ele>
        <time>2021-10-14T11:52:16Z</time>
      </trkpt>
      <trkpt lat="44.11716" lon="3.24712">
        <ele>433.2</ele>
        <time>2021-10-14T11:52:17Z</time>
      </trkpt>
      <trkpt lat="44.11714" lon="3.24716">
        <ele>433.5</ele>
        <time>2021-10-14T11:52:18Z</time>
      </trkpt>
      <trkpt lat="44.11713" lon="3.24717">
        <ele>433.6</ele>
        <time>2021-10-14T11:52:19Z</time>
      </trkpt>
      <trkpt lat="44.1171" lon="3.24721">
        <ele>433.9</ele>
        <time>2021-10-14T11:52:21Z</time>
      </trkpt>
      <trkpt lat="44.11709" lon="3.24722">
        <ele>434</ele>
        <time>2021-10-14T11:52:22Z</time>
      </trkpt>
      <trkpt lat="44.11708" lon="3.24724">
        <ele>434.1</ele>
        <time>2021-10-14T11:52:23Z</time>
      </trkpt>
      <trkpt lat="44.11705" lon="3.24726">
        <ele>434.4</ele>
        <time>2021-10-14T11:52:25Z</time>
      </trkpt>
      <trkpt lat="44.11704" lon="3.24726">
        <ele>434.5</ele>
        <time>2021-10-14T11:52:26Z</time>
      </trkpt>
      <trkpt lat="44.11703" lon="3.24728">
        <ele>434.7</ele>
        <time>2021-10-14T11:52:27Z</time>
      </trkpt>
      <trkpt lat="44.11703" lon="3.24729">
        <ele>434.8</ele>
        <time>2021-10-14T11:52:28Z</time>
      </trkpt>
      <trkpt lat="44.11705" lon="3.24731">
        <ele>435.1</ele>
        <time>2021-10-14T11:52:30Z</time>
      </trkpt>
      <trkpt lat="44.11707" lon="3.24731">
        <ele>435.2</ele>
        <time>2021-10-14T11:52:31Z</time>
      </trkpt>
      <trkpt lat="44.1171" lon="3.24729">
        <ele>435.5</ele>
        <time>2021-10-14T11:52:33Z</time>
      </trkpt>
      <trkpt lat="44.11711" lon="3.24728">
        <ele>435.7</ele>
        <time>2021-10-14T11:52:34Z</time>
      </trkpt>
      <trkpt lat="44.11716" lon="3.24728">
        <ele>436.2</ele>
        <time>2021-10-14T11:52:36Z</time>
      </trkpt>
      <trkpt lat="44.11718" lon="3.24728">
        <ele>436.3</ele>
        <time>2021-10-14T11:52:37Z</time>
      </trkpt>
      <trkpt lat="44.1172" lon="3.24728">
        <ele>436.5</ele>
        <time>2021-10-14T11:52:38Z</time>
      </trkpt>
      <trkpt lat="44.11723" lon="3.24727">
        <ele>436.8</ele>
        <time>2021-10-14T11:52:39Z</time>
      </trkpt>
      <trkpt lat="44.11723" lon="3.24727">
        <ele>436.9</ele>
        <time>2021-10-14T11:52:40Z</time>
      </trkpt>
      <trkpt lat="44.11725" lon="3.24726">
        <ele>437</ele>
        <time>2021-10-14T11:52:41Z</time>
      </trkpt>
      <trkpt lat="44.11726" lon="3.24725">
        <ele>437.1</ele>
        <time>2021-10-14T11:52:42Z</time>
      </trkpt>
      <trkpt lat="44.11728" lon="3.24724">
        <ele>437.4</ele>
        <time>2021-10-14T11:52:44Z</time>
      </trkpt>
      <trkpt lat="44.11729" lon="3.24723">
        <ele>437.5</ele>
        <time>2021-10-14T11:52:45Z</time>
      </trkpt>
      <trkpt lat="44.1173" lon="3.24723">
        <ele>437.5</ele>
        <time>2021-10-14T11:52:46Z</time>
      </trkpt>
      <trkpt lat="44.11732" lon="3.24721">
        <ele>437.8</ele>
        <time>2021-10-14T11:52:48Z</time>
      </trkpt>
      <trkpt lat="44.11734" lon="3.24721">
        <ele>437.9</ele>
        <time>2021-10-14T11:52:50Z</time>
      </trkpt>
      <trkpt lat="44.11735" lon="3.2472">
        <ele>438</ele>
        <time>2021-10-14T11:52:51Z</time>
      </trkpt>
      <trkpt lat="44.11737" lon="3.24719">
        <ele>438.2</ele>
        <time>2021-10-14T11:52:53Z</time>
      </trkpt>
      <trkpt lat="44.11738" lon="3.24718">
        <ele>438.3</ele>
        <time>2021-10-14T11:52:54Z</time>
      </trkpt>
      <trkpt lat="44.11739" lon="3.24718">
        <ele>438.3</ele>
        <time>2021-10-14T11:52:56Z</time>
      </trkpt>
      <trkpt lat="44.1174" lon="3.24717">
        <ele>438.4</ele>
        <time>2021-10-14T11:52:57Z</time>
      </trkpt>
      <trkpt lat="44.11741" lon="3.24717">
        <ele>438.5</ele>
        <time>2021-10-14T11:52:58Z</time>
      </trkpt>
      <trkpt lat="44.11743" lon="3.24716">
        <ele>438.7</ele>
        <time>2021-10-14T11:52:59Z</time>
      </trkpt>
      <trkpt lat="44.11744" lon="3.24714">
        <ele>438.8</ele>
        <time>2021-10-14T11:53:00Z</time>
      </trkpt>
      <trkpt lat="44.11745" lon="3.24713">
        <ele>438.9</ele>
        <time>2021-10-14T11:53:01Z</time>
      </trkpt>
      <trkpt lat="44.11747" lon="3.24711">
        <ele>439.1</ele>
        <time>2021-10-14T11:53:03Z</time>
      </trkpt>
      <trkpt lat="44.11748" lon="3.2471">
        <ele>439.2</ele>
        <time>2021-10-14T11:53:04Z</time>
      </trkpt>
      <trkpt lat="44.11749" lon="3.24708">
        <ele>439.3</ele>
        <time>2021-10-14T11:53:05Z</time>
      </trkpt>
      <trkpt lat="44.1175" lon="3.24707">
        <ele>439.4</ele>
        <time>2021-10-14T11:53:06Z</time>
      </trkpt>
      <trkpt lat="44.11754" lon="3.24704">
        <ele>439.7</ele>
        <time>2021-10-14T11:53:08Z</time>
      </trkpt>
      <trkpt lat="44.11755" lon="3.24703">
        <ele>439.8</ele>
        <time>2021-10-14T11:53:10Z</time>
      </trkpt>
      <trkpt lat="44.11756" lon="3.24702">
        <ele>439.8</ele>
        <time>2021-10-14T11:53:11Z</time>
      </trkpt>
      <trkpt lat="44.11759" lon="3.24701">
        <ele>439.1</ele>
        <time>2021-10-14T11:53:12Z</time>
      </trkpt>
      <trkpt lat="44.11762" lon="3.24702">
        <ele>439.8</ele>
        <time>2021-10-14T11:53:14Z</time>
      </trkpt>
      <trkpt lat="44.11762" lon="3.24702">
        <ele>441.4</ele>
        <time>2021-10-14T11:53:15Z</time>
      </trkpt>
      <trkpt lat="44.11766" lon="3.24702">
        <ele>442.8</ele>
        <time>2021-10-14T11:53:17Z</time>
      </trkpt>
      <trkpt lat="44.11768" lon="3.24702">
        <ele>442.8</ele>
        <time>2021-10-14T11:53:19Z</time>
      </trkpt>
      <trkpt lat="44.11769" lon="3.24702">
        <ele>442.8</ele>
        <time>2021-10-14T11:53:20Z</time>
      </trkpt>
      <trkpt lat="44.11771" lon="3.24702">
        <ele>441.9</ele>
        <time>2021-10-14T11:53:21Z</time>
      </trkpt>
      <trkpt lat="44.11773" lon="3.24702">
        <ele>442.5</ele>
        <time>2021-10-14T11:53:22Z</time>
      </trkpt>
      <trkpt lat="44.11774" lon="3.24701">
        <ele>442.5</ele>
        <time>2021-10-14T11:53:23Z</time>
      </trkpt>
      <trkpt lat="44.11776" lon="3.24701">
        <ele>443.2</ele>
        <time>2021-10-14T11:53:24Z</time>
      </trkpt>
      <trkpt lat="44.11778" lon="3.247">
        <ele>443.2</ele>
        <time>2021-10-14T11:53:26Z</time>
      </trkpt>
      <trkpt lat="44.11779" lon="3.247">
        <ele>443.9</ele>
        <time>2021-10-14T11:53:28Z</time>
      </trkpt>
      <trkpt lat="44.1178" lon="3.247">
        <ele>443.9</ele>
        <time>2021-10-14T11:53:29Z</time>
      </trkpt>
      <trkpt lat="44.11782" lon="3.24701">
        <ele>443.9</ele>
        <time>2021-10-14T11:53:30Z</time>
      </trkpt>
      <trkpt lat="44.11784" lon="3.247">
        <ele>444.5</ele>
        <time>2021-10-14T11:53:32Z</time>
      </trkpt>
      <trkpt lat="44.11785" lon="3.247">
        <ele>445.1</ele>
        <time>2021-10-14T11:53:33Z</time>
      </trkpt>
      <trkpt lat="44.11787" lon="3.24698">
        <ele>445.1</ele>
        <time>2021-10-14T11:53:34Z</time>
      </trkpt>
      <trkpt lat="44.11788" lon="3.24697">
        <ele>443.4</ele>
        <time>2021-10-14T11:53:35Z</time>
      </trkpt>
      <trkpt lat="44.11791" lon="3.24695">
        <ele>443.9</ele>
        <time>2021-10-14T11:53:37Z</time>
      </trkpt>
      <trkpt lat="44.11791" lon="3.24695">
        <ele>444.3</ele>
        <time>2021-10-14T11:53:38Z</time>
      </trkpt>
      <trkpt lat="44.11793" lon="3.24693">
        <ele>442.6</ele>
        <time>2021-10-14T11:53:39Z</time>
      </trkpt>
      <trkpt lat="44.11795" lon="3.2469">
        <ele>443</ele>
        <time>2021-10-14T11:53:41Z</time>
      </trkpt>
      <trkpt lat="44.11798" lon="3.24687">
        <ele>441.8</ele>
        <time>2021-10-14T11:53:42Z</time>
      </trkpt>
      <trkpt lat="44.11799" lon="3.24687">
        <ele>441.8</ele>
        <time>2021-10-14T11:53:43Z</time>
      </trkpt>
      <trkpt lat="44.118" lon="3.24686">
        <ele>441.8</ele>
        <time>2021-10-14T11:53:45Z</time>
      </trkpt>
      <trkpt lat="44.11802" lon="3.24684">
        <ele>440.7</ele>
        <time>2021-10-14T11:53:46Z</time>
      </trkpt>
      <trkpt lat="44.11805" lon="3.24683">
        <ele>441.1</ele>
        <time>2021-10-14T11:53:48Z</time>
      </trkpt>
      <trkpt lat="44.11806" lon="3.24683">
        <ele>441.1</ele>
        <time>2021-10-14T11:53:49Z</time>
      </trkpt>
      <trkpt lat="44.11807" lon="3.24686">
        <ele>442.8</ele>
        <time>2021-10-14T11:53:50Z</time>
      </trkpt>
      <trkpt lat="44.11806" lon="3.24687">
        <ele>442.6</ele>
        <time>2021-10-14T11:53:52Z</time>
      </trkpt>
      <trkpt lat="44.11806" lon="3.24689">
        <ele>442.6</ele>
        <time>2021-10-14T11:53:53Z</time>
      </trkpt>
      <trkpt lat="44.11803" lon="3.24692">
        <ele>443.8</ele>
        <time>2021-10-14T11:53:55Z</time>
      </trkpt>
      <trkpt lat="44.11802" lon="3.24694">
        <ele>445.5</ele>
        <time>2021-10-14T11:53:56Z</time>
      </trkpt>
      <trkpt lat="44.118" lon="3.24696">
        <ele>445.5</ele>
        <time>2021-10-14T11:53:58Z</time>
      </trkpt>
      <trkpt lat="44.11799" lon="3.24697">
        <ele>445.1</ele>
        <time>2021-10-14T11:53:59Z</time>
      </trkpt>
      <trkpt lat="44.11798" lon="3.24699">
        <ele>446.9</ele>
        <time>2021-10-14T11:54:00Z</time>
      </trkpt>
      <trkpt lat="44.11795" lon="3.24702">
        <ele>446.5</ele>
        <time>2021-10-14T11:54:02Z</time>
      </trkpt>
      <trkpt lat="44.11794" lon="3.24703">
        <ele>448.2</ele>
        <time>2021-10-14T11:54:03Z</time>
      </trkpt>
      <trkpt lat="44.11792" lon="3.24705">
        <ele>447.8</ele>
        <time>2021-10-14T11:54:05Z</time>
      </trkpt>
      <trkpt lat="44.11791" lon="3.24706">
        <ele>447.3</ele>
        <time>2021-10-14T11:54:06Z</time>
      </trkpt>
      <trkpt lat="44.11789" lon="3.24706">
        <ele>449.1</ele>
        <time>2021-10-14T11:54:07Z</time>
      </trkpt>
      <trkpt lat="44.11788" lon="3.24706">
        <ele>449.1</ele>
        <time>2021-10-14T11:54:08Z</time>
      </trkpt>
      <trkpt lat="44.11787" lon="3.24707">
        <ele>448.5</ele>
        <time>2021-10-14T11:54:09Z</time>
      </trkpt>
      <trkpt lat="44.11786" lon="3.24708">
        <ele>448.5</ele>
        <time>2021-10-14T11:54:11Z</time>
      </trkpt>
      <trkpt lat="44.11784" lon="3.2471">
        <ele>447.9</ele>
        <time>2021-10-14T11:54:13Z</time>
      </trkpt>
      <trkpt lat="44.11783" lon="3.24711">
        <ele>449.6</ele>
        <time>2021-10-14T11:54:14Z</time>
      </trkpt>
      <trkpt lat="44.11782" lon="3.24712">
        <ele>449.6</ele>
        <time>2021-10-14T11:54:15Z</time>
      </trkpt>
      <trkpt lat="44.11781" lon="3.24712">
        <ele>448.9</ele>
        <time>2021-10-14T11:54:16Z</time>
      </trkpt>
      <trkpt lat="44.11778" lon="3.24713">
        <ele>448.2</ele>
        <time>2021-10-14T11:54:18Z</time>
      </trkpt>
      <trkpt lat="44.11777" lon="3.24713">
        <ele>448.2</ele>
        <time>2021-10-14T11:54:19Z</time>
      </trkpt>
      <trkpt lat="44.11776" lon="3.24714">
        <ele>448.2</ele>
        <time>2021-10-14T11:54:20Z</time>
      </trkpt>
      <trkpt lat="44.11775" lon="3.24715">
        <ele>449</ele>
        <time>2021-10-14T11:54:21Z</time>
      </trkpt>
      <trkpt lat="44.11774" lon="3.24716">
        <ele>449</ele>
        <time>2021-10-14T11:54:23Z</time>
      </trkpt>
      <trkpt lat="44.11772" lon="3.24716">
        <ele>448.3</ele>
        <time>2021-10-14T11:54:24Z</time>
      </trkpt>
      <trkpt lat="44.11771" lon="3.24717">
        <ele>448.3</ele>
        <time>2021-10-14T11:54:25Z</time>
      </trkpt>
      <trkpt lat="44.11769" lon="3.24717">
        <ele>447.6</ele>
        <time>2021-10-14T11:54:27Z</time>
      </trkpt>
      <trkpt lat="44.11768" lon="3.24719">
        <ele>447.6</ele>
        <time>2021-10-14T11:54:28Z</time>
      </trkpt>
      <trkpt lat="44.11766" lon="3.2472">
        <ele>448.4</ele>
        <time>2021-10-14T11:54:29Z</time>
      </trkpt>
      <trkpt lat="44.11765" lon="3.2472">
        <ele>448.4</ele>
        <time>2021-10-14T11:54:31Z</time>
      </trkpt>
      <trkpt lat="44.11763" lon="3.24721">
        <ele>447.6</ele>
        <time>2021-10-14T11:54:32Z</time>
      </trkpt>
      <trkpt lat="44.11762" lon="3.24723">
        <ele>447.6</ele>
        <time>2021-10-14T11:54:33Z</time>
      </trkpt>
      <trkpt lat="44.11761" lon="3.24724">
        <ele>449.1</ele>
        <time>2021-10-14T11:54:34Z</time>
      </trkpt>
      <trkpt lat="44.11761" lon="3.24725">
        <ele>449.1</ele>
        <time>2021-10-14T11:54:35Z</time>
      </trkpt>
      <trkpt lat="44.1176" lon="3.24726">
        <ele>448.2</ele>
        <time>2021-10-14T11:54:36Z</time>
      </trkpt>
      <trkpt lat="44.11759" lon="3.24728">
        <ele>449.7</ele>
        <time>2021-10-14T11:54:38Z</time>
      </trkpt>
      <trkpt lat="44.11758" lon="3.24729">
        <ele>449.7</ele>
        <time>2021-10-14T11:54:39Z</time>
      </trkpt>
      <trkpt lat="44.11757" lon="3.24731">
        <ele>449.7</ele>
        <time>2021-10-14T11:54:41Z</time>
      </trkpt>
      <trkpt lat="44.11757" lon="3.24733">
        <ele>450.3</ele>
        <time>2021-10-14T11:54:43Z</time>
      </trkpt>
      <trkpt lat="44.11756" lon="3.24735">
        <ele>450.3</ele>
        <time>2021-10-14T11:54:44Z</time>
      </trkpt>
      <trkpt lat="44.11755" lon="3.24737">
        <ele>451.9</ele>
        <time>2021-10-14T11:54:45Z</time>
      </trkpt>
      <trkpt lat="44.11754" lon="3.24739">
        <ele>451.9</ele>
        <time>2021-10-14T11:54:46Z</time>
      </trkpt>
      <trkpt lat="44.11754" lon="3.24741">
        <ele>453.6</ele>
        <time>2021-10-14T11:54:47Z</time>
      </trkpt>
      <trkpt lat="44.11754" lon="3.24744">
        <ele>452.6</ele>
        <time>2021-10-14T11:54:49Z</time>
      </trkpt>
      <trkpt lat="44.11753" lon="3.24745">
        <ele>454.4</ele>
        <time>2021-10-14T11:54:50Z</time>
      </trkpt>
      <trkpt lat="44.11753" lon="3.24747">
        <ele>454.4</ele>
        <time>2021-10-14T11:54:51Z</time>
      </trkpt>
      <trkpt lat="44.11752" lon="3.24749">
        <ele>456.2</ele>
        <time>2021-10-14T11:54:52Z</time>
      </trkpt>
      <trkpt lat="44.11751" lon="3.24752">
        <ele>455.2</ele>
        <time>2021-10-14T11:54:54Z</time>
      </trkpt>
      <trkpt lat="44.1175" lon="3.24754">
        <ele>457</ele>
        <time>2021-10-14T11:54:56Z</time>
      </trkpt>
      <trkpt lat="44.11749" lon="3.24755">
        <ele>457</ele>
        <time>2021-10-14T11:54:57Z</time>
      </trkpt>
      <trkpt lat="44.11748" lon="3.24757">
        <ele>457</ele>
        <time>2021-10-14T11:54:58Z</time>
      </trkpt>
      <trkpt lat="44.11747" lon="3.24759">
        <ele>457.7</ele>
        <time>2021-10-14T11:55:00Z</time>
      </trkpt>
      <trkpt lat="44.11746" lon="3.24761">
        <ele>457.7</ele>
        <time>2021-10-14T11:55:01Z</time>
      </trkpt>
      <trkpt lat="44.11745" lon="3.24763">
        <ele>459.4</ele>
        <time>2021-10-14T11:55:02Z</time>
      </trkpt>
      <trkpt lat="44.11744" lon="3.24765">
        <ele>458.4</ele>
        <time>2021-10-14T11:55:03Z</time>
      </trkpt>
      <trkpt lat="44.11743" lon="3.24767">
        <ele>460.1</ele>
        <time>2021-10-14T11:55:05Z</time>
      </trkpt>
      <trkpt lat="44.11743" lon="3.24768">
        <ele>460.1</ele>
        <time>2021-10-14T11:55:06Z</time>
      </trkpt>
      <trkpt lat="44.11742" lon="3.2477">
        <ele>460.1</ele>
        <time>2021-10-14T11:55:07Z</time>
      </trkpt>
      <trkpt lat="44.11741" lon="3.24771">
        <ele>460.7</ele>
        <time>2021-10-14T11:55:08Z</time>
      </trkpt>
      <trkpt lat="44.1174" lon="3.24773">
        <ele>460.7</ele>
        <time>2021-10-14T11:55:10Z</time>
      </trkpt>
      <trkpt lat="44.11739" lon="3.24774">
        <ele>460.7</ele>
        <time>2021-10-14T11:55:11Z</time>
      </trkpt>
      <trkpt lat="44.11738" lon="3.24776">
        <ele>461.4</ele>
        <time>2021-10-14T11:55:12Z</time>
      </trkpt>
      <trkpt lat="44.11737" lon="3.24778">
        <ele>461.4</ele>
        <time>2021-10-14T11:55:13Z</time>
      </trkpt>
      <trkpt lat="44.11735" lon="3.24779">
        <ele>460.3</ele>
        <time>2021-10-14T11:55:14Z</time>
      </trkpt>
      <trkpt lat="44.11732" lon="3.2478">
        <ele>462.1</ele>
        <time>2021-10-14T11:55:15Z</time>
      </trkpt>
      <trkpt lat="44.11731" lon="3.2478">
        <ele>461</ele>
        <time>2021-10-14T11:55:17Z</time>
      </trkpt>
      <trkpt lat="44.1173" lon="3.2478">
        <ele>461</ele>
        <time>2021-10-14T11:55:18Z</time>
      </trkpt>
      <trkpt lat="44.11728" lon="3.2478">
        <ele>459.9</ele>
        <time>2021-10-14T11:55:19Z</time>
      </trkpt>
      <trkpt lat="44.11726" lon="3.2478">
        <ele>458.7</ele>
        <time>2021-10-14T11:55:20Z</time>
      </trkpt>
      <trkpt lat="44.11724" lon="3.24779">
        <ele>458.7</ele>
        <time>2021-10-14T11:55:22Z</time>
      </trkpt>
      <trkpt lat="44.11722" lon="3.24779">
        <ele>457.5</ele>
        <time>2021-10-14T11:55:23Z</time>
      </trkpt>
      <trkpt lat="44.1172" lon="3.2478">
        <ele>457.5</ele>
        <time>2021-10-14T11:55:24Z</time>
      </trkpt>
      <trkpt lat="44.11719" lon="3.24781">
        <ele>456.3</ele>
        <time>2021-10-14T11:55:25Z</time>
      </trkpt>
      <trkpt lat="44.11718" lon="3.24784">
        <ele>458.1</ele>
        <time>2021-10-14T11:55:27Z</time>
      </trkpt>
      <trkpt lat="44.11718" lon="3.24786">
        <ele>458.1</ele>
        <time>2021-10-14T11:55:28Z</time>
      </trkpt>
      <trkpt lat="44.1172" lon="3.24788">
        <ele>460</ele>
        <time>2021-10-14T11:55:29Z</time>
      </trkpt>
      <trkpt lat="44.11723" lon="3.24789">
        <ele>461.3</ele>
        <time>2021-10-14T11:55:31Z</time>
      </trkpt>
      <trkpt lat="44.11724" lon="3.24789">
        <ele>462.5</ele>
        <time>2021-10-14T11:55:32Z</time>
      </trkpt>
      <trkpt lat="44.11726" lon="3.24788">
        <ele>462.5</ele>
        <time>2021-10-14T11:55:33Z</time>
      </trkpt>
      <trkpt lat="44.11727" lon="3.24788">
        <ele>463.6</ele>
        <time>2021-10-14T11:55:35Z</time>
      </trkpt>
      <trkpt lat="44.11728" lon="3.24787">
        <ele>461.7</ele>
        <time>2021-10-14T11:55:36Z</time>
      </trkpt>
      <trkpt lat="44.11729" lon="3.24787">
        <ele>462.9</ele>
        <time>2021-10-14T11:55:37Z</time>
      </trkpt>
      <trkpt lat="44.1173" lon="3.24786">
        <ele>462.9</ele>
        <time>2021-10-14T11:55:38Z</time>
      </trkpt>
      <trkpt lat="44.11732" lon="3.24786">
        <ele>462.9</ele>
        <time>2021-10-14T11:55:39Z</time>
      </trkpt>
      <trkpt lat="44.11734" lon="3.24786">
        <ele>464</ele>
        <time>2021-10-14T11:55:41Z</time>
      </trkpt>
      <trkpt lat="44.11736" lon="3.24787">
        <ele>465.1</ele>
        <time>2021-10-14T11:55:42Z</time>
      </trkpt>
      <trkpt lat="44.11737" lon="3.24787">
        <ele>465.1</ele>
        <time>2021-10-14T11:55:43Z</time>
      </trkpt>
      <trkpt lat="44.1174" lon="3.24786">
        <ele>466.2</ele>
        <time>2021-10-14T11:55:44Z</time>
      </trkpt>
      <trkpt lat="44.11741" lon="3.24785">
        <ele>466.2</ele>
        <time>2021-10-14T11:55:46Z</time>
      </trkpt>
      <trkpt lat="44.11742" lon="3.24785">
        <ele>466.2</ele>
        <time>2021-10-14T11:55:47Z</time>
      </trkpt>
      <trkpt lat="44.11742" lon="3.24784">
        <ele>467.2</ele>
        <time>2021-10-14T11:55:48Z</time>
      </trkpt>
      <trkpt lat="44.11743" lon="3.24783">
        <ele>465.4</ele>
        <time>2021-10-14T11:55:49Z</time>
      </trkpt>
      <trkpt lat="44.11745" lon="3.24781">
        <ele>466.4</ele>
        <time>2021-10-14T11:55:51Z</time>
      </trkpt>
      <trkpt lat="44.11746" lon="3.24779">
        <ele>466.4</ele>
        <time>2021-10-14T11:55:53Z</time>
      </trkpt>
      <trkpt lat="44.11748" lon="3.24777">
        <ele>465.7</ele>
        <time>2021-10-14T11:55:54Z</time>
      </trkpt>
      <trkpt lat="44.1175" lon="3.24776">
        <ele>465.7</ele>
        <time>2021-10-14T11:55:56Z</time>
      </trkpt>
      <trkpt lat="44.11751" lon="3.24773">
        <ele>465.1</ele>
        <time>2021-10-14T11:55:57Z</time>
      </trkpt>
      <trkpt lat="44.11752" lon="3.24771">
        <ele>465.1</ele>
        <time>2021-10-14T11:55:58Z</time>
      </trkpt>
      <trkpt lat="44.11754" lon="3.24768">
        <ele>464.5</ele>
        <time>2021-10-14T11:56:00Z</time>
      </trkpt>
      <trkpt lat="44.11755" lon="3.24767">
        <ele>464.5</ele>
        <time>2021-10-14T11:56:01Z</time>
      </trkpt>
      <trkpt lat="44.11756" lon="3.24766">
        <ele>462.7</ele>
        <time>2021-10-14T11:56:02Z</time>
      </trkpt>
      <trkpt lat="44.11757" lon="3.24765">
        <ele>463.8</ele>
        <time>2021-10-14T11:56:04Z</time>
      </trkpt>
      <trkpt lat="44.11759" lon="3.24765">
        <ele>463.8</ele>
        <time>2021-10-14T11:56:05Z</time>
      </trkpt>
      <trkpt lat="44.11761" lon="3.24764">
        <ele>464.8</ele>
        <time>2021-10-14T11:56:06Z</time>
      </trkpt>
      <trkpt lat="44.11764" lon="3.24763">
        <ele>465.7</ele>
        <time>2021-10-14T11:56:08Z</time>
      </trkpt>
      <trkpt lat="44.11765" lon="3.24763">
        <ele>465.7</ele>
        <time>2021-10-14T11:56:09Z</time>
      </trkpt>
      <trkpt lat="44.11767" lon="3.24763">
        <ele>466.5</ele>
        <time>2021-10-14T11:56:10Z</time>
      </trkpt>
      <trkpt lat="44.11768" lon="3.24764">
        <ele>466.5</ele>
        <time>2021-10-14T11:56:11Z</time>
      </trkpt>
      <trkpt lat="44.11769" lon="3.24764">
        <ele>466.5</ele>
        <time>2021-10-14T11:56:12Z</time>
      </trkpt>
      <trkpt lat="44.1177" lon="3.24764">
        <ele>467.4</ele>
        <time>2021-10-14T11:56:14Z</time>
      </trkpt>
      <trkpt lat="44.11772" lon="3.24764">
        <ele>467.4</ele>
        <time>2021-10-14T11:56:15Z</time>
      </trkpt>
      <trkpt lat="44.11773" lon="3.24763">
        <ele>468.2</ele>
        <time>2021-10-14T11:56:17Z</time>
      </trkpt>
      <trkpt lat="44.11775" lon="3.24763">
        <ele>468.1</ele>
        <time>2021-10-14T11:56:18Z</time>
      </trkpt>
      <trkpt lat="44.11777" lon="3.24762">
        <ele>467.9</ele>
        <time>2021-10-14T11:56:19Z</time>
      </trkpt>
      <trkpt lat="44.11778" lon="3.24761">
        <ele>467.8</ele>
        <time>2021-10-14T11:56:20Z</time>
      </trkpt>
      <trkpt lat="44.1178" lon="3.2476">
        <ele>467.6</ele>
        <time>2021-10-14T11:56:21Z</time>
      </trkpt>
      <trkpt lat="44.11781" lon="3.24758">
        <ele>467.5</ele>
        <time>2021-10-14T11:56:23Z</time>
      </trkpt>
      <trkpt lat="44.11782" lon="3.24757">
        <ele>467.4</ele>
        <time>2021-10-14T11:56:24Z</time>
      </trkpt>
      <trkpt lat="44.11783" lon="3.24755">
        <ele>467.3</ele>
        <time>2021-10-14T11:56:25Z</time>
      </trkpt>
      <trkpt lat="44.11784" lon="3.24755">
        <ele>467.2</ele>
        <time>2021-10-14T11:56:26Z</time>
      </trkpt>
      <trkpt lat="44.11786" lon="3.24753">
        <ele>467</ele>
        <time>2021-10-14T11:56:28Z</time>
      </trkpt>
      <trkpt lat="44.11787" lon="3.24751">
        <ele>466.9</ele>
        <time>2021-10-14T11:56:29Z</time>
      </trkpt>
      <trkpt lat="44.11789" lon="3.2475">
        <ele>466.8</ele>
        <time>2021-10-14T11:56:30Z</time>
      </trkpt>
      <trkpt lat="44.1179" lon="3.24749">
        <ele>466.7</ele>
        <time>2021-10-14T11:56:31Z</time>
      </trkpt>
      <trkpt lat="44.11792" lon="3.24748">
        <ele>466.5</ele>
        <time>2021-10-14T11:56:33Z</time>
      </trkpt>
      <trkpt lat="44.11794" lon="3.24748">
        <ele>466.4</ele>
        <time>2021-10-14T11:56:34Z</time>
      </trkpt>
      <trkpt lat="44.11795" lon="3.24747">
        <ele>466.2</ele>
        <time>2021-10-14T11:56:35Z</time>
      </trkpt>
      <trkpt lat="44.11798" lon="3.24746">
        <ele>466</ele>
        <time>2021-10-14T11:56:37Z</time>
      </trkpt>
      <trkpt lat="44.11799" lon="3.24745">
        <ele>465.9</ele>
        <time>2021-10-14T11:56:38Z</time>
      </trkpt>
      <trkpt lat="44.118" lon="3.24744">
        <ele>465.8</ele>
        <time>2021-10-14T11:56:39Z</time>
      </trkpt>
      <trkpt lat="44.11802" lon="3.24744">
        <ele>465.7</ele>
        <time>2021-10-14T11:56:41Z</time>
      </trkpt>
      <trkpt lat="44.11803" lon="3.24744">
        <ele>465.6</ele>
        <time>2021-10-14T11:56:42Z</time>
      </trkpt>
      <trkpt lat="44.11804" lon="3.24743">
        <ele>465.4</ele>
        <time>2021-10-14T11:56:43Z</time>
      </trkpt>
      <trkpt lat="44.11806" lon="3.24742">
        <ele>465.3</ele>
        <time>2021-10-14T11:56:44Z</time>
      </trkpt>
      <trkpt lat="44.11807" lon="3.24743">
        <ele>465.2</ele>
        <time>2021-10-14T11:56:45Z</time>
      </trkpt>
      <trkpt lat="44.11808" lon="3.24743">
        <ele>465.1</ele>
        <time>2021-10-14T11:56:46Z</time>
      </trkpt>
      <trkpt lat="44.1181" lon="3.24744">
        <ele>465.2</ele>
        <time>2021-10-14T11:56:48Z</time>
      </trkpt>
      <trkpt lat="44.1181" lon="3.24745">
        <ele>465.3</ele>
        <time>2021-10-14T11:56:49Z</time>
      </trkpt>
      <trkpt lat="44.11809" lon="3.24747">
        <ele>465.4</ele>
        <time>2021-10-14T11:56:50Z</time>
      </trkpt>
      <trkpt lat="44.11808" lon="3.24748">
        <ele>465.5</ele>
        <time>2021-10-14T11:56:51Z</time>
      </trkpt>
      <trkpt lat="44.11807" lon="3.24748">
        <ele>465.6</ele>
        <time>2021-10-14T11:56:52Z</time>
      </trkpt>
      <trkpt lat="44.11805" lon="3.24749">
        <ele>465.7</ele>
        <time>2021-10-14T11:56:54Z</time>
      </trkpt>
      <trkpt lat="44.11804" lon="3.2475">
        <ele>465.8</ele>
        <time>2021-10-14T11:56:55Z</time>
      </trkpt>
      <trkpt lat="44.11803" lon="3.2475">
        <ele>465.9</ele>
        <time>2021-10-14T11:56:56Z</time>
      </trkpt>
      <trkpt lat="44.118" lon="3.24752">
        <ele>466.1</ele>
        <time>2021-10-14T11:56:58Z</time>
      </trkpt>
      <trkpt lat="44.11799" lon="3.24752">
        <ele>466.2</ele>
        <time>2021-10-14T11:57:00Z</time>
      </trkpt>
      <trkpt lat="44.11798" lon="3.24752">
        <ele>466.3</ele>
        <time>2021-10-14T11:57:01Z</time>
      </trkpt>
      <trkpt lat="44.11797" lon="3.24753">
        <ele>466.4</ele>
        <time>2021-10-14T11:57:02Z</time>
      </trkpt>
      <trkpt lat="44.11795" lon="3.24754">
        <ele>466.5</ele>
        <time>2021-10-14T11:57:03Z</time>
      </trkpt>
      <trkpt lat="44.11794" lon="3.24755">
        <ele>466.6</ele>
        <time>2021-10-14T11:57:05Z</time>
      </trkpt>
      <trkpt lat="44.11793" lon="3.24756">
        <ele>466.8</ele>
        <time>2021-10-14T11:57:06Z</time>
      </trkpt>
      <trkpt lat="44.11791" lon="3.24757">
        <ele>466.9</ele>
        <time>2021-10-14T11:57:07Z</time>
      </trkpt>
      <trkpt lat="44.1179" lon="3.24758">
        <ele>467</ele>
        <time>2021-10-14T11:57:08Z</time>
      </trkpt>
      <trkpt lat="44.1179" lon="3.24758">
        <ele>467</ele>
        <time>2021-10-14T11:57:09Z</time>
      </trkpt>
      <trkpt lat="44.11788" lon="3.24759">
        <ele>467.1</ele>
        <time>2021-10-14T11:57:10Z</time>
      </trkpt>
      <trkpt lat="44.11787" lon="3.2476">
        <ele>467.2</ele>
        <time>2021-10-14T11:57:11Z</time>
      </trkpt>
      <trkpt lat="44.11785" lon="3.2476">
        <ele>467.4</ele>
        <time>2021-10-14T11:57:13Z</time>
      </trkpt>
      <trkpt lat="44.11784" lon="3.2476">
        <ele>467.5</ele>
        <time>2021-10-14T11:57:14Z</time>
      </trkpt>
      <trkpt lat="44.11782" lon="3.24761">
        <ele>467.7</ele>
        <time>2021-10-14T11:57:16Z</time>
      </trkpt>
      <trkpt lat="44.11781" lon="3.24763">
        <ele>467.8</ele>
        <time>2021-10-14T11:57:17Z</time>
      </trkpt>
      <trkpt lat="44.11779" lon="3.24767">
        <ele>468</ele>
        <time>2021-10-14T11:57:19Z</time>
      </trkpt>
      <trkpt lat="44.11779" lon="3.24769">
        <ele>468.2</ele>
        <time>2021-10-14T11:57:20Z</time>
      </trkpt>
      <trkpt lat="44.11777" lon="3.24772">
        <ele>468.4</ele>
        <time>2021-10-14T11:57:22Z</time>
      </trkpt>
      <trkpt lat="44.11776" lon="3.24774">
        <ele>468.5</ele>
        <time>2021-10-14T11:57:23Z</time>
      </trkpt>
      <trkpt lat="44.11775" lon="3.24775">
        <ele>468.7</ele>
        <time>2021-10-14T11:57:25Z</time>
      </trkpt>
      <trkpt lat="44.11774" lon="3.24776">
        <ele>468.8</ele>
        <time>2021-10-14T11:57:26Z</time>
      </trkpt>
      <trkpt lat="44.11772" lon="3.24777">
        <ele>468.9</ele>
        <time>2021-10-14T11:57:27Z</time>
      </trkpt>
      <trkpt lat="44.1177" lon="3.24779">
        <ele>469.1</ele>
        <time>2021-10-14T11:57:29Z</time>
      </trkpt>
      <trkpt lat="44.11769" lon="3.24779">
        <ele>469.2</ele>
        <time>2021-10-14T11:57:30Z</time>
      </trkpt>
      <trkpt lat="44.11767" lon="3.24781">
        <ele>469.4</ele>
        <time>2021-10-14T11:57:31Z</time>
      </trkpt>
      <trkpt lat="44.11766" lon="3.24781">
        <ele>469.4</ele>
        <time>2021-10-14T11:57:33Z</time>
      </trkpt>
      <trkpt lat="44.11765" lon="3.24782">
        <ele>469.5</ele>
        <time>2021-10-14T11:57:34Z</time>
      </trkpt>
      <trkpt lat="44.11764" lon="3.24784">
        <ele>469.7</ele>
        <time>2021-10-14T11:57:35Z</time>
      </trkpt>
      <trkpt lat="44.11763" lon="3.24786">
        <ele>469.8</ele>
        <time>2021-10-14T11:57:37Z</time>
      </trkpt>
      <trkpt lat="44.11762" lon="3.24788">
        <ele>469.9</ele>
        <time>2021-10-14T11:57:38Z</time>
      </trkpt>
      <trkpt lat="44.1176" lon="3.24789">
        <ele>470.1</ele>
        <time>2021-10-14T11:57:40Z</time>
      </trkpt>
      <trkpt lat="44.11759" lon="3.24791">
        <ele>470.1</ele>
        <time>2021-10-14T11:57:41Z</time>
      </trkpt>
      <trkpt lat="44.11759" lon="3.24792">
        <ele>470.2</ele>
        <time>2021-10-14T11:57:42Z</time>
      </trkpt>
      <trkpt lat="44.11758" lon="3.24793">
        <ele>470.3</ele>
        <time>2021-10-14T11:57:43Z</time>
      </trkpt>
      <trkpt lat="44.11757" lon="3.24795">
        <ele>470.4</ele>
        <time>2021-10-14T11:57:44Z</time>
      </trkpt>
      <trkpt lat="44.11755" lon="3.24796">
        <ele>470.6</ele>
        <time>2021-10-14T11:57:45Z</time>
      </trkpt>
      <trkpt lat="44.11753" lon="3.24797">
        <ele>470.7</ele>
        <time>2021-10-14T11:57:47Z</time>
      </trkpt>
      <trkpt lat="44.11752" lon="3.24798">
        <ele>470.8</ele>
        <time>2021-10-14T11:57:48Z</time>
      </trkpt>
      <trkpt lat="44.11751" lon="3.248">
        <ele>470.9</ele>
        <time>2021-10-14T11:57:49Z</time>
      </trkpt>
      <trkpt lat="44.11749" lon="3.24801">
        <ele>471</ele>
        <time>2021-10-14T11:57:50Z</time>
      </trkpt>
      <trkpt lat="44.11747" lon="3.24804">
        <ele>471.2</ele>
        <time>2021-10-14T11:57:52Z</time>
      </trkpt>
      <trkpt lat="44.11747" lon="3.24805">
        <ele>471.3</ele>
        <time>2021-10-14T11:57:53Z</time>
      </trkpt>
      <trkpt lat="44.11745" lon="3.24808">
        <ele>471.5</ele>
        <time>2021-10-14T11:57:55Z</time>
      </trkpt>
      <trkpt lat="44.11743" lon="3.24811">
        <ele>471.8</ele>
        <time>2021-10-14T11:57:56Z</time>
      </trkpt>
      <trkpt lat="44.11742" lon="3.24813">
        <ele>471.9</ele>
        <time>2021-10-14T11:57:57Z</time>
      </trkpt>
      <trkpt lat="44.11739" lon="3.24815">
        <ele>472.2</ele>
        <time>2021-10-14T11:57:59Z</time>
      </trkpt>
      <trkpt lat="44.11738" lon="3.24816">
        <ele>472.3</ele>
        <time>2021-10-14T11:58:00Z</time>
      </trkpt>
      <trkpt lat="44.11736" lon="3.24817">
        <ele>472.4</ele>
        <time>2021-10-14T11:58:02Z</time>
      </trkpt>
      <trkpt lat="44.11735" lon="3.24818">
        <ele>472.6</ele>
        <time>2021-10-14T11:58:03Z</time>
      </trkpt>
      <trkpt lat="44.11734" lon="3.2482">
        <ele>472.7</ele>
        <time>2021-10-14T11:58:04Z</time>
      </trkpt>
      <trkpt lat="44.11733" lon="3.24821">
        <ele>472.8</ele>
        <time>2021-10-14T11:58:06Z</time>
      </trkpt>
      <trkpt lat="44.11733" lon="3.24822">
        <ele>472.9</ele>
        <time>2021-10-14T11:58:07Z</time>
      </trkpt>
      <trkpt lat="44.11731" lon="3.24824">
        <ele>473</ele>
        <time>2021-10-14T11:58:08Z</time>
      </trkpt>
      <trkpt lat="44.1173" lon="3.24824">
        <ele>473.1</ele>
        <time>2021-10-14T11:58:09Z</time>
      </trkpt>
      <trkpt lat="44.11727" lon="3.24825">
        <ele>473.4</ele>
        <time>2021-10-14T11:58:11Z</time>
      </trkpt>
      <trkpt lat="44.11726" lon="3.24825">
        <ele>473.5</ele>
        <time>2021-10-14T11:58:12Z</time>
      </trkpt>
      <trkpt lat="44.11724" lon="3.24824">
        <ele>473.7</ele>
        <time>2021-10-14T11:58:14Z</time>
      </trkpt>
      <trkpt lat="44.11723" lon="3.24824">
        <ele>473.8</ele>
        <time>2021-10-14T11:58:15Z</time>
      </trkpt>
      <trkpt lat="44.1172" lon="3.24823">
        <ele>474</ele>
        <time>2021-10-14T11:58:17Z</time>
      </trkpt>
      <trkpt lat="44.11719" lon="3.24824">
        <ele>474.1</ele>
        <time>2021-10-14T11:58:18Z</time>
      </trkpt>
      <trkpt lat="44.11718" lon="3.24824">
        <ele>474.2</ele>
        <time>2021-10-14T11:58:19Z</time>
      </trkpt>
      <trkpt lat="44.11717" lon="3.24824">
        <ele>474.3</ele>
        <time>2021-10-14T11:58:20Z</time>
      </trkpt>
      <trkpt lat="44.11715" lon="3.24823">
        <ele>474.5</ele>
        <time>2021-10-14T11:58:22Z</time>
      </trkpt>
      <trkpt lat="44.11715" lon="3.2482">
        <ele>474.7</ele>
        <time>2021-10-14T11:58:24Z</time>
      </trkpt>
      <trkpt lat="44.11714" lon="3.2482">
        <ele>474.7</ele>
        <time>2021-10-14T11:58:25Z</time>
      </trkpt>
      <trkpt lat="44.11712" lon="3.24821">
        <ele>474.9</ele>
        <time>2021-10-14T11:58:26Z</time>
      </trkpt>
      <trkpt lat="44.1171" lon="3.24822">
        <ele>475.1</ele>
        <time>2021-10-14T11:58:28Z</time>
      </trkpt>
      <trkpt lat="44.11709" lon="3.24823">
        <ele>475.2</ele>
        <time>2021-10-14T11:58:29Z</time>
      </trkpt>
      <trkpt lat="44.11708" lon="3.24824">
        <ele>475.3</ele>
        <time>2021-10-14T11:58:31Z</time>
      </trkpt>
      <trkpt lat="44.11706" lon="3.24826">
        <ele>475.5</ele>
        <time>2021-10-14T11:58:32Z</time>
      </trkpt>
      <trkpt lat="44.11704" lon="3.24828">
        <ele>475.7</ele>
        <time>2021-10-14T11:58:34Z</time>
      </trkpt>
      <trkpt lat="44.11703" lon="3.2483">
        <ele>475.8</ele>
        <time>2021-10-14T11:58:35Z</time>
      </trkpt>
      <trkpt lat="44.11702" lon="3.24832">
        <ele>477.5</ele>
        <time>2021-10-14T11:58:37Z</time>
      </trkpt>
      <trkpt lat="44.11701" lon="3.24834">
        <ele>476.1</ele>
        <time>2021-10-14T11:58:38Z</time>
      </trkpt>
      <trkpt lat="44.117" lon="3.24836">
        <ele>477.9</ele>
        <time>2021-10-14T11:58:39Z</time>
      </trkpt>
      <trkpt lat="44.11699" lon="3.24839">
        <ele>477.7</ele>
        <time>2021-10-14T11:58:41Z</time>
      </trkpt>
      <trkpt lat="44.11698" lon="3.2484">
        <ele>478.1</ele>
        <time>2021-10-14T11:58:42Z</time>
      </trkpt>
      <trkpt lat="44.11696" lon="3.24844">
        <ele>479.9</ele>
        <time>2021-10-14T11:58:44Z</time>
      </trkpt>
      <trkpt lat="44.11696" lon="3.24845">
        <ele>479.7</ele>
        <time>2021-10-14T11:58:45Z</time>
      </trkpt>
      <trkpt lat="44.11695" lon="3.24846">
        <ele>478.1</ele>
        <time>2021-10-14T11:58:46Z</time>
      </trkpt>
      <trkpt lat="44.11694" lon="3.2485">
        <ele>479.7</ele>
        <time>2021-10-14T11:58:48Z</time>
      </trkpt>
      <trkpt lat="44.11695" lon="3.24851">
        <ele>479.5</ele>
        <time>2021-10-14T11:58:49Z</time>
      </trkpt>
      <trkpt lat="44.11695" lon="3.24851">
        <ele>479.3</ele>
        <time>2021-10-14T11:58:50Z</time>
      </trkpt>
      <trkpt lat="44.11695" lon="3.2485">
        <ele>479.1</ele>
        <time>2021-10-14T11:58:52Z</time>
      </trkpt>
      <trkpt lat="44.11694" lon="3.2485">
        <ele>478.9</ele>
        <time>2021-10-14T11:58:53Z</time>
      </trkpt>
      <trkpt lat="44.11694" lon="3.24851">
        <ele>478.7</ele>
        <time>2021-10-14T11:58:55Z</time>
      </trkpt>
      <trkpt lat="44.11693" lon="3.24851">
        <ele>478.5</ele>
        <time>2021-10-14T11:58:57Z</time>
      </trkpt>
      <trkpt lat="44.11693" lon="3.24852">
        <ele>478.3</ele>
        <time>2021-10-14T11:58:58Z</time>
      </trkpt>
      <trkpt lat="44.11693" lon="3.24854">
        <ele>479.8</ele>
        <time>2021-10-14T11:59:00Z</time>
      </trkpt>
      <trkpt lat="44.11692" lon="3.24856">
        <ele>479.6</ele>
        <time>2021-10-14T11:59:01Z</time>
      </trkpt>
      <trkpt lat="44.11693" lon="3.24856">
        <ele>479.7</ele>
        <time>2021-10-14T11:59:02Z</time>
      </trkpt>
      <trkpt lat="44.11693" lon="3.24857">
        <ele>479.7</ele>
        <time>2021-10-14T11:59:04Z</time>
      </trkpt>
      <trkpt lat="44.11694" lon="3.24857">
        <ele>479.8</ele>
        <time>2021-10-14T11:59:05Z</time>
      </trkpt>
      <trkpt lat="44.11694" lon="3.24857">
        <ele>479.8</ele>
        <time>2021-10-14T11:59:07Z</time>
      </trkpt>
      <trkpt lat="44.11694" lon="3.24857">
        <ele>479.8</ele>
        <time>2021-10-14T11:59:08Z</time>
      </trkpt>
      <trkpt lat="44.11694" lon="3.24857">
        <ele>479.8</ele>
        <time>2021-10-14T11:59:09Z</time>
      </trkpt>
      <trkpt lat="44.11694" lon="3.24857">
        <ele>479.8</ele>
        <time>2021-10-14T11:59:11Z</time>
      </trkpt>
      <trkpt lat="44.11694" lon="3.24857">
        <ele>479.8</ele>
        <time>2021-10-14T11:59:12Z</time>
      </trkpt>
      <trkpt lat="44.11695" lon="3.24857">
        <ele>479.8</ele>
        <time>2021-10-14T11:59:14Z</time>
      </trkpt>
      <trkpt lat="44.11695" lon="3.24858">
        <ele>479.9</ele>
        <time>2021-10-14T11:59:16Z</time>
      </trkpt>
      <trkpt lat="44.11696" lon="3.24858">
        <ele>479.9</ele>
        <time>2021-10-14T11:59:18Z</time>
      </trkpt>
      <trkpt lat="44.11696" lon="3.24859">
        <ele>480</ele>
        <time>2021-10-14T11:59:20Z</time>
      </trkpt>
      <trkpt lat="44.11696" lon="3.24859">
        <ele>480</ele>
        <time>2021-10-14T11:59:22Z</time>
      </trkpt>
      <trkpt lat="44.11696" lon="3.24859">
        <ele>480</ele>
        <time>2021-10-14T11:59:23Z</time>
      </trkpt>
      <trkpt lat="44.11697" lon="3.2486">
        <ele>480</ele>
        <time>2021-10-14T11:59:25Z</time>
      </trkpt>
      <trkpt lat="44.11698" lon="3.2486">
        <ele>480.1</ele>
        <time>2021-10-14T11:59:26Z</time>
      </trkpt>
      <trkpt lat="44.11699" lon="3.2486">
        <ele>480.2</ele>
        <time>2021-10-14T11:59:27Z</time>
      </trkpt>
      <trkpt lat="44.11702" lon="3.2486">
        <ele>480.4</ele>
        <time>2021-10-14T11:59:28Z</time>
      </trkpt>
      <trkpt lat="44.11703" lon="3.2486">
        <ele>480.5</ele>
        <time>2021-10-14T11:59:29Z</time>
      </trkpt>
      <trkpt lat="44.11705" lon="3.24858">
        <ele>480.6</ele>
        <time>2021-10-14T11:59:30Z</time>
      </trkpt>
      <trkpt lat="44.11707" lon="3.24855">
        <ele>480.9</ele>
        <time>2021-10-14T11:59:32Z</time>
      </trkpt>
      <trkpt lat="44.1171" lon="3.24853">
        <ele>481.1</ele>
        <time>2021-10-14T11:59:34Z</time>
      </trkpt>
      <trkpt lat="44.11711" lon="3.24853">
        <ele>481.2</ele>
        <time>2021-10-14T11:59:35Z</time>
      </trkpt>
      <trkpt lat="44.11713" lon="3.24852">
        <ele>481.3</ele>
        <time>2021-10-14T11:59:36Z</time>
      </trkpt>
      <trkpt lat="44.11714" lon="3.24851">
        <ele>481.4</ele>
        <time>2021-10-14T11:59:37Z</time>
      </trkpt>
      <trkpt lat="44.11717" lon="3.24852">
        <ele>481.7</ele>
        <time>2021-10-14T11:59:39Z</time>
      </trkpt>
      <trkpt lat="44.11719" lon="3.24852">
        <ele>481.8</ele>
        <time>2021-10-14T11:59:40Z</time>
      </trkpt>
      <trkpt lat="44.11721" lon="3.24852">
        <ele>481.9</ele>
        <time>2021-10-14T11:59:42Z</time>
      </trkpt>
      <trkpt lat="44.11722" lon="3.24851">
        <ele>482</ele>
        <time>2021-10-14T11:59:43Z</time>
      </trkpt>
      <trkpt lat="44.11724" lon="3.2485">
        <ele>482.2</ele>
        <time>2021-10-14T11:59:44Z</time>
      </trkpt>
      <trkpt lat="44.11727" lon="3.2485">
        <ele>482.4</ele>
        <time>2021-10-14T11:59:46Z</time>
      </trkpt>
      <trkpt lat="44.1173" lon="3.24852">
        <ele>482.6</ele>
        <time>2021-10-14T11:59:47Z</time>
      </trkpt>
      <trkpt lat="44.1173" lon="3.24853">
        <ele>482.7</ele>
        <time>2021-10-14T11:59:48Z</time>
      </trkpt>
      <trkpt lat="44.11732" lon="3.24854">
        <ele>482.9</ele>
        <time>2021-10-14T11:59:49Z</time>
      </trkpt>
      <trkpt lat="44.11734" lon="3.24854">
        <ele>483</ele>
        <time>2021-10-14T11:59:51Z</time>
      </trkpt>
      <trkpt lat="44.11736" lon="3.24853">
        <ele>483.2</ele>
        <time>2021-10-14T11:59:52Z</time>
      </trkpt>
      <trkpt lat="44.11737" lon="3.24855">
        <ele>483.3</ele>
        <time>2021-10-14T11:59:53Z</time>
      </trkpt>
      <trkpt lat="44.11739" lon="3.24857">
        <ele>483.5</ele>
        <time>2021-10-14T11:59:55Z</time>
      </trkpt>
      <trkpt lat="44.1174" lon="3.24857">
        <ele>483.6</ele>
        <time>2021-10-14T11:59:56Z</time>
      </trkpt>
      <trkpt lat="44.11744" lon="3.24857">
        <ele>483.9</ele>
        <time>2021-10-14T11:59:58Z</time>
      </trkpt>
      <trkpt lat="44.11745" lon="3.24857">
        <ele>484</ele>
        <time>2021-10-14T11:59:59Z</time>
      </trkpt>
      <trkpt lat="44.11748" lon="3.24857">
        <ele>484.3</ele>
        <time>2021-10-14T12:00:01Z</time>
      </trkpt>
      <trkpt lat="44.11749" lon="3.24857">
        <ele>484.4</ele>
        <time>2021-10-14T12:00:02Z</time>
      </trkpt>
      <trkpt lat="44.11751" lon="3.24858">
        <ele>484.6</ele>
        <time>2021-10-14T12:00:03Z</time>
      </trkpt>
      <trkpt lat="44.11753" lon="3.24859">
        <ele>484.8</ele>
        <time>2021-10-14T12:00:05Z</time>
      </trkpt>
      <trkpt lat="44.11756" lon="3.24859">
        <ele>485</ele>
        <time>2021-10-14T12:00:06Z</time>
      </trkpt>
      <trkpt lat="44.11757" lon="3.24859">
        <ele>485.1</ele>
        <time>2021-10-14T12:00:07Z</time>
      </trkpt>
      <trkpt lat="44.11759" lon="3.24858">
        <ele>485.3</ele>
        <time>2021-10-14T12:00:08Z</time>
      </trkpt>
      <trkpt lat="44.11761" lon="3.24858">
        <ele>485.5</ele>
        <time>2021-10-14T12:00:10Z</time>
      </trkpt>
      <trkpt lat="44.11764" lon="3.24857">
        <ele>485.7</ele>
        <time>2021-10-14T12:00:11Z</time>
      </trkpt>
      <trkpt lat="44.11765" lon="3.24857">
        <ele>485.8</ele>
        <time>2021-10-14T12:00:12Z</time>
      </trkpt>
      <trkpt lat="44.11767" lon="3.24855">
        <ele>486</ele>
        <time>2021-10-14T12:00:13Z</time>
      </trkpt>
      <trkpt lat="44.11768" lon="3.24853">
        <ele>486.1</ele>
        <time>2021-10-14T12:00:15Z</time>
      </trkpt>
      <trkpt lat="44.1177" lon="3.24851">
        <ele>486.3</ele>
        <time>2021-10-14T12:00:16Z</time>
      </trkpt>
      <trkpt lat="44.11771" lon="3.24848">
        <ele>486.5</ele>
        <time>2021-10-14T12:00:18Z</time>
      </trkpt>
      <trkpt lat="44.11772" lon="3.24844">
        <ele>486.8</ele>
        <time>2021-10-14T12:00:19Z</time>
      </trkpt>
      <trkpt lat="44.11775" lon="3.24838">
        <ele>487.2</ele>
        <time>2021-10-14T12:00:21Z</time>
      </trkpt>
      <trkpt lat="44.11776" lon="3.24837">
        <ele>487.3</ele>
        <time>2021-10-14T12:00:23Z</time>
      </trkpt>
      <trkpt lat="44.11777" lon="3.24835">
        <ele>487.4</ele>
        <time>2021-10-14T12:00:24Z</time>
      </trkpt>
      <trkpt lat="44.11778" lon="3.24834">
        <ele>487.6</ele>
        <time>2021-10-14T12:00:26Z</time>
      </trkpt>
      <trkpt lat="44.11779" lon="3.24833">
        <ele>487.7</ele>
        <time>2021-10-14T12:00:27Z</time>
      </trkpt>
      <trkpt lat="44.1178" lon="3.24832">
        <ele>487.8</ele>
        <time>2021-10-14T12:00:29Z</time>
      </trkpt>
      <trkpt lat="44.11782" lon="3.24831">
        <ele>487.9</ele>
        <time>2021-10-14T12:00:30Z</time>
      </trkpt>
      <trkpt lat="44.11783" lon="3.24831">
        <ele>488</ele>
        <time>2021-10-14T12:00:32Z</time>
      </trkpt>
      <trkpt lat="44.11785" lon="3.2483">
        <ele>488.2</ele>
        <time>2021-10-14T12:00:33Z</time>
      </trkpt>
      <trkpt lat="44.11786" lon="3.24829">
        <ele>488.3</ele>
        <time>2021-10-14T12:00:35Z</time>
      </trkpt>
      <trkpt lat="44.11788" lon="3.24828">
        <ele>488.5</ele>
        <time>2021-10-14T12:00:36Z</time>
      </trkpt>
      <trkpt lat="44.11789" lon="3.24828">
        <ele>488.6</ele>
        <time>2021-10-14T12:00:37Z</time>
      </trkpt>
      <trkpt lat="44.11791" lon="3.24828">
        <ele>488.7</ele>
        <time>2021-10-14T12:00:38Z</time>
      </trkpt>
      <trkpt lat="44.11792" lon="3.24829">
        <ele>488.8</ele>
        <time>2021-10-14T12:00:39Z</time>
      </trkpt>
      <trkpt lat="44.11794" lon="3.24829">
        <ele>489</ele>
        <time>2021-10-14T12:00:41Z</time>
      </trkpt>
      <trkpt lat="44.11796" lon="3.24828">
        <ele>489.1</ele>
        <time>2021-10-14T12:00:42Z</time>
      </trkpt>
      <trkpt lat="44.11797" lon="3.24828">
        <ele>489.2</ele>
        <time>2021-10-14T12:00:43Z</time>
      </trkpt>
      <trkpt lat="44.11799" lon="3.24827">
        <ele>489.3</ele>
        <time>2021-10-14T12:00:44Z</time>
      </trkpt>
      <trkpt lat="44.118" lon="3.24826">
        <ele>489.5</ele>
        <time>2021-10-14T12:00:46Z</time>
      </trkpt>
      <trkpt lat="44.11802" lon="3.24825">
        <ele>489.6</ele>
        <time>2021-10-14T12:00:47Z</time>
      </trkpt>
      <trkpt lat="44.11805" lon="3.24824">
        <ele>489.8</ele>
        <time>2021-10-14T12:00:49Z</time>
      </trkpt>
      <trkpt lat="44.11808" lon="3.24824">
        <ele>490</ele>
        <time>2021-10-14T12:00:50Z</time>
      </trkpt>
      <trkpt lat="44.11809" lon="3.24824">
        <ele>490.1</ele>
        <time>2021-10-14T12:00:51Z</time>
      </trkpt>
      <trkpt lat="44.11811" lon="3.24824">
        <ele>490.2</ele>
        <time>2021-10-14T12:00:53Z</time>
      </trkpt>
      <trkpt lat="44.11813" lon="3.24824">
        <ele>490.4</ele>
        <time>2021-10-14T12:00:55Z</time>
      </trkpt>
      <trkpt lat="44.11815" lon="3.24824">
        <ele>490.6</ele>
        <time>2021-10-14T12:00:56Z</time>
      </trkpt>
      <trkpt lat="44.11817" lon="3.24823">
        <ele>490.7</ele>
        <time>2021-10-14T12:00:58Z</time>
      </trkpt>
      <trkpt lat="44.1182" lon="3.24822">
        <ele>490.9</ele>
        <time>2021-10-14T12:00:59Z</time>
      </trkpt>
      <trkpt lat="44.11821" lon="3.24822">
        <ele>491</ele>
        <time>2021-10-14T12:01:00Z</time>
      </trkpt>
      <trkpt lat="44.11825" lon="3.2482">
        <ele>491.4</ele>
        <time>2021-10-14T12:01:02Z</time>
      </trkpt>
      <trkpt lat="44.11827" lon="3.2482">
        <ele>491.5</ele>
        <time>2021-10-14T12:01:03Z</time>
      </trkpt>
      <trkpt lat="44.11828" lon="3.24819">
        <ele>491.6</ele>
        <time>2021-10-14T12:01:04Z</time>
      </trkpt>
      <trkpt lat="44.11831" lon="3.24818">
        <ele>491.9</ele>
        <time>2021-10-14T12:01:06Z</time>
      </trkpt>
      <trkpt lat="44.11832" lon="3.24818">
        <ele>491.9</ele>
        <time>2021-10-14T12:01:07Z</time>
      </trkpt>
      <trkpt lat="44.11834" lon="3.24817">
        <ele>492.1</ele>
        <time>2021-10-14T12:01:08Z</time>
      </trkpt>
      <trkpt lat="44.11836" lon="3.24816">
        <ele>492.3</ele>
        <time>2021-10-14T12:01:10Z</time>
      </trkpt>
      <trkpt lat="44.11839" lon="3.24816">
        <ele>492.5</ele>
        <time>2021-10-14T12:01:11Z</time>
      </trkpt>
      <trkpt lat="44.1184" lon="3.24815">
        <ele>492.6</ele>
        <time>2021-10-14T12:01:12Z</time>
      </trkpt>
      <trkpt lat="44.11843" lon="3.24813">
        <ele>492.9</ele>
        <time>2021-10-14T12:01:14Z</time>
      </trkpt>
      <trkpt lat="44.11844" lon="3.24813">
        <ele>493</ele>
        <time>2021-10-14T12:01:15Z</time>
      </trkpt>
      <trkpt lat="44.11846" lon="3.24812">
        <ele>493.1</ele>
        <time>2021-10-14T12:01:16Z</time>
      </trkpt>
      <trkpt lat="44.11847" lon="3.24811">
        <ele>493.2</ele>
        <time>2021-10-14T12:01:17Z</time>
      </trkpt>
      <trkpt lat="44.1185" lon="3.24809">
        <ele>493.5</ele>
        <time>2021-10-14T12:01:19Z</time>
      </trkpt>
      <trkpt lat="44.1185" lon="3.24809">
        <ele>493.6</ele>
        <time>2021-10-14T12:01:20Z</time>
      </trkpt>
      <trkpt lat="44.11851" lon="3.24808">
        <ele>493.7</ele>
        <time>2021-10-14T12:01:21Z</time>
      </trkpt>
      <trkpt lat="44.11853" lon="3.24807">
        <ele>493.8</ele>
        <time>2021-10-14T12:01:23Z</time>
      </trkpt>
      <trkpt lat="44.11855" lon="3.24806">
        <ele>494</ele>
        <time>2021-10-14T12:01:24Z</time>
      </trkpt>
      <trkpt lat="44.11856" lon="3.24805">
        <ele>494.1</ele>
        <time>2021-10-14T12:01:25Z</time>
      </trkpt>
      <trkpt lat="44.11858" lon="3.24805">
        <ele>494.2</ele>
        <time>2021-10-14T12:01:26Z</time>
      </trkpt>
      <trkpt lat="44.1186" lon="3.24804">
        <ele>494.4</ele>
        <time>2021-10-14T12:01:28Z</time>
      </trkpt>
      <trkpt lat="44.11861" lon="3.24804">
        <ele>494.5</ele>
        <time>2021-10-14T12:01:29Z</time>
      </trkpt>
      <trkpt lat="44.11863" lon="3.24804">
        <ele>494.7</ele>
        <time>2021-10-14T12:01:30Z</time>
      </trkpt>
      <trkpt lat="44.11866" lon="3.24803">
        <ele>494.9</ele>
        <time>2021-10-14T12:01:32Z</time>
      </trkpt>
      <trkpt lat="44.11867" lon="3.24803">
        <ele>495</ele>
        <time>2021-10-14T12:01:33Z</time>
      </trkpt>
      <trkpt lat="44.11868" lon="3.24803">
        <ele>495.1</ele>
        <time>2021-10-14T12:01:34Z</time>
      </trkpt>
      <trkpt lat="44.1187" lon="3.24802">
        <ele>495.3</ele>
        <time>2021-10-14T12:01:36Z</time>
      </trkpt>
      <trkpt lat="44.11872" lon="3.24801">
        <ele>495.5</ele>
        <time>2021-10-14T12:01:37Z</time>
      </trkpt>
      <trkpt lat="44.11874" lon="3.248">
        <ele>495.7</ele>
        <time>2021-10-14T12:01:39Z</time>
      </trkpt>
      <trkpt lat="44.11877" lon="3.248">
        <ele>495.9</ele>
        <time>2021-10-14T12:01:41Z</time>
      </trkpt>
      <trkpt lat="44.11878" lon="3.248">
        <ele>496</ele>
        <time>2021-10-14T12:01:42Z</time>
      </trkpt>
      <trkpt lat="44.1188" lon="3.24799">
        <ele>496.1</ele>
        <time>2021-10-14T12:01:43Z</time>
      </trkpt>
      <trkpt lat="44.11881" lon="3.24799">
        <ele>496.2</ele>
        <time>2021-10-14T12:01:44Z</time>
      </trkpt>
      <trkpt lat="44.11883" lon="3.24799">
        <ele>496.3</ele>
        <time>2021-10-14T12:01:46Z</time>
      </trkpt>
      <trkpt lat="44.11884" lon="3.24799">
        <ele>496.4</ele>
        <time>2021-10-14T12:01:47Z</time>
      </trkpt>
      <trkpt lat="44.11887" lon="3.24799">
        <ele>496.7</ele>
        <time>2021-10-14T12:01:49Z</time>
      </trkpt>
      <trkpt lat="44.11888" lon="3.24799">
        <ele>496.7</ele>
        <time>2021-10-14T12:01:50Z</time>
      </trkpt>
      <trkpt lat="44.1189" lon="3.248">
        <ele>496.9</ele>
        <time>2021-10-14T12:01:51Z</time>
      </trkpt>
      <trkpt lat="44.11892" lon="3.24801">
        <ele>497</ele>
        <time>2021-10-14T12:01:53Z</time>
      </trkpt>
      <trkpt lat="44.11893" lon="3.24801">
        <ele>497.1</ele>
        <time>2021-10-14T12:01:54Z</time>
      </trkpt>
      <trkpt lat="44.11894" lon="3.24801">
        <ele>497.2</ele>
        <time>2021-10-14T12:01:55Z</time>
      </trkpt>
      <trkpt lat="44.11895" lon="3.24801">
        <ele>497.3</ele>
        <time>2021-10-14T12:01:56Z</time>
      </trkpt>
      <trkpt lat="44.11897" lon="3.24801">
        <ele>497.5</ele>
        <time>2021-10-14T12:01:58Z</time>
      </trkpt>
      <trkpt lat="44.11899" lon="3.24801">
        <ele>497.6</ele>
        <time>2021-10-14T12:01:59Z</time>
      </trkpt>
      <trkpt lat="44.119" lon="3.24801">
        <ele>497.7</ele>
        <time>2021-10-14T12:02:01Z</time>
      </trkpt>
      <trkpt lat="44.11902" lon="3.24801">
        <ele>498.3</ele>
        <time>2021-10-14T12:02:02Z</time>
      </trkpt>
      <trkpt lat="44.11903" lon="3.248">
        <ele>498.5</ele>
        <time>2021-10-14T12:02:03Z</time>
      </trkpt>
      <trkpt lat="44.11905" lon="3.248">
        <ele>498.7</ele>
        <time>2021-10-14T12:02:04Z</time>
      </trkpt>
      <trkpt lat="44.11906" lon="3.24799">
        <ele>498.9</ele>
        <time>2021-10-14T12:02:06Z</time>
      </trkpt>
      <trkpt lat="44.11908" lon="3.24799">
        <ele>499.1</ele>
        <time>2021-10-14T12:02:07Z</time>
      </trkpt>
      <trkpt lat="44.1191" lon="3.24799">
        <ele>499.4</ele>
        <time>2021-10-14T12:02:08Z</time>
      </trkpt>
      <trkpt lat="44.11912" lon="3.24799">
        <ele>499.5</ele>
        <time>2021-10-14T12:02:10Z</time>
      </trkpt>
      <trkpt lat="44.11913" lon="3.24799">
        <ele>499.7</ele>
        <time>2021-10-14T12:02:11Z</time>
      </trkpt>
      <trkpt lat="44.11914" lon="3.24799">
        <ele>499.9</ele>
        <time>2021-10-14T12:02:13Z</time>
      </trkpt>
      <trkpt lat="44.11915" lon="3.24799">
        <ele>500</ele>
        <time>2021-10-14T12:02:14Z</time>
      </trkpt>
      <trkpt lat="44.11916" lon="3.24799">
        <ele>500.1</ele>
        <time>2021-10-14T12:02:15Z</time>
      </trkpt>
      <trkpt lat="44.11917" lon="3.248">
        <ele>500.3</ele>
        <time>2021-10-14T12:02:17Z</time>
      </trkpt>
      <trkpt lat="44.11919" lon="3.248">
        <ele>500.5</ele>
        <time>2021-10-14T12:02:18Z</time>
      </trkpt>
      <trkpt lat="44.1192" lon="3.24801">
        <ele>500.6</ele>
        <time>2021-10-14T12:02:19Z</time>
      </trkpt>
      <trkpt lat="44.11922" lon="3.24802">
        <ele>500.9</ele>
        <time>2021-10-14T12:02:21Z</time>
      </trkpt>
      <trkpt lat="44.11923" lon="3.24802">
        <ele>501.1</ele>
        <time>2021-10-14T12:02:22Z</time>
      </trkpt>
      <trkpt lat="44.11924" lon="3.24803">
        <ele>501.3</ele>
        <time>2021-10-14T12:02:24Z</time>
      </trkpt>
      <trkpt lat="44.11926" lon="3.24805">
        <ele>501.5</ele>
        <time>2021-10-14T12:02:25Z</time>
      </trkpt>
      <trkpt lat="44.11927" lon="3.24806">
        <ele>501.7</ele>
        <time>2021-10-14T12:02:26Z</time>
      </trkpt>
      <trkpt lat="44.11929" lon="3.24807">
        <ele>502</ele>
        <time>2021-10-14T12:02:27Z</time>
      </trkpt>
      <trkpt lat="44.11931" lon="3.24809">
        <ele>502.3</ele>
        <time>2021-10-14T12:02:29Z</time>
      </trkpt>
      <trkpt lat="44.11933" lon="3.24811">
        <ele>502.6</ele>
        <time>2021-10-14T12:02:30Z</time>
      </trkpt>
      <trkpt lat="44.11935" lon="3.24813">
        <ele>503</ele>
        <time>2021-10-14T12:02:32Z</time>
      </trkpt>
      <trkpt lat="44.11937" lon="3.24816">
        <ele>503.3</ele>
        <time>2021-10-14T12:02:33Z</time>
      </trkpt>
      <trkpt lat="44.11938" lon="3.24817">
        <ele>503.5</ele>
        <time>2021-10-14T12:02:34Z</time>
      </trkpt>
      <trkpt lat="44.1194" lon="3.24819">
        <ele>503.7</ele>
        <time>2021-10-14T12:02:35Z</time>
      </trkpt>
      <trkpt lat="44.11942" lon="3.24821">
        <ele>504</ele>
        <time>2021-10-14T12:02:37Z</time>
      </trkpt>
      <trkpt lat="44.11943" lon="3.24823">
        <ele>504.2</ele>
        <time>2021-10-14T12:02:38Z</time>
      </trkpt>
      <trkpt lat="44.11944" lon="3.24824">
        <ele>504.4</ele>
        <time>2021-10-14T12:02:39Z</time>
      </trkpt>
      <trkpt lat="44.11945" lon="3.24828">
        <ele>504.7</ele>
        <time>2021-10-14T12:02:41Z</time>
      </trkpt>
      <trkpt lat="44.11946" lon="3.24829">
        <ele>504.8</ele>
        <time>2021-10-14T12:02:42Z</time>
      </trkpt>
      <trkpt lat="44.11946" lon="3.24831">
        <ele>505</ele>
        <time>2021-10-14T12:02:43Z</time>
      </trkpt>
      <trkpt lat="44.11947" lon="3.24833">
        <ele>505.2</ele>
        <time>2021-10-14T12:02:44Z</time>
      </trkpt>
      <trkpt lat="44.11947" lon="3.24837">
        <ele>505.4</ele>
        <time>2021-10-14T12:02:45Z</time>
      </trkpt>
      <trkpt lat="44.11947" lon="3.24839">
        <ele>505.6</ele>
        <time>2021-10-14T12:02:47Z</time>
      </trkpt>
      <trkpt lat="44.11948" lon="3.2484">
        <ele>505.7</ele>
        <time>2021-10-14T12:02:48Z</time>
      </trkpt>
      <trkpt lat="44.11948" lon="3.24843">
        <ele>505.9</ele>
        <time>2021-10-14T12:02:49Z</time>
      </trkpt>
      <trkpt lat="44.11949" lon="3.24845">
        <ele>506</ele>
        <time>2021-10-14T12:02:50Z</time>
      </trkpt>
      <trkpt lat="44.11949" lon="3.24847">
        <ele>506.2</ele>
        <time>2021-10-14T12:02:51Z</time>
      </trkpt>
      <trkpt lat="44.11949" lon="3.24848">
        <ele>506.3</ele>
        <time>2021-10-14T12:02:52Z</time>
      </trkpt>
      <trkpt lat="44.1195" lon="3.24851">
        <ele>506.5</ele>
        <time>2021-10-14T12:02:54Z</time>
      </trkpt>
      <trkpt lat="44.1195" lon="3.24854">
        <ele>506.8</ele>
        <time>2021-10-14T12:02:55Z</time>
      </trkpt>
      <trkpt lat="44.1195" lon="3.24854">
        <ele>506.8</ele>
        <time>2021-10-14T12:02:56Z</time>
      </trkpt>
      <trkpt lat="44.1195" lon="3.24855">
        <ele>506.9</ele>
        <time>2021-10-14T12:02:57Z</time>
      </trkpt>
      <trkpt lat="44.1195" lon="3.24859">
        <ele>507.1</ele>
        <time>2021-10-14T12:02:59Z</time>
      </trkpt>
      <trkpt lat="44.1195" lon="3.2486">
        <ele>507.3</ele>
        <time>2021-10-14T12:03:00Z</time>
      </trkpt>
      <trkpt lat="44.1195" lon="3.24864">
        <ele>507.6</ele>
        <time>2021-10-14T12:03:02Z</time>
      </trkpt>
      <trkpt lat="44.1195" lon="3.24866">
        <ele>507.7</ele>
        <time>2021-10-14T12:03:03Z</time>
      </trkpt>
      <trkpt lat="44.1195" lon="3.24868">
        <ele>507.9</ele>
        <time>2021-10-14T12:03:04Z</time>
      </trkpt>
      <trkpt lat="44.11951" lon="3.2487">
        <ele>508.1</ele>
        <time>2021-10-14T12:03:05Z</time>
      </trkpt>
      <trkpt lat="44.11951" lon="3.24873">
        <ele>508.3</ele>
        <time>2021-10-14T12:03:06Z</time>
      </trkpt>
      <trkpt lat="44.11952" lon="3.24876">
        <ele>508.6</ele>
        <time>2021-10-14T12:03:08Z</time>
      </trkpt>
      <trkpt lat="44.11952" lon="3.24878">
        <ele>508.7</ele>
        <time>2021-10-14T12:03:09Z</time>
      </trkpt>
      <trkpt lat="44.11953" lon="3.24879">
        <ele>508.9</ele>
        <time>2021-10-14T12:03:10Z</time>
      </trkpt>
      <trkpt lat="44.11954" lon="3.24881">
        <ele>509</ele>
        <time>2021-10-14T12:03:11Z</time>
      </trkpt>
      <trkpt lat="44.11956" lon="3.24883">
        <ele>509.3</ele>
        <time>2021-10-14T12:03:13Z</time>
      </trkpt>
      <trkpt lat="44.11957" lon="3.24884">
        <ele>509.4</ele>
        <time>2021-10-14T12:03:14Z</time>
      </trkpt>
      <trkpt lat="44.11958" lon="3.24886">
        <ele>509.6</ele>
        <time>2021-10-14T12:03:15Z</time>
      </trkpt>
      <trkpt lat="44.11959" lon="3.24888">
        <ele>509.7</ele>
        <time>2021-10-14T12:03:17Z</time>
      </trkpt>
      <trkpt lat="44.1196" lon="3.24888">
        <ele>509.8</ele>
        <time>2021-10-14T12:03:18Z</time>
      </trkpt>
      <trkpt lat="44.11962" lon="3.24888">
        <ele>509.9</ele>
        <time>2021-10-14T12:03:19Z</time>
      </trkpt>
      <trkpt lat="44.11963" lon="3.24888">
        <ele>510</ele>
        <time>2021-10-14T12:03:20Z</time>
      </trkpt>
      <trkpt lat="44.11965" lon="3.24888">
        <ele>510.1</ele>
        <time>2021-10-14T12:03:21Z</time>
      </trkpt>
      <trkpt lat="44.11966" lon="3.24888">
        <ele>510.2</ele>
        <time>2021-10-14T12:03:22Z</time>
      </trkpt>
      <trkpt lat="44.11967" lon="3.24887">
        <ele>510.3</ele>
        <time>2021-10-14T12:03:24Z</time>
      </trkpt>
      <trkpt lat="44.1197" lon="3.24887">
        <ele>510.5</ele>
        <time>2021-10-14T12:03:25Z</time>
      </trkpt>
      <trkpt lat="44.11971" lon="3.24887">
        <ele>510.6</ele>
        <time>2021-10-14T12:03:26Z</time>
      </trkpt>
      <trkpt lat="44.11974" lon="3.24886">
        <ele>510.8</ele>
        <time>2021-10-14T12:03:28Z</time>
      </trkpt>
      <trkpt lat="44.11974" lon="3.24886">
        <ele>510.8</ele>
        <time>2021-10-14T12:03:29Z</time>
      </trkpt>
      <trkpt lat="44.11975" lon="3.24886">
        <ele>510.8</ele>
        <time>2021-10-14T12:03:30Z</time>
      </trkpt>
      <trkpt lat="44.11978" lon="3.24883">
        <ele>511.1</ele>
        <time>2021-10-14T12:03:32Z</time>
      </trkpt>
      <trkpt lat="44.1198" lon="3.24879">
        <ele>511.3</ele>
        <time>2021-10-14T12:03:33Z</time>
      </trkpt>
      <trkpt lat="44.11981" lon="3.24878">
        <ele>511.5</ele>
        <time>2021-10-14T12:03:34Z</time>
      </trkpt>
      <trkpt lat="44.11984" lon="3.24875">
        <ele>511.7</ele>
        <time>2021-10-14T12:03:36Z</time>
      </trkpt>
      <trkpt lat="44.11987" lon="3.24872">
        <ele>512</ele>
        <time>2021-10-14T12:03:37Z</time>
      </trkpt>
      <trkpt lat="44.1199" lon="3.2487">
        <ele>512.3</ele>
        <time>2021-10-14T12:03:39Z</time>
      </trkpt>
      <trkpt lat="44.11992" lon="3.24869">
        <ele>512.5</ele>
        <time>2021-10-14T12:03:40Z</time>
      </trkpt>
      <trkpt lat="44.11996" lon="3.24868">
        <ele>512.9</ele>
        <time>2021-10-14T12:03:42Z</time>
      </trkpt>
      <trkpt lat="44.11999" lon="3.24867">
        <ele>513.1</ele>
        <time>2021-10-14T12:03:43Z</time>
      </trkpt>
      <trkpt lat="44.12003" lon="3.24867">
        <ele>513.5</ele>
        <time>2021-10-14T12:03:45Z</time>
      </trkpt>
      <trkpt lat="44.12006" lon="3.24866">
        <ele>513.8</ele>
        <time>2021-10-14T12:03:46Z</time>
      </trkpt>
      <trkpt lat="44.12009" lon="3.24866">
        <ele>513.9</ele>
        <time>2021-10-14T12:03:47Z</time>
      </trkpt>
      <trkpt lat="44.12012" lon="3.24865">
        <ele>514.2</ele>
        <time>2021-10-14T12:03:49Z</time>
      </trkpt>
      <trkpt lat="44.12016" lon="3.24864">
        <ele>514.5</ele>
        <time>2021-10-14T12:03:50Z</time>
      </trkpt>
      <trkpt lat="44.12017" lon="3.24863">
        <ele>514.6</ele>
        <time>2021-10-14T12:03:51Z</time>
      </trkpt>
      <trkpt lat="44.12021" lon="3.24863">
        <ele>514.8</ele>
        <time>2021-10-14T12:03:53Z</time>
      </trkpt>
      <trkpt lat="44.12024" lon="3.24863">
        <ele>514.9</ele>
        <time>2021-10-14T12:03:54Z</time>
      </trkpt>
      <trkpt lat="44.12028" lon="3.24863">
        <ele>515</ele>
        <time>2021-10-14T12:03:55Z</time>
      </trkpt>
      <trkpt lat="44.12032" lon="3.24864">
        <ele>515.2</ele>
        <time>2021-10-14T12:03:56Z</time>
      </trkpt>
      <trkpt lat="44.12037" lon="3.24866">
        <ele>515.4</ele>
        <time>2021-10-14T12:03:58Z</time>
      </trkpt>
      <trkpt lat="44.12041" lon="3.24867">
        <ele>515.5</ele>
        <time>2021-10-14T12:03:59Z</time>
      </trkpt>
      <trkpt lat="44.12046" lon="3.24868">
        <ele>515.6</ele>
        <time>2021-10-14T12:04:01Z</time>
      </trkpt>
      <trkpt lat="44.12049" lon="3.24869">
        <ele>515.7</ele>
        <time>2021-10-14T12:04:02Z</time>
      </trkpt>
      <trkpt lat="44.12053" lon="3.24871">
        <ele>515.9</ele>
        <time>2021-10-14T12:04:03Z</time>
      </trkpt>
      <trkpt lat="44.12056" lon="3.24871">
        <ele>516</ele>
        <time>2021-10-14T12:04:04Z</time>
      </trkpt>
      <trkpt lat="44.12059" lon="3.24872">
        <ele>516.1</ele>
        <time>2021-10-14T12:04:06Z</time>
      </trkpt>
      <trkpt lat="44.12062" lon="3.24873">
        <ele>516.2</ele>
        <time>2021-10-14T12:04:07Z</time>
      </trkpt>
      <trkpt lat="44.12064" lon="3.24873">
        <ele>516.3</ele>
        <time>2021-10-14T12:04:08Z</time>
      </trkpt>
      <trkpt lat="44.12067" lon="3.24873">
        <ele>516.5</ele>
        <time>2021-10-14T12:04:10Z</time>
      </trkpt>
      <trkpt lat="44.12071" lon="3.24873">
        <ele>516.6</ele>
        <time>2021-10-14T12:04:11Z</time>
      </trkpt>
      <trkpt lat="44.12072" lon="3.24873">
        <ele>516.7</ele>
        <time>2021-10-14T12:04:12Z</time>
      </trkpt>
      <trkpt lat="44.12077" lon="3.24872">
        <ele>517</ele>
        <time>2021-10-14T12:04:14Z</time>
      </trkpt>
      <trkpt lat="44.12079" lon="3.24872">
        <ele>517.2</ele>
        <time>2021-10-14T12:04:15Z</time>
      </trkpt>
      <trkpt lat="44.12081" lon="3.24872">
        <ele>517.3</ele>
        <time>2021-10-14T12:04:16Z</time>
      </trkpt>
      <trkpt lat="44.12085" lon="3.24872">
        <ele>517.8</ele>
        <time>2021-10-14T12:04:18Z</time>
      </trkpt>
      <trkpt lat="44.12087" lon="3.24872">
        <ele>518</ele>
        <time>2021-10-14T12:04:19Z</time>
      </trkpt>
      <trkpt lat="44.12089" lon="3.24871">
        <ele>518.2</ele>
        <time>2021-10-14T12:04:20Z</time>
      </trkpt>
      <trkpt lat="44.12093" lon="3.2487">
        <ele>518.6</ele>
        <time>2021-10-14T12:04:22Z</time>
      </trkpt>
      <trkpt lat="44.12094" lon="3.24869">
        <ele>518.7</ele>
        <time>2021-10-14T12:04:23Z</time>
      </trkpt>
      <trkpt lat="44.12096" lon="3.24866">
        <ele>519</ele>
        <time>2021-10-14T12:04:24Z</time>
      </trkpt>
      <trkpt lat="44.12099" lon="3.24863">
        <ele>519.4</ele>
        <time>2021-10-14T12:04:25Z</time>
      </trkpt>
      <trkpt lat="44.121" lon="3.24863">
        <ele>519.5</ele>
        <time>2021-10-14T12:04:26Z</time>
      </trkpt>
      <trkpt lat="44.12102" lon="3.2486">
        <ele>519.8</ele>
        <time>2021-10-14T12:04:27Z</time>
      </trkpt>
      <trkpt lat="44.12104" lon="3.24858">
        <ele>520.2</ele>
        <time>2021-10-14T12:04:29Z</time>
      </trkpt>
      <trkpt lat="44.12107" lon="3.24855">
        <ele>520.6</ele>
        <time>2021-10-14T12:04:30Z</time>
      </trkpt>
      <trkpt lat="44.12108" lon="3.24854">
        <ele>520.7</ele>
        <time>2021-10-14T12:04:31Z</time>
      </trkpt>
      <trkpt lat="44.1211" lon="3.24851">
        <ele>521.1</ele>
        <time>2021-10-14T12:04:33Z</time>
      </trkpt>
      <trkpt lat="44.12111" lon="3.2485">
        <ele>521.2</ele>
        <time>2021-10-14T12:04:34Z</time>
      </trkpt>
      <trkpt lat="44.12112" lon="3.24848">
        <ele>521.5</ele>
        <time>2021-10-14T12:04:35Z</time>
      </trkpt>
      <trkpt lat="44.12113" lon="3.24847">
        <ele>521.6</ele>
        <time>2021-10-14T12:04:36Z</time>
      </trkpt>
      <trkpt lat="44.12114" lon="3.24846">
        <ele>521.7</ele>
        <time>2021-10-14T12:04:37Z</time>
      </trkpt>
      <trkpt lat="44.12115" lon="3.24844">
        <ele>521.9</ele>
        <time>2021-10-14T12:04:39Z</time>
      </trkpt>
      <trkpt lat="44.12116" lon="3.24842">
        <ele>522.2</ele>
        <time>2021-10-14T12:04:40Z</time>
      </trkpt>
      <trkpt lat="44.12118" lon="3.24837">
        <ele>522.7</ele>
        <time>2021-10-14T12:04:42Z</time>
      </trkpt>
      <trkpt lat="44.12118" lon="3.24835">
        <ele>522.9</ele>
        <time>2021-10-14T12:04:43Z</time>
      </trkpt>
      <trkpt lat="44.12119" lon="3.24833">
        <ele>523.1</ele>
        <time>2021-10-14T12:04:44Z</time>
      </trkpt>
      <trkpt lat="44.1212" lon="3.2483">
        <ele>523.5</ele>
        <time>2021-10-14T12:04:45Z</time>
      </trkpt>
      <trkpt lat="44.1212" lon="3.24829">
        <ele>523.7</ele>
        <time>2021-10-14T12:04:46Z</time>
      </trkpt>
      <trkpt lat="44.12121" lon="3.24825">
        <ele>524.1</ele>
        <time>2021-10-14T12:04:48Z</time>
      </trkpt>
      <trkpt lat="44.12121" lon="3.24823">
        <ele>524.2</ele>
        <time>2021-10-14T12:04:49Z</time>
      </trkpt>
      <trkpt lat="44.12121" lon="3.24821">
        <ele>524.5</ele>
        <time>2021-10-14T12:04:50Z</time>
      </trkpt>
      <trkpt lat="44.12121" lon="3.24819">
        <ele>524.7</ele>
        <time>2021-10-14T12:04:51Z</time>
      </trkpt>
      <trkpt lat="44.12121" lon="3.24816">
        <ele>525</ele>
        <time>2021-10-14T12:04:52Z</time>
      </trkpt>
      <trkpt lat="44.12121" lon="3.24812">
        <ele>525.3</ele>
        <time>2021-10-14T12:04:54Z</time>
      </trkpt>
      <trkpt lat="44.12121" lon="3.24808">
        <ele>525.8</ele>
        <time>2021-10-14T12:04:55Z</time>
      </trkpt>
      <trkpt lat="44.12121" lon="3.24806">
        <ele>525.9</ele>
        <time>2021-10-14T12:04:56Z</time>
      </trkpt>
      <trkpt lat="44.12121" lon="3.24804">
        <ele>526.2</ele>
        <time>2021-10-14T12:04:57Z</time>
      </trkpt>
      <trkpt lat="44.12121" lon="3.24802">
        <ele>526.4</ele>
        <time>2021-10-14T12:04:58Z</time>
      </trkpt>
      <trkpt lat="44.12121" lon="3.24799">
        <ele>526.7</ele>
        <time>2021-10-14T12:05:00Z</time>
      </trkpt>
      <trkpt lat="44.12121" lon="3.24796">
        <ele>526.9</ele>
        <time>2021-10-14T12:05:01Z</time>
      </trkpt>
      <trkpt lat="44.1212" lon="3.24793">
        <ele>527.2</ele>
        <time>2021-10-14T12:05:02Z</time>
      </trkpt>
      <trkpt lat="44.1212" lon="3.24788">
        <ele>527.6</ele>
        <time>2021-10-14T12:05:04Z</time>
      </trkpt>
      <trkpt lat="44.1212" lon="3.24783">
        <ele>528</ele>
        <time>2021-10-14T12:05:05Z</time>
      </trkpt>
      <trkpt lat="44.12119" lon="3.24781">
        <ele>528.1</ele>
        <time>2021-10-14T12:05:06Z</time>
      </trkpt>
      <trkpt lat="44.12118" lon="3.24777">
        <ele>528.5</ele>
        <time>2021-10-14T12:05:08Z</time>
      </trkpt>
      <trkpt lat="44.12118" lon="3.24774">
        <ele>528.7</ele>
        <time>2021-10-14T12:05:09Z</time>
      </trkpt>
      <trkpt lat="44.12118" lon="3.2477">
        <ele>529</ele>
        <time>2021-10-14T12:05:11Z</time>
      </trkpt>
      <trkpt lat="44.12119" lon="3.24765">
        <ele>529.4</ele>
        <time>2021-10-14T12:05:12Z</time>
      </trkpt>
      <trkpt lat="44.12119" lon="3.24763">
        <ele>529.6</ele>
        <time>2021-10-14T12:05:13Z</time>
      </trkpt>
      <trkpt lat="44.12119" lon="3.24758">
        <ele>529.9</ele>
        <time>2021-10-14T12:05:15Z</time>
      </trkpt>
      <trkpt lat="44.12119" lon="3.24754">
        <ele>530.2</ele>
        <time>2021-10-14T12:05:16Z</time>
      </trkpt>
      <trkpt lat="44.12118" lon="3.24749">
        <ele>530.4</ele>
        <time>2021-10-14T12:05:17Z</time>
      </trkpt>
      <trkpt lat="44.12118" lon="3.24747">
        <ele>530.5</ele>
        <time>2021-10-14T12:05:18Z</time>
      </trkpt>
      <trkpt lat="44.12117" lon="3.24742">
        <ele>530.8</ele>
        <time>2021-10-14T12:05:20Z</time>
      </trkpt>
      <trkpt lat="44.12116" lon="3.24737">
        <ele>531.1</ele>
        <time>2021-10-14T12:05:21Z</time>
      </trkpt>
      <trkpt lat="44.12115" lon="3.24731">
        <ele>531.3</ele>
        <time>2021-10-14T12:05:23Z</time>
      </trkpt>
      <trkpt lat="44.12114" lon="3.24727">
        <ele>531.5</ele>
        <time>2021-10-14T12:05:24Z</time>
      </trkpt>
      <trkpt lat="44.12114" lon="3.24723">
        <ele>531.7</ele>
        <time>2021-10-14T12:05:25Z</time>
      </trkpt>
      <trkpt lat="44.12114" lon="3.24718">
        <ele>531.9</ele>
        <time>2021-10-14T12:05:27Z</time>
      </trkpt>
      <trkpt lat="44.12114" lon="3.24713">
        <ele>532.2</ele>
        <time>2021-10-14T12:05:29Z</time>
      </trkpt>
      <trkpt lat="44.12114" lon="3.24708">
        <ele>532.4</ele>
        <time>2021-10-14T12:05:30Z</time>
      </trkpt>
      <trkpt lat="44.12114" lon="3.24702">
        <ele>532.7</ele>
        <time>2021-10-14T12:05:32Z</time>
      </trkpt>
      <trkpt lat="44.12115" lon="3.24697">
        <ele>533</ele>
        <time>2021-10-14T12:05:33Z</time>
      </trkpt>
      <trkpt lat="44.12116" lon="3.24694">
        <ele>533.2</ele>
        <time>2021-10-14T12:05:34Z</time>
      </trkpt>
      <trkpt lat="44.12117" lon="3.24689">
        <ele>533.5</ele>
        <time>2021-10-14T12:05:36Z</time>
      </trkpt>
      <trkpt lat="44.12118" lon="3.24684">
        <ele>533.9</ele>
        <time>2021-10-14T12:05:37Z</time>
      </trkpt>
      <trkpt lat="44.1212" lon="3.24679">
        <ele>534.3</ele>
        <time>2021-10-14T12:05:39Z</time>
      </trkpt>
      <trkpt lat="44.12122" lon="3.24675">
        <ele>534.6</ele>
        <time>2021-10-14T12:05:40Z</time>
      </trkpt>
      <trkpt lat="44.12123" lon="3.24673">
        <ele>534.8</ele>
        <time>2021-10-14T12:05:41Z</time>
      </trkpt>
      <trkpt lat="44.12126" lon="3.2467">
        <ele>535.1</ele>
        <time>2021-10-14T12:05:43Z</time>
      </trkpt>
      <trkpt lat="44.12129" lon="3.24667">
        <ele>535.4</ele>
        <time>2021-10-14T12:05:44Z</time>
      </trkpt>
      <trkpt lat="44.1213" lon="3.24667">
        <ele>535.5</ele>
        <time>2021-10-14T12:05:45Z</time>
      </trkpt>
      <trkpt lat="44.12132" lon="3.24665">
        <ele>535.7</ele>
        <time>2021-10-14T12:05:46Z</time>
      </trkpt>
      <trkpt lat="44.12134" lon="3.24664">
        <ele>536</ele>
        <time>2021-10-14T12:05:48Z</time>
      </trkpt>
      <trkpt lat="44.12137" lon="3.24662">
        <ele>536.3</ele>
        <time>2021-10-14T12:05:49Z</time>
      </trkpt>
      <trkpt lat="44.12138" lon="3.24661">
        <ele>536.4</ele>
        <time>2021-10-14T12:05:50Z</time>
      </trkpt>
      <trkpt lat="44.1214" lon="3.24659">
        <ele>536.6</ele>
        <time>2021-10-14T12:05:51Z</time>
      </trkpt>
      <trkpt lat="44.12142" lon="3.24657">
        <ele>536.8</ele>
        <time>2021-10-14T12:05:53Z</time>
      </trkpt>
      <trkpt lat="44.12145" lon="3.24656">
        <ele>537.1</ele>
        <time>2021-10-14T12:05:54Z</time>
      </trkpt>
      <trkpt lat="44.12147" lon="3.24655">
        <ele>537.3</ele>
        <time>2021-10-14T12:05:56Z</time>
      </trkpt>
      <trkpt lat="44.1215" lon="3.24652">
        <ele>537.6</ele>
        <time>2021-10-14T12:05:57Z</time>
      </trkpt>
      <trkpt lat="44.12151" lon="3.24652">
        <ele>537.7</ele>
        <time>2021-10-14T12:05:58Z</time>
      </trkpt>
      <trkpt lat="44.12153" lon="3.2465">
        <ele>537.9</ele>
        <time>2021-10-14T12:05:59Z</time>
      </trkpt>
      <trkpt lat="44.12154" lon="3.2465">
        <ele>538</ele>
        <time>2021-10-14T12:06:01Z</time>
      </trkpt>
      <trkpt lat="44.12157" lon="3.24648">
        <ele>538.3</ele>
        <time>2021-10-14T12:06:02Z</time>
      </trkpt>
      <trkpt lat="44.12158" lon="3.24648">
        <ele>538.4</ele>
        <time>2021-10-14T12:06:03Z</time>
      </trkpt>
      <trkpt lat="44.1216" lon="3.24646">
        <ele>538.6</ele>
        <time>2021-10-14T12:06:04Z</time>
      </trkpt>
      <trkpt lat="44.12162" lon="3.24644">
        <ele>538.9</ele>
        <time>2021-10-14T12:06:06Z</time>
      </trkpt>
      <trkpt lat="44.12164" lon="3.24642">
        <ele>539.1</ele>
        <time>2021-10-14T12:06:07Z</time>
      </trkpt>
      <trkpt lat="44.12165" lon="3.24642">
        <ele>539.3</ele>
        <time>2021-10-14T12:06:08Z</time>
      </trkpt>
      <trkpt lat="44.12168" lon="3.24641">
        <ele>539.6</ele>
        <time>2021-10-14T12:06:10Z</time>
      </trkpt>
      <trkpt lat="44.12171" lon="3.24641">
        <ele>539.9</ele>
        <time>2021-10-14T12:06:11Z</time>
      </trkpt>
      <trkpt lat="44.12172" lon="3.24641">
        <ele>540.1</ele>
        <time>2021-10-14T12:06:12Z</time>
      </trkpt>
      <trkpt lat="44.12174" lon="3.2464">
        <ele>540.3</ele>
        <time>2021-10-14T12:06:13Z</time>
      </trkpt>
      <trkpt lat="44.12177" lon="3.2464">
        <ele>540.7</ele>
        <time>2021-10-14T12:06:15Z</time>
      </trkpt>
      <trkpt lat="44.12178" lon="3.24639">
        <ele>540.8</ele>
        <time>2021-10-14T12:06:16Z</time>
      </trkpt>
      <trkpt lat="44.12181" lon="3.24638">
        <ele>541.3</ele>
        <time>2021-10-14T12:06:17Z</time>
      </trkpt>
      <trkpt lat="44.12183" lon="3.24637">
        <ele>541.4</ele>
        <time>2021-10-14T12:06:19Z</time>
      </trkpt>
      <trkpt lat="44.12184" lon="3.24636">
        <ele>541.6</ele>
        <time>2021-10-14T12:06:20Z</time>
      </trkpt>
      <trkpt lat="44.12185" lon="3.24636">
        <ele>541.8</ele>
        <time>2021-10-14T12:06:21Z</time>
      </trkpt>
      <trkpt lat="44.12186" lon="3.24634">
        <ele>542</ele>
        <time>2021-10-14T12:06:22Z</time>
      </trkpt>
      <trkpt lat="44.12188" lon="3.24633">
        <ele>542.3</ele>
        <time>2021-10-14T12:06:23Z</time>
      </trkpt>
      <trkpt lat="44.12189" lon="3.24632">
        <ele>542.5</ele>
        <time>2021-10-14T12:06:24Z</time>
      </trkpt>
      <trkpt lat="44.12191" lon="3.2463">
        <ele>542.7</ele>
        <time>2021-10-14T12:06:26Z</time>
      </trkpt>
      <trkpt lat="44.12194" lon="3.24629">
        <ele>543.2</ele>
        <time>2021-10-14T12:06:27Z</time>
      </trkpt>
      <trkpt lat="44.12195" lon="3.24629">
        <ele>543.3</ele>
        <time>2021-10-14T12:06:28Z</time>
      </trkpt>
      <trkpt lat="44.12197" lon="3.24628">
        <ele>543.7</ele>
        <time>2021-10-14T12:06:30Z</time>
      </trkpt>
      <trkpt lat="44.12198" lon="3.24627">
        <ele>543.8</ele>
        <time>2021-10-14T12:06:31Z</time>
      </trkpt>
      <trkpt lat="44.12201" lon="3.24626">
        <ele>544.2</ele>
        <time>2021-10-14T12:06:32Z</time>
      </trkpt>
      <trkpt lat="44.12202" lon="3.24626">
        <ele>544.4</ele>
        <time>2021-10-14T12:06:33Z</time>
      </trkpt>
      <trkpt lat="44.12205" lon="3.24625">
        <ele>544.8</ele>
        <time>2021-10-14T12:06:35Z</time>
      </trkpt>
      <trkpt lat="44.12207" lon="3.24624">
        <ele>545.1</ele>
        <time>2021-10-14T12:06:36Z</time>
      </trkpt>
      <trkpt lat="44.12209" lon="3.24622">
        <ele>545.4</ele>
        <time>2021-10-14T12:06:38Z</time>
      </trkpt>
      <trkpt lat="44.1221" lon="3.24621">
        <ele>545.6</ele>
        <time>2021-10-14T12:06:39Z</time>
      </trkpt>
      <trkpt lat="44.12211" lon="3.2462">
        <ele>545.8</ele>
        <time>2021-10-14T12:06:40Z</time>
      </trkpt>
      <trkpt lat="44.12212" lon="3.24619">
        <ele>546</ele>
        <time>2021-10-14T12:06:41Z</time>
      </trkpt>
      <trkpt lat="44.12213" lon="3.24617">
        <ele>546.2</ele>
        <time>2021-10-14T12:06:43Z</time>
      </trkpt>
      <trkpt lat="44.12214" lon="3.24616">
        <ele>546.4</ele>
        <time>2021-10-14T12:06:44Z</time>
      </trkpt>
      <trkpt lat="44.12216" lon="3.24616">
        <ele>546.6</ele>
        <time>2021-10-14T12:06:45Z</time>
      </trkpt>
      <trkpt lat="44.12219" lon="3.24616">
        <ele>547</ele>
        <time>2021-10-14T12:06:47Z</time>
      </trkpt>
      <trkpt lat="44.1222" lon="3.24615">
        <ele>547.1</ele>
        <time>2021-10-14T12:06:48Z</time>
      </trkpt>
      <trkpt lat="44.12222" lon="3.24614">
        <ele>547.4</ele>
        <time>2021-10-14T12:06:49Z</time>
      </trkpt>
      <trkpt lat="44.12224" lon="3.24614">
        <ele>547.7</ele>
        <time>2021-10-14T12:06:51Z</time>
      </trkpt>
      <trkpt lat="44.12229" lon="3.24612">
        <ele>548.3</ele>
        <time>2021-10-14T12:06:53Z</time>
      </trkpt>
      <trkpt lat="44.1223" lon="3.24612">
        <ele>548.5</ele>
        <time>2021-10-14T12:06:54Z</time>
      </trkpt>
      <trkpt lat="44.12231" lon="3.24612">
        <ele>548.7</ele>
        <time>2021-10-14T12:06:55Z</time>
      </trkpt>
      <trkpt lat="44.12235" lon="3.24611">
        <ele>549.2</ele>
        <time>2021-10-14T12:06:57Z</time>
      </trkpt>
      <trkpt lat="44.12236" lon="3.24611">
        <ele>549.4</ele>
        <time>2021-10-14T12:06:58Z</time>
      </trkpt>
      <trkpt lat="44.12239" lon="3.24611">
        <ele>549.8</ele>
        <time>2021-10-14T12:07:00Z</time>
      </trkpt>
      <trkpt lat="44.12242" lon="3.24611">
        <ele>550.2</ele>
        <time>2021-10-14T12:07:01Z</time>
      </trkpt>
      <trkpt lat="44.12244" lon="3.24611">
        <ele>550.5</ele>
        <time>2021-10-14T12:07:02Z</time>
      </trkpt>
      <trkpt lat="44.12246" lon="3.24611">
        <ele>550.8</ele>
        <time>2021-10-14T12:07:04Z</time>
      </trkpt>
      <trkpt lat="44.12248" lon="3.24611">
        <ele>551.2</ele>
        <time>2021-10-14T12:07:05Z</time>
      </trkpt>
      <trkpt lat="44.12251" lon="3.24611">
        <ele>551.6</ele>
        <time>2021-10-14T12:07:07Z</time>
      </trkpt>
      <trkpt lat="44.12254" lon="3.24612">
        <ele>552.2</ele>
        <time>2021-10-14T12:07:08Z</time>
      </trkpt>
      <trkpt lat="44.12255" lon="3.24612">
        <ele>552.3</ele>
        <time>2021-10-14T12:07:09Z</time>
      </trkpt>
      <trkpt lat="44.12257" lon="3.24613">
        <ele>552.7</ele>
        <time>2021-10-14T12:07:11Z</time>
      </trkpt>
      <trkpt lat="44.12258" lon="3.24614">
        <ele>552.9</ele>
        <time>2021-10-14T12:07:12Z</time>
      </trkpt>
      <trkpt lat="44.12262" lon="3.24615">
        <ele>553.5</ele>
        <time>2021-10-14T12:07:13Z</time>
      </trkpt>
      <trkpt lat="44.12262" lon="3.24615">
        <ele>553.6</ele>
        <time>2021-10-14T12:07:14Z</time>
      </trkpt>
      <trkpt lat="44.12264" lon="3.24616">
        <ele>554</ele>
        <time>2021-10-14T12:07:16Z</time>
      </trkpt>
      <trkpt lat="44.12265" lon="3.24616">
        <ele>554.2</ele>
        <time>2021-10-14T12:07:17Z</time>
      </trkpt>
      <trkpt lat="44.12266" lon="3.24616">
        <ele>554.3</ele>
        <time>2021-10-14T12:07:18Z</time>
      </trkpt>
      <trkpt lat="44.12268" lon="3.24616">
        <ele>554.7</ele>
        <time>2021-10-14T12:07:19Z</time>
      </trkpt>
      <trkpt lat="44.12269" lon="3.24616">
        <ele>554.9</ele>
        <time>2021-10-14T12:07:21Z</time>
      </trkpt>
      <trkpt lat="44.1227" lon="3.24616">
        <ele>555</ele>
        <time>2021-10-14T12:07:22Z</time>
      </trkpt>
      <trkpt lat="44.12271" lon="3.24617">
        <ele>555.4</ele>
        <time>2021-10-14T12:07:23Z</time>
      </trkpt>
      <trkpt lat="44.12273" lon="3.24617">
        <ele>555.6</ele>
        <time>2021-10-14T12:07:24Z</time>
      </trkpt>
      <trkpt lat="44.12274" lon="3.24618">
        <ele>556</ele>
        <time>2021-10-14T12:07:26Z</time>
      </trkpt>
      <trkpt lat="44.12276" lon="3.24619">
        <ele>556.2</ele>
        <time>2021-10-14T12:07:27Z</time>
      </trkpt>
      <trkpt lat="44.12277" lon="3.24619">
        <ele>556.4</ele>
        <time>2021-10-14T12:07:28Z</time>
      </trkpt>
      <trkpt lat="44.12278" lon="3.24621">
        <ele>556.8</ele>
        <time>2021-10-14T12:07:30Z</time>
      </trkpt>
      <trkpt lat="44.1228" lon="3.24622">
        <ele>557.1</ele>
        <time>2021-10-14T12:07:31Z</time>
      </trkpt>
      <trkpt lat="44.12281" lon="3.24623">
        <ele>557.4</ele>
        <time>2021-10-14T12:07:32Z</time>
      </trkpt>
      <trkpt lat="44.12282" lon="3.24624">
        <ele>557.6</ele>
        <time>2021-10-14T12:07:34Z</time>
      </trkpt>
      <trkpt lat="44.12284" lon="3.24625">
        <ele>558</ele>
        <time>2021-10-14T12:07:35Z</time>
      </trkpt>
      <trkpt lat="44.12286" lon="3.24626">
        <ele>558.2</ele>
        <time>2021-10-14T12:07:36Z</time>
      </trkpt>
      <trkpt lat="44.12287" lon="3.24627">
        <ele>558.5</ele>
        <time>2021-10-14T12:07:37Z</time>
      </trkpt>
      <trkpt lat="44.12289" lon="3.24628">
        <ele>558.8</ele>
        <time>2021-10-14T12:07:39Z</time>
      </trkpt>
      <trkpt lat="44.1229" lon="3.24628">
        <ele>559.1</ele>
        <time>2021-10-14T12:07:40Z</time>
      </trkpt>
      <trkpt lat="44.12292" lon="3.24628">
        <ele>559.3</ele>
        <time>2021-10-14T12:07:41Z</time>
      </trkpt>
      <trkpt lat="44.12293" lon="3.24628">
        <ele>559.5</ele>
        <time>2021-10-14T12:07:42Z</time>
      </trkpt>
      <trkpt lat="44.12295" lon="3.24629">
        <ele>559.8</ele>
        <time>2021-10-14T12:07:44Z</time>
      </trkpt>
      <trkpt lat="44.12296" lon="3.24629">
        <ele>560</ele>
        <time>2021-10-14T12:07:45Z</time>
      </trkpt>
      <trkpt lat="44.12298" lon="3.2463">
        <ele>560.3</ele>
        <time>2021-10-14T12:07:46Z</time>
      </trkpt>
      <trkpt lat="44.12299" lon="3.24631">
        <ele>560.6</ele>
        <time>2021-10-14T12:07:48Z</time>
      </trkpt>
      <trkpt lat="44.12301" lon="3.24632">
        <ele>561</ele>
        <time>2021-10-14T12:07:49Z</time>
      </trkpt>
      <trkpt lat="44.12305" lon="3.24633">
        <ele>561.7</ele>
        <time>2021-10-14T12:07:51Z</time>
      </trkpt>
      <trkpt lat="44.12308" lon="3.24633">
        <ele>562.5</ele>
        <time>2021-10-14T12:07:52Z</time>
      </trkpt>
      <trkpt lat="44.1231" lon="3.24632">
        <ele>562.7</ele>
        <time>2021-10-14T12:07:53Z</time>
      </trkpt>
      <trkpt lat="44.12313" lon="3.24631">
        <ele>563.5</ele>
        <time>2021-10-14T12:07:55Z</time>
      </trkpt>
      <trkpt lat="44.12313" lon="3.24631">
        <ele>563.6</ele>
        <time>2021-10-14T12:07:56Z</time>
      </trkpt>
      <trkpt lat="44.12314" lon="3.2463">
        <ele>563.9</ele>
        <time>2021-10-14T12:07:57Z</time>
      </trkpt>
      <trkpt lat="44.12315" lon="3.2463">
        <ele>564.1</ele>
        <time>2021-10-14T12:07:58Z</time>
      </trkpt>
      <trkpt lat="44.12316" lon="3.24629">
        <ele>564.4</ele>
        <time>2021-10-14T12:07:59Z</time>
      </trkpt>
      <trkpt lat="44.12318" lon="3.24628">
        <ele>564.8</ele>
        <time>2021-10-14T12:08:01Z</time>
      </trkpt>
      <trkpt lat="44.12319" lon="3.24628">
        <ele>565</ele>
        <time>2021-10-14T12:08:02Z</time>
      </trkpt>
      <trkpt lat="44.1232" lon="3.24627">
        <ele>565.5</ele>
        <time>2021-10-14T12:08:04Z</time>
      </trkpt>
      <trkpt lat="44.12321" lon="3.24627">
        <ele>565.6</ele>
        <time>2021-10-14T12:08:05Z</time>
      </trkpt>
      <trkpt lat="44.12323" lon="3.24627">
        <ele>566</ele>
        <time>2021-10-14T12:08:07Z</time>
      </trkpt>
      <trkpt lat="44.12323" lon="3.24627">
        <ele>566.1</ele>
        <time>2021-10-14T12:08:08Z</time>
      </trkpt>
      <trkpt lat="44.12323" lon="3.24627">
        <ele>566.2</ele>
        <time>2021-10-14T12:08:10Z</time>
      </trkpt>
      <trkpt lat="44.12324" lon="3.24626">
        <ele>566.3</ele>
        <time>2021-10-14T12:08:12Z</time>
      </trkpt>
      <trkpt lat="44.12324" lon="3.24625">
        <ele>566.4</ele>
        <time>2021-10-14T12:08:13Z</time>
      </trkpt>
      <trkpt lat="44.12324" lon="3.24624">
        <ele>566.6</ele>
        <time>2021-10-14T12:08:15Z</time>
      </trkpt>
      <trkpt lat="44.12324" lon="3.24623">
        <ele>566.7</ele>
        <time>2021-10-14T12:08:17Z</time>
      </trkpt>
      <trkpt lat="44.12327" lon="3.24628">
        <ele>567.4</ele>
        <time>2021-10-14T12:08:56Z</time>
      </trkpt>
      <trkpt lat="44.1233" lon="3.24627">
        <ele>568</ele>
        <time>2021-10-14T12:08:58Z</time>
      </trkpt>
      <trkpt lat="44.12334" lon="3.24627">
        <ele>568</ele>
        <time>2021-10-14T12:08:59Z</time>
      </trkpt>
      <trkpt lat="44.12337" lon="3.24626">
        <ele>568</ele>
        <time>2021-10-14T12:09:00Z</time>
      </trkpt>
      <trkpt lat="44.1234" lon="3.24626">
        <ele>568.1</ele>
        <time>2021-10-14T12:09:01Z</time>
      </trkpt>
      <trkpt lat="44.12344" lon="3.24625">
        <ele>568.2</ele>
        <time>2021-10-14T12:09:03Z</time>
      </trkpt>
      <trkpt lat="44.12347" lon="3.24623">
        <ele>568.3</ele>
        <time>2021-10-14T12:09:04Z</time>
      </trkpt>
      <trkpt lat="44.12347" lon="3.24623">
        <ele>568.3</ele>
        <time>2021-10-14T12:09:05Z</time>
      </trkpt>
      <trkpt lat="44.12349" lon="3.24621">
        <ele>568.4</ele>
        <time>2021-10-14T12:09:06Z</time>
      </trkpt>
      <trkpt lat="44.12351" lon="3.24619">
        <ele>568.6</ele>
        <time>2021-10-14T12:09:08Z</time>
      </trkpt>
      <trkpt lat="44.12354" lon="3.24615">
        <ele>568.8</ele>
        <time>2021-10-14T12:09:09Z</time>
      </trkpt>
      <trkpt lat="44.12354" lon="3.24614">
        <ele>568.9</ele>
        <time>2021-10-14T12:09:10Z</time>
      </trkpt>
      <trkpt lat="44.12357" lon="3.24608">
        <ele>569.1</ele>
        <time>2021-10-14T12:09:12Z</time>
      </trkpt>
      <trkpt lat="44.12357" lon="3.24607">
        <ele>569.1</ele>
        <time>2021-10-14T12:09:13Z</time>
      </trkpt>
      <trkpt lat="44.12358" lon="3.24605">
        <ele>569.2</ele>
        <time>2021-10-14T12:09:14Z</time>
      </trkpt>
      <trkpt lat="44.12359" lon="3.24603">
        <ele>569.3</ele>
        <time>2021-10-14T12:09:15Z</time>
      </trkpt>
      <trkpt lat="44.1236" lon="3.246">
        <ele>569.4</ele>
        <time>2021-10-14T12:09:17Z</time>
      </trkpt>
      <trkpt lat="44.12362" lon="3.24596">
        <ele>569.5</ele>
        <time>2021-10-14T12:09:18Z</time>
      </trkpt>
      <trkpt lat="44.12362" lon="3.24595">
        <ele>569.6</ele>
        <time>2021-10-14T12:09:19Z</time>
      </trkpt>
      <trkpt lat="44.12363" lon="3.24593">
        <ele>569.7</ele>
        <time>2021-10-14T12:09:20Z</time>
      </trkpt>
      <trkpt lat="44.12364" lon="3.24592">
        <ele>569.8</ele>
        <time>2021-10-14T12:09:22Z</time>
      </trkpt>
      <trkpt lat="44.12366" lon="3.2459">
        <ele>569.9</ele>
        <time>2021-10-14T12:09:23Z</time>
      </trkpt>
      <trkpt lat="44.12368" lon="3.24587">
        <ele>570.2</ele>
        <time>2021-10-14T12:09:25Z</time>
      </trkpt>
      <trkpt lat="44.1237" lon="3.24586">
        <ele>570.3</ele>
        <time>2021-10-14T12:09:26Z</time>
      </trkpt>
      <trkpt lat="44.12372" lon="3.24584">
        <ele>570.5</ele>
        <time>2021-10-14T12:09:28Z</time>
      </trkpt>
      <trkpt lat="44.12374" lon="3.24582">
        <ele>570.8</ele>
        <time>2021-10-14T12:09:29Z</time>
      </trkpt>
      <trkpt lat="44.12377" lon="3.2458">
        <ele>571.2</ele>
        <time>2021-10-14T12:09:31Z</time>
      </trkpt>
      <trkpt lat="44.12378" lon="3.24579">
        <ele>571.4</ele>
        <time>2021-10-14T12:09:32Z</time>
      </trkpt>
      <trkpt lat="44.1238" lon="3.24577">
        <ele>571.7</ele>
        <time>2021-10-14T12:09:33Z</time>
      </trkpt>
      <trkpt lat="44.12381" lon="3.24576">
        <ele>571.8</ele>
        <time>2021-10-14T12:09:34Z</time>
      </trkpt>
      <trkpt lat="44.12382" lon="3.24575">
        <ele>572</ele>
        <time>2021-10-14T12:09:35Z</time>
      </trkpt>
      <trkpt lat="44.12384" lon="3.24574">
        <ele>572.2</ele>
        <time>2021-10-14T12:09:36Z</time>
      </trkpt>
      <trkpt lat="44.12385" lon="3.24572">
        <ele>572.4</ele>
        <time>2021-10-14T12:09:37Z</time>
      </trkpt>
      <trkpt lat="44.12387" lon="3.24571">
        <ele>572.6</ele>
        <time>2021-10-14T12:09:39Z</time>
      </trkpt>
      <trkpt lat="44.12388" lon="3.2457">
        <ele>572.8</ele>
        <time>2021-10-14T12:09:41Z</time>
      </trkpt>
      <trkpt lat="44.12389" lon="3.24569">
        <ele>572.9</ele>
        <time>2021-10-14T12:09:42Z</time>
      </trkpt>
      <trkpt lat="44.12389" lon="3.24568">
        <ele>573</ele>
        <time>2021-10-14T12:09:43Z</time>
      </trkpt>
      <trkpt lat="44.12389" lon="3.24568">
        <ele>573.1</ele>
        <time>2021-10-14T12:09:45Z</time>
      </trkpt>
      <trkpt lat="44.12389" lon="3.24568">
        <ele>573.1</ele>
        <time>2021-10-14T12:09:46Z</time>
      </trkpt>
      <trkpt lat="44.12389" lon="3.24568">
        <ele>573.1</ele>
        <time>2021-10-14T12:09:48Z</time>
      </trkpt>
      <trkpt lat="44.12392" lon="3.24565">
        <ele>573.5</ele>
        <time>2021-10-14T12:09:50Z</time>
      </trkpt>
      <trkpt lat="44.12395" lon="3.24564">
        <ele>573.8</ele>
        <time>2021-10-14T12:09:51Z</time>
      </trkpt>
      <trkpt lat="44.12396" lon="3.24563">
        <ele>574</ele>
        <time>2021-10-14T12:09:53Z</time>
      </trkpt>
      <trkpt lat="44.12398" lon="3.24563">
        <ele>574.1</ele>
        <time>2021-10-14T12:09:54Z</time>
      </trkpt>
      <trkpt lat="44.12399" lon="3.24562">
        <ele>574.2</ele>
        <time>2021-10-14T12:09:55Z</time>
      </trkpt>
      <trkpt lat="44.12402" lon="3.2456">
        <ele>574.5</ele>
        <time>2021-10-14T12:09:57Z</time>
      </trkpt>
      <trkpt lat="44.12405" lon="3.24558">
        <ele>574.7</ele>
        <time>2021-10-14T12:09:58Z</time>
      </trkpt>
      <trkpt lat="44.12406" lon="3.24557">
        <ele>574.8</ele>
        <time>2021-10-14T12:09:59Z</time>
      </trkpt>
      <trkpt lat="44.1241" lon="3.24556">
        <ele>575</ele>
        <time>2021-10-14T12:10:01Z</time>
      </trkpt>
      <trkpt lat="44.12411" lon="3.24556">
        <ele>575.1</ele>
        <time>2021-10-14T12:10:02Z</time>
      </trkpt>
      <trkpt lat="44.12414" lon="3.24555">
        <ele>575.2</ele>
        <time>2021-10-14T12:10:03Z</time>
      </trkpt>
      <trkpt lat="44.12417" lon="3.24553">
        <ele>575.4</ele>
        <time>2021-10-14T12:10:05Z</time>
      </trkpt>
      <trkpt lat="44.12421" lon="3.24551">
        <ele>575.6</ele>
        <time>2021-10-14T12:10:06Z</time>
      </trkpt>
      <trkpt lat="44.12422" lon="3.2455">
        <ele>575.7</ele>
        <time>2021-10-14T12:10:07Z</time>
      </trkpt>
      <trkpt lat="44.12424" lon="3.24549">
        <ele>575.8</ele>
        <time>2021-10-14T12:10:08Z</time>
      </trkpt>
      <trkpt lat="44.12426" lon="3.24547">
        <ele>576</ele>
        <time>2021-10-14T12:10:10Z</time>
      </trkpt>
      <trkpt lat="44.12429" lon="3.24545">
        <ele>576.2</ele>
        <time>2021-10-14T12:10:11Z</time>
      </trkpt>
      <trkpt lat="44.12432" lon="3.24543">
        <ele>576.4</ele>
        <time>2021-10-14T12:10:12Z</time>
      </trkpt>
      <trkpt lat="44.12432" lon="3.24542">
        <ele>576.4</ele>
        <time>2021-10-14T12:10:13Z</time>
      </trkpt>
      <trkpt lat="44.12436" lon="3.24541">
        <ele>576.7</ele>
        <time>2021-10-14T12:10:15Z</time>
      </trkpt>
      <trkpt lat="44.12436" lon="3.2454">
        <ele>576.8</ele>
        <time>2021-10-14T12:10:16Z</time>
      </trkpt>
      <trkpt lat="44.1244" lon="3.2454">
        <ele>577</ele>
        <time>2021-10-14T12:10:18Z</time>
      </trkpt>
      <trkpt lat="44.12441" lon="3.2454">
        <ele>577.1</ele>
        <time>2021-10-14T12:10:19Z</time>
      </trkpt>
      <trkpt lat="44.12442" lon="3.24539">
        <ele>577.2</ele>
        <time>2021-10-14T12:10:20Z</time>
      </trkpt>
      <trkpt lat="44.12444" lon="3.24538">
        <ele>577.3</ele>
        <time>2021-10-14T12:10:21Z</time>
      </trkpt>
      <trkpt lat="44.12445" lon="3.24537">
        <ele>577.4</ele>
        <time>2021-10-14T12:10:22Z</time>
      </trkpt>
      <trkpt lat="44.12447" lon="3.24537">
        <ele>577.6</ele>
        <time>2021-10-14T12:10:24Z</time>
      </trkpt>
      <trkpt lat="44.1245" lon="3.24536">
        <ele>577.8</ele>
        <time>2021-10-14T12:10:25Z</time>
      </trkpt>
      <trkpt lat="44.12451" lon="3.24535">
        <ele>577.9</ele>
        <time>2021-10-14T12:10:26Z</time>
      </trkpt>
      <trkpt lat="44.12454" lon="3.24534">
        <ele>578.1</ele>
        <time>2021-10-14T12:10:28Z</time>
      </trkpt>
      <trkpt lat="44.12455" lon="3.24534">
        <ele>578.2</ele>
        <time>2021-10-14T12:10:29Z</time>
      </trkpt>
      <trkpt lat="44.12457" lon="3.24533">
        <ele>578.4</ele>
        <time>2021-10-14T12:10:30Z</time>
      </trkpt>
      <trkpt lat="44.12459" lon="3.24532">
        <ele>578.6</ele>
        <time>2021-10-14T12:10:32Z</time>
      </trkpt>
      <trkpt lat="44.12462" lon="3.24531">
        <ele>578.9</ele>
        <time>2021-10-14T12:10:33Z</time>
      </trkpt>
      <trkpt lat="44.12465" lon="3.2453">
        <ele>579.2</ele>
        <time>2021-10-14T12:10:35Z</time>
      </trkpt>
      <trkpt lat="44.12468" lon="3.24529">
        <ele>579.5</ele>
        <time>2021-10-14T12:10:36Z</time>
      </trkpt>
      <trkpt lat="44.12469" lon="3.24529">
        <ele>579.6</ele>
        <time>2021-10-14T12:10:37Z</time>
      </trkpt>
      <trkpt lat="44.12473" lon="3.24528">
        <ele>580</ele>
        <time>2021-10-14T12:10:39Z</time>
      </trkpt>
      <trkpt lat="44.12475" lon="3.24527">
        <ele>580.1</ele>
        <time>2021-10-14T12:10:40Z</time>
      </trkpt>
      <trkpt lat="44.12479" lon="3.24525">
        <ele>580.5</ele>
        <time>2021-10-14T12:10:42Z</time>
      </trkpt>
      <trkpt lat="44.12482" lon="3.24523">
        <ele>580.8</ele>
        <time>2021-10-14T12:10:44Z</time>
      </trkpt>
      <trkpt lat="44.12483" lon="3.24522">
        <ele>580.9</ele>
        <time>2021-10-14T12:10:45Z</time>
      </trkpt>
      <trkpt lat="44.12485" lon="3.24519">
        <ele>581.2</ele>
        <time>2021-10-14T12:10:47Z</time>
      </trkpt>
      <trkpt lat="44.12486" lon="3.24518">
        <ele>581.3</ele>
        <time>2021-10-14T12:10:48Z</time>
      </trkpt>
      <trkpt lat="44.12487" lon="3.24516">
        <ele>581.4</ele>
        <time>2021-10-14T12:10:49Z</time>
      </trkpt>
      <trkpt lat="44.12488" lon="3.24515">
        <ele>581.6</ele>
        <time>2021-10-14T12:10:50Z</time>
      </trkpt>
      <trkpt lat="44.1249" lon="3.24514">
        <ele>581.7</ele>
        <time>2021-10-14T12:10:52Z</time>
      </trkpt>
      <trkpt lat="44.12491" lon="3.24513">
        <ele>581.9</ele>
        <time>2021-10-14T12:10:53Z</time>
      </trkpt>
      <trkpt lat="44.12493" lon="3.24513">
        <ele>582</ele>
        <time>2021-10-14T12:10:55Z</time>
      </trkpt>
      <trkpt lat="44.12495" lon="3.24513">
        <ele>582.2</ele>
        <time>2021-10-14T12:10:56Z</time>
      </trkpt>
      <trkpt lat="44.12496" lon="3.24513">
        <ele>582.3</ele>
        <time>2021-10-14T12:10:58Z</time>
      </trkpt>
      <trkpt lat="44.12497" lon="3.24512">
        <ele>582.4</ele>
        <time>2021-10-14T12:10:59Z</time>
      </trkpt>
      <trkpt lat="44.12499" lon="3.24511">
        <ele>582.5</ele>
        <time>2021-10-14T12:11:00Z</time>
      </trkpt>
      <trkpt lat="44.125" lon="3.2451">
        <ele>582.7</ele>
        <time>2021-10-14T12:11:02Z</time>
      </trkpt>
      <trkpt lat="44.12501" lon="3.24509">
        <ele>582.8</ele>
        <time>2021-10-14T12:11:03Z</time>
      </trkpt>
      <trkpt lat="44.12502" lon="3.24507">
        <ele>582.9</ele>
        <time>2021-10-14T12:11:04Z</time>
      </trkpt>
      <trkpt lat="44.12503" lon="3.24506">
        <ele>583</ele>
        <time>2021-10-14T12:11:05Z</time>
      </trkpt>
      <trkpt lat="44.12505" lon="3.24505">
        <ele>583.2</ele>
        <time>2021-10-14T12:11:07Z</time>
      </trkpt>
      <trkpt lat="44.12506" lon="3.24504">
        <ele>583.4</ele>
        <time>2021-10-14T12:11:08Z</time>
      </trkpt>
      <trkpt lat="44.12508" lon="3.24503">
        <ele>583.6</ele>
        <time>2021-10-14T12:11:10Z</time>
      </trkpt>
      <trkpt lat="44.1251" lon="3.24502">
        <ele>583.8</ele>
        <time>2021-10-14T12:11:11Z</time>
      </trkpt>
      <trkpt lat="44.12511" lon="3.24501">
        <ele>584</ele>
        <time>2021-10-14T12:11:12Z</time>
      </trkpt>
      <trkpt lat="44.12515" lon="3.24501">
        <ele>584.3</ele>
        <time>2021-10-14T12:11:14Z</time>
      </trkpt>
      <trkpt lat="44.12515" lon="3.24501">
        <ele>584.4</ele>
        <time>2021-10-14T12:11:15Z</time>
      </trkpt>
      <trkpt lat="44.12517" lon="3.24501">
        <ele>584.7</ele>
        <time>2021-10-14T12:11:16Z</time>
      </trkpt>
      <trkpt lat="44.12519" lon="3.245">
        <ele>584.9</ele>
        <time>2021-10-14T12:11:18Z</time>
      </trkpt>
      <trkpt lat="44.12521" lon="3.24499">
        <ele>585.2</ele>
        <time>2021-10-14T12:11:19Z</time>
      </trkpt>
      <trkpt lat="44.12522" lon="3.24499">
        <ele>585.3</ele>
        <time>2021-10-14T12:11:20Z</time>
      </trkpt>
      <trkpt lat="44.12523" lon="3.24498">
        <ele>585.4</ele>
        <time>2021-10-14T12:11:21Z</time>
      </trkpt>
      <trkpt lat="44.12526" lon="3.24498">
        <ele>585.8</ele>
        <time>2021-10-14T12:11:23Z</time>
      </trkpt>
      <trkpt lat="44.12527" lon="3.24498">
        <ele>585.8</ele>
        <time>2021-10-14T12:11:24Z</time>
      </trkpt>
      <trkpt lat="44.12528" lon="3.24498">
        <ele>586</ele>
        <time>2021-10-14T12:11:25Z</time>
      </trkpt>
      <trkpt lat="44.12529" lon="3.24497">
        <ele>586.1</ele>
        <time>2021-10-14T12:11:26Z</time>
      </trkpt>
      <trkpt lat="44.1253" lon="3.24497">
        <ele>586.3</ele>
        <time>2021-10-14T12:11:27Z</time>
      </trkpt>
      <trkpt lat="44.12532" lon="3.24496">
        <ele>586.4</ele>
        <time>2021-10-14T12:11:28Z</time>
      </trkpt>
      <trkpt lat="44.12533" lon="3.24496">
        <ele>586.6</ele>
        <time>2021-10-14T12:11:29Z</time>
      </trkpt>
      <trkpt lat="44.12535" lon="3.24496">
        <ele>586.8</ele>
        <time>2021-10-14T12:11:31Z</time>
      </trkpt>
      <trkpt lat="44.12536" lon="3.24496">
        <ele>587</ele>
        <time>2021-10-14T12:11:32Z</time>
      </trkpt>
      <trkpt lat="44.12537" lon="3.24496">
        <ele>587.1</ele>
        <time>2021-10-14T12:11:33Z</time>
      </trkpt>
      <trkpt lat="44.1254" lon="3.24497">
        <ele>587.4</ele>
        <time>2021-10-14T12:11:35Z</time>
      </trkpt>
      <trkpt lat="44.12541" lon="3.24497">
        <ele>587.5</ele>
        <time>2021-10-14T12:11:36Z</time>
      </trkpt>
      <trkpt lat="44.12542" lon="3.24496">
        <ele>587.6</ele>
        <time>2021-10-14T12:11:37Z</time>
      </trkpt>
      <trkpt lat="44.12544" lon="3.24496">
        <ele>587.9</ele>
        <time>2021-10-14T12:11:38Z</time>
      </trkpt>
      <trkpt lat="44.12545" lon="3.24496">
        <ele>588</ele>
        <time>2021-10-14T12:11:39Z</time>
      </trkpt>
      <trkpt lat="44.12547" lon="3.24496">
        <ele>588.1</ele>
        <time>2021-10-14T12:11:41Z</time>
      </trkpt>
      <trkpt lat="44.12548" lon="3.24497">
        <ele>588.2</ele>
        <time>2021-10-14T12:11:42Z</time>
      </trkpt>
      <trkpt lat="44.1255" lon="3.24498">
        <ele>588.5</ele>
        <time>2021-10-14T12:11:44Z</time>
      </trkpt>
      <trkpt lat="44.12551" lon="3.24498">
        <ele>588.6</ele>
        <time>2021-10-14T12:11:45Z</time>
      </trkpt>
      <trkpt lat="44.12552" lon="3.24498">
        <ele>588.7</ele>
        <time>2021-10-14T12:11:46Z</time>
      </trkpt>
      <trkpt lat="44.12553" lon="3.24499">
        <ele>588.9</ele>
        <time>2021-10-14T12:11:48Z</time>
      </trkpt>
      <trkpt lat="44.12554" lon="3.24498">
        <ele>588.9</ele>
        <time>2021-10-14T12:11:49Z</time>
      </trkpt>
      <trkpt lat="44.12554" lon="3.24497">
        <ele>589</ele>
        <time>2021-10-14T12:11:51Z</time>
      </trkpt>
      <trkpt lat="44.12554" lon="3.24497">
        <ele>589</ele>
        <time>2021-10-14T12:11:52Z</time>
      </trkpt>
      <trkpt lat="44.12553" lon="3.24496">
        <ele>589.1</ele>
        <time>2021-10-14T12:11:54Z</time>
      </trkpt>
      <trkpt lat="44.12553" lon="3.24496">
        <ele>589.1</ele>
        <time>2021-10-14T12:11:55Z</time>
      </trkpt>
      <trkpt lat="44.12554" lon="3.24496">
        <ele>589.1</ele>
        <time>2021-10-14T12:11:56Z</time>
      </trkpt>
      <trkpt lat="44.12554" lon="3.24495">
        <ele>589.2</ele>
        <time>2021-10-14T12:11:57Z</time>
      </trkpt>
      <trkpt lat="44.12556" lon="3.24496">
        <ele>589.4</ele>
        <time>2021-10-14T12:11:59Z</time>
      </trkpt>
      <trkpt lat="44.12557" lon="3.24497">
        <ele>589.6</ele>
        <time>2021-10-14T12:12:00Z</time>
      </trkpt>
      <trkpt lat="44.12559" lon="3.24498">
        <ele>589.8</ele>
        <time>2021-10-14T12:12:02Z</time>
      </trkpt>
      <trkpt lat="44.1256" lon="3.24499">
        <ele>589.9</ele>
        <time>2021-10-14T12:12:03Z</time>
      </trkpt>
      <trkpt lat="44.12561" lon="3.24501">
        <ele>590.1</ele>
        <time>2021-10-14T12:12:04Z</time>
      </trkpt>
      <trkpt lat="44.12562" lon="3.24503">
        <ele>590.3</ele>
        <time>2021-10-14T12:12:06Z</time>
      </trkpt>
      <trkpt lat="44.12563" lon="3.24504">
        <ele>590.5</ele>
        <time>2021-10-14T12:12:07Z</time>
      </trkpt>
      <trkpt lat="44.12565" lon="3.24505">
        <ele>590.7</ele>
        <time>2021-10-14T12:12:08Z</time>
      </trkpt>
      <trkpt lat="44.12566" lon="3.24507">
        <ele>590.9</ele>
        <time>2021-10-14T12:12:09Z</time>
      </trkpt>
      <trkpt lat="44.12567" lon="3.24508">
        <ele>591.1</ele>
        <time>2021-10-14T12:12:11Z</time>
      </trkpt>
      <trkpt lat="44.12568" lon="3.2451">
        <ele>591.2</ele>
        <time>2021-10-14T12:12:12Z</time>
      </trkpt>
      <trkpt lat="44.12569" lon="3.24511">
        <ele>591.4</ele>
        <time>2021-10-14T12:12:13Z</time>
      </trkpt>
      <trkpt lat="44.1257" lon="3.24512">
        <ele>591.6</ele>
        <time>2021-10-14T12:12:14Z</time>
      </trkpt>
      <trkpt lat="44.12572" lon="3.24514">
        <ele>591.8</ele>
        <time>2021-10-14T12:12:16Z</time>
      </trkpt>
      <trkpt lat="44.12573" lon="3.24515">
        <ele>591.9</ele>
        <time>2021-10-14T12:12:17Z</time>
      </trkpt>
      <trkpt lat="44.12574" lon="3.24516">
        <ele>592.1</ele>
        <time>2021-10-14T12:12:18Z</time>
      </trkpt>
      <trkpt lat="44.12574" lon="3.24517">
        <ele>592.2</ele>
        <time>2021-10-14T12:12:19Z</time>
      </trkpt>
      <trkpt lat="44.12575" lon="3.24519">
        <ele>592.4</ele>
        <time>2021-10-14T12:12:21Z</time>
      </trkpt>
      <trkpt lat="44.12577" lon="3.24521">
        <ele>592.6</ele>
        <time>2021-10-14T12:12:22Z</time>
      </trkpt>
      <trkpt lat="44.12578" lon="3.24522">
        <ele>592.8</ele>
        <time>2021-10-14T12:12:23Z</time>
      </trkpt>
      <trkpt lat="44.12578" lon="3.24524">
        <ele>592.9</ele>
        <time>2021-10-14T12:12:24Z</time>
      </trkpt>
      <trkpt lat="44.12579" lon="3.24526">
        <ele>593.1</ele>
        <time>2021-10-14T12:12:26Z</time>
      </trkpt>
      <trkpt lat="44.12581" lon="3.24527">
        <ele>593.3</ele>
        <time>2021-10-14T12:12:27Z</time>
      </trkpt>
      <trkpt lat="44.12582" lon="3.2453">
        <ele>593.6</ele>
        <time>2021-10-14T12:12:28Z</time>
      </trkpt>
      <trkpt lat="44.12583" lon="3.24531">
        <ele>593.8</ele>
        <time>2021-10-14T12:12:30Z</time>
      </trkpt>
      <trkpt lat="44.12585" lon="3.24535">
        <ele>594.1</ele>
        <time>2021-10-14T12:12:31Z</time>
      </trkpt>
      <trkpt lat="44.12586" lon="3.24536">
        <ele>594.3</ele>
        <time>2021-10-14T12:12:32Z</time>
      </trkpt>
      <trkpt lat="44.12586" lon="3.24537">
        <ele>594.4</ele>
        <time>2021-10-14T12:12:33Z</time>
      </trkpt>
      <trkpt lat="44.12588" lon="3.2454">
        <ele>594.6</ele>
        <time>2021-10-14T12:12:35Z</time>
      </trkpt>
      <trkpt lat="44.12589" lon="3.24541">
        <ele>594.8</ele>
        <time>2021-10-14T12:12:36Z</time>
      </trkpt>
      <trkpt lat="44.1259" lon="3.24543">
        <ele>595</ele>
        <time>2021-10-14T12:12:38Z</time>
      </trkpt>
      <trkpt lat="44.12591" lon="3.24544">
        <ele>595.1</ele>
        <time>2021-10-14T12:12:39Z</time>
      </trkpt>
      <trkpt lat="44.12592" lon="3.24546">
        <ele>595.4</ele>
        <time>2021-10-14T12:12:41Z</time>
      </trkpt>
      <trkpt lat="44.12593" lon="3.24547">
        <ele>595.5</ele>
        <time>2021-10-14T12:12:42Z</time>
      </trkpt>
      <trkpt lat="44.12593" lon="3.24548">
        <ele>595.6</ele>
        <time>2021-10-14T12:12:43Z</time>
      </trkpt>
      <trkpt lat="44.12593" lon="3.24548">
        <ele>595.6</ele>
        <time>2021-10-14T12:12:44Z</time>
      </trkpt>
      <trkpt lat="44.12595" lon="3.2455">
        <ele>595.8</ele>
        <time>2021-10-14T12:12:46Z</time>
      </trkpt>
      <trkpt lat="44.12595" lon="3.24552">
        <ele>595.9</ele>
        <time>2021-10-14T12:12:47Z</time>
      </trkpt>
      <trkpt lat="44.12595" lon="3.24552">
        <ele>596</ele>
        <time>2021-10-14T12:12:48Z</time>
      </trkpt>
      <trkpt lat="44.12596" lon="3.24553">
        <ele>596.1</ele>
        <time>2021-10-14T12:12:49Z</time>
      </trkpt>
      <trkpt lat="44.12596" lon="3.24554">
        <ele>596.2</ele>
        <time>2021-10-14T12:12:50Z</time>
      </trkpt>
      <trkpt lat="44.12597" lon="3.24555">
        <ele>596.2</ele>
        <time>2021-10-14T12:12:51Z</time>
      </trkpt>
      <trkpt lat="44.12598" lon="3.24555">
        <ele>596.3</ele>
        <time>2021-10-14T12:12:52Z</time>
      </trkpt>
      <trkpt lat="44.12598" lon="3.24556">
        <ele>596.4</ele>
        <time>2021-10-14T12:12:54Z</time>
      </trkpt>
      <trkpt lat="44.12599" lon="3.24557">
        <ele>596.5</ele>
        <time>2021-10-14T12:12:55Z</time>
      </trkpt>
      <trkpt lat="44.126" lon="3.2456">
        <ele>596.8</ele>
        <time>2021-10-14T12:12:57Z</time>
      </trkpt>
      <trkpt lat="44.126" lon="3.24561">
        <ele>596.9</ele>
        <time>2021-10-14T12:12:58Z</time>
      </trkpt>
      <trkpt lat="44.126" lon="3.24563">
        <ele>597</ele>
        <time>2021-10-14T12:12:59Z</time>
      </trkpt>
      <trkpt lat="44.12602" lon="3.24566">
        <ele>597.3</ele>
        <time>2021-10-14T12:13:01Z</time>
      </trkpt>
      <trkpt lat="44.12602" lon="3.24567">
        <ele>597.4</ele>
        <time>2021-10-14T12:13:02Z</time>
      </trkpt>
      <trkpt lat="44.12604" lon="3.2457">
        <ele>597.7</ele>
        <time>2021-10-14T12:13:04Z</time>
      </trkpt>
      <trkpt lat="44.12605" lon="3.24571">
        <ele>597.7</ele>
        <time>2021-10-14T12:13:05Z</time>
      </trkpt>
      <trkpt lat="44.12606" lon="3.24574">
        <ele>597.9</ele>
        <time>2021-10-14T12:13:06Z</time>
      </trkpt>
      <trkpt lat="44.12607" lon="3.24576">
        <ele>598.2</ele>
        <time>2021-10-14T12:13:08Z</time>
      </trkpt>
      <trkpt lat="44.1261" lon="3.24579">
        <ele>598.4</ele>
        <time>2021-10-14T12:13:09Z</time>
      </trkpt>
      <trkpt lat="44.1261" lon="3.2458">
        <ele>598.5</ele>
        <time>2021-10-14T12:13:10Z</time>
      </trkpt>
      <trkpt lat="44.12612" lon="3.24582">
        <ele>598.8</ele>
        <time>2021-10-14T12:13:12Z</time>
      </trkpt>
      <trkpt lat="44.12613" lon="3.24583">
        <ele>598.8</ele>
        <time>2021-10-14T12:13:13Z</time>
      </trkpt>
      <trkpt lat="44.12615" lon="3.24586">
        <ele>599.1</ele>
        <time>2021-10-14T12:13:14Z</time>
      </trkpt>
      <trkpt lat="44.12616" lon="3.24587">
        <ele>599.2</ele>
        <time>2021-10-14T12:13:15Z</time>
      </trkpt>
      <trkpt lat="44.12618" lon="3.2459">
        <ele>599.5</ele>
        <time>2021-10-14T12:13:17Z</time>
      </trkpt>
      <trkpt lat="44.12618" lon="3.24591">
        <ele>599.6</ele>
        <time>2021-10-14T12:13:18Z</time>
      </trkpt>
      <trkpt lat="44.12619" lon="3.24593">
        <ele>599.8</ele>
        <time>2021-10-14T12:13:19Z</time>
      </trkpt>
      <trkpt lat="44.12621" lon="3.24597">
        <ele>600.1</ele>
        <time>2021-10-14T12:13:21Z</time>
      </trkpt>
      <trkpt lat="44.12623" lon="3.24599">
        <ele>600.3</ele>
        <time>2021-10-14T12:13:22Z</time>
      </trkpt>
      <trkpt lat="44.12624" lon="3.24601">
        <ele>600.5</ele>
        <time>2021-10-14T12:13:24Z</time>
      </trkpt>
      <trkpt lat="44.12625" lon="3.24604">
        <ele>600.7</ele>
        <time>2021-10-14T12:13:25Z</time>
      </trkpt>
      <trkpt lat="44.12627" lon="3.24607">
        <ele>601</ele>
        <time>2021-10-14T12:13:27Z</time>
      </trkpt>
      <trkpt lat="44.12628" lon="3.24609">
        <ele>601.2</ele>
        <time>2021-10-14T12:13:28Z</time>
      </trkpt>
      <trkpt lat="44.12629" lon="3.24611">
        <ele>601.4</ele>
        <time>2021-10-14T12:13:30Z</time>
      </trkpt>
      <trkpt lat="44.1263" lon="3.24612">
        <ele>601.5</ele>
        <time>2021-10-14T12:13:31Z</time>
      </trkpt>
      <trkpt lat="44.12631" lon="3.24613">
        <ele>601.7</ele>
        <time>2021-10-14T12:13:33Z</time>
      </trkpt>
      <trkpt lat="44.12632" lon="3.24614">
        <ele>601.8</ele>
        <time>2021-10-14T12:13:34Z</time>
      </trkpt>
      <trkpt lat="44.12632" lon="3.24614">
        <ele>601.8</ele>
        <time>2021-10-14T12:13:35Z</time>
      </trkpt>
      <trkpt lat="44.12632" lon="3.24616">
        <ele>601.9</ele>
        <time>2021-10-14T12:13:37Z</time>
      </trkpt>
      <trkpt lat="44.12633" lon="3.24617">
        <ele>602</ele>
        <time>2021-10-14T12:13:38Z</time>
      </trkpt>
      <trkpt lat="44.12634" lon="3.24619">
        <ele>602.2</ele>
        <time>2021-10-14T12:13:39Z</time>
      </trkpt>
      <trkpt lat="44.12635" lon="3.24619">
        <ele>602.3</ele>
        <time>2021-10-14T12:13:40Z</time>
      </trkpt>
      <trkpt lat="44.12635" lon="3.24619">
        <ele>602.3</ele>
        <time>2021-10-14T12:13:42Z</time>
      </trkpt>
      <trkpt lat="44.12636" lon="3.24619">
        <ele>602.4</ele>
        <time>2021-10-14T12:13:43Z</time>
      </trkpt>
      <trkpt lat="44.12637" lon="3.2462">
        <ele>602.5</ele>
        <time>2021-10-14T12:13:44Z</time>
      </trkpt>
      <trkpt lat="44.12639" lon="3.2462">
        <ele>602.7</ele>
        <time>2021-10-14T12:13:45Z</time>
      </trkpt>
      <trkpt lat="44.1264" lon="3.24621">
        <ele>602.8</ele>
        <time>2021-10-14T12:13:46Z</time>
      </trkpt>
      <trkpt lat="44.12642" lon="3.24623">
        <ele>603.1</ele>
        <time>2021-10-14T12:13:48Z</time>
      </trkpt>
      <trkpt lat="44.12644" lon="3.24627">
        <ele>603.4</ele>
        <time>2021-10-14T12:13:50Z</time>
      </trkpt>
      <trkpt lat="44.12645" lon="3.24632">
        <ele>603.7</ele>
        <time>2021-10-14T12:13:51Z</time>
      </trkpt>
      <trkpt lat="44.12645" lon="3.24635">
        <ele>603.9</ele>
        <time>2021-10-14T12:13:52Z</time>
      </trkpt>
      <trkpt lat="44.12647" lon="3.24638">
        <ele>604.1</ele>
        <time>2021-10-14T12:13:54Z</time>
      </trkpt>
      <trkpt lat="44.12648" lon="3.24641">
        <ele>604.2</ele>
        <time>2021-10-14T12:13:55Z</time>
      </trkpt>
      <trkpt lat="44.12648" lon="3.24645">
        <ele>604.5</ele>
        <time>2021-10-14T12:13:57Z</time>
      </trkpt>
      <trkpt lat="44.1265" lon="3.2465">
        <ele>604.7</ele>
        <time>2021-10-14T12:13:58Z</time>
      </trkpt>
      <trkpt lat="44.1265" lon="3.24651">
        <ele>606.6</ele>
        <time>2021-10-14T12:13:59Z</time>
      </trkpt>
      <trkpt lat="44.12652" lon="3.24653">
        <ele>605.4</ele>
        <time>2021-10-14T12:14:00Z</time>
      </trkpt>
      <trkpt lat="44.12653" lon="3.24654">
        <ele>605.3</ele>
        <time>2021-10-14T12:14:02Z</time>
      </trkpt>
      <trkpt lat="44.12654" lon="3.24655">
        <ele>606.2</ele>
        <time>2021-10-14T12:14:03Z</time>
      </trkpt>
      <trkpt lat="44.12656" lon="3.24657">
        <ele>606.1</ele>
        <time>2021-10-14T12:14:04Z</time>
      </trkpt>
      <trkpt lat="44.12657" lon="3.24658">
        <ele>605.1</ele>
        <time>2021-10-14T12:14:05Z</time>
      </trkpt>
      <trkpt lat="44.1266" lon="3.2466">
        <ele>606.1</ele>
        <time>2021-10-14T12:14:07Z</time>
      </trkpt>
      <trkpt lat="44.12663" lon="3.2466">
        <ele>605</ele>
        <time>2021-10-14T12:14:08Z</time>
      </trkpt>
      <trkpt lat="44.12664" lon="3.2466">
        <ele>604.9</ele>
        <time>2021-10-14T12:14:09Z</time>
      </trkpt>
      <trkpt lat="44.12666" lon="3.24661">
        <ele>604.8</ele>
        <time>2021-10-14T12:14:11Z</time>
      </trkpt>
      <trkpt lat="44.12667" lon="3.24662">
        <ele>603.8</ele>
        <time>2021-10-14T12:14:12Z</time>
      </trkpt>
      <trkpt lat="44.12669" lon="3.24665">
        <ele>604.9</ele>
        <time>2021-10-14T12:14:13Z</time>
      </trkpt>
      <trkpt lat="44.1267" lon="3.24666">
        <ele>604.8</ele>
        <time>2021-10-14T12:14:15Z</time>
      </trkpt>
      <trkpt lat="44.12672" lon="3.24667">
        <ele>604.7</ele>
        <time>2021-10-14T12:14:16Z</time>
      </trkpt>
      <trkpt lat="44.12673" lon="3.24668">
        <ele>605.8</ele>
        <time>2021-10-14T12:14:17Z</time>
      </trkpt>
      <trkpt lat="44.12675" lon="3.24671">
        <ele>605.7</ele>
        <time>2021-10-14T12:14:19Z</time>
      </trkpt>
      <trkpt lat="44.12676" lon="3.24672">
        <ele>606.8</ele>
        <time>2021-10-14T12:14:20Z</time>
      </trkpt>
      <trkpt lat="44.12677" lon="3.24675">
        <ele>606.7</ele>
        <time>2021-10-14T12:14:21Z</time>
      </trkpt>
      <trkpt lat="44.12678" lon="3.24677">
        <ele>608.5</ele>
        <time>2021-10-14T12:14:22Z</time>
      </trkpt>
      <trkpt lat="44.1268" lon="3.2468">
        <ele>607.7</ele>
        <time>2021-10-14T12:14:24Z</time>
      </trkpt>
      <trkpt lat="44.12681" lon="3.24681">
        <ele>609.4</ele>
        <time>2021-10-14T12:14:25Z</time>
      </trkpt>
      <trkpt lat="44.12683" lon="3.24682">
        <ele>608.7</ele>
        <time>2021-10-14T12:14:26Z</time>
      </trkpt>
      <trkpt lat="44.12684" lon="3.24683">
        <ele>608.1</ele>
        <time>2021-10-14T12:14:27Z</time>
      </trkpt>
      <trkpt lat="44.12686" lon="3.24684">
        <ele>608</ele>
        <time>2021-10-14T12:14:29Z</time>
      </trkpt>
      <trkpt lat="44.12687" lon="3.24686">
        <ele>609.6</ele>
        <time>2021-10-14T12:14:30Z</time>
      </trkpt>
      <trkpt lat="44.12688" lon="3.24688">
        <ele>609</ele>
        <time>2021-10-14T12:14:31Z</time>
      </trkpt>
      <trkpt lat="44.12689" lon="3.2469">
        <ele>610.7</ele>
        <time>2021-10-14T12:14:32Z</time>
      </trkpt>
      <trkpt lat="44.1269" lon="3.24692">
        <ele>610.6</ele>
        <time>2021-10-14T12:14:33Z</time>
      </trkpt>
      <trkpt lat="44.12692" lon="3.24695">
        <ele>611.8</ele>
        <time>2021-10-14T12:14:35Z</time>
      </trkpt>
      <trkpt lat="44.12695" lon="3.24698">
        <ele>613</ele>
        <time>2021-10-14T12:14:36Z</time>
      </trkpt>
      <trkpt lat="44.12696" lon="3.247">
        <ele>612.9</ele>
        <time>2021-10-14T12:14:37Z</time>
      </trkpt>
      <trkpt lat="44.12698" lon="3.24702">
        <ele>612.9</ele>
        <time>2021-10-14T12:14:39Z</time>
      </trkpt>
      <trkpt lat="44.12701" lon="3.24704">
        <ele>612.9</ele>
        <time>2021-10-14T12:14:40Z</time>
      </trkpt>
      <trkpt lat="44.12703" lon="3.24705">
        <ele>612.9</ele>
        <time>2021-10-14T12:14:41Z</time>
      </trkpt>
      <trkpt lat="44.12705" lon="3.24707">
        <ele>612.8</ele>
        <time>2021-10-14T12:14:43Z</time>
      </trkpt>
      <trkpt lat="44.12707" lon="3.24707">
        <ele>612.8</ele>
        <time>2021-10-14T12:14:44Z</time>
      </trkpt>
      <trkpt lat="44.1271" lon="3.24708">
        <ele>612.8</ele>
        <time>2021-10-14T12:14:46Z</time>
      </trkpt>
      <trkpt lat="44.12711" lon="3.24709">
        <ele>612.8</ele>
        <time>2021-10-14T12:14:47Z</time>
      </trkpt>
      <trkpt lat="44.12713" lon="3.2471">
        <ele>612.8</ele>
        <time>2021-10-14T12:14:48Z</time>
      </trkpt>
      <trkpt lat="44.12716" lon="3.24712">
        <ele>612.8</ele>
        <time>2021-10-14T12:14:50Z</time>
      </trkpt>
      <trkpt lat="44.12717" lon="3.24713">
        <ele>612.8</ele>
        <time>2021-10-14T12:14:51Z</time>
      </trkpt>
      <trkpt lat="44.1272" lon="3.24716">
        <ele>612.7</ele>
        <time>2021-10-14T12:14:53Z</time>
      </trkpt>
      <trkpt lat="44.12722" lon="3.24718">
        <ele>612.7</ele>
        <time>2021-10-14T12:14:54Z</time>
      </trkpt>
      <trkpt lat="44.12725" lon="3.24719">
        <ele>612.6</ele>
        <time>2021-10-14T12:14:56Z</time>
      </trkpt>
      <trkpt lat="44.12728" lon="3.24721">
        <ele>612.5</ele>
        <time>2021-10-14T12:14:57Z</time>
      </trkpt>
      <trkpt lat="44.12729" lon="3.24722">
        <ele>612.4</ele>
        <time>2021-10-14T12:14:58Z</time>
      </trkpt>
      <trkpt lat="44.1273" lon="3.24723">
        <ele>612.4</ele>
        <time>2021-10-14T12:14:59Z</time>
      </trkpt>
      <trkpt lat="44.12732" lon="3.24724">
        <ele>612.2</ele>
        <time>2021-10-14T12:15:01Z</time>
      </trkpt>
      <trkpt lat="44.12734" lon="3.24727">
        <ele>612</ele>
        <time>2021-10-14T12:15:02Z</time>
      </trkpt>
      <trkpt lat="44.12736" lon="3.24728">
        <ele>612.1</ele>
        <time>2021-10-14T12:15:03Z</time>
      </trkpt>
      <trkpt lat="44.12737" lon="3.24729">
        <ele>612.2</ele>
        <time>2021-10-14T12:15:04Z</time>
      </trkpt>
      <trkpt lat="44.1274" lon="3.24732">
        <ele>612.4</ele>
        <time>2021-10-14T12:15:06Z</time>
      </trkpt>
      <trkpt lat="44.1274" lon="3.24735">
        <ele>612.5</ele>
        <time>2021-10-14T12:15:08Z</time>
      </trkpt>
      <trkpt lat="44.12738" lon="3.24736">
        <ele>612.5</ele>
        <time>2021-10-14T12:15:09Z</time>
      </trkpt>
      <trkpt lat="44.12737" lon="3.24735">
        <ele>612.6</ele>
        <time>2021-10-14T12:15:10Z</time>
      </trkpt>
      <trkpt lat="44.12737" lon="3.24734">
        <ele>612.6</ele>
        <time>2021-10-14T12:15:11Z</time>
      </trkpt>
      <trkpt lat="44.12733" lon="3.24732">
        <ele>612.7</ele>
        <time>2021-10-14T12:15:13Z</time>
      </trkpt>
      <trkpt lat="44.1273" lon="3.2473">
        <ele>612.7</ele>
        <time>2021-10-14T12:15:14Z</time>
      </trkpt>
      <trkpt lat="44.12729" lon="3.24729">
        <ele>612.7</ele>
        <time>2021-10-14T12:15:15Z</time>
      </trkpt>
      <trkpt lat="44.12727" lon="3.24727">
        <ele>612.8</ele>
        <time>2021-10-14T12:15:16Z</time>
      </trkpt>
      <trkpt lat="44.12726" lon="3.24726">
        <ele>612.8</ele>
        <time>2021-10-14T12:15:17Z</time>
      </trkpt>
      <trkpt lat="44.12724" lon="3.24725">
        <ele>612.8</ele>
        <time>2021-10-14T12:15:19Z</time>
      </trkpt>
      <trkpt lat="44.12723" lon="3.24724">
        <ele>612.8</ele>
        <time>2021-10-14T12:15:20Z</time>
      </trkpt>
      <trkpt lat="44.12723" lon="3.24723">
        <ele>612.8</ele>
        <time>2021-10-14T12:15:21Z</time>
      </trkpt>
      <trkpt lat="44.12719" lon="3.24721">
        <ele>612.8</ele>
        <time>2021-10-14T12:15:23Z</time>
      </trkpt>
      <trkpt lat="44.12716" lon="3.2472">
        <ele>612.8</ele>
        <time>2021-10-14T12:15:24Z</time>
      </trkpt>
      <trkpt lat="44.12715" lon="3.2472">
        <ele>612.8</ele>
        <time>2021-10-14T12:15:25Z</time>
      </trkpt>
      <trkpt lat="44.12711" lon="3.24718">
        <ele>612.9</ele>
        <time>2021-10-14T12:15:27Z</time>
      </trkpt>
      <trkpt lat="44.1271" lon="3.24717">
        <ele>612.9</ele>
        <time>2021-10-14T12:15:28Z</time>
      </trkpt>
      <trkpt lat="44.12707" lon="3.24716">
        <ele>612.9</ele>
        <time>2021-10-14T12:15:29Z</time>
      </trkpt>
      <trkpt lat="44.12706" lon="3.24716">
        <ele>612.9</ele>
        <time>2021-10-14T12:15:30Z</time>
      </trkpt>
      <trkpt lat="44.12704" lon="3.24714">
        <ele>612.9</ele>
        <time>2021-10-14T12:15:32Z</time>
      </trkpt>
      <trkpt lat="44.12702" lon="3.24714">
        <ele>612.9</ele>
        <time>2021-10-14T12:15:33Z</time>
      </trkpt>
      <trkpt lat="44.12701" lon="3.24713">
        <ele>613</ele>
        <time>2021-10-14T12:15:34Z</time>
      </trkpt>
      <trkpt lat="44.12699" lon="3.24714">
        <ele>613</ele>
        <time>2021-10-14T12:15:36Z</time>
      </trkpt>
      <trkpt lat="44.12698" lon="3.24714">
        <ele>613</ele>
        <time>2021-10-14T12:15:37Z</time>
      </trkpt>
      <trkpt lat="44.12695" lon="3.24714">
        <ele>613</ele>
        <time>2021-10-14T12:15:38Z</time>
      </trkpt>
      <trkpt lat="44.12691" lon="3.24712">
        <ele>613</ele>
        <time>2021-10-14T12:15:40Z</time>
      </trkpt>
      <trkpt lat="44.1269" lon="3.24712">
        <ele>613.1</ele>
        <time>2021-10-14T12:15:41Z</time>
      </trkpt>
      <trkpt lat="44.12689" lon="3.24711">
        <ele>613.1</ele>
        <time>2021-10-14T12:15:42Z</time>
      </trkpt>
      <trkpt lat="44.12687" lon="3.2471">
        <ele>613.1</ele>
        <time>2021-10-14T12:15:44Z</time>
      </trkpt>
      <trkpt lat="44.12686" lon="3.24709">
        <ele>613.1</ele>
        <time>2021-10-14T12:15:45Z</time>
      </trkpt>
      <trkpt lat="44.12685" lon="3.24708">
        <ele>613.1</ele>
        <time>2021-10-14T12:15:46Z</time>
      </trkpt>
      <trkpt lat="44.12684" lon="3.24706">
        <ele>613.1</ele>
        <time>2021-10-14T12:15:47Z</time>
      </trkpt>
      <trkpt lat="44.12683" lon="3.24704">
        <ele>613.1</ele>
        <time>2021-10-14T12:15:48Z</time>
      </trkpt>
      <trkpt lat="44.12681" lon="3.24701">
        <ele>613.1</ele>
        <time>2021-10-14T12:15:50Z</time>
      </trkpt>
      <trkpt lat="44.12679" lon="3.24698">
        <ele>613.1</ele>
        <time>2021-10-14T12:15:51Z</time>
      </trkpt>
      <trkpt lat="44.12676" lon="3.24694">
        <ele>613.1</ele>
        <time>2021-10-14T12:15:52Z</time>
      </trkpt>
      <trkpt lat="44.12673" lon="3.2469">
        <ele>613.1</ele>
        <time>2021-10-14T12:15:53Z</time>
      </trkpt>
      <trkpt lat="44.12671" lon="3.24688">
        <ele>613.1</ele>
        <time>2021-10-14T12:15:54Z</time>
      </trkpt>
      <trkpt lat="44.12668" lon="3.24685">
        <ele>613.1</ele>
        <time>2021-10-14T12:15:55Z</time>
      </trkpt>
      <trkpt lat="44.12666" lon="3.24681">
        <ele>613.1</ele>
        <time>2021-10-14T12:15:57Z</time>
      </trkpt>
      <trkpt lat="44.12662" lon="3.24677">
        <ele>613.1</ele>
        <time>2021-10-14T12:15:58Z</time>
      </trkpt>
      <trkpt lat="44.12659" lon="3.24674">
        <ele>613.2</ele>
        <time>2021-10-14T12:15:59Z</time>
      </trkpt>
      <trkpt lat="44.12656" lon="3.24671">
        <ele>613.2</ele>
        <time>2021-10-14T12:16:01Z</time>
      </trkpt>
      <trkpt lat="44.12654" lon="3.24669">
        <ele>613.2</ele>
        <time>2021-10-14T12:16:02Z</time>
      </trkpt>
      <trkpt lat="44.12651" lon="3.24666">
        <ele>613.2</ele>
        <time>2021-10-14T12:16:03Z</time>
      </trkpt>
      <trkpt lat="44.12647" lon="3.24663">
        <ele>613.3</ele>
        <time>2021-10-14T12:16:04Z</time>
      </trkpt>
      <trkpt lat="44.12643" lon="3.24661">
        <ele>613.3</ele>
        <time>2021-10-14T12:16:06Z</time>
      </trkpt>
      <trkpt lat="44.1264" lon="3.24657">
        <ele>613.4</ele>
        <time>2021-10-14T12:16:08Z</time>
      </trkpt>
      <trkpt lat="44.12638" lon="3.24655">
        <ele>613.5</ele>
        <time>2021-10-14T12:16:09Z</time>
      </trkpt>
      <trkpt lat="44.12636" lon="3.24652">
        <ele>613.5</ele>
        <time>2021-10-14T12:16:10Z</time>
      </trkpt>
      <trkpt lat="44.12633" lon="3.2465">
        <ele>613.6</ele>
        <time>2021-10-14T12:16:11Z</time>
      </trkpt>
      <trkpt lat="44.1263" lon="3.24648">
        <ele>613.6</ele>
        <time>2021-10-14T12:16:12Z</time>
      </trkpt>
      <trkpt lat="44.12627" lon="3.24645">
        <ele>613.7</ele>
        <time>2021-10-14T12:16:13Z</time>
      </trkpt>
      <trkpt lat="44.12626" lon="3.24644">
        <ele>613.7</ele>
        <time>2021-10-14T12:16:14Z</time>
      </trkpt>
      <trkpt lat="44.12623" lon="3.24641">
        <ele>613.8</ele>
        <time>2021-10-14T12:16:15Z</time>
      </trkpt>
      <trkpt lat="44.12618" lon="3.24638">
        <ele>613.9</ele>
        <time>2021-10-14T12:16:17Z</time>
      </trkpt>
      <trkpt lat="44.12615" lon="3.24636">
        <ele>613.9</ele>
        <time>2021-10-14T12:16:18Z</time>
      </trkpt>
      <trkpt lat="44.12612" lon="3.24633">
        <ele>613.9</ele>
        <time>2021-10-14T12:16:19Z</time>
      </trkpt>
      <trkpt lat="44.1261" lon="3.2463">
        <ele>613.9</ele>
        <time>2021-10-14T12:16:20Z</time>
      </trkpt>
      <trkpt lat="44.12605" lon="3.24627">
        <ele>614</ele>
        <time>2021-10-14T12:16:22Z</time>
      </trkpt>
      <trkpt lat="44.12602" lon="3.24624">
        <ele>613.9</ele>
        <time>2021-10-14T12:16:23Z</time>
      </trkpt>
      <trkpt lat="44.12598" lon="3.24621">
        <ele>613.9</ele>
        <time>2021-10-14T12:16:24Z</time>
      </trkpt>
      <trkpt lat="44.12594" lon="3.24618">
        <ele>613.9</ele>
        <time>2021-10-14T12:16:26Z</time>
      </trkpt>
      <trkpt lat="44.12591" lon="3.24615">
        <ele>613.9</ele>
        <time>2021-10-14T12:16:27Z</time>
      </trkpt>
      <trkpt lat="44.12588" lon="3.24613">
        <ele>613.9</ele>
        <time>2021-10-14T12:16:28Z</time>
      </trkpt>
      <trkpt lat="44.12585" lon="3.2461">
        <ele>613.9</ele>
        <time>2021-10-14T12:16:29Z</time>
      </trkpt>
      <trkpt lat="44.12583" lon="3.24607">
        <ele>613.9</ele>
        <time>2021-10-14T12:16:31Z</time>
      </trkpt>
      <trkpt lat="44.12581" lon="3.24604">
        <ele>613.9</ele>
        <time>2021-10-14T12:16:32Z</time>
      </trkpt>
      <trkpt lat="44.12578" lon="3.246">
        <ele>613.9</ele>
        <time>2021-10-14T12:16:33Z</time>
      </trkpt>
      <trkpt lat="44.12574" lon="3.24596">
        <ele>613.9</ele>
        <time>2021-10-14T12:16:35Z</time>
      </trkpt>
      <trkpt lat="44.12571" lon="3.24593">
        <ele>613.9</ele>
        <time>2021-10-14T12:16:36Z</time>
      </trkpt>
      <trkpt lat="44.12569" lon="3.24592">
        <ele>613.9</ele>
        <time>2021-10-14T12:16:37Z</time>
      </trkpt>
      <trkpt lat="44.12565" lon="3.24592">
        <ele>613.9</ele>
        <time>2021-10-14T12:16:39Z</time>
      </trkpt>
      <trkpt lat="44.12562" lon="3.24594">
        <ele>614</ele>
        <time>2021-10-14T12:16:40Z</time>
      </trkpt>
      <trkpt lat="44.12561" lon="3.24595">
        <ele>615.6</ele>
        <time>2021-10-14T12:16:41Z</time>
      </trkpt>
      <trkpt lat="44.12561" lon="3.24599">
        <ele>616</ele>
        <time>2021-10-14T12:16:42Z</time>
      </trkpt>
      <trkpt lat="44.12562" lon="3.24601">
        <ele>616.4</ele>
        <time>2021-10-14T12:16:44Z</time>
      </trkpt>
      <trkpt lat="44.12563" lon="3.24605">
        <ele>616.9</ele>
        <time>2021-10-14T12:16:45Z</time>
      </trkpt>
      <trkpt lat="44.12564" lon="3.24607">
        <ele>617.1</ele>
        <time>2021-10-14T12:16:46Z</time>
      </trkpt>
      <trkpt lat="44.12565" lon="3.24611">
        <ele>617.6</ele>
        <time>2021-10-14T12:16:48Z</time>
      </trkpt>
      <trkpt lat="44.12566" lon="3.24613">
        <ele>617.9</ele>
        <time>2021-10-14T12:16:50Z</time>
      </trkpt>
      <trkpt lat="44.12567" lon="3.24615">
        <ele>618.2</ele>
        <time>2021-10-14T12:16:51Z</time>
      </trkpt>
      <trkpt lat="44.12568" lon="3.24618">
        <ele>618.5</ele>
        <time>2021-10-14T12:16:52Z</time>
      </trkpt>
      <trkpt lat="44.12569" lon="3.24621">
        <ele>618.9</ele>
        <time>2021-10-14T12:16:54Z</time>
      </trkpt>
      <trkpt lat="44.1257" lon="3.24622">
        <ele>619.1</ele>
        <time>2021-10-14T12:16:55Z</time>
      </trkpt>
      <trkpt lat="44.12572" lon="3.24624">
        <ele>619.5</ele>
        <time>2021-10-14T12:16:56Z</time>
      </trkpt>
      <trkpt lat="44.12573" lon="3.24626">
        <ele>619.8</ele>
        <time>2021-10-14T12:16:58Z</time>
      </trkpt>
      <trkpt lat="44.12575" lon="3.24627">
        <ele>620</ele>
        <time>2021-10-14T12:16:59Z</time>
      </trkpt>
      <trkpt lat="44.12576" lon="3.24628">
        <ele>620.4</ele>
        <time>2021-10-14T12:17:00Z</time>
      </trkpt>
      <trkpt lat="44.1258" lon="3.24631">
        <ele>621</ele>
        <time>2021-10-14T12:17:02Z</time>
      </trkpt>
      <trkpt lat="44.12581" lon="3.24635">
        <ele>621.5</ele>
        <time>2021-10-14T12:17:04Z</time>
      </trkpt>
      <trkpt lat="44.12582" lon="3.24637">
        <ele>621.7</ele>
        <time>2021-10-14T12:17:05Z</time>
      </trkpt>
      <trkpt lat="44.12584" lon="3.24639">
        <ele>622.1</ele>
        <time>2021-10-14T12:17:06Z</time>
      </trkpt>
      <trkpt lat="44.12586" lon="3.24642">
        <ele>622.5</ele>
        <time>2021-10-14T12:17:08Z</time>
      </trkpt>
      <trkpt lat="44.12588" lon="3.24645">
        <ele>623.1</ele>
        <time>2021-10-14T12:17:09Z</time>
      </trkpt>
      <trkpt lat="44.12589" lon="3.24647">
        <ele>623.3</ele>
        <time>2021-10-14T12:17:10Z</time>
      </trkpt>
      <trkpt lat="44.12593" lon="3.24651">
        <ele>624.2</ele>
        <time>2021-10-14T12:17:12Z</time>
      </trkpt>
      <trkpt lat="44.12595" lon="3.24653">
        <ele>624.6</ele>
        <time>2021-10-14T12:17:14Z</time>
      </trkpt>
      <trkpt lat="44.12596" lon="3.24654">
        <ele>624.9</ele>
        <time>2021-10-14T12:17:15Z</time>
      </trkpt>
      <trkpt lat="44.12598" lon="3.24656">
        <ele>625.2</ele>
        <time>2021-10-14T12:17:16Z</time>
      </trkpt>
      <trkpt lat="44.12601" lon="3.24659">
        <ele>626</ele>
        <time>2021-10-14T12:17:18Z</time>
      </trkpt>
      <trkpt lat="44.12602" lon="3.24661">
        <ele>626.2</ele>
        <time>2021-10-14T12:17:19Z</time>
      </trkpt>
      <trkpt lat="44.12606" lon="3.24663">
        <ele>626.8</ele>
        <time>2021-10-14T12:17:21Z</time>
      </trkpt>
      <trkpt lat="44.12607" lon="3.24663">
        <ele>627</ele>
        <time>2021-10-14T12:17:22Z</time>
      </trkpt>
      <trkpt lat="44.1261" lon="3.24665">
        <ele>627.6</ele>
        <time>2021-10-14T12:17:23Z</time>
      </trkpt>
      <trkpt lat="44.12611" lon="3.24665">
        <ele>627.9</ele>
        <time>2021-10-14T12:17:24Z</time>
      </trkpt>
      <trkpt lat="44.12613" lon="3.24666">
        <ele>628.2</ele>
        <time>2021-10-14T12:17:25Z</time>
      </trkpt>
      <trkpt lat="44.12614" lon="3.24667">
        <ele>628.4</ele>
        <time>2021-10-14T12:17:26Z</time>
      </trkpt>
      <trkpt lat="44.12615" lon="3.24668">
        <ele>628.6</ele>
        <time>2021-10-14T12:17:28Z</time>
      </trkpt>
      <trkpt lat="44.12616" lon="3.2467">
        <ele>628.9</ele>
        <time>2021-10-14T12:17:29Z</time>
      </trkpt>
      <trkpt lat="44.12618" lon="3.24673">
        <ele>629.4</ele>
        <time>2021-10-14T12:17:31Z</time>
      </trkpt>
      <trkpt lat="44.12619" lon="3.24674">
        <ele>629.6</ele>
        <time>2021-10-14T12:17:33Z</time>
      </trkpt>
      <trkpt lat="44.1262" lon="3.24676">
        <ele>629.9</ele>
        <time>2021-10-14T12:17:34Z</time>
      </trkpt>
      <trkpt lat="44.12621" lon="3.24678">
        <ele>630.2</ele>
        <time>2021-10-14T12:17:35Z</time>
      </trkpt>
      <trkpt lat="44.12622" lon="3.24679">
        <ele>630.5</ele>
        <time>2021-10-14T12:17:36Z</time>
      </trkpt>
      <trkpt lat="44.12623" lon="3.24681">
        <ele>630.7</ele>
        <time>2021-10-14T12:17:38Z</time>
      </trkpt>
      <trkpt lat="44.12625" lon="3.24683">
        <ele>631.1</ele>
        <time>2021-10-14T12:17:39Z</time>
      </trkpt>
      <trkpt lat="44.12627" lon="3.24685">
        <ele>631.5</ele>
        <time>2021-10-14T12:17:40Z</time>
      </trkpt>
      <trkpt lat="44.12628" lon="3.24687">
        <ele>631.9</ele>
        <time>2021-10-14T12:17:42Z</time>
      </trkpt>
      <trkpt lat="44.1263" lon="3.24689">
        <ele>632.3</ele>
        <time>2021-10-14T12:17:43Z</time>
      </trkpt>
      <trkpt lat="44.12632" lon="3.24691">
        <ele>632.7</ele>
        <time>2021-10-14T12:17:45Z</time>
      </trkpt>
      <trkpt lat="44.12634" lon="3.24693">
        <ele>633.2</ele>
        <time>2021-10-14T12:17:46Z</time>
      </trkpt>
      <trkpt lat="44.12637" lon="3.24697">
        <ele>634</ele>
        <time>2021-10-14T12:17:48Z</time>
      </trkpt>
      <trkpt lat="44.12638" lon="3.24699">
        <ele>634.3</ele>
        <time>2021-10-14T12:17:50Z</time>
      </trkpt>
      <trkpt lat="44.12639" lon="3.247">
        <ele>634.5</ele>
        <time>2021-10-14T12:17:51Z</time>
      </trkpt>
      <trkpt lat="44.12641" lon="3.24702">
        <ele>635</ele>
        <time>2021-10-14T12:17:52Z</time>
      </trkpt>
      <trkpt lat="44.12643" lon="3.24705">
        <ele>635.5</ele>
        <time>2021-10-14T12:17:54Z</time>
      </trkpt>
      <trkpt lat="44.12645" lon="3.24707">
        <ele>635.9</ele>
        <time>2021-10-14T12:17:55Z</time>
      </trkpt>
      <trkpt lat="44.12646" lon="3.24709">
        <ele>636.2</ele>
        <time>2021-10-14T12:17:57Z</time>
      </trkpt>
      <trkpt lat="44.12646" lon="3.2471">
        <ele>636.3</ele>
        <time>2021-10-14T12:17:58Z</time>
      </trkpt>
      <trkpt lat="44.12648" lon="3.24711">
        <ele>636.6</ele>
        <time>2021-10-14T12:17:59Z</time>
      </trkpt>
      <trkpt lat="44.12648" lon="3.24711">
        <ele>636.7</ele>
        <time>2021-10-14T12:18:01Z</time>
      </trkpt>
      <trkpt lat="44.12649" lon="3.24712">
        <ele>636.9</ele>
        <time>2021-10-14T12:18:02Z</time>
      </trkpt>
      <trkpt lat="44.1265" lon="3.24713">
        <ele>637.2</ele>
        <time>2021-10-14T12:18:03Z</time>
      </trkpt>
      <trkpt lat="44.12651" lon="3.24714">
        <ele>637.4</ele>
        <time>2021-10-14T12:18:04Z</time>
      </trkpt>
      <trkpt lat="44.12653" lon="3.24716">
        <ele>637.7</ele>
        <time>2021-10-14T12:18:06Z</time>
      </trkpt>
      <trkpt lat="44.12653" lon="3.24716">
        <ele>637.9</ele>
        <time>2021-10-14T12:18:07Z</time>
      </trkpt>
      <trkpt lat="44.12654" lon="3.24717">
        <ele>638.1</ele>
        <time>2021-10-14T12:18:08Z</time>
      </trkpt>
      <trkpt lat="44.12657" lon="3.24719">
        <ele>638.6</ele>
        <time>2021-10-14T12:18:09Z</time>
      </trkpt>
      <trkpt lat="44.12657" lon="3.2472">
        <ele>638.8</ele>
        <time>2021-10-14T12:18:10Z</time>
      </trkpt>
      <trkpt lat="44.12658" lon="3.24722">
        <ele>639</ele>
        <time>2021-10-14T12:18:11Z</time>
      </trkpt>
      <trkpt lat="44.1266" lon="3.24723">
        <ele>639.5</ele>
        <time>2021-10-14T12:18:13Z</time>
      </trkpt>
      <trkpt lat="44.12661" lon="3.24728">
        <ele>640.2</ele>
        <time>2021-10-14T12:18:15Z</time>
      </trkpt>
      <trkpt lat="44.12661" lon="3.2473">
        <ele>640.5</ele>
        <time>2021-10-14T12:18:16Z</time>
      </trkpt>
      <trkpt lat="44.12661" lon="3.24734">
        <ele>640.9</ele>
        <time>2021-10-14T12:18:17Z</time>
      </trkpt>
      <trkpt lat="44.12662" lon="3.24738">
        <ele>641.4</ele>
        <time>2021-10-14T12:18:19Z</time>
      </trkpt>
      <trkpt lat="44.12665" lon="3.2474">
        <ele>641.9</ele>
        <time>2021-10-14T12:18:20Z</time>
      </trkpt>
      <trkpt lat="44.12665" lon="3.24742">
        <ele>642.1</ele>
        <time>2021-10-14T12:18:21Z</time>
      </trkpt>
      <trkpt lat="44.12667" lon="3.24742">
        <ele>642.3</ele>
        <time>2021-10-14T12:18:22Z</time>
      </trkpt>
      <trkpt lat="44.1267" lon="3.24743">
        <ele>642.7</ele>
        <time>2021-10-14T12:18:24Z</time>
      </trkpt>
      <trkpt lat="44.12671" lon="3.24744">
        <ele>642.9</ele>
        <time>2021-10-14T12:18:25Z</time>
      </trkpt>
      <trkpt lat="44.12673" lon="3.24745">
        <ele>643.2</ele>
        <time>2021-10-14T12:18:26Z</time>
      </trkpt>
      <trkpt lat="44.12676" lon="3.24746">
        <ele>643.6</ele>
        <time>2021-10-14T12:18:28Z</time>
      </trkpt>
      <trkpt lat="44.12677" lon="3.24748">
        <ele>643.9</ele>
        <time>2021-10-14T12:18:29Z</time>
      </trkpt>
      <trkpt lat="44.12679" lon="3.24749">
        <ele>644.2</ele>
        <time>2021-10-14T12:18:30Z</time>
      </trkpt>
      <trkpt lat="44.12683" lon="3.24751">
        <ele>644.8</ele>
        <time>2021-10-14T12:18:32Z</time>
      </trkpt>
      <trkpt lat="44.12687" lon="3.24752">
        <ele>645.5</ele>
        <time>2021-10-14T12:18:33Z</time>
      </trkpt>
      <trkpt lat="44.1269" lon="3.24753">
        <ele>645.9</ele>
        <time>2021-10-14T12:18:34Z</time>
      </trkpt>
      <trkpt lat="44.12692" lon="3.24755">
        <ele>646.5</ele>
        <time>2021-10-14T12:18:35Z</time>
      </trkpt>
      <trkpt lat="44.12693" lon="3.24756">
        <ele>646.6</ele>
        <time>2021-10-14T12:18:36Z</time>
      </trkpt>
      <trkpt lat="44.12696" lon="3.24758">
        <ele>647.1</ele>
        <time>2021-10-14T12:18:38Z</time>
      </trkpt>
      <trkpt lat="44.12697" lon="3.24759">
        <ele>647.5</ele>
        <time>2021-10-14T12:18:39Z</time>
      </trkpt>
      <trkpt lat="44.12699" lon="3.24762">
        <ele>647.8</ele>
        <time>2021-10-14T12:18:41Z</time>
      </trkpt>
      <trkpt lat="44.127" lon="3.24765">
        <ele>648.3</ele>
        <time>2021-10-14T12:18:42Z</time>
      </trkpt>
      <trkpt lat="44.12701" lon="3.24766">
        <ele>648.5</ele>
        <time>2021-10-14T12:18:43Z</time>
      </trkpt>
      <trkpt lat="44.12702" lon="3.2477">
        <ele>649</ele>
        <time>2021-10-14T12:18:44Z</time>
      </trkpt>
      <trkpt lat="44.12702" lon="3.24772">
        <ele>649.3</ele>
        <time>2021-10-14T12:18:45Z</time>
      </trkpt>
      <trkpt lat="44.12704" lon="3.24775">
        <ele>649.8</ele>
        <time>2021-10-14T12:18:47Z</time>
      </trkpt>
      <trkpt lat="44.12705" lon="3.24779">
        <ele>650.5</ele>
        <time>2021-10-14T12:18:48Z</time>
      </trkpt>
      <trkpt lat="44.12706" lon="3.2478">
        <ele>650.7</ele>
        <time>2021-10-14T12:18:49Z</time>
      </trkpt>
      <trkpt lat="44.12707" lon="3.24783">
        <ele>651.1</ele>
        <time>2021-10-14T12:18:50Z</time>
      </trkpt>
      <trkpt lat="44.12708" lon="3.24784">
        <ele>651.4</ele>
        <time>2021-10-14T12:18:52Z</time>
      </trkpt>
      <trkpt lat="44.1271" lon="3.24787">
        <ele>652</ele>
        <time>2021-10-14T12:18:53Z</time>
      </trkpt>
      <trkpt lat="44.12711" lon="3.24789">
        <ele>652.3</ele>
        <time>2021-10-14T12:18:54Z</time>
      </trkpt>
      <trkpt lat="44.12713" lon="3.24792">
        <ele>653</ele>
        <time>2021-10-14T12:18:56Z</time>
      </trkpt>
      <trkpt lat="44.12715" lon="3.24794">
        <ele>653.4</ele>
        <time>2021-10-14T12:18:57Z</time>
      </trkpt>
      <trkpt lat="44.12716" lon="3.24796">
        <ele>653.8</ele>
        <time>2021-10-14T12:18:59Z</time>
      </trkpt>
      <trkpt lat="44.12719" lon="3.24798">
        <ele>654.5</ele>
        <time>2021-10-14T12:19:01Z</time>
      </trkpt>
      <trkpt lat="44.1272" lon="3.24799">
        <ele>654.7</ele>
        <time>2021-10-14T12:19:02Z</time>
      </trkpt>
      <trkpt lat="44.12721" lon="3.248">
        <ele>655</ele>
        <time>2021-10-14T12:19:03Z</time>
      </trkpt>
      <trkpt lat="44.12722" lon="3.24801">
        <ele>655.3</ele>
        <time>2021-10-14T12:19:04Z</time>
      </trkpt>
      <trkpt lat="44.12724" lon="3.24801">
        <ele>655.6</ele>
        <time>2021-10-14T12:19:05Z</time>
      </trkpt>
      <trkpt lat="44.12726" lon="3.24802">
        <ele>656</ele>
        <time>2021-10-14T12:19:07Z</time>
      </trkpt>
      <trkpt lat="44.12727" lon="3.24802">
        <ele>656.3</ele>
        <time>2021-10-14T12:19:08Z</time>
      </trkpt>
      <trkpt lat="44.12729" lon="3.24803">
        <ele>656.6</ele>
        <time>2021-10-14T12:19:09Z</time>
      </trkpt>
      <trkpt lat="44.12732" lon="3.24804">
        <ele>657.2</ele>
        <time>2021-10-14T12:19:11Z</time>
      </trkpt>
      <trkpt lat="44.12733" lon="3.24804">
        <ele>657.3</ele>
        <time>2021-10-14T12:19:12Z</time>
      </trkpt>
      <trkpt lat="44.12734" lon="3.24805">
        <ele>657.6</ele>
        <time>2021-10-14T12:19:13Z</time>
      </trkpt>
      <trkpt lat="44.12736" lon="3.24805">
        <ele>657.8</ele>
        <time>2021-10-14T12:19:14Z</time>
      </trkpt>
      <trkpt lat="44.12737" lon="3.24806">
        <ele>658.1</ele>
        <time>2021-10-14T12:19:15Z</time>
      </trkpt>
      <trkpt lat="44.12739" lon="3.24806">
        <ele>658.4</ele>
        <time>2021-10-14T12:19:16Z</time>
      </trkpt>
      <trkpt lat="44.12741" lon="3.24807">
        <ele>658.7</ele>
        <time>2021-10-14T12:19:17Z</time>
      </trkpt>
      <trkpt lat="44.12743" lon="3.24808">
        <ele>659.2</ele>
        <time>2021-10-14T12:19:19Z</time>
      </trkpt>
      <trkpt lat="44.12746" lon="3.2481">
        <ele>659.7</ele>
        <time>2021-10-14T12:19:20Z</time>
      </trkpt>
      <trkpt lat="44.12746" lon="3.24811">
        <ele>659.8</ele>
        <time>2021-10-14T12:19:21Z</time>
      </trkpt>
      <trkpt lat="44.12748" lon="3.24812">
        <ele>660.1</ele>
        <time>2021-10-14T12:19:22Z</time>
      </trkpt>
      <trkpt lat="44.1275" lon="3.24814">
        <ele>660.5</ele>
        <time>2021-10-14T12:19:24Z</time>
      </trkpt>
      <trkpt lat="44.12752" lon="3.24816">
        <ele>661</ele>
        <time>2021-10-14T12:19:25Z</time>
      </trkpt>
      <trkpt lat="44.12754" lon="3.24816">
        <ele>661.3</ele>
        <time>2021-10-14T12:19:26Z</time>
      </trkpt>
      <trkpt lat="44.12755" lon="3.24817">
        <ele>661.5</ele>
        <time>2021-10-14T12:19:27Z</time>
      </trkpt>
      <trkpt lat="44.12757" lon="3.24817">
        <ele>661.8</ele>
        <time>2021-10-14T12:19:28Z</time>
      </trkpt>
      <trkpt lat="44.12759" lon="3.24818">
        <ele>662.2</ele>
        <time>2021-10-14T12:19:30Z</time>
      </trkpt>
      <trkpt lat="44.12762" lon="3.24818">
        <ele>662.9</ele>
        <time>2021-10-14T12:19:32Z</time>
      </trkpt>
      <trkpt lat="44.12764" lon="3.24818">
        <ele>663.1</ele>
        <time>2021-10-14T12:19:33Z</time>
      </trkpt>
      <trkpt lat="44.12765" lon="3.24819">
        <ele>663.4</ele>
        <time>2021-10-14T12:19:34Z</time>
      </trkpt>
      <trkpt lat="44.12768" lon="3.2482">
        <ele>663.9</ele>
        <time>2021-10-14T12:19:36Z</time>
      </trkpt>
      <trkpt lat="44.1277" lon="3.24822">
        <ele>664.4</ele>
        <time>2021-10-14T12:19:37Z</time>
      </trkpt>
      <trkpt lat="44.12771" lon="3.24823">
        <ele>664.7</ele>
        <time>2021-10-14T12:19:38Z</time>
      </trkpt>
      <trkpt lat="44.12773" lon="3.24824">
        <ele>665</ele>
        <time>2021-10-14T12:19:39Z</time>
      </trkpt>
      <trkpt lat="44.12774" lon="3.24824">
        <ele>665.1</ele>
        <time>2021-10-14T12:19:40Z</time>
      </trkpt>
      <trkpt lat="44.12775" lon="3.24823">
        <ele>665.2</ele>
        <time>2021-10-14T12:19:42Z</time>
      </trkpt>
      <trkpt lat="44.12776" lon="3.24823">
        <ele>665.4</ele>
        <time>2021-10-14T12:19:43Z</time>
      </trkpt>
      <trkpt lat="44.1278" lon="3.24822">
        <ele>665.7</ele>
        <time>2021-10-14T12:19:45Z</time>
      </trkpt>
      <trkpt lat="44.12781" lon="3.24822">
        <ele>665.7</ele>
        <time>2021-10-14T12:19:46Z</time>
      </trkpt>
      <trkpt lat="44.12783" lon="3.24822">
        <ele>665.9</ele>
        <time>2021-10-14T12:19:47Z</time>
      </trkpt>
      <trkpt lat="44.12784" lon="3.24822">
        <ele>666</ele>
        <time>2021-10-14T12:19:48Z</time>
      </trkpt>
      <trkpt lat="44.12786" lon="3.24822">
        <ele>666.1</ele>
        <time>2021-10-14T12:19:50Z</time>
      </trkpt>
      <trkpt lat="44.12787" lon="3.24822">
        <ele>666.2</ele>
        <time>2021-10-14T12:19:51Z</time>
      </trkpt>
      <trkpt lat="44.12789" lon="3.24822">
        <ele>666.3</ele>
        <time>2021-10-14T12:19:52Z</time>
      </trkpt>
      <trkpt lat="44.12791" lon="3.24822">
        <ele>666.4</ele>
        <time>2021-10-14T12:19:53Z</time>
      </trkpt>
      <trkpt lat="44.12794" lon="3.24823">
        <ele>666.6</ele>
        <time>2021-10-14T12:19:54Z</time>
      </trkpt>
      <trkpt lat="44.12795" lon="3.24824">
        <ele>666.7</ele>
        <time>2021-10-14T12:19:55Z</time>
      </trkpt>
      <trkpt lat="44.12797" lon="3.24825">
        <ele>666.9</ele>
        <time>2021-10-14T12:19:56Z</time>
      </trkpt>
      <trkpt lat="44.12799" lon="3.24826">
        <ele>667</ele>
        <time>2021-10-14T12:19:58Z</time>
      </trkpt>
      <trkpt lat="44.12802" lon="3.24828">
        <ele>667.3</ele>
        <time>2021-10-14T12:19:59Z</time>
      </trkpt>
      <trkpt lat="44.12803" lon="3.24828">
        <ele>667.4</ele>
        <time>2021-10-14T12:20:00Z</time>
      </trkpt>
      <trkpt lat="44.12804" lon="3.2483">
        <ele>667.6</ele>
        <time>2021-10-14T12:20:01Z</time>
      </trkpt>
      <trkpt lat="44.12806" lon="3.2483">
        <ele>667.8</ele>
        <time>2021-10-14T12:20:03Z</time>
      </trkpt>
      <trkpt lat="44.12808" lon="3.24831">
        <ele>668</ele>
        <time>2021-10-14T12:20:04Z</time>
      </trkpt>
      <trkpt lat="44.12811" lon="3.24832">
        <ele>668.3</ele>
        <time>2021-10-14T12:20:06Z</time>
      </trkpt>
      <trkpt lat="44.12813" lon="3.24832">
        <ele>668.4</ele>
        <time>2021-10-14T12:20:07Z</time>
      </trkpt>
      <trkpt lat="44.12815" lon="3.24833">
        <ele>668.7</ele>
        <time>2021-10-14T12:20:09Z</time>
      </trkpt>
      <trkpt lat="44.12817" lon="3.24833">
        <ele>668.9</ele>
        <time>2021-10-14T12:20:10Z</time>
      </trkpt>
      <trkpt lat="44.12819" lon="3.24833">
        <ele>669.1</ele>
        <time>2021-10-14T12:20:12Z</time>
      </trkpt>
      <trkpt lat="44.12821" lon="3.24833">
        <ele>669.2</ele>
        <time>2021-10-14T12:20:13Z</time>
      </trkpt>
      <trkpt lat="44.12822" lon="3.24833">
        <ele>669.3</ele>
        <time>2021-10-14T12:20:14Z</time>
      </trkpt>
      <trkpt lat="44.12823" lon="3.24832">
        <ele>669.4</ele>
        <time>2021-10-14T12:20:15Z</time>
      </trkpt>
      <trkpt lat="44.12826" lon="3.24832">
        <ele>669.6</ele>
        <time>2021-10-14T12:20:17Z</time>
      </trkpt>
      <trkpt lat="44.12827" lon="3.24832">
        <ele>669.7</ele>
        <time>2021-10-14T12:20:18Z</time>
      </trkpt>
      <trkpt lat="44.12828" lon="3.24831">
        <ele>669.8</ele>
        <time>2021-10-14T12:20:19Z</time>
      </trkpt>
      <trkpt lat="44.12829" lon="3.24831">
        <ele>669.9</ele>
        <time>2021-10-14T12:20:20Z</time>
      </trkpt>
      <trkpt lat="44.12831" lon="3.2483">
        <ele>670.1</ele>
        <time>2021-10-14T12:20:22Z</time>
      </trkpt>
      <trkpt lat="44.12832" lon="3.24829">
        <ele>670.2</ele>
        <time>2021-10-14T12:20:23Z</time>
      </trkpt>
      <trkpt lat="44.12834" lon="3.24829">
        <ele>670.4</ele>
        <time>2021-10-14T12:20:25Z</time>
      </trkpt>
      <trkpt lat="44.12836" lon="3.24828">
        <ele>670.5</ele>
        <time>2021-10-14T12:20:26Z</time>
      </trkpt>
      <trkpt lat="44.12837" lon="3.24828">
        <ele>670.7</ele>
        <time>2021-10-14T12:20:27Z</time>
      </trkpt>
      <trkpt lat="44.12839" lon="3.24828">
        <ele>670.8</ele>
        <time>2021-10-14T12:20:28Z</time>
      </trkpt>
      <trkpt lat="44.12842" lon="3.24828">
        <ele>671.1</ele>
        <time>2021-10-14T12:20:30Z</time>
      </trkpt>
      <trkpt lat="44.12843" lon="3.24828">
        <ele>671.2</ele>
        <time>2021-10-14T12:20:31Z</time>
      </trkpt>
      <trkpt lat="44.12844" lon="3.24828">
        <ele>671.3</ele>
        <time>2021-10-14T12:20:32Z</time>
      </trkpt>
      <trkpt lat="44.12845" lon="3.24828">
        <ele>671.4</ele>
        <time>2021-10-14T12:20:33Z</time>
      </trkpt>
      <trkpt lat="44.12847" lon="3.24828">
        <ele>671.6</ele>
        <time>2021-10-14T12:20:35Z</time>
      </trkpt>
      <trkpt lat="44.12849" lon="3.24828">
        <ele>671.8</ele>
        <time>2021-10-14T12:20:36Z</time>
      </trkpt>
      <trkpt lat="44.12851" lon="3.24828">
        <ele>672</ele>
        <time>2021-10-14T12:20:37Z</time>
      </trkpt>
      <trkpt lat="44.12852" lon="3.24829">
        <ele>672.1</ele>
        <time>2021-10-14T12:20:39Z</time>
      </trkpt>
      <trkpt lat="44.12854" lon="3.24829">
        <ele>672.3</ele>
        <time>2021-10-14T12:20:40Z</time>
      </trkpt>
      <trkpt lat="44.12855" lon="3.24829">
        <ele>672.4</ele>
        <time>2021-10-14T12:20:41Z</time>
      </trkpt>
      <trkpt lat="44.12857" lon="3.24829">
        <ele>672.6</ele>
        <time>2021-10-14T12:20:43Z</time>
      </trkpt>
      <trkpt lat="44.12859" lon="3.24828">
        <ele>672.8</ele>
        <time>2021-10-14T12:20:44Z</time>
      </trkpt>
      <trkpt lat="44.1286" lon="3.24828">
        <ele>672.9</ele>
        <time>2021-10-14T12:20:45Z</time>
      </trkpt>
      <trkpt lat="44.12862" lon="3.24827">
        <ele>673.1</ele>
        <time>2021-10-14T12:20:47Z</time>
      </trkpt>
      <trkpt lat="44.12864" lon="3.24826">
        <ele>673.4</ele>
        <time>2021-10-14T12:20:48Z</time>
      </trkpt>
      <trkpt lat="44.12866" lon="3.24825">
        <ele>673.6</ele>
        <time>2021-10-14T12:20:50Z</time>
      </trkpt>
      <trkpt lat="44.12869" lon="3.24824">
        <ele>673.9</ele>
        <time>2021-10-14T12:20:51Z</time>
      </trkpt>
      <trkpt lat="44.12871" lon="3.24824">
        <ele>674.1</ele>
        <time>2021-10-14T12:20:53Z</time>
      </trkpt>
      <trkpt lat="44.12874" lon="3.24823">
        <ele>674.4</ele>
        <time>2021-10-14T12:20:54Z</time>
      </trkpt>
      <trkpt lat="44.12875" lon="3.24823">
        <ele>674.6</ele>
        <time>2021-10-14T12:20:55Z</time>
      </trkpt>
      <trkpt lat="44.12878" lon="3.24823">
        <ele>674.9</ele>
        <time>2021-10-14T12:20:57Z</time>
      </trkpt>
      <trkpt lat="44.12879" lon="3.24823">
        <ele>675</ele>
        <time>2021-10-14T12:20:58Z</time>
      </trkpt>
      <trkpt lat="44.12882" lon="3.24823">
        <ele>675.3</ele>
        <time>2021-10-14T12:20:59Z</time>
      </trkpt>
      <trkpt lat="44.12883" lon="3.24823">
        <ele>675.4</ele>
        <time>2021-10-14T12:21:00Z</time>
      </trkpt>
      <trkpt lat="44.12884" lon="3.24823">
        <ele>675.6</ele>
        <time>2021-10-14T12:21:01Z</time>
      </trkpt>
      <trkpt lat="44.12886" lon="3.24823">
        <ele>675.8</ele>
        <time>2021-10-14T12:21:02Z</time>
      </trkpt>
      <trkpt lat="44.12888" lon="3.24822">
        <ele>675.9</ele>
        <time>2021-10-14T12:21:03Z</time>
      </trkpt>
      <trkpt lat="44.12889" lon="3.24821">
        <ele>676.2</ele>
        <time>2021-10-14T12:21:05Z</time>
      </trkpt>
      <trkpt lat="44.12892" lon="3.24819">
        <ele>676.5</ele>
        <time>2021-10-14T12:21:06Z</time>
      </trkpt>
      <trkpt lat="44.12893" lon="3.24819">
        <ele>676.5</ele>
        <time>2021-10-14T12:21:07Z</time>
      </trkpt>
      <trkpt lat="44.12894" lon="3.24818">
        <ele>676.7</ele>
        <time>2021-10-14T12:21:08Z</time>
      </trkpt>
      <trkpt lat="44.12896" lon="3.24817">
        <ele>676.9</ele>
        <time>2021-10-14T12:21:10Z</time>
      </trkpt>
      <trkpt lat="44.12897" lon="3.24816">
        <ele>677.1</ele>
        <time>2021-10-14T12:21:11Z</time>
      </trkpt>
      <trkpt lat="44.12898" lon="3.24815">
        <ele>677.2</ele>
        <time>2021-10-14T12:21:12Z</time>
      </trkpt>
      <trkpt lat="44.129" lon="3.24814">
        <ele>677.4</ele>
        <time>2021-10-14T12:21:14Z</time>
      </trkpt>
      <trkpt lat="44.12901" lon="3.24812">
        <ele>677.5</ele>
        <time>2021-10-14T12:21:15Z</time>
      </trkpt>
      <trkpt lat="44.12902" lon="3.24811">
        <ele>677.8</ele>
        <time>2021-10-14T12:21:17Z</time>
      </trkpt>
      <trkpt lat="44.12903" lon="3.2481">
        <ele>677.9</ele>
        <time>2021-10-14T12:21:18Z</time>
      </trkpt>
      <trkpt lat="44.12904" lon="3.2481">
        <ele>678</ele>
        <time>2021-10-14T12:21:19Z</time>
      </trkpt>
      <trkpt lat="44.12907" lon="3.24809">
        <ele>678.3</ele>
        <time>2021-10-14T12:21:21Z</time>
      </trkpt>
      <trkpt lat="44.12908" lon="3.24809">
        <ele>678.4</ele>
        <time>2021-10-14T12:21:22Z</time>
      </trkpt>
      <trkpt lat="44.12911" lon="3.24808">
        <ele>678.7</ele>
        <time>2021-10-14T12:21:24Z</time>
      </trkpt>
      <trkpt lat="44.12912" lon="3.24808">
        <ele>678.8</ele>
        <time>2021-10-14T12:21:25Z</time>
      </trkpt>
      <trkpt lat="44.12913" lon="3.24807">
        <ele>679</ele>
        <time>2021-10-14T12:21:26Z</time>
      </trkpt>
      <trkpt lat="44.12915" lon="3.24806">
        <ele>679.1</ele>
        <time>2021-10-14T12:21:28Z</time>
      </trkpt>
      <trkpt lat="44.12917" lon="3.24805">
        <ele>679.4</ele>
        <time>2021-10-14T12:21:30Z</time>
      </trkpt>
      <trkpt lat="44.12918" lon="3.24804">
        <ele>679.5</ele>
        <time>2021-10-14T12:21:31Z</time>
      </trkpt>
      <trkpt lat="44.12919" lon="3.24804">
        <ele>679.6</ele>
        <time>2021-10-14T12:21:33Z</time>
      </trkpt>
      <trkpt lat="44.12921" lon="3.24803">
        <ele>679.7</ele>
        <time>2021-10-14T12:21:34Z</time>
      </trkpt>
      <trkpt lat="44.12923" lon="3.24803">
        <ele>679.9</ele>
        <time>2021-10-14T12:21:36Z</time>
      </trkpt>
      <trkpt lat="44.12924" lon="3.24803">
        <ele>680</ele>
        <time>2021-10-14T12:21:37Z</time>
      </trkpt>
      <trkpt lat="44.12925" lon="3.24803">
        <ele>680.1</ele>
        <time>2021-10-14T12:21:38Z</time>
      </trkpt>
      <trkpt lat="44.12926" lon="3.24804">
        <ele>680.2</ele>
        <time>2021-10-14T12:21:40Z</time>
      </trkpt>
      <trkpt lat="44.12927" lon="3.24804">
        <ele>680.3</ele>
        <time>2021-10-14T12:21:41Z</time>
      </trkpt>
      <trkpt lat="44.12929" lon="3.24805">
        <ele>680.4</ele>
        <time>2021-10-14T12:21:43Z</time>
      </trkpt>
      <trkpt lat="44.12931" lon="3.24806">
        <ele>680.5</ele>
        <time>2021-10-14T12:21:44Z</time>
      </trkpt>
      <trkpt lat="44.12932" lon="3.24807">
        <ele>680.6</ele>
        <time>2021-10-14T12:21:45Z</time>
      </trkpt>
      <trkpt lat="44.12933" lon="3.24808">
        <ele>680.7</ele>
        <time>2021-10-14T12:21:46Z</time>
      </trkpt>
      <trkpt lat="44.12934" lon="3.24808">
        <ele>680.8</ele>
        <time>2021-10-14T12:21:47Z</time>
      </trkpt>
      <trkpt lat="44.12935" lon="3.24809">
        <ele>680.8</ele>
        <time>2021-10-14T12:21:49Z</time>
      </trkpt>
      <trkpt lat="44.12937" lon="3.24811">
        <ele>681</ele>
        <time>2021-10-14T12:21:50Z</time>
      </trkpt>
      <trkpt lat="44.12938" lon="3.24811">
        <ele>681.1</ele>
        <time>2021-10-14T12:21:51Z</time>
      </trkpt>
      <trkpt lat="44.1294" lon="3.24812">
        <ele>681.2</ele>
        <time>2021-10-14T12:21:52Z</time>
      </trkpt>
      <trkpt lat="44.12942" lon="3.24813">
        <ele>681.3</ele>
        <time>2021-10-14T12:21:53Z</time>
      </trkpt>
      <trkpt lat="44.12943" lon="3.24813">
        <ele>681.4</ele>
        <time>2021-10-14T12:21:55Z</time>
      </trkpt>
      <trkpt lat="44.12944" lon="3.24813">
        <ele>681.4</ele>
        <time>2021-10-14T12:21:56Z</time>
      </trkpt>
      <trkpt lat="44.12946" lon="3.24813">
        <ele>681.6</ele>
        <time>2021-10-14T12:21:58Z</time>
      </trkpt>
      <trkpt lat="44.12948" lon="3.24813">
        <ele>681.7</ele>
        <time>2021-10-14T12:22:00Z</time>
      </trkpt>
      <trkpt lat="44.12949" lon="3.24813">
        <ele>681.9</ele>
        <time>2021-10-14T12:22:01Z</time>
      </trkpt>
      <trkpt lat="44.12951" lon="3.24812">
        <ele>682</ele>
        <time>2021-10-14T12:22:02Z</time>
      </trkpt>
      <trkpt lat="44.12952" lon="3.24811">
        <ele>682.1</ele>
        <time>2021-10-14T12:22:03Z</time>
      </trkpt>
      <trkpt lat="44.12954" lon="3.24811">
        <ele>682.3</ele>
        <time>2021-10-14T12:22:05Z</time>
      </trkpt>
      <trkpt lat="44.12956" lon="3.24811">
        <ele>682.4</ele>
        <time>2021-10-14T12:22:06Z</time>
      </trkpt>
      <trkpt lat="44.12957" lon="3.24811">
        <ele>682.6</ele>
        <time>2021-10-14T12:22:07Z</time>
      </trkpt>
      <trkpt lat="44.1296" lon="3.24811">
        <ele>682.8</ele>
        <time>2021-10-14T12:22:09Z</time>
      </trkpt>
      <trkpt lat="44.12961" lon="3.24811">
        <ele>682.9</ele>
        <time>2021-10-14T12:22:10Z</time>
      </trkpt>
      <trkpt lat="44.12962" lon="3.24811">
        <ele>683.1</ele>
        <time>2021-10-14T12:22:11Z</time>
      </trkpt>
      <trkpt lat="44.12964" lon="3.24811">
        <ele>683.3</ele>
        <time>2021-10-14T12:22:12Z</time>
      </trkpt>
      <trkpt lat="44.12968" lon="3.24811">
        <ele>683.7</ele>
        <time>2021-10-14T12:22:14Z</time>
      </trkpt>
      <trkpt lat="44.12969" lon="3.24811">
        <ele>683.8</ele>
        <time>2021-10-14T12:22:15Z</time>
      </trkpt>
      <trkpt lat="44.12971" lon="3.24811">
        <ele>684</ele>
        <time>2021-10-14T12:22:16Z</time>
      </trkpt>
      <trkpt lat="44.12973" lon="3.24811">
        <ele>684.3</ele>
        <time>2021-10-14T12:22:18Z</time>
      </trkpt>
      <trkpt lat="44.12975" lon="3.24811">
        <ele>684.5</ele>
        <time>2021-10-14T12:22:19Z</time>
      </trkpt>
      <trkpt lat="44.12976" lon="3.24811">
        <ele>684.7</ele>
        <time>2021-10-14T12:22:20Z</time>
      </trkpt>
      <trkpt lat="44.12979" lon="3.2481">
        <ele>685</ele>
        <time>2021-10-14T12:22:22Z</time>
      </trkpt>
      <trkpt lat="44.1298" lon="3.2481">
        <ele>685.2</ele>
        <time>2021-10-14T12:22:23Z</time>
      </trkpt>
      <trkpt lat="44.12982" lon="3.24809">
        <ele>685.4</ele>
        <time>2021-10-14T12:22:24Z</time>
      </trkpt>
      <trkpt lat="44.12983" lon="3.24809">
        <ele>685.5</ele>
        <time>2021-10-14T12:22:25Z</time>
      </trkpt>
      <trkpt lat="44.12986" lon="3.24808">
        <ele>685.9</ele>
        <time>2021-10-14T12:22:26Z</time>
      </trkpt>
      <trkpt lat="44.12988" lon="3.24807">
        <ele>686</ele>
        <time>2021-10-14T12:22:28Z</time>
      </trkpt>
      <trkpt lat="44.12989" lon="3.24807">
        <ele>686.2</ele>
        <time>2021-10-14T12:22:29Z</time>
      </trkpt>
      <trkpt lat="44.1299" lon="3.24806">
        <ele>686.3</ele>
        <time>2021-10-14T12:22:30Z</time>
      </trkpt>
      <trkpt lat="44.12993" lon="3.24805">
        <ele>686.7</ele>
        <time>2021-10-14T12:22:32Z</time>
      </trkpt>
      <trkpt lat="44.12994" lon="3.24805">
        <ele>686.8</ele>
        <time>2021-10-14T12:22:33Z</time>
      </trkpt>
      <trkpt lat="44.12997" lon="3.24803">
        <ele>687.2</ele>
        <time>2021-10-14T12:22:35Z</time>
      </trkpt>
      <trkpt lat="44.12998" lon="3.24802">
        <ele>687.4</ele>
        <time>2021-10-14T12:22:36Z</time>
      </trkpt>
      <trkpt lat="44.13" lon="3.24802">
        <ele>687.6</ele>
        <time>2021-10-14T12:22:37Z</time>
      </trkpt>
      <trkpt lat="44.13002" lon="3.248">
        <ele>687.8</ele>
        <time>2021-10-14T12:22:39Z</time>
      </trkpt>
      <trkpt lat="44.13005" lon="3.24799">
        <ele>688.2</ele>
        <time>2021-10-14T12:22:40Z</time>
      </trkpt>
      <trkpt lat="44.13005" lon="3.24799">
        <ele>688.3</ele>
        <time>2021-10-14T12:22:41Z</time>
      </trkpt>
      <trkpt lat="44.13007" lon="3.24799">
        <ele>688.5</ele>
        <time>2021-10-14T12:22:43Z</time>
      </trkpt>
      <trkpt lat="44.13008" lon="3.24799">
        <ele>688.7</ele>
        <time>2021-10-14T12:22:44Z</time>
      </trkpt>
      <trkpt lat="44.1301" lon="3.24798">
        <ele>688.9</ele>
        <time>2021-10-14T12:22:45Z</time>
      </trkpt>
      <trkpt lat="44.13012" lon="3.24797">
        <ele>689.2</ele>
        <time>2021-10-14T12:22:47Z</time>
      </trkpt>
      <trkpt lat="44.13015" lon="3.24796">
        <ele>689.5</ele>
        <time>2021-10-14T12:22:48Z</time>
      </trkpt>
      <trkpt lat="44.13015" lon="3.24795">
        <ele>689.6</ele>
        <time>2021-10-14T12:22:49Z</time>
      </trkpt>
      <trkpt lat="44.13017" lon="3.24794">
        <ele>689.9</ele>
        <time>2021-10-14T12:22:51Z</time>
      </trkpt>
      <trkpt lat="44.13018" lon="3.24793">
        <ele>690.1</ele>
        <time>2021-10-14T12:22:52Z</time>
      </trkpt>
      <trkpt lat="44.1302" lon="3.24792">
        <ele>690.3</ele>
        <time>2021-10-14T12:22:53Z</time>
      </trkpt>
      <trkpt lat="44.13022" lon="3.24791">
        <ele>690.5</ele>
        <time>2021-10-14T12:22:55Z</time>
      </trkpt>
      <trkpt lat="44.13024" lon="3.2479">
        <ele>690.8</ele>
        <time>2021-10-14T12:22:56Z</time>
      </trkpt>
      <trkpt lat="44.13025" lon="3.2479">
        <ele>690.9</ele>
        <time>2021-10-14T12:22:57Z</time>
      </trkpt>
      <trkpt lat="44.13027" lon="3.24789">
        <ele>691.2</ele>
        <time>2021-10-14T12:22:58Z</time>
      </trkpt>
      <trkpt lat="44.13028" lon="3.2479">
        <ele>691.3</ele>
        <time>2021-10-14T12:23:00Z</time>
      </trkpt>
      <trkpt lat="44.13029" lon="3.2479">
        <ele>691.4</ele>
        <time>2021-10-14T12:23:01Z</time>
      </trkpt>
      <trkpt lat="44.1303" lon="3.2479">
        <ele>691.6</ele>
        <time>2021-10-14T12:23:02Z</time>
      </trkpt>
      <trkpt lat="44.13032" lon="3.2479">
        <ele>691.7</ele>
        <time>2021-10-14T12:23:03Z</time>
      </trkpt>
      <trkpt lat="44.13034" lon="3.24791">
        <ele>692.1</ele>
        <time>2021-10-14T12:23:05Z</time>
      </trkpt>
      <trkpt lat="44.13035" lon="3.24792">
        <ele>692.2</ele>
        <time>2021-10-14T12:23:06Z</time>
      </trkpt>
      <trkpt lat="44.13036" lon="3.24792">
        <ele>692.3</ele>
        <time>2021-10-14T12:23:07Z</time>
      </trkpt>
      <trkpt lat="44.13037" lon="3.24792">
        <ele>692.5</ele>
        <time>2021-10-14T12:23:09Z</time>
      </trkpt>
      <trkpt lat="44.13039" lon="3.24792">
        <ele>692.6</ele>
        <time>2021-10-14T12:23:10Z</time>
      </trkpt>
      <trkpt lat="44.13039" lon="3.24792">
        <ele>692.7</ele>
        <time>2021-10-14T12:23:11Z</time>
      </trkpt>
      <trkpt lat="44.13041" lon="3.24792">
        <ele>692.8</ele>
        <time>2021-10-14T12:23:13Z</time>
      </trkpt>
      <trkpt lat="44.13042" lon="3.24792">
        <ele>692.9</ele>
        <time>2021-10-14T12:23:14Z</time>
      </trkpt>
      <trkpt lat="44.13043" lon="3.24792">
        <ele>693.1</ele>
        <time>2021-10-14T12:23:15Z</time>
      </trkpt>
      <trkpt lat="44.13044" lon="3.24792">
        <ele>693.2</ele>
        <time>2021-10-14T12:23:17Z</time>
      </trkpt>
      <trkpt lat="44.13045" lon="3.24793">
        <ele>693.3</ele>
        <time>2021-10-14T12:23:18Z</time>
      </trkpt>
      <trkpt lat="44.13046" lon="3.24794">
        <ele>693.4</ele>
        <time>2021-10-14T12:23:19Z</time>
      </trkpt>
      <trkpt lat="44.13047" lon="3.24796">
        <ele>693.7</ele>
        <time>2021-10-14T12:23:21Z</time>
      </trkpt>
      <trkpt lat="44.13049" lon="3.24798">
        <ele>693.9</ele>
        <time>2021-10-14T12:23:23Z</time>
      </trkpt>
      <trkpt lat="44.13049" lon="3.248">
        <ele>694.1</ele>
        <time>2021-10-14T12:23:24Z</time>
      </trkpt>
      <trkpt lat="44.1305" lon="3.248">
        <ele>694.2</ele>
        <time>2021-10-14T12:23:25Z</time>
      </trkpt>
      <trkpt lat="44.13051" lon="3.24801">
        <ele>694.4</ele>
        <time>2021-10-14T12:23:27Z</time>
      </trkpt>
      <trkpt lat="44.13052" lon="3.24802">
        <ele>694.5</ele>
        <time>2021-10-14T12:23:28Z</time>
      </trkpt>
      <trkpt lat="44.13053" lon="3.24803">
        <ele>694.6</ele>
        <time>2021-10-14T12:23:30Z</time>
      </trkpt>
      <trkpt lat="44.13054" lon="3.24804">
        <ele>694.8</ele>
        <time>2021-10-14T12:23:31Z</time>
      </trkpt>
      <trkpt lat="44.13055" lon="3.24805">
        <ele>695</ele>
        <time>2021-10-14T12:23:33Z</time>
      </trkpt>
      <trkpt lat="44.13057" lon="3.24807">
        <ele>695.3</ele>
        <time>2021-10-14T12:23:34Z</time>
      </trkpt>
      <trkpt lat="44.13058" lon="3.24807">
        <ele>695.4</ele>
        <time>2021-10-14T12:23:36Z</time>
      </trkpt>
      <trkpt lat="44.13059" lon="3.24808">
        <ele>695.5</ele>
        <time>2021-10-14T12:23:37Z</time>
      </trkpt>
      <trkpt lat="44.1306" lon="3.24809">
        <ele>695.7</ele>
        <time>2021-10-14T12:23:38Z</time>
      </trkpt>
      <trkpt lat="44.1306" lon="3.2481">
        <ele>695.8</ele>
        <time>2021-10-14T12:23:39Z</time>
      </trkpt>
      <trkpt lat="44.13061" lon="3.24811">
        <ele>695.9</ele>
        <time>2021-10-14T12:23:40Z</time>
      </trkpt>
      <trkpt lat="44.13064" lon="3.24813">
        <ele>696.4</ele>
        <time>2021-10-14T12:23:42Z</time>
      </trkpt>
      <trkpt lat="44.13064" lon="3.24814">
        <ele>696.6</ele>
        <time>2021-10-14T12:23:44Z</time>
      </trkpt>
      <trkpt lat="44.13065" lon="3.24815">
        <ele>696.7</ele>
        <time>2021-10-14T12:23:45Z</time>
      </trkpt>
      <trkpt lat="44.13066" lon="3.24817">
        <ele>696.9</ele>
        <time>2021-10-14T12:23:46Z</time>
      </trkpt>
      <trkpt lat="44.13067" lon="3.24818">
        <ele>697.1</ele>
        <time>2021-10-14T12:23:47Z</time>
      </trkpt>
      <trkpt lat="44.13068" lon="3.2482">
        <ele>697.5</ele>
        <time>2021-10-14T12:23:49Z</time>
      </trkpt>
      <trkpt lat="44.13071" lon="3.24822">
        <ele>697.9</ele>
        <time>2021-10-14T12:23:51Z</time>
      </trkpt>
      <trkpt lat="44.13073" lon="3.24825">
        <ele>698.4</ele>
        <time>2021-10-14T12:23:53Z</time>
      </trkpt>
      <trkpt lat="44.13074" lon="3.24826">
        <ele>698.5</ele>
        <time>2021-10-14T12:23:54Z</time>
      </trkpt>
      <trkpt lat="44.13075" lon="3.24827">
        <ele>698.8</ele>
        <time>2021-10-14T12:23:55Z</time>
      </trkpt>
      <trkpt lat="44.13076" lon="3.24828">
        <ele>699.1</ele>
        <time>2021-10-14T12:23:56Z</time>
      </trkpt>
      <trkpt lat="44.13077" lon="3.24829">
        <ele>699.3</ele>
        <time>2021-10-14T12:23:57Z</time>
      </trkpt>
      <trkpt lat="44.13079" lon="3.24831">
        <ele>699.6</ele>
        <time>2021-10-14T12:23:58Z</time>
      </trkpt>
      <trkpt lat="44.13081" lon="3.24832">
        <ele>700</ele>
        <time>2021-10-14T12:24:00Z</time>
      </trkpt>
      <trkpt lat="44.13082" lon="3.24833">
        <ele>700.2</ele>
        <time>2021-10-14T12:24:01Z</time>
      </trkpt>
      <trkpt lat="44.13084" lon="3.24834">
        <ele>700.5</ele>
        <time>2021-10-14T12:24:03Z</time>
      </trkpt>
      <trkpt lat="44.13086" lon="3.24835">
        <ele>700.8</ele>
        <time>2021-10-14T12:24:05Z</time>
      </trkpt>
      <trkpt lat="44.13087" lon="3.24836">
        <ele>701</ele>
        <time>2021-10-14T12:24:06Z</time>
      </trkpt>
      <trkpt lat="44.13088" lon="3.24836">
        <ele>701.2</ele>
        <time>2021-10-14T12:24:07Z</time>
      </trkpt>
      <trkpt lat="44.1309" lon="3.24836">
        <ele>701.5</ele>
        <time>2021-10-14T12:24:09Z</time>
      </trkpt>
      <trkpt lat="44.13091" lon="3.24836">
        <ele>701.6</ele>
        <time>2021-10-14T12:24:10Z</time>
      </trkpt>
      <trkpt lat="44.13092" lon="3.24836">
        <ele>701.9</ele>
        <time>2021-10-14T12:24:12Z</time>
      </trkpt>
      <trkpt lat="44.13093" lon="3.24836">
        <ele>702</ele>
        <time>2021-10-14T12:24:13Z</time>
      </trkpt>
      <trkpt lat="44.13095" lon="3.24836">
        <ele>702.3</ele>
        <time>2021-10-14T12:24:15Z</time>
      </trkpt>
      <trkpt lat="44.13096" lon="3.24836">
        <ele>702.4</ele>
        <time>2021-10-14T12:24:16Z</time>
      </trkpt>
      <trkpt lat="44.13097" lon="3.24836">
        <ele>702.6</ele>
        <time>2021-10-14T12:24:18Z</time>
      </trkpt>
      <trkpt lat="44.13099" lon="3.24837">
        <ele>702.9</ele>
        <time>2021-10-14T12:24:19Z</time>
      </trkpt>
      <trkpt lat="44.13101" lon="3.24838">
        <ele>703.3</ele>
        <time>2021-10-14T12:24:20Z</time>
      </trkpt>
      <trkpt lat="44.13102" lon="3.24839">
        <ele>703.5</ele>
        <time>2021-10-14T12:24:21Z</time>
      </trkpt>
      <trkpt lat="44.13103" lon="3.24839">
        <ele>703.7</ele>
        <time>2021-10-14T12:24:23Z</time>
      </trkpt>
      <trkpt lat="44.13105" lon="3.2484">
        <ele>703.9</ele>
        <time>2021-10-14T12:24:25Z</time>
      </trkpt>
      <trkpt lat="44.13106" lon="3.2484">
        <ele>704.1</ele>
        <time>2021-10-14T12:24:26Z</time>
      </trkpt>
      <trkpt lat="44.13107" lon="3.24841">
        <ele>704.4</ele>
        <time>2021-10-14T12:24:27Z</time>
      </trkpt>
      <trkpt lat="44.13109" lon="3.24842">
        <ele>704.7</ele>
        <time>2021-10-14T12:24:29Z</time>
      </trkpt>
      <trkpt lat="44.13111" lon="3.24844">
        <ele>705.1</ele>
        <time>2021-10-14T12:24:30Z</time>
      </trkpt>
      <trkpt lat="44.13112" lon="3.24845">
        <ele>705.3</ele>
        <time>2021-10-14T12:24:31Z</time>
      </trkpt>
      <trkpt lat="44.13115" lon="3.24846">
        <ele>705.7</ele>
        <time>2021-10-14T12:24:33Z</time>
      </trkpt>
      <trkpt lat="44.13116" lon="3.24847">
        <ele>706</ele>
        <time>2021-10-14T12:24:34Z</time>
      </trkpt>
      <trkpt lat="44.13118" lon="3.24848">
        <ele>706.3</ele>
        <time>2021-10-14T12:24:35Z</time>
      </trkpt>
      <trkpt lat="44.13119" lon="3.24849">
        <ele>706.5</ele>
        <time>2021-10-14T12:24:36Z</time>
      </trkpt>
      <trkpt lat="44.1312" lon="3.2485">
        <ele>706.7</ele>
        <time>2021-10-14T12:24:37Z</time>
      </trkpt>
      <trkpt lat="44.13122" lon="3.24851">
        <ele>707.1</ele>
        <time>2021-10-14T12:24:39Z</time>
      </trkpt>
      <trkpt lat="44.13124" lon="3.24853">
        <ele>707.4</ele>
        <time>2021-10-14T12:24:40Z</time>
      </trkpt>
      <trkpt lat="44.13125" lon="3.24854">
        <ele>707.6</ele>
        <time>2021-10-14T12:24:42Z</time>
      </trkpt>
      <trkpt lat="44.13125" lon="3.24855">
        <ele>707.8</ele>
        <time>2021-10-14T12:24:43Z</time>
      </trkpt>
      <trkpt lat="44.13128" lon="3.24857">
        <ele>708.2</ele>
        <time>2021-10-14T12:24:45Z</time>
      </trkpt>
      <trkpt lat="44.13128" lon="3.24858">
        <ele>708.3</ele>
        <time>2021-10-14T12:24:46Z</time>
      </trkpt>
      <trkpt lat="44.13129" lon="3.24859">
        <ele>708.5</ele>
        <time>2021-10-14T12:24:47Z</time>
      </trkpt>
      <trkpt lat="44.1313" lon="3.2486">
        <ele>708.7</ele>
        <time>2021-10-14T12:24:49Z</time>
      </trkpt>
      <trkpt lat="44.13131" lon="3.24861">
        <ele>708.8</ele>
        <time>2021-10-14T12:24:50Z</time>
      </trkpt>
      <trkpt lat="44.13131" lon="3.24862">
        <ele>709</ele>
        <time>2021-10-14T12:24:51Z</time>
      </trkpt>
      <trkpt lat="44.13131" lon="3.24863">
        <ele>709.1</ele>
        <time>2021-10-14T12:24:52Z</time>
      </trkpt>
      <trkpt lat="44.13132" lon="3.24864">
        <ele>709.2</ele>
        <time>2021-10-14T12:24:54Z</time>
      </trkpt>
      <trkpt lat="44.13131" lon="3.24865">
        <ele>709.3</ele>
        <time>2021-10-14T12:24:55Z</time>
      </trkpt>
      <trkpt lat="44.13129" lon="3.24865">
        <ele>709.7</ele>
        <time>2021-10-14T12:24:57Z</time>
      </trkpt>
      <trkpt lat="44.13127" lon="3.24865">
        <ele>709.9</ele>
        <time>2021-10-14T12:24:58Z</time>
      </trkpt>
      <trkpt lat="44.13128" lon="3.24866">
        <ele>710.1</ele>
        <time>2021-10-14T12:24:59Z</time>
      </trkpt>
      <trkpt lat="44.13128" lon="3.24865">
        <ele>710.2</ele>
        <time>2021-10-14T12:25:01Z</time>
      </trkpt>
      <trkpt lat="44.13127" lon="3.24864">
        <ele>710.4</ele>
        <time>2021-10-14T12:25:02Z</time>
      </trkpt>
      <trkpt lat="44.13127" lon="3.24863">
        <ele>710.5</ele>
        <time>2021-10-14T12:25:03Z</time>
      </trkpt>
      <trkpt lat="44.13126" lon="3.24861">
        <ele>710.7</ele>
        <time>2021-10-14T12:25:05Z</time>
      </trkpt>
      <trkpt lat="44.13124" lon="3.2486">
        <ele>711</ele>
        <time>2021-10-14T12:25:06Z</time>
      </trkpt>
      <trkpt lat="44.13122" lon="3.2486">
        <ele>711.2</ele>
        <time>2021-10-14T12:25:07Z</time>
      </trkpt>
      <trkpt lat="44.13119" lon="3.2486">
        <ele>711.6</ele>
        <time>2021-10-14T12:25:09Z</time>
      </trkpt>
      <trkpt lat="44.13118" lon="3.2486">
        <ele>711.7</ele>
        <time>2021-10-14T12:25:10Z</time>
      </trkpt>
      <trkpt lat="44.13116" lon="3.2486">
        <ele>712</ele>
        <time>2021-10-14T12:25:11Z</time>
      </trkpt>
      <trkpt lat="44.13114" lon="3.2486">
        <ele>712.2</ele>
        <time>2021-10-14T12:25:13Z</time>
      </trkpt>
      <trkpt lat="44.13111" lon="3.24859">
        <ele>712.5</ele>
        <time>2021-10-14T12:25:15Z</time>
      </trkpt>
      <trkpt lat="44.13109" lon="3.24859">
        <ele>712.7</ele>
        <time>2021-10-14T12:25:16Z</time>
      </trkpt>
      <trkpt lat="44.13106" lon="3.24859">
        <ele>712.9</ele>
        <time>2021-10-14T12:25:18Z</time>
      </trkpt>
      <trkpt lat="44.13104" lon="3.24859">
        <ele>713.1</ele>
        <time>2021-10-14T12:25:19Z</time>
      </trkpt>
      <trkpt lat="44.13103" lon="3.24859">
        <ele>713.1</ele>
        <time>2021-10-14T12:25:20Z</time>
      </trkpt>
      <trkpt lat="44.13101" lon="3.24859">
        <ele>713.3</ele>
        <time>2021-10-14T12:25:21Z</time>
      </trkpt>
      <trkpt lat="44.131" lon="3.24859">
        <ele>713.4</ele>
        <time>2021-10-14T12:25:23Z</time>
      </trkpt>
      <trkpt lat="44.13098" lon="3.24859">
        <ele>713.5</ele>
        <time>2021-10-14T12:25:24Z</time>
      </trkpt>
      <trkpt lat="44.13096" lon="3.24859">
        <ele>713.7</ele>
        <time>2021-10-14T12:25:25Z</time>
      </trkpt>
      <trkpt lat="44.13095" lon="3.24859">
        <ele>713.8</ele>
        <time>2021-10-14T12:25:26Z</time>
      </trkpt>
      <trkpt lat="44.13092" lon="3.24859">
        <ele>714</ele>
        <time>2021-10-14T12:25:28Z</time>
      </trkpt>
      <trkpt lat="44.13089" lon="3.24858">
        <ele>714.3</ele>
        <time>2021-10-14T12:25:29Z</time>
      </trkpt>
      <trkpt lat="44.13087" lon="3.24858">
        <ele>714.4</ele>
        <time>2021-10-14T12:25:30Z</time>
      </trkpt>
      <trkpt lat="44.13084" lon="3.24858">
        <ele>714.7</ele>
        <time>2021-10-14T12:25:32Z</time>
      </trkpt>
      <trkpt lat="44.13082" lon="3.24858">
        <ele>714.9</ele>
        <time>2021-10-14T12:25:33Z</time>
      </trkpt>
      <trkpt lat="44.13081" lon="3.24858">
        <ele>715</ele>
        <time>2021-10-14T12:25:34Z</time>
      </trkpt>
      <trkpt lat="44.13077" lon="3.24858">
        <ele>715.4</ele>
        <time>2021-10-14T12:25:36Z</time>
      </trkpt>
      <trkpt lat="44.13075" lon="3.24858">
        <ele>715.5</ele>
        <time>2021-10-14T12:25:37Z</time>
      </trkpt>
      <trkpt lat="44.13074" lon="3.24858">
        <ele>715.6</ele>
        <time>2021-10-14T12:25:38Z</time>
      </trkpt>
      <trkpt lat="44.13072" lon="3.24858">
        <ele>715.7</ele>
        <time>2021-10-14T12:25:40Z</time>
      </trkpt>
      <trkpt lat="44.1307" lon="3.24859">
        <ele>715.9</ele>
        <time>2021-10-14T12:25:41Z</time>
      </trkpt>
      <trkpt lat="44.13068" lon="3.24859">
        <ele>716.1</ele>
        <time>2021-10-14T12:25:42Z</time>
      </trkpt>
      <trkpt lat="44.13067" lon="3.24859">
        <ele>716.2</ele>
        <time>2021-10-14T12:25:44Z</time>
      </trkpt>
      <trkpt lat="44.13066" lon="3.24859">
        <ele>716.3</ele>
        <time>2021-10-14T12:25:45Z</time>
      </trkpt>
      <trkpt lat="44.13065" lon="3.2486">
        <ele>716.4</ele>
        <time>2021-10-14T12:25:47Z</time>
      </trkpt>
      <trkpt lat="44.13064" lon="3.2486">
        <ele>716.5</ele>
        <time>2021-10-14T12:25:48Z</time>
      </trkpt>
      <trkpt lat="44.13062" lon="3.2486">
        <ele>716.7</ele>
        <time>2021-10-14T12:25:50Z</time>
      </trkpt>
      <trkpt lat="44.13061" lon="3.2486">
        <ele>716.8</ele>
        <time>2021-10-14T12:25:51Z</time>
      </trkpt>
      <trkpt lat="44.1306" lon="3.2486">
        <ele>716.9</ele>
        <time>2021-10-14T12:25:52Z</time>
      </trkpt>
      <trkpt lat="44.13059" lon="3.24861">
        <ele>717</ele>
        <time>2021-10-14T12:25:54Z</time>
      </trkpt>
      <trkpt lat="44.13057" lon="3.24861">
        <ele>717.1</ele>
        <time>2021-10-14T12:25:55Z</time>
      </trkpt>
      <trkpt lat="44.13056" lon="3.24861">
        <ele>717.3</ele>
        <time>2021-10-14T12:25:56Z</time>
      </trkpt>
      <trkpt lat="44.13054" lon="3.24862">
        <ele>717.5</ele>
        <time>2021-10-14T12:25:58Z</time>
      </trkpt>
      <trkpt lat="44.13051" lon="3.24863">
        <ele>717.8</ele>
        <time>2021-10-14T12:25:59Z</time>
      </trkpt>
      <trkpt lat="44.13046" lon="3.24863">
        <ele>718.2</ele>
        <time>2021-10-14T12:26:01Z</time>
      </trkpt>
      <trkpt lat="44.13045" lon="3.24863">
        <ele>718.4</ele>
        <time>2021-10-14T12:26:02Z</time>
      </trkpt>
      <trkpt lat="44.13044" lon="3.24863">
        <ele>718.5</ele>
        <time>2021-10-14T12:26:03Z</time>
      </trkpt>
      <trkpt lat="44.13042" lon="3.24863">
        <ele>718.7</ele>
        <time>2021-10-14T12:26:04Z</time>
      </trkpt>
      <trkpt lat="44.1304" lon="3.24863">
        <ele>718.9</ele>
        <time>2021-10-14T12:26:06Z</time>
      </trkpt>
      <trkpt lat="44.13036" lon="3.24863">
        <ele>719.3</ele>
        <time>2021-10-14T12:26:07Z</time>
      </trkpt>
      <trkpt lat="44.13035" lon="3.24864">
        <ele>719.4</ele>
        <time>2021-10-14T12:26:08Z</time>
      </trkpt>
      <trkpt lat="44.13032" lon="3.24864">
        <ele>719.7</ele>
        <time>2021-10-14T12:26:09Z</time>
      </trkpt>
      <trkpt lat="44.1303" lon="3.24864">
        <ele>719.8</ele>
        <time>2021-10-14T12:26:10Z</time>
      </trkpt>
      <trkpt lat="44.13027" lon="3.24864">
        <ele>720.1</ele>
        <time>2021-10-14T12:26:11Z</time>
      </trkpt>
      <trkpt lat="44.13026" lon="3.24864">
        <ele>720.2</ele>
        <time>2021-10-14T12:26:12Z</time>
      </trkpt>
      <trkpt lat="44.13024" lon="3.24865">
        <ele>720.4</ele>
        <time>2021-10-14T12:26:13Z</time>
      </trkpt>
      <trkpt lat="44.13023" lon="3.24866">
        <ele>720.5</ele>
        <time>2021-10-14T12:26:14Z</time>
      </trkpt>
      <trkpt lat="44.1302" lon="3.24869">
        <ele>723.5</ele>
        <time>2021-10-14T12:26:16Z</time>
      </trkpt>
      <trkpt lat="44.13019" lon="3.2487">
        <ele>723.5</ele>
        <time>2021-10-14T12:26:17Z</time>
      </trkpt>
      <trkpt lat="44.13019" lon="3.24874">
        <ele>723.5</ele>
        <time>2021-10-14T12:26:18Z</time>
      </trkpt>
      <trkpt lat="44.13019" lon="3.24876">
        <ele>723.5</ele>
        <time>2021-10-14T12:26:20Z</time>
      </trkpt>
      <trkpt lat="44.13019" lon="3.24878">
        <ele>723.5</ele>
        <time>2021-10-14T12:26:21Z</time>
      </trkpt>
      <trkpt lat="44.13019" lon="3.2488">
        <ele>723.5</ele>
        <time>2021-10-14T12:26:22Z</time>
      </trkpt>
      <trkpt lat="44.1302" lon="3.24882">
        <ele>723.5</ele>
        <time>2021-10-14T12:26:23Z</time>
      </trkpt>
      <trkpt lat="44.1302" lon="3.24884">
        <ele>724.7</ele>
        <time>2021-10-14T12:26:24Z</time>
      </trkpt>
      <trkpt lat="44.13021" lon="3.24886">
        <ele>724.8</ele>
        <time>2021-10-14T12:26:25Z</time>
      </trkpt>
      <trkpt lat="44.13023" lon="3.24887">
        <ele>725</ele>
        <time>2021-10-14T12:26:27Z</time>
      </trkpt>
      <trkpt lat="44.13027" lon="3.24887">
        <ele>725.2</ele>
        <time>2021-10-14T12:26:28Z</time>
      </trkpt>
      <trkpt lat="44.13028" lon="3.24888">
        <ele>725.3</ele>
        <time>2021-10-14T12:26:29Z</time>
      </trkpt>
      <trkpt lat="44.1303" lon="3.24887">
        <ele>725.4</ele>
        <time>2021-10-14T12:26:30Z</time>
      </trkpt>
      <trkpt lat="44.13031" lon="3.24888">
        <ele>725.6</ele>
        <time>2021-10-14T12:26:32Z</time>
      </trkpt>
      <trkpt lat="44.13032" lon="3.24888">
        <ele>725.6</ele>
        <time>2021-10-14T12:26:33Z</time>
      </trkpt>
      <trkpt lat="44.13034" lon="3.24889">
        <ele>725.8</ele>
        <time>2021-10-14T12:26:34Z</time>
      </trkpt>
      <trkpt lat="44.13035" lon="3.24889">
        <ele>725.9</ele>
        <time>2021-10-14T12:26:35Z</time>
      </trkpt>
      <trkpt lat="44.13038" lon="3.2489">
        <ele>726.1</ele>
        <time>2021-10-14T12:26:37Z</time>
      </trkpt>
      <trkpt lat="44.1304" lon="3.2489">
        <ele>726.3</ele>
        <time>2021-10-14T12:26:38Z</time>
      </trkpt>
      <trkpt lat="44.13043" lon="3.24891">
        <ele>726.5</ele>
        <time>2021-10-14T12:26:40Z</time>
      </trkpt>
      <trkpt lat="44.13044" lon="3.24891">
        <ele>726.6</ele>
        <time>2021-10-14T12:26:41Z</time>
      </trkpt>
      <trkpt lat="44.13047" lon="3.24891">
        <ele>726.9</ele>
        <time>2021-10-14T12:26:43Z</time>
      </trkpt>
      <trkpt lat="44.13049" lon="3.24891">
        <ele>727</ele>
        <time>2021-10-14T12:26:44Z</time>
      </trkpt>
      <trkpt lat="44.13052" lon="3.24893">
        <ele>727.3</ele>
        <time>2021-10-14T12:26:46Z</time>
      </trkpt>
      <trkpt lat="44.13053" lon="3.24894">
        <ele>727.4</ele>
        <time>2021-10-14T12:26:47Z</time>
      </trkpt>
      <trkpt lat="44.13055" lon="3.24896">
        <ele>727.7</ele>
        <time>2021-10-14T12:26:49Z</time>
      </trkpt>
      <trkpt lat="44.13057" lon="3.24897">
        <ele>727.8</ele>
        <time>2021-10-14T12:26:50Z</time>
      </trkpt>
      <trkpt lat="44.13059" lon="3.24898">
        <ele>728.1</ele>
        <time>2021-10-14T12:26:52Z</time>
      </trkpt>
      <trkpt lat="44.13061" lon="3.24899">
        <ele>728.3</ele>
        <time>2021-10-14T12:26:53Z</time>
      </trkpt>
      <trkpt lat="44.13063" lon="3.249">
        <ele>728.4</ele>
        <time>2021-10-14T12:26:54Z</time>
      </trkpt>
      <trkpt lat="44.13067" lon="3.24902">
        <ele>728.9</ele>
        <time>2021-10-14T12:26:56Z</time>
      </trkpt>
      <trkpt lat="44.13068" lon="3.24903">
        <ele>729</ele>
        <time>2021-10-14T12:26:57Z</time>
      </trkpt>
      <trkpt lat="44.13071" lon="3.24906">
        <ele>729.4</ele>
        <time>2021-10-14T12:26:59Z</time>
      </trkpt>
      <trkpt lat="44.13073" lon="3.24906">
        <ele>729.5</ele>
        <time>2021-10-14T12:27:00Z</time>
      </trkpt>
      <trkpt lat="44.13076" lon="3.24908">
        <ele>729.8</ele>
        <time>2021-10-14T12:27:02Z</time>
      </trkpt>
      <trkpt lat="44.13079" lon="3.24912">
        <ele>730.2</ele>
        <time>2021-10-14T12:27:04Z</time>
      </trkpt>
      <trkpt lat="44.13083" lon="3.24915">
        <ele>730.6</ele>
        <time>2021-10-14T12:27:06Z</time>
      </trkpt>
      <trkpt lat="44.13084" lon="3.24916">
        <ele>730.8</ele>
        <time>2021-10-14T12:27:07Z</time>
      </trkpt>
      <trkpt lat="44.13085" lon="3.24917">
        <ele>730.9</ele>
        <time>2021-10-14T12:27:08Z</time>
      </trkpt>
      <trkpt lat="44.13088" lon="3.24919">
        <ele>731.2</ele>
        <time>2021-10-14T12:27:09Z</time>
      </trkpt>
      <trkpt lat="44.1309" lon="3.24921">
        <ele>731.5</ele>
        <time>2021-10-14T12:27:11Z</time>
      </trkpt>
      <trkpt lat="44.13093" lon="3.24924">
        <ele>731.9</ele>
        <time>2021-10-14T12:27:12Z</time>
      </trkpt>
      <trkpt lat="44.13097" lon="3.24927">
        <ele>732.3</ele>
        <time>2021-10-14T12:27:14Z</time>
      </trkpt>
      <trkpt lat="44.13098" lon="3.24928">
        <ele>732.5</ele>
        <time>2021-10-14T12:27:15Z</time>
      </trkpt>
      <trkpt lat="44.13101" lon="3.24931">
        <ele>732.9</ele>
        <time>2021-10-14T12:27:17Z</time>
      </trkpt>
      <trkpt lat="44.13103" lon="3.24933">
        <ele>733</ele>
        <time>2021-10-14T12:27:18Z</time>
      </trkpt>
      <trkpt lat="44.13105" lon="3.24935">
        <ele>733.3</ele>
        <time>2021-10-14T12:27:20Z</time>
      </trkpt>
      <trkpt lat="44.13107" lon="3.24938">
        <ele>733.6</ele>
        <time>2021-10-14T12:27:21Z</time>
      </trkpt>
      <trkpt lat="44.13108" lon="3.24939">
        <ele>733.8</ele>
        <time>2021-10-14T12:27:22Z</time>
      </trkpt>
      <trkpt lat="44.1311" lon="3.24941">
        <ele>734</ele>
        <time>2021-10-14T12:27:23Z</time>
      </trkpt>
      <trkpt lat="44.13113" lon="3.24944">
        <ele>734.3</ele>
        <time>2021-10-14T12:27:25Z</time>
      </trkpt>
      <trkpt lat="44.13115" lon="3.24947">
        <ele>734.7</ele>
        <time>2021-10-14T12:27:26Z</time>
      </trkpt>
      <trkpt lat="44.13116" lon="3.24949">
        <ele>734.8</ele>
        <time>2021-10-14T12:27:28Z</time>
      </trkpt>
      <trkpt lat="44.13117" lon="3.24951">
        <ele>735</ele>
        <time>2021-10-14T12:27:29Z</time>
      </trkpt>
      <trkpt lat="44.13118" lon="3.24952">
        <ele>735.1</ele>
        <time>2021-10-14T12:27:30Z</time>
      </trkpt>
      <trkpt lat="44.13121" lon="3.24955">
        <ele>735.5</ele>
        <time>2021-10-14T12:27:32Z</time>
      </trkpt>
      <trkpt lat="44.13122" lon="3.24956">
        <ele>735.6</ele>
        <time>2021-10-14T12:27:33Z</time>
      </trkpt>
      <trkpt lat="44.13124" lon="3.24957">
        <ele>735.8</ele>
        <time>2021-10-14T12:27:34Z</time>
      </trkpt>
      <trkpt lat="44.13125" lon="3.24957">
        <ele>735.9</ele>
        <time>2021-10-14T12:27:36Z</time>
      </trkpt>
      <trkpt lat="44.13127" lon="3.24958">
        <ele>736.1</ele>
        <time>2021-10-14T12:27:37Z</time>
      </trkpt>
      <trkpt lat="44.13128" lon="3.24959">
        <ele>736.2</ele>
        <time>2021-10-14T12:27:38Z</time>
      </trkpt>
      <trkpt lat="44.1313" lon="3.24962">
        <ele>736.5</ele>
        <time>2021-10-14T12:27:40Z</time>
      </trkpt>
      <trkpt lat="44.13132" lon="3.24963">
        <ele>736.7</ele>
        <time>2021-10-14T12:27:41Z</time>
      </trkpt>
      <trkpt lat="44.13133" lon="3.24964">
        <ele>736.8</ele>
        <time>2021-10-14T12:27:43Z</time>
      </trkpt>
      <trkpt lat="44.13134" lon="3.24964">
        <ele>736.9</ele>
        <time>2021-10-14T12:27:44Z</time>
      </trkpt>
      <trkpt lat="44.13136" lon="3.24967">
        <ele>737.2</ele>
        <time>2021-10-14T12:27:45Z</time>
      </trkpt>
      <trkpt lat="44.13137" lon="3.24967">
        <ele>737.3</ele>
        <time>2021-10-14T12:27:46Z</time>
      </trkpt>
      <trkpt lat="44.13138" lon="3.24968">
        <ele>737.4</ele>
        <time>2021-10-14T12:27:47Z</time>
      </trkpt>
      <trkpt lat="44.1314" lon="3.2497">
        <ele>737.7</ele>
        <time>2021-10-14T12:27:49Z</time>
      </trkpt>
      <trkpt lat="44.13142" lon="3.24971">
        <ele>737.9</ele>
        <time>2021-10-14T12:27:50Z</time>
      </trkpt>
      <trkpt lat="44.13143" lon="3.24972">
        <ele>738</ele>
        <time>2021-10-14T12:27:51Z</time>
      </trkpt>
      <trkpt lat="44.13146" lon="3.24975">
        <ele>738.4</ele>
        <time>2021-10-14T12:27:53Z</time>
      </trkpt>
      <trkpt lat="44.13147" lon="3.24977">
        <ele>738.6</ele>
        <time>2021-10-14T12:27:54Z</time>
      </trkpt>
      <trkpt lat="44.13149" lon="3.24979">
        <ele>738.8</ele>
        <time>2021-10-14T12:27:56Z</time>
      </trkpt>
      <trkpt lat="44.13152" lon="3.24982">
        <ele>739.2</ele>
        <time>2021-10-14T12:27:57Z</time>
      </trkpt>
      <trkpt lat="44.13154" lon="3.24984">
        <ele>739.4</ele>
        <time>2021-10-14T12:27:58Z</time>
      </trkpt>
      <trkpt lat="44.13156" lon="3.24987">
        <ele>739.7</ele>
        <time>2021-10-14T12:28:00Z</time>
      </trkpt>
      <trkpt lat="44.13159" lon="3.24991">
        <ele>740.1</ele>
        <time>2021-10-14T12:28:01Z</time>
      </trkpt>
      <trkpt lat="44.13161" lon="3.24993">
        <ele>740.3</ele>
        <time>2021-10-14T12:28:02Z</time>
      </trkpt>
      <trkpt lat="44.13164" lon="3.24996">
        <ele>740.7</ele>
        <time>2021-10-14T12:28:04Z</time>
      </trkpt>
      <trkpt lat="44.13167" lon="3.24999">
        <ele>741.1</ele>
        <time>2021-10-14T12:28:05Z</time>
      </trkpt>
      <trkpt lat="44.13169" lon="3.25001">
        <ele>741.3</ele>
        <time>2021-10-14T12:28:06Z</time>
      </trkpt>
      <trkpt lat="44.13172" lon="3.25004">
        <ele>741.7</ele>
        <time>2021-10-14T12:28:08Z</time>
      </trkpt>
      <trkpt lat="44.13175" lon="3.25008">
        <ele>742.1</ele>
        <time>2021-10-14T12:28:10Z</time>
      </trkpt>
      <trkpt lat="44.13177" lon="3.2501">
        <ele>742.4</ele>
        <time>2021-10-14T12:28:11Z</time>
      </trkpt>
      <trkpt lat="44.13178" lon="3.25011">
        <ele>742.5</ele>
        <time>2021-10-14T12:28:12Z</time>
      </trkpt>
      <trkpt lat="44.13181" lon="3.25015">
        <ele>743</ele>
        <time>2021-10-14T12:28:14Z</time>
      </trkpt>
      <trkpt lat="44.13182" lon="3.25017">
        <ele>743.1</ele>
        <time>2021-10-14T12:28:15Z</time>
      </trkpt>
      <trkpt lat="44.13183" lon="3.25018">
        <ele>743.2</ele>
        <time>2021-10-14T12:28:16Z</time>
      </trkpt>
      <trkpt lat="44.13185" lon="3.25021">
        <ele>743.5</ele>
        <time>2021-10-14T12:28:18Z</time>
      </trkpt>
      <trkpt lat="44.13186" lon="3.25021">
        <ele>743.6</ele>
        <time>2021-10-14T12:28:19Z</time>
      </trkpt>
      <trkpt lat="44.13189" lon="3.25024">
        <ele>743.9</ele>
        <time>2021-10-14T12:28:20Z</time>
      </trkpt>
      <trkpt lat="44.13189" lon="3.25024">
        <ele>744</ele>
        <time>2021-10-14T12:28:21Z</time>
      </trkpt>
      <trkpt lat="44.1319" lon="3.25026">
        <ele>744.2</ele>
        <time>2021-10-14T12:28:22Z</time>
      </trkpt>
      <trkpt lat="44.13191" lon="3.25027">
        <ele>744.3</ele>
        <time>2021-10-14T12:28:23Z</time>
      </trkpt>
      <trkpt lat="44.13193" lon="3.25031">
        <ele>744.6</ele>
        <time>2021-10-14T12:28:25Z</time>
      </trkpt>
      <trkpt lat="44.13195" lon="3.25032">
        <ele>744.8</ele>
        <time>2021-10-14T12:28:26Z</time>
      </trkpt>
      <trkpt lat="44.13196" lon="3.25036">
        <ele>745.1</ele>
        <time>2021-10-14T12:28:28Z</time>
      </trkpt>
      <trkpt lat="44.13198" lon="3.25038">
        <ele>745.3</ele>
        <time>2021-10-14T12:28:29Z</time>
      </trkpt>
      <trkpt lat="44.13199" lon="3.2504">
        <ele>745.5</ele>
        <time>2021-10-14T12:28:31Z</time>
      </trkpt>
      <trkpt lat="44.13201" lon="3.25043">
        <ele>745.8</ele>
        <time>2021-10-14T12:28:32Z</time>
      </trkpt>
      <trkpt lat="44.13203" lon="3.25047">
        <ele>746.2</ele>
        <time>2021-10-14T12:28:34Z</time>
      </trkpt>
      <trkpt lat="44.13204" lon="3.25049">
        <ele>746.3</ele>
        <time>2021-10-14T12:28:35Z</time>
      </trkpt>
      <trkpt lat="44.13205" lon="3.25051">
        <ele>746.5</ele>
        <time>2021-10-14T12:28:36Z</time>
      </trkpt>
      <trkpt lat="44.13208" lon="3.25055">
        <ele>746.9</ele>
        <time>2021-10-14T12:28:38Z</time>
      </trkpt>
      <trkpt lat="44.13209" lon="3.25057">
        <ele>747.1</ele>
        <time>2021-10-14T12:28:39Z</time>
      </trkpt>
      <trkpt lat="44.13212" lon="3.2506">
        <ele>747.4</ele>
        <time>2021-10-14T12:28:41Z</time>
      </trkpt>
      <trkpt lat="44.13213" lon="3.25061">
        <ele>747.5</ele>
        <time>2021-10-14T12:28:42Z</time>
      </trkpt>
      <trkpt lat="44.13216" lon="3.25065">
        <ele>747.9</ele>
        <time>2021-10-14T12:28:44Z</time>
      </trkpt>
      <trkpt lat="44.13218" lon="3.25069">
        <ele>748.3</ele>
        <time>2021-10-14T12:28:46Z</time>
      </trkpt>
      <trkpt lat="44.13221" lon="3.25072">
        <ele>748.6</ele>
        <time>2021-10-14T12:28:47Z</time>
      </trkpt>
      <trkpt lat="44.13221" lon="3.25073">
        <ele>748.7</ele>
        <time>2021-10-14T12:28:48Z</time>
      </trkpt>
      <trkpt lat="44.13223" lon="3.25075">
        <ele>748.9</ele>
        <time>2021-10-14T12:28:49Z</time>
      </trkpt>
      <trkpt lat="44.13225" lon="3.25077">
        <ele>749.1</ele>
        <time>2021-10-14T12:28:51Z</time>
      </trkpt>
      <trkpt lat="44.13227" lon="3.25079">
        <ele>749.4</ele>
        <time>2021-10-14T12:28:52Z</time>
      </trkpt>
      <trkpt lat="44.1323" lon="3.25083">
        <ele>749.8</ele>
        <time>2021-10-14T12:28:54Z</time>
      </trkpt>
      <trkpt lat="44.13232" lon="3.25084">
        <ele>750</ele>
        <time>2021-10-14T12:28:55Z</time>
      </trkpt>
      <trkpt lat="44.13236" lon="3.25086">
        <ele>750.4</ele>
        <time>2021-10-14T12:28:57Z</time>
      </trkpt>
      <trkpt lat="44.13238" lon="3.25088">
        <ele>750.7</ele>
        <time>2021-10-14T12:28:58Z</time>
      </trkpt>
      <trkpt lat="44.13239" lon="3.25089">
        <ele>750.8</ele>
        <time>2021-10-14T12:28:59Z</time>
      </trkpt>
      <trkpt lat="44.13244" lon="3.25091">
        <ele>751.3</ele>
        <time>2021-10-14T12:29:01Z</time>
      </trkpt>
      <trkpt lat="44.13246" lon="3.25092">
        <ele>751.5</ele>
        <time>2021-10-14T12:29:03Z</time>
      </trkpt>
      <trkpt lat="44.13247" lon="3.25093">
        <ele>751.6</ele>
        <time>2021-10-14T12:29:04Z</time>
      </trkpt>
      <trkpt lat="44.13252" lon="3.25094">
        <ele>752.2</ele>
        <time>2021-10-14T12:29:06Z</time>
      </trkpt>
      <trkpt lat="44.13255" lon="3.25094">
        <ele>752.4</ele>
        <time>2021-10-14T12:29:08Z</time>
      </trkpt>
      <trkpt lat="44.13257" lon="3.25094">
        <ele>752.6</ele>
        <time>2021-10-14T12:29:10Z</time>
      </trkpt>
      <trkpt lat="44.13259" lon="3.25095">
        <ele>752.8</ele>
        <time>2021-10-14T12:29:11Z</time>
      </trkpt>
      <trkpt lat="44.13261" lon="3.25095">
        <ele>753</ele>
        <time>2021-10-14T12:29:12Z</time>
      </trkpt>
      <trkpt lat="44.13263" lon="3.25094">
        <ele>753.2</ele>
        <time>2021-10-14T12:29:13Z</time>
      </trkpt>
      <trkpt lat="44.13265" lon="3.25094">
        <ele>753.4</ele>
        <time>2021-10-14T12:29:14Z</time>
      </trkpt>
      <trkpt lat="44.13266" lon="3.25094">
        <ele>753.5</ele>
        <time>2021-10-14T12:29:15Z</time>
      </trkpt>
      <trkpt lat="44.13268" lon="3.25093">
        <ele>753.7</ele>
        <time>2021-10-14T12:29:16Z</time>
      </trkpt>
      <trkpt lat="44.13271" lon="3.25093">
        <ele>754</ele>
        <time>2021-10-14T12:29:18Z</time>
      </trkpt>
      <trkpt lat="44.13272" lon="3.25092">
        <ele>754.1</ele>
        <time>2021-10-14T12:29:19Z</time>
      </trkpt>
      <trkpt lat="44.13276" lon="3.25092">
        <ele>754.4</ele>
        <time>2021-10-14T12:29:20Z</time>
      </trkpt>
      <trkpt lat="44.13277" lon="3.25092">
        <ele>754.5</ele>
        <time>2021-10-14T12:29:21Z</time>
      </trkpt>
      <trkpt lat="44.1328" lon="3.25092">
        <ele>754.9</ele>
        <time>2021-10-14T12:29:23Z</time>
      </trkpt>
      <trkpt lat="44.13282" lon="3.25092">
        <ele>755</ele>
        <time>2021-10-14T12:29:24Z</time>
      </trkpt>
      <trkpt lat="44.13284" lon="3.25093">
        <ele>755.2</ele>
        <time>2021-10-14T12:29:26Z</time>
      </trkpt>
      <trkpt lat="44.13288" lon="3.25095">
        <ele>755.6</ele>
        <time>2021-10-14T12:29:27Z</time>
      </trkpt>
      <trkpt lat="44.13289" lon="3.25095">
        <ele>755.7</ele>
        <time>2021-10-14T12:29:28Z</time>
      </trkpt>
      <trkpt lat="44.13291" lon="3.25096">
        <ele>755.9</ele>
        <time>2021-10-14T12:29:29Z</time>
      </trkpt>
      <trkpt lat="44.13295" lon="3.25097">
        <ele>756.2</ele>
        <time>2021-10-14T12:29:31Z</time>
      </trkpt>
      <trkpt lat="44.13297" lon="3.25098">
        <ele>756.4</ele>
        <time>2021-10-14T12:29:32Z</time>
      </trkpt>
      <trkpt lat="44.13301" lon="3.251">
        <ele>756.7</ele>
        <time>2021-10-14T12:29:34Z</time>
      </trkpt>
      <trkpt lat="44.13303" lon="3.251">
        <ele>756.9</ele>
        <time>2021-10-14T12:29:35Z</time>
      </trkpt>
      <trkpt lat="44.13307" lon="3.25101">
        <ele>757.1</ele>
        <time>2021-10-14T12:29:37Z</time>
      </trkpt>
      <trkpt lat="44.1331" lon="3.25102">
        <ele>757.3</ele>
        <time>2021-10-14T12:29:38Z</time>
      </trkpt>
      <trkpt lat="44.1331" lon="3.25103">
        <ele>757.4</ele>
        <time>2021-10-14T12:29:39Z</time>
      </trkpt>
      <trkpt lat="44.13312" lon="3.25104">
        <ele>757.5</ele>
        <time>2021-10-14T12:29:40Z</time>
      </trkpt>
      <trkpt lat="44.13316" lon="3.25107">
        <ele>757.8</ele>
        <time>2021-10-14T12:29:42Z</time>
      </trkpt>
      <trkpt lat="44.13319" lon="3.25109">
        <ele>758.1</ele>
        <time>2021-10-14T12:29:44Z</time>
      </trkpt>
      <trkpt lat="44.1332" lon="3.2511">
        <ele>758.2</ele>
        <time>2021-10-14T12:29:45Z</time>
      </trkpt>
      <trkpt lat="44.13323" lon="3.25113">
        <ele>758.4</ele>
        <time>2021-10-14T12:29:46Z</time>
      </trkpt>
      <trkpt lat="44.13323" lon="3.25113">
        <ele>758.4</ele>
        <time>2021-10-14T12:29:47Z</time>
      </trkpt>
      <trkpt lat="44.13325" lon="3.25115">
        <ele>758.6</ele>
        <time>2021-10-14T12:29:48Z</time>
      </trkpt>
      <trkpt lat="44.13327" lon="3.25115">
        <ele>758.7</ele>
        <time>2021-10-14T12:29:49Z</time>
      </trkpt>
      <trkpt lat="44.13331" lon="3.25119">
        <ele>759</ele>
        <time>2021-10-14T12:29:52Z</time>
      </trkpt>
      <trkpt lat="44.13333" lon="3.25121">
        <ele>759.2</ele>
        <time>2021-10-14T12:29:53Z</time>
      </trkpt>
      <trkpt lat="44.13335" lon="3.25122">
        <ele>759.3</ele>
        <time>2021-10-14T12:29:54Z</time>
      </trkpt>
      <trkpt lat="44.13338" lon="3.25124">
        <ele>759.6</ele>
        <time>2021-10-14T12:29:56Z</time>
      </trkpt>
      <trkpt lat="44.13341" lon="3.25127">
        <ele>759.8</ele>
        <time>2021-10-14T12:29:58Z</time>
      </trkpt>
      <trkpt lat="44.13343" lon="3.25129">
        <ele>760</ele>
        <time>2021-10-14T12:30:00Z</time>
      </trkpt>
      <trkpt lat="44.13346" lon="3.25132">
        <ele>760.3</ele>
        <time>2021-10-14T12:30:01Z</time>
      </trkpt>
      <trkpt lat="44.13348" lon="3.25135">
        <ele>760.5</ele>
        <time>2021-10-14T12:30:02Z</time>
      </trkpt>
      <trkpt lat="44.13348" lon="3.25136">
        <ele>760.5</ele>
        <time>2021-10-14T12:30:03Z</time>
      </trkpt>
      <trkpt lat="44.13351" lon="3.2514">
        <ele>760.8</ele>
        <time>2021-10-14T12:30:05Z</time>
      </trkpt>
      <trkpt lat="44.13355" lon="3.25142">
        <ele>761</ele>
        <time>2021-10-14T12:30:07Z</time>
      </trkpt>
      <trkpt lat="44.13358" lon="3.25144">
        <ele>761.3</ele>
        <time>2021-10-14T12:30:08Z</time>
      </trkpt>
      <trkpt lat="44.13362" lon="3.25147">
        <ele>761.5</ele>
        <time>2021-10-14T12:30:10Z</time>
      </trkpt>
      <trkpt lat="44.13365" lon="3.25149">
        <ele>761.8</ele>
        <time>2021-10-14T12:30:11Z</time>
      </trkpt>
      <trkpt lat="44.13366" lon="3.2515">
        <ele>761.8</ele>
        <time>2021-10-14T12:30:12Z</time>
      </trkpt>
      <trkpt lat="44.13369" lon="3.25152">
        <ele>762.1</ele>
        <time>2021-10-14T12:30:13Z</time>
      </trkpt>
      <trkpt lat="44.1337" lon="3.25153">
        <ele>762.1</ele>
        <time>2021-10-14T12:30:14Z</time>
      </trkpt>
      <trkpt lat="44.13373" lon="3.25156">
        <ele>762.3</ele>
        <time>2021-10-14T12:30:16Z</time>
      </trkpt>
      <trkpt lat="44.13376" lon="3.25159">
        <ele>762.5</ele>
        <time>2021-10-14T12:30:17Z</time>
      </trkpt>
      <trkpt lat="44.13379" lon="3.25161">
        <ele>762.7</ele>
        <time>2021-10-14T12:30:18Z</time>
      </trkpt>
      <trkpt lat="44.13383" lon="3.25165">
        <ele>763.1</ele>
        <time>2021-10-14T12:30:20Z</time>
      </trkpt>
      <trkpt lat="44.13385" lon="3.25166">
        <ele>763.2</ele>
        <time>2021-10-14T12:30:21Z</time>
      </trkpt>
      <trkpt lat="44.13389" lon="3.25169">
        <ele>763.4</ele>
        <time>2021-10-14T12:30:23Z</time>
      </trkpt>
      <trkpt lat="44.13391" lon="3.25171">
        <ele>763.6</ele>
        <time>2021-10-14T12:30:24Z</time>
      </trkpt>
      <trkpt lat="44.13394" lon="3.25173">
        <ele>763.8</ele>
        <time>2021-10-14T12:30:26Z</time>
      </trkpt>
      <trkpt lat="44.13397" lon="3.25176">
        <ele>764</ele>
        <time>2021-10-14T12:30:27Z</time>
      </trkpt>
      <trkpt lat="44.134" lon="3.25178">
        <ele>764.2</ele>
        <time>2021-10-14T12:30:28Z</time>
      </trkpt>
      <trkpt lat="44.13401" lon="3.25179">
        <ele>764.2</ele>
        <time>2021-10-14T12:30:29Z</time>
      </trkpt>
      <trkpt lat="44.13403" lon="3.25181">
        <ele>764.4</ele>
        <time>2021-10-14T12:30:30Z</time>
      </trkpt>
      <trkpt lat="44.13406" lon="3.25184">
        <ele>764.6</ele>
        <time>2021-10-14T12:30:32Z</time>
      </trkpt>
      <trkpt lat="44.13408" lon="3.25186">
        <ele>764.7</ele>
        <time>2021-10-14T12:30:33Z</time>
      </trkpt>
      <trkpt lat="44.13412" lon="3.25189">
        <ele>764.9</ele>
        <time>2021-10-14T12:30:35Z</time>
      </trkpt>
      <trkpt lat="44.13414" lon="3.25191">
        <ele>765.1</ele>
        <time>2021-10-14T12:30:36Z</time>
      </trkpt>
      <trkpt lat="44.13417" lon="3.25194">
        <ele>765.3</ele>
        <time>2021-10-14T12:30:38Z</time>
      </trkpt>
      <trkpt lat="44.13419" lon="3.25196">
        <ele>765.5</ele>
        <time>2021-10-14T12:30:39Z</time>
      </trkpt>
      <trkpt lat="44.13423" lon="3.25198">
        <ele>765.7</ele>
        <time>2021-10-14T12:30:41Z</time>
      </trkpt>
      <trkpt lat="44.13426" lon="3.252">
        <ele>765.9</ele>
        <time>2021-10-14T12:30:42Z</time>
      </trkpt>
      <trkpt lat="44.1343" lon="3.25203">
        <ele>766.2</ele>
        <time>2021-10-14T12:30:44Z</time>
      </trkpt>
      <trkpt lat="44.13434" lon="3.25206">
        <ele>766.4</ele>
        <time>2021-10-14T12:30:46Z</time>
      </trkpt>
      <trkpt lat="44.13436" lon="3.25207">
        <ele>766.6</ele>
        <time>2021-10-14T12:30:47Z</time>
      </trkpt>
      <trkpt lat="44.1344" lon="3.25211">
        <ele>766.9</ele>
        <time>2021-10-14T12:30:49Z</time>
      </trkpt>
      <trkpt lat="44.13442" lon="3.25213">
        <ele>767</ele>
        <time>2021-10-14T12:30:50Z</time>
      </trkpt>
      <trkpt lat="44.13445" lon="3.25217">
        <ele>767.2</ele>
        <time>2021-10-14T12:30:52Z</time>
      </trkpt>
      <trkpt lat="44.1345" lon="3.2522">
        <ele>767.5</ele>
        <time>2021-10-14T12:30:54Z</time>
      </trkpt>
      <trkpt lat="44.13452" lon="3.25222">
        <ele>767.6</ele>
        <time>2021-10-14T12:30:55Z</time>
      </trkpt>
      <trkpt lat="44.13455" lon="3.25225">
        <ele>767.9</ele>
        <time>2021-10-14T12:30:57Z</time>
      </trkpt>
      <trkpt lat="44.13459" lon="3.25229">
        <ele>768.2</ele>
        <time>2021-10-14T12:30:59Z</time>
      </trkpt>
      <trkpt lat="44.13462" lon="3.25234">
        <ele>768.4</ele>
        <time>2021-10-14T12:31:01Z</time>
      </trkpt>
      <trkpt lat="44.13466" lon="3.25237">
        <ele>768.7</ele>
        <time>2021-10-14T12:31:03Z</time>
      </trkpt>
      <trkpt lat="44.13468" lon="3.2524">
        <ele>768.8</ele>
        <time>2021-10-14T12:31:05Z</time>
      </trkpt>
      <trkpt lat="44.1347" lon="3.25241">
        <ele>769</ele>
        <time>2021-10-14T12:31:06Z</time>
      </trkpt>
      <trkpt lat="44.13472" lon="3.25245">
        <ele>769.1</ele>
        <time>2021-10-14T12:31:08Z</time>
      </trkpt>
      <trkpt lat="44.13474" lon="3.25246">
        <ele>769.2</ele>
        <time>2021-10-14T12:31:09Z</time>
      </trkpt>
      <trkpt lat="44.13477" lon="3.2525">
        <ele>769.5</ele>
        <time>2021-10-14T12:31:11Z</time>
      </trkpt>
      <trkpt lat="44.13479" lon="3.25252">
        <ele>769.6</ele>
        <time>2021-10-14T12:31:12Z</time>
      </trkpt>
      <trkpt lat="44.13483" lon="3.25255">
        <ele>769.8</ele>
        <time>2021-10-14T12:31:14Z</time>
      </trkpt>
      <trkpt lat="44.13485" lon="3.25258">
        <ele>770</ele>
        <time>2021-10-14T12:31:15Z</time>
      </trkpt>
      <trkpt lat="44.13486" lon="3.25258">
        <ele>770</ele>
        <time>2021-10-14T12:31:16Z</time>
      </trkpt>
      <trkpt lat="44.13489" lon="3.25261">
        <ele>770.2</ele>
        <time>2021-10-14T12:31:18Z</time>
      </trkpt>
      <trkpt lat="44.13491" lon="3.25263">
        <ele>770.3</ele>
        <time>2021-10-14T12:31:19Z</time>
      </trkpt>
      <trkpt lat="44.13493" lon="3.25266">
        <ele>770.5</ele>
        <time>2021-10-14T12:31:21Z</time>
      </trkpt>
      <trkpt lat="44.13494" lon="3.25267">
        <ele>770.5</ele>
        <time>2021-10-14T12:31:22Z</time>
      </trkpt>
      <trkpt lat="44.13497" lon="3.25271">
        <ele>770.7</ele>
        <time>2021-10-14T12:31:24Z</time>
      </trkpt>
      <trkpt lat="44.135" lon="3.25274">
        <ele>770.9</ele>
        <time>2021-10-14T12:31:26Z</time>
      </trkpt>
      <trkpt lat="44.13503" lon="3.25277">
        <ele>771.1</ele>
        <time>2021-10-14T12:31:27Z</time>
      </trkpt>
      <trkpt lat="44.13504" lon="3.25278">
        <ele>771.1</ele>
        <time>2021-10-14T12:31:28Z</time>
      </trkpt>
      <trkpt lat="44.13505" lon="3.25282">
        <ele>771.3</ele>
        <time>2021-10-14T12:31:30Z</time>
      </trkpt>
      <trkpt lat="44.13507" lon="3.25285">
        <ele>771.4</ele>
        <time>2021-10-14T12:31:31Z</time>
      </trkpt>
      <trkpt lat="44.1351" lon="3.25288">
        <ele>771.6</ele>
        <time>2021-10-14T12:31:32Z</time>
      </trkpt>
      <trkpt lat="44.13512" lon="3.25291">
        <ele>771.7</ele>
        <time>2021-10-14T12:31:33Z</time>
      </trkpt>
      <trkpt lat="44.13515" lon="3.25295">
        <ele>771.9</ele>
        <time>2021-10-14T12:31:35Z</time>
      </trkpt>
      <trkpt lat="44.13518" lon="3.25299">
        <ele>772.1</ele>
        <time>2021-10-14T12:31:36Z</time>
      </trkpt>
      <trkpt lat="44.13519" lon="3.25301">
        <ele>772.2</ele>
        <time>2021-10-14T12:31:37Z</time>
      </trkpt>
      <trkpt lat="44.13523" lon="3.25305">
        <ele>772.4</ele>
        <time>2021-10-14T12:31:39Z</time>
      </trkpt>
      <trkpt lat="44.13525" lon="3.25307">
        <ele>772.5</ele>
        <time>2021-10-14T12:31:40Z</time>
      </trkpt>
      <trkpt lat="44.13528" lon="3.25311">
        <ele>772.8</ele>
        <time>2021-10-14T12:31:42Z</time>
      </trkpt>
      <trkpt lat="44.13531" lon="3.25314">
        <ele>772.9</ele>
        <time>2021-10-14T12:31:43Z</time>
      </trkpt>
      <trkpt lat="44.13532" lon="3.25315">
        <ele>773</ele>
        <time>2021-10-14T12:31:44Z</time>
      </trkpt>
      <trkpt lat="44.13535" lon="3.25319">
        <ele>773.2</ele>
        <time>2021-10-14T12:31:46Z</time>
      </trkpt>
      <trkpt lat="44.13538" lon="3.25323">
        <ele>773.3</ele>
        <time>2021-10-14T12:31:48Z</time>
      </trkpt>
      <trkpt lat="44.1354" lon="3.25325">
        <ele>773.4</ele>
        <time>2021-10-14T12:31:49Z</time>
      </trkpt>
      <trkpt lat="44.13544" lon="3.25329">
        <ele>773.7</ele>
        <time>2021-10-14T12:31:51Z</time>
      </trkpt>
      <trkpt lat="44.13547" lon="3.25333">
        <ele>773.8</ele>
        <time>2021-10-14T12:31:53Z</time>
      </trkpt>
      <trkpt lat="44.13549" lon="3.25335">
        <ele>773.9</ele>
        <time>2021-10-14T12:31:54Z</time>
      </trkpt>
      <trkpt lat="44.13552" lon="3.25339">
        <ele>774.1</ele>
        <time>2021-10-14T12:31:56Z</time>
      </trkpt>
      <trkpt lat="44.13554" lon="3.25341">
        <ele>774.2</ele>
        <time>2021-10-14T12:31:57Z</time>
      </trkpt>
      <trkpt lat="44.13558" lon="3.25346">
        <ele>774.4</ele>
        <time>2021-10-14T12:31:59Z</time>
      </trkpt>
      <trkpt lat="44.13561" lon="3.25349">
        <ele>774.5</ele>
        <time>2021-10-14T12:32:00Z</time>
      </trkpt>
      <trkpt lat="44.13564" lon="3.25354">
        <ele>774.7</ele>
        <time>2021-10-14T12:32:02Z</time>
      </trkpt>
      <trkpt lat="44.13568" lon="3.25359">
        <ele>774.8</ele>
        <time>2021-10-14T12:32:04Z</time>
      </trkpt>
      <trkpt lat="44.13571" lon="3.25361">
        <ele>774.7</ele>
        <time>2021-10-14T12:32:06Z</time>
      </trkpt>
      <trkpt lat="44.13574" lon="3.25363">
        <ele>774.5</ele>
        <time>2021-10-14T12:32:07Z</time>
      </trkpt>
      <trkpt lat="44.13576" lon="3.25364">
        <ele>774.3</ele>
        <time>2021-10-14T12:32:08Z</time>
      </trkpt>
      <trkpt lat="44.13581" lon="3.25366">
        <ele>774.1</ele>
        <time>2021-10-14T12:32:10Z</time>
      </trkpt>
      <trkpt lat="44.13585" lon="3.25367">
        <ele>773.8</ele>
        <time>2021-10-14T12:32:11Z</time>
      </trkpt>
      <trkpt lat="44.13594" lon="3.25369">
        <ele>773.5</ele>
        <time>2021-10-14T12:32:12Z</time>
      </trkpt>
      <trkpt lat="44.13598" lon="3.25366">
        <ele>773.4</ele>
        <time>2021-10-14T12:32:14Z</time>
      </trkpt>
      <trkpt lat="44.13603" lon="3.25366">
        <ele>773.5</ele>
        <time>2021-10-14T12:32:15Z</time>
      </trkpt>
      <trkpt lat="44.13607" lon="3.25367">
        <ele>773.6</ele>
        <time>2021-10-14T12:32:16Z</time>
      </trkpt>
      <trkpt lat="44.13613" lon="3.25367">
        <ele>773.9</ele>
        <time>2021-10-14T12:32:17Z</time>
      </trkpt>
      <trkpt lat="44.13618" lon="3.25366">
        <ele>774.2</ele>
        <time>2021-10-14T12:32:18Z</time>
      </trkpt>
      <trkpt lat="44.13623" lon="3.25365">
        <ele>774.7</ele>
        <time>2021-10-14T12:32:20Z</time>
      </trkpt>
      <trkpt lat="44.13627" lon="3.25364">
        <ele>775.1</ele>
        <time>2021-10-14T12:32:21Z</time>
      </trkpt>
      <trkpt lat="44.13631" lon="3.25363">
        <ele>775.5</ele>
        <time>2021-10-14T12:32:23Z</time>
      </trkpt>
      <trkpt lat="44.13633" lon="3.25361">
        <ele>775.8</ele>
        <time>2021-10-14T12:32:24Z</time>
      </trkpt>
      <trkpt lat="44.13637" lon="3.25359">
        <ele>776.2</ele>
        <time>2021-10-14T12:32:26Z</time>
      </trkpt>
      <trkpt lat="44.13638" lon="3.25358">
        <ele>776.4</ele>
        <time>2021-10-14T12:32:27Z</time>
      </trkpt>
      <trkpt lat="44.13641" lon="3.25357">
        <ele>776.7</ele>
        <time>2021-10-14T12:32:28Z</time>
      </trkpt>
      <trkpt lat="44.13642" lon="3.25357">
        <ele>776.9</ele>
        <time>2021-10-14T12:32:30Z</time>
      </trkpt>
      <trkpt lat="44.13644" lon="3.25357">
        <ele>777.1</ele>
        <time>2021-10-14T12:32:31Z</time>
      </trkpt>
      <trkpt lat="44.13645" lon="3.25357">
        <ele>777.3</ele>
        <time>2021-10-14T12:32:32Z</time>
      </trkpt>
      <trkpt lat="44.13647" lon="3.25356">
        <ele>777.5</ele>
        <time>2021-10-14T12:32:34Z</time>
      </trkpt>
      <trkpt lat="44.13648" lon="3.25355">
        <ele>777.6</ele>
        <time>2021-10-14T12:32:35Z</time>
      </trkpt>
      <trkpt lat="44.13649" lon="3.25355">
        <ele>777.8</ele>
        <time>2021-10-14T12:32:36Z</time>
      </trkpt>
      <trkpt lat="44.13651" lon="3.25354">
        <ele>777.9</ele>
        <time>2021-10-14T12:32:37Z</time>
      </trkpt>
      <trkpt lat="44.13654" lon="3.25353">
        <ele>778.2</ele>
        <time>2021-10-14T12:32:39Z</time>
      </trkpt>
      <trkpt lat="44.13656" lon="3.25355">
        <ele>778.5</ele>
        <time>2021-10-14T12:32:40Z</time>
      </trkpt>
      <trkpt lat="44.13657" lon="3.25356">
        <ele>778.6</ele>
        <time>2021-10-14T12:32:41Z</time>
      </trkpt>
      <trkpt lat="44.1366" lon="3.25357">
        <ele>778.9</ele>
        <time>2021-10-14T12:32:43Z</time>
      </trkpt>
      <trkpt lat="44.13661" lon="3.25357">
        <ele>778.9</ele>
        <time>2021-10-14T12:32:44Z</time>
      </trkpt>
      <trkpt lat="44.13663" lon="3.25357">
        <ele>779.1</ele>
        <time>2021-10-14T12:32:45Z</time>
      </trkpt>
      <trkpt lat="44.13665" lon="3.25357">
        <ele>779.3</ele>
        <time>2021-10-14T12:32:47Z</time>
      </trkpt>
      <trkpt lat="44.13666" lon="3.25357">
        <ele>779.4</ele>
        <time>2021-10-14T12:32:48Z</time>
      </trkpt>
      <trkpt lat="44.13668" lon="3.25357">
        <ele>779.5</ele>
        <time>2021-10-14T12:32:49Z</time>
      </trkpt>
      <trkpt lat="44.1367" lon="3.25357">
        <ele>779.6</ele>
        <time>2021-10-14T12:32:50Z</time>
      </trkpt>
      <trkpt lat="44.13672" lon="3.25356">
        <ele>779.7</ele>
        <time>2021-10-14T12:32:52Z</time>
      </trkpt>
      <trkpt lat="44.13674" lon="3.25357">
        <ele>779.9</ele>
        <time>2021-10-14T12:32:53Z</time>
      </trkpt>
      <trkpt lat="44.13675" lon="3.25357">
        <ele>780</ele>
        <time>2021-10-14T12:32:55Z</time>
      </trkpt>
      <trkpt lat="44.13677" lon="3.25357">
        <ele>780.1</ele>
        <time>2021-10-14T12:32:56Z</time>
      </trkpt>
      <trkpt lat="44.1368" lon="3.25356">
        <ele>780.3</ele>
        <time>2021-10-14T12:32:58Z</time>
      </trkpt>
      <trkpt lat="44.13684" lon="3.25356">
        <ele>780.6</ele>
        <time>2021-10-14T12:32:59Z</time>
      </trkpt>
      <trkpt lat="44.13685" lon="3.25356">
        <ele>780.7</ele>
        <time>2021-10-14T12:33:00Z</time>
      </trkpt>
      <trkpt lat="44.13689" lon="3.25357">
        <ele>781</ele>
        <time>2021-10-14T12:33:02Z</time>
      </trkpt>
      <trkpt lat="44.13691" lon="3.25356">
        <ele>781.2</ele>
        <time>2021-10-14T12:33:03Z</time>
      </trkpt>
      <trkpt lat="44.13693" lon="3.25356">
        <ele>781.3</ele>
        <time>2021-10-14T12:33:04Z</time>
      </trkpt>
      <trkpt lat="44.13695" lon="3.25355">
        <ele>781.5</ele>
        <time>2021-10-14T12:33:05Z</time>
      </trkpt>
      <trkpt lat="44.13699" lon="3.25353">
        <ele>781.8</ele>
        <time>2021-10-14T12:33:06Z</time>
      </trkpt>
      <trkpt lat="44.13702" lon="3.25353">
        <ele>782.1</ele>
        <time>2021-10-14T12:33:08Z</time>
      </trkpt>
      <trkpt lat="44.13703" lon="3.25353">
        <ele>782.1</ele>
        <time>2021-10-14T12:33:09Z</time>
      </trkpt>
      <trkpt lat="44.13707" lon="3.25353">
        <ele>782.4</ele>
        <time>2021-10-14T12:33:10Z</time>
      </trkpt>
      <trkpt lat="44.13708" lon="3.25353">
        <ele>782.5</ele>
        <time>2021-10-14T12:33:11Z</time>
      </trkpt>
      <trkpt lat="44.1371" lon="3.25352">
        <ele>782.7</ele>
        <time>2021-10-14T12:33:12Z</time>
      </trkpt>
      <trkpt lat="44.13712" lon="3.25352">
        <ele>782.8</ele>
        <time>2021-10-14T12:33:14Z</time>
      </trkpt>
      <trkpt lat="44.13715" lon="3.25352">
        <ele>783</ele>
        <time>2021-10-14T12:33:15Z</time>
      </trkpt>
      <trkpt lat="44.13716" lon="3.25352">
        <ele>783.1</ele>
        <time>2021-10-14T12:33:16Z</time>
      </trkpt>
      <trkpt lat="44.13719" lon="3.25352">
        <ele>783.4</ele>
        <time>2021-10-14T12:33:18Z</time>
      </trkpt>
      <trkpt lat="44.13721" lon="3.25352">
        <ele>783.5</ele>
        <time>2021-10-14T12:33:19Z</time>
      </trkpt>
      <trkpt lat="44.13724" lon="3.25352">
        <ele>783.7</ele>
        <time>2021-10-14T12:33:21Z</time>
      </trkpt>
      <trkpt lat="44.13726" lon="3.25351">
        <ele>783.9</ele>
        <time>2021-10-14T12:33:22Z</time>
      </trkpt>
      <trkpt lat="44.13729" lon="3.2535">
        <ele>784.1</ele>
        <time>2021-10-14T12:33:23Z</time>
      </trkpt>
      <trkpt lat="44.13731" lon="3.2535">
        <ele>784.2</ele>
        <time>2021-10-14T12:33:25Z</time>
      </trkpt>
      <trkpt lat="44.13734" lon="3.2535">
        <ele>784.4</ele>
        <time>2021-10-14T12:33:26Z</time>
      </trkpt>
      <trkpt lat="44.13735" lon="3.2535">
        <ele>784.5</ele>
        <time>2021-10-14T12:33:27Z</time>
      </trkpt>
      <trkpt lat="44.13738" lon="3.25349">
        <ele>784.7</ele>
        <time>2021-10-14T12:33:28Z</time>
      </trkpt>
      <trkpt lat="44.13742" lon="3.25349">
        <ele>784.9</ele>
        <time>2021-10-14T12:33:30Z</time>
      </trkpt>
      <trkpt lat="44.13744" lon="3.25349">
        <ele>785.1</ele>
        <time>2021-10-14T12:33:31Z</time>
      </trkpt>
      <trkpt lat="44.13745" lon="3.25349">
        <ele>785.2</ele>
        <time>2021-10-14T12:33:32Z</time>
      </trkpt>
      <trkpt lat="44.13748" lon="3.25349">
        <ele>785.4</ele>
        <time>2021-10-14T12:33:33Z</time>
      </trkpt>
      <trkpt lat="44.13749" lon="3.25349">
        <ele>785.4</ele>
        <time>2021-10-14T12:33:34Z</time>
      </trkpt>
      <trkpt lat="44.13751" lon="3.25349">
        <ele>785.6</ele>
        <time>2021-10-14T12:33:35Z</time>
      </trkpt>
      <trkpt lat="44.13752" lon="3.25349">
        <ele>785.7</ele>
        <time>2021-10-14T12:33:37Z</time>
      </trkpt>
      <trkpt lat="44.13754" lon="3.25348">
        <ele>785.8</ele>
        <time>2021-10-14T12:33:38Z</time>
      </trkpt>
      <trkpt lat="44.13756" lon="3.25348">
        <ele>786</ele>
        <time>2021-10-14T12:33:40Z</time>
      </trkpt>
      <trkpt lat="44.13759" lon="3.25347">
        <ele>786.2</ele>
        <time>2021-10-14T12:33:41Z</time>
      </trkpt>
      <trkpt lat="44.1376" lon="3.25347">
        <ele>786.3</ele>
        <time>2021-10-14T12:33:42Z</time>
      </trkpt>
      <trkpt lat="44.13764" lon="3.25347">
        <ele>786.5</ele>
        <time>2021-10-14T12:33:44Z</time>
      </trkpt>
      <trkpt lat="44.13765" lon="3.25347">
        <ele>786.6</ele>
        <time>2021-10-14T12:33:45Z</time>
      </trkpt>
      <trkpt lat="44.13768" lon="3.25347">
        <ele>786.9</ele>
        <time>2021-10-14T12:33:47Z</time>
      </trkpt>
      <trkpt lat="44.13772" lon="3.25346">
        <ele>787.1</ele>
        <time>2021-10-14T12:33:49Z</time>
      </trkpt>
      <trkpt lat="44.13775" lon="3.25345">
        <ele>787.4</ele>
        <time>2021-10-14T12:33:50Z</time>
      </trkpt>
      <trkpt lat="44.13778" lon="3.25345">
        <ele>787.6</ele>
        <time>2021-10-14T12:33:52Z</time>
      </trkpt>
      <trkpt lat="44.13781" lon="3.25343">
        <ele>787.9</ele>
        <time>2021-10-14T12:33:53Z</time>
      </trkpt>
      <trkpt lat="44.13784" lon="3.25342">
        <ele>788.1</ele>
        <time>2021-10-14T12:33:54Z</time>
      </trkpt>
      <trkpt lat="44.13788" lon="3.2534">
        <ele>788.5</ele>
        <time>2021-10-14T12:33:56Z</time>
      </trkpt>
      <trkpt lat="44.13791" lon="3.25339">
        <ele>788.8</ele>
        <time>2021-10-14T12:33:57Z</time>
      </trkpt>
      <trkpt lat="44.13792" lon="3.25339">
        <ele>788.8</ele>
        <time>2021-10-14T12:33:58Z</time>
      </trkpt>
      <trkpt lat="44.13793" lon="3.25339">
        <ele>789</ele>
        <time>2021-10-14T12:33:59Z</time>
      </trkpt>
      <trkpt lat="44.13796" lon="3.2534">
        <ele>789.3</ele>
        <time>2021-10-14T12:34:01Z</time>
      </trkpt>
      <trkpt lat="44.13799" lon="3.2534">
        <ele>789.5</ele>
        <time>2021-10-14T12:34:02Z</time>
      </trkpt>
      <trkpt lat="44.138" lon="3.25339">
        <ele>789.6</ele>
        <time>2021-10-14T12:34:03Z</time>
      </trkpt>
      <trkpt lat="44.13804" lon="3.25338">
        <ele>790</ele>
        <time>2021-10-14T12:34:05Z</time>
      </trkpt>
      <trkpt lat="44.13806" lon="3.25337">
        <ele>790.1</ele>
        <time>2021-10-14T12:34:06Z</time>
      </trkpt>
      <trkpt lat="44.13807" lon="3.25337">
        <ele>790.2</ele>
        <time>2021-10-14T12:34:07Z</time>
      </trkpt>
      <trkpt lat="44.13809" lon="3.25337">
        <ele>790.4</ele>
        <time>2021-10-14T12:34:08Z</time>
      </trkpt>
      <trkpt lat="44.13811" lon="3.25335">
        <ele>790.6</ele>
        <time>2021-10-14T12:34:10Z</time>
      </trkpt>
      <trkpt lat="44.13813" lon="3.25334">
        <ele>790.8</ele>
        <time>2021-10-14T12:34:12Z</time>
      </trkpt>
      <trkpt lat="44.13814" lon="3.25333">
        <ele>790.9</ele>
        <time>2021-10-14T12:34:13Z</time>
      </trkpt>
      <trkpt lat="44.13818" lon="3.25332">
        <ele>791.3</ele>
        <time>2021-10-14T12:34:15Z</time>
      </trkpt>
      <trkpt lat="44.13818" lon="3.25332">
        <ele>791.3</ele>
        <time>2021-10-14T12:34:16Z</time>
      </trkpt>
      <trkpt lat="44.1382" lon="3.25332">
        <ele>791.5</ele>
        <time>2021-10-14T12:34:17Z</time>
      </trkpt>
      <trkpt lat="44.13822" lon="3.25332">
        <ele>791.7</ele>
        <time>2021-10-14T12:34:18Z</time>
      </trkpt>
      <trkpt lat="44.13824" lon="3.25331">
        <ele>791.8</ele>
        <time>2021-10-14T12:34:19Z</time>
      </trkpt>
      <trkpt lat="44.13826" lon="3.2533">
        <ele>792.1</ele>
        <time>2021-10-14T12:34:21Z</time>
      </trkpt>
      <trkpt lat="44.13829" lon="3.25329">
        <ele>792.4</ele>
        <time>2021-10-14T12:34:22Z</time>
      </trkpt>
      <trkpt lat="44.1383" lon="3.25329">
        <ele>792.5</ele>
        <time>2021-10-14T12:34:23Z</time>
      </trkpt>
      <trkpt lat="44.13832" lon="3.25328">
        <ele>792.6</ele>
        <time>2021-10-14T12:34:25Z</time>
      </trkpt>
      <trkpt lat="44.13834" lon="3.25328">
        <ele>792.8</ele>
        <time>2021-10-14T12:34:26Z</time>
      </trkpt>
      <trkpt lat="44.13837" lon="3.25326">
        <ele>793.1</ele>
        <time>2021-10-14T12:34:27Z</time>
      </trkpt>
      <trkpt lat="44.13838" lon="3.25326">
        <ele>793.2</ele>
        <time>2021-10-14T12:34:28Z</time>
      </trkpt>
      <trkpt lat="44.13841" lon="3.25324">
        <ele>793.4</ele>
        <time>2021-10-14T12:34:29Z</time>
      </trkpt>
      <trkpt lat="44.13842" lon="3.25323">
        <ele>793.5</ele>
        <time>2021-10-14T12:34:30Z</time>
      </trkpt>
      <trkpt lat="44.13844" lon="3.25322">
        <ele>793.7</ele>
        <time>2021-10-14T12:34:32Z</time>
      </trkpt>
      <trkpt lat="44.13845" lon="3.25321">
        <ele>793.8</ele>
        <time>2021-10-14T12:34:33Z</time>
      </trkpt>
      <trkpt lat="44.13848" lon="3.25319">
        <ele>794</ele>
        <time>2021-10-14T12:34:34Z</time>
      </trkpt>
      <trkpt lat="44.13849" lon="3.25319">
        <ele>794.1</ele>
        <time>2021-10-14T12:34:35Z</time>
      </trkpt>
      <trkpt lat="44.13853" lon="3.25317">
        <ele>794.5</ele>
        <time>2021-10-14T12:34:37Z</time>
      </trkpt>
      <trkpt lat="44.13855" lon="3.25316">
        <ele>794.5</ele>
        <time>2021-10-14T12:34:39Z</time>
      </trkpt>
      <trkpt lat="44.13856" lon="3.25315">
        <ele>794.5</ele>
        <time>2021-10-14T12:34:40Z</time>
      </trkpt>
      <trkpt lat="44.13857" lon="3.25314">
        <ele>794.6</ele>
        <time>2021-10-14T12:34:41Z</time>
      </trkpt>
      <trkpt lat="44.13858" lon="3.25311">
        <ele>794.6</ele>
        <time>2021-10-14T12:34:43Z</time>
      </trkpt>
      <trkpt lat="44.13859" lon="3.25309">
        <ele>794.7</ele>
        <time>2021-10-14T12:34:44Z</time>
      </trkpt>
      <trkpt lat="44.13859" lon="3.25307">
        <ele>794.7</ele>
        <time>2021-10-14T12:34:45Z</time>
      </trkpt>
      <trkpt lat="44.1386" lon="3.25305">
        <ele>794.8</ele>
        <time>2021-10-14T12:34:46Z</time>
      </trkpt>
      <trkpt lat="44.13861" lon="3.25301">
        <ele>794.9</ele>
        <time>2021-10-14T12:34:48Z</time>
      </trkpt>
      <trkpt lat="44.13862" lon="3.25297">
        <ele>795</ele>
        <time>2021-10-14T12:34:49Z</time>
      </trkpt>
      <trkpt lat="44.13862" lon="3.25295">
        <ele>795</ele>
        <time>2021-10-14T12:34:50Z</time>
      </trkpt>
      <trkpt lat="44.13863" lon="3.25292">
        <ele>795.1</ele>
        <time>2021-10-14T12:34:52Z</time>
      </trkpt>
      <trkpt lat="44.13865" lon="3.25288">
        <ele>795.2</ele>
        <time>2021-10-14T12:34:53Z</time>
      </trkpt>
      <trkpt lat="44.13866" lon="3.25284">
        <ele>795.3</ele>
        <time>2021-10-14T12:34:54Z</time>
      </trkpt>
      <trkpt lat="44.13867" lon="3.2528">
        <ele>795.3</ele>
        <time>2021-10-14T12:34:55Z</time>
      </trkpt>
      <trkpt lat="44.13868" lon="3.25278">
        <ele>795.4</ele>
        <time>2021-10-14T12:34:56Z</time>
      </trkpt>
      <trkpt lat="44.13869" lon="3.25274">
        <ele>795.4</ele>
        <time>2021-10-14T12:34:57Z</time>
      </trkpt>
      <trkpt lat="44.1387" lon="3.25273">
        <ele>795.4</ele>
        <time>2021-10-14T12:34:58Z</time>
      </trkpt>
      <trkpt lat="44.13871" lon="3.25268">
        <ele>795.4</ele>
        <time>2021-10-14T12:35:00Z</time>
      </trkpt>
      <trkpt lat="44.13872" lon="3.25264">
        <ele>795.5</ele>
        <time>2021-10-14T12:35:01Z</time>
      </trkpt>
      <trkpt lat="44.13873" lon="3.2526">
        <ele>795.5</ele>
        <time>2021-10-14T12:35:02Z</time>
      </trkpt>
      <trkpt lat="44.13873" lon="3.25256">
        <ele>795.4</ele>
        <time>2021-10-14T12:35:03Z</time>
      </trkpt>
      <trkpt lat="44.13874" lon="3.25252">
        <ele>795.4</ele>
        <time>2021-10-14T12:35:04Z</time>
      </trkpt>
      <trkpt lat="44.13874" lon="3.25247">
        <ele>795.4</ele>
        <time>2021-10-14T12:35:06Z</time>
      </trkpt>
      <trkpt lat="44.13874" lon="3.25241">
        <ele>795.3</ele>
        <time>2021-10-14T12:35:07Z</time>
      </trkpt>
      <trkpt lat="44.13875" lon="3.25237">
        <ele>795.2</ele>
        <time>2021-10-14T12:35:08Z</time>
      </trkpt>
      <trkpt lat="44.13875" lon="3.25233">
        <ele>795.2</ele>
        <time>2021-10-14T12:35:10Z</time>
      </trkpt>
      <trkpt lat="44.13876" lon="3.25229">
        <ele>795.1</ele>
        <time>2021-10-14T12:35:11Z</time>
      </trkpt>
      <trkpt lat="44.13877" lon="3.25224">
        <ele>795</ele>
        <time>2021-10-14T12:35:12Z</time>
      </trkpt>
      <trkpt lat="44.13878" lon="3.25221">
        <ele>795</ele>
        <time>2021-10-14T12:35:13Z</time>
      </trkpt>
      <trkpt lat="44.13879" lon="3.25215">
        <ele>795</ele>
        <time>2021-10-14T12:35:15Z</time>
      </trkpt>
      <trkpt lat="44.1388" lon="3.25211">
        <ele>794.9</ele>
        <time>2021-10-14T12:35:16Z</time>
      </trkpt>
      <trkpt lat="44.1388" lon="3.25205">
        <ele>794.9</ele>
        <time>2021-10-14T12:35:17Z</time>
      </trkpt>
      <trkpt lat="44.13881" lon="3.25201">
        <ele>794.9</ele>
        <time>2021-10-14T12:35:18Z</time>
      </trkpt>
      <trkpt lat="44.13882" lon="3.25196">
        <ele>794.9</ele>
        <time>2021-10-14T12:35:19Z</time>
      </trkpt>
      <trkpt lat="44.13883" lon="3.25191">
        <ele>794.9</ele>
        <time>2021-10-14T12:35:20Z</time>
      </trkpt>
      <trkpt lat="44.13884" lon="3.25186">
        <ele>795</ele>
        <time>2021-10-14T12:35:21Z</time>
      </trkpt>
      <trkpt lat="44.13884" lon="3.2518">
        <ele>795</ele>
        <time>2021-10-14T12:35:23Z</time>
      </trkpt>
      <trkpt lat="44.13885" lon="3.25175">
        <ele>795.1</ele>
        <time>2021-10-14T12:35:24Z</time>
      </trkpt>
      <trkpt lat="44.13885" lon="3.25169">
        <ele>795.2</ele>
        <time>2021-10-14T12:35:25Z</time>
      </trkpt>
      <trkpt lat="44.13885" lon="3.2516">
        <ele>795.5</ele>
        <time>2021-10-14T12:35:27Z</time>
      </trkpt>
      <trkpt lat="44.13884" lon="3.25154">
        <ele>795.7</ele>
        <time>2021-10-14T12:35:29Z</time>
      </trkpt>
      <trkpt lat="44.13884" lon="3.2515">
        <ele>795.9</ele>
        <time>2021-10-14T12:35:30Z</time>
      </trkpt>
      <trkpt lat="44.13884" lon="3.25148">
        <ele>796</ele>
        <time>2021-10-14T12:35:31Z</time>
      </trkpt>
      <trkpt lat="44.13884" lon="3.25146">
        <ele>796.1</ele>
        <time>2021-10-14T12:35:32Z</time>
      </trkpt>
      <trkpt lat="44.13883" lon="3.25144">
        <ele>796.3</ele>
        <time>2021-10-14T12:35:34Z</time>
      </trkpt>
      <trkpt lat="44.13883" lon="3.25142">
        <ele>796.4</ele>
        <time>2021-10-14T12:35:35Z</time>
      </trkpt>
      <trkpt lat="44.13883" lon="3.2514">
        <ele>796.4</ele>
        <time>2021-10-14T12:35:36Z</time>
      </trkpt>
      <trkpt lat="44.13883" lon="3.25138">
        <ele>796.6</ele>
        <time>2021-10-14T12:35:38Z</time>
      </trkpt>
      <trkpt lat="44.13884" lon="3.25135">
        <ele>796.8</ele>
        <time>2021-10-14T12:35:39Z</time>
      </trkpt>
      <trkpt lat="44.13884" lon="3.25134">
        <ele>796.8</ele>
        <time>2021-10-14T12:35:40Z</time>
      </trkpt>
      <trkpt lat="44.13884" lon="3.25132">
        <ele>797</ele>
        <time>2021-10-14T12:35:42Z</time>
      </trkpt>
      <trkpt lat="44.13883" lon="3.2513">
        <ele>797.1</ele>
        <time>2021-10-14T12:35:43Z</time>
      </trkpt>
      <trkpt lat="44.13882" lon="3.25126">
        <ele>797.4</ele>
        <time>2021-10-14T12:35:44Z</time>
      </trkpt>
      <trkpt lat="44.13881" lon="3.25125">
        <ele>797.5</ele>
        <time>2021-10-14T12:35:45Z</time>
      </trkpt>
      <trkpt lat="44.1388" lon="3.25122">
        <ele>797.8</ele>
        <time>2021-10-14T12:35:47Z</time>
      </trkpt>
      <trkpt lat="44.13879" lon="3.2512">
        <ele>798</ele>
        <time>2021-10-14T12:35:48Z</time>
      </trkpt>
      <trkpt lat="44.13877" lon="3.25116">
        <ele>798.4</ele>
        <time>2021-10-14T12:35:50Z</time>
      </trkpt>
      <trkpt lat="44.13877" lon="3.25112">
        <ele>798.7</ele>
        <time>2021-10-14T12:35:51Z</time>
      </trkpt>
      <trkpt lat="44.13877" lon="3.25111">
        <ele>798.8</ele>
        <time>2021-10-14T12:35:52Z</time>
      </trkpt>
      <trkpt lat="44.13877" lon="3.25108">
        <ele>799</ele>
        <time>2021-10-14T12:35:53Z</time>
      </trkpt>
      <trkpt lat="44.13877" lon="3.25104">
        <ele>799.3</ele>
        <time>2021-10-14T12:35:55Z</time>
      </trkpt>
      <trkpt lat="44.13878" lon="3.251">
        <ele>799.6</ele>
        <time>2021-10-14T12:35:56Z</time>
      </trkpt>
      <trkpt lat="44.13879" lon="3.25097">
        <ele>799.8</ele>
        <time>2021-10-14T12:35:57Z</time>
      </trkpt>
      <trkpt lat="44.1388" lon="3.25094">
        <ele>800</ele>
        <time>2021-10-14T12:35:59Z</time>
      </trkpt>
      <trkpt lat="44.13881" lon="3.2509">
        <ele>800.3</ele>
        <time>2021-10-14T12:36:00Z</time>
      </trkpt>
      <trkpt lat="44.13882" lon="3.25088">
        <ele>800.4</ele>
        <time>2021-10-14T12:36:01Z</time>
      </trkpt>
      <trkpt lat="44.13884" lon="3.25082">
        <ele>800.8</ele>
        <time>2021-10-14T12:36:03Z</time>
      </trkpt>
      <trkpt lat="44.13885" lon="3.2508">
        <ele>800.9</ele>
        <time>2021-10-14T12:36:04Z</time>
      </trkpt>
      <trkpt lat="44.13886" lon="3.25078">
        <ele>801.1</ele>
        <time>2021-10-14T12:36:05Z</time>
      </trkpt>
      <trkpt lat="44.13887" lon="3.25074">
        <ele>801.3</ele>
        <time>2021-10-14T12:36:06Z</time>
      </trkpt>
      <trkpt lat="44.13889" lon="3.2507">
        <ele>801.5</ele>
        <time>2021-10-14T12:36:07Z</time>
      </trkpt>
      <trkpt lat="44.1389" lon="3.25067">
        <ele>801.7</ele>
        <time>2021-10-14T12:36:08Z</time>
      </trkpt>
      <trkpt lat="44.13891" lon="3.25061">
        <ele>801.9</ele>
        <time>2021-10-14T12:36:10Z</time>
      </trkpt>
      <trkpt lat="44.13892" lon="3.2506">
        <ele>802</ele>
        <time>2021-10-14T12:36:11Z</time>
      </trkpt>
      <trkpt lat="44.13893" lon="3.25058">
        <ele>802</ele>
        <time>2021-10-14T12:36:12Z</time>
      </trkpt>
      <trkpt lat="44.13895" lon="3.25056">
        <ele>802.2</ele>
        <time>2021-10-14T12:36:13Z</time>
      </trkpt>
      <trkpt lat="44.13897" lon="3.25052">
        <ele>802.3</ele>
        <time>2021-10-14T12:36:15Z</time>
      </trkpt>
      <trkpt lat="44.13899" lon="3.2505">
        <ele>802.4</ele>
        <time>2021-10-14T12:36:16Z</time>
      </trkpt>
      <trkpt lat="44.139" lon="3.25049">
        <ele>802.5</ele>
        <time>2021-10-14T12:36:17Z</time>
      </trkpt>
      <trkpt lat="44.13904" lon="3.25048">
        <ele>802.7</ele>
        <time>2021-10-14T12:36:19Z</time>
      </trkpt>
      <trkpt lat="44.13905" lon="3.25047">
        <ele>802.8</ele>
        <time>2021-10-14T12:36:20Z</time>
      </trkpt>
      <trkpt lat="44.13907" lon="3.25046">
        <ele>802.9</ele>
        <time>2021-10-14T12:36:21Z</time>
      </trkpt>
      <trkpt lat="44.13909" lon="3.25045">
        <ele>803</ele>
        <time>2021-10-14T12:36:23Z</time>
      </trkpt>
      <trkpt lat="44.13913" lon="3.25044">
        <ele>803.2</ele>
        <time>2021-10-14T12:36:24Z</time>
      </trkpt>
      <trkpt lat="44.13913" lon="3.25044">
        <ele>803.3</ele>
        <time>2021-10-14T12:36:25Z</time>
      </trkpt>
      <trkpt lat="44.13915" lon="3.25043">
        <ele>803.4</ele>
        <time>2021-10-14T12:36:26Z</time>
      </trkpt>
      <trkpt lat="44.13917" lon="3.25041">
        <ele>803.5</ele>
        <time>2021-10-14T12:36:27Z</time>
      </trkpt>
      <trkpt lat="44.13919" lon="3.25038">
        <ele>803.7</ele>
        <time>2021-10-14T12:36:29Z</time>
      </trkpt>
      <trkpt lat="44.1392" lon="3.25037">
        <ele>803.8</ele>
        <time>2021-10-14T12:36:30Z</time>
      </trkpt>
      <trkpt lat="44.13922" lon="3.25032">
        <ele>804</ele>
        <time>2021-10-14T12:36:31Z</time>
      </trkpt>
      <trkpt lat="44.13923" lon="3.25031">
        <ele>804.1</ele>
        <time>2021-10-14T12:36:32Z</time>
      </trkpt>
      <trkpt lat="44.13924" lon="3.25028">
        <ele>804.2</ele>
        <time>2021-10-14T12:36:33Z</time>
      </trkpt>
      <trkpt lat="44.13926" lon="3.25025">
        <ele>804.4</ele>
        <time>2021-10-14T12:36:35Z</time>
      </trkpt>
      <trkpt lat="44.13927" lon="3.25021">
        <ele>804.5</ele>
        <time>2021-10-14T12:36:36Z</time>
      </trkpt>
      <trkpt lat="44.13929" lon="3.25017">
        <ele>804.7</ele>
        <time>2021-10-14T12:36:38Z</time>
      </trkpt>
      <trkpt lat="44.13931" lon="3.25013">
        <ele>804.9</ele>
        <time>2021-10-14T12:36:39Z</time>
      </trkpt>
      <trkpt lat="44.13932" lon="3.25009">
        <ele>805</ele>
        <time>2021-10-14T12:36:40Z</time>
      </trkpt>
      <trkpt lat="44.13934" lon="3.25006">
        <ele>805.1</ele>
        <time>2021-10-14T12:36:42Z</time>
      </trkpt>
      <trkpt lat="44.13937" lon="3.25004">
        <ele>805.3</ele>
        <time>2021-10-14T12:36:43Z</time>
      </trkpt>
      <trkpt lat="44.13938" lon="3.25003">
        <ele>805.4</ele>
        <time>2021-10-14T12:36:44Z</time>
      </trkpt>
      <trkpt lat="44.13939" lon="3.25">
        <ele>805.5</ele>
        <time>2021-10-14T12:36:45Z</time>
      </trkpt>
      <trkpt lat="44.13942" lon="3.24998">
        <ele>805.6</ele>
        <time>2021-10-14T12:36:47Z</time>
      </trkpt>
      <trkpt lat="44.13944" lon="3.24994">
        <ele>805.8</ele>
        <time>2021-10-14T12:36:48Z</time>
      </trkpt>
      <trkpt lat="44.13945" lon="3.24993">
        <ele>805.8</ele>
        <time>2021-10-14T12:36:49Z</time>
      </trkpt>
      <trkpt lat="44.13947" lon="3.2499">
        <ele>806</ele>
        <time>2021-10-14T12:36:50Z</time>
      </trkpt>
      <trkpt lat="44.13951" lon="3.24986">
        <ele>806.2</ele>
        <time>2021-10-14T12:36:52Z</time>
      </trkpt>
      <trkpt lat="44.13953" lon="3.24984">
        <ele>806.3</ele>
        <time>2021-10-14T12:36:53Z</time>
      </trkpt>
      <trkpt lat="44.13957" lon="3.2498">
        <ele>806.5</ele>
        <time>2021-10-14T12:36:55Z</time>
      </trkpt>
      <trkpt lat="44.13959" lon="3.24977">
        <ele>806.7</ele>
        <time>2021-10-14T12:36:56Z</time>
      </trkpt>
      <trkpt lat="44.13961" lon="3.24975">
        <ele>806.8</ele>
        <time>2021-10-14T12:36:57Z</time>
      </trkpt>
      <trkpt lat="44.13964" lon="3.24972">
        <ele>807.1</ele>
        <time>2021-10-14T12:36:59Z</time>
      </trkpt>
      <trkpt lat="44.13969" lon="3.24969">
        <ele>807.4</ele>
        <time>2021-10-14T12:37:01Z</time>
      </trkpt>
      <trkpt lat="44.1397" lon="3.24967">
        <ele>807.6</ele>
        <time>2021-10-14T12:37:02Z</time>
      </trkpt>
      <trkpt lat="44.13972" lon="3.24966">
        <ele>807.7</ele>
        <time>2021-10-14T12:37:03Z</time>
      </trkpt>
      <trkpt lat="44.13974" lon="3.24963">
        <ele>807.9</ele>
        <time>2021-10-14T12:37:04Z</time>
      </trkpt>
      <trkpt lat="44.13977" lon="3.24961">
        <ele>808.2</ele>
        <time>2021-10-14T12:37:05Z</time>
      </trkpt>
      <trkpt lat="44.13978" lon="3.2496">
        <ele>808.2</ele>
        <time>2021-10-14T12:37:06Z</time>
      </trkpt>
      <trkpt lat="44.13979" lon="3.24958">
        <ele>808.4</ele>
        <time>2021-10-14T12:37:07Z</time>
      </trkpt>
      <trkpt lat="44.13982" lon="3.24954">
        <ele>808.7</ele>
        <time>2021-10-14T12:37:09Z</time>
      </trkpt>
      <trkpt lat="44.13985" lon="3.2495">
        <ele>808.9</ele>
        <time>2021-10-14T12:37:10Z</time>
      </trkpt>
      <trkpt lat="44.13986" lon="3.24949">
        <ele>809</ele>
        <time>2021-10-14T12:37:11Z</time>
      </trkpt>
      <trkpt lat="44.13988" lon="3.24946">
        <ele>809.1</ele>
        <time>2021-10-14T12:37:13Z</time>
      </trkpt>
      <trkpt lat="44.13991" lon="3.24943">
        <ele>809.2</ele>
        <time>2021-10-14T12:37:14Z</time>
      </trkpt>
      <trkpt lat="44.13993" lon="3.2494">
        <ele>809.3</ele>
        <time>2021-10-14T12:37:15Z</time>
      </trkpt>
      <trkpt lat="44.13994" lon="3.24939">
        <ele>809.3</ele>
        <time>2021-10-14T12:37:16Z</time>
      </trkpt>
      <trkpt lat="44.13997" lon="3.24937">
        <ele>809.4</ele>
        <time>2021-10-14T12:37:18Z</time>
      </trkpt>
      <trkpt lat="44.13999" lon="3.24933">
        <ele>809.5</ele>
        <time>2021-10-14T12:37:19Z</time>
      </trkpt>
      <trkpt lat="44.14001" lon="3.24929">
        <ele>809.6</ele>
        <time>2021-10-14T12:37:20Z</time>
      </trkpt>
      <trkpt lat="44.14002" lon="3.24928">
        <ele>809.6</ele>
        <time>2021-10-14T12:37:21Z</time>
      </trkpt>
      <trkpt lat="44.14005" lon="3.24923">
        <ele>809.8</ele>
        <time>2021-10-14T12:37:23Z</time>
      </trkpt>
      <trkpt lat="44.14007" lon="3.24918">
        <ele>809.9</ele>
        <time>2021-10-14T12:37:24Z</time>
      </trkpt>
      <trkpt lat="44.14008" lon="3.24916">
        <ele>810</ele>
        <time>2021-10-14T12:37:25Z</time>
      </trkpt>
      <trkpt lat="44.14009" lon="3.24912">
        <ele>810.1</ele>
        <time>2021-10-14T12:37:27Z</time>
      </trkpt>
      <trkpt lat="44.14012" lon="3.24908">
        <ele>810.2</ele>
        <time>2021-10-14T12:37:28Z</time>
      </trkpt>
      <trkpt lat="44.14013" lon="3.24903">
        <ele>810.4</ele>
        <time>2021-10-14T12:37:29Z</time>
      </trkpt>
      <trkpt lat="44.14014" lon="3.24902">
        <ele>810.4</ele>
        <time>2021-10-14T12:37:30Z</time>
      </trkpt>
      <trkpt lat="44.14015" lon="3.24898">
        <ele>810.6</ele>
        <time>2021-10-14T12:37:31Z</time>
      </trkpt>
      <trkpt lat="44.14016" lon="3.24894">
        <ele>810.7</ele>
        <time>2021-10-14T12:37:32Z</time>
      </trkpt>
      <trkpt lat="44.14017" lon="3.24889">
        <ele>810.8</ele>
        <time>2021-10-14T12:37:34Z</time>
      </trkpt>
      <trkpt lat="44.14017" lon="3.24884">
        <ele>811</ele>
        <time>2021-10-14T12:37:35Z</time>
      </trkpt>
      <trkpt lat="44.14018" lon="3.24879">
        <ele>811.2</ele>
        <time>2021-10-14T12:37:36Z</time>
      </trkpt>
      <trkpt lat="44.14019" lon="3.24875">
        <ele>811.3</ele>
        <time>2021-10-14T12:37:37Z</time>
      </trkpt>
      <trkpt lat="44.14019" lon="3.24869">
        <ele>811.5</ele>
        <time>2021-10-14T12:37:38Z</time>
      </trkpt>
      <trkpt lat="44.14019" lon="3.24863">
        <ele>811.7</ele>
        <time>2021-10-14T12:37:40Z</time>
      </trkpt>
      <trkpt lat="44.14019" lon="3.24857">
        <ele>811.8</ele>
        <time>2021-10-14T12:37:41Z</time>
      </trkpt>
      <trkpt lat="44.14018" lon="3.24852">
        <ele>811.9</ele>
        <time>2021-10-14T12:37:42Z</time>
      </trkpt>
      <trkpt lat="44.14017" lon="3.24848">
        <ele>811.9</ele>
        <time>2021-10-14T12:37:43Z</time>
      </trkpt>
      <trkpt lat="44.14016" lon="3.24844">
        <ele>811.9</ele>
        <time>2021-10-14T12:37:44Z</time>
      </trkpt>
      <trkpt lat="44.14011" lon="3.2484">
        <ele>812</ele>
        <time>2021-10-14T12:37:46Z</time>
      </trkpt>
      <trkpt lat="44.14009" lon="3.24839">
        <ele>812</ele>
        <time>2021-10-14T12:37:47Z</time>
      </trkpt>
      <trkpt lat="44.14007" lon="3.24839">
        <ele>812</ele>
        <time>2021-10-14T12:37:48Z</time>
      </trkpt>
      <trkpt lat="44.14004" lon="3.24838">
        <ele>812</ele>
        <time>2021-10-14T12:37:49Z</time>
      </trkpt>
      <trkpt lat="44.14001" lon="3.24839">
        <ele>812</ele>
        <time>2021-10-14T12:37:50Z</time>
      </trkpt>
      <trkpt lat="44.13998" lon="3.24839">
        <ele>812</ele>
        <time>2021-10-14T12:37:51Z</time>
      </trkpt>
      <trkpt lat="44.13994" lon="3.24837">
        <ele>811.9</ele>
        <time>2021-10-14T12:37:53Z</time>
      </trkpt>
      <trkpt lat="44.13989" lon="3.24836">
        <ele>811.9</ele>
        <time>2021-10-14T12:37:54Z</time>
      </trkpt>
      <trkpt lat="44.13985" lon="3.24834">
        <ele>811.9</ele>
        <time>2021-10-14T12:37:55Z</time>
      </trkpt>
      <trkpt lat="44.13976" lon="3.24831">
        <ele>811.7</ele>
        <time>2021-10-14T12:37:57Z</time>
      </trkpt>
      <trkpt lat="44.13972" lon="3.24833">
        <ele>811.5</ele>
        <time>2021-10-14T12:37:59Z</time>
      </trkpt>
      <trkpt lat="44.13963" lon="3.24829">
        <ele>811.2</ele>
        <time>2021-10-14T12:38:00Z</time>
      </trkpt>
      <trkpt lat="44.13958" lon="3.2483">
        <ele>811</ele>
        <time>2021-10-14T12:38:02Z</time>
      </trkpt>
      <trkpt lat="44.13953" lon="3.24824">
        <ele>810.8</ele>
        <time>2021-10-14T12:38:03Z</time>
      </trkpt>
      <trkpt lat="44.13949" lon="3.24822">
        <ele>810.7</ele>
        <time>2021-10-14T12:38:04Z</time>
      </trkpt>
      <trkpt lat="44.13948" lon="3.24819">
        <ele>810.7</ele>
        <time>2021-10-14T12:38:05Z</time>
      </trkpt>
      <trkpt lat="44.13945" lon="3.24816">
        <ele>810.7</ele>
        <time>2021-10-14T12:38:07Z</time>
      </trkpt>
      <trkpt lat="44.1394" lon="3.24811">
        <ele>810.6</ele>
        <time>2021-10-14T12:38:08Z</time>
      </trkpt>
      <trkpt lat="44.13935" lon="3.24807">
        <ele>810.6</ele>
        <time>2021-10-14T12:38:10Z</time>
      </trkpt>
      <trkpt lat="44.13931" lon="3.24803">
        <ele>810.5</ele>
        <time>2021-10-14T12:38:11Z</time>
      </trkpt>
      <trkpt lat="44.13927" lon="3.24799">
        <ele>810.4</ele>
        <time>2021-10-14T12:38:12Z</time>
      </trkpt>
      <trkpt lat="44.13922" lon="3.24794">
        <ele>810.3</ele>
        <time>2021-10-14T12:38:13Z</time>
      </trkpt>
      <trkpt lat="44.13917" lon="3.24787">
        <ele>810.1</ele>
        <time>2021-10-14T12:38:15Z</time>
      </trkpt>
      <trkpt lat="44.13912" lon="3.24781">
        <ele>810.1</ele>
        <time>2021-10-14T12:38:16Z</time>
      </trkpt>
      <trkpt lat="44.13905" lon="3.24774">
        <ele>809.9</ele>
        <time>2021-10-14T12:38:17Z</time>
      </trkpt>
      <trkpt lat="44.13901" lon="3.24766">
        <ele>809.8</ele>
        <time>2021-10-14T12:38:19Z</time>
      </trkpt>
      <trkpt lat="44.13901" lon="3.24759">
        <ele>809.6</ele>
        <time>2021-10-14T12:38:20Z</time>
      </trkpt>
      <trkpt lat="44.139" lon="3.24751">
        <ele>809.5</ele>
        <time>2021-10-14T12:38:21Z</time>
      </trkpt>
      <trkpt lat="44.13901" lon="3.24742">
        <ele>809.3</ele>
        <time>2021-10-14T12:38:23Z</time>
      </trkpt>
      <trkpt lat="44.13904" lon="3.24733">
        <ele>809.2</ele>
        <time>2021-10-14T12:38:24Z</time>
      </trkpt>
      <trkpt lat="44.13907" lon="3.24726">
        <ele>809.1</ele>
        <time>2021-10-14T12:38:26Z</time>
      </trkpt>
      <trkpt lat="44.13908" lon="3.24721">
        <ele>809.1</ele>
        <time>2021-10-14T12:38:27Z</time>
      </trkpt>
      <trkpt lat="44.1391" lon="3.24716">
        <ele>809.1</ele>
        <time>2021-10-14T12:38:28Z</time>
      </trkpt>
      <trkpt lat="44.13911" lon="3.2471">
        <ele>809.1</ele>
        <time>2021-10-14T12:38:29Z</time>
      </trkpt>
      <trkpt lat="44.13913" lon="3.24703">
        <ele>809.1</ele>
        <time>2021-10-14T12:38:31Z</time>
      </trkpt>
      <trkpt lat="44.13913" lon="3.24699">
        <ele>809.1</ele>
        <time>2021-10-14T12:38:32Z</time>
      </trkpt>
      <trkpt lat="44.13914" lon="3.24694">
        <ele>809.1</ele>
        <time>2021-10-14T12:38:33Z</time>
      </trkpt>
      <trkpt lat="44.13914" lon="3.24689">
        <ele>809.1</ele>
        <time>2021-10-14T12:38:34Z</time>
      </trkpt>
      <trkpt lat="44.13916" lon="3.24683">
        <ele>809</ele>
        <time>2021-10-14T12:38:36Z</time>
      </trkpt>
      <trkpt lat="44.13917" lon="3.24679">
        <ele>809</ele>
        <time>2021-10-14T12:38:37Z</time>
      </trkpt>
      <trkpt lat="44.1392" lon="3.24674">
        <ele>808.9</ele>
        <time>2021-10-14T12:38:38Z</time>
      </trkpt>
      <trkpt lat="44.13924" lon="3.24671">
        <ele>808.8</ele>
        <time>2021-10-14T12:38:39Z</time>
      </trkpt>
      <trkpt lat="44.13928" lon="3.24669">
        <ele>808.7</ele>
        <time>2021-10-14T12:38:41Z</time>
      </trkpt>
      <trkpt lat="44.13934" lon="3.2467">
        <ele>808.6</ele>
        <time>2021-10-14T12:38:42Z</time>
      </trkpt>
      <trkpt lat="44.13937" lon="3.24672">
        <ele>808.4</ele>
        <time>2021-10-14T12:38:43Z</time>
      </trkpt>
      <trkpt lat="44.1394" lon="3.24677">
        <ele>808.3</ele>
        <time>2021-10-14T12:38:45Z</time>
      </trkpt>
      <trkpt lat="44.13945" lon="3.24682">
        <ele>808</ele>
        <time>2021-10-14T12:38:46Z</time>
      </trkpt>
      <trkpt lat="44.13948" lon="3.24685">
        <ele>807.8</ele>
        <time>2021-10-14T12:38:47Z</time>
      </trkpt>
      <trkpt lat="44.13952" lon="3.24689">
        <ele>807.6</ele>
        <time>2021-10-14T12:38:49Z</time>
      </trkpt>
      <trkpt lat="44.13955" lon="3.24692">
        <ele>807.4</ele>
        <time>2021-10-14T12:38:50Z</time>
      </trkpt>
      <trkpt lat="44.13959" lon="3.24696">
        <ele>807.1</ele>
        <time>2021-10-14T12:38:51Z</time>
      </trkpt>
      <trkpt lat="44.13964" lon="3.247">
        <ele>806.9</ele>
        <time>2021-10-14T12:38:52Z</time>
      </trkpt>
      <trkpt lat="44.13977" lon="3.24706">
        <ele>806.5</ele>
        <time>2021-10-14T12:38:54Z</time>
      </trkpt>
      <trkpt lat="44.13983" lon="3.2471">
        <ele>806.4</ele>
        <time>2021-10-14T12:38:55Z</time>
      </trkpt>
      <trkpt lat="44.13994" lon="3.24709">
        <ele>806.4</ele>
        <time>2021-10-14T12:38:57Z</time>
      </trkpt>
      <trkpt lat="44.14003" lon="3.24701">
        <ele>806.5</ele>
        <time>2021-10-14T12:38:59Z</time>
      </trkpt>
      <trkpt lat="44.14006" lon="3.24695">
        <ele>806.6</ele>
        <time>2021-10-14T12:39:00Z</time>
      </trkpt>
      <trkpt lat="44.14012" lon="3.24682">
        <ele>806.8</ele>
        <time>2021-10-14T12:39:02Z</time>
      </trkpt>
      <trkpt lat="44.14014" lon="3.24675">
        <ele>806.9</ele>
        <time>2021-10-14T12:39:03Z</time>
      </trkpt>
      <trkpt lat="44.14018" lon="3.24667">
        <ele>807</ele>
        <time>2021-10-14T12:39:05Z</time>
      </trkpt>
      <trkpt lat="44.14023" lon="3.2466">
        <ele>807.2</ele>
        <time>2021-10-14T12:39:07Z</time>
      </trkpt>
      <trkpt lat="44.14026" lon="3.24655">
        <ele>807.4</ele>
        <time>2021-10-14T12:39:08Z</time>
      </trkpt>
      <trkpt lat="44.14029" lon="3.2465">
        <ele>807.5</ele>
        <time>2021-10-14T12:39:09Z</time>
      </trkpt>
      <trkpt lat="44.14033" lon="3.24645">
        <ele>807.7</ele>
        <time>2021-10-14T12:39:11Z</time>
      </trkpt>
      <trkpt lat="44.14032" lon="3.2465">
        <ele>807.8</ele>
        <time>2021-10-14T12:39:12Z</time>
      </trkpt>
      <trkpt lat="44.14038" lon="3.24644">
        <ele>808</ele>
        <time>2021-10-14T12:39:14Z</time>
      </trkpt>
      <trkpt lat="44.14043" lon="3.2464">
        <ele>808.2</ele>
        <time>2021-10-14T12:39:16Z</time>
      </trkpt>
      <trkpt lat="44.14047" lon="3.24637">
        <ele>808.4</ele>
        <time>2021-10-14T12:39:17Z</time>
      </trkpt>
      <trkpt lat="44.14051" lon="3.24634">
        <ele>808.5</ele>
        <time>2021-10-14T12:39:18Z</time>
      </trkpt>
      <trkpt lat="44.14055" lon="3.24631">
        <ele>808.6</ele>
        <time>2021-10-14T12:39:19Z</time>
      </trkpt>
      <trkpt lat="44.14059" lon="3.24628">
        <ele>808.7</ele>
        <time>2021-10-14T12:39:21Z</time>
      </trkpt>
      <trkpt lat="44.14064" lon="3.24624">
        <ele>808.8</ele>
        <time>2021-10-14T12:39:22Z</time>
      </trkpt>
      <trkpt lat="44.14067" lon="3.24621">
        <ele>808.8</ele>
        <time>2021-10-14T12:39:23Z</time>
      </trkpt>
      <trkpt lat="44.14073" lon="3.24617">
        <ele>808.9</ele>
        <time>2021-10-14T12:39:25Z</time>
      </trkpt>
      <trkpt lat="44.14077" lon="3.24613">
        <ele>809.1</ele>
        <time>2021-10-14T12:39:26Z</time>
      </trkpt>
      <trkpt lat="44.14082" lon="3.24606">
        <ele>809.3</ele>
        <time>2021-10-14T12:39:28Z</time>
      </trkpt>
      <trkpt lat="44.14087" lon="3.24598">
        <ele>809.5</ele>
        <time>2021-10-14T12:39:30Z</time>
      </trkpt>
      <trkpt lat="44.14091" lon="3.2459">
        <ele>809.7</ele>
        <time>2021-10-14T12:39:32Z</time>
      </trkpt>
      <trkpt lat="44.14096" lon="3.24584">
        <ele>809.8</ele>
        <time>2021-10-14T12:39:33Z</time>
      </trkpt>
      <trkpt lat="44.14098" lon="3.2458">
        <ele>809.8</ele>
        <time>2021-10-14T12:39:34Z</time>
      </trkpt>
      <trkpt lat="44.14101" lon="3.24576">
        <ele>809.8</ele>
        <time>2021-10-14T12:39:36Z</time>
      </trkpt>
      <trkpt lat="44.14103" lon="3.24571">
        <ele>809.9</ele>
        <time>2021-10-14T12:39:37Z</time>
      </trkpt>
      <trkpt lat="44.14109" lon="3.24564">
        <ele>809.9</ele>
        <time>2021-10-14T12:39:39Z</time>
      </trkpt>
      <trkpt lat="44.14114" lon="3.24557">
        <ele>809.9</ele>
        <time>2021-10-14T12:39:41Z</time>
      </trkpt>
      <trkpt lat="44.14119" lon="3.24552">
        <ele>809.9</ele>
        <time>2021-10-14T12:39:42Z</time>
      </trkpt>
      <trkpt lat="44.14122" lon="3.24549">
        <ele>809.8</ele>
        <time>2021-10-14T12:39:43Z</time>
      </trkpt>
      <trkpt lat="44.14125" lon="3.24546">
        <ele>809.8</ele>
        <time>2021-10-14T12:39:44Z</time>
      </trkpt>
      <trkpt lat="44.14129" lon="3.24542">
        <ele>809.8</ele>
        <time>2021-10-14T12:39:46Z</time>
      </trkpt>
      <trkpt lat="44.14136" lon="3.24536">
        <ele>809.7</ele>
        <time>2021-10-14T12:39:48Z</time>
      </trkpt>
      <trkpt lat="44.14139" lon="3.24533">
        <ele>809.7</ele>
        <time>2021-10-14T12:39:49Z</time>
      </trkpt>
      <trkpt lat="44.14143" lon="3.24528">
        <ele>809.7</ele>
        <time>2021-10-14T12:39:50Z</time>
      </trkpt>
      <trkpt lat="44.14147" lon="3.24524">
        <ele>809.7</ele>
        <time>2021-10-14T12:39:51Z</time>
      </trkpt>
      <trkpt lat="44.14152" lon="3.2452">
        <ele>809.7</ele>
        <time>2021-10-14T12:39:52Z</time>
      </trkpt>
      <trkpt lat="44.14157" lon="3.24515">
        <ele>809.7</ele>
        <time>2021-10-14T12:39:54Z</time>
      </trkpt>
      <trkpt lat="44.14163" lon="3.24508">
        <ele>809.9</ele>
        <time>2021-10-14T12:39:56Z</time>
      </trkpt>
      <trkpt lat="44.14167" lon="3.24504">
        <ele>810</ele>
        <time>2021-10-14T12:39:57Z</time>
      </trkpt>
      <trkpt lat="44.14171" lon="3.245">
        <ele>810.2</ele>
        <time>2021-10-14T12:39:58Z</time>
      </trkpt>
      <trkpt lat="44.14176" lon="3.24496">
        <ele>810.4</ele>
        <time>2021-10-14T12:40:00Z</time>
      </trkpt>
      <trkpt lat="44.14182" lon="3.2449">
        <ele>810.7</ele>
        <time>2021-10-14T12:40:02Z</time>
      </trkpt>
      <trkpt lat="44.14186" lon="3.24486">
        <ele>810.9</ele>
        <time>2021-10-14T12:40:03Z</time>
      </trkpt>
      <trkpt lat="44.14191" lon="3.24481">
        <ele>811.1</ele>
        <time>2021-10-14T12:40:05Z</time>
      </trkpt>
      <trkpt lat="44.14193" lon="3.24478">
        <ele>811.2</ele>
        <time>2021-10-14T12:40:06Z</time>
      </trkpt>
      <trkpt lat="44.14198" lon="3.24474">
        <ele>811.4</ele>
        <time>2021-10-14T12:40:07Z</time>
      </trkpt>
      <trkpt lat="44.14201" lon="3.2447">
        <ele>811.5</ele>
        <time>2021-10-14T12:40:09Z</time>
      </trkpt>
      <trkpt lat="44.14207" lon="3.24464">
        <ele>811.8</ele>
        <time>2021-10-14T12:40:11Z</time>
      </trkpt>
      <trkpt lat="44.14213" lon="3.24458">
        <ele>812.1</ele>
        <time>2021-10-14T12:40:13Z</time>
      </trkpt>
      <trkpt lat="44.14219" lon="3.24452">
        <ele>812.4</ele>
        <time>2021-10-14T12:40:14Z</time>
      </trkpt>
      <trkpt lat="44.14222" lon="3.24448">
        <ele>812.6</ele>
        <time>2021-10-14T12:40:16Z</time>
      </trkpt>
      <trkpt lat="44.14225" lon="3.24445">
        <ele>812.8</ele>
        <time>2021-10-14T12:40:17Z</time>
      </trkpt>
      <trkpt lat="44.14228" lon="3.24442">
        <ele>813</ele>
        <time>2021-10-14T12:40:18Z</time>
      </trkpt>
      <trkpt lat="44.14231" lon="3.24439">
        <ele>813.2</ele>
        <time>2021-10-14T12:40:19Z</time>
      </trkpt>
      <trkpt lat="44.14234" lon="3.24434">
        <ele>813.5</ele>
        <time>2021-10-14T12:40:20Z</time>
      </trkpt>
      <trkpt lat="44.14238" lon="3.2443">
        <ele>813.8</ele>
        <time>2021-10-14T12:40:22Z</time>
      </trkpt>
      <trkpt lat="44.14241" lon="3.24427">
        <ele>814</ele>
        <time>2021-10-14T12:40:23Z</time>
      </trkpt>
      <trkpt lat="44.14245" lon="3.24423">
        <ele>814.3</ele>
        <time>2021-10-14T12:40:25Z</time>
      </trkpt>
      <trkpt lat="44.14249" lon="3.24419">
        <ele>814.6</ele>
        <time>2021-10-14T12:40:26Z</time>
      </trkpt>
      <trkpt lat="44.14252" lon="3.24416">
        <ele>814.9</ele>
        <time>2021-10-14T12:40:28Z</time>
      </trkpt>
      <trkpt lat="44.14255" lon="3.24414">
        <ele>815.1</ele>
        <time>2021-10-14T12:40:30Z</time>
      </trkpt>
      <trkpt lat="44.14258" lon="3.24412">
        <ele>815.3</ele>
        <time>2021-10-14T12:40:31Z</time>
      </trkpt>
      <trkpt lat="44.14262" lon="3.24408">
        <ele>815.6</ele>
        <time>2021-10-14T12:40:33Z</time>
      </trkpt>
      <trkpt lat="44.14265" lon="3.24406">
        <ele>815.7</ele>
        <time>2021-10-14T12:40:34Z</time>
      </trkpt>
      <trkpt lat="44.14267" lon="3.24403">
        <ele>815.9</ele>
        <time>2021-10-14T12:40:35Z</time>
      </trkpt>
      <trkpt lat="44.1427" lon="3.24401">
        <ele>816.2</ele>
        <time>2021-10-14T12:40:37Z</time>
      </trkpt>
      <trkpt lat="44.14271" lon="3.24399">
        <ele>816.2</ele>
        <time>2021-10-14T12:40:38Z</time>
      </trkpt>
      <trkpt lat="44.14275" lon="3.24395">
        <ele>816.5</ele>
        <time>2021-10-14T12:40:39Z</time>
      </trkpt>
      <trkpt lat="44.14278" lon="3.24392">
        <ele>816.7</ele>
        <time>2021-10-14T12:40:41Z</time>
      </trkpt>
      <trkpt lat="44.14281" lon="3.24387">
        <ele>816.9</ele>
        <time>2021-10-14T12:40:42Z</time>
      </trkpt>
      <trkpt lat="44.14284" lon="3.24385">
        <ele>817.1</ele>
        <time>2021-10-14T12:40:43Z</time>
      </trkpt>
      <trkpt lat="44.14286" lon="3.24381">
        <ele>817.3</ele>
        <time>2021-10-14T12:40:45Z</time>
      </trkpt>
      <trkpt lat="44.1429" lon="3.24376">
        <ele>817.5</ele>
        <time>2021-10-14T12:40:46Z</time>
      </trkpt>
      <trkpt lat="44.14293" lon="3.24372">
        <ele>817.7</ele>
        <time>2021-10-14T12:40:47Z</time>
      </trkpt>
      <trkpt lat="44.14296" lon="3.24368">
        <ele>818</ele>
        <time>2021-10-14T12:40:49Z</time>
      </trkpt>
      <trkpt lat="44.14299" lon="3.24365">
        <ele>818.2</ele>
        <time>2021-10-14T12:40:50Z</time>
      </trkpt>
      <trkpt lat="44.14303" lon="3.24359">
        <ele>818.5</ele>
        <time>2021-10-14T12:40:51Z</time>
      </trkpt>
      <trkpt lat="44.14306" lon="3.24356">
        <ele>818.8</ele>
        <time>2021-10-14T12:40:53Z</time>
      </trkpt>
      <trkpt lat="44.14308" lon="3.24354">
        <ele>819</ele>
        <time>2021-10-14T12:40:54Z</time>
      </trkpt>
      <trkpt lat="44.14312" lon="3.2435">
        <ele>819.3</ele>
        <time>2021-10-14T12:40:56Z</time>
      </trkpt>
      <trkpt lat="44.14315" lon="3.24347">
        <ele>819.6</ele>
        <time>2021-10-14T12:40:57Z</time>
      </trkpt>
      <trkpt lat="44.14318" lon="3.24346">
        <ele>819.9</ele>
        <time>2021-10-14T12:40:59Z</time>
      </trkpt>
      <trkpt lat="44.1432" lon="3.24345">
        <ele>820</ele>
        <time>2021-10-14T12:41:00Z</time>
      </trkpt>
      <trkpt lat="44.14323" lon="3.24344">
        <ele>820.3</ele>
        <time>2021-10-14T12:41:02Z</time>
      </trkpt>
      <trkpt lat="44.14327" lon="3.24343">
        <ele>820.7</ele>
        <time>2021-10-14T12:41:03Z</time>
      </trkpt>
      <trkpt lat="44.14328" lon="3.24342">
        <ele>820.8</ele>
        <time>2021-10-14T12:41:04Z</time>
      </trkpt>
      <trkpt lat="44.14331" lon="3.2434">
        <ele>821.1</ele>
        <time>2021-10-14T12:41:05Z</time>
      </trkpt>
      <trkpt lat="44.14333" lon="3.24338">
        <ele>821.3</ele>
        <time>2021-10-14T12:41:07Z</time>
      </trkpt>
      <trkpt lat="44.14336" lon="3.24336">
        <ele>821.6</ele>
        <time>2021-10-14T12:41:08Z</time>
      </trkpt>
      <trkpt lat="44.14338" lon="3.24334">
        <ele>821.8</ele>
        <time>2021-10-14T12:41:09Z</time>
      </trkpt>
      <trkpt lat="44.14341" lon="3.24332">
        <ele>822</ele>
        <time>2021-10-14T12:41:11Z</time>
      </trkpt>
      <trkpt lat="44.14344" lon="3.24331">
        <ele>822.3</ele>
        <time>2021-10-14T12:41:13Z</time>
      </trkpt>
      <trkpt lat="44.14347" lon="3.24331">
        <ele>822.5</ele>
        <time>2021-10-14T12:41:14Z</time>
      </trkpt>
      <trkpt lat="44.14348" lon="3.24331">
        <ele>822.6</ele>
        <time>2021-10-14T12:41:15Z</time>
      </trkpt>
      <trkpt lat="44.14352" lon="3.24329">
        <ele>822.9</ele>
        <time>2021-10-14T12:41:17Z</time>
      </trkpt>
      <trkpt lat="44.14354" lon="3.24327">
        <ele>823.1</ele>
        <time>2021-10-14T12:41:18Z</time>
      </trkpt>
      <trkpt lat="44.14357" lon="3.24324">
        <ele>823.5</ele>
        <time>2021-10-14T12:41:20Z</time>
      </trkpt>
      <trkpt lat="44.1436" lon="3.24321">
        <ele>823.8</ele>
        <time>2021-10-14T12:41:21Z</time>
      </trkpt>
      <trkpt lat="44.14361" lon="3.2432">
        <ele>823.9</ele>
        <time>2021-10-14T12:41:22Z</time>
      </trkpt>
      <trkpt lat="44.14364" lon="3.24317">
        <ele>824.2</ele>
        <time>2021-10-14T12:41:23Z</time>
      </trkpt>
      <trkpt lat="44.14367" lon="3.24315">
        <ele>824.5</ele>
        <time>2021-10-14T12:41:24Z</time>
      </trkpt>
      <trkpt lat="44.14369" lon="3.24312">
        <ele>824.8</ele>
        <time>2021-10-14T12:41:25Z</time>
      </trkpt>
      <trkpt lat="44.14371" lon="3.2431">
        <ele>825</ele>
        <time>2021-10-14T12:41:27Z</time>
      </trkpt>
      <trkpt lat="44.14375" lon="3.24305">
        <ele>825.5</ele>
        <time>2021-10-14T12:41:28Z</time>
      </trkpt>
      <trkpt lat="44.14377" lon="3.24302">
        <ele>825.8</ele>
        <time>2021-10-14T12:41:30Z</time>
      </trkpt>
      <trkpt lat="44.1438" lon="3.24298">
        <ele>826.2</ele>
        <time>2021-10-14T12:41:31Z</time>
      </trkpt>
      <trkpt lat="44.14383" lon="3.24294">
        <ele>826.6</ele>
        <time>2021-10-14T12:41:33Z</time>
      </trkpt>
      <trkpt lat="44.14387" lon="3.24289">
        <ele>827</ele>
        <time>2021-10-14T12:41:35Z</time>
      </trkpt>
      <trkpt lat="44.14389" lon="3.24286">
        <ele>827.3</ele>
        <time>2021-10-14T12:41:36Z</time>
      </trkpt>
      <trkpt lat="44.14392" lon="3.24284">
        <ele>827.5</ele>
        <time>2021-10-14T12:41:37Z</time>
      </trkpt>
      <trkpt lat="44.14394" lon="3.24281">
        <ele>827.8</ele>
        <time>2021-10-14T12:41:38Z</time>
      </trkpt>
      <trkpt lat="44.14397" lon="3.24277">
        <ele>828.1</ele>
        <time>2021-10-14T12:41:39Z</time>
      </trkpt>
      <trkpt lat="44.144" lon="3.24272">
        <ele>828.4</ele>
        <time>2021-10-14T12:41:41Z</time>
      </trkpt>
      <trkpt lat="44.14403" lon="3.24269">
        <ele>828.7</ele>
        <time>2021-10-14T12:41:42Z</time>
      </trkpt>
      <trkpt lat="44.14407" lon="3.24265">
        <ele>829.1</ele>
        <time>2021-10-14T12:41:44Z</time>
      </trkpt>
      <trkpt lat="44.1441" lon="3.24261">
        <ele>829.4</ele>
        <time>2021-10-14T12:41:45Z</time>
      </trkpt>
      <trkpt lat="44.14414" lon="3.24258">
        <ele>829.7</ele>
        <time>2021-10-14T12:41:47Z</time>
      </trkpt>
      <trkpt lat="44.14416" lon="3.24255">
        <ele>829.9</ele>
        <time>2021-10-14T12:41:48Z</time>
      </trkpt>
      <trkpt lat="44.14418" lon="3.24252">
        <ele>830.1</ele>
        <time>2021-10-14T12:41:49Z</time>
      </trkpt>
      <trkpt lat="44.14421" lon="3.24248">
        <ele>830.4</ele>
        <time>2021-10-14T12:41:50Z</time>
      </trkpt>
      <trkpt lat="44.14423" lon="3.24246">
        <ele>830.6</ele>
        <time>2021-10-14T12:41:51Z</time>
      </trkpt>
      <trkpt lat="44.14426" lon="3.24243">
        <ele>830.8</ele>
        <time>2021-10-14T12:41:53Z</time>
      </trkpt>
      <trkpt lat="44.1443" lon="3.24239">
        <ele>831.1</ele>
        <time>2021-10-14T12:41:54Z</time>
      </trkpt>
      <trkpt lat="44.14435" lon="3.24235">
        <ele>831.5</ele>
        <time>2021-10-14T12:41:56Z</time>
      </trkpt>
      <trkpt lat="44.14439" lon="3.24231">
        <ele>831.8</ele>
        <time>2021-10-14T12:41:58Z</time>
      </trkpt>
      <trkpt lat="44.1444" lon="3.24229">
        <ele>832</ele>
        <time>2021-10-14T12:41:59Z</time>
      </trkpt>
      <trkpt lat="44.14442" lon="3.24227">
        <ele>832.1</ele>
        <time>2021-10-14T12:42:00Z</time>
      </trkpt>
      <trkpt lat="44.14445" lon="3.24225">
        <ele>832.3</ele>
        <time>2021-10-14T12:42:01Z</time>
      </trkpt>
      <trkpt lat="44.14448" lon="3.24223">
        <ele>832.6</ele>
        <time>2021-10-14T12:42:02Z</time>
      </trkpt>
      <trkpt lat="44.14451" lon="3.24221">
        <ele>832.8</ele>
        <time>2021-10-14T12:42:04Z</time>
      </trkpt>
      <trkpt lat="44.14453" lon="3.2422">
        <ele>833</ele>
        <time>2021-10-14T12:42:05Z</time>
      </trkpt>
      <trkpt lat="44.14458" lon="3.24217">
        <ele>833.4</ele>
        <time>2021-10-14T12:42:07Z</time>
      </trkpt>
      <trkpt lat="44.14462" lon="3.24216">
        <ele>833.7</ele>
        <time>2021-10-14T12:42:08Z</time>
      </trkpt>
      <trkpt lat="44.14465" lon="3.24216">
        <ele>833.9</ele>
        <time>2021-10-14T12:42:09Z</time>
      </trkpt>
      <trkpt lat="44.14468" lon="3.24216">
        <ele>834.1</ele>
        <time>2021-10-14T12:42:11Z</time>
      </trkpt>
      <trkpt lat="44.14471" lon="3.24218">
        <ele>834.3</ele>
        <time>2021-10-14T12:42:12Z</time>
      </trkpt>
      <trkpt lat="44.14472" lon="3.24218">
        <ele>834.4</ele>
        <time>2021-10-14T12:42:13Z</time>
      </trkpt>
      <trkpt lat="44.14476" lon="3.2422">
        <ele>834.6</ele>
        <time>2021-10-14T12:42:14Z</time>
      </trkpt>
      <trkpt lat="44.1448" lon="3.24221">
        <ele>834.9</ele>
        <time>2021-10-14T12:42:16Z</time>
      </trkpt>
      <trkpt lat="44.14485" lon="3.24223">
        <ele>835.1</ele>
        <time>2021-10-14T12:42:17Z</time>
      </trkpt>
      <trkpt lat="44.14488" lon="3.24224">
        <ele>835.3</ele>
        <time>2021-10-14T12:42:19Z</time>
      </trkpt>
      <trkpt lat="44.14491" lon="3.24225">
        <ele>835.4</ele>
        <time>2021-10-14T12:42:20Z</time>
      </trkpt>
      <trkpt lat="44.14495" lon="3.24225">
        <ele>835.5</ele>
        <time>2021-10-14T12:42:21Z</time>
      </trkpt>
      <trkpt lat="44.14499" lon="3.24225">
        <ele>835.6</ele>
        <time>2021-10-14T12:42:23Z</time>
      </trkpt>
      <trkpt lat="44.14502" lon="3.24224">
        <ele>835.7</ele>
        <time>2021-10-14T12:42:24Z</time>
      </trkpt>
      <trkpt lat="44.14505" lon="3.24222">
        <ele>835.7</ele>
        <time>2021-10-14T12:42:25Z</time>
      </trkpt>
      <trkpt lat="44.14508" lon="3.24219">
        <ele>836.1</ele>
        <time>2021-10-14T12:42:26Z</time>
      </trkpt>
      <trkpt lat="44.14508" lon="3.24218">
        <ele>836.1</ele>
        <time>2021-10-14T12:42:27Z</time>
      </trkpt>
      <trkpt lat="44.14509" lon="3.24215">
        <ele>836.1</ele>
        <time>2021-10-14T12:42:28Z</time>
      </trkpt>
      <trkpt lat="44.1451" lon="3.24211">
        <ele>836.2</ele>
        <time>2021-10-14T12:42:30Z</time>
      </trkpt>
      <trkpt lat="44.1451" lon="3.24207">
        <ele>836.3</ele>
        <time>2021-10-14T12:42:31Z</time>
      </trkpt>
      <trkpt lat="44.14509" lon="3.242">
        <ele>836.4</ele>
        <time>2021-10-14T12:42:32Z</time>
      </trkpt>
      <trkpt lat="44.14509" lon="3.24193">
        <ele>836.5</ele>
        <time>2021-10-14T12:42:34Z</time>
      </trkpt>
      <trkpt lat="44.14508" lon="3.24185">
        <ele>836.7</ele>
        <time>2021-10-14T12:42:35Z</time>
      </trkpt>
      <trkpt lat="44.14507" lon="3.24178">
        <ele>836.8</ele>
        <time>2021-10-14T12:42:37Z</time>
      </trkpt>
      <trkpt lat="44.14508" lon="3.24169">
        <ele>836.9</ele>
        <time>2021-10-14T12:42:38Z</time>
      </trkpt>
      <trkpt lat="44.14508" lon="3.24162">
        <ele>837.1</ele>
        <time>2021-10-14T12:42:39Z</time>
      </trkpt>
      <trkpt lat="44.14508" lon="3.24155">
        <ele>837.1</ele>
        <time>2021-10-14T12:42:41Z</time>
      </trkpt>
      <trkpt lat="44.14509" lon="3.24145">
        <ele>837.3</ele>
        <time>2021-10-14T12:42:43Z</time>
      </trkpt>
      <trkpt lat="44.14509" lon="3.2414">
        <ele>837.3</ele>
        <time>2021-10-14T12:42:44Z</time>
      </trkpt>
      <trkpt lat="44.1451" lon="3.2413">
        <ele>837.6</ele>
        <time>2021-10-14T12:42:46Z</time>
      </trkpt>
      <trkpt lat="44.1451" lon="3.24125">
        <ele>837.7</ele>
        <time>2021-10-14T12:42:47Z</time>
      </trkpt>
      <trkpt lat="44.14511" lon="3.2412">
        <ele>837.9</ele>
        <time>2021-10-14T12:42:48Z</time>
      </trkpt>
      <trkpt lat="44.14511" lon="3.24112">
        <ele>838.1</ele>
        <time>2021-10-14T12:42:49Z</time>
      </trkpt>
      <trkpt lat="44.14512" lon="3.24105">
        <ele>838.2</ele>
        <time>2021-10-14T12:42:50Z</time>
      </trkpt>
      <trkpt lat="44.14513" lon="3.24099">
        <ele>838.3</ele>
        <time>2021-10-14T12:42:51Z</time>
      </trkpt>
      <trkpt lat="44.14513" lon="3.24094">
        <ele>838.4</ele>
        <time>2021-10-14T12:42:52Z</time>
      </trkpt>
      <trkpt lat="44.14514" lon="3.24088">
        <ele>838.4</ele>
        <time>2021-10-14T12:42:54Z</time>
      </trkpt>
      <trkpt lat="44.14515" lon="3.24081">
        <ele>838.4</ele>
        <time>2021-10-14T12:42:55Z</time>
      </trkpt>
      <trkpt lat="44.14516" lon="3.24075">
        <ele>838.4</ele>
        <time>2021-10-14T12:42:56Z</time>
      </trkpt>
      <trkpt lat="44.14519" lon="3.24058">
        <ele>838.5</ele>
        <time>2021-10-14T12:42:58Z</time>
      </trkpt>
      <trkpt lat="44.1452" lon="3.2405">
        <ele>838.6</ele>
        <time>2021-10-14T12:42:59Z</time>
      </trkpt>
      <trkpt lat="44.1452" lon="3.24035">
        <ele>838.7</ele>
        <time>2021-10-14T12:43:01Z</time>
      </trkpt>
      <trkpt lat="44.1452" lon="3.24028">
        <ele>838.8</ele>
        <time>2021-10-14T12:43:02Z</time>
      </trkpt>
      <trkpt lat="44.14521" lon="3.24012">
        <ele>838.9</ele>
        <time>2021-10-14T12:43:04Z</time>
      </trkpt>
      <trkpt lat="44.14525" lon="3.24004">
        <ele>838.9</ele>
        <time>2021-10-14T12:43:05Z</time>
      </trkpt>
      <trkpt lat="44.14526" lon="3.23996">
        <ele>839</ele>
        <time>2021-10-14T12:43:07Z</time>
      </trkpt>
      <trkpt lat="44.14526" lon="3.23986">
        <ele>839</ele>
        <time>2021-10-14T12:43:08Z</time>
      </trkpt>
      <trkpt lat="44.14526" lon="3.23978">
        <ele>839.1</ele>
        <time>2021-10-14T12:43:10Z</time>
      </trkpt>
      <trkpt lat="44.14526" lon="3.23957">
        <ele>839.6</ele>
        <time>2021-10-14T12:43:12Z</time>
      </trkpt>
      <trkpt lat="44.14527" lon="3.23949">
        <ele>839.8</ele>
        <time>2021-10-14T12:43:13Z</time>
      </trkpt>
      <trkpt lat="44.14528" lon="3.23933">
        <ele>840.2</ele>
        <time>2021-10-14T12:43:15Z</time>
      </trkpt>
      <trkpt lat="44.14527" lon="3.23928">
        <ele>840.4</ele>
        <time>2021-10-14T12:43:16Z</time>
      </trkpt>
      <trkpt lat="44.14528" lon="3.23925">
        <ele>840.6</ele>
        <time>2021-10-14T12:43:17Z</time>
      </trkpt>
      <trkpt lat="44.14528" lon="3.23918">
        <ele>840.8</ele>
        <time>2021-10-14T12:43:18Z</time>
      </trkpt>
      <trkpt lat="44.14529" lon="3.23912">
        <ele>841.1</ele>
        <time>2021-10-14T12:43:20Z</time>
      </trkpt>
      <trkpt lat="44.14529" lon="3.23902">
        <ele>841.5</ele>
        <time>2021-10-14T12:43:22Z</time>
      </trkpt>
      <trkpt lat="44.1453" lon="3.23896">
        <ele>841.8</ele>
        <time>2021-10-14T12:43:23Z</time>
      </trkpt>
      <trkpt lat="44.14533" lon="3.23889">
        <ele>842.2</ele>
        <time>2021-10-14T12:43:25Z</time>
      </trkpt>
      <trkpt lat="44.14534" lon="3.23885">
        <ele>842.4</ele>
        <time>2021-10-14T12:43:26Z</time>
      </trkpt>
      <trkpt lat="44.14536" lon="3.23878">
        <ele>842.7</ele>
        <time>2021-10-14T12:43:28Z</time>
      </trkpt>
      <trkpt lat="44.14539" lon="3.2387">
        <ele>843.1</ele>
        <time>2021-10-14T12:43:30Z</time>
      </trkpt>
      <trkpt lat="44.14542" lon="3.23863">
        <ele>843.4</ele>
        <time>2021-10-14T12:43:31Z</time>
      </trkpt>
      <trkpt lat="44.14544" lon="3.23856">
        <ele>843.7</ele>
        <time>2021-10-14T12:43:33Z</time>
      </trkpt>
      <trkpt lat="44.14547" lon="3.23849">
        <ele>844</ele>
        <time>2021-10-14T12:43:34Z</time>
      </trkpt>
      <trkpt lat="44.1455" lon="3.23842">
        <ele>844.3</ele>
        <time>2021-10-14T12:43:35Z</time>
      </trkpt>
      <trkpt lat="44.14551" lon="3.23837">
        <ele>844.5</ele>
        <time>2021-10-14T12:43:37Z</time>
      </trkpt>
      <trkpt lat="44.14554" lon="3.2383">
        <ele>844.8</ele>
        <time>2021-10-14T12:43:38Z</time>
      </trkpt>
      <trkpt lat="44.14557" lon="3.23823">
        <ele>845.1</ele>
        <time>2021-10-14T12:43:40Z</time>
      </trkpt>
      <trkpt lat="44.14559" lon="3.23819">
        <ele>845.3</ele>
        <time>2021-10-14T12:43:41Z</time>
      </trkpt>
      <trkpt lat="44.14562" lon="3.23813">
        <ele>845.5</ele>
        <time>2021-10-14T12:43:42Z</time>
      </trkpt>
      <trkpt lat="44.14566" lon="3.23806">
        <ele>845.7</ele>
        <time>2021-10-14T12:43:44Z</time>
      </trkpt>
      <trkpt lat="44.14568" lon="3.238">
        <ele>845.8</ele>
        <time>2021-10-14T12:43:45Z</time>
      </trkpt>
      <trkpt lat="44.1457" lon="3.23794">
        <ele>845.9</ele>
        <time>2021-10-14T12:43:46Z</time>
      </trkpt>
      <trkpt lat="44.14572" lon="3.23789">
        <ele>846</ele>
        <time>2021-10-14T12:43:47Z</time>
      </trkpt>
      <trkpt lat="44.14575" lon="3.23783">
        <ele>846</ele>
        <time>2021-10-14T12:43:48Z</time>
      </trkpt>
      <trkpt lat="44.14577" lon="3.23778">
        <ele>846</ele>
        <time>2021-10-14T12:43:50Z</time>
      </trkpt>
      <trkpt lat="44.14581" lon="3.23773">
        <ele>846</ele>
        <time>2021-10-14T12:43:51Z</time>
      </trkpt>
      <trkpt lat="44.14588" lon="3.23762">
        <ele>845.9</ele>
        <time>2021-10-14T12:43:53Z</time>
      </trkpt>
      <trkpt lat="44.14595" lon="3.2375">
        <ele>845.7</ele>
        <time>2021-10-14T12:43:55Z</time>
      </trkpt>
      <trkpt lat="44.14602" lon="3.23735">
        <ele>845.3</ele>
        <time>2021-10-14T12:43:57Z</time>
      </trkpt>
      <trkpt lat="44.14605" lon="3.23728">
        <ele>845.1</ele>
        <time>2021-10-14T12:43:58Z</time>
      </trkpt>
      <trkpt lat="44.14611" lon="3.23712">
        <ele>844.5</ele>
        <time>2021-10-14T12:44:00Z</time>
      </trkpt>
      <trkpt lat="44.14619" lon="3.23699">
        <ele>844</ele>
        <time>2021-10-14T12:44:02Z</time>
      </trkpt>
      <trkpt lat="44.14624" lon="3.23692">
        <ele>843.7</ele>
        <time>2021-10-14T12:44:03Z</time>
      </trkpt>
      <trkpt lat="44.14629" lon="3.23688">
        <ele>843.5</ele>
        <time>2021-10-14T12:44:04Z</time>
      </trkpt>
      <trkpt lat="44.14641" lon="3.23678">
        <ele>843</ele>
        <time>2021-10-14T12:44:06Z</time>
      </trkpt>
      <trkpt lat="44.14651" lon="3.23667">
        <ele>842.6</ele>
        <time>2021-10-14T12:44:08Z</time>
      </trkpt>
      <trkpt lat="44.14653" lon="3.23659">
        <ele>842.2</ele>
        <time>2021-10-14T12:44:09Z</time>
      </trkpt>
      <trkpt lat="44.14649" lon="3.23638">
        <ele>841.2</ele>
        <time>2021-10-14T12:44:11Z</time>
      </trkpt>
      <trkpt lat="44.14645" lon="3.2363">
        <ele>840.8</ele>
        <time>2021-10-14T12:44:12Z</time>
      </trkpt>
      <trkpt lat="44.14639" lon="3.23618">
        <ele>840.6</ele>
        <time>2021-10-14T12:44:14Z</time>
      </trkpt>
      <trkpt lat="44.14631" lon="3.23604">
        <ele>840.3</ele>
        <time>2021-10-14T12:44:16Z</time>
      </trkpt>
      <trkpt lat="44.14626" lon="3.23597">
        <ele>840.1</ele>
        <time>2021-10-14T12:44:17Z</time>
      </trkpt>
      <trkpt lat="44.1462" lon="3.23591">
        <ele>839.8</ele>
        <time>2021-10-14T12:44:18Z</time>
      </trkpt>
      <trkpt lat="44.14614" lon="3.23587">
        <ele>839.6</ele>
        <time>2021-10-14T12:44:19Z</time>
      </trkpt>
      <trkpt lat="44.146" lon="3.23582">
        <ele>838.8</ele>
        <time>2021-10-14T12:44:21Z</time>
      </trkpt>
      <trkpt lat="44.14584" lon="3.23578">
        <ele>837.5</ele>
        <time>2021-10-14T12:44:23Z</time>
      </trkpt>
      <trkpt lat="44.14576" lon="3.23576">
        <ele>836.7</ele>
        <time>2021-10-14T12:44:24Z</time>
      </trkpt>
      <trkpt lat="44.14568" lon="3.23575">
        <ele>835.7</ele>
        <time>2021-10-14T12:44:25Z</time>
      </trkpt>
      <trkpt lat="44.14546" lon="3.23575">
        <ele>833</ele>
        <time>2021-10-14T12:44:27Z</time>
      </trkpt>
      <trkpt lat="44.14535" lon="3.23573">
        <ele>831.6</ele>
        <time>2021-10-14T12:44:28Z</time>
      </trkpt>
      <trkpt lat="44.14524" lon="3.23569">
        <ele>830.3</ele>
        <time>2021-10-14T12:44:29Z</time>
      </trkpt>
      <trkpt lat="44.14512" lon="3.23564">
        <ele>829.1</ele>
        <time>2021-10-14T12:44:30Z</time>
      </trkpt>
      <trkpt lat="44.14494" lon="3.23556">
        <ele>827.4</ele>
        <time>2021-10-14T12:44:32Z</time>
      </trkpt>
      <trkpt lat="44.14485" lon="3.23552">
        <ele>826.8</ele>
        <time>2021-10-14T12:44:33Z</time>
      </trkpt>
      <trkpt lat="44.14465" lon="3.23548">
        <ele>825.9</ele>
        <time>2021-10-14T12:44:35Z</time>
      </trkpt>
      <trkpt lat="44.14447" lon="3.23547">
        <ele>825</ele>
        <time>2021-10-14T12:44:37Z</time>
      </trkpt>
      <trkpt lat="44.14426" lon="3.23543">
        <ele>823.6</ele>
        <time>2021-10-14T12:44:39Z</time>
      </trkpt>
      <trkpt lat="44.14417" lon="3.23538">
        <ele>822.9</ele>
        <time>2021-10-14T12:44:40Z</time>
      </trkpt>
      <trkpt lat="44.14397" lon="3.23532">
        <ele>821.6</ele>
        <time>2021-10-14T12:44:42Z</time>
      </trkpt>
      <trkpt lat="44.14378" lon="3.23531">
        <ele>820.8</ele>
        <time>2021-10-14T12:44:44Z</time>
      </trkpt>
      <trkpt lat="44.14368" lon="3.23531">
        <ele>820.6</ele>
        <time>2021-10-14T12:44:45Z</time>
      </trkpt>
      <trkpt lat="44.14361" lon="3.23532">
        <ele>820.5</ele>
        <time>2021-10-14T12:44:46Z</time>
      </trkpt>
      <trkpt lat="44.14347" lon="3.23532">
        <ele>820.5</ele>
        <time>2021-10-14T12:44:48Z</time>
      </trkpt>
      <trkpt lat="44.14341" lon="3.23531">
        <ele>820.6</ele>
        <time>2021-10-14T12:44:49Z</time>
      </trkpt>
      <trkpt lat="44.14329" lon="3.23527">
        <ele>821</ele>
        <time>2021-10-14T12:44:51Z</time>
      </trkpt>
      <trkpt lat="44.14318" lon="3.23523">
        <ele>821.6</ele>
        <time>2021-10-14T12:44:53Z</time>
      </trkpt>
      <trkpt lat="44.14309" lon="3.23519">
        <ele>822.2</ele>
        <time>2021-10-14T12:44:55Z</time>
      </trkpt>
      <trkpt lat="44.14304" lon="3.23517">
        <ele>822.6</ele>
        <time>2021-10-14T12:44:56Z</time>
      </trkpt>
      <trkpt lat="44.143" lon="3.23515">
        <ele>822.8</ele>
        <time>2021-10-14T12:44:57Z</time>
      </trkpt>
      <trkpt lat="44.14297" lon="3.23512">
        <ele>823.1</ele>
        <time>2021-10-14T12:44:58Z</time>
      </trkpt>
      <trkpt lat="44.14294" lon="3.2351">
        <ele>823.3</ele>
        <time>2021-10-14T12:44:59Z</time>
      </trkpt>
      <trkpt lat="44.14288" lon="3.23507">
        <ele>823.9</ele>
        <time>2021-10-14T12:45:01Z</time>
      </trkpt>
      <trkpt lat="44.14281" lon="3.23505">
        <ele>824.4</ele>
        <time>2021-10-14T12:45:03Z</time>
      </trkpt>
      <trkpt lat="44.14278" lon="3.2351">
        <ele>824.8</ele>
        <time>2021-10-14T12:45:04Z</time>
      </trkpt>
      <trkpt lat="44.14274" lon="3.2351">
        <ele>825.1</ele>
        <time>2021-10-14T12:45:06Z</time>
      </trkpt>
      <trkpt lat="44.14269" lon="3.23508">
        <ele>825.5</ele>
        <time>2021-10-14T12:45:07Z</time>
      </trkpt>
      <trkpt lat="44.14263" lon="3.23506">
        <ele>826</ele>
        <time>2021-10-14T12:45:09Z</time>
      </trkpt>
      <trkpt lat="44.14258" lon="3.23505">
        <ele>826.5</ele>
        <time>2021-10-14T12:45:10Z</time>
      </trkpt>
      <trkpt lat="44.14254" lon="3.23503">
        <ele>826.9</ele>
        <time>2021-10-14T12:45:11Z</time>
      </trkpt>
      <trkpt lat="44.1425" lon="3.23503">
        <ele>827.2</ele>
        <time>2021-10-14T12:45:13Z</time>
      </trkpt>
      <trkpt lat="44.14247" lon="3.23502">
        <ele>827.5</ele>
        <time>2021-10-14T12:45:14Z</time>
      </trkpt>
      <trkpt lat="44.14243" lon="3.23501">
        <ele>827.8</ele>
        <time>2021-10-14T12:45:15Z</time>
      </trkpt>
      <trkpt lat="44.14238" lon="3.23501">
        <ele>828.2</ele>
        <time>2021-10-14T12:45:16Z</time>
      </trkpt>
      <trkpt lat="44.14234" lon="3.23501">
        <ele>828.6</ele>
        <time>2021-10-14T12:45:18Z</time>
      </trkpt>
      <trkpt lat="44.1423" lon="3.23502">
        <ele>828.9</ele>
        <time>2021-10-14T12:45:19Z</time>
      </trkpt>
      <trkpt lat="44.14224" lon="3.23503">
        <ele>829.4</ele>
        <time>2021-10-14T12:45:21Z</time>
      </trkpt>
      <trkpt lat="44.14217" lon="3.23505">
        <ele>829.9</ele>
        <time>2021-10-14T12:45:23Z</time>
      </trkpt>
      <trkpt lat="44.14211" lon="3.23506">
        <ele>830.2</ele>
        <time>2021-10-14T12:45:24Z</time>
      </trkpt>
      <trkpt lat="44.14207" lon="3.23507">
        <ele>830.4</ele>
        <time>2021-10-14T12:45:25Z</time>
      </trkpt>
      <trkpt lat="44.14203" lon="3.23508">
        <ele>830.7</ele>
        <time>2021-10-14T12:45:27Z</time>
      </trkpt>
      <trkpt lat="44.142" lon="3.23509">
        <ele>830.8</ele>
        <time>2021-10-14T12:45:28Z</time>
      </trkpt>
      <trkpt lat="44.14196" lon="3.2351">
        <ele>831</ele>
        <time>2021-10-14T12:45:29Z</time>
      </trkpt>
      <trkpt lat="44.14191" lon="3.23512">
        <ele>831.2</ele>
        <time>2021-10-14T12:45:30Z</time>
      </trkpt>
      <trkpt lat="44.14187" lon="3.23513">
        <ele>831.4</ele>
        <time>2021-10-14T12:45:31Z</time>
      </trkpt>
      <trkpt lat="44.14183" lon="3.23514">
        <ele>831.6</ele>
        <time>2021-10-14T12:45:33Z</time>
      </trkpt>
      <trkpt lat="44.14179" lon="3.23515">
        <ele>831.8</ele>
        <time>2021-10-14T12:45:34Z</time>
      </trkpt>
      <trkpt lat="44.14176" lon="3.23515">
        <ele>831.9</ele>
        <time>2021-10-14T12:45:36Z</time>
      </trkpt>
      <trkpt lat="44.14173" lon="3.23515">
        <ele>832.1</ele>
        <time>2021-10-14T12:45:37Z</time>
      </trkpt>
      <trkpt lat="44.1417" lon="3.23514">
        <ele>832.3</ele>
        <time>2021-10-14T12:45:38Z</time>
      </trkpt>
      <trkpt lat="44.14167" lon="3.23511">
        <ele>832.6</ele>
        <time>2021-10-14T12:45:40Z</time>
      </trkpt>
      <trkpt lat="44.14166" lon="3.2351">
        <ele>832.7</ele>
        <time>2021-10-14T12:45:41Z</time>
      </trkpt>
      <trkpt lat="44.14163" lon="3.23507">
        <ele>832.9</ele>
        <time>2021-10-14T12:45:43Z</time>
      </trkpt>
      <trkpt lat="44.14161" lon="3.23506">
        <ele>833.1</ele>
        <time>2021-10-14T12:45:44Z</time>
      </trkpt>
      <trkpt lat="44.14157" lon="3.23503">
        <ele>833.4</ele>
        <time>2021-10-14T12:45:46Z</time>
      </trkpt>
      <trkpt lat="44.14154" lon="3.235">
        <ele>833.7</ele>
        <time>2021-10-14T12:45:47Z</time>
      </trkpt>
      <trkpt lat="44.14151" lon="3.23498">
        <ele>833.9</ele>
        <time>2021-10-14T12:45:49Z</time>
      </trkpt>
      <trkpt lat="44.14147" lon="3.23496">
        <ele>834.2</ele>
        <time>2021-10-14T12:45:50Z</time>
      </trkpt>
      <trkpt lat="44.14144" lon="3.23494">
        <ele>834.5</ele>
        <time>2021-10-14T12:45:51Z</time>
      </trkpt>
      <trkpt lat="44.14141" lon="3.23492">
        <ele>834.7</ele>
        <time>2021-10-14T12:45:52Z</time>
      </trkpt>
      <trkpt lat="44.14135" lon="3.23489">
        <ele>835.1</ele>
        <time>2021-10-14T12:45:54Z</time>
      </trkpt>
      <trkpt lat="44.14133" lon="3.23488">
        <ele>835.2</ele>
        <time>2021-10-14T12:45:55Z</time>
      </trkpt>
      <trkpt lat="44.14128" lon="3.23485">
        <ele>835.5</ele>
        <time>2021-10-14T12:45:57Z</time>
      </trkpt>
      <trkpt lat="44.14127" lon="3.23484">
        <ele>835.6</ele>
        <time>2021-10-14T12:45:58Z</time>
      </trkpt>
      <trkpt lat="44.14125" lon="3.23483">
        <ele>835.7</ele>
        <time>2021-10-14T12:45:59Z</time>
      </trkpt>
      <trkpt lat="44.14122" lon="3.23481">
        <ele>835.9</ele>
        <time>2021-10-14T12:46:00Z</time>
      </trkpt>
      <trkpt lat="44.14118" lon="3.23478">
        <ele>836.2</ele>
        <time>2021-10-14T12:46:02Z</time>
      </trkpt>
      <trkpt lat="44.14114" lon="3.23476">
        <ele>836.5</ele>
        <time>2021-10-14T12:46:03Z</time>
      </trkpt>
      <trkpt lat="44.14113" lon="3.23475">
        <ele>836.6</ele>
        <time>2021-10-14T12:46:04Z</time>
      </trkpt>
      <trkpt lat="44.1411" lon="3.23474">
        <ele>836.8</ele>
        <time>2021-10-14T12:46:05Z</time>
      </trkpt>
      <trkpt lat="44.14108" lon="3.23473">
        <ele>837</ele>
        <time>2021-10-14T12:46:07Z</time>
      </trkpt>
      <trkpt lat="44.14102" lon="3.23473">
        <ele>837.4</ele>
        <time>2021-10-14T12:46:08Z</time>
      </trkpt>
      <trkpt lat="44.14099" lon="3.23474">
        <ele>837.6</ele>
        <time>2021-10-14T12:46:09Z</time>
      </trkpt>
      <trkpt lat="44.14095" lon="3.23475">
        <ele>837.9</ele>
        <time>2021-10-14T12:46:11Z</time>
      </trkpt>
      <trkpt lat="44.1409" lon="3.23476">
        <ele>838.3</ele>
        <time>2021-10-14T12:46:12Z</time>
      </trkpt>
      <trkpt lat="44.14087" lon="3.23476">
        <ele>838.5</ele>
        <time>2021-10-14T12:46:14Z</time>
      </trkpt>
      <trkpt lat="44.14082" lon="3.23476">
        <ele>838.8</ele>
        <time>2021-10-14T12:46:15Z</time>
      </trkpt>
      <trkpt lat="44.14079" lon="3.23476">
        <ele>839</ele>
        <time>2021-10-14T12:46:17Z</time>
      </trkpt>
      <trkpt lat="44.14075" lon="3.23475">
        <ele>839.3</ele>
        <time>2021-10-14T12:46:18Z</time>
      </trkpt>
      <trkpt lat="44.1407" lon="3.23475">
        <ele>839.5</ele>
        <time>2021-10-14T12:46:20Z</time>
      </trkpt>
      <trkpt lat="44.14066" lon="3.23474">
        <ele>839.8</ele>
        <time>2021-10-14T12:46:21Z</time>
      </trkpt>
      <trkpt lat="44.14063" lon="3.23473">
        <ele>840</ele>
        <time>2021-10-14T12:46:23Z</time>
      </trkpt>
      <trkpt lat="44.14059" lon="3.23472">
        <ele>840.2</ele>
        <time>2021-10-14T12:46:24Z</time>
      </trkpt>
      <trkpt lat="44.14055" lon="3.23471">
        <ele>840.6</ele>
        <time>2021-10-14T12:46:26Z</time>
      </trkpt>
      <trkpt lat="44.14052" lon="3.23471">
        <ele>840.8</ele>
        <time>2021-10-14T12:46:27Z</time>
      </trkpt>
      <trkpt lat="44.14049" lon="3.2347">
        <ele>841</ele>
        <time>2021-10-14T12:46:28Z</time>
      </trkpt>
      <trkpt lat="44.14046" lon="3.2347">
        <ele>841.2</ele>
        <time>2021-10-14T12:46:30Z</time>
      </trkpt>
      <trkpt lat="44.14042" lon="3.2347">
        <ele>841.6</ele>
        <time>2021-10-14T12:46:32Z</time>
      </trkpt>
      <trkpt lat="44.14039" lon="3.2347">
        <ele>841.8</ele>
        <time>2021-10-14T12:46:33Z</time>
      </trkpt>
      <trkpt lat="44.14038" lon="3.2347">
        <ele>841.9</ele>
        <time>2021-10-14T12:46:34Z</time>
      </trkpt>
      <trkpt lat="44.14034" lon="3.2347">
        <ele>842.2</ele>
        <time>2021-10-14T12:46:35Z</time>
      </trkpt>
      <trkpt lat="44.14033" lon="3.2347">
        <ele>842.3</ele>
        <time>2021-10-14T12:46:36Z</time>
      </trkpt>
      <trkpt lat="44.1403" lon="3.2347">
        <ele>842.4</ele>
        <time>2021-10-14T12:46:38Z</time>
      </trkpt>
      <trkpt lat="44.14026" lon="3.23469">
        <ele>842.7</ele>
        <time>2021-10-14T12:46:40Z</time>
      </trkpt>
      <trkpt lat="44.14024" lon="3.23469">
        <ele>842.8</ele>
        <time>2021-10-14T12:46:41Z</time>
      </trkpt>
      <trkpt lat="44.14017" lon="3.23468">
        <ele>843.1</ele>
        <time>2021-10-14T12:46:43Z</time>
      </trkpt>
      <trkpt lat="44.1401" lon="3.23466">
        <ele>843.2</ele>
        <time>2021-10-14T12:46:44Z</time>
      </trkpt>
      <trkpt lat="44.14005" lon="3.23463">
        <ele>843.1</ele>
        <time>2021-10-14T12:46:46Z</time>
      </trkpt>
      <trkpt lat="44.13998" lon="3.23461">
        <ele>842.8</ele>
        <time>2021-10-14T12:46:47Z</time>
      </trkpt>
      <trkpt lat="44.13992" lon="3.23459">
        <ele>842.4</ele>
        <time>2021-10-14T12:46:48Z</time>
      </trkpt>
      <trkpt lat="44.13983" lon="3.23453">
        <ele>841.7</ele>
        <time>2021-10-14T12:46:50Z</time>
      </trkpt>
      <trkpt lat="44.13978" lon="3.23451">
        <ele>841.3</ele>
        <time>2021-10-14T12:46:51Z</time>
      </trkpt>
      <trkpt lat="44.13967" lon="3.2345">
        <ele>840.5</ele>
        <time>2021-10-14T12:46:53Z</time>
      </trkpt>
      <trkpt lat="44.13961" lon="3.23449">
        <ele>840.1</ele>
        <time>2021-10-14T12:46:54Z</time>
      </trkpt>
      <trkpt lat="44.13955" lon="3.23448">
        <ele>839.7</ele>
        <time>2021-10-14T12:46:55Z</time>
      </trkpt>
      <trkpt lat="44.13945" lon="3.23442">
        <ele>838.9</ele>
        <time>2021-10-14T12:46:57Z</time>
      </trkpt>
      <trkpt lat="44.1394" lon="3.23439">
        <ele>838.5</ele>
        <time>2021-10-14T12:46:58Z</time>
      </trkpt>
      <trkpt lat="44.13943" lon="3.23422">
        <ele>837.6</ele>
        <time>2021-10-14T12:47:00Z</time>
      </trkpt>
      <trkpt lat="44.13946" lon="3.23412">
        <ele>837.1</ele>
        <time>2021-10-14T12:47:01Z</time>
      </trkpt>
      <trkpt lat="44.13948" lon="3.23402">
        <ele>836.8</ele>
        <time>2021-10-14T12:47:02Z</time>
      </trkpt>
      <trkpt lat="44.13949" lon="3.23392">
        <ele>836.6</ele>
        <time>2021-10-14T12:47:03Z</time>
      </trkpt>
      <trkpt lat="44.13945" lon="3.23373">
        <ele>836.3</ele>
        <time>2021-10-14T12:47:05Z</time>
      </trkpt>
      <trkpt lat="44.1394" lon="3.23365">
        <ele>836.1</ele>
        <time>2021-10-14T12:47:06Z</time>
      </trkpt>
      <trkpt lat="44.13935" lon="3.2336">
        <ele>835.7</ele>
        <time>2021-10-14T12:47:07Z</time>
      </trkpt>
      <trkpt lat="44.13931" lon="3.23355">
        <ele>835.8</ele>
        <time>2021-10-14T12:47:08Z</time>
      </trkpt>
      <trkpt lat="44.13928" lon="3.23342">
        <ele>836.1</ele>
        <time>2021-10-14T12:47:10Z</time>
      </trkpt>
      <trkpt lat="44.13928" lon="3.23336">
        <ele>836.3</ele>
        <time>2021-10-14T12:47:12Z</time>
      </trkpt>
      <trkpt lat="44.13932" lon="3.23327">
        <ele>836.6</ele>
        <time>2021-10-14T12:47:14Z</time>
      </trkpt>
      <trkpt lat="44.13934" lon="3.23322">
        <ele>836.7</ele>
        <time>2021-10-14T12:47:15Z</time>
      </trkpt>
      <trkpt lat="44.13936" lon="3.23317">
        <ele>836.8</ele>
        <time>2021-10-14T12:47:16Z</time>
      </trkpt>
      <trkpt lat="44.13938" lon="3.23311">
        <ele>836.8</ele>
        <time>2021-10-14T12:47:17Z</time>
      </trkpt>
      <trkpt lat="44.13942" lon="3.23304">
        <ele>836.8</ele>
        <time>2021-10-14T12:47:19Z</time>
      </trkpt>
      <trkpt lat="44.13941" lon="3.23291">
        <ele>836.8</ele>
        <time>2021-10-14T12:47:20Z</time>
      </trkpt>
      <trkpt lat="44.13941" lon="3.23283">
        <ele>836.7</ele>
        <time>2021-10-14T12:47:21Z</time>
      </trkpt>
      <trkpt lat="44.13943" lon="3.23275">
        <ele>836.7</ele>
        <time>2021-10-14T12:47:22Z</time>
      </trkpt>
      <trkpt lat="44.13944" lon="3.23266">
        <ele>836.7</ele>
        <time>2021-10-14T12:47:23Z</time>
      </trkpt>
      <trkpt lat="44.13947" lon="3.23255">
        <ele>836.6</ele>
        <time>2021-10-14T12:47:25Z</time>
      </trkpt>
      <trkpt lat="44.13951" lon="3.23243">
        <ele>836.5</ele>
        <time>2021-10-14T12:47:27Z</time>
      </trkpt>
      <trkpt lat="44.13954" lon="3.23237">
        <ele>836.4</ele>
        <time>2021-10-14T12:47:28Z</time>
      </trkpt>
      <trkpt lat="44.13959" lon="3.23224">
        <ele>836.2</ele>
        <time>2021-10-14T12:47:30Z</time>
      </trkpt>
      <trkpt lat="44.13965" lon="3.23211">
        <ele>835.9</ele>
        <time>2021-10-14T12:47:32Z</time>
      </trkpt>
      <trkpt lat="44.13972" lon="3.23201">
        <ele>835.8</ele>
        <time>2021-10-14T12:47:34Z</time>
      </trkpt>
      <trkpt lat="44.13978" lon="3.23191">
        <ele>835.8</ele>
        <time>2021-10-14T12:47:36Z</time>
      </trkpt>
      <trkpt lat="44.13984" lon="3.23181">
        <ele>835.9</ele>
        <time>2021-10-14T12:47:38Z</time>
      </trkpt>
      <trkpt lat="44.13989" lon="3.23174">
        <ele>836.1</ele>
        <time>2021-10-14T12:47:40Z</time>
      </trkpt>
      <trkpt lat="44.13993" lon="3.23167">
        <ele>836.3</ele>
        <time>2021-10-14T12:47:42Z</time>
      </trkpt>
      <trkpt lat="44.13996" lon="3.23165">
        <ele>836.3</ele>
        <time>2021-10-14T12:47:43Z</time>
      </trkpt>
      <trkpt lat="44.13999" lon="3.23169">
        <ele>836.4</ele>
        <time>2021-10-14T12:47:44Z</time>
      </trkpt>
      <trkpt lat="44.14003" lon="3.23165">
        <ele>836.5</ele>
        <time>2021-10-14T12:47:46Z</time>
      </trkpt>
      <trkpt lat="44.14007" lon="3.23158">
        <ele>836.6</ele>
        <time>2021-10-14T12:47:47Z</time>
      </trkpt>
      <trkpt lat="44.1401" lon="3.2315">
        <ele>836.6</ele>
        <time>2021-10-14T12:47:49Z</time>
      </trkpt>
      <trkpt lat="44.14013" lon="3.23137">
        <ele>836.4</ele>
        <time>2021-10-14T12:47:51Z</time>
      </trkpt>
      <trkpt lat="44.14011" lon="3.23122">
        <ele>835.9</ele>
        <time>2021-10-14T12:47:52Z</time>
      </trkpt>
      <trkpt lat="44.14007" lon="3.23106">
        <ele>835.3</ele>
        <time>2021-10-14T12:47:54Z</time>
      </trkpt>
      <trkpt lat="44.14004" lon="3.23089">
        <ele>834.6</ele>
        <time>2021-10-14T12:47:56Z</time>
      </trkpt>
      <trkpt lat="44.14" lon="3.23069">
        <ele>833.9</ele>
        <time>2021-10-14T12:47:58Z</time>
      </trkpt>
      <trkpt lat="44.13999" lon="3.2306">
        <ele>833.7</ele>
        <time>2021-10-14T12:47:59Z</time>
      </trkpt>
      <trkpt lat="44.13997" lon="3.2304">
        <ele>833.2</ele>
        <time>2021-10-14T12:48:01Z</time>
      </trkpt>
      <trkpt lat="44.13993" lon="3.23031">
        <ele>833</ele>
        <time>2021-10-14T12:48:02Z</time>
      </trkpt>
      <trkpt lat="44.1399" lon="3.23014">
        <ele>832.7</ele>
        <time>2021-10-14T12:48:04Z</time>
      </trkpt>
      <trkpt lat="44.13995" lon="3.22997">
        <ele>833.6</ele>
        <time>2021-10-14T12:48:06Z</time>
      </trkpt>
      <trkpt lat="44.14" lon="3.22986">
        <ele>834.1</ele>
        <time>2021-10-14T12:48:08Z</time>
      </trkpt>
      <trkpt lat="44.14002" lon="3.22982">
        <ele>834.1</ele>
        <time>2021-10-14T12:48:09Z</time>
      </trkpt>
      <trkpt lat="44.14006" lon="3.22974">
        <ele>834.3</ele>
        <time>2021-10-14T12:48:11Z</time>
      </trkpt>
      <trkpt lat="44.14007" lon="3.22969">
        <ele>834.4</ele>
        <time>2021-10-14T12:48:12Z</time>
      </trkpt>
      <trkpt lat="44.14007" lon="3.22964">
        <ele>834.6</ele>
        <time>2021-10-14T12:48:13Z</time>
      </trkpt>
      <trkpt lat="44.14003" lon="3.2296">
        <ele>834.9</ele>
        <time>2021-10-14T12:48:14Z</time>
      </trkpt>
      <trkpt lat="44.14001" lon="3.22958">
        <ele>835.1</ele>
        <time>2021-10-14T12:48:15Z</time>
      </trkpt>
      <trkpt lat="44.13998" lon="3.22957">
        <ele>835.2</ele>
        <time>2021-10-14T12:48:16Z</time>
      </trkpt>
      <trkpt lat="44.13998" lon="3.22956">
        <ele>835.3</ele>
        <time>2021-10-14T12:48:17Z</time>
      </trkpt>
      <trkpt lat="44.13993" lon="3.22955">
        <ele>835.5</ele>
        <time>2021-10-14T12:48:19Z</time>
      </trkpt>
      <trkpt lat="44.13991" lon="3.22955">
        <ele>835.6</ele>
        <time>2021-10-14T12:48:20Z</time>
      </trkpt>
      <trkpt lat="44.13988" lon="3.22954">
        <ele>835.7</ele>
        <time>2021-10-14T12:48:21Z</time>
      </trkpt>
      <trkpt lat="44.13984" lon="3.22955">
        <ele>835.7</ele>
        <time>2021-10-14T12:48:23Z</time>
      </trkpt>
      <trkpt lat="44.13979" lon="3.22957">
        <ele>835.8</ele>
        <time>2021-10-14T12:48:24Z</time>
      </trkpt>
      <trkpt lat="44.13975" lon="3.22959">
        <ele>835.7</ele>
        <time>2021-10-14T12:48:26Z</time>
      </trkpt>
      <trkpt lat="44.13972" lon="3.2296">
        <ele>835.7</ele>
        <time>2021-10-14T12:48:27Z</time>
      </trkpt>
      <trkpt lat="44.13967" lon="3.2296">
        <ele>835.5</ele>
        <time>2021-10-14T12:48:28Z</time>
      </trkpt>
      <trkpt lat="44.1396" lon="3.22958">
        <ele>835.4</ele>
        <time>2021-10-14T12:48:30Z</time>
      </trkpt>
      <trkpt lat="44.13956" lon="3.22952">
        <ele>835.2</ele>
        <time>2021-10-14T12:48:31Z</time>
      </trkpt>
      <trkpt lat="44.13951" lon="3.22946">
        <ele>835.1</ele>
        <time>2021-10-14T12:48:32Z</time>
      </trkpt>
      <trkpt lat="44.13949" lon="3.22941">
        <ele>835.1</ele>
        <time>2021-10-14T12:48:34Z</time>
      </trkpt>
      <trkpt lat="44.13949" lon="3.22936">
        <ele>835</ele>
        <time>2021-10-14T12:48:35Z</time>
      </trkpt>
      <trkpt lat="44.13948" lon="3.22926">
        <ele>835.1</ele>
        <time>2021-10-14T12:48:37Z</time>
      </trkpt>
      <trkpt lat="44.13947" lon="3.22919">
        <ele>835.2</ele>
        <time>2021-10-14T12:48:38Z</time>
      </trkpt>
      <trkpt lat="44.13946" lon="3.22912">
        <ele>835.3</ele>
        <time>2021-10-14T12:48:39Z</time>
      </trkpt>
      <trkpt lat="44.13944" lon="3.22906">
        <ele>835.4</ele>
        <time>2021-10-14T12:48:40Z</time>
      </trkpt>
      <trkpt lat="44.13941" lon="3.229">
        <ele>835.6</ele>
        <time>2021-10-14T12:48:41Z</time>
      </trkpt>
      <trkpt lat="44.13937" lon="3.22895">
        <ele>835.8</ele>
        <time>2021-10-14T12:48:43Z</time>
      </trkpt>
      <trkpt lat="44.13933" lon="3.22893">
        <ele>836</ele>
        <time>2021-10-14T12:48:44Z</time>
      </trkpt>
      <trkpt lat="44.13929" lon="3.22892">
        <ele>836.1</ele>
        <time>2021-10-14T12:48:46Z</time>
      </trkpt>
      <trkpt lat="44.13923" lon="3.22893">
        <ele>836.4</ele>
        <time>2021-10-14T12:48:47Z</time>
      </trkpt>
      <trkpt lat="44.13918" lon="3.22894">
        <ele>836.7</ele>
        <time>2021-10-14T12:48:49Z</time>
      </trkpt>
      <trkpt lat="44.13914" lon="3.22897">
        <ele>837</ele>
        <time>2021-10-14T12:48:50Z</time>
      </trkpt>
      <trkpt lat="44.1391" lon="3.22898">
        <ele>837.2</ele>
        <time>2021-10-14T12:48:51Z</time>
      </trkpt>
      <trkpt lat="44.13905" lon="3.22901">
        <ele>837.5</ele>
        <time>2021-10-14T12:48:53Z</time>
      </trkpt>
      <trkpt lat="44.13902" lon="3.22903">
        <ele>837.7</ele>
        <time>2021-10-14T12:48:54Z</time>
      </trkpt>
      <trkpt lat="44.13897" lon="3.22906">
        <ele>837.8</ele>
        <time>2021-10-14T12:48:55Z</time>
      </trkpt>
      <trkpt lat="44.13894" lon="3.22908">
        <ele>837.9</ele>
        <time>2021-10-14T12:48:56Z</time>
      </trkpt>
      <trkpt lat="44.1389" lon="3.22911">
        <ele>838</ele>
        <time>2021-10-14T12:48:57Z</time>
      </trkpt>
      <trkpt lat="44.13887" lon="3.22914">
        <ele>838</ele>
        <time>2021-10-14T12:48:59Z</time>
      </trkpt>
      <trkpt lat="44.13883" lon="3.2292">
        <ele>838.1</ele>
        <time>2021-10-14T12:49:00Z</time>
      </trkpt>
      <trkpt lat="44.1388" lon="3.22926">
        <ele>838.1</ele>
        <time>2021-10-14T12:49:01Z</time>
      </trkpt>
      <trkpt lat="44.13878" lon="3.22931">
        <ele>838.1</ele>
        <time>2021-10-14T12:49:02Z</time>
      </trkpt>
      <trkpt lat="44.13876" lon="3.22937">
        <ele>838.1</ele>
        <time>2021-10-14T12:49:03Z</time>
      </trkpt>
      <trkpt lat="44.13875" lon="3.22942">
        <ele>838.1</ele>
        <time>2021-10-14T12:49:05Z</time>
      </trkpt>
      <trkpt lat="44.13873" lon="3.22948">
        <ele>838.1</ele>
        <time>2021-10-14T12:49:06Z</time>
      </trkpt>
      <trkpt lat="44.13871" lon="3.22953">
        <ele>838</ele>
        <time>2021-10-14T12:49:07Z</time>
      </trkpt>
      <trkpt lat="44.13869" lon="3.22959">
        <ele>838</ele>
        <time>2021-10-14T12:49:08Z</time>
      </trkpt>
      <trkpt lat="44.13867" lon="3.22967">
        <ele>837.8</ele>
        <time>2021-10-14T12:49:10Z</time>
      </trkpt>
      <trkpt lat="44.13865" lon="3.22972">
        <ele>837.8</ele>
        <time>2021-10-14T12:49:11Z</time>
      </trkpt>
      <trkpt lat="44.1386" lon="3.22976">
        <ele>837.7</ele>
        <time>2021-10-14T12:49:12Z</time>
      </trkpt>
      <trkpt lat="44.13856" lon="3.22979">
        <ele>837.7</ele>
        <time>2021-10-14T12:49:13Z</time>
      </trkpt>
      <trkpt lat="44.13852" lon="3.2298">
        <ele>837.7</ele>
        <time>2021-10-14T12:49:14Z</time>
      </trkpt>
      <trkpt lat="44.13849" lon="3.22981">
        <ele>837.7</ele>
        <time>2021-10-14T12:49:15Z</time>
      </trkpt>
      <trkpt lat="44.13845" lon="3.22981">
        <ele>837.7</ele>
        <time>2021-10-14T12:49:17Z</time>
      </trkpt>
      <trkpt lat="44.13842" lon="3.22982">
        <ele>837.7</ele>
        <time>2021-10-14T12:49:18Z</time>
      </trkpt>
      <trkpt lat="44.13838" lon="3.22984">
        <ele>837.6</ele>
        <time>2021-10-14T12:49:19Z</time>
      </trkpt>
      <trkpt lat="44.13833" lon="3.22986">
        <ele>837.6</ele>
        <time>2021-10-14T12:49:20Z</time>
      </trkpt>
      <trkpt lat="44.13827" lon="3.22989">
        <ele>837.7</ele>
        <time>2021-10-14T12:49:22Z</time>
      </trkpt>
      <trkpt lat="44.1382" lon="3.22994">
        <ele>837.7</ele>
        <time>2021-10-14T12:49:23Z</time>
      </trkpt>
      <trkpt lat="44.13817" lon="3.22999">
        <ele>837.7</ele>
        <time>2021-10-14T12:49:24Z</time>
      </trkpt>
      <trkpt lat="44.13814" lon="3.23003">
        <ele>837.7</ele>
        <time>2021-10-14T12:49:26Z</time>
      </trkpt>
      <trkpt lat="44.13811" lon="3.23007">
        <ele>837.6</ele>
        <time>2021-10-14T12:49:27Z</time>
      </trkpt>
      <trkpt lat="44.13808" lon="3.23012">
        <ele>837.4</ele>
        <time>2021-10-14T12:49:28Z</time>
      </trkpt>
      <trkpt lat="44.13804" lon="3.23014">
        <ele>837.1</ele>
        <time>2021-10-14T12:49:30Z</time>
      </trkpt>
      <trkpt lat="44.1379" lon="3.23002">
        <ele>836.2</ele>
        <time>2021-10-14T14:19:08Z</time>
      </trkpt>
      <trkpt lat="44.13786" lon="3.22998">
        <ele>836.2</ele>
        <time>2021-10-14T14:19:09Z</time>
      </trkpt>
      <trkpt lat="44.13783" lon="3.22995">
        <ele>836.3</ele>
        <time>2021-10-14T14:19:10Z</time>
      </trkpt>
      <trkpt lat="44.1378" lon="3.2299">
        <ele>836.3</ele>
        <time>2021-10-14T14:19:11Z</time>
      </trkpt>
      <trkpt lat="44.13775" lon="3.22984">
        <ele>836.2</ele>
        <time>2021-10-14T14:19:14Z</time>
      </trkpt>
      <trkpt lat="44.13772" lon="3.22982">
        <ele>836.1</ele>
        <time>2021-10-14T14:19:15Z</time>
      </trkpt>
      <trkpt lat="44.13771" lon="3.22982">
        <ele>836</ele>
        <time>2021-10-14T14:19:16Z</time>
      </trkpt>
      <trkpt lat="44.13764" lon="3.22974">
        <ele>835.4</ele>
        <time>2021-10-14T14:19:18Z</time>
      </trkpt>
      <trkpt lat="44.1376" lon="3.22968">
        <ele>835</ele>
        <time>2021-10-14T14:19:19Z</time>
      </trkpt>
      <trkpt lat="44.13757" lon="3.22962">
        <ele>834.4</ele>
        <time>2021-10-14T14:19:20Z</time>
      </trkpt>
      <trkpt lat="44.13755" lon="3.22956">
        <ele>833.9</ele>
        <time>2021-10-14T14:19:21Z</time>
      </trkpt>
      <trkpt lat="44.13749" lon="3.22944">
        <ele>832.3</ele>
        <time>2021-10-14T14:19:23Z</time>
      </trkpt>
      <trkpt lat="44.13746" lon="3.22931">
        <ele>831.1</ele>
        <time>2021-10-14T14:19:25Z</time>
      </trkpt>
      <trkpt lat="44.13748" lon="3.22926">
        <ele>831.4</ele>
        <time>2021-10-14T14:19:26Z</time>
      </trkpt>
      <trkpt lat="44.13748" lon="3.22919">
        <ele>830.9</ele>
        <time>2021-10-14T14:19:27Z</time>
      </trkpt>
      <trkpt lat="44.1375" lon="3.22911">
        <ele>830.5</ele>
        <time>2021-10-14T14:19:28Z</time>
      </trkpt>
      <trkpt lat="44.13755" lon="3.229">
        <ele>830.9</ele>
        <time>2021-10-14T14:19:30Z</time>
      </trkpt>
      <trkpt lat="44.13756" lon="3.22897">
        <ele>830.8</ele>
        <time>2021-10-14T14:19:31Z</time>
      </trkpt>
      <trkpt lat="44.13755" lon="3.2289">
        <ele>830.2</ele>
        <time>2021-10-14T14:19:33Z</time>
      </trkpt>
      <trkpt lat="44.1375" lon="3.22887">
        <ele>829.9</ele>
        <time>2021-10-14T14:19:35Z</time>
      </trkpt>
      <trkpt lat="44.13747" lon="3.22884">
        <ele>828.8</ele>
        <time>2021-10-14T14:19:37Z</time>
      </trkpt>
      <trkpt lat="44.13746" lon="3.22883">
        <ele>829</ele>
        <time>2021-10-14T14:19:38Z</time>
      </trkpt>
      <trkpt lat="44.13747" lon="3.2288">
        <ele>829.2</ele>
        <time>2021-10-14T14:19:40Z</time>
      </trkpt>
      <trkpt lat="44.13748" lon="3.22879">
        <ele>829.4</ele>
        <time>2021-10-14T14:19:41Z</time>
      </trkpt>
      <trkpt lat="44.13748" lon="3.22879">
        <ele>829.5</ele>
        <time>2021-10-14T14:19:43Z</time>
      </trkpt>
      <trkpt lat="44.13748" lon="3.22877">
        <ele>829.3</ele>
        <time>2021-10-14T14:19:45Z</time>
      </trkpt>
      <trkpt lat="44.13747" lon="3.22877">
        <ele>829.4</ele>
        <time>2021-10-14T14:19:47Z</time>
      </trkpt>
      <trkpt lat="44.13747" lon="3.22876">
        <ele>829.1</ele>
        <time>2021-10-14T14:19:48Z</time>
      </trkpt>
      <trkpt lat="44.13747" lon="3.22875">
        <ele>829.3</ele>
        <time>2021-10-14T14:19:49Z</time>
      </trkpt>
      <trkpt lat="44.13747" lon="3.22874">
        <ele>829.4</ele>
        <time>2021-10-14T14:19:50Z</time>
      </trkpt>
      <trkpt lat="44.13747" lon="3.22873">
        <ele>829.4</ele>
        <time>2021-10-14T14:19:51Z</time>
      </trkpt>
      <trkpt lat="44.13746" lon="3.22873">
        <ele>829.5</ele>
        <time>2021-10-14T14:19:52Z</time>
      </trkpt>
      <trkpt lat="44.13746" lon="3.22872">
        <ele>829.5</ele>
        <time>2021-10-14T14:19:54Z</time>
      </trkpt>
      <trkpt lat="44.13746" lon="3.22872">
        <ele>829.5</ele>
        <time>2021-10-14T14:19:55Z</time>
      </trkpt>
      <trkpt lat="44.13746" lon="3.22871">
        <ele>829.6</ele>
        <time>2021-10-14T14:19:56Z</time>
      </trkpt>
      <trkpt lat="44.13746" lon="3.2287">
        <ele>829.6</ele>
        <time>2021-10-14T14:19:58Z</time>
      </trkpt>
      <trkpt lat="44.13746" lon="3.2287">
        <ele>829.6</ele>
        <time>2021-10-14T14:19:59Z</time>
      </trkpt>
      <trkpt lat="44.13746" lon="3.22869">
        <ele>829.7</ele>
        <time>2021-10-14T14:20:00Z</time>
      </trkpt>
      <trkpt lat="44.13746" lon="3.22868">
        <ele>829.7</ele>
        <time>2021-10-14T14:20:02Z</time>
      </trkpt>
      <trkpt lat="44.13745" lon="3.22868">
        <ele>829.7</ele>
        <time>2021-10-14T14:20:03Z</time>
      </trkpt>
      <trkpt lat="44.13745" lon="3.22867">
        <ele>829.7</ele>
        <time>2021-10-14T14:20:04Z</time>
      </trkpt>
      <trkpt lat="44.13745" lon="3.22867">
        <ele>829.7</ele>
        <time>2021-10-14T14:20:06Z</time>
      </trkpt>
      <trkpt lat="44.13745" lon="3.22866">
        <ele>829.7</ele>
        <time>2021-10-14T14:21:18Z</time>
      </trkpt>
      <trkpt lat="44.13745" lon="3.22865">
        <ele>829.7</ele>
        <time>2021-10-14T14:21:20Z</time>
      </trkpt>
      <trkpt lat="44.13745" lon="3.22865">
        <ele>829.7</ele>
        <time>2021-10-14T14:21:21Z</time>
      </trkpt>
      <trkpt lat="44.13745" lon="3.22864">
        <ele>829.7</ele>
        <time>2021-10-14T14:21:23Z</time>
      </trkpt>
      <trkpt lat="44.13745" lon="3.22863">
        <ele>829.7</ele>
        <time>2021-10-14T14:21:24Z</time>
      </trkpt>
      <trkpt lat="44.13744" lon="3.22863">
        <ele>829.7</ele>
        <time>2021-10-14T14:21:26Z</time>
      </trkpt>
      <trkpt lat="44.13744" lon="3.22862">
        <ele>829.6</ele>
        <time>2021-10-14T14:21:28Z</time>
      </trkpt>
      <trkpt lat="44.13744" lon="3.22862">
        <ele>829.6</ele>
        <time>2021-10-14T14:21:29Z</time>
      </trkpt>
      <trkpt lat="44.13744" lon="3.22861">
        <ele>829.5</ele>
        <time>2021-10-14T14:21:30Z</time>
      </trkpt>
      <trkpt lat="44.13744" lon="3.2286">
        <ele>829.4</ele>
        <time>2021-10-14T14:21:31Z</time>
      </trkpt>
      <trkpt lat="44.13744" lon="3.2286">
        <ele>829.4</ele>
        <time>2021-10-14T14:21:32Z</time>
      </trkpt>
      <trkpt lat="44.13744" lon="3.22859">
        <ele>829.3</ele>
        <time>2021-10-14T14:25:25Z</time>
      </trkpt>
      <trkpt lat="44.13743" lon="3.22858">
        <ele>829.3</ele>
        <time>2021-10-14T14:25:27Z</time>
      </trkpt>
      <trkpt lat="44.13743" lon="3.22858">
        <ele>829.2</ele>
        <time>2021-10-14T14:25:28Z</time>
      </trkpt>
      <trkpt lat="44.1374" lon="3.22853">
        <ele>828.2</ele>
        <time>2021-10-14T14:25:29Z</time>
      </trkpt>
      <trkpt lat="44.13737" lon="3.22849">
        <ele>826.8</ele>
        <time>2021-10-14T14:25:31Z</time>
      </trkpt>
      <trkpt lat="44.13734" lon="3.22846">
        <ele>825.4</ele>
        <time>2021-10-14T14:25:32Z</time>
      </trkpt>
      <trkpt lat="44.13729" lon="3.22843">
        <ele>823.5</ele>
        <time>2021-10-14T14:25:33Z</time>
      </trkpt>
      <trkpt lat="44.1372" lon="3.22839">
        <ele>820.8</ele>
        <time>2021-10-14T14:25:35Z</time>
      </trkpt>
      <trkpt lat="44.13715" lon="3.22834">
        <ele>819.4</ele>
        <time>2021-10-14T14:25:36Z</time>
      </trkpt>
      <trkpt lat="44.13709" lon="3.2282">
        <ele>817</ele>
        <time>2021-10-14T14:25:38Z</time>
      </trkpt>
      <trkpt lat="44.13703" lon="3.22802">
        <ele>814.6</ele>
        <time>2021-10-14T14:25:40Z</time>
      </trkpt>
      <trkpt lat="44.13694" lon="3.22784">
        <ele>813.4</ele>
        <time>2021-10-14T14:25:42Z</time>
      </trkpt>
      <trkpt lat="44.1369" lon="3.22776">
        <ele>813</ele>
        <time>2021-10-14T14:25:43Z</time>
      </trkpt>
      <trkpt lat="44.13685" lon="3.22761">
        <ele>812.3</ele>
        <time>2021-10-14T14:25:45Z</time>
      </trkpt>
      <trkpt lat="44.13685" lon="3.22757">
        <ele>812.1</ele>
        <time>2021-10-14T14:25:46Z</time>
      </trkpt>
      <trkpt lat="44.13687" lon="3.22757">
        <ele>811.9</ele>
        <time>2021-10-14T14:25:47Z</time>
      </trkpt>
      <trkpt lat="44.13691" lon="3.22752">
        <ele>811.4</ele>
        <time>2021-10-14T14:25:49Z</time>
      </trkpt>
      <trkpt lat="44.13696" lon="3.22738">
        <ele>810.3</ele>
        <time>2021-10-14T14:25:51Z</time>
      </trkpt>
      <trkpt lat="44.13701" lon="3.22716">
        <ele>808.9</ele>
        <time>2021-10-14T14:25:53Z</time>
      </trkpt>
      <trkpt lat="44.13701" lon="3.22706">
        <ele>808.5</ele>
        <time>2021-10-14T14:25:54Z</time>
      </trkpt>
      <trkpt lat="44.13699" lon="3.22697">
        <ele>808.4</ele>
        <time>2021-10-14T14:25:55Z</time>
      </trkpt>
      <trkpt lat="44.13696" lon="3.22688">
        <ele>808.4</ele>
        <time>2021-10-14T14:25:57Z</time>
      </trkpt>
      <trkpt lat="44.13695" lon="3.22684">
        <ele>808.4</ele>
        <time>2021-10-14T14:25:58Z</time>
      </trkpt>
      <trkpt lat="44.13693" lon="3.22677">
        <ele>808.5</ele>
        <time>2021-10-14T14:25:59Z</time>
      </trkpt>
      <trkpt lat="44.13692" lon="3.2267">
        <ele>808.6</ele>
        <time>2021-10-14T14:26:01Z</time>
      </trkpt>
      <trkpt lat="44.13692" lon="3.22665">
        <ele>808.6</ele>
        <time>2021-10-14T14:26:02Z</time>
      </trkpt>
      <trkpt lat="44.13691" lon="3.22663">
        <ele>808.6</ele>
        <time>2021-10-14T14:26:03Z</time>
      </trkpt>
      <trkpt lat="44.13689" lon="3.22659">
        <ele>808.6</ele>
        <time>2021-10-14T14:26:04Z</time>
      </trkpt>
      <trkpt lat="44.13687" lon="3.22656">
        <ele>808.5</ele>
        <time>2021-10-14T14:26:05Z</time>
      </trkpt>
      <trkpt lat="44.13685" lon="3.22652">
        <ele>808.4</ele>
        <time>2021-10-14T14:26:07Z</time>
      </trkpt>
      <trkpt lat="44.13684" lon="3.22648">
        <ele>808.4</ele>
        <time>2021-10-14T14:26:08Z</time>
      </trkpt>
      <trkpt lat="44.13683" lon="3.22641">
        <ele>808.2</ele>
        <time>2021-10-14T14:26:10Z</time>
      </trkpt>
      <trkpt lat="44.13683" lon="3.22637">
        <ele>808</ele>
        <time>2021-10-14T14:26:11Z</time>
      </trkpt>
      <trkpt lat="44.13686" lon="3.22628">
        <ele>807.6</ele>
        <time>2021-10-14T14:26:13Z</time>
      </trkpt>
      <trkpt lat="44.13688" lon="3.22622">
        <ele>807.3</ele>
        <time>2021-10-14T14:26:14Z</time>
      </trkpt>
      <trkpt lat="44.1369" lon="3.22612">
        <ele>806.7</ele>
        <time>2021-10-14T14:26:16Z</time>
      </trkpt>
      <trkpt lat="44.13694" lon="3.22601">
        <ele>806</ele>
        <time>2021-10-14T14:26:18Z</time>
      </trkpt>
      <trkpt lat="44.13696" lon="3.22593">
        <ele>805.5</ele>
        <time>2021-10-14T14:26:19Z</time>
      </trkpt>
      <trkpt lat="44.13702" lon="3.2258">
        <ele>804.6</ele>
        <time>2021-10-14T14:26:20Z</time>
      </trkpt>
      <trkpt lat="44.13704" lon="3.22571">
        <ele>804.2</ele>
        <time>2021-10-14T14:26:21Z</time>
      </trkpt>
      <trkpt lat="44.1371" lon="3.22557">
        <ele>803.3</ele>
        <time>2021-10-14T14:26:23Z</time>
      </trkpt>
      <trkpt lat="44.13712" lon="3.22548">
        <ele>802.8</ele>
        <time>2021-10-14T14:26:24Z</time>
      </trkpt>
      <trkpt lat="44.13713" lon="3.22539">
        <ele>802.4</ele>
        <time>2021-10-14T14:26:25Z</time>
      </trkpt>
      <trkpt lat="44.13715" lon="3.2252">
        <ele>801.5</ele>
        <time>2021-10-14T14:26:27Z</time>
      </trkpt>
      <trkpt lat="44.13714" lon="3.22501">
        <ele>801.3</ele>
        <time>2021-10-14T14:26:29Z</time>
      </trkpt>
      <trkpt lat="44.13712" lon="3.22496">
        <ele>801.3</ele>
        <time>2021-10-14T14:26:30Z</time>
      </trkpt>
      <trkpt lat="44.13708" lon="3.22491">
        <ele>801.3</ele>
        <time>2021-10-14T14:26:32Z</time>
      </trkpt>
      <trkpt lat="44.13705" lon="3.22486">
        <ele>801.3</ele>
        <time>2021-10-14T14:26:33Z</time>
      </trkpt>
      <trkpt lat="44.13702" lon="3.22482">
        <ele>801.1</ele>
        <time>2021-10-14T14:26:35Z</time>
      </trkpt>
      <trkpt lat="44.13699" lon="3.22479">
        <ele>800.8</ele>
        <time>2021-10-14T14:26:36Z</time>
      </trkpt>
      <trkpt lat="44.13697" lon="3.22476">
        <ele>800.3</ele>
        <time>2021-10-14T14:26:37Z</time>
      </trkpt>
      <trkpt lat="44.13696" lon="3.22471">
        <ele>799.1</ele>
        <time>2021-10-14T14:26:38Z</time>
      </trkpt>
      <trkpt lat="44.13697" lon="3.22465">
        <ele>797.9</ele>
        <time>2021-10-14T14:26:39Z</time>
      </trkpt>
      <trkpt lat="44.137" lon="3.22457">
        <ele>796</ele>
        <time>2021-10-14T14:26:40Z</time>
      </trkpt>
      <trkpt lat="44.13704" lon="3.22446">
        <ele>793.3</ele>
        <time>2021-10-14T14:26:42Z</time>
      </trkpt>
      <trkpt lat="44.13707" lon="3.22438">
        <ele>791.3</ele>
        <time>2021-10-14T14:26:43Z</time>
      </trkpt>
      <trkpt lat="44.13711" lon="3.22422">
        <ele>788.1</ele>
        <time>2021-10-14T14:26:45Z</time>
      </trkpt>
      <trkpt lat="44.13713" lon="3.22415">
        <ele>786.7</ele>
        <time>2021-10-14T14:26:46Z</time>
      </trkpt>
      <trkpt lat="44.1372" lon="3.22403">
        <ele>784</ele>
        <time>2021-10-14T14:26:48Z</time>
      </trkpt>
      <trkpt lat="44.13729" lon="3.2239">
        <ele>781</ele>
        <time>2021-10-14T14:26:50Z</time>
      </trkpt>
      <trkpt lat="44.13732" lon="3.22384">
        <ele>779.7</ele>
        <time>2021-10-14T14:26:51Z</time>
      </trkpt>
      <trkpt lat="44.13736" lon="3.22382">
        <ele>778.8</ele>
        <time>2021-10-14T14:26:52Z</time>
      </trkpt>
      <trkpt lat="44.13739" lon="3.2238">
        <ele>777.8</ele>
        <time>2021-10-14T14:26:53Z</time>
      </trkpt>
      <trkpt lat="44.13744" lon="3.22375">
        <ele>776.2</ele>
        <time>2021-10-14T14:26:55Z</time>
      </trkpt>
      <trkpt lat="44.13746" lon="3.22373">
        <ele>775.5</ele>
        <time>2021-10-14T14:26:56Z</time>
      </trkpt>
      <trkpt lat="44.13749" lon="3.2237">
        <ele>774.8</ele>
        <time>2021-10-14T14:26:57Z</time>
      </trkpt>
      <trkpt lat="44.13755" lon="3.22359">
        <ele>772.7</ele>
        <time>2021-10-14T14:26:59Z</time>
      </trkpt>
      <trkpt lat="44.13757" lon="3.22354">
        <ele>771.9</ele>
        <time>2021-10-14T14:27:00Z</time>
      </trkpt>
      <trkpt lat="44.13761" lon="3.22352">
        <ele>770.7</ele>
        <time>2021-10-14T14:27:01Z</time>
      </trkpt>
      <trkpt lat="44.13762" lon="3.22351">
        <ele>770.1</ele>
        <time>2021-10-14T14:27:02Z</time>
      </trkpt>
      <trkpt lat="44.13766" lon="3.2235">
        <ele>768.7</ele>
        <time>2021-10-14T14:27:04Z</time>
      </trkpt>
      <trkpt lat="44.13769" lon="3.22346">
        <ele>767.2</ele>
        <time>2021-10-14T14:27:05Z</time>
      </trkpt>
      <trkpt lat="44.13772" lon="3.22346">
        <ele>765.9</ele>
        <time>2021-10-14T14:27:07Z</time>
      </trkpt>
      <trkpt lat="44.13774" lon="3.22346">
        <ele>765.5</ele>
        <time>2021-10-14T14:27:08Z</time>
      </trkpt>
      <trkpt lat="44.13776" lon="3.22351">
        <ele>763.7</ele>
        <time>2021-10-14T14:27:09Z</time>
      </trkpt>
      <trkpt lat="44.13779" lon="3.22351">
        <ele>762.5</ele>
        <time>2021-10-14T14:27:11Z</time>
      </trkpt>
      <trkpt lat="44.13782" lon="3.22349">
        <ele>761.2</ele>
        <time>2021-10-14T14:27:12Z</time>
      </trkpt>
      <trkpt lat="44.13784" lon="3.22347">
        <ele>760</ele>
        <time>2021-10-14T14:27:13Z</time>
      </trkpt>
      <trkpt lat="44.13786" lon="3.22345">
        <ele>759.1</ele>
        <time>2021-10-14T14:27:14Z</time>
      </trkpt>
      <trkpt lat="44.13788" lon="3.22345">
        <ele>758.4</ele>
        <time>2021-10-14T14:27:16Z</time>
      </trkpt>
      <trkpt lat="44.13791" lon="3.2235">
        <ele>756.8</ele>
        <time>2021-10-14T14:27:17Z</time>
      </trkpt>
      <trkpt lat="44.13792" lon="3.22352">
        <ele>756.1</ele>
        <time>2021-10-14T14:27:18Z</time>
      </trkpt>
      <trkpt lat="44.13793" lon="3.22358">
        <ele>754.8</ele>
        <time>2021-10-14T14:27:20Z</time>
      </trkpt>
      <trkpt lat="44.13795" lon="3.22363">
        <ele>753.4</ele>
        <time>2021-10-14T14:27:21Z</time>
      </trkpt>
      <trkpt lat="44.13796" lon="3.22368">
        <ele>752.4</ele>
        <time>2021-10-14T14:27:23Z</time>
      </trkpt>
      <trkpt lat="44.13797" lon="3.22371">
        <ele>751.7</ele>
        <time>2021-10-14T14:27:24Z</time>
      </trkpt>
      <trkpt lat="44.13798" lon="3.22376">
        <ele>750.5</ele>
        <time>2021-10-14T14:27:26Z</time>
      </trkpt>
      <trkpt lat="44.13799" lon="3.22381">
        <ele>749.5</ele>
        <time>2021-10-14T14:27:27Z</time>
      </trkpt>
      <trkpt lat="44.13799" lon="3.22387">
        <ele>748.3</ele>
        <time>2021-10-14T14:27:28Z</time>
      </trkpt>
      <trkpt lat="44.13798" lon="3.22391">
        <ele>747.3</ele>
        <time>2021-10-14T14:27:29Z</time>
      </trkpt>
      <trkpt lat="44.13798" lon="3.22393">
        <ele>746.7</ele>
        <time>2021-10-14T14:27:31Z</time>
      </trkpt>
      <trkpt lat="44.13801" lon="3.22398">
        <ele>745.2</ele>
        <time>2021-10-14T14:27:33Z</time>
      </trkpt>
      <trkpt lat="44.13807" lon="3.22398">
        <ele>742.8</ele>
        <time>2021-10-14T14:27:35Z</time>
      </trkpt>
      <trkpt lat="44.13817" lon="3.22397">
        <ele>738.5</ele>
        <time>2021-10-14T14:27:36Z</time>
      </trkpt>
      <trkpt lat="44.13824" lon="3.22395">
        <ele>735.5</ele>
        <time>2021-10-14T14:27:38Z</time>
      </trkpt>
      <trkpt lat="44.13826" lon="3.22396">
        <ele>734.4</ele>
        <time>2021-10-14T14:27:39Z</time>
      </trkpt>
      <trkpt lat="44.13831" lon="3.22399">
        <ele>732.5</ele>
        <time>2021-10-14T14:27:40Z</time>
      </trkpt>
      <trkpt lat="44.13835" lon="3.22399">
        <ele>731.1</ele>
        <time>2021-10-14T14:27:42Z</time>
      </trkpt>
      <trkpt lat="44.1384" lon="3.224">
        <ele>729</ele>
        <time>2021-10-14T14:27:43Z</time>
      </trkpt>
      <trkpt lat="44.13845" lon="3.22399">
        <ele>727.4</ele>
        <time>2021-10-14T14:27:45Z</time>
      </trkpt>
      <trkpt lat="44.13846" lon="3.22394">
        <ele>726.1</ele>
        <time>2021-10-14T14:27:46Z</time>
      </trkpt>
      <trkpt lat="44.1385" lon="3.22387">
        <ele>724.3</ele>
        <time>2021-10-14T14:27:47Z</time>
      </trkpt>
      <trkpt lat="44.13855" lon="3.22378">
        <ele>722.1</ele>
        <time>2021-10-14T14:27:48Z</time>
      </trkpt>
      <trkpt lat="44.13864" lon="3.22359">
        <ele>717.9</ele>
        <time>2021-10-14T14:27:50Z</time>
      </trkpt>
      <trkpt lat="44.13874" lon="3.22343">
        <ele>714.2</ele>
        <time>2021-10-14T14:27:52Z</time>
      </trkpt>
      <trkpt lat="44.13884" lon="3.22333">
        <ele>711.5</ele>
        <time>2021-10-14T14:27:54Z</time>
      </trkpt>
      <trkpt lat="44.13888" lon="3.2233">
        <ele>710.4</ele>
        <time>2021-10-14T14:27:55Z</time>
      </trkpt>
      <trkpt lat="44.13892" lon="3.22326">
        <ele>709.5</ele>
        <time>2021-10-14T14:27:56Z</time>
      </trkpt>
      <trkpt lat="44.13896" lon="3.22323">
        <ele>708.6</ele>
        <time>2021-10-14T14:27:57Z</time>
      </trkpt>
      <trkpt lat="44.13901" lon="3.2232">
        <ele>707.4</ele>
        <time>2021-10-14T14:27:59Z</time>
      </trkpt>
      <trkpt lat="44.13904" lon="3.22319">
        <ele>706.8</ele>
        <time>2021-10-14T14:28:00Z</time>
      </trkpt>
      <trkpt lat="44.13915" lon="3.22307">
        <ele>703.9</ele>
        <time>2021-10-14T14:28:02Z</time>
      </trkpt>
      <trkpt lat="44.13919" lon="3.223">
        <ele>702.4</ele>
        <time>2021-10-14T14:28:03Z</time>
      </trkpt>
      <trkpt lat="44.13929" lon="3.22291">
        <ele>699.6</ele>
        <time>2021-10-14T14:28:05Z</time>
      </trkpt>
      <trkpt lat="44.13938" lon="3.22277">
        <ele>696.3</ele>
        <time>2021-10-14T14:28:07Z</time>
      </trkpt>
      <trkpt lat="44.13946" lon="3.22263">
        <ele>693.2</ele>
        <time>2021-10-14T14:28:09Z</time>
      </trkpt>
      <trkpt lat="44.13949" lon="3.22257">
        <ele>692</ele>
        <time>2021-10-14T14:28:11Z</time>
      </trkpt>
      <trkpt lat="44.13949" lon="3.22257">
        <ele>691.9</ele>
        <time>2021-10-14T14:28:12Z</time>
      </trkpt>
      <trkpt lat="44.13947" lon="3.22256">
        <ele>691.5</ele>
        <time>2021-10-14T14:28:13Z</time>
      </trkpt>
      <trkpt lat="44.13943" lon="3.2225">
        <ele>690.4</ele>
        <time>2021-10-14T14:28:15Z</time>
      </trkpt>
      <trkpt lat="44.13941" lon="3.22247">
        <ele>690</ele>
        <time>2021-10-14T14:28:16Z</time>
      </trkpt>
      <trkpt lat="44.1394" lon="3.22243">
        <ele>689.6</ele>
        <time>2021-10-14T14:28:17Z</time>
      </trkpt>
      <trkpt lat="44.13939" lon="3.2224">
        <ele>689.2</ele>
        <time>2021-10-14T14:28:18Z</time>
      </trkpt>
      <trkpt lat="44.13936" lon="3.22236">
        <ele>688.8</ele>
        <time>2021-10-14T14:28:19Z</time>
      </trkpt>
      <trkpt lat="44.13933" lon="3.22231">
        <ele>688.4</ele>
        <time>2021-10-14T14:28:20Z</time>
      </trkpt>
      <trkpt lat="44.1393" lon="3.22226">
        <ele>687.9</ele>
        <time>2021-10-14T14:28:21Z</time>
      </trkpt>
      <trkpt lat="44.13925" lon="3.22208">
        <ele>686.6</ele>
        <time>2021-10-14T14:28:23Z</time>
      </trkpt>
      <trkpt lat="44.13926" lon="3.22197">
        <ele>685.9</ele>
        <time>2021-10-14T14:28:24Z</time>
      </trkpt>
      <trkpt lat="44.13924" lon="3.22181">
        <ele>684.4</ele>
        <time>2021-10-14T14:28:26Z</time>
      </trkpt>
      <trkpt lat="44.13922" lon="3.22173">
        <ele>683.4</ele>
        <time>2021-10-14T14:28:27Z</time>
      </trkpt>
      <trkpt lat="44.13921" lon="3.22167">
        <ele>682.7</ele>
        <time>2021-10-14T14:28:28Z</time>
      </trkpt>
      <trkpt lat="44.1392" lon="3.22161">
        <ele>681.8</ele>
        <time>2021-10-14T14:28:30Z</time>
      </trkpt>
      <trkpt lat="44.13915" lon="3.22149">
        <ele>680</ele>
        <time>2021-10-14T14:28:32Z</time>
      </trkpt>
      <trkpt lat="44.13911" lon="3.22139">
        <ele>678.6</ele>
        <time>2021-10-14T14:28:34Z</time>
      </trkpt>
      <trkpt lat="44.13907" lon="3.22135">
        <ele>677.8</ele>
        <time>2021-10-14T14:28:35Z</time>
      </trkpt>
      <trkpt lat="44.13902" lon="3.22117">
        <ele>675.5</ele>
        <time>2021-10-14T14:28:37Z</time>
      </trkpt>
      <trkpt lat="44.139" lon="3.22102">
        <ele>673.6</ele>
        <time>2021-10-14T14:28:38Z</time>
      </trkpt>
      <trkpt lat="44.13898" lon="3.22076">
        <ele>670</ele>
        <time>2021-10-14T14:28:40Z</time>
      </trkpt>
      <trkpt lat="44.13897" lon="3.22066">
        <ele>668.3</ele>
        <time>2021-10-14T14:28:41Z</time>
      </trkpt>
      <trkpt lat="44.13892" lon="3.2205">
        <ele>665.5</ele>
        <time>2021-10-14T14:28:43Z</time>
      </trkpt>
      <trkpt lat="44.13888" lon="3.22046">
        <ele>664.3</ele>
        <time>2021-10-14T14:28:44Z</time>
      </trkpt>
      <trkpt lat="44.13885" lon="3.22041">
        <ele>663.2</ele>
        <time>2021-10-14T14:28:46Z</time>
      </trkpt>
      <trkpt lat="44.13885" lon="3.22036">
        <ele>662.4</ele>
        <time>2021-10-14T14:28:47Z</time>
      </trkpt>
      <trkpt lat="44.13885" lon="3.22034">
        <ele>662.1</ele>
        <time>2021-10-14T14:28:48Z</time>
      </trkpt>
      <trkpt lat="44.13884" lon="3.22028">
        <ele>661</ele>
        <time>2021-10-14T14:28:49Z</time>
      </trkpt>
      <trkpt lat="44.13881" lon="3.22024">
        <ele>660.2</ele>
        <time>2021-10-14T14:28:50Z</time>
      </trkpt>
      <trkpt lat="44.13873" lon="3.22013">
        <ele>658</ele>
        <time>2021-10-14T14:28:52Z</time>
      </trkpt>
      <trkpt lat="44.13865" lon="3.22002">
        <ele>656.3</ele>
        <time>2021-10-14T14:28:54Z</time>
      </trkpt>
      <trkpt lat="44.13853" lon="3.21992">
        <ele>654.1</ele>
        <time>2021-10-14T14:28:56Z</time>
      </trkpt>
      <trkpt lat="44.13843" lon="3.21981">
        <ele>651.8</ele>
        <time>2021-10-14T14:28:58Z</time>
      </trkpt>
      <trkpt lat="44.13838" lon="3.21975">
        <ele>650.5</ele>
        <time>2021-10-14T14:28:59Z</time>
      </trkpt>
      <trkpt lat="44.13826" lon="3.21966">
        <ele>647.7</ele>
        <time>2021-10-14T14:29:01Z</time>
      </trkpt>
      <trkpt lat="44.1382" lon="3.21964">
        <ele>646.3</ele>
        <time>2021-10-14T14:29:02Z</time>
      </trkpt>
      <trkpt lat="44.1381" lon="3.21959">
        <ele>643.7</ele>
        <time>2021-10-14T14:29:04Z</time>
      </trkpt>
      <trkpt lat="44.13805" lon="3.2196">
        <ele>642.5</ele>
        <time>2021-10-14T14:29:05Z</time>
      </trkpt>
      <trkpt lat="44.13803" lon="3.21961">
        <ele>641.9</ele>
        <time>2021-10-14T14:29:06Z</time>
      </trkpt>
      <trkpt lat="44.13796" lon="3.21964">
        <ele>640.1</ele>
        <time>2021-10-14T14:29:08Z</time>
      </trkpt>
      <trkpt lat="44.13792" lon="3.21967">
        <ele>638.9</ele>
        <time>2021-10-14T14:29:09Z</time>
      </trkpt>
      <trkpt lat="44.13789" lon="3.2197">
        <ele>637.7</ele>
        <time>2021-10-14T14:29:10Z</time>
      </trkpt>
      <trkpt lat="44.13784" lon="3.21972">
        <ele>636.3</ele>
        <time>2021-10-14T14:29:12Z</time>
      </trkpt>
      <trkpt lat="44.13777" lon="3.2197">
        <ele>634.1</ele>
        <time>2021-10-14T14:29:13Z</time>
      </trkpt>
      <trkpt lat="44.13771" lon="3.21971">
        <ele>633.3</ele>
        <time>2021-10-14T14:29:15Z</time>
      </trkpt>
      <trkpt lat="44.13767" lon="3.2197">
        <ele>632.9</ele>
        <time>2021-10-14T14:29:16Z</time>
      </trkpt>
      <trkpt lat="44.13765" lon="3.21967">
        <ele>632.6</ele>
        <time>2021-10-14T14:29:17Z</time>
      </trkpt>
      <trkpt lat="44.13765" lon="3.21965">
        <ele>632.5</ele>
        <time>2021-10-14T14:29:19Z</time>
      </trkpt>
      <trkpt lat="44.13766" lon="3.21963">
        <ele>632.2</ele>
        <time>2021-10-14T14:29:21Z</time>
      </trkpt>
      <trkpt lat="44.13768" lon="3.21961">
        <ele>632</ele>
        <time>2021-10-14T14:29:22Z</time>
      </trkpt>
      <trkpt lat="44.13767" lon="3.21959">
        <ele>631.8</ele>
        <time>2021-10-14T14:29:24Z</time>
      </trkpt>
      <trkpt lat="44.13764" lon="3.21958">
        <ele>631.1</ele>
        <time>2021-10-14T14:29:25Z</time>
      </trkpt>
      <trkpt lat="44.13759" lon="3.21956">
        <ele>630.1</ele>
        <time>2021-10-14T14:29:26Z</time>
      </trkpt>
      <trkpt lat="44.13757" lon="3.21952">
        <ele>628.2</ele>
        <time>2021-10-14T14:29:28Z</time>
      </trkpt>
      <trkpt lat="44.13757" lon="3.21949">
        <ele>626.3</ele>
        <time>2021-10-14T14:29:29Z</time>
      </trkpt>
      <trkpt lat="44.13759" lon="3.21943">
        <ele>624.5</ele>
        <time>2021-10-14T14:29:31Z</time>
      </trkpt>
      <trkpt lat="44.13761" lon="3.21939">
        <ele>623.1</ele>
        <time>2021-10-14T14:29:33Z</time>
      </trkpt>
      <trkpt lat="44.13763" lon="3.21934">
        <ele>621.6</ele>
        <time>2021-10-14T14:29:34Z</time>
      </trkpt>
      <trkpt lat="44.13764" lon="3.2193">
        <ele>619.8</ele>
        <time>2021-10-14T14:29:35Z</time>
      </trkpt>
      <trkpt lat="44.13762" lon="3.21927">
        <ele>617.7</ele>
        <time>2021-10-14T14:29:37Z</time>
      </trkpt>
      <trkpt lat="44.13761" lon="3.21925">
        <ele>617.4</ele>
        <time>2021-10-14T14:29:38Z</time>
      </trkpt>
      <trkpt lat="44.13753" lon="3.21926">
        <ele>615.8</ele>
        <time>2021-10-14T14:29:39Z</time>
      </trkpt>
      <trkpt lat="44.13748" lon="3.21925">
        <ele>613.6</ele>
        <time>2021-10-14T14:29:40Z</time>
      </trkpt>
      <trkpt lat="44.13746" lon="3.21923">
        <ele>612.7</ele>
        <time>2021-10-14T14:29:41Z</time>
      </trkpt>
      <trkpt lat="44.13744" lon="3.21919">
        <ele>610.9</ele>
        <time>2021-10-14T14:29:42Z</time>
      </trkpt>
      <trkpt lat="44.13744" lon="3.21917">
        <ele>610.1</ele>
        <time>2021-10-14T14:29:43Z</time>
      </trkpt>
      <trkpt lat="44.13744" lon="3.21913">
        <ele>608.3</ele>
        <time>2021-10-14T14:29:45Z</time>
      </trkpt>
      <trkpt lat="44.13747" lon="3.2191">
        <ele>607.3</ele>
        <time>2021-10-14T14:29:46Z</time>
      </trkpt>
      <trkpt lat="44.1375" lon="3.21901">
        <ele>604.6</ele>
        <time>2021-10-14T14:29:47Z</time>
      </trkpt>
      <trkpt lat="44.1376" lon="3.21889">
        <ele>601.1</ele>
        <time>2021-10-14T14:29:49Z</time>
      </trkpt>
      <trkpt lat="44.13768" lon="3.21874">
        <ele>598.5</ele>
        <time>2021-10-14T14:29:51Z</time>
      </trkpt>
      <trkpt lat="44.13772" lon="3.21868">
        <ele>597.3</ele>
        <time>2021-10-14T14:29:52Z</time>
      </trkpt>
      <trkpt lat="44.13776" lon="3.2186">
        <ele>596.1</ele>
        <time>2021-10-14T14:29:53Z</time>
      </trkpt>
      <trkpt lat="44.1378" lon="3.21843">
        <ele>594.4</ele>
        <time>2021-10-14T14:29:55Z</time>
      </trkpt>
      <trkpt lat="44.13782" lon="3.21834">
        <ele>593.9</ele>
        <time>2021-10-14T14:29:56Z</time>
      </trkpt>
      <trkpt lat="44.13784" lon="3.21829">
        <ele>593.3</ele>
        <time>2021-10-14T14:29:57Z</time>
      </trkpt>
      <trkpt lat="44.13782" lon="3.21827">
        <ele>592.9</ele>
        <time>2021-10-14T14:29:59Z</time>
      </trkpt>
      <trkpt lat="44.13781" lon="3.21829">
        <ele>592.5</ele>
        <time>2021-10-14T14:30:00Z</time>
      </trkpt>
      <trkpt lat="44.1378" lon="3.21831">
        <ele>591.9</ele>
        <time>2021-10-14T14:30:01Z</time>
      </trkpt>
      <trkpt lat="44.13778" lon="3.21837">
        <ele>591.3</ele>
        <time>2021-10-14T14:30:02Z</time>
      </trkpt>
      <trkpt lat="44.13772" lon="3.21846">
        <ele>591</ele>
        <time>2021-10-14T14:30:04Z</time>
      </trkpt>
      <trkpt lat="44.13771" lon="3.21845">
        <ele>590.1</ele>
        <time>2021-10-14T14:30:05Z</time>
      </trkpt>
      <trkpt lat="44.13771" lon="3.21843">
        <ele>589.4</ele>
        <time>2021-10-14T14:30:07Z</time>
      </trkpt>
      <trkpt lat="44.1377" lon="3.21841">
        <ele>589</ele>
        <time>2021-10-14T14:30:08Z</time>
      </trkpt>
      <trkpt lat="44.13768" lon="3.21833">
        <ele>587.6</ele>
        <time>2021-10-14T14:30:09Z</time>
      </trkpt>
      <trkpt lat="44.13766" lon="3.21829">
        <ele>587</ele>
        <time>2021-10-14T14:30:10Z</time>
      </trkpt>
      <trkpt lat="44.13763" lon="3.21826">
        <ele>586.1</ele>
        <time>2021-10-14T14:30:11Z</time>
      </trkpt>
      <trkpt lat="44.13759" lon="3.21824">
        <ele>585.3</ele>
        <time>2021-10-14T14:30:13Z</time>
      </trkpt>
      <trkpt lat="44.13758" lon="3.21824">
        <ele>585</ele>
        <time>2021-10-14T14:30:14Z</time>
      </trkpt>
      <trkpt lat="44.13757" lon="3.21825">
        <ele>584.7</ele>
        <time>2021-10-14T14:30:15Z</time>
      </trkpt>
      <trkpt lat="44.13754" lon="3.21827">
        <ele>584.1</ele>
        <time>2021-10-14T14:30:16Z</time>
      </trkpt>
      <trkpt lat="44.13751" lon="3.2183">
        <ele>583.5</ele>
        <time>2021-10-14T14:30:18Z</time>
      </trkpt>
      <trkpt lat="44.13739" lon="3.21832">
        <ele>581.4</ele>
        <time>2021-10-14T14:30:20Z</time>
      </trkpt>
      <trkpt lat="44.13733" lon="3.21834">
        <ele>580.4</ele>
        <time>2021-10-14T14:30:21Z</time>
      </trkpt>
      <trkpt lat="44.1373" lon="3.21832">
        <ele>579.9</ele>
        <time>2021-10-14T14:30:23Z</time>
      </trkpt>
      <trkpt lat="44.13727" lon="3.21826">
        <ele>579</ele>
        <time>2021-10-14T14:30:24Z</time>
      </trkpt>
      <trkpt lat="44.13727" lon="3.21823">
        <ele>578.6</ele>
        <time>2021-10-14T14:30:26Z</time>
      </trkpt>
      <trkpt lat="44.13727" lon="3.21822">
        <ele>578.5</ele>
        <time>2021-10-14T14:30:27Z</time>
      </trkpt>
      <trkpt lat="44.13727" lon="3.21823">
        <ele>578.5</ele>
        <time>2021-10-14T14:30:29Z</time>
      </trkpt>
      <trkpt lat="44.13727" lon="3.21823">
        <ele>578.4</ele>
        <time>2021-10-14T14:30:31Z</time>
      </trkpt>
      <trkpt lat="44.13727" lon="3.21823">
        <ele>578.4</ele>
        <time>2021-10-14T14:30:33Z</time>
      </trkpt>
      <trkpt lat="44.13726" lon="3.21822">
        <ele>578.3</ele>
        <time>2021-10-14T14:30:36Z</time>
      </trkpt>
      <trkpt lat="44.13724" lon="3.21825">
        <ele>577.7</ele>
        <time>2021-10-14T14:30:38Z</time>
      </trkpt>
      <trkpt lat="44.1372" lon="3.2183">
        <ele>576.7</ele>
        <time>2021-10-14T14:30:39Z</time>
      </trkpt>
      <trkpt lat="44.13713" lon="3.21835">
        <ele>575</ele>
        <time>2021-10-14T14:30:41Z</time>
      </trkpt>
      <trkpt lat="44.1371" lon="3.21837">
        <ele>574.2</ele>
        <time>2021-10-14T14:30:42Z</time>
      </trkpt>
      <trkpt lat="44.13707" lon="3.21839">
        <ele>573.7</ele>
        <time>2021-10-14T14:30:43Z</time>
      </trkpt>
      <trkpt lat="44.13688" lon="3.21827">
        <ele>570.7</ele>
        <time>2021-10-14T14:30:45Z</time>
      </trkpt>
      <trkpt lat="44.13675" lon="3.21822">
        <ele>568.2</ele>
        <time>2021-10-14T14:30:47Z</time>
      </trkpt>
      <trkpt lat="44.13671" lon="3.21821">
        <ele>567.1</ele>
        <time>2021-10-14T14:30:48Z</time>
      </trkpt>
      <trkpt lat="44.13665" lon="3.21821">
        <ele>565.9</ele>
        <time>2021-10-14T14:30:49Z</time>
      </trkpt>
      <trkpt lat="44.13658" lon="3.21821">
        <ele>565.2</ele>
        <time>2021-10-14T14:30:51Z</time>
      </trkpt>
      <trkpt lat="44.13652" lon="3.21816">
        <ele>564.7</ele>
        <time>2021-10-14T14:30:52Z</time>
      </trkpt>
      <trkpt lat="44.13651" lon="3.21813">
        <ele>564.5</ele>
        <time>2021-10-14T14:30:54Z</time>
      </trkpt>
      <trkpt lat="44.1365" lon="3.2181">
        <ele>564.4</ele>
        <time>2021-10-14T14:30:55Z</time>
      </trkpt>
      <trkpt lat="44.13649" lon="3.2181">
        <ele>564.3</ele>
        <time>2021-10-14T14:30:56Z</time>
      </trkpt>
      <trkpt lat="44.13646" lon="3.21811">
        <ele>564.1</ele>
        <time>2021-10-14T14:30:57Z</time>
      </trkpt>
      <trkpt lat="44.13642" lon="3.21814">
        <ele>563.7</ele>
        <time>2021-10-14T14:30:59Z</time>
      </trkpt>
      <trkpt lat="44.13637" lon="3.21817">
        <ele>563.3</ele>
        <time>2021-10-14T14:31:01Z</time>
      </trkpt>
      <trkpt lat="44.13634" lon="3.21817">
        <ele>563.1</ele>
        <time>2021-10-14T14:31:02Z</time>
      </trkpt>
      <trkpt lat="44.13631" lon="3.21818">
        <ele>562.8</ele>
        <time>2021-10-14T14:31:03Z</time>
      </trkpt>
      <trkpt lat="44.13627" lon="3.21818">
        <ele>562.5</ele>
        <time>2021-10-14T14:31:04Z</time>
      </trkpt>
      <trkpt lat="44.13622" lon="3.21819">
        <ele>562.1</ele>
        <time>2021-10-14T14:31:06Z</time>
      </trkpt>
      <trkpt lat="44.13618" lon="3.2182">
        <ele>561.8</ele>
        <time>2021-10-14T14:31:07Z</time>
      </trkpt>
      <trkpt lat="44.13616" lon="3.2182">
        <ele>561.6</ele>
        <time>2021-10-14T14:31:09Z</time>
      </trkpt>
      <trkpt lat="44.13615" lon="3.21819">
        <ele>561.5</ele>
        <time>2021-10-14T14:31:10Z</time>
      </trkpt>
      <trkpt lat="44.13612" lon="3.2182">
        <ele>561.3</ele>
        <time>2021-10-14T14:31:11Z</time>
      </trkpt>
      <trkpt lat="44.13611" lon="3.2182">
        <ele>561.2</ele>
        <time>2021-10-14T14:31:12Z</time>
      </trkpt>
      <trkpt lat="44.13607" lon="3.21822">
        <ele>560.8</ele>
        <time>2021-10-14T14:31:14Z</time>
      </trkpt>
      <trkpt lat="44.13603" lon="3.21823">
        <ele>560.5</ele>
        <time>2021-10-14T14:31:15Z</time>
      </trkpt>
      <trkpt lat="44.13601" lon="3.21823">
        <ele>560.3</ele>
        <time>2021-10-14T14:31:16Z</time>
      </trkpt>
      <trkpt lat="44.13599" lon="3.21822">
        <ele>560.2</ele>
        <time>2021-10-14T14:31:17Z</time>
      </trkpt>
      <trkpt lat="44.13597" lon="3.2182">
        <ele>559.9</ele>
        <time>2021-10-14T14:31:19Z</time>
      </trkpt>
      <trkpt lat="44.13594" lon="3.21819">
        <ele>559.7</ele>
        <time>2021-10-14T14:31:20Z</time>
      </trkpt>
      <trkpt lat="44.13593" lon="3.21818">
        <ele>559.6</ele>
        <time>2021-10-14T14:31:21Z</time>
      </trkpt>
      <trkpt lat="44.13589" lon="3.21818">
        <ele>559.3</ele>
        <time>2021-10-14T14:31:23Z</time>
      </trkpt>
      <trkpt lat="44.13588" lon="3.21817">
        <ele>559.1</ele>
        <time>2021-10-14T14:31:24Z</time>
      </trkpt>
      <trkpt lat="44.13586" lon="3.21816">
        <ele>559</ele>
        <time>2021-10-14T14:31:25Z</time>
      </trkpt>
      <trkpt lat="44.13585" lon="3.21816">
        <ele>558.9</ele>
        <time>2021-10-14T14:31:26Z</time>
      </trkpt>
      <trkpt lat="44.13583" lon="3.21815">
        <ele>558.7</ele>
        <time>2021-10-14T14:31:27Z</time>
      </trkpt>
      <trkpt lat="44.13579" lon="3.21813">
        <ele>558.4</ele>
        <time>2021-10-14T14:31:29Z</time>
      </trkpt>
      <trkpt lat="44.13578" lon="3.21812">
        <ele>558.3</ele>
        <time>2021-10-14T14:31:30Z</time>
      </trkpt>
      <trkpt lat="44.13574" lon="3.21808">
        <ele>557.8</ele>
        <time>2021-10-14T14:31:32Z</time>
      </trkpt>
      <trkpt lat="44.13571" lon="3.21804">
        <ele>557.5</ele>
        <time>2021-10-14T14:31:33Z</time>
      </trkpt>
      <trkpt lat="44.13569" lon="3.21801">
        <ele>557.2</ele>
        <time>2021-10-14T14:31:34Z</time>
      </trkpt>
      <trkpt lat="44.13565" lon="3.21799">
        <ele>557</ele>
        <time>2021-10-14T14:31:35Z</time>
      </trkpt>
      <trkpt lat="44.13563" lon="3.21799">
        <ele>556.7</ele>
        <time>2021-10-14T14:31:37Z</time>
      </trkpt>
      <trkpt lat="44.13559" lon="3.21801">
        <ele>556.4</ele>
        <time>2021-10-14T14:31:39Z</time>
      </trkpt>
      <trkpt lat="44.13556" lon="3.21803">
        <ele>556.1</ele>
        <time>2021-10-14T14:31:40Z</time>
      </trkpt>
      <trkpt lat="44.13553" lon="3.21805">
        <ele>555.9</ele>
        <time>2021-10-14T14:31:41Z</time>
      </trkpt>
      <trkpt lat="44.13549" lon="3.21809">
        <ele>555.4</ele>
        <time>2021-10-14T14:31:42Z</time>
      </trkpt>
      <trkpt lat="44.13539" lon="3.21813">
        <ele>552.1</ele>
        <time>2021-10-14T14:31:44Z</time>
      </trkpt>
      <trkpt lat="44.13524" lon="3.21812">
        <ele>550.5</ele>
        <time>2021-10-14T14:31:46Z</time>
      </trkpt>
      <trkpt lat="44.13521" lon="3.21812">
        <ele>550.1</ele>
        <time>2021-10-14T14:31:47Z</time>
      </trkpt>
      <trkpt lat="44.13512" lon="3.2181">
        <ele>549</ele>
        <time>2021-10-14T14:31:48Z</time>
      </trkpt>
      <trkpt lat="44.13504" lon="3.21809">
        <ele>547.7</ele>
        <time>2021-10-14T14:31:50Z</time>
      </trkpt>
      <trkpt lat="44.13489" lon="3.2181">
        <ele>545</ele>
        <time>2021-10-14T14:31:52Z</time>
      </trkpt>
      <trkpt lat="44.13481" lon="3.21811">
        <ele>543.5</ele>
        <time>2021-10-14T14:31:53Z</time>
      </trkpt>
      <trkpt lat="44.13473" lon="3.21814">
        <ele>542.3</ele>
        <time>2021-10-14T14:31:54Z</time>
      </trkpt>
      <trkpt lat="44.13461" lon="3.21825">
        <ele>540.7</ele>
        <time>2021-10-14T14:31:56Z</time>
      </trkpt>
      <trkpt lat="44.13456" lon="3.2183">
        <ele>540</ele>
        <time>2021-10-14T14:31:57Z</time>
      </trkpt>
      <trkpt lat="44.13451" lon="3.21836">
        <ele>539.1</ele>
        <time>2021-10-14T14:31:59Z</time>
      </trkpt>
      <trkpt lat="44.13452" lon="3.21833">
        <ele>538.8</ele>
        <time>2021-10-14T14:32:00Z</time>
      </trkpt>
      <trkpt lat="44.13449" lon="3.21827">
        <ele>537.8</ele>
        <time>2021-10-14T14:32:02Z</time>
      </trkpt>
      <trkpt lat="44.13449" lon="3.21825">
        <ele>537.5</ele>
        <time>2021-10-14T14:32:03Z</time>
      </trkpt>
      <trkpt lat="44.13447" lon="3.21823">
        <ele>537.1</ele>
        <time>2021-10-14T14:32:04Z</time>
      </trkpt>
      <trkpt lat="44.13444" lon="3.21824">
        <ele>536.4</ele>
        <time>2021-10-14T14:32:06Z</time>
      </trkpt>
      <trkpt lat="44.13441" lon="3.21825">
        <ele>535.8</ele>
        <time>2021-10-14T14:32:07Z</time>
      </trkpt>
      <trkpt lat="44.13436" lon="3.21829">
        <ele>535</ele>
        <time>2021-10-14T14:32:08Z</time>
      </trkpt>
      <trkpt lat="44.13433" lon="3.21832">
        <ele>534.4</ele>
        <time>2021-10-14T14:32:09Z</time>
      </trkpt>
      <trkpt lat="44.1343" lon="3.21833">
        <ele>534.2</ele>
        <time>2021-10-14T14:32:10Z</time>
      </trkpt>
      <trkpt lat="44.13428" lon="3.21834">
        <ele>534</ele>
        <time>2021-10-14T14:32:12Z</time>
      </trkpt>
      <trkpt lat="44.13422" lon="3.21837">
        <ele>533.6</ele>
        <time>2021-10-14T14:32:14Z</time>
      </trkpt>
      <trkpt lat="44.13415" lon="3.2184">
        <ele>532.9</ele>
        <time>2021-10-14T14:32:16Z</time>
      </trkpt>
      <trkpt lat="44.13411" lon="3.21842">
        <ele>532.3</ele>
        <time>2021-10-14T14:32:17Z</time>
      </trkpt>
      <trkpt lat="44.13404" lon="3.21843">
        <ele>531.1</ele>
        <time>2021-10-14T14:32:19Z</time>
      </trkpt>
      <trkpt lat="44.13398" lon="3.21841">
        <ele>529.7</ele>
        <time>2021-10-14T14:32:21Z</time>
      </trkpt>
      <trkpt lat="44.13392" lon="3.21839">
        <ele>528</ele>
        <time>2021-10-14T14:32:23Z</time>
      </trkpt>
      <trkpt lat="44.13384" lon="3.21839">
        <ele>526.1</ele>
        <time>2021-10-14T14:32:24Z</time>
      </trkpt>
      <trkpt lat="44.13379" lon="3.2184">
        <ele>524.7</ele>
        <time>2021-10-14T14:32:26Z</time>
      </trkpt>
      <trkpt lat="44.13375" lon="3.21842">
        <ele>523.6</ele>
        <time>2021-10-14T14:32:27Z</time>
      </trkpt>
      <trkpt lat="44.13374" lon="3.21843">
        <ele>523.2</ele>
        <time>2021-10-14T14:32:28Z</time>
      </trkpt>
      <trkpt lat="44.1337" lon="3.21846">
        <ele>522.2</ele>
        <time>2021-10-14T14:32:30Z</time>
      </trkpt>
      <trkpt lat="44.13367" lon="3.2185">
        <ele>520.9</ele>
        <time>2021-10-14T14:32:32Z</time>
      </trkpt>
      <trkpt lat="44.13365" lon="3.21852">
        <ele>520.2</ele>
        <time>2021-10-14T14:32:33Z</time>
      </trkpt>
      <trkpt lat="44.13359" lon="3.21854">
        <ele>518.3</ele>
        <time>2021-10-14T14:32:35Z</time>
      </trkpt>
      <trkpt lat="44.13356" lon="3.21855">
        <ele>517.3</ele>
        <time>2021-10-14T14:32:36Z</time>
      </trkpt>
      <trkpt lat="44.13353" lon="3.21856">
        <ele>516.7</ele>
        <time>2021-10-14T14:32:37Z</time>
      </trkpt>
      <trkpt lat="44.1335" lon="3.21858">
        <ele>516</ele>
        <time>2021-10-14T14:32:39Z</time>
      </trkpt>
      <trkpt lat="44.13348" lon="3.21861">
        <ele>515.4</ele>
        <time>2021-10-14T14:32:40Z</time>
      </trkpt>
      <trkpt lat="44.13346" lon="3.21864">
        <ele>514.9</ele>
        <time>2021-10-14T14:32:42Z</time>
      </trkpt>
      <trkpt lat="44.13344" lon="3.21871">
        <ele>514.2</ele>
        <time>2021-10-14T14:32:43Z</time>
      </trkpt>
      <trkpt lat="44.13341" lon="3.21878">
        <ele>513.6</ele>
        <time>2021-10-14T14:32:44Z</time>
      </trkpt>
      <trkpt lat="44.13338" lon="3.21883">
        <ele>513.3</ele>
        <time>2021-10-14T14:32:45Z</time>
      </trkpt>
      <trkpt lat="44.13336" lon="3.21886">
        <ele>513</ele>
        <time>2021-10-14T14:32:47Z</time>
      </trkpt>
      <trkpt lat="44.13335" lon="3.21888">
        <ele>512.8</ele>
        <time>2021-10-14T14:32:48Z</time>
      </trkpt>
      <trkpt lat="44.13331" lon="3.21893">
        <ele>512.5</ele>
        <time>2021-10-14T14:32:50Z</time>
      </trkpt>
      <trkpt lat="44.13328" lon="3.21895">
        <ele>512.3</ele>
        <time>2021-10-14T14:32:51Z</time>
      </trkpt>
      <trkpt lat="44.13328" lon="3.21896">
        <ele>512.2</ele>
        <time>2021-10-14T14:32:52Z</time>
      </trkpt>
      <trkpt lat="44.13324" lon="3.21904">
        <ele>511.8</ele>
        <time>2021-10-14T14:32:54Z</time>
      </trkpt>
      <trkpt lat="44.13321" lon="3.21908">
        <ele>511.6</ele>
        <time>2021-10-14T14:32:55Z</time>
      </trkpt>
      <trkpt lat="44.13319" lon="3.21911">
        <ele>511.5</ele>
        <time>2021-10-14T14:32:56Z</time>
      </trkpt>
      <trkpt lat="44.13317" lon="3.21915">
        <ele>511.3</ele>
        <time>2021-10-14T14:32:57Z</time>
      </trkpt>
      <trkpt lat="44.13314" lon="3.21918">
        <ele>511.2</ele>
        <time>2021-10-14T14:32:59Z</time>
      </trkpt>
      <trkpt lat="44.13311" lon="3.2192">
        <ele>511.1</ele>
        <time>2021-10-14T14:33:00Z</time>
      </trkpt>
      <trkpt lat="44.13308" lon="3.21925">
        <ele>510.9</ele>
        <time>2021-10-14T14:33:01Z</time>
      </trkpt>
      <trkpt lat="44.13303" lon="3.21929">
        <ele>510.5</ele>
        <time>2021-10-14T14:33:03Z</time>
      </trkpt>
      <trkpt lat="44.13298" lon="3.21933">
        <ele>509.9</ele>
        <time>2021-10-14T14:33:04Z</time>
      </trkpt>
      <trkpt lat="44.13291" lon="3.21935">
        <ele>509.1</ele>
        <time>2021-10-14T14:33:06Z</time>
      </trkpt>
      <trkpt lat="44.13287" lon="3.21935">
        <ele>508.6</ele>
        <time>2021-10-14T14:33:07Z</time>
      </trkpt>
      <trkpt lat="44.13278" lon="3.21935">
        <ele>507.5</ele>
        <time>2021-10-14T14:33:09Z</time>
      </trkpt>
      <trkpt lat="44.13273" lon="3.21933">
        <ele>506.9</ele>
        <time>2021-10-14T14:33:10Z</time>
      </trkpt>
      <trkpt lat="44.1327" lon="3.21932">
        <ele>506.6</ele>
        <time>2021-10-14T14:33:11Z</time>
      </trkpt>
      <trkpt lat="44.13267" lon="3.21934">
        <ele>506.2</ele>
        <time>2021-10-14T14:33:13Z</time>
      </trkpt>
      <trkpt lat="44.13262" lon="3.21933">
        <ele>505.7</ele>
        <time>2021-10-14T14:33:15Z</time>
      </trkpt>
      <trkpt lat="44.1326" lon="3.21936">
        <ele>505.3</ele>
        <time>2021-10-14T14:33:16Z</time>
      </trkpt>
      <trkpt lat="44.13256" lon="3.21937">
        <ele>504.8</ele>
        <time>2021-10-14T14:33:17Z</time>
      </trkpt>
      <trkpt lat="44.13252" lon="3.21936">
        <ele>504.3</ele>
        <time>2021-10-14T14:33:18Z</time>
      </trkpt>
      <trkpt lat="44.13248" lon="3.21937">
        <ele>503.9</ele>
        <time>2021-10-14T14:33:20Z</time>
      </trkpt>
      <trkpt lat="44.13245" lon="3.21938">
        <ele>503.6</ele>
        <time>2021-10-14T14:33:21Z</time>
      </trkpt>
      <trkpt lat="44.13239" lon="3.21937">
        <ele>503.2</ele>
        <time>2021-10-14T14:33:22Z</time>
      </trkpt>
      <trkpt lat="44.13226" lon="3.21933">
        <ele>502.3</ele>
        <time>2021-10-14T14:33:24Z</time>
      </trkpt>
      <trkpt lat="44.13216" lon="3.2193">
        <ele>501.6</ele>
        <time>2021-10-14T14:33:25Z</time>
      </trkpt>
      <trkpt lat="44.13211" lon="3.2193">
        <ele>501.1</ele>
        <time>2021-10-14T14:33:27Z</time>
      </trkpt>
      <trkpt lat="44.13207" lon="3.21929">
        <ele>500.7</ele>
        <time>2021-10-14T14:33:28Z</time>
      </trkpt>
      <trkpt lat="44.13204" lon="3.2193">
        <ele>500.4</ele>
        <time>2021-10-14T14:33:29Z</time>
      </trkpt>
      <trkpt lat="44.13201" lon="3.21932">
        <ele>500</ele>
        <time>2021-10-14T14:33:30Z</time>
      </trkpt>
      <trkpt lat="44.13197" lon="3.21934">
        <ele>499.6</ele>
        <time>2021-10-14T14:33:31Z</time>
      </trkpt>
      <trkpt lat="44.13191" lon="3.21937">
        <ele>499</ele>
        <time>2021-10-14T14:33:32Z</time>
      </trkpt>
      <trkpt lat="44.13187" lon="3.21939">
        <ele>498.5</ele>
        <time>2021-10-14T14:33:34Z</time>
      </trkpt>
      <trkpt lat="44.13183" lon="3.21943">
        <ele>498</ele>
        <time>2021-10-14T14:33:35Z</time>
      </trkpt>
      <trkpt lat="44.13178" lon="3.21946">
        <ele>497.5</ele>
        <time>2021-10-14T14:33:36Z</time>
      </trkpt>
      <trkpt lat="44.13174" lon="3.21949">
        <ele>497.1</ele>
        <time>2021-10-14T14:33:38Z</time>
      </trkpt>
      <trkpt lat="44.13171" lon="3.21951">
        <ele>496.8</ele>
        <time>2021-10-14T14:33:39Z</time>
      </trkpt>
      <trkpt lat="44.13168" lon="3.21955">
        <ele>496.4</ele>
        <time>2021-10-14T14:33:40Z</time>
      </trkpt>
      <trkpt lat="44.13167" lon="3.21957">
        <ele>496.3</ele>
        <time>2021-10-14T14:33:41Z</time>
      </trkpt>
      <trkpt lat="44.13166" lon="3.21964">
        <ele>495.8</ele>
        <time>2021-10-14T14:33:43Z</time>
      </trkpt>
      <trkpt lat="44.13166" lon="3.21967">
        <ele>495.7</ele>
        <time>2021-10-14T14:33:44Z</time>
      </trkpt>
      <trkpt lat="44.13166" lon="3.2197">
        <ele>495.5</ele>
        <time>2021-10-14T14:33:45Z</time>
      </trkpt>
      <trkpt lat="44.13166" lon="3.21975">
        <ele>495.1</ele>
        <time>2021-10-14T14:33:46Z</time>
      </trkpt>
      <trkpt lat="44.13166" lon="3.21981">
        <ele>494.8</ele>
        <time>2021-10-14T14:33:47Z</time>
      </trkpt>
      <trkpt lat="44.13165" lon="3.21989">
        <ele>494.4</ele>
        <time>2021-10-14T14:33:50Z</time>
      </trkpt>
      <trkpt lat="44.13163" lon="3.21991">
        <ele>494.2</ele>
        <time>2021-10-14T14:33:51Z</time>
      </trkpt>
      <trkpt lat="44.13162" lon="3.21996">
        <ele>493.9</ele>
        <time>2021-10-14T14:33:52Z</time>
      </trkpt>
      <trkpt lat="44.13161" lon="3.22">
        <ele>493.7</ele>
        <time>2021-10-14T14:33:54Z</time>
      </trkpt>
      <trkpt lat="44.13158" lon="3.22003">
        <ele>493.5</ele>
        <time>2021-10-14T14:33:55Z</time>
      </trkpt>
      <trkpt lat="44.13153" lon="3.22007">
        <ele>493.1</ele>
        <time>2021-10-14T14:33:57Z</time>
      </trkpt>
      <trkpt lat="44.13148" lon="3.2201">
        <ele>492.7</ele>
        <time>2021-10-14T14:33:59Z</time>
      </trkpt>
      <trkpt lat="44.13145" lon="3.22014">
        <ele>492.4</ele>
        <time>2021-10-14T14:34:00Z</time>
      </trkpt>
      <trkpt lat="44.13141" lon="3.22016">
        <ele>492.2</ele>
        <time>2021-10-14T14:34:01Z</time>
      </trkpt>
      <trkpt lat="44.1314" lon="3.22017">
        <ele>492.1</ele>
        <time>2021-10-14T14:34:02Z</time>
      </trkpt>
      <trkpt lat="44.13137" lon="3.22018">
        <ele>491.9</ele>
        <time>2021-10-14T14:34:03Z</time>
      </trkpt>
      <trkpt lat="44.13134" lon="3.22019">
        <ele>491.7</ele>
        <time>2021-10-14T14:34:05Z</time>
      </trkpt>
      <trkpt lat="44.13117" lon="3.22026">
        <ele>489.6</ele>
        <time>2021-10-14T14:34:07Z</time>
      </trkpt>
      <trkpt lat="44.13111" lon="3.22032">
        <ele>488.5</ele>
        <time>2021-10-14T14:34:08Z</time>
      </trkpt>
      <trkpt lat="44.13108" lon="3.22037">
        <ele>487.7</ele>
        <time>2021-10-14T14:34:09Z</time>
      </trkpt>
      <trkpt lat="44.13104" lon="3.2204">
        <ele>487</ele>
        <time>2021-10-14T14:34:10Z</time>
      </trkpt>
      <trkpt lat="44.13098" lon="3.22043">
        <ele>486.2</ele>
        <time>2021-10-14T14:34:12Z</time>
      </trkpt>
      <trkpt lat="44.13094" lon="3.22041">
        <ele>485.5</ele>
        <time>2021-10-14T14:34:14Z</time>
      </trkpt>
      <trkpt lat="44.13091" lon="3.22039">
        <ele>485.1</ele>
        <time>2021-10-14T14:34:15Z</time>
      </trkpt>
      <trkpt lat="44.13088" lon="3.22037">
        <ele>484.7</ele>
        <time>2021-10-14T14:34:16Z</time>
      </trkpt>
      <trkpt lat="44.13085" lon="3.22038">
        <ele>484.3</ele>
        <time>2021-10-14T14:34:17Z</time>
      </trkpt>
      <trkpt lat="44.1308" lon="3.2204">
        <ele>483.8</ele>
        <time>2021-10-14T14:34:19Z</time>
      </trkpt>
      <trkpt lat="44.13079" lon="3.22039">
        <ele>483.7</ele>
        <time>2021-10-14T14:34:20Z</time>
      </trkpt>
      <trkpt lat="44.13078" lon="3.22039">
        <ele>483.6</ele>
        <time>2021-10-14T14:34:22Z</time>
      </trkpt>
      <trkpt lat="44.13077" lon="3.2204">
        <ele>483.5</ele>
        <time>2021-10-14T14:34:23Z</time>
      </trkpt>
      <trkpt lat="44.13075" lon="3.2204">
        <ele>483.4</ele>
        <time>2021-10-14T14:34:24Z</time>
      </trkpt>
      <trkpt lat="44.13069" lon="3.22045">
        <ele>482.9</ele>
        <time>2021-10-14T14:34:26Z</time>
      </trkpt>
      <trkpt lat="44.13064" lon="3.2205">
        <ele>482.6</ele>
        <time>2021-10-14T14:34:28Z</time>
      </trkpt>
      <trkpt lat="44.1306" lon="3.22054">
        <ele>482.3</ele>
        <time>2021-10-14T14:34:29Z</time>
      </trkpt>
      <trkpt lat="44.13057" lon="3.22056">
        <ele>482.1</ele>
        <time>2021-10-14T14:34:30Z</time>
      </trkpt>
      <trkpt lat="44.13054" lon="3.22058">
        <ele>482</ele>
        <time>2021-10-14T14:34:31Z</time>
      </trkpt>
      <trkpt lat="44.13049" lon="3.22058">
        <ele>481.7</ele>
        <time>2021-10-14T14:34:33Z</time>
      </trkpt>
      <trkpt lat="44.13046" lon="3.22061">
        <ele>481.6</ele>
        <time>2021-10-14T14:34:34Z</time>
      </trkpt>
      <trkpt lat="44.13042" lon="3.22063">
        <ele>481.3</ele>
        <time>2021-10-14T14:34:35Z</time>
      </trkpt>
      <trkpt lat="44.13036" lon="3.22066">
        <ele>481</ele>
        <time>2021-10-14T14:34:36Z</time>
      </trkpt>
      <trkpt lat="44.13033" lon="3.22069">
        <ele>480.8</ele>
        <time>2021-10-14T14:34:38Z</time>
      </trkpt>
      <trkpt lat="44.1303" lon="3.22071">
        <ele>480.6</ele>
        <time>2021-10-14T14:34:39Z</time>
      </trkpt>
      <trkpt lat="44.13027" lon="3.22073">
        <ele>480.4</ele>
        <time>2021-10-14T14:34:41Z</time>
      </trkpt>
      <trkpt lat="44.13026" lon="3.22073">
        <ele>480.3</ele>
        <time>2021-10-14T14:34:42Z</time>
      </trkpt>
      <trkpt lat="44.13026" lon="3.22074">
        <ele>480.3</ele>
        <time>2021-10-14T14:34:43Z</time>
      </trkpt>
      <trkpt lat="44.13026" lon="3.22075">
        <ele>480.3</ele>
        <time>2021-10-14T14:34:45Z</time>
      </trkpt>
      <trkpt lat="44.13026" lon="3.22075">
        <ele>480.3</ele>
        <time>2021-10-14T14:34:46Z</time>
      </trkpt>
      <trkpt lat="44.13026" lon="3.22074">
        <ele>480.2</ele>
        <time>2021-10-14T14:34:47Z</time>
      </trkpt>
      <trkpt lat="44.13026" lon="3.22074">
        <ele>480.2</ele>
        <time>2021-10-14T14:34:49Z</time>
      </trkpt>
      <trkpt lat="44.13026" lon="3.22075">
        <ele>480.2</ele>
        <time>2021-10-14T14:34:50Z</time>
      </trkpt>
      <trkpt lat="44.13025" lon="3.22078">
        <ele>480</ele>
        <time>2021-10-14T14:34:52Z</time>
      </trkpt>
      <trkpt lat="44.13024" lon="3.22081">
        <ele>479.8</ele>
        <time>2021-10-14T14:34:53Z</time>
      </trkpt>
      <trkpt lat="44.13022" lon="3.22084">
        <ele>479.7</ele>
        <time>2021-10-14T14:34:55Z</time>
      </trkpt>
      <trkpt lat="44.13021" lon="3.22087">
        <ele>479.5</ele>
        <time>2021-10-14T14:34:56Z</time>
      </trkpt>
      <trkpt lat="44.13021" lon="3.22092">
        <ele>479.3</ele>
        <time>2021-10-14T14:34:58Z</time>
      </trkpt>
      <trkpt lat="44.1302" lon="3.22097">
        <ele>479</ele>
        <time>2021-10-14T14:35:00Z</time>
      </trkpt>
      <trkpt lat="44.1302" lon="3.22099">
        <ele>478.9</ele>
        <time>2021-10-14T14:35:01Z</time>
      </trkpt>
      <trkpt lat="44.13018" lon="3.22104">
        <ele>478.6</ele>
        <time>2021-10-14T14:35:02Z</time>
      </trkpt>
      <trkpt lat="44.13016" lon="3.22106">
        <ele>478.5</ele>
        <time>2021-10-14T14:35:03Z</time>
      </trkpt>
      <trkpt lat="44.13014" lon="3.22109">
        <ele>478.2</ele>
        <time>2021-10-14T14:35:05Z</time>
      </trkpt>
      <trkpt lat="44.13012" lon="3.22112">
        <ele>478</ele>
        <time>2021-10-14T14:35:06Z</time>
      </trkpt>
      <trkpt lat="44.13008" lon="3.22118">
        <ele>477.6</ele>
        <time>2021-10-14T14:35:07Z</time>
      </trkpt>
      <trkpt lat="44.13005" lon="3.22125">
        <ele>477.1</ele>
        <time>2021-10-14T14:35:08Z</time>
      </trkpt>
      <trkpt lat="44.13003" lon="3.22132">
        <ele>476.6</ele>
        <time>2021-10-14T14:35:10Z</time>
      </trkpt>
      <trkpt lat="44.13001" lon="3.22138">
        <ele>476.1</ele>
        <time>2021-10-14T14:35:11Z</time>
      </trkpt>
      <trkpt lat="44.13" lon="3.22143">
        <ele>475.8</ele>
        <time>2021-10-14T14:35:12Z</time>
      </trkpt>
      <trkpt lat="44.12998" lon="3.22147">
        <ele>475.4</ele>
        <time>2021-10-14T14:35:14Z</time>
      </trkpt>
      <trkpt lat="44.12996" lon="3.22156">
        <ele>474.5</ele>
        <time>2021-10-14T14:35:16Z</time>
      </trkpt>
      <trkpt lat="44.12991" lon="3.22165">
        <ele>473.3</ele>
        <time>2021-10-14T14:35:18Z</time>
      </trkpt>
      <trkpt lat="44.12987" lon="3.22168">
        <ele>472.6</ele>
        <time>2021-10-14T14:35:19Z</time>
      </trkpt>
      <trkpt lat="44.12981" lon="3.22169">
        <ele>471.6</ele>
        <time>2021-10-14T14:35:20Z</time>
      </trkpt>
      <trkpt lat="44.12976" lon="3.22168">
        <ele>470.9</ele>
        <time>2021-10-14T14:35:22Z</time>
      </trkpt>
      <trkpt lat="44.12974" lon="3.22168">
        <ele>470.6</ele>
        <time>2021-10-14T14:35:23Z</time>
      </trkpt>
      <trkpt lat="44.12973" lon="3.22168">
        <ele>470.5</ele>
        <time>2021-10-14T14:35:25Z</time>
      </trkpt>
      <trkpt lat="44.12973" lon="3.22168">
        <ele>470.4</ele>
        <time>2021-10-14T14:35:26Z</time>
      </trkpt>
      <trkpt lat="44.12972" lon="3.22167">
        <ele>470.3</ele>
        <time>2021-10-14T14:35:27Z</time>
      </trkpt>
      <trkpt lat="44.12969" lon="3.22167">
        <ele>469.9</ele>
        <time>2021-10-14T14:35:29Z</time>
      </trkpt>
      <trkpt lat="44.12968" lon="3.22166">
        <ele>469.7</ele>
        <time>2021-10-14T14:35:31Z</time>
      </trkpt>
      <trkpt lat="44.12968" lon="3.22167">
        <ele>469.6</ele>
        <time>2021-10-14T14:35:32Z</time>
      </trkpt>
      <trkpt lat="44.12968" lon="3.22167">
        <ele>469.6</ele>
        <time>2021-10-14T14:35:34Z</time>
      </trkpt>
      <trkpt lat="44.12968" lon="3.22167">
        <ele>469.6</ele>
        <time>2021-10-14T14:35:35Z</time>
      </trkpt>
      <trkpt lat="44.12967" lon="3.22167">
        <ele>469.6</ele>
        <time>2021-10-14T14:35:36Z</time>
      </trkpt>
      <trkpt lat="44.12968" lon="3.22167">
        <ele>469.6</ele>
        <time>2021-10-14T14:35:38Z</time>
      </trkpt>
      <trkpt lat="44.12968" lon="3.22167">
        <ele>469.5</ele>
        <time>2021-10-14T14:35:39Z</time>
      </trkpt>
      <trkpt lat="44.12967" lon="3.22167">
        <ele>469.4</ele>
        <time>2021-10-14T14:35:40Z</time>
      </trkpt>
      <trkpt lat="44.12967" lon="3.22167">
        <ele>469.4</ele>
        <time>2021-10-14T14:35:41Z</time>
      </trkpt>
      <trkpt lat="44.12966" lon="3.22167">
        <ele>469.3</ele>
        <time>2021-10-14T14:35:43Z</time>
      </trkpt>
      <trkpt lat="44.12966" lon="3.22167">
        <ele>469.3</ele>
        <time>2021-10-14T14:35:44Z</time>
      </trkpt>
      <trkpt lat="44.12965" lon="3.22166">
        <ele>469.1</ele>
        <time>2021-10-14T14:35:45Z</time>
      </trkpt>
      <trkpt lat="44.12964" lon="3.22166">
        <ele>469</ele>
        <time>2021-10-14T14:35:47Z</time>
      </trkpt>
      <trkpt lat="44.12963" lon="3.22166">
        <ele>468.9</ele>
        <time>2021-10-14T14:35:48Z</time>
      </trkpt>
      <trkpt lat="44.12961" lon="3.22167">
        <ele>468.6</ele>
        <time>2021-10-14T14:35:50Z</time>
      </trkpt>
      <trkpt lat="44.1296" lon="3.22168">
        <ele>468.5</ele>
        <time>2021-10-14T14:35:51Z</time>
      </trkpt>
      <trkpt lat="44.12959" lon="3.22168">
        <ele>468.3</ele>
        <time>2021-10-14T14:35:52Z</time>
      </trkpt>
      <trkpt lat="44.12958" lon="3.22168">
        <ele>468.2</ele>
        <time>2021-10-14T14:35:53Z</time>
      </trkpt>
      <trkpt lat="44.12956" lon="3.22168">
        <ele>468</ele>
        <time>2021-10-14T14:35:55Z</time>
      </trkpt>
      <trkpt lat="44.12955" lon="3.22168">
        <ele>467.8</ele>
        <time>2021-10-14T14:35:56Z</time>
      </trkpt>
      <trkpt lat="44.12951" lon="3.22167">
        <ele>467.4</ele>
        <time>2021-10-14T14:35:57Z</time>
      </trkpt>
      <trkpt lat="44.1295" lon="3.22167">
        <ele>467.3</ele>
        <time>2021-10-14T14:35:58Z</time>
      </trkpt>
      <trkpt lat="44.12945" lon="3.22165">
        <ele>466.7</ele>
        <time>2021-10-14T14:36:00Z</time>
      </trkpt>
      <trkpt lat="44.12942" lon="3.22164">
        <ele>466.4</ele>
        <time>2021-10-14T14:36:01Z</time>
      </trkpt>
      <trkpt lat="44.12939" lon="3.22163">
        <ele>466</ele>
        <time>2021-10-14T14:36:03Z</time>
      </trkpt>
      <trkpt lat="44.12932" lon="3.22161">
        <ele>465.3</ele>
        <time>2021-10-14T14:36:04Z</time>
      </trkpt>
      <trkpt lat="44.12927" lon="3.22159">
        <ele>464.9</ele>
        <time>2021-10-14T14:36:06Z</time>
      </trkpt>
      <trkpt lat="44.12923" lon="3.22158">
        <ele>464.4</ele>
        <time>2021-10-14T14:36:07Z</time>
      </trkpt>
      <trkpt lat="44.12916" lon="3.22156">
        <ele>463.8</ele>
        <time>2021-10-14T14:36:09Z</time>
      </trkpt>
      <trkpt lat="44.1291" lon="3.22156">
        <ele>463.3</ele>
        <time>2021-10-14T14:36:11Z</time>
      </trkpt>
      <trkpt lat="44.12906" lon="3.22154">
        <ele>463</ele>
        <time>2021-10-14T14:36:12Z</time>
      </trkpt>
      <trkpt lat="44.12902" lon="3.22153">
        <ele>462.7</ele>
        <time>2021-10-14T14:36:13Z</time>
      </trkpt>
      <trkpt lat="44.12898" lon="3.2215">
        <ele>462.2</ele>
        <time>2021-10-14T14:36:15Z</time>
      </trkpt>
      <trkpt lat="44.12895" lon="3.22148">
        <ele>461.7</ele>
        <time>2021-10-14T14:36:16Z</time>
      </trkpt>
      <trkpt lat="44.1289" lon="3.22145">
        <ele>461</ele>
        <time>2021-10-14T14:36:17Z</time>
      </trkpt>
      <trkpt lat="44.12886" lon="3.22144">
        <ele>460.4</ele>
        <time>2021-10-14T14:36:19Z</time>
      </trkpt>
      <trkpt lat="44.12882" lon="3.22144">
        <ele>459.8</ele>
        <time>2021-10-14T14:36:20Z</time>
      </trkpt>
      <trkpt lat="44.1288" lon="3.22146">
        <ele>459.4</ele>
        <time>2021-10-14T14:36:21Z</time>
      </trkpt>
      <trkpt lat="44.12877" lon="3.22148">
        <ele>458.9</ele>
        <time>2021-10-14T14:36:23Z</time>
      </trkpt>
      <trkpt lat="44.12875" lon="3.22148">
        <ele>458.5</ele>
        <time>2021-10-14T14:36:24Z</time>
      </trkpt>
      <trkpt lat="44.1287" lon="3.22145">
        <ele>457.9</ele>
        <time>2021-10-14T14:36:26Z</time>
      </trkpt>
      <trkpt lat="44.12869" lon="3.22143">
        <ele>457.7</ele>
        <time>2021-10-14T14:36:27Z</time>
      </trkpt>
      <trkpt lat="44.12867" lon="3.22142">
        <ele>457.5</ele>
        <time>2021-10-14T14:36:28Z</time>
      </trkpt>
      <trkpt lat="44.12864" lon="3.22139">
        <ele>457.1</ele>
        <time>2021-10-14T14:36:29Z</time>
      </trkpt>
      <trkpt lat="44.12862" lon="3.22136">
        <ele>456.7</ele>
        <time>2021-10-14T14:36:31Z</time>
      </trkpt>
      <trkpt lat="44.12858" lon="3.22133">
        <ele>456.3</ele>
        <time>2021-10-14T14:36:32Z</time>
      </trkpt>
      <trkpt lat="44.12856" lon="3.22129">
        <ele>456</ele>
        <time>2021-10-14T14:36:34Z</time>
      </trkpt>
      <trkpt lat="44.12855" lon="3.22125">
        <ele>455.7</ele>
        <time>2021-10-14T14:36:35Z</time>
      </trkpt>
      <trkpt lat="44.12852" lon="3.22122">
        <ele>455.3</ele>
        <time>2021-10-14T14:36:36Z</time>
      </trkpt>
      <trkpt lat="44.12848" lon="3.22117">
        <ele>454.6</ele>
        <time>2021-10-14T14:36:37Z</time>
      </trkpt>
      <trkpt lat="44.12843" lon="3.22112">
        <ele>453.9</ele>
        <time>2021-10-14T14:36:39Z</time>
      </trkpt>
      <trkpt lat="44.12837" lon="3.22106">
        <ele>453.2</ele>
        <time>2021-10-14T14:36:41Z</time>
      </trkpt>
      <trkpt lat="44.12831" lon="3.22102">
        <ele>452.6</ele>
        <time>2021-10-14T14:36:42Z</time>
      </trkpt>
      <trkpt lat="44.12825" lon="3.22099">
        <ele>452.2</ele>
        <time>2021-10-14T14:36:44Z</time>
      </trkpt>
      <trkpt lat="44.12817" lon="3.22095">
        <ele>451.8</ele>
        <time>2021-10-14T14:36:46Z</time>
      </trkpt>
      <trkpt lat="44.12811" lon="3.22092">
        <ele>451.3</ele>
        <time>2021-10-14T14:36:48Z</time>
      </trkpt>
      <trkpt lat="44.12808" lon="3.22092">
        <ele>451</ele>
        <time>2021-10-14T14:36:49Z</time>
      </trkpt>
      <trkpt lat="44.12803" lon="3.22096">
        <ele>450.5</ele>
        <time>2021-10-14T14:36:50Z</time>
      </trkpt>
      <trkpt lat="44.12798" lon="3.22101">
        <ele>449.7</ele>
        <time>2021-10-14T14:36:52Z</time>
      </trkpt>
      <trkpt lat="44.12796" lon="3.22105">
        <ele>449.2</ele>
        <time>2021-10-14T14:36:53Z</time>
      </trkpt>
      <trkpt lat="44.12793" lon="3.22108">
        <ele>448.8</ele>
        <time>2021-10-14T14:36:54Z</time>
      </trkpt>
      <trkpt lat="44.12789" lon="3.22114">
        <ele>448.1</ele>
        <time>2021-10-14T14:36:55Z</time>
      </trkpt>
      <trkpt lat="44.12785" lon="3.22118">
        <ele>447.5</ele>
        <time>2021-10-14T14:36:56Z</time>
      </trkpt>
      <trkpt lat="44.12782" lon="3.22122">
        <ele>447</ele>
        <time>2021-10-14T14:36:57Z</time>
      </trkpt>
      <trkpt lat="44.1277" lon="3.22123">
        <ele>445.6</ele>
        <time>2021-10-14T14:36:59Z</time>
      </trkpt>
      <trkpt lat="44.12764" lon="3.22126">
        <ele>444.7</ele>
        <time>2021-10-14T14:37:00Z</time>
      </trkpt>
      <trkpt lat="44.1276" lon="3.22128">
        <ele>444</ele>
        <time>2021-10-14T14:37:01Z</time>
      </trkpt>
      <trkpt lat="44.12755" lon="3.22136">
        <ele>443</ele>
        <time>2021-10-14T14:37:03Z</time>
      </trkpt>
      <trkpt lat="44.12751" lon="3.22138">
        <ele>442.6</ele>
        <time>2021-10-14T14:37:04Z</time>
      </trkpt>
      <trkpt lat="44.12748" lon="3.22142">
        <ele>442.1</ele>
        <time>2021-10-14T14:37:05Z</time>
      </trkpt>
      <trkpt lat="44.12746" lon="3.22142">
        <ele>441.9</ele>
        <time>2021-10-14T14:37:06Z</time>
      </trkpt>
      <trkpt lat="44.12741" lon="3.22144">
        <ele>441.4</ele>
        <time>2021-10-14T14:37:07Z</time>
      </trkpt>
      <trkpt lat="44.12736" lon="3.22147">
        <ele>441</ele>
        <time>2021-10-14T14:37:09Z</time>
      </trkpt>
      <trkpt lat="44.12734" lon="3.22151">
        <ele>440.7</ele>
        <time>2021-10-14T14:37:10Z</time>
      </trkpt>
      <trkpt lat="44.1273" lon="3.22154">
        <ele>440.3</ele>
        <time>2021-10-14T14:37:11Z</time>
      </trkpt>
      <trkpt lat="44.12725" lon="3.22157">
        <ele>439.8</ele>
        <time>2021-10-14T14:37:12Z</time>
      </trkpt>
      <trkpt lat="44.12717" lon="3.22161">
        <ele>439.1</ele>
        <time>2021-10-14T14:37:14Z</time>
      </trkpt>
      <trkpt lat="44.12707" lon="3.22167">
        <ele>438.3</ele>
        <time>2021-10-14T14:37:16Z</time>
      </trkpt>
      <trkpt lat="44.12702" lon="3.22172">
        <ele>437.9</ele>
        <time>2021-10-14T14:37:17Z</time>
      </trkpt>
      <trkpt lat="44.12694" lon="3.22185">
        <ele>437.1</ele>
        <time>2021-10-14T14:37:19Z</time>
      </trkpt>
      <trkpt lat="44.12691" lon="3.22203">
        <ele>436</ele>
        <time>2021-10-14T14:37:21Z</time>
      </trkpt>
      <trkpt lat="44.1269" lon="3.22215">
        <ele>435.1</ele>
        <time>2021-10-14T14:37:23Z</time>
      </trkpt>
      <trkpt lat="44.12693" lon="3.22219">
        <ele>434.7</ele>
        <time>2021-10-14T14:37:24Z</time>
      </trkpt>
      <trkpt lat="44.12689" lon="3.22228">
        <ele>433.9</ele>
        <time>2021-10-14T14:37:25Z</time>
      </trkpt>
      <trkpt lat="44.12686" lon="3.22245">
        <ele>432.6</ele>
        <time>2021-10-14T14:37:27Z</time>
      </trkpt>
      <trkpt lat="44.12684" lon="3.22253">
        <ele>431.9</ele>
        <time>2021-10-14T14:37:28Z</time>
      </trkpt>
      <trkpt lat="44.12681" lon="3.2226">
        <ele>431.3</ele>
        <time>2021-10-14T14:37:29Z</time>
      </trkpt>
      <trkpt lat="44.12669" lon="3.2227">
        <ele>430.1</ele>
        <time>2021-10-14T14:37:31Z</time>
      </trkpt>
      <trkpt lat="44.12662" lon="3.22271">
        <ele>429.6</ele>
        <time>2021-10-14T14:37:32Z</time>
      </trkpt>
      <trkpt lat="44.12657" lon="3.2227">
        <ele>429.4</ele>
        <time>2021-10-14T14:37:34Z</time>
      </trkpt>
      <trkpt lat="44.1265" lon="3.22268">
        <ele>429.1</ele>
        <time>2021-10-14T14:37:36Z</time>
      </trkpt>
      <trkpt lat="44.12647" lon="3.22267">
        <ele>429</ele>
        <time>2021-10-14T14:37:37Z</time>
      </trkpt>
      <trkpt lat="44.12643" lon="3.22268">
        <ele>428.8</ele>
        <time>2021-10-14T14:37:38Z</time>
      </trkpt>
      <trkpt lat="44.12637" lon="3.22268">
        <ele>428.6</ele>
        <time>2021-10-14T14:37:40Z</time>
      </trkpt>
      <trkpt lat="44.1263" lon="3.22267">
        <ele>428.3</ele>
        <time>2021-10-14T14:37:41Z</time>
      </trkpt>
      <trkpt lat="44.12624" lon="3.22265">
        <ele>427.9</ele>
        <time>2021-10-14T14:37:43Z</time>
      </trkpt>
      <trkpt lat="44.12617" lon="3.22264">
        <ele>427.5</ele>
        <time>2021-10-14T14:37:44Z</time>
      </trkpt>
      <trkpt lat="44.12605" lon="3.22268">
        <ele>426.4</ele>
        <time>2021-10-14T14:37:46Z</time>
      </trkpt>
      <trkpt lat="44.1259" lon="3.22277">
        <ele>424.5</ele>
        <time>2021-10-14T14:37:48Z</time>
      </trkpt>
      <trkpt lat="44.12574" lon="3.22284">
        <ele>422.8</ele>
        <time>2021-10-14T14:37:50Z</time>
      </trkpt>
      <trkpt lat="44.12559" lon="3.22285">
        <ele>421.6</ele>
        <time>2021-10-14T14:37:52Z</time>
      </trkpt>
      <trkpt lat="44.12552" lon="3.22283">
        <ele>421.1</ele>
        <time>2021-10-14T14:37:53Z</time>
      </trkpt>
      <trkpt lat="44.12544" lon="3.2228">
        <ele>420.6</ele>
        <time>2021-10-14T14:37:54Z</time>
      </trkpt>
      <trkpt lat="44.12533" lon="3.22269">
        <ele>419.6</ele>
        <time>2021-10-14T14:37:56Z</time>
      </trkpt>
      <trkpt lat="44.12527" lon="3.22261">
        <ele>419.1</ele>
        <time>2021-10-14T14:37:57Z</time>
      </trkpt>
      <trkpt lat="44.12523" lon="3.22252">
        <ele>418.4</ele>
        <time>2021-10-14T14:37:58Z</time>
      </trkpt>
      <trkpt lat="44.12514" lon="3.22235">
        <ele>418</ele>
        <time>2021-10-14T14:38:00Z</time>
      </trkpt>
      <trkpt lat="44.12509" lon="3.22226">
        <ele>417.8</ele>
        <time>2021-10-14T14:38:01Z</time>
      </trkpt>
      <trkpt lat="44.12504" lon="3.22218">
        <ele>417.6</ele>
        <time>2021-10-14T14:38:02Z</time>
      </trkpt>
      <trkpt lat="44.12499" lon="3.22211">
        <ele>416.9</ele>
        <time>2021-10-14T14:38:03Z</time>
      </trkpt>
      <trkpt lat="44.12486" lon="3.22201">
        <ele>415.8</ele>
        <time>2021-10-14T14:38:05Z</time>
      </trkpt>
      <trkpt lat="44.12478" lon="3.222">
        <ele>415.3</ele>
        <time>2021-10-14T14:38:06Z</time>
      </trkpt>
      <trkpt lat="44.12471" lon="3.222">
        <ele>414.7</ele>
        <time>2021-10-14T14:38:07Z</time>
      </trkpt>
      <trkpt lat="44.12457" lon="3.22203">
        <ele>414.2</ele>
        <time>2021-10-14T14:38:09Z</time>
      </trkpt>
      <trkpt lat="44.12444" lon="3.22212">
        <ele>414.6</ele>
        <time>2021-10-14T14:38:11Z</time>
      </trkpt>
      <trkpt lat="44.12432" lon="3.22224">
        <ele>414.9</ele>
        <time>2021-10-14T14:38:13Z</time>
      </trkpt>
      <trkpt lat="44.12426" lon="3.22231">
        <ele>414.9</ele>
        <time>2021-10-14T14:38:14Z</time>
      </trkpt>
      <trkpt lat="44.1242" lon="3.22237">
        <ele>414.3</ele>
        <time>2021-10-14T14:38:15Z</time>
      </trkpt>
      <trkpt lat="44.12416" lon="3.22245">
        <ele>412.7</ele>
        <time>2021-10-14T14:38:16Z</time>
      </trkpt>
      <trkpt lat="44.12412" lon="3.22259">
        <ele>411.1</ele>
        <time>2021-10-14T14:38:18Z</time>
      </trkpt>
      <trkpt lat="44.12414" lon="3.22264">
        <ele>411</ele>
        <time>2021-10-14T14:38:20Z</time>
      </trkpt>
      <trkpt lat="44.1241" lon="3.22265">
        <ele>411</ele>
        <time>2021-10-14T14:38:21Z</time>
      </trkpt>
      <trkpt lat="44.12409" lon="3.22265">
        <ele>410.9</ele>
        <time>2021-10-14T14:38:22Z</time>
      </trkpt>
      <trkpt lat="44.12404" lon="3.22263">
        <ele>410.9</ele>
        <time>2021-10-14T14:38:23Z</time>
      </trkpt>
      <trkpt lat="44.12396" lon="3.22261">
        <ele>410.7</ele>
        <time>2021-10-14T14:38:25Z</time>
      </trkpt>
      <trkpt lat="44.12392" lon="3.2226">
        <ele>410.7</ele>
        <time>2021-10-14T14:38:26Z</time>
      </trkpt>
      <trkpt lat="44.12387" lon="3.22259">
        <ele>410.6</ele>
        <time>2021-10-14T14:38:27Z</time>
      </trkpt>
      <trkpt lat="44.12376" lon="3.22256">
        <ele>410.4</ele>
        <time>2021-10-14T14:38:29Z</time>
      </trkpt>
      <trkpt lat="44.12366" lon="3.22254">
        <ele>410.3</ele>
        <time>2021-10-14T14:38:31Z</time>
      </trkpt>
      <trkpt lat="44.12362" lon="3.22251">
        <ele>410.2</ele>
        <time>2021-10-14T14:38:32Z</time>
      </trkpt>
      <trkpt lat="44.12358" lon="3.22247">
        <ele>410.2</ele>
        <time>2021-10-14T14:38:33Z</time>
      </trkpt>
      <trkpt lat="44.12354" lon="3.22244">
        <ele>410.1</ele>
        <time>2021-10-14T14:38:34Z</time>
      </trkpt>
      <trkpt lat="44.12349" lon="3.2224">
        <ele>410.1</ele>
        <time>2021-10-14T14:38:35Z</time>
      </trkpt>
      <trkpt lat="44.12343" lon="3.22231">
        <ele>410</ele>
        <time>2021-10-14T14:38:37Z</time>
      </trkpt>
      <trkpt lat="44.12337" lon="3.22226">
        <ele>409.9</ele>
        <time>2021-10-14T14:38:39Z</time>
      </trkpt>
      <trkpt lat="44.12335" lon="3.22225">
        <ele>409.9</ele>
        <time>2021-10-14T14:38:40Z</time>
      </trkpt>
      <trkpt lat="44.12334" lon="3.22224">
        <ele>409.8</ele>
        <time>2021-10-14T14:38:41Z</time>
      </trkpt>
      <trkpt lat="44.12333" lon="3.22224">
        <ele>409.8</ele>
        <time>2021-10-14T14:38:42Z</time>
      </trkpt>
      <trkpt lat="44.12333" lon="3.22223">
        <ele>409.8</ele>
        <time>2021-10-14T14:38:44Z</time>
      </trkpt>
      <trkpt lat="44.12333" lon="3.22223">
        <ele>409.8</ele>
        <time>2021-10-14T14:38:45Z</time>
      </trkpt>
      <trkpt lat="44.12332" lon="3.22223">
        <ele>409.8</ele>
        <time>2021-10-14T14:38:47Z</time>
      </trkpt>
      <trkpt lat="44.12333" lon="3.22223">
        <ele>409.8</ele>
        <time>2021-10-14T14:38:48Z</time>
      </trkpt>
      <trkpt lat="44.12332" lon="3.22223">
        <ele>409.8</ele>
        <time>2021-10-14T14:38:50Z</time>
      </trkpt>
      <trkpt lat="44.12332" lon="3.22222">
        <ele>409.8</ele>
        <time>2021-10-14T14:38:51Z</time>
      </trkpt>
      <trkpt lat="44.12332" lon="3.22222">
        <ele>409.8</ele>
        <time>2021-10-14T14:38:52Z</time>
      </trkpt>
      <trkpt lat="44.12332" lon="3.22222">
        <ele>409.8</ele>
        <time>2021-10-14T14:38:53Z</time>
      </trkpt>
      <trkpt lat="44.12333" lon="3.22223">
        <ele>409.8</ele>
        <time>2021-10-14T14:38:55Z</time>
      </trkpt>
      <trkpt lat="44.12333" lon="3.22223">
        <ele>409.8</ele>
        <time>2021-10-14T14:38:56Z</time>
      </trkpt>
      <trkpt lat="44.12333" lon="3.22222">
        <ele>409.8</ele>
        <time>2021-10-14T14:38:59Z</time>
      </trkpt>
      <trkpt lat="44.12333" lon="3.22221">
        <ele>409.8</ele>
        <time>2021-10-14T14:39:00Z</time>
      </trkpt>
      <trkpt lat="44.12333" lon="3.22221">
        <ele>409.8</ele>
        <time>2021-10-14T14:39:01Z</time>
      </trkpt>
      <trkpt lat="44.12333" lon="3.22221">
        <ele>409.8</ele>
        <time>2021-10-14T14:39:03Z</time>
      </trkpt>
      <trkpt lat="44.12332" lon="3.2222">
        <ele>409.8</ele>
        <time>2021-10-14T14:39:04Z</time>
      </trkpt>
      <trkpt lat="44.12332" lon="3.2222">
        <ele>409.8</ele>
        <time>2021-10-14T14:39:06Z</time>
      </trkpt>
      <trkpt lat="44.12331" lon="3.22216">
        <ele>409.7</ele>
        <time>2021-10-14T14:39:31Z</time>
      </trkpt>
      <trkpt lat="44.12331" lon="3.22215">
        <ele>409.7</ele>
        <time>2021-10-14T14:39:32Z</time>
      </trkpt>
      <trkpt lat="44.12331" lon="3.22215">
        <ele>409.7</ele>
        <time>2021-10-14T14:39:33Z</time>
      </trkpt>
      <trkpt lat="44.1233" lon="3.22215">
        <ele>409.7</ele>
        <time>2021-10-14T14:39:35Z</time>
      </trkpt>
      <trkpt lat="44.1233" lon="3.22215">
        <ele>409.7</ele>
        <time>2021-10-14T14:39:36Z</time>
      </trkpt>
      <trkpt lat="44.1233" lon="3.22215">
        <ele>409.7</ele>
        <time>2021-10-14T14:39:38Z</time>
      </trkpt>
      <trkpt lat="44.12331" lon="3.22215">
        <ele>409.7</ele>
        <time>2021-10-14T14:39:40Z</time>
      </trkpt>
      <trkpt lat="44.12331" lon="3.22216">
        <ele>409.7</ele>
        <time>2021-10-14T14:39:41Z</time>
      </trkpt>
      <trkpt lat="44.12331" lon="3.22216">
        <ele>409.7</ele>
        <time>2021-10-14T14:39:43Z</time>
      </trkpt>
      <trkpt lat="44.12331" lon="3.22216">
        <ele>409.7</ele>
        <time>2021-10-14T14:39:44Z</time>
      </trkpt>
      <trkpt lat="44.12331" lon="3.22216">
        <ele>409.7</ele>
        <time>2021-10-14T14:39:46Z</time>
      </trkpt>
      <trkpt lat="44.12331" lon="3.22217">
        <ele>409.7</ele>
        <time>2021-10-14T14:40:12Z</time>
      </trkpt>
      <trkpt lat="44.12331" lon="3.22219">
        <ele>409.7</ele>
        <time>2021-10-14T14:40:14Z</time>
      </trkpt>
      <trkpt lat="44.1233" lon="3.22219">
        <ele>409.7</ele>
        <time>2021-10-14T14:40:15Z</time>
      </trkpt>
      <trkpt lat="44.1233" lon="3.22219">
        <ele>409.7</ele>
        <time>2021-10-14T14:40:16Z</time>
      </trkpt>
      <trkpt lat="44.1233" lon="3.22218">
        <ele>409.7</ele>
        <time>2021-10-14T14:40:18Z</time>
      </trkpt>
      <trkpt lat="44.1233" lon="3.22217">
        <ele>409.6</ele>
        <time>2021-10-14T14:40:19Z</time>
      </trkpt>
      <trkpt lat="44.1233" lon="3.22217">
        <ele>409.6</ele>
        <time>2021-10-14T14:40:21Z</time>
      </trkpt>
      <trkpt lat="44.1233" lon="3.22217">
        <ele>409.6</ele>
        <time>2021-10-14T14:40:22Z</time>
      </trkpt>
      <trkpt lat="44.1233" lon="3.22217">
        <ele>409.6</ele>
        <time>2021-10-14T14:40:24Z</time>
      </trkpt>
      <trkpt lat="44.1233" lon="3.22217">
        <ele>409.6</ele>
        <time>2021-10-14T14:40:25Z</time>
      </trkpt>
      <trkpt lat="44.12331" lon="3.22217">
        <ele>409.6</ele>
        <time>2021-10-14T14:40:26Z</time>
      </trkpt>
    </trkseg>
  </trk>
</gpx>